<?xml version="1.0" encoding="utf-8"?>
<gpx xmlns:xsi="http://www.w3.org/2001/XMLSchema-instance" xmlns:xsd="http://www.w3.org/2001/XMLSchema" version="1.1" creator="Shapelink.com" xmlns="http://www.topografix.com/GPX/1/1" xmlns:gpxtpx="http://www.garmin.com/xmlschemas/TrackPointExtension/v1">
  <metadata>
    <name>Cykling 62.20 km, 2011-05-24</name>
    <desc></desc>
    <author><name>Jojje Borssén</name></author> 
    <time>2011-05-24T10:12:38Z</time>
  </metadata>
  <trk>
    <name>Cykling 62.20 km, 2011-05-24</name>
    <trkseg>
      <trkpt lat="61.0789892028" lon="13.6824248834">
        <ele>319</ele>
        <time>2011-05-24T10:12:38Z</time>
      </trkpt>
      <trkpt lat="61.079113674" lon="13.6821998294">
        <ele>319</ele>
        <time>2011-05-24T10:12:42Z</time>
      </trkpt>
      <trkpt lat="61.0791397417" lon="13.6821830656">
        <ele>319</ele>
        <time>2011-05-24T10:12:43Z</time>
      </trkpt>
      <trkpt lat="61.0792272488" lon="13.682398229">
        <ele>319</ele>
        <time>2011-05-24T10:12:47Z</time>
      </trkpt>
      <trkpt lat="61.0792448508" lon="13.6826619236">
        <ele>319</ele>
        <time>2011-05-24T10:12:51Z</time>
      </trkpt>
      <trkpt lat="61.0792561663" lon="13.6827261289">
        <ele>319</ele>
        <time>2011-05-24T10:12:52Z</time>
      </trkpt>
      <trkpt lat="61.0792963995" lon="13.6829817769">
        <ele>319</ele>
        <time>2011-05-24T10:12:57Z</time>
      </trkpt>
      <trkpt lat="61.0793321063" lon="13.6832638278">
        <ele>319</ele>
        <time>2011-05-24T10:13:01Z</time>
      </trkpt>
      <trkpt lat="61.0794156739" lon="13.6836173763">
        <ele>319</ele>
        <time>2011-05-24T10:13:06Z</time>
      </trkpt>
      <trkpt lat="61.0794447591" lon="13.6840532351">
        <ele>318.6</ele>
        <time>2011-05-24T10:13:11Z</time>
      </trkpt>
      <trkpt lat="61.079440652" lon="13.684229758">
        <ele>318.2</ele>
        <time>2011-05-24T10:13:13Z</time>
      </trkpt>
      <trkpt lat="61.079410058" lon="13.6844911894">
        <ele>318</ele>
        <time>2011-05-24T10:13:16Z</time>
      </trkpt>
      <trkpt lat="61.0793671427" lon="13.6849522777">
        <ele>317.6</ele>
        <time>2011-05-24T10:13:21Z</time>
      </trkpt>
      <trkpt lat="61.0793530611" lon="13.6850604042">
        <ele>317.4</ele>
        <time>2011-05-24T10:13:22Z</time>
      </trkpt>
      <trkpt lat="61.0793129956" lon="13.6854677646">
        <ele>317.4</ele>
        <time>2011-05-24T10:13:26Z</time>
      </trkpt>
      <trkpt lat="61.0793060386" lon="13.6855559422">
        <ele>317.2</ele>
        <time>2011-05-24T10:13:27Z</time>
      </trkpt>
      <trkpt lat="61.0793443439" lon="13.6859161124">
        <ele>317.2</ele>
        <time>2011-05-24T10:13:31Z</time>
      </trkpt>
      <trkpt lat="61.0793793803" lon="13.6860970776">
        <ele>317.2</ele>
        <time>2011-05-24T10:13:33Z</time>
      </trkpt>
      <trkpt lat="61.0793943" lon="13.6862102333">
        <ele>317.2</ele>
        <time>2011-05-24T10:13:34Z</time>
      </trkpt>
      <trkpt lat="61.0794273247" lon="13.6867040948">
        <ele>317</ele>
        <time>2011-05-24T10:13:39Z</time>
      </trkpt>
      <trkpt lat="61.0794483633" lon="13.6869713936">
        <ele>317</ele>
        <time>2011-05-24T10:13:42Z</time>
      </trkpt>
      <trkpt lat="61.0794672226" lon="13.6874212502">
        <ele>317</ele>
        <time>2011-05-24T10:13:47Z</time>
      </trkpt>
      <trkpt lat="61.0794235529" lon="13.6876495732">
        <ele>317</ele>
        <time>2011-05-24T10:13:50Z</time>
        <extensions><gpxtpx:TrackPointExtension><gpxtpx:hr>128</gpxtpx:hr></gpxtpx:TrackPointExtension></extensions>
      </trkpt>
      <trkpt lat="61.0794083816" lon="13.6877184724">
        <ele>317</ele>
        <time>2011-05-24T10:13:51Z</time>
        <extensions><gpxtpx:TrackPointExtension><gpxtpx:hr>128</gpxtpx:hr></gpxtpx:TrackPointExtension></extensions>
      </trkpt>
      <trkpt lat="61.0794691504" lon="13.6886668005">
        <ele>316.6</ele>
        <time>2011-05-24T10:14:02Z</time>
        <extensions><gpxtpx:TrackPointExtension><gpxtpx:hr>128</gpxtpx:hr></gpxtpx:TrackPointExtension></extensions>
      </trkpt>
      <trkpt lat="61.0795214535" lon="13.6888250508">
        <ele>316.2</ele>
        <time>2011-05-24T10:14:04Z</time>
        <extensions><gpxtpx:TrackPointExtension><gpxtpx:hr>135</gpxtpx:hr></gpxtpx:TrackPointExtension></extensions>
      </trkpt>
      <trkpt lat="61.07968884" lon="13.6894049945">
        <ele>315.6</ele>
        <time>2011-05-24T10:14:11Z</time>
        <extensions><gpxtpx:TrackPointExtension><gpxtpx:hr>129</gpxtpx:hr></gpxtpx:TrackPointExtension></extensions>
      </trkpt>
      <trkpt lat="61.0797781911" lon="13.6897743848">
        <ele>315.2</ele>
        <time>2011-05-24T10:14:15Z</time>
        <extensions><gpxtpx:TrackPointExtension><gpxtpx:hr>130</gpxtpx:hr></gpxtpx:TrackPointExtension></extensions>
      </trkpt>
      <trkpt lat="61.0798842221" lon="13.6901819966">
        <ele>315.2</ele>
        <time>2011-05-24T10:14:19Z</time>
        <extensions><gpxtpx:TrackPointExtension><gpxtpx:hr>132</gpxtpx:hr></gpxtpx:TrackPointExtension></extensions>
      </trkpt>
      <trkpt lat="61.0799983836" lon="13.6905556617">
        <ele>315</ele>
        <time>2011-05-24T10:14:23Z</time>
        <extensions><gpxtpx:TrackPointExtension><gpxtpx:hr>132</gpxtpx:hr></gpxtpx:TrackPointExtension></extensions>
      </trkpt>
      <trkpt lat="61.0800941887" lon="13.6909144908">
        <ele>315</ele>
        <time>2011-05-24T10:14:27Z</time>
        <extensions><gpxtpx:TrackPointExtension><gpxtpx:hr>132</gpxtpx:hr></gpxtpx:TrackPointExtension></extensions>
      </trkpt>
      <trkpt lat="61.0801994654" lon="13.6912768404">
        <ele>315</ele>
        <time>2011-05-24T10:14:32Z</time>
        <extensions><gpxtpx:TrackPointExtension><gpxtpx:hr>134</gpxtpx:hr></gpxtpx:TrackPointExtension></extensions>
      </trkpt>
      <trkpt lat="61.0803109446" lon="13.6916361724">
        <ele>315</ele>
        <time>2011-05-24T10:14:37Z</time>
        <extensions><gpxtpx:TrackPointExtension><gpxtpx:hr>136</gpxtpx:hr></gpxtpx:TrackPointExtension></extensions>
      </trkpt>
      <trkpt lat="61.0803857112" lon="13.6919654135">
        <ele>314.8</ele>
        <time>2011-05-24T10:14:42Z</time>
        <extensions><gpxtpx:TrackPointExtension><gpxtpx:hr>138</gpxtpx:hr></gpxtpx:TrackPointExtension></extensions>
      </trkpt>
      <trkpt lat="61.0804408641" lon="13.6922762981">
        <ele>314.8</ele>
        <time>2011-05-24T10:14:47Z</time>
        <extensions><gpxtpx:TrackPointExtension><gpxtpx:hr>141</gpxtpx:hr></gpxtpx:TrackPointExtension></extensions>
      </trkpt>
      <trkpt lat="61.0804716257" lon="13.6925512245">
        <ele>314.8</ele>
        <time>2011-05-24T10:14:52Z</time>
        <extensions><gpxtpx:TrackPointExtension><gpxtpx:hr>142</gpxtpx:hr></gpxtpx:TrackPointExtension></extensions>
      </trkpt>
      <trkpt lat="61.0804892276" lon="13.6927481153">
        <ele>315</ele>
        <time>2011-05-24T10:14:56Z</time>
        <extensions><gpxtpx:TrackPointExtension><gpxtpx:hr>144</gpxtpx:hr></gpxtpx:TrackPointExtension></extensions>
      </trkpt>
      <trkpt lat="61.0804892276" lon="13.6930442478">
        <ele>316</ele>
        <time>2011-05-24T10:15:01Z</time>
        <extensions><gpxtpx:TrackPointExtension><gpxtpx:hr>148</gpxtpx:hr></gpxtpx:TrackPointExtension></extensions>
      </trkpt>
      <trkpt lat="61.0804687758" lon="13.6934713056">
        <ele>317.4</ele>
        <time>2011-05-24T10:15:07Z</time>
        <extensions><gpxtpx:TrackPointExtension><gpxtpx:hr>148</gpxtpx:hr></gpxtpx:TrackPointExtension></extensions>
      </trkpt>
      <trkpt lat="61.0804166404" lon="13.6938432943">
        <ele>318.2</ele>
        <time>2011-05-24T10:15:13Z</time>
        <extensions><gpxtpx:TrackPointExtension><gpxtpx:hr>146</gpxtpx:hr></gpxtpx:TrackPointExtension></extensions>
      </trkpt>
      <trkpt lat="61.0802952705" lon="13.6940588768">
        <ele>319</ele>
        <time>2011-05-24T10:15:19Z</time>
        <extensions><gpxtpx:TrackPointExtension><gpxtpx:hr>143</gpxtpx:hr></gpxtpx:TrackPointExtension></extensions>
      </trkpt>
      <trkpt lat="61.0801244474" lon="13.6942183006">
        <ele>320.2</ele>
        <time>2011-05-24T10:15:26Z</time>
        <extensions><gpxtpx:TrackPointExtension><gpxtpx:hr>139</gpxtpx:hr></gpxtpx:TrackPointExtension></extensions>
      </trkpt>
      <trkpt lat="61.0800573083" lon="13.694209751">
        <ele>320.4</ele>
        <time>2011-05-24T10:15:29Z</time>
        <extensions><gpxtpx:TrackPointExtension><gpxtpx:hr>137</gpxtpx:hr></gpxtpx:TrackPointExtension></extensions>
      </trkpt>
      <trkpt lat="61.0799316637" lon="13.6940473098">
        <ele>320.8</ele>
        <time>2011-05-24T10:15:35Z</time>
        <extensions><gpxtpx:TrackPointExtension><gpxtpx:hr>137</gpxtpx:hr></gpxtpx:TrackPointExtension></extensions>
      </trkpt>
      <trkpt lat="61.0798249621" lon="13.6940630678">
        <ele>321</ele>
        <time>2011-05-24T10:15:40Z</time>
        <extensions><gpxtpx:TrackPointExtension><gpxtpx:hr>137</gpxtpx:hr></gpxtpx:TrackPointExtension></extensions>
      </trkpt>
      <trkpt lat="61.079785148" lon="13.6940398499">
        <ele>321</ele>
        <time>2011-05-24T10:15:42Z</time>
        <extensions><gpxtpx:TrackPointExtension><gpxtpx:hr>138</gpxtpx:hr></gpxtpx:TrackPointExtension></extensions>
      </trkpt>
      <trkpt lat="61.0796543066" lon="13.6940835196">
        <ele>321.2</ele>
        <time>2011-05-24T10:15:48Z</time>
        <extensions><gpxtpx:TrackPointExtension><gpxtpx:hr>142</gpxtpx:hr></gpxtpx:TrackPointExtension></extensions>
      </trkpt>
      <trkpt lat="61.0795667157" lon="13.6941566098">
        <ele>321.2</ele>
        <time>2011-05-24T10:15:53Z</time>
        <extensions><gpxtpx:TrackPointExtension><gpxtpx:hr>145</gpxtpx:hr></gpxtpx:TrackPointExtension></extensions>
      </trkpt>
      <trkpt lat="61.0794519675" lon="13.6942532531">
        <ele>321.2</ele>
        <time>2011-05-24T10:15:58Z</time>
        <extensions><gpxtpx:TrackPointExtension><gpxtpx:hr>144</gpxtpx:hr></gpxtpx:TrackPointExtension></extensions>
      </trkpt>
      <trkpt lat="61.0793564977" lon="13.6943452863">
        <ele>322</ele>
        <time>2011-05-24T10:16:03Z</time>
        <extensions><gpxtpx:TrackPointExtension><gpxtpx:hr>144</gpxtpx:hr></gpxtpx:TrackPointExtension></extensions>
      </trkpt>
      <trkpt lat="61.0793294241" lon="13.6943568534">
        <ele>322.2</ele>
        <time>2011-05-24T10:16:04Z</time>
        <extensions><gpxtpx:TrackPointExtension><gpxtpx:hr>144</gpxtpx:hr></gpxtpx:TrackPointExtension></extensions>
      </trkpt>
      <trkpt lat="61.0793052004" lon="13.6943628883">
        <ele>322.2</ele>
        <time>2011-05-24T10:16:05Z</time>
        <extensions><gpxtpx:TrackPointExtension><gpxtpx:hr>144</gpxtpx:hr></gpxtpx:TrackPointExtension></extensions>
      </trkpt>
      <trkpt lat="61.0792016002" lon="13.6943488067">
        <ele>322.8</ele>
        <time>2011-05-24T10:16:09Z</time>
        <extensions><gpxtpx:TrackPointExtension><gpxtpx:hr>146</gpxtpx:hr></gpxtpx:TrackPointExtension></extensions>
      </trkpt>
      <trkpt lat="61.0790363091" lon="13.6943757965">
        <ele>324</ele>
        <time>2011-05-24T10:16:15Z</time>
        <extensions><gpxtpx:TrackPointExtension><gpxtpx:hr>144</gpxtpx:hr></gpxtpx:TrackPointExtension></extensions>
      </trkpt>
      <trkpt lat="61.0789303619" lon="13.6944758763">
        <ele>325</ele>
        <time>2011-05-24T10:16:21Z</time>
        <extensions><gpxtpx:TrackPointExtension><gpxtpx:hr>142</gpxtpx:hr></gpxtpx:TrackPointExtension></extensions>
      </trkpt>
      <trkpt lat="61.0788652345" lon="13.694506135">
        <ele>326</ele>
        <time>2011-05-24T10:16:25Z</time>
        <extensions><gpxtpx:TrackPointExtension><gpxtpx:hr>142</gpxtpx:hr></gpxtpx:TrackPointExtension></extensions>
      </trkpt>
      <trkpt lat="61.0788072318" lon="13.6946145968">
        <ele>326.6</ele>
        <time>2011-05-24T10:16:30Z</time>
        <extensions><gpxtpx:TrackPointExtension><gpxtpx:hr>141</gpxtpx:hr></gpxtpx:TrackPointExtension></extensions>
      </trkpt>
      <trkpt lat="61.0787980955" lon="13.6946619545">
        <ele>326.6</ele>
        <time>2011-05-24T10:16:31Z</time>
        <extensions><gpxtpx:TrackPointExtension><gpxtpx:hr>140</gpxtpx:hr></gpxtpx:TrackPointExtension></extensions>
      </trkpt>
      <trkpt lat="61.0787656575" lon="13.6950329374">
        <ele>328.2</ele>
        <time>2011-05-24T10:16:39Z</time>
        <extensions><gpxtpx:TrackPointExtension><gpxtpx:hr>138</gpxtpx:hr></gpxtpx:TrackPointExtension></extensions>
      </trkpt>
      <trkpt lat="61.0787997719" lon="13.6953592448">
        <ele>328.8</ele>
        <time>2011-05-24T10:16:44Z</time>
        <extensions><gpxtpx:TrackPointExtension><gpxtpx:hr>135</gpxtpx:hr></gpxtpx:TrackPointExtension></extensions>
      </trkpt>
      <trkpt lat="61.0788658213" lon="13.6956935988">
        <ele>329</ele>
        <time>2011-05-24T10:16:48Z</time>
        <extensions><gpxtpx:TrackPointExtension><gpxtpx:hr>131</gpxtpx:hr></gpxtpx:TrackPointExtension></extensions>
      </trkpt>
      <trkpt lat="61.0789737801" lon="13.6961596324">
        <ele>329.2</ele>
        <time>2011-05-24T10:16:55Z</time>
        <extensions><gpxtpx:TrackPointExtension><gpxtpx:hr>130</gpxtpx:hr></gpxtpx:TrackPointExtension></extensions>
      </trkpt>
      <trkpt lat="61.0789583574" lon="13.6962356562">
        <ele>329.4</ele>
        <time>2011-05-24T10:16:56Z</time>
        <extensions><gpxtpx:TrackPointExtension><gpxtpx:hr>130</gpxtpx:hr></gpxtpx:TrackPointExtension></extensions>
      </trkpt>
      <trkpt lat="61.0788916375" lon="13.6964820841">
        <ele>329.4</ele>
        <time>2011-05-24T10:17:00Z</time>
        <extensions><gpxtpx:TrackPointExtension><gpxtpx:hr>130</gpxtpx:hr></gpxtpx:TrackPointExtension></extensions>
      </trkpt>
      <trkpt lat="61.078834892" lon="13.6966648933">
        <ele>329.4</ele>
        <time>2011-05-24T10:17:04Z</time>
        <extensions><gpxtpx:TrackPointExtension><gpxtpx:hr>128</gpxtpx:hr></gpxtpx:TrackPointExtension></extensions>
      </trkpt>
      <trkpt lat="61.0787897136" lon="13.6967218903">
        <ele>329.6</ele>
        <time>2011-05-24T10:17:09Z</time>
        <extensions><gpxtpx:TrackPointExtension><gpxtpx:hr>126</gpxtpx:hr></gpxtpx:TrackPointExtension></extensions>
      </trkpt>
      <trkpt lat="61.0787785657" lon="13.6967047074">
        <ele>330</ele>
        <time>2011-05-24T10:17:15Z</time>
        <extensions><gpxtpx:TrackPointExtension><gpxtpx:hr>125</gpxtpx:hr></gpxtpx:TrackPointExtension></extensions>
      </trkpt>
      <trkpt lat="61.0787778113" lon="13.6967053779">
        <ele>330.2</ele>
        <time>2011-05-24T10:17:16Z</time>
        <extensions><gpxtpx:TrackPointExtension><gpxtpx:hr>116</gpxtpx:hr></gpxtpx:TrackPointExtension></extensions>
      </trkpt>
      <trkpt lat="61.0787766378" lon="13.6967058808">
        <ele>330.4</ele>
        <time>2011-05-24T10:17:18Z</time>
        <extensions><gpxtpx:TrackPointExtension><gpxtpx:hr>109</gpxtpx:hr></gpxtpx:TrackPointExtension></extensions>
      </trkpt>
      <trkpt lat="61.0787743747" lon="13.6967040368">
        <ele>330.6</ele>
        <time>2011-05-24T10:17:20Z</time>
        <extensions><gpxtpx:TrackPointExtension><gpxtpx:hr>104</gpxtpx:hr></gpxtpx:TrackPointExtension></extensions>
      </trkpt>
      <trkpt lat="61.0787714411" lon="13.6967050426">
        <ele>331</ele>
        <time>2011-05-24T10:17:24Z</time>
        <extensions><gpxtpx:TrackPointExtension><gpxtpx:hr>99</gpxtpx:hr></gpxtpx:TrackPointExtension></extensions>
      </trkpt>
      <trkpt lat="61.0787708543" lon="13.696704875">
        <ele>331.4</ele>
        <time>2011-05-24T10:17:27Z</time>
        <extensions><gpxtpx:TrackPointExtension><gpxtpx:hr>104</gpxtpx:hr></gpxtpx:TrackPointExtension></extensions>
      </trkpt>
      <trkpt lat="61.0787692618" lon="13.6967068028">
        <ele>331.8</ele>
        <time>2011-05-24T10:17:29Z</time>
        <extensions><gpxtpx:TrackPointExtension><gpxtpx:hr>109</gpxtpx:hr></gpxtpx:TrackPointExtension></extensions>
      </trkpt>
      <trkpt lat="61.078766831" lon="13.6967008517">
        <ele>332.2</ele>
        <time>2011-05-24T10:17:31Z</time>
        <extensions><gpxtpx:TrackPointExtension><gpxtpx:hr>115</gpxtpx:hr></gpxtpx:TrackPointExtension></extensions>
      </trkpt>
      <trkpt lat="61.0787647355" lon="13.6966975828">
        <ele>333.2</ele>
        <time>2011-05-24T10:17:39Z</time>
        <extensions><gpxtpx:TrackPointExtension><gpxtpx:hr>118</gpxtpx:hr></gpxtpx:TrackPointExtension></extensions>
      </trkpt>
      <trkpt lat="61.0787614666" lon="13.6966959064">
        <ele>335</ele>
        <time>2011-05-24T10:17:50Z</time>
        <extensions><gpxtpx:TrackPointExtension><gpxtpx:hr>113</gpxtpx:hr></gpxtpx:TrackPointExtension></extensions>
      </trkpt>
      <trkpt lat="61.0787544258" lon="13.6966796455">
        <ele>337.2</ele>
        <time>2011-05-24T10:18:11Z</time>
        <extensions><gpxtpx:TrackPointExtension><gpxtpx:hr>102</gpxtpx:hr></gpxtpx:TrackPointExtension></extensions>
      </trkpt>
      <trkpt lat="61.0787500672" lon="13.6966709283">
        <ele>337.8</ele>
        <time>2011-05-24T10:18:25Z</time>
        <extensions><gpxtpx:TrackPointExtension><gpxtpx:hr>107</gpxtpx:hr></gpxtpx:TrackPointExtension></extensions>
      </trkpt>
      <trkpt lat="61.0787491452" lon="13.6966733591">
        <ele>337.8</ele>
        <time>2011-05-24T10:18:30Z</time>
        <extensions><gpxtpx:TrackPointExtension><gpxtpx:hr>100</gpxtpx:hr></gpxtpx:TrackPointExtension></extensions>
      </trkpt>
      <trkpt lat="61.0787527494" lon="13.6966828306">
        <ele>337.8</ele>
        <time>2011-05-24T10:18:31Z</time>
        <extensions><gpxtpx:TrackPointExtension><gpxtpx:hr>100</gpxtpx:hr></gpxtpx:TrackPointExtension></extensions>
      </trkpt>
      <trkpt lat="61.0787482232" lon="13.6966912125">
        <ele>338.6</ele>
        <time>2011-05-24T10:18:38Z</time>
        <extensions><gpxtpx:TrackPointExtension><gpxtpx:hr>105</gpxtpx:hr></gpxtpx:TrackPointExtension></extensions>
      </trkpt>
      <trkpt lat="61.0787429426" lon="13.6966801484">
        <ele>339.4</ele>
        <time>2011-05-24T10:18:46Z</time>
        <extensions><gpxtpx:TrackPointExtension><gpxtpx:hr>106</gpxtpx:hr></gpxtpx:TrackPointExtension></extensions>
      </trkpt>
      <trkpt lat="61.0787447028" lon="13.6966595289">
        <ele>339.8</ele>
        <time>2011-05-24T10:19:04Z</time>
        <extensions><gpxtpx:TrackPointExtension><gpxtpx:hr>107</gpxtpx:hr></gpxtpx:TrackPointExtension></extensions>
      </trkpt>
      <trkpt lat="61.0787450381" lon="13.6966568467">
        <ele>339.8</ele>
        <time>2011-05-24T10:19:06Z</time>
        <extensions><gpxtpx:TrackPointExtension><gpxtpx:hr>100</gpxtpx:hr></gpxtpx:TrackPointExtension></extensions>
      </trkpt>
      <trkpt lat="61.0787449543" lon="13.6966577687">
        <ele>339.8</ele>
        <time>2011-05-24T10:19:07Z</time>
        <extensions><gpxtpx:TrackPointExtension><gpxtpx:hr>100</gpxtpx:hr></gpxtpx:TrackPointExtension></extensions>
      </trkpt>
      <trkpt lat="61.0787475526" lon="13.6966559247">
        <ele>340</ele>
        <time>2011-05-24T10:19:12Z</time>
        <extensions><gpxtpx:TrackPointExtension><gpxtpx:hr>105</gpxtpx:hr></gpxtpx:TrackPointExtension></extensions>
      </trkpt>
      <trkpt lat="61.0787447866" lon="13.6966572658">
        <ele>340</ele>
        <time>2011-05-24T10:19:20Z</time>
        <extensions><gpxtpx:TrackPointExtension><gpxtpx:hr>100</gpxtpx:hr></gpxtpx:TrackPointExtension></extensions>
      </trkpt>
      <trkpt lat="61.0787472174" lon="13.6966416755">
        <ele>340</ele>
        <time>2011-05-24T10:19:22Z</time>
        <extensions><gpxtpx:TrackPointExtension><gpxtpx:hr>95</gpxtpx:hr></gpxtpx:TrackPointExtension></extensions>
      </trkpt>
      <trkpt lat="61.078746463" lon="13.696613177">
        <ele>340</ele>
        <time>2011-05-24T10:19:31Z</time>
        <extensions><gpxtpx:TrackPointExtension><gpxtpx:hr>90</gpxtpx:hr></gpxtpx:TrackPointExtension></extensions>
      </trkpt>
      <trkpt lat="61.0787385002" lon="13.6965953236">
        <ele>340</ele>
        <time>2011-05-24T10:19:52Z</time>
        <extensions><gpxtpx:TrackPointExtension><gpxtpx:hr>85</gpxtpx:hr></gpxtpx:TrackPointExtension></extensions>
      </trkpt>
      <trkpt lat="61.0787285257" lon="13.6966379036">
        <ele>340</ele>
        <time>2011-05-24T10:20:00Z</time>
        <extensions><gpxtpx:TrackPointExtension><gpxtpx:hr>94</gpxtpx:hr></gpxtpx:TrackPointExtension></extensions>
      </trkpt>
      <trkpt lat="61.0787379135" lon="13.6966501412">
        <ele>340</ele>
        <time>2011-05-24T10:20:01Z</time>
        <extensions><gpxtpx:TrackPointExtension><gpxtpx:hr>99</gpxtpx:hr></gpxtpx:TrackPointExtension></extensions>
      </trkpt>
      <trkpt lat="61.0787419368" lon="13.6966743649">
        <ele>340</ele>
        <time>2011-05-24T10:20:02Z</time>
        <extensions><gpxtpx:TrackPointExtension><gpxtpx:hr>102</gpxtpx:hr></gpxtpx:TrackPointExtension></extensions>
      </trkpt>
      <trkpt lat="61.0787439484" lon="13.6967527357">
        <ele>340</ele>
        <time>2011-05-24T10:20:04Z</time>
        <extensions><gpxtpx:TrackPointExtension><gpxtpx:hr>107</gpxtpx:hr></gpxtpx:TrackPointExtension></extensions>
      </trkpt>
      <trkpt lat="61.0787410986" lon="13.6968642987">
        <ele>340</ele>
        <time>2011-05-24T10:20:06Z</time>
        <extensions><gpxtpx:TrackPointExtension><gpxtpx:hr>112</gpxtpx:hr></gpxtpx:TrackPointExtension></extensions>
      </trkpt>
      <trkpt lat="61.0786724508" lon="13.6971014227">
        <ele>340</ele>
        <time>2011-05-24T10:20:10Z</time>
        <extensions><gpxtpx:TrackPointExtension><gpxtpx:hr>117</gpxtpx:hr></gpxtpx:TrackPointExtension></extensions>
      </trkpt>
      <trkpt lat="61.0785739635" lon="13.6974595813">
        <ele>340</ele>
        <time>2011-05-24T10:20:15Z</time>
        <extensions><gpxtpx:TrackPointExtension><gpxtpx:hr>118</gpxtpx:hr></gpxtpx:TrackPointExtension></extensions>
      </trkpt>
      <trkpt lat="61.0785191459" lon="13.6978017304">
        <ele>339.6</ele>
        <time>2011-05-24T10:20:19Z</time>
        <extensions><gpxtpx:TrackPointExtension><gpxtpx:hr>117</gpxtpx:hr></gpxtpx:TrackPointExtension></extensions>
      </trkpt>
      <trkpt lat="61.0784781584" lon="13.6983123558">
        <ele>338.6</ele>
        <time>2011-05-24T10:20:25Z</time>
        <extensions><gpxtpx:TrackPointExtension><gpxtpx:hr>113</gpxtpx:hr></gpxtpx:TrackPointExtension></extensions>
      </trkpt>
      <trkpt lat="61.0784247657" lon="13.6985219871">
        <ele>338.4</ele>
        <time>2011-05-24T10:20:29Z</time>
        <extensions><gpxtpx:TrackPointExtension><gpxtpx:hr>113</gpxtpx:hr></gpxtpx:TrackPointExtension></extensions>
      </trkpt>
      <trkpt lat="61.0784133663" lon="13.6985968375">
        <ele>337.8</ele>
        <time>2011-05-24T10:20:31Z</time>
        <extensions><gpxtpx:TrackPointExtension><gpxtpx:hr>113</gpxtpx:hr></gpxtpx:TrackPointExtension></extensions>
      </trkpt>
      <trkpt lat="61.0784053197" lon="13.6987110828">
        <ele>337.2</ele>
        <time>2011-05-24T10:20:34Z</time>
        <extensions><gpxtpx:TrackPointExtension><gpxtpx:hr>113</gpxtpx:hr></gpxtpx:TrackPointExtension></extensions>
      </trkpt>
      <trkpt lat="61.0783903999" lon="13.698761458">
        <ele>337</ele>
        <time>2011-05-24T10:20:36Z</time>
        <extensions><gpxtpx:TrackPointExtension><gpxtpx:hr>123</gpxtpx:hr></gpxtpx:TrackPointExtension></extensions>
      </trkpt>
      <trkpt lat="61.0783417849" lon="13.6988534074">
        <ele>336.4</ele>
        <time>2011-05-24T10:20:40Z</time>
        <extensions><gpxtpx:TrackPointExtension><gpxtpx:hr>118</gpxtpx:hr></gpxtpx:TrackPointExtension></extensions>
      </trkpt>
      <trkpt lat="61.0782575468" lon="13.6990300979">
        <ele>335.6</ele>
        <time>2011-05-24T10:20:46Z</time>
        <extensions><gpxtpx:TrackPointExtension><gpxtpx:hr>113</gpxtpx:hr></gpxtpx:TrackPointExtension></extensions>
      </trkpt>
      <trkpt lat="61.078255116" lon="13.6990523937">
        <ele>334.8</ele>
        <time>2011-05-24T10:20:50Z</time>
        <extensions><gpxtpx:TrackPointExtension><gpxtpx:hr>108</gpxtpx:hr></gpxtpx:TrackPointExtension></extensions>
      </trkpt>
      <trkpt lat="61.078199544" lon="13.6992117337">
        <ele>334.4</ele>
        <time>2011-05-24T10:20:54Z</time>
        <extensions><gpxtpx:TrackPointExtension><gpxtpx:hr>108</gpxtpx:hr></gpxtpx:TrackPointExtension></extensions>
      </trkpt>
      <trkpt lat="61.0781761585" lon="13.6992756037">
        <ele>334.2</ele>
        <time>2011-05-24T10:20:55Z</time>
        <extensions><gpxtpx:TrackPointExtension><gpxtpx:hr>109</gpxtpx:hr></gpxtpx:TrackPointExtension></extensions>
      </trkpt>
      <trkpt lat="61.0782017233" lon="13.6995994804">
        <ele>333.2</ele>
        <time>2011-05-24T10:21:00Z</time>
        <extensions><gpxtpx:TrackPointExtension><gpxtpx:hr>111</gpxtpx:hr></gpxtpx:TrackPointExtension></extensions>
      </trkpt>
      <trkpt lat="61.0782932537" lon="13.6999894063">
        <ele>332.2</ele>
        <time>2011-05-24T10:21:06Z</time>
        <extensions><gpxtpx:TrackPointExtension><gpxtpx:hr>108</gpxtpx:hr></gpxtpx:TrackPointExtension></extensions>
      </trkpt>
      <trkpt lat="61.0783427069" lon="13.7002411986">
        <ele>331.2</ele>
        <time>2011-05-24T10:21:10Z</time>
        <extensions><gpxtpx:TrackPointExtension><gpxtpx:hr>110</gpxtpx:hr></gpxtpx:TrackPointExtension></extensions>
      </trkpt>
      <trkpt lat="61.0784013802" lon="13.7006105889">
        <ele>330.4</ele>
        <time>2011-05-24T10:21:15Z</time>
        <extensions><gpxtpx:TrackPointExtension><gpxtpx:hr>110</gpxtpx:hr></gpxtpx:TrackPointExtension></extensions>
      </trkpt>
      <trkpt lat="61.0784402722" lon="13.7009669035">
        <ele>329.4</ele>
        <time>2011-05-24T10:21:20Z</time>
        <extensions><gpxtpx:TrackPointExtension><gpxtpx:hr>112</gpxtpx:hr></gpxtpx:TrackPointExtension></extensions>
      </trkpt>
      <trkpt lat="61.0784636577" lon="13.7013408201">
        <ele>328.6</ele>
        <time>2011-05-24T10:21:25Z</time>
        <extensions><gpxtpx:TrackPointExtension><gpxtpx:hr>116</gpxtpx:hr></gpxtpx:TrackPointExtension></extensions>
      </trkpt>
      <trkpt lat="61.0784706147" lon="13.7017396309">
        <ele>328</ele>
        <time>2011-05-24T10:21:30Z</time>
        <extensions><gpxtpx:TrackPointExtension><gpxtpx:hr>121</gpxtpx:hr></gpxtpx:TrackPointExtension></extensions>
      </trkpt>
      <trkpt lat="61.0784634062" lon="13.7021723046">
        <ele>327.8</ele>
        <time>2011-05-24T10:21:35Z</time>
        <extensions><gpxtpx:TrackPointExtension><gpxtpx:hr>125</gpxtpx:hr></gpxtpx:TrackPointExtension></extensions>
      </trkpt>
      <trkpt lat="61.078460724" lon="13.7023369251">
        <ele>327.6</ele>
        <time>2011-05-24T10:21:37Z</time>
        <extensions><gpxtpx:TrackPointExtension><gpxtpx:hr>127</gpxtpx:hr></gpxtpx:TrackPointExtension></extensions>
      </trkpt>
      <trkpt lat="61.0784397693" lon="13.7028335526">
        <ele>327.4</ele>
        <time>2011-05-24T10:21:44Z</time>
        <extensions><gpxtpx:TrackPointExtension><gpxtpx:hr>130</gpxtpx:hr></gpxtpx:TrackPointExtension></extensions>
      </trkpt>
      <trkpt lat="61.078421832" lon="13.7032516418">
        <ele>327.4</ele>
        <time>2011-05-24T10:21:50Z</time>
        <extensions><gpxtpx:TrackPointExtension><gpxtpx:hr>131</gpxtpx:hr></gpxtpx:TrackPointExtension></extensions>
      </trkpt>
      <trkpt lat="61.0784577904" lon="13.7036761012">
        <ele>327.4</ele>
        <time>2011-05-24T10:21:56Z</time>
        <extensions><gpxtpx:TrackPointExtension><gpxtpx:hr>134</gpxtpx:hr></gpxtpx:TrackPointExtension></extensions>
      </trkpt>
      <trkpt lat="61.0785041423" lon="13.7040732357">
        <ele>327.4</ele>
        <time>2011-05-24T10:22:02Z</time>
        <extensions><gpxtpx:TrackPointExtension><gpxtpx:hr>136</gpxtpx:hr></gpxtpx:TrackPointExtension></extensions>
      </trkpt>
      <trkpt lat="61.0785616421" lon="13.7044663468">
        <ele>327.4</ele>
        <time>2011-05-24T10:22:08Z</time>
        <extensions><gpxtpx:TrackPointExtension><gpxtpx:hr>137</gpxtpx:hr></gpxtpx:TrackPointExtension></extensions>
      </trkpt>
      <trkpt lat="61.0786260151" lon="13.7048727851">
        <ele>328.4</ele>
        <time>2011-05-24T10:22:14Z</time>
        <extensions><gpxtpx:TrackPointExtension><gpxtpx:hr>138</gpxtpx:hr></gpxtpx:TrackPointExtension></extensions>
      </trkpt>
      <trkpt lat="61.0786995244" lon="13.705248378">
        <ele>328.8</ele>
        <time>2011-05-24T10:22:20Z</time>
        <extensions><gpxtpx:TrackPointExtension><gpxtpx:hr>138</gpxtpx:hr></gpxtpx:TrackPointExtension></extensions>
      </trkpt>
      <trkpt lat="61.0787693456" lon="13.7054598534">
        <ele>329.2</ele>
        <time>2011-05-24T10:22:24Z</time>
        <extensions><gpxtpx:TrackPointExtension><gpxtpx:hr>147</gpxtpx:hr></gpxtpx:TrackPointExtension></extensions>
      </trkpt>
      <trkpt lat="61.0787896298" lon="13.7055134137">
        <ele>329.6</ele>
        <time>2011-05-24T10:22:25Z</time>
        <extensions><gpxtpx:TrackPointExtension><gpxtpx:hr>146</gpxtpx:hr></gpxtpx:TrackPointExtension></extensions>
      </trkpt>
      <trkpt lat="61.0788632229" lon="13.7058592509">
        <ele>330.4</ele>
        <time>2011-05-24T10:22:31Z</time>
        <extensions><gpxtpx:TrackPointExtension><gpxtpx:hr>143</gpxtpx:hr></gpxtpx:TrackPointExtension></extensions>
      </trkpt>
      <trkpt lat="61.0789205551" lon="13.7062402083">
        <ele>331</ele>
        <time>2011-05-24T10:22:36Z</time>
        <extensions><gpxtpx:TrackPointExtension><gpxtpx:hr>144</gpxtpx:hr></gpxtpx:TrackPointExtension></extensions>
      </trkpt>
      <trkpt lat="61.0790029491" lon="13.7066420365">
        <ele>331.8</ele>
        <time>2011-05-24T10:22:41Z</time>
        <extensions><gpxtpx:TrackPointExtension><gpxtpx:hr>144</gpxtpx:hr></gpxtpx:TrackPointExtension></extensions>
      </trkpt>
      <trkpt lat="61.0790748658" lon="13.7069452937">
        <ele>332.6</ele>
        <time>2011-05-24T10:22:46Z</time>
        <extensions><gpxtpx:TrackPointExtension><gpxtpx:hr>144</gpxtpx:hr></gpxtpx:TrackPointExtension></extensions>
      </trkpt>
      <trkpt lat="61.0791665638" lon="13.7071088246">
        <ele>333</ele>
        <time>2011-05-24T10:22:50Z</time>
        <extensions><gpxtpx:TrackPointExtension><gpxtpx:hr>144</gpxtpx:hr></gpxtpx:TrackPointExtension></extensions>
      </trkpt>
      <trkpt lat="61.0791914581" lon="13.7076194499">
        <ele>333.2</ele>
        <time>2011-05-24T10:22:57Z</time>
        <extensions><gpxtpx:TrackPointExtension><gpxtpx:hr>144</gpxtpx:hr></gpxtpx:TrackPointExtension></extensions>
      </trkpt>
      <trkpt lat="61.0792404922" lon="13.7080675463">
        <ele>333.4</ele>
        <time>2011-05-24T10:23:02Z</time>
        <extensions><gpxtpx:TrackPointExtension><gpxtpx:hr>144</gpxtpx:hr></gpxtpx:TrackPointExtension></extensions>
      </trkpt>
      <trkpt lat="61.0793248979" lon="13.7084945203">
        <ele>334.2</ele>
        <time>2011-05-24T10:23:07Z</time>
        <extensions><gpxtpx:TrackPointExtension><gpxtpx:hr>144</gpxtpx:hr></gpxtpx:TrackPointExtension></extensions>
      </trkpt>
      <trkpt lat="61.0794153386" lon="13.7088907327">
        <ele>334.8</ele>
        <time>2011-05-24T10:23:12Z</time>
        <extensions><gpxtpx:TrackPointExtension><gpxtpx:hr>142</gpxtpx:hr></gpxtpx:TrackPointExtension></extensions>
      </trkpt>
      <trkpt lat="61.0795135745" lon="13.7092621347">
        <ele>335.2</ele>
        <time>2011-05-24T10:23:17Z</time>
        <extensions><gpxtpx:TrackPointExtension><gpxtpx:hr>142</gpxtpx:hr></gpxtpx:TrackPointExtension></extensions>
      </trkpt>
      <trkpt lat="61.0796242156" lon="13.7096409127">
        <ele>335.4</ele>
        <time>2011-05-24T10:23:22Z</time>
        <extensions><gpxtpx:TrackPointExtension><gpxtpx:hr>142</gpxtpx:hr></gpxtpx:TrackPointExtension></extensions>
      </trkpt>
      <trkpt lat="61.0796687235" lon="13.7097772862">
        <ele>335.6</ele>
        <time>2011-05-24T10:23:24Z</time>
        <extensions><gpxtpx:TrackPointExtension><gpxtpx:hr>142</gpxtpx:hr></gpxtpx:TrackPointExtension></extensions>
      </trkpt>
      <trkpt lat="61.0798413068" lon="13.7100983968">
        <ele>336.6</ele>
        <time>2011-05-24T10:23:30Z</time>
        <extensions><gpxtpx:TrackPointExtension><gpxtpx:hr>140</gpxtpx:hr></gpxtpx:TrackPointExtension></extensions>
      </trkpt>
      <trkpt lat="61.0799939412" lon="13.7103493509">
        <ele>337.2</ele>
        <time>2011-05-24T10:23:35Z</time>
        <extensions><gpxtpx:TrackPointExtension><gpxtpx:hr>139</gpxtpx:hr></gpxtpx:TrackPointExtension></extensions>
      </trkpt>
      <trkpt lat="61.0801504312" lon="13.71060634">
        <ele>337.4</ele>
        <time>2011-05-24T10:23:40Z</time>
        <extensions><gpxtpx:TrackPointExtension><gpxtpx:hr>138</gpxtpx:hr></gpxtpx:TrackPointExtension></extensions>
      </trkpt>
      <trkpt lat="61.080309855" lon="13.7108487445">
        <ele>337.6</ele>
        <time>2011-05-24T10:23:45Z</time>
        <extensions><gpxtpx:TrackPointExtension><gpxtpx:hr>137</gpxtpx:hr></gpxtpx:TrackPointExtension></extensions>
      </trkpt>
      <trkpt lat="61.0804660098" lon="13.7110845274">
        <ele>337.6</ele>
        <time>2011-05-24T10:23:50Z</time>
        <extensions><gpxtpx:TrackPointExtension><gpxtpx:hr>135</gpxtpx:hr></gpxtpx:TrackPointExtension></extensions>
      </trkpt>
      <trkpt lat="61.0806249306" lon="13.711331542">
        <ele>337.8</ele>
        <time>2011-05-24T10:23:55Z</time>
        <extensions><gpxtpx:TrackPointExtension><gpxtpx:hr>134</gpxtpx:hr></gpxtpx:TrackPointExtension></extensions>
      </trkpt>
      <trkpt lat="61.080796089" lon="13.7115700908">
        <ele>337.8</ele>
        <time>2011-05-24T10:24:00Z</time>
        <extensions><gpxtpx:TrackPointExtension><gpxtpx:hr>134</gpxtpx:hr></gpxtpx:TrackPointExtension></extensions>
      </trkpt>
      <trkpt lat="61.080937324" lon="13.7117754474">
        <ele>337.8</ele>
        <time>2011-05-24T10:24:04Z</time>
        <extensions><gpxtpx:TrackPointExtension><gpxtpx:hr>136</gpxtpx:hr></gpxtpx:TrackPointExtension></extensions>
      </trkpt>
      <trkpt lat="61.0809692591" lon="13.7118243977">
        <ele>337.8</ele>
        <time>2011-05-24T10:24:05Z</time>
        <extensions><gpxtpx:TrackPointExtension><gpxtpx:hr>136</gpxtpx:hr></gpxtpx:TrackPointExtension></extensions>
      </trkpt>
      <trkpt lat="61.0810676626" lon="13.7119721706">
        <ele>337.8</ele>
        <time>2011-05-24T10:24:08Z</time>
        <extensions><gpxtpx:TrackPointExtension><gpxtpx:hr>137</gpxtpx:hr></gpxtpx:TrackPointExtension></extensions>
      </trkpt>
      <trkpt lat="61.0812330374" lon="13.7122765174">
        <ele>337.8</ele>
        <time>2011-05-24T10:24:14Z</time>
        <extensions><gpxtpx:TrackPointExtension><gpxtpx:hr>139</gpxtpx:hr></gpxtpx:TrackPointExtension></extensions>
      </trkpt>
      <trkpt lat="61.0813522281" lon="13.7126386993">
        <ele>337.8</ele>
        <time>2011-05-24T10:24:20Z</time>
        <extensions><gpxtpx:TrackPointExtension><gpxtpx:hr>140</gpxtpx:hr></gpxtpx:TrackPointExtension></extensions>
      </trkpt>
      <trkpt lat="61.0814146732" lon="13.7129966902">
        <ele>337.8</ele>
        <time>2011-05-24T10:24:25Z</time>
        <extensions><gpxtpx:TrackPointExtension><gpxtpx:hr>141</gpxtpx:hr></gpxtpx:TrackPointExtension></extensions>
      </trkpt>
      <trkpt lat="61.0814380587" lon="13.7133666673">
        <ele>338</ele>
        <time>2011-05-24T10:24:30Z</time>
        <extensions><gpxtpx:TrackPointExtension><gpxtpx:hr>142</gpxtpx:hr></gpxtpx:TrackPointExtension></extensions>
      </trkpt>
      <trkpt lat="61.081451805" lon="13.7136053838">
        <ele>338.4</ele>
        <time>2011-05-24T10:24:33Z</time>
        <extensions><gpxtpx:TrackPointExtension><gpxtpx:hr>143</gpxtpx:hr></gpxtpx:TrackPointExtension></extensions>
      </trkpt>
      <trkpt lat="61.0814968997" lon="13.7148728947">
        <ele>339.2</ele>
        <time>2011-05-24T10:24:49Z</time>
        <extensions><gpxtpx:TrackPointExtension><gpxtpx:hr>145</gpxtpx:hr></gpxtpx:TrackPointExtension></extensions>
      </trkpt>
      <trkpt lat="61.0814792977" lon="13.715209428">
        <ele>340.2</ele>
        <time>2011-05-24T10:24:53Z</time>
        <extensions><gpxtpx:TrackPointExtension><gpxtpx:hr>146</gpxtpx:hr></gpxtpx:TrackPointExtension></extensions>
      </trkpt>
      <trkpt lat="61.0814516374" lon="13.7153922372">
        <ele>340.6</ele>
        <time>2011-05-24T10:24:55Z</time>
        <extensions><gpxtpx:TrackPointExtension><gpxtpx:hr>147</gpxtpx:hr></gpxtpx:TrackPointExtension></extensions>
      </trkpt>
      <trkpt lat="61.0813438462" lon="13.7157928082">
        <ele>341.6</ele>
        <time>2011-05-24T10:25:00Z</time>
        <extensions><gpxtpx:TrackPointExtension><gpxtpx:hr>148</gpxtpx:hr></gpxtpx:TrackPointExtension></extensions>
      </trkpt>
      <trkpt lat="61.0812803114" lon="13.7159816524">
        <ele>342.4</ele>
        <time>2011-05-24T10:25:03Z</time>
        <extensions><gpxtpx:TrackPointExtension><gpxtpx:hr>147</gpxtpx:hr></gpxtpx:TrackPointExtension></extensions>
      </trkpt>
      <trkpt lat="61.0811358912" lon="13.7163751826">
        <ele>343.6</ele>
        <time>2011-05-24T10:25:09Z</time>
        <extensions><gpxtpx:TrackPointExtension><gpxtpx:hr>147</gpxtpx:hr></gpxtpx:TrackPointExtension></extensions>
      </trkpt>
      <trkpt lat="61.0810173712" lon="13.7166693035">
        <ele>344.6</ele>
        <time>2011-05-24T10:25:14Z</time>
        <extensions><gpxtpx:TrackPointExtension><gpxtpx:hr>148</gpxtpx:hr></gpxtpx:TrackPointExtension></extensions>
      </trkpt>
      <trkpt lat="61.0808986835" lon="13.7169498457">
        <ele>345.2</ele>
        <time>2011-05-24T10:25:19Z</time>
        <extensions><gpxtpx:TrackPointExtension><gpxtpx:hr>148</gpxtpx:hr></gpxtpx:TrackPointExtension></extensions>
      </trkpt>
      <trkpt lat="61.0807877071" lon="13.7172490795">
        <ele>345.8</ele>
        <time>2011-05-24T10:25:24Z</time>
        <extensions><gpxtpx:TrackPointExtension><gpxtpx:hr>148</gpxtpx:hr></gpxtpx:TrackPointExtension></extensions>
      </trkpt>
      <trkpt lat="61.0806729589" lon="13.717550325">
        <ele>346.8</ele>
        <time>2011-05-24T10:25:29Z</time>
        <extensions><gpxtpx:TrackPointExtension><gpxtpx:hr>149</gpxtpx:hr></gpxtpx:TrackPointExtension></extensions>
      </trkpt>
      <trkpt lat="61.0805662573" lon="13.7179234034">
        <ele>347.6</ele>
        <time>2011-05-24T10:25:35Z</time>
        <extensions><gpxtpx:TrackPointExtension><gpxtpx:hr>149</gpxtpx:hr></gpxtpx:TrackPointExtension></extensions>
      </trkpt>
      <trkpt lat="61.0805743877" lon="13.7181744413">
        <ele>348.6</ele>
        <time>2011-05-24T10:25:39Z</time>
        <extensions><gpxtpx:TrackPointExtension><gpxtpx:hr>147</gpxtpx:hr></gpxtpx:TrackPointExtension></extensions>
      </trkpt>
      <trkpt lat="61.0806213264" lon="13.7184239705">
        <ele>349.2</ele>
        <time>2011-05-24T10:25:44Z</time>
        <extensions><gpxtpx:TrackPointExtension><gpxtpx:hr>147</gpxtpx:hr></gpxtpx:TrackPointExtension></extensions>
      </trkpt>
      <trkpt lat="61.0806696899" lon="13.7186403911">
        <ele>350.2</ele>
        <time>2011-05-24T10:25:49Z</time>
        <extensions><gpxtpx:TrackPointExtension><gpxtpx:hr>147</gpxtpx:hr></gpxtpx:TrackPointExtension></extensions>
      </trkpt>
      <trkpt lat="61.0806933269" lon="13.7187328435">
        <ele>350.6</ele>
        <time>2011-05-24T10:25:51Z</time>
        <extensions><gpxtpx:TrackPointExtension><gpxtpx:hr>148</gpxtpx:hr></gpxtpx:TrackPointExtension></extensions>
      </trkpt>
      <trkpt lat="61.0806726236" lon="13.7189154013">
        <ele>351</ele>
        <time>2011-05-24T10:25:54Z</time>
        <extensions><gpxtpx:TrackPointExtension><gpxtpx:hr>148</gpxtpx:hr></gpxtpx:TrackPointExtension></extensions>
      </trkpt>
      <trkpt lat="61.0807083305" lon="13.7192922515">
        <ele>351.6</ele>
        <time>2011-05-24T10:25:59Z</time>
        <extensions><gpxtpx:TrackPointExtension><gpxtpx:hr>147</gpxtpx:hr></gpxtpx:TrackPointExtension></extensions>
      </trkpt>
      <trkpt lat="61.080778487" lon="13.7194904834">
        <ele>352.2</ele>
        <time>2011-05-24T10:26:02Z</time>
        <extensions><gpxtpx:TrackPointExtension><gpxtpx:hr>147</gpxtpx:hr></gpxtpx:TrackPointExtension></extensions>
      </trkpt>
      <trkpt lat="61.0807913113" lon="13.7196561936">
        <ele>352.6</ele>
        <time>2011-05-24T10:26:04Z</time>
        <extensions><gpxtpx:TrackPointExtension><gpxtpx:hr>146</gpxtpx:hr></gpxtpx:TrackPointExtension></extensions>
      </trkpt>
      <trkpt lat="61.0808130204" lon="13.7199355623">
        <ele>353</ele>
        <time>2011-05-24T10:26:07Z</time>
        <extensions><gpxtpx:TrackPointExtension><gpxtpx:hr>144</gpxtpx:hr></gpxtpx:TrackPointExtension></extensions>
      </trkpt>
      <trkpt lat="61.0809501483" lon="13.7203295954">
        <ele>353.4</ele>
        <time>2011-05-24T10:26:11Z</time>
        <extensions><gpxtpx:TrackPointExtension><gpxtpx:hr>143</gpxtpx:hr></gpxtpx:TrackPointExtension></extensions>
      </trkpt>
      <trkpt lat="61.0809875316" lon="13.7204061222">
        <ele>353.6</ele>
        <time>2011-05-24T10:26:12Z</time>
        <extensions><gpxtpx:TrackPointExtension><gpxtpx:hr>143</gpxtpx:hr></gpxtpx:TrackPointExtension></extensions>
      </trkpt>
      <trkpt lat="61.0811872723" lon="13.7207796196">
        <ele>354</ele>
        <time>2011-05-24T10:26:17Z</time>
        <extensions><gpxtpx:TrackPointExtension><gpxtpx:hr>141</gpxtpx:hr></gpxtpx:TrackPointExtension></extensions>
      </trkpt>
      <trkpt lat="61.0812648887" lon="13.7209033365">
        <ele>354</ele>
        <time>2011-05-24T10:26:19Z</time>
        <extensions><gpxtpx:TrackPointExtension><gpxtpx:hr>141</gpxtpx:hr></gpxtpx:TrackPointExtension></extensions>
      </trkpt>
      <trkpt lat="61.0813257413" lon="13.7210321663">
        <ele>354</ele>
        <time>2011-05-24T10:26:21Z</time>
        <extensions><gpxtpx:TrackPointExtension><gpxtpx:hr>140</gpxtpx:hr></gpxtpx:TrackPointExtension></extensions>
      </trkpt>
      <trkpt lat="61.0814517212" lon="13.7212780074">
        <ele>354.2</ele>
        <time>2011-05-24T10:26:25Z</time>
        <extensions><gpxtpx:TrackPointExtension><gpxtpx:hr>138</gpxtpx:hr></gpxtpx:TrackPointExtension></extensions>
      </trkpt>
      <trkpt lat="61.0814824828" lon="13.7213312325">
        <ele>354.2</ele>
        <time>2011-05-24T10:26:26Z</time>
        <extensions><gpxtpx:TrackPointExtension><gpxtpx:hr>138</gpxtpx:hr></gpxtpx:TrackPointExtension></extensions>
      </trkpt>
      <trkpt lat="61.0816129052" lon="13.7215603098">
        <ele>354.2</ele>
        <time>2011-05-24T10:26:30Z</time>
        <extensions><gpxtpx:TrackPointExtension><gpxtpx:hr>137</gpxtpx:hr></gpxtpx:TrackPointExtension></extensions>
      </trkpt>
      <trkpt lat="61.0817715745" lon="13.7218317157">
        <ele>354.4</ele>
        <time>2011-05-24T10:26:35Z</time>
        <extensions><gpxtpx:TrackPointExtension><gpxtpx:hr>139</gpxtpx:hr></gpxtpx:TrackPointExtension></extensions>
      </trkpt>
      <trkpt lat="61.0818707324" lon="13.7219820032">
        <ele>354.4</ele>
        <time>2011-05-24T10:26:38Z</time>
        <extensions><gpxtpx:TrackPointExtension><gpxtpx:hr>138</gpxtpx:hr></gpxtpx:TrackPointExtension></extensions>
      </trkpt>
      <trkpt lat="61.0820106263" lon="13.7222420936">
        <ele>354.4</ele>
        <time>2011-05-24T10:26:43Z</time>
        <extensions><gpxtpx:TrackPointExtension><gpxtpx:hr>138</gpxtpx:hr></gpxtpx:TrackPointExtension></extensions>
      </trkpt>
      <trkpt lat="61.0822215987" lon="13.7225595161">
        <ele>354.4</ele>
        <time>2011-05-24T10:26:49Z</time>
        <extensions><gpxtpx:TrackPointExtension><gpxtpx:hr>139</gpxtpx:hr></gpxtpx:TrackPointExtension></extensions>
      </trkpt>
      <trkpt lat="61.082318745" lon="13.7227427444">
        <ele>354.4</ele>
        <time>2011-05-24T10:26:52Z</time>
        <extensions><gpxtpx:TrackPointExtension><gpxtpx:hr>139</gpxtpx:hr></gpxtpx:TrackPointExtension></extensions>
      </trkpt>
      <trkpt lat="61.0824393605" lon="13.7229368692">
        <ele>354.4</ele>
        <time>2011-05-24T10:26:55Z</time>
        <extensions><gpxtpx:TrackPointExtension><gpxtpx:hr>139</gpxtpx:hr></gpxtpx:TrackPointExtension></extensions>
      </trkpt>
      <trkpt lat="61.0825250235" lon="13.7232713071">
        <ele>354.4</ele>
        <time>2011-05-24T10:26:59Z</time>
        <extensions><gpxtpx:TrackPointExtension><gpxtpx:hr>139</gpxtpx:hr></gpxtpx:TrackPointExtension></extensions>
      </trkpt>
      <trkpt lat="61.0825245206" lon="13.7233595685">
        <ele>354.4</ele>
        <time>2011-05-24T10:27:00Z</time>
        <extensions><gpxtpx:TrackPointExtension><gpxtpx:hr>138</gpxtpx:hr></gpxtpx:TrackPointExtension></extensions>
      </trkpt>
      <trkpt lat="61.0825209164" lon="13.7234429684">
        <ele>354.4</ele>
        <time>2011-05-24T10:27:01Z</time>
        <extensions><gpxtpx:TrackPointExtension><gpxtpx:hr>138</gpxtpx:hr></gpxtpx:TrackPointExtension></extensions>
      </trkpt>
      <trkpt lat="61.0824939267" lon="13.7236847024">
        <ele>354.4</ele>
        <time>2011-05-24T10:27:04Z</time>
        <extensions><gpxtpx:TrackPointExtension><gpxtpx:hr>138</gpxtpx:hr></gpxtpx:TrackPointExtension></extensions>
      </trkpt>
      <trkpt lat="61.0824313977" lon="13.7238991952">
        <ele>354.4</ele>
        <time>2011-05-24T10:27:07Z</time>
        <extensions><gpxtpx:TrackPointExtension><gpxtpx:hr>138</gpxtpx:hr></gpxtpx:TrackPointExtension></extensions>
      </trkpt>
      <trkpt lat="61.0823731435" lon="13.7240343952">
        <ele>354.4</ele>
        <time>2011-05-24T10:27:09Z</time>
        <extensions><gpxtpx:TrackPointExtension><gpxtpx:hr>138</gpxtpx:hr></gpxtpx:TrackPointExtension></extensions>
      </trkpt>
      <trkpt lat="61.0822470797" lon="13.7243093216">
        <ele>354.8</ele>
        <time>2011-05-24T10:27:13Z</time>
        <extensions><gpxtpx:TrackPointExtension><gpxtpx:hr>140</gpxtpx:hr></gpxtpx:TrackPointExtension></extensions>
      </trkpt>
      <trkpt lat="61.0821033301" lon="13.7245703339">
        <ele>355.4</ele>
        <time>2011-05-24T10:27:17Z</time>
        <extensions><gpxtpx:TrackPointExtension><gpxtpx:hr>142</gpxtpx:hr></gpxtpx:TrackPointExtension></extensions>
      </trkpt>
      <trkpt lat="61.0819804515" lon="13.7248451764">
        <ele>355.8</ele>
        <time>2011-05-24T10:27:21Z</time>
        <extensions><gpxtpx:TrackPointExtension><gpxtpx:hr>143</gpxtpx:hr></gpxtpx:TrackPointExtension></extensions>
      </trkpt>
      <trkpt lat="61.0819514501" lon="13.7249262294">
        <ele>355.8</ele>
        <time>2011-05-24T10:27:22Z</time>
        <extensions><gpxtpx:TrackPointExtension><gpxtpx:hr>143</gpxtpx:hr></gpxtpx:TrackPointExtension></extensions>
      </trkpt>
      <trkpt lat="61.0818627696" lon="13.7252930213">
        <ele>356.2</ele>
        <time>2011-05-24T10:27:27Z</time>
        <extensions><gpxtpx:TrackPointExtension><gpxtpx:hr>142</gpxtpx:hr></gpxtpx:TrackPointExtension></extensions>
      </trkpt>
      <trkpt lat="61.0818188484" lon="13.7255259543">
        <ele>356.2</ele>
        <time>2011-05-24T10:27:32Z</time>
        <extensions><gpxtpx:TrackPointExtension><gpxtpx:hr>139</gpxtpx:hr></gpxtpx:TrackPointExtension></extensions>
      </trkpt>
      <trkpt lat="61.0817880869" lon="13.7256026487">
        <ele>357</ele>
        <time>2011-05-24T10:27:37Z</time>
        <extensions><gpxtpx:TrackPointExtension><gpxtpx:hr>136</gpxtpx:hr></gpxtpx:TrackPointExtension></extensions>
      </trkpt>
      <trkpt lat="61.0817729994" lon="13.7256615735">
        <ele>357.4</ele>
        <time>2011-05-24T10:27:41Z</time>
        <extensions><gpxtpx:TrackPointExtension><gpxtpx:hr>135</gpxtpx:hr></gpxtpx:TrackPointExtension></extensions>
      </trkpt>
      <trkpt lat="61.0817262284" lon="13.7257842007">
        <ele>357.8</ele>
        <time>2011-05-24T10:27:46Z</time>
        <extensions><gpxtpx:TrackPointExtension><gpxtpx:hr>135</gpxtpx:hr></gpxtpx:TrackPointExtension></extensions>
      </trkpt>
      <trkpt lat="61.0816615202" lon="13.7260417765">
        <ele>358</ele>
        <time>2011-05-24T10:27:50Z</time>
        <extensions><gpxtpx:TrackPointExtension><gpxtpx:hr>135</gpxtpx:hr></gpxtpx:TrackPointExtension></extensions>
      </trkpt>
      <trkpt lat="61.0816540603" lon="13.7261360728">
        <ele>358.2</ele>
        <time>2011-05-24T10:27:51Z</time>
        <extensions><gpxtpx:TrackPointExtension><gpxtpx:hr>136</gpxtpx:hr></gpxtpx:TrackPointExtension></extensions>
      </trkpt>
      <trkpt lat="61.0816752665" lon="13.7265938922">
        <ele>358.4</ele>
        <time>2011-05-24T10:27:56Z</time>
        <extensions><gpxtpx:TrackPointExtension><gpxtpx:hr>139</gpxtpx:hr></gpxtpx:TrackPointExtension></extensions>
      </trkpt>
      <trkpt lat="61.0817179304" lon="13.7270329361">
        <ele>359.4</ele>
        <time>2011-05-24T10:28:01Z</time>
        <extensions><gpxtpx:TrackPointExtension><gpxtpx:hr>142</gpxtpx:hr></gpxtpx:TrackPointExtension></extensions>
      </trkpt>
      <trkpt lat="61.0817257255" lon="13.727126059">
        <ele>359.4</ele>
        <time>2011-05-24T10:28:02Z</time>
        <extensions><gpxtpx:TrackPointExtension><gpxtpx:hr>142</gpxtpx:hr></gpxtpx:TrackPointExtension></extensions>
      </trkpt>
      <trkpt lat="61.0817418188" lon="13.7273098741">
        <ele>359.6</ele>
        <time>2011-05-24T10:28:04Z</time>
        <extensions><gpxtpx:TrackPointExtension><gpxtpx:hr>143</gpxtpx:hr></gpxtpx:TrackPointExtension></extensions>
      </trkpt>
      <trkpt lat="61.0817987319" lon="13.7277728903">
        <ele>360</ele>
        <time>2011-05-24T10:28:09Z</time>
        <extensions><gpxtpx:TrackPointExtension><gpxtpx:hr>143</gpxtpx:hr></gpxtpx:TrackPointExtension></extensions>
      </trkpt>
      <trkpt lat="61.0818511188" lon="13.7281378382">
        <ele>360.2</ele>
        <time>2011-05-24T10:28:13Z</time>
        <extensions><gpxtpx:TrackPointExtension><gpxtpx:hr>143</gpxtpx:hr></gpxtpx:TrackPointExtension></extensions>
      </trkpt>
      <trkpt lat="61.0818767674" lon="13.7283070688">
        <ele>360.2</ele>
        <time>2011-05-24T10:28:15Z</time>
        <extensions><gpxtpx:TrackPointExtension><gpxtpx:hr>143</gpxtpx:hr></gpxtpx:TrackPointExtension></extensions>
      </trkpt>
      <trkpt lat="61.0819653641" lon="13.7287832445">
        <ele>360.4</ele>
        <time>2011-05-24T10:28:20Z</time>
        <extensions><gpxtpx:TrackPointExtension><gpxtpx:hr>144</gpxtpx:hr></gpxtpx:TrackPointExtension></extensions>
      </trkpt>
      <trkpt lat="61.0820392924" lon="13.729211811">
        <ele>360.4</ele>
        <time>2011-05-24T10:28:25Z</time>
        <extensions><gpxtpx:TrackPointExtension><gpxtpx:hr>143</gpxtpx:hr></gpxtpx:TrackPointExtension></extensions>
      </trkpt>
      <trkpt lat="61.0821182499" lon="13.7296367734">
        <ele>360.4</ele>
        <time>2011-05-24T10:28:30Z</time>
        <extensions><gpxtpx:TrackPointExtension><gpxtpx:hr>144</gpxtpx:hr></gpxtpx:TrackPointExtension></extensions>
      </trkpt>
      <trkpt lat="61.0821780129" lon="13.730002308">
        <ele>360.4</ele>
        <time>2011-05-24T10:28:34Z</time>
        <extensions><gpxtpx:TrackPointExtension><gpxtpx:hr>144</gpxtpx:hr></gpxtpx:TrackPointExtension></extensions>
      </trkpt>
      <trkpt lat="61.0822397036" lon="13.7303538449">
        <ele>360.8</ele>
        <time>2011-05-24T10:28:38Z</time>
        <extensions><gpxtpx:TrackPointExtension><gpxtpx:hr>146</gpxtpx:hr></gpxtpx:TrackPointExtension></extensions>
      </trkpt>
      <trkpt lat="61.0823123747" lon="13.7307246602">
        <ele>361.4</ele>
        <time>2011-05-24T10:28:42Z</time>
        <extensions><gpxtpx:TrackPointExtension><gpxtpx:hr>147</gpxtpx:hr></gpxtpx:TrackPointExtension></extensions>
      </trkpt>
      <trkpt lat="61.0823268754" lon="13.7308118319">
        <ele>361.4</ele>
        <time>2011-05-24T10:28:43Z</time>
        <extensions><gpxtpx:TrackPointExtension><gpxtpx:hr>148</gpxtpx:hr></gpxtpx:TrackPointExtension></extensions>
      </trkpt>
      <trkpt lat="61.0823414599" lon="13.7309117442">
        <ele>361.6</ele>
        <time>2011-05-24T10:28:44Z</time>
        <extensions><gpxtpx:TrackPointExtension><gpxtpx:hr>149</gpxtpx:hr></gpxtpx:TrackPointExtension></extensions>
      </trkpt>
      <trkpt lat="61.0824224291" lon="13.731366127">
        <ele>362</ele>
        <time>2011-05-24T10:28:49Z</time>
        <extensions><gpxtpx:TrackPointExtension><gpxtpx:hr>152</gpxtpx:hr></gpxtpx:TrackPointExtension></extensions>
      </trkpt>
      <trkpt lat="61.082487305" lon="13.731713892">
        <ele>362.2</ele>
        <time>2011-05-24T10:28:53Z</time>
        <extensions><gpxtpx:TrackPointExtension><gpxtpx:hr>152</gpxtpx:hr></gpxtpx:TrackPointExtension></extensions>
      </trkpt>
      <trkpt lat="61.0826074176" lon="13.7321129543">
        <ele>362.2</ele>
        <time>2011-05-24T10:28:58Z</time>
        <extensions><gpxtpx:TrackPointExtension><gpxtpx:hr>151</gpxtpx:hr></gpxtpx:TrackPointExtension></extensions>
      </trkpt>
      <trkpt lat="61.0826727126" lon="13.7323540177">
        <ele>362.4</ele>
        <time>2011-05-24T10:29:01Z</time>
        <extensions><gpxtpx:TrackPointExtension><gpxtpx:hr>150</gpxtpx:hr></gpxtpx:TrackPointExtension></extensions>
      </trkpt>
      <trkpt lat="61.08283507" lon="13.7328217277">
        <ele>362.8</ele>
        <time>2011-05-24T10:29:08Z</time>
        <extensions><gpxtpx:TrackPointExtension><gpxtpx:hr>150</gpxtpx:hr></gpxtpx:TrackPointExtension></extensions>
      </trkpt>
      <trkpt lat="61.0828581202" lon="13.7328833347">
        <ele>363</ele>
        <time>2011-05-24T10:29:09Z</time>
        <extensions><gpxtpx:TrackPointExtension><gpxtpx:hr>150</gpxtpx:hr></gpxtpx:TrackPointExtension></extensions>
      </trkpt>
      <trkpt lat="61.083029111" lon="13.7332320217">
        <ele>363.8</ele>
        <time>2011-05-24T10:29:15Z</time>
        <extensions><gpxtpx:TrackPointExtension><gpxtpx:hr>153</gpxtpx:hr></gpxtpx:TrackPointExtension></extensions>
      </trkpt>
      <trkpt lat="61.0831944859" lon="13.7335314232">
        <ele>364.2</ele>
        <time>2011-05-24T10:29:20Z</time>
        <extensions><gpxtpx:TrackPointExtension><gpxtpx:hr>156</gpxtpx:hr></gpxtpx:TrackPointExtension></extensions>
      </trkpt>
      <trkpt lat="61.0833605313" lon="13.7338143123">
        <ele>365.2</ele>
        <time>2011-05-24T10:29:25Z</time>
        <extensions><gpxtpx:TrackPointExtension><gpxtpx:hr>158</gpxtpx:hr></gpxtpx:TrackPointExtension></extensions>
      </trkpt>
      <trkpt lat="61.0835264929" lon="13.7340764143">
        <ele>365.8</ele>
        <time>2011-05-24T10:29:30Z</time>
        <extensions><gpxtpx:TrackPointExtension><gpxtpx:hr>160</gpxtpx:hr></gpxtpx:TrackPointExtension></extensions>
      </trkpt>
      <trkpt lat="61.0836963102" lon="13.7343287934">
        <ele>367</ele>
        <time>2011-05-24T10:29:35Z</time>
        <extensions><gpxtpx:TrackPointExtension><gpxtpx:hr>162</gpxtpx:hr></gpxtpx:TrackPointExtension></extensions>
      </trkpt>
      <trkpt lat="61.0838673848" lon="13.7345842737">
        <ele>368.2</ele>
        <time>2011-05-24T10:29:40Z</time>
        <extensions><gpxtpx:TrackPointExtension><gpxtpx:hr>162</gpxtpx:hr></gpxtpx:TrackPointExtension></extensions>
      </trkpt>
      <trkpt lat="61.0840041774" lon="13.7347895464">
        <ele>369.2</ele>
        <time>2011-05-24T10:29:44Z</time>
        <extensions><gpxtpx:TrackPointExtension><gpxtpx:hr>162</gpxtpx:hr></gpxtpx:TrackPointExtension></extensions>
      </trkpt>
      <trkpt lat="61.0840997311" lon="13.7349073959">
        <ele>370</ele>
        <time>2011-05-24T10:29:47Z</time>
        <extensions><gpxtpx:TrackPointExtension><gpxtpx:hr>161</gpxtpx:hr></gpxtpx:TrackPointExtension></extensions>
      </trkpt>
      <trkpt lat="61.0842137249" lon="13.7351141774">
        <ele>371.2</ele>
        <time>2011-05-24T10:29:52Z</time>
        <extensions><gpxtpx:TrackPointExtension><gpxtpx:hr>158</gpxtpx:hr></gpxtpx:TrackPointExtension></extensions>
      </trkpt>
      <trkpt lat="61.0843915888" lon="13.7354317676">
        <ele>373.4</ele>
        <time>2011-05-24T10:30:00Z</time>
        <extensions><gpxtpx:TrackPointExtension><gpxtpx:hr>154</gpxtpx:hr></gpxtpx:TrackPointExtension></extensions>
      </trkpt>
      <trkpt lat="61.0845342488" lon="13.7357273134">
        <ele>374.4</ele>
        <time>2011-05-24T10:30:06Z</time>
        <extensions><gpxtpx:TrackPointExtension><gpxtpx:hr>154</gpxtpx:hr></gpxtpx:TrackPointExtension></extensions>
      </trkpt>
      <trkpt lat="61.0846520983" lon="13.7360154831">
        <ele>375.6</ele>
        <time>2011-05-24T10:30:11Z</time>
        <extensions><gpxtpx:TrackPointExtension><gpxtpx:hr>155</gpxtpx:hr></gpxtpx:TrackPointExtension></extensions>
      </trkpt>
      <trkpt lat="61.0847597219" lon="13.7363121185">
        <ele>376.2</ele>
        <time>2011-05-24T10:30:16Z</time>
        <extensions><gpxtpx:TrackPointExtension><gpxtpx:hr>157</gpxtpx:hr></gpxtpx:TrackPointExtension></extensions>
      </trkpt>
      <trkpt lat="61.0848684351" lon="13.7366806707">
        <ele>377.4</ele>
        <time>2011-05-24T10:30:22Z</time>
        <extensions><gpxtpx:TrackPointExtension><gpxtpx:hr>159</gpxtpx:hr></gpxtpx:TrackPointExtension></extensions>
      </trkpt>
      <trkpt lat="61.0849673415" lon="13.7370629691">
        <ele>378.2</ele>
        <time>2011-05-24T10:30:28Z</time>
        <extensions><gpxtpx:TrackPointExtension><gpxtpx:hr>160</gpxtpx:hr></gpxtpx:TrackPointExtension></extensions>
      </trkpt>
      <trkpt lat="61.0850525855" lon="13.7374754424">
        <ele>379</ele>
        <time>2011-05-24T10:30:34Z</time>
        <extensions><gpxtpx:TrackPointExtension><gpxtpx:hr>161</gpxtpx:hr></gpxtpx:TrackPointExtension></extensions>
      </trkpt>
      <trkpt lat="61.0851177128" lon="13.7378538014">
        <ele>380</ele>
        <time>2011-05-24T10:30:40Z</time>
        <extensions><gpxtpx:TrackPointExtension><gpxtpx:hr>161</gpxtpx:hr></gpxtpx:TrackPointExtension></extensions>
      </trkpt>
      <trkpt lat="61.085162556" lon="13.7382412128">
        <ele>381.2</ele>
        <time>2011-05-24T10:30:46Z</time>
        <extensions><gpxtpx:TrackPointExtension><gpxtpx:hr>159</gpxtpx:hr></gpxtpx:TrackPointExtension></extensions>
      </trkpt>
      <trkpt lat="61.0852140209" lon="13.7386849506">
        <ele>382.2</ele>
        <time>2011-05-24T10:30:52Z</time>
        <extensions><gpxtpx:TrackPointExtension><gpxtpx:hr>158</gpxtpx:hr></gpxtpx:TrackPointExtension></extensions>
      </trkpt>
      <trkpt lat="61.0852251688" lon="13.7391016987">
        <ele>383.4</ele>
        <time>2011-05-24T10:30:57Z</time>
        <extensions><gpxtpx:TrackPointExtension><gpxtpx:hr>159</gpxtpx:hr></gpxtpx:TrackPointExtension></extensions>
      </trkpt>
      <trkpt lat="61.08521905" lon="13.7395304329">
        <ele>384.4</ele>
        <time>2011-05-24T10:31:02Z</time>
        <extensions><gpxtpx:TrackPointExtension><gpxtpx:hr>160</gpxtpx:hr></gpxtpx:TrackPointExtension></extensions>
      </trkpt>
      <trkpt lat="61.0852028729" lon="13.7399278187">
        <ele>385.8</ele>
        <time>2011-05-24T10:31:07Z</time>
        <extensions><gpxtpx:TrackPointExtension><gpxtpx:hr>161</gpxtpx:hr></gpxtpx:TrackPointExtension></extensions>
      </trkpt>
      <trkpt lat="61.0851775596" lon="13.7403339218">
        <ele>387</ele>
        <time>2011-05-24T10:31:12Z</time>
        <extensions><gpxtpx:TrackPointExtension><gpxtpx:hr>163</gpxtpx:hr></gpxtpx:TrackPointExtension></extensions>
      </trkpt>
      <trkpt lat="61.0851426071" lon="13.7407145439">
        <ele>388</ele>
        <time>2011-05-24T10:31:17Z</time>
        <extensions><gpxtpx:TrackPointExtension><gpxtpx:hr>163</gpxtpx:hr></gpxtpx:TrackPointExtension></extensions>
      </trkpt>
      <trkpt lat="61.0851169585" lon="13.7411440324">
        <ele>389.6</ele>
        <time>2011-05-24T10:31:23Z</time>
        <extensions><gpxtpx:TrackPointExtension><gpxtpx:hr>162</gpxtpx:hr></gpxtpx:TrackPointExtension></extensions>
      </trkpt>
      <trkpt lat="61.0850949141" lon="13.7415678213">
        <ele>390.8</ele>
        <time>2011-05-24T10:31:29Z</time>
        <extensions><gpxtpx:TrackPointExtension><gpxtpx:hr>160</gpxtpx:hr></gpxtpx:TrackPointExtension></extensions>
      </trkpt>
      <trkpt lat="61.0850701036" lon="13.7419029297">
        <ele>392.4</ele>
        <time>2011-05-24T10:31:35Z</time>
        <extensions><gpxtpx:TrackPointExtension><gpxtpx:hr>158</gpxtpx:hr></gpxtpx:TrackPointExtension></extensions>
      </trkpt>
      <trkpt lat="61.0850395935" lon="13.7422211904">
        <ele>393.4</ele>
        <time>2011-05-24T10:31:40Z</time>
        <extensions><gpxtpx:TrackPointExtension><gpxtpx:hr>157</gpxtpx:hr></gpxtpx:TrackPointExtension></extensions>
      </trkpt>
      <trkpt lat="61.0850253443" lon="13.7425544547">
        <ele>394.6</ele>
        <time>2011-05-24T10:31:45Z</time>
        <extensions><gpxtpx:TrackPointExtension><gpxtpx:hr>155</gpxtpx:hr></gpxtpx:TrackPointExtension></extensions>
      </trkpt>
      <trkpt lat="61.0849942474" lon="13.7431334764">
        <ele>396.4</ele>
        <time>2011-05-24T10:31:53Z</time>
        <extensions><gpxtpx:TrackPointExtension><gpxtpx:hr>156</gpxtpx:hr></gpxtpx:TrackPointExtension></extensions>
      </trkpt>
      <trkpt lat="61.0849775675" lon="13.7435449439">
        <ele>397.6</ele>
        <time>2011-05-24T10:31:58Z</time>
        <extensions><gpxtpx:TrackPointExtension><gpxtpx:hr>156</gpxtpx:hr></gpxtpx:TrackPointExtension></extensions>
      </trkpt>
      <trkpt lat="61.0849670901" lon="13.7439975665">
        <ele>399</ele>
        <time>2011-05-24T10:32:04Z</time>
        <extensions><gpxtpx:TrackPointExtension><gpxtpx:hr>157</gpxtpx:hr></gpxtpx:TrackPointExtension></extensions>
      </trkpt>
      <trkpt lat="61.0849623124" lon="13.7442888375">
        <ele>400.2</ele>
        <time>2011-05-24T10:32:08Z</time>
        <extensions><gpxtpx:TrackPointExtension><gpxtpx:hr>157</gpxtpx:hr></gpxtpx:TrackPointExtension></extensions>
      </trkpt>
      <trkpt lat="61.0849441237" lon="13.7447062561">
        <ele>401.6</ele>
        <time>2011-05-24T10:32:13Z</time>
        <extensions><gpxtpx:TrackPointExtension><gpxtpx:hr>157</gpxtpx:hr></gpxtpx:TrackPointExtension></extensions>
      </trkpt>
      <trkpt lat="61.0849309641" lon="13.7450876326">
        <ele>402.6</ele>
        <time>2011-05-24T10:32:17Z</time>
        <extensions><gpxtpx:TrackPointExtension><gpxtpx:hr>157</gpxtpx:hr></gpxtpx:TrackPointExtension></extensions>
      </trkpt>
      <trkpt lat="61.084912943" lon="13.7455318733">
        <ele>404</ele>
        <time>2011-05-24T10:32:22Z</time>
        <extensions><gpxtpx:TrackPointExtension><gpxtpx:hr>158</gpxtpx:hr></gpxtpx:TrackPointExtension></extensions>
      </trkpt>
      <trkpt lat="61.0848904795" lon="13.7459483699">
        <ele>405</ele>
        <time>2011-05-24T10:32:27Z</time>
        <extensions><gpxtpx:TrackPointExtension><gpxtpx:hr>158</gpxtpx:hr></gpxtpx:TrackPointExtension></extensions>
      </trkpt>
      <trkpt lat="61.0848713688" lon="13.7461934566">
        <ele>405.4</ele>
        <time>2011-05-24T10:32:30Z</time>
        <extensions><gpxtpx:TrackPointExtension><gpxtpx:hr>158</gpxtpx:hr></gpxtpx:TrackPointExtension></extensions>
      </trkpt>
      <trkpt lat="61.0848385117" lon="13.7467376934">
        <ele>406.8</ele>
        <time>2011-05-24T10:32:36Z</time>
        <extensions><gpxtpx:TrackPointExtension><gpxtpx:hr>159</gpxtpx:hr></gpxtpx:TrackPointExtension></extensions>
      </trkpt>
      <trkpt lat="61.0848162997" lon="13.7471633263">
        <ele>407.6</ele>
        <time>2011-05-24T10:32:41Z</time>
        <extensions><gpxtpx:TrackPointExtension><gpxtpx:hr>159</gpxtpx:hr></gpxtpx:TrackPointExtension></extensions>
      </trkpt>
      <trkpt lat="61.084805487" lon="13.7474192257">
        <ele>407.8</ele>
        <time>2011-05-24T10:32:44Z</time>
        <extensions><gpxtpx:TrackPointExtension><gpxtpx:hr>159</gpxtpx:hr></gpxtpx:TrackPointExtension></extensions>
      </trkpt>
      <trkpt lat="61.0847796708" lon="13.7479217206">
        <ele>408.8</ele>
        <time>2011-05-24T10:32:50Z</time>
        <extensions><gpxtpx:TrackPointExtension><gpxtpx:hr>159</gpxtpx:hr></gpxtpx:TrackPointExtension></extensions>
      </trkpt>
      <trkpt lat="61.0847598057" lon="13.7483150832">
        <ele>409.6</ele>
        <time>2011-05-24T10:32:55Z</time>
        <extensions><gpxtpx:TrackPointExtension><gpxtpx:hr>159</gpxtpx:hr></gpxtpx:TrackPointExtension></extensions>
      </trkpt>
      <trkpt lat="61.084754106" lon="13.7484983953">
        <ele>409.8</ele>
        <time>2011-05-24T10:32:57Z</time>
        <extensions><gpxtpx:TrackPointExtension><gpxtpx:hr>160</gpxtpx:hr></gpxtpx:TrackPointExtension></extensions>
      </trkpt>
      <trkpt lat="61.0847288765" lon="13.7490015608">
        <ele>411</ele>
        <time>2011-05-24T10:33:03Z</time>
        <extensions><gpxtpx:TrackPointExtension><gpxtpx:hr>160</gpxtpx:hr></gpxtpx:TrackPointExtension></extensions>
      </trkpt>
      <trkpt lat="61.0847098496" lon="13.7494332286">
        <ele>412</ele>
        <time>2011-05-24T10:33:08Z</time>
        <extensions><gpxtpx:TrackPointExtension><gpxtpx:hr>160</gpxtpx:hr></gpxtpx:TrackPointExtension></extensions>
      </trkpt>
      <trkpt lat="61.0846889786" lon="13.749834554">
        <ele>413.2</ele>
        <time>2011-05-24T10:33:13Z</time>
        <extensions><gpxtpx:TrackPointExtension><gpxtpx:hr>160</gpxtpx:hr></gpxtpx:TrackPointExtension></extensions>
      </trkpt>
      <trkpt lat="61.0846665151" lon="13.7502431716">
        <ele>414.2</ele>
        <time>2011-05-24T10:33:18Z</time>
        <extensions><gpxtpx:TrackPointExtension><gpxtpx:hr>160</gpxtpx:hr></gpxtpx:TrackPointExtension></extensions>
      </trkpt>
      <trkpt lat="61.0846488293" lon="13.7506401384">
        <ele>415.4</ele>
        <time>2011-05-24T10:33:23Z</time>
        <extensions><gpxtpx:TrackPointExtension><gpxtpx:hr>159</gpxtpx:hr></gpxtpx:TrackPointExtension></extensions>
      </trkpt>
      <trkpt lat="61.0846311435" lon="13.7510661904">
        <ele>416</ele>
        <time>2011-05-24T10:33:28Z</time>
        <extensions><gpxtpx:TrackPointExtension><gpxtpx:hr>160</gpxtpx:hr></gpxtpx:TrackPointExtension></extensions>
      </trkpt>
      <trkpt lat="61.0846080095" lon="13.7514859559">
        <ele>417.2</ele>
        <time>2011-05-24T10:33:33Z</time>
        <extensions><gpxtpx:TrackPointExtension><gpxtpx:hr>161</gpxtpx:hr></gpxtpx:TrackPointExtension></extensions>
      </trkpt>
      <trkpt lat="61.0846001305" lon="13.7516627302">
        <ele>417.6</ele>
        <time>2011-05-24T10:33:35Z</time>
        <extensions><gpxtpx:TrackPointExtension><gpxtpx:hr>161</gpxtpx:hr></gpxtpx:TrackPointExtension></extensions>
      </trkpt>
      <trkpt lat="61.0845766612" lon="13.7521463658">
        <ele>418.8</ele>
        <time>2011-05-24T10:33:41Z</time>
        <extensions><gpxtpx:TrackPointExtension><gpxtpx:hr>161</gpxtpx:hr></gpxtpx:TrackPointExtension></extensions>
      </trkpt>
      <trkpt lat="61.0845690336" lon="13.7522286761">
        <ele>419.2</ele>
        <time>2011-05-24T10:33:42Z</time>
        <extensions><gpxtpx:TrackPointExtension><gpxtpx:hr>161</gpxtpx:hr></gpxtpx:TrackPointExtension></extensions>
      </trkpt>
      <trkpt lat="61.0845528566" lon="13.752650118">
        <ele>420</ele>
        <time>2011-05-24T10:33:47Z</time>
        <extensions><gpxtpx:TrackPointExtension><gpxtpx:hr>160</gpxtpx:hr></gpxtpx:TrackPointExtension></extensions>
      </trkpt>
      <trkpt lat="61.0845291358" lon="13.7530586518">
        <ele>421</ele>
        <time>2011-05-24T10:33:52Z</time>
        <extensions><gpxtpx:TrackPointExtension><gpxtpx:hr>160</gpxtpx:hr></gpxtpx:TrackPointExtension></extensions>
      </trkpt>
      <trkpt lat="61.0845117015" lon="13.753455451">
        <ele>422</ele>
        <time>2011-05-24T10:33:57Z</time>
        <extensions><gpxtpx:TrackPointExtension><gpxtpx:hr>160</gpxtpx:hr></gpxtpx:TrackPointExtension></extensions>
      </trkpt>
      <trkpt lat="61.0845003859" lon="13.7538621408">
        <ele>422.6</ele>
        <time>2011-05-24T10:34:02Z</time>
        <extensions><gpxtpx:TrackPointExtension><gpxtpx:hr>160</gpxtpx:hr></gpxtpx:TrackPointExtension></extensions>
      </trkpt>
      <trkpt lat="61.0844903276" lon="13.7542726862">
        <ele>423.8</ele>
        <time>2011-05-24T10:34:07Z</time>
        <extensions><gpxtpx:TrackPointExtension><gpxtpx:hr>159</gpxtpx:hr></gpxtpx:TrackPointExtension></extensions>
      </trkpt>
      <trkpt lat="61.0844838735" lon="13.7546895181">
        <ele>424.4</ele>
        <time>2011-05-24T10:34:12Z</time>
        <extensions><gpxtpx:TrackPointExtension><gpxtpx:hr>159</gpxtpx:hr></gpxtpx:TrackPointExtension></extensions>
      </trkpt>
      <trkpt lat="61.0844862205" lon="13.7551520313">
        <ele>424.8</ele>
        <time>2011-05-24T10:34:17Z</time>
        <extensions><gpxtpx:TrackPointExtension><gpxtpx:hr>159</gpxtpx:hr></gpxtpx:TrackPointExtension></extensions>
      </trkpt>
      <trkpt lat="61.0844994639" lon="13.7555218408">
        <ele>425.8</ele>
        <time>2011-05-24T10:34:21Z</time>
        <extensions><gpxtpx:TrackPointExtension><gpxtpx:hr>158</gpxtpx:hr></gpxtpx:TrackPointExtension></extensions>
      </trkpt>
      <trkpt lat="61.0845207539" lon="13.7558993615">
        <ele>426.4</ele>
        <time>2011-05-24T10:34:25Z</time>
        <extensions><gpxtpx:TrackPointExtension><gpxtpx:hr>158</gpxtpx:hr></gpxtpx:TrackPointExtension></extensions>
      </trkpt>
      <trkpt lat="61.0845380206" lon="13.756292305">
        <ele>426.8</ele>
        <time>2011-05-24T10:34:29Z</time>
        <extensions><gpxtpx:TrackPointExtension><gpxtpx:hr>158</gpxtpx:hr></gpxtpx:TrackPointExtension></extensions>
      </trkpt>
      <trkpt lat="61.0845612385" lon="13.7565867612">
        <ele>427</ele>
        <time>2011-05-24T10:34:32Z</time>
        <extensions><gpxtpx:TrackPointExtension><gpxtpx:hr>157</gpxtpx:hr></gpxtpx:TrackPointExtension></extensions>
      </trkpt>
      <trkpt lat="61.0845692851" lon="13.7567821433">
        <ele>427</ele>
        <time>2011-05-24T10:34:34Z</time>
        <extensions><gpxtpx:TrackPointExtension><gpxtpx:hr>157</gpxtpx:hr></gpxtpx:TrackPointExtension></extensions>
      </trkpt>
      <trkpt lat="61.0846112784" lon="13.757298133">
        <ele>427.2</ele>
        <time>2011-05-24T10:34:39Z</time>
        <extensions><gpxtpx:TrackPointExtension><gpxtpx:hr>157</gpxtpx:hr></gpxtpx:TrackPointExtension></extensions>
      </trkpt>
      <trkpt lat="61.0846530203" lon="13.7576764082">
        <ele>427.4</ele>
        <time>2011-05-24T10:34:43Z</time>
        <extensions><gpxtpx:TrackPointExtension><gpxtpx:hr>155</gpxtpx:hr></gpxtpx:TrackPointExtension></extensions>
      </trkpt>
      <trkpt lat="61.0846742265" lon="13.7578324791">
        <ele>427.6</ele>
        <time>2011-05-24T10:34:45Z</time>
        <extensions><gpxtpx:TrackPointExtension><gpxtpx:hr>154</gpxtpx:hr></gpxtpx:TrackPointExtension></extensions>
      </trkpt>
      <trkpt lat="61.0846950136" lon="13.7581084113">
        <ele>428.2</ele>
        <time>2011-05-24T10:34:49Z</time>
        <extensions><gpxtpx:TrackPointExtension><gpxtpx:hr>153</gpxtpx:hr></gpxtpx:TrackPointExtension></extensions>
      </trkpt>
      <trkpt lat="61.0847171418" lon="13.7583492233">
        <ele>428.8</ele>
        <time>2011-05-24T10:34:54Z</time>
        <extensions><gpxtpx:TrackPointExtension><gpxtpx:hr>148</gpxtpx:hr></gpxtpx:TrackPointExtension></extensions>
      </trkpt>
      <trkpt lat="61.0847667627" lon="13.7588686496">
        <ele>429.4</ele>
        <time>2011-05-24T10:35:05Z</time>
        <extensions><gpxtpx:TrackPointExtension><gpxtpx:hr>137</gpxtpx:hr></gpxtpx:TrackPointExtension></extensions>
      </trkpt>
      <trkpt lat="61.0847883042" lon="13.7590279895">
        <ele>429.4</ele>
        <time>2011-05-24T10:35:09Z</time>
        <extensions><gpxtpx:TrackPointExtension><gpxtpx:hr>131</gpxtpx:hr></gpxtpx:TrackPointExtension></extensions>
      </trkpt>
      <trkpt lat="61.0848125278" lon="13.7592849786">
        <ele>429.4</ele>
        <time>2011-05-24T10:35:14Z</time>
        <extensions><gpxtpx:TrackPointExtension><gpxtpx:hr>126</gpxtpx:hr></gpxtpx:TrackPointExtension></extensions>
      </trkpt>
      <trkpt lat="61.0848256874" lon="13.7594565561">
        <ele>429.4</ele>
        <time>2011-05-24T10:35:18Z</time>
        <extensions><gpxtpx:TrackPointExtension><gpxtpx:hr>121</gpxtpx:hr></gpxtpx:TrackPointExtension></extensions>
      </trkpt>
      <trkpt lat="61.0848477318" lon="13.7596842923">
        <ele>429.6</ele>
        <time>2011-05-24T10:35:24Z</time>
        <extensions><gpxtpx:TrackPointExtension><gpxtpx:hr>119</gpxtpx:hr></gpxtpx:TrackPointExtension></extensions>
      </trkpt>
      <trkpt lat="61.0848478156" lon="13.7597118688">
        <ele>429.6</ele>
        <time>2011-05-24T10:35:25Z</time>
        <extensions><gpxtpx:TrackPointExtension><gpxtpx:hr>118</gpxtpx:hr></gpxtpx:TrackPointExtension></extensions>
      </trkpt>
      <trkpt lat="61.0848453849" lon="13.7597391938">
        <ele>429.6</ele>
        <time>2011-05-24T10:35:30Z</time>
        <extensions><gpxtpx:TrackPointExtension><gpxtpx:hr>118</gpxtpx:hr></gpxtpx:TrackPointExtension></extensions>
      </trkpt>
      <trkpt lat="61.0848391823" lon="13.7597563767">
        <ele>430.6</ele>
        <time>2011-05-24T10:35:43Z</time>
        <extensions><gpxtpx:TrackPointExtension><gpxtpx:hr>112</gpxtpx:hr></gpxtpx:TrackPointExtension></extensions>
      </trkpt>
      <trkpt lat="61.0848385956" lon="13.7597964421">
        <ele>434.6</ele>
        <time>2011-05-24T10:36:15Z</time>
        <extensions><gpxtpx:TrackPointExtension><gpxtpx:hr>107</gpxtpx:hr></gpxtpx:TrackPointExtension></extensions>
      </trkpt>
      <trkpt lat="61.0848322253" lon="13.7598012198">
        <ele>436.4</ele>
        <time>2011-05-24T10:36:31Z</time>
        <extensions><gpxtpx:TrackPointExtension><gpxtpx:hr>106</gpxtpx:hr></gpxtpx:TrackPointExtension></extensions>
      </trkpt>
      <trkpt lat="61.0848374221" lon="13.7597949334">
        <ele>437.6</ele>
        <time>2011-05-24T10:36:51Z</time>
        <extensions><gpxtpx:TrackPointExtension><gpxtpx:hr>101</gpxtpx:hr></gpxtpx:TrackPointExtension></extensions>
      </trkpt>
      <trkpt lat="61.0848353266" lon="13.7598018904">
        <ele>437.6</ele>
        <time>2011-05-24T10:37:02Z</time>
        <extensions><gpxtpx:TrackPointExtension><gpxtpx:hr>96</gpxtpx:hr></gpxtpx:TrackPointExtension></extensions>
      </trkpt>
      <trkpt lat="61.0848286211" lon="13.7597901557">
        <ele>437.8</ele>
        <time>2011-05-24T10:37:09Z</time>
        <extensions><gpxtpx:TrackPointExtension><gpxtpx:hr>93</gpxtpx:hr></gpxtpx:TrackPointExtension></extensions>
      </trkpt>
      <trkpt lat="61.0848271124" lon="13.7597878088">
        <ele>437.8</ele>
        <time>2011-05-24T10:37:13Z</time>
        <extensions><gpxtpx:TrackPointExtension><gpxtpx:hr>99</gpxtpx:hr></gpxtpx:TrackPointExtension></extensions>
      </trkpt>
      <trkpt lat="61.0848233405" lon="13.7598037344">
        <ele>437.8</ele>
        <time>2011-05-24T10:37:28Z</time>
        <extensions><gpxtpx:TrackPointExtension><gpxtpx:hr>104</gpxtpx:hr></gpxtpx:TrackPointExtension></extensions>
      </trkpt>
      <trkpt lat="61.0848367515" lon="13.7598390222">
        <ele>437.8</ele>
        <time>2011-05-24T10:37:31Z</time>
        <extensions><gpxtpx:TrackPointExtension><gpxtpx:hr>106</gpxtpx:hr></gpxtpx:TrackPointExtension></extensions>
      </trkpt>
      <trkpt lat="61.084851336" lon="13.7598804288">
        <ele>437.8</ele>
        <time>2011-05-24T10:37:37Z</time>
        <extensions><gpxtpx:TrackPointExtension><gpxtpx:hr>108</gpxtpx:hr></gpxtpx:TrackPointExtension></extensions>
      </trkpt>
      <trkpt lat="61.0848419483" lon="13.7598985337">
        <ele>437.8</ele>
        <time>2011-05-24T10:37:45Z</time>
        <extensions><gpxtpx:TrackPointExtension><gpxtpx:hr>113</gpxtpx:hr></gpxtpx:TrackPointExtension></extensions>
      </trkpt>
      <trkpt lat="61.0848463069" lon="13.7598896489">
        <ele>437.8</ele>
        <time>2011-05-24T10:38:03Z</time>
        <extensions><gpxtpx:TrackPointExtension><gpxtpx:hr>111</gpxtpx:hr></gpxtpx:TrackPointExtension></extensions>
      </trkpt>
      <trkpt lat="61.0848658367" lon="13.7598502539">
        <ele>437.8</ele>
        <time>2011-05-24T10:38:09Z</time>
        <extensions><gpxtpx:TrackPointExtension><gpxtpx:hr>112</gpxtpx:hr></gpxtpx:TrackPointExtension></extensions>
      </trkpt>
      <trkpt lat="61.0848618134" lon="13.7598235995">
        <ele>437.8</ele>
        <time>2011-05-24T10:38:10Z</time>
        <extensions><gpxtpx:TrackPointExtension><gpxtpx:hr>112</gpxtpx:hr></gpxtpx:TrackPointExtension></extensions>
      </trkpt>
      <trkpt lat="61.0848578739" lon="13.7598065842">
        <ele>437.8</ele>
        <time>2011-05-24T10:38:11Z</time>
        <extensions><gpxtpx:TrackPointExtension><gpxtpx:hr>112</gpxtpx:hr></gpxtpx:TrackPointExtension></extensions>
      </trkpt>
      <trkpt lat="61.0848251845" lon="13.759756209">
        <ele>437.8</ele>
        <time>2011-05-24T10:38:16Z</time>
        <extensions><gpxtpx:TrackPointExtension><gpxtpx:hr>109</gpxtpx:hr></gpxtpx:TrackPointExtension></extensions>
      </trkpt>
      <trkpt lat="61.0848043974" lon="13.7596886509">
        <ele>437.8</ele>
        <time>2011-05-24T10:38:21Z</time>
        <extensions><gpxtpx:TrackPointExtension><gpxtpx:hr>109</gpxtpx:hr></gpxtpx:TrackPointExtension></extensions>
      </trkpt>
      <trkpt lat="61.0848281182" lon="13.7596854658">
        <ele>437.8</ele>
        <time>2011-05-24T10:38:25Z</time>
        <extensions><gpxtpx:TrackPointExtension><gpxtpx:hr>109</gpxtpx:hr></gpxtpx:TrackPointExtension></extensions>
      </trkpt>
      <trkpt lat="61.084825436" lon="13.7597187419">
        <ele>437.8</ele>
        <time>2011-05-24T10:38:27Z</time>
        <extensions><gpxtpx:TrackPointExtension><gpxtpx:hr>109</gpxtpx:hr></gpxtpx:TrackPointExtension></extensions>
      </trkpt>
      <trkpt lat="61.0848354104" lon="13.7597222623">
        <ele>437</ele>
        <time>2011-05-24T10:38:38Z</time>
        <extensions><gpxtpx:TrackPointExtension><gpxtpx:hr>108</gpxtpx:hr></gpxtpx:TrackPointExtension></extensions>
      </trkpt>
      <trkpt lat="61.0848493244" lon="13.7597249445">
        <ele>436</ele>
        <time>2011-05-24T10:38:49Z</time>
        <extensions><gpxtpx:TrackPointExtension><gpxtpx:hr>103</gpxtpx:hr></gpxtpx:TrackPointExtension></extensions>
      </trkpt>
      <trkpt lat="61.0848582092" lon="13.7597277106">
        <ele>437.4</ele>
        <time>2011-05-24T10:39:14Z</time>
        <extensions><gpxtpx:TrackPointExtension><gpxtpx:hr>96</gpxtpx:hr></gpxtpx:TrackPointExtension></extensions>
      </trkpt>
      <trkpt lat="61.0848603047" lon="13.7597222623">
        <ele>437.6</ele>
        <time>2011-05-24T10:39:28Z</time>
        <extensions><gpxtpx:TrackPointExtension><gpxtpx:hr>94</gpxtpx:hr></gpxtpx:TrackPointExtension></extensions>
      </trkpt>
      <trkpt lat="61.0848713688" lon="13.7597128746">
        <ele>437.8</ele>
        <time>2011-05-24T10:40:14Z</time>
        <extensions><gpxtpx:TrackPointExtension><gpxtpx:hr>89</gpxtpx:hr></gpxtpx:TrackPointExtension></extensions>
      </trkpt>
      <trkpt lat="61.0848602209" lon="13.7597559576">
        <ele>438.6</ele>
        <time>2011-05-24T10:40:20Z</time>
        <extensions><gpxtpx:TrackPointExtension><gpxtpx:hr>95</gpxtpx:hr></gpxtpx:TrackPointExtension></extensions>
      </trkpt>
      <trkpt lat="61.0848468936" lon="13.7597620763">
        <ele>439.4</ele>
        <time>2011-05-24T10:40:33Z</time>
        <extensions><gpxtpx:TrackPointExtension><gpxtpx:hr>100</gpxtpx:hr></gpxtpx:TrackPointExtension></extensions>
      </trkpt>
      <trkpt lat="61.0848557784" lon="13.7597581368">
        <ele>439.6</ele>
        <time>2011-05-24T10:40:34Z</time>
        <extensions><gpxtpx:TrackPointExtension><gpxtpx:hr>100</gpxtpx:hr></gpxtpx:TrackPointExtension></extensions>
      </trkpt>
      <trkpt lat="61.0848365001" lon="13.7596843761">
        <ele>439.6</ele>
        <time>2011-05-24T10:40:39Z</time>
        <extensions><gpxtpx:TrackPointExtension><gpxtpx:hr>106</gpxtpx:hr></gpxtpx:TrackPointExtension></extensions>
      </trkpt>
      <trkpt lat="61.0848612267" lon="13.7599745575">
        <ele>439.6</ele>
        <time>2011-05-24T10:40:42Z</time>
        <extensions><gpxtpx:TrackPointExtension><gpxtpx:hr>111</gpxtpx:hr></gpxtpx:TrackPointExtension></extensions>
      </trkpt>
      <trkpt lat="61.0848701953" lon="13.7600919879">
        <ele>439.6</ele>
        <time>2011-05-24T10:40:43Z</time>
        <extensions><gpxtpx:TrackPointExtension><gpxtpx:hr>113</gpxtpx:hr></gpxtpx:TrackPointExtension></extensions>
      </trkpt>
      <trkpt lat="61.0849007893" lon="13.7604909664">
        <ele>439.8</ele>
        <time>2011-05-24T10:40:46Z</time>
        <extensions><gpxtpx:TrackPointExtension><gpxtpx:hr>120</gpxtpx:hr></gpxtpx:TrackPointExtension></extensions>
      </trkpt>
      <trkpt lat="61.0849364961" lon="13.7609037749">
        <ele>439.8</ele>
        <time>2011-05-24T10:40:49Z</time>
        <extensions><gpxtpx:TrackPointExtension><gpxtpx:hr>126</gpxtpx:hr></gpxtpx:TrackPointExtension></extensions>
      </trkpt>
      <trkpt lat="61.0850012044" lon="13.7616599061">
        <ele>439</ele>
        <time>2011-05-24T10:40:54Z</time>
        <extensions><gpxtpx:TrackPointExtension><gpxtpx:hr>133</gpxtpx:hr></gpxtpx:TrackPointExtension></extensions>
      </trkpt>
      <trkpt lat="61.0850281103" lon="13.7621472298">
        <ele>438.6</ele>
        <time>2011-05-24T10:40:57Z</time>
        <extensions><gpxtpx:TrackPointExtension><gpxtpx:hr>136</gpxtpx:hr></gpxtpx:TrackPointExtension></extensions>
      </trkpt>
      <trkpt lat="61.0850351511" lon="13.7626032052">
        <ele>438.4</ele>
        <time>2011-05-24T10:41:00Z</time>
        <extensions><gpxtpx:TrackPointExtension><gpxtpx:hr>138</gpxtpx:hr></gpxtpx:TrackPointExtension></extensions>
      </trkpt>
      <trkpt lat="61.0850275236" lon="13.7630043629">
        <ele>438</ele>
        <time>2011-05-24T10:41:02Z</time>
        <extensions><gpxtpx:TrackPointExtension><gpxtpx:hr>139</gpxtpx:hr></gpxtpx:TrackPointExtension></extensions>
      </trkpt>
      <trkpt lat="61.0849986898" lon="13.7635244598">
        <ele>437.4</ele>
        <time>2011-05-24T10:41:05Z</time>
        <extensions><gpxtpx:TrackPointExtension><gpxtpx:hr>141</gpxtpx:hr></gpxtpx:TrackPointExtension></extensions>
      </trkpt>
      <trkpt lat="61.0849570318" lon="13.7640524357">
        <ele>436.8</ele>
        <time>2011-05-24T10:41:08Z</time>
        <extensions><gpxtpx:TrackPointExtension><gpxtpx:hr>142</gpxtpx:hr></gpxtpx:TrackPointExtension></extensions>
      </trkpt>
      <trkpt lat="61.0849243424" lon="13.7644326387">
        <ele>436.6</ele>
        <time>2011-05-24T10:41:10Z</time>
        <extensions><gpxtpx:TrackPointExtension><gpxtpx:hr>143</gpxtpx:hr></gpxtpx:TrackPointExtension></extensions>
      </trkpt>
      <trkpt lat="61.084880086" lon="13.7649482093">
        <ele>435.8</ele>
        <time>2011-05-24T10:41:13Z</time>
        <extensions><gpxtpx:TrackPointExtension><gpxtpx:hr>145</gpxtpx:hr></gpxtpx:TrackPointExtension></extensions>
      </trkpt>
      <trkpt lat="61.084830968" lon="13.7654676357">
        <ele>435.2</ele>
        <time>2011-05-24T10:41:16Z</time>
        <extensions><gpxtpx:TrackPointExtension><gpxtpx:hr>146</gpxtpx:hr></gpxtpx:TrackPointExtension></extensions>
      </trkpt>
      <trkpt lat="61.0847986139" lon="13.7660035744">
        <ele>434.6</ele>
        <time>2011-05-24T10:41:19Z</time>
        <extensions><gpxtpx:TrackPointExtension><gpxtpx:hr>147</gpxtpx:hr></gpxtpx:TrackPointExtension></extensions>
      </trkpt>
      <trkpt lat="61.0847897291" lon="13.7663757307">
        <ele>434.4</ele>
        <time>2011-05-24T10:41:21Z</time>
        <extensions><gpxtpx:TrackPointExtension><gpxtpx:hr>148</gpxtpx:hr></gpxtpx:TrackPointExtension></extensions>
      </trkpt>
      <trkpt lat="61.0847882203" lon="13.7667490605">
        <ele>434.2</ele>
        <time>2011-05-24T10:41:23Z</time>
        <extensions><gpxtpx:TrackPointExtension><gpxtpx:hr>149</gpxtpx:hr></gpxtpx:TrackPointExtension></extensions>
      </trkpt>
      <trkpt lat="61.0847991168" lon="13.767163294">
        <ele>434</ele>
        <time>2011-05-24T10:41:25Z</time>
        <extensions><gpxtpx:TrackPointExtension><gpxtpx:hr>150</gpxtpx:hr></gpxtpx:TrackPointExtension></extensions>
      </trkpt>
      <trkpt lat="61.0848171379" lon="13.7675520466">
        <ele>433.8</ele>
        <time>2011-05-24T10:41:27Z</time>
        <extensions><gpxtpx:TrackPointExtension><gpxtpx:hr>150</gpxtpx:hr></gpxtpx:TrackPointExtension></extensions>
      </trkpt>
      <trkpt lat="61.0848489053" lon="13.7679662801">
        <ele>433.2</ele>
        <time>2011-05-24T10:41:29Z</time>
        <extensions><gpxtpx:TrackPointExtension><gpxtpx:hr>151</gpxtpx:hr></gpxtpx:TrackPointExtension></extensions>
      </trkpt>
      <trkpt lat="61.084896263" lon="13.7683697847">
        <ele>433</ele>
        <time>2011-05-24T10:41:31Z</time>
        <extensions><gpxtpx:TrackPointExtension><gpxtpx:hr>152</gpxtpx:hr></gpxtpx:TrackPointExtension></extensions>
      </trkpt>
      <trkpt lat="61.0849591273" lon="13.7687483952">
        <ele>432.6</ele>
        <time>2011-05-24T10:41:33Z</time>
        <extensions><gpxtpx:TrackPointExtension><gpxtpx:hr>152</gpxtpx:hr></gpxtpx:TrackPointExtension></extensions>
      </trkpt>
      <trkpt lat="61.085038923" lon="13.7691452781">
        <ele>432.4</ele>
        <time>2011-05-24T10:41:35Z</time>
        <extensions><gpxtpx:TrackPointExtension><gpxtpx:hr>153</gpxtpx:hr></gpxtpx:TrackPointExtension></extensions>
      </trkpt>
      <trkpt lat="61.0851316268" lon="13.7695248105">
        <ele>432.2</ele>
        <time>2011-05-24T10:41:37Z</time>
        <extensions><gpxtpx:TrackPointExtension><gpxtpx:hr>152</gpxtpx:hr></gpxtpx:TrackPointExtension></extensions>
      </trkpt>
      <trkpt lat="61.0852257555" lon="13.7698765989">
        <ele>431.6</ele>
        <time>2011-05-24T10:41:39Z</time>
        <extensions><gpxtpx:TrackPointExtension><gpxtpx:hr>151</gpxtpx:hr></gpxtpx:TrackPointExtension></extensions>
      </trkpt>
      <trkpt lat="61.0853210577" lon="13.7702063428">
        <ele>431.2</ele>
        <time>2011-05-24T10:41:41Z</time>
        <extensions><gpxtpx:TrackPointExtension><gpxtpx:hr>150</gpxtpx:hr></gpxtpx:TrackPointExtension></extensions>
      </trkpt>
      <trkpt lat="61.0854367279" lon="13.7705908206">
        <ele>430.6</ele>
        <time>2011-05-24T10:41:44Z</time>
        <extensions><gpxtpx:TrackPointExtension><gpxtpx:hr>147</gpxtpx:hr></gpxtpx:TrackPointExtension></extensions>
      </trkpt>
      <trkpt lat="61.0855318625" lon="13.7709089975">
        <ele>429.6</ele>
        <time>2011-05-24T10:41:47Z</time>
        <extensions><gpxtpx:TrackPointExtension><gpxtpx:hr>145</gpxtpx:hr></gpxtpx:TrackPointExtension></extensions>
      </trkpt>
      <trkpt lat="61.0855553318" lon="13.7710146933">
        <ele>429.4</ele>
        <time>2011-05-24T10:41:48Z</time>
        <extensions><gpxtpx:TrackPointExtension><gpxtpx:hr>144</gpxtpx:hr></gpxtpx:TrackPointExtension></extensions>
      </trkpt>
      <trkpt lat="61.0856203754" lon="13.7713209679">
        <ele>428.8</ele>
        <time>2011-05-24T10:41:51Z</time>
        <extensions><gpxtpx:TrackPointExtension><gpxtpx:hr>141</gpxtpx:hr></gpxtpx:TrackPointExtension></extensions>
      </trkpt>
      <trkpt lat="61.0856399052" lon="13.7713877716">
        <ele>428.6</ele>
        <time>2011-05-24T10:41:52Z</time>
        <extensions><gpxtpx:TrackPointExtension><gpxtpx:hr>140</gpxtpx:hr></gpxtpx:TrackPointExtension></extensions>
      </trkpt>
      <trkpt lat="61.0856872629" lon="13.7714160186">
        <ele>427.4</ele>
        <time>2011-05-24T10:41:57Z</time>
        <extensions><gpxtpx:TrackPointExtension><gpxtpx:hr>144</gpxtpx:hr></gpxtpx:TrackPointExtension></extensions>
      </trkpt>
      <trkpt lat="61.085678881" lon="13.7713951477">
        <ele>427.2</ele>
        <time>2011-05-24T10:41:58Z</time>
        <extensions><gpxtpx:TrackPointExtension><gpxtpx:hr>144</gpxtpx:hr></gpxtpx:TrackPointExtension></extensions>
      </trkpt>
      <trkpt lat="61.0856708344" lon="13.7713641347">
        <ele>426.8</ele>
        <time>2011-05-24T10:41:59Z</time>
        <extensions><gpxtpx:TrackPointExtension><gpxtpx:hr>144</gpxtpx:hr></gpxtpx:TrackPointExtension></extensions>
      </trkpt>
      <trkpt lat="61.0856044498" lon="13.7711302797">
        <ele>426.2</ele>
        <time>2011-05-24T10:42:04Z</time>
        <extensions><gpxtpx:TrackPointExtension><gpxtpx:hr>139</gpxtpx:hr></gpxtpx:TrackPointExtension></extensions>
      </trkpt>
      <trkpt lat="61.0855591037" lon="13.7709969236">
        <ele>425.8</ele>
        <time>2011-05-24T10:42:07Z</time>
        <extensions><gpxtpx:TrackPointExtension><gpxtpx:hr>134</gpxtpx:hr></gpxtpx:TrackPointExtension></extensions>
      </trkpt>
      <trkpt lat="61.0854479597" lon="13.7706379269">
        <ele>425.4</ele>
        <time>2011-05-24T10:42:14Z</time>
        <extensions><gpxtpx:TrackPointExtension><gpxtpx:hr>131</gpxtpx:hr></gpxtpx:TrackPointExtension></extensions>
      </trkpt>
      <trkpt lat="61.0853515678" lon="13.7703343345">
        <ele>425.2</ele>
        <time>2011-05-24T10:42:20Z</time>
        <extensions><gpxtpx:TrackPointExtension><gpxtpx:hr>130</gpxtpx:hr></gpxtpx:TrackPointExtension></extensions>
      </trkpt>
      <trkpt lat="61.0853198843" lon="13.7702646809">
        <ele>425</ele>
        <time>2011-05-24T10:42:25Z</time>
        <extensions><gpxtpx:TrackPointExtension><gpxtpx:hr>129</gpxtpx:hr></gpxtpx:TrackPointExtension></extensions>
      </trkpt>
      <trkpt lat="61.0853225665" lon="13.7702587297">
        <ele>425</ele>
        <time>2011-05-24T10:42:33Z</time>
        <extensions><gpxtpx:TrackPointExtension><gpxtpx:hr>124</gpxtpx:hr></gpxtpx:TrackPointExtension></extensions>
      </trkpt>
      <trkpt lat="61.0853291882" lon="13.7702544549">
        <ele>425</ele>
        <time>2011-05-24T10:42:42Z</time>
        <extensions><gpxtpx:TrackPointExtension><gpxtpx:hr>119</gpxtpx:hr></gpxtpx:TrackPointExtension></extensions>
      </trkpt>
      <trkpt lat="61.0853260869" lon="13.7702552093">
        <ele>425</ele>
        <time>2011-05-24T10:42:49Z</time>
        <extensions><gpxtpx:TrackPointExtension><gpxtpx:hr>114</gpxtpx:hr></gpxtpx:TrackPointExtension></extensions>
      </trkpt>
      <trkpt lat="61.0853198004" lon="13.7702567181">
        <ele>425</ele>
        <time>2011-05-24T10:42:55Z</time>
        <extensions><gpxtpx:TrackPointExtension><gpxtpx:hr>109</gpxtpx:hr></gpxtpx:TrackPointExtension></extensions>
      </trkpt>
      <trkpt lat="61.0853196328" lon="13.7702542873">
        <ele>425</ele>
        <time>2011-05-24T10:42:58Z</time>
        <extensions><gpxtpx:TrackPointExtension><gpxtpx:hr>103</gpxtpx:hr></gpxtpx:TrackPointExtension></extensions>
      </trkpt>
      <trkpt lat="61.085317202" lon="13.7702513536">
        <ele>426.2</ele>
        <time>2011-05-24T10:43:09Z</time>
        <extensions><gpxtpx:TrackPointExtension><gpxtpx:hr>108</gpxtpx:hr></gpxtpx:TrackPointExtension></extensions>
      </trkpt>
      <trkpt lat="61.0853198843" lon="13.7702495096">
        <ele>426.6</ele>
        <time>2011-05-24T10:43:16Z</time>
        <extensions><gpxtpx:TrackPointExtension><gpxtpx:hr>101</gpxtpx:hr></gpxtpx:TrackPointExtension></extensions>
      </trkpt>
      <trkpt lat="61.0853294396" lon="13.7702609928">
        <ele>427</ele>
        <time>2011-05-24T10:43:33Z</time>
        <extensions><gpxtpx:TrackPointExtension><gpxtpx:hr>106</gpxtpx:hr></gpxtpx:TrackPointExtension></extensions>
      </trkpt>
      <trkpt lat="61.0853270927" lon="13.7702729789">
        <ele>427</ele>
        <time>2011-05-24T10:43:40Z</time>
        <extensions><gpxtpx:TrackPointExtension><gpxtpx:hr>110</gpxtpx:hr></gpxtpx:TrackPointExtension></extensions>
      </trkpt>
      <trkpt lat="61.0853184593" lon="13.7702542035">
        <ele>427</ele>
        <time>2011-05-24T10:44:17Z</time>
        <extensions><gpxtpx:TrackPointExtension><gpxtpx:hr>103</gpxtpx:hr></gpxtpx:TrackPointExtension></extensions>
      </trkpt>
      <trkpt lat="61.0853191299" lon="13.7702511022">
        <ele>427</ele>
        <time>2011-05-24T10:44:18Z</time>
        <extensions><gpxtpx:TrackPointExtension><gpxtpx:hr>103</gpxtpx:hr></gpxtpx:TrackPointExtension></extensions>
      </trkpt>
      <trkpt lat="61.085326925" lon="13.7702131322">
        <ele>427</ele>
        <time>2011-05-24T10:44:27Z</time>
        <extensions><gpxtpx:TrackPointExtension><gpxtpx:hr>105</gpxtpx:hr></gpxtpx:TrackPointExtension></extensions>
      </trkpt>
      <trkpt lat="61.0853516517" lon="13.7702671954">
        <ele>427</ele>
        <time>2011-05-24T10:44:31Z</time>
        <extensions><gpxtpx:TrackPointExtension><gpxtpx:hr>104</gpxtpx:hr></gpxtpx:TrackPointExtension></extensions>
      </trkpt>
      <trkpt lat="61.0853829161" lon="13.7703564627">
        <ele>427</ele>
        <time>2011-05-24T10:44:34Z</time>
        <extensions><gpxtpx:TrackPointExtension><gpxtpx:hr>106</gpxtpx:hr></gpxtpx:TrackPointExtension></extensions>
      </trkpt>
      <trkpt lat="61.0854998436" lon="13.770751334">
        <ele>427</ele>
        <time>2011-05-24T10:44:40Z</time>
        <extensions><gpxtpx:TrackPointExtension><gpxtpx:hr>108</gpxtpx:hr></gpxtpx:TrackPointExtension></extensions>
      </trkpt>
      <trkpt lat="61.0855920445" lon="13.7711113366">
        <ele>427</ele>
        <time>2011-05-24T10:44:44Z</time>
        <extensions><gpxtpx:TrackPointExtension><gpxtpx:hr>107</gpxtpx:hr></gpxtpx:TrackPointExtension></extensions>
      </trkpt>
      <trkpt lat="61.0857112352" lon="13.7714818166">
        <ele>427</ele>
        <time>2011-05-24T10:44:48Z</time>
        <extensions><gpxtpx:TrackPointExtension><gpxtpx:hr>102</gpxtpx:hr></gpxtpx:TrackPointExtension></extensions>
      </trkpt>
      <trkpt lat="61.0858176015" lon="13.7717992391">
        <ele>426.6</ele>
        <time>2011-05-24T10:44:51Z</time>
        <extensions><gpxtpx:TrackPointExtension><gpxtpx:hr>101</gpxtpx:hr></gpxtpx:TrackPointExtension></extensions>
      </trkpt>
      <trkpt lat="61.0859372112" lon="13.7721557213">
        <ele>426.2</ele>
        <time>2011-05-24T10:44:54Z</time>
        <extensions><gpxtpx:TrackPointExtension><gpxtpx:hr>101</gpxtpx:hr></gpxtpx:TrackPointExtension></extensions>
      </trkpt>
      <trkpt lat="61.0860683879" lon="13.7725423784">
        <ele>425.6</ele>
        <time>2011-05-24T10:44:57Z</time>
        <extensions><gpxtpx:TrackPointExtension><gpxtpx:hr>105</gpxtpx:hr></gpxtpx:TrackPointExtension></extensions>
      </trkpt>
      <trkpt lat="61.086190596" lon="13.7729152891">
        <ele>424.8</ele>
        <time>2011-05-24T10:45:00Z</time>
        <extensions><gpxtpx:TrackPointExtension><gpxtpx:hr>108</gpxtpx:hr></gpxtpx:TrackPointExtension></extensions>
      </trkpt>
      <trkpt lat="61.0863066015" lon="13.7732773034">
        <ele>424.4</ele>
        <time>2011-05-24T10:45:02Z</time>
        <extensions><gpxtpx:TrackPointExtension><gpxtpx:hr>108</gpxtpx:hr></gpxtpx:TrackPointExtension></extensions>
      </trkpt>
      <trkpt lat="61.0864552964" lon="13.7737411577">
        <ele>423.4</ele>
        <time>2011-05-24T10:45:05Z</time>
        <extensions><gpxtpx:TrackPointExtension><gpxtpx:hr>107</gpxtpx:hr></gpxtpx:TrackPointExtension></extensions>
      </trkpt>
      <trkpt lat="61.0866025664" lon="13.7741921039">
        <ele>422.4</ele>
        <time>2011-05-24T10:45:08Z</time>
        <extensions><gpxtpx:TrackPointExtension><gpxtpx:hr>107</gpxtpx:hr></gpxtpx:TrackPointExtension></extensions>
      </trkpt>
      <trkpt lat="61.0867106091" lon="13.7745246977">
        <ele>421.8</ele>
        <time>2011-05-24T10:45:10Z</time>
        <extensions><gpxtpx:TrackPointExtension><gpxtpx:hr>108</gpxtpx:hr></gpxtpx:TrackPointExtension></extensions>
      </trkpt>
      <trkpt lat="61.0868157181" lon="13.7748434614">
        <ele>421.2</ele>
        <time>2011-05-24T10:45:12Z</time>
        <extensions><gpxtpx:TrackPointExtension><gpxtpx:hr>108</gpxtpx:hr></gpxtpx:TrackPointExtension></extensions>
      </trkpt>
      <trkpt lat="61.0869238446" lon="13.7751985187">
        <ele>420.2</ele>
        <time>2011-05-24T10:45:14Z</time>
        <extensions><gpxtpx:TrackPointExtension><gpxtpx:hr>110</gpxtpx:hr></gpxtpx:TrackPointExtension></extensions>
      </trkpt>
      <trkpt lat="61.0870188954" lon="13.7755480439">
        <ele>419.6</ele>
        <time>2011-05-24T10:45:16Z</time>
        <extensions><gpxtpx:TrackPointExtension><gpxtpx:hr>110</gpxtpx:hr></gpxtpx:TrackPointExtension></extensions>
      </trkpt>
      <trkpt lat="61.0871118507" lon="13.7759174342">
        <ele>418.8</ele>
        <time>2011-05-24T10:45:18Z</time>
        <extensions><gpxtpx:TrackPointExtension><gpxtpx:hr>111</gpxtpx:hr></gpxtpx:TrackPointExtension></extensions>
      </trkpt>
      <trkpt lat="61.0871958373" lon="13.7763086175">
        <ele>418</ele>
        <time>2011-05-24T10:45:20Z</time>
        <extensions><gpxtpx:TrackPointExtension><gpxtpx:hr>111</gpxtpx:hr></gpxtpx:TrackPointExtension></extensions>
      </trkpt>
      <trkpt lat="61.0872703524" lon="13.7766984597">
        <ele>417.2</ele>
        <time>2011-05-24T10:45:22Z</time>
        <extensions><gpxtpx:TrackPointExtension><gpxtpx:hr>111</gpxtpx:hr></gpxtpx:TrackPointExtension></extensions>
      </trkpt>
      <trkpt lat="61.087332127" lon="13.7770973543">
        <ele>416.2</ele>
        <time>2011-05-24T10:45:24Z</time>
        <extensions><gpxtpx:TrackPointExtension><gpxtpx:hr>112</gpxtpx:hr></gpxtpx:TrackPointExtension></extensions>
      </trkpt>
      <trkpt lat="61.0873814964" lon="13.777504547">
        <ele>415.4</ele>
        <time>2011-05-24T10:45:26Z</time>
        <extensions><gpxtpx:TrackPointExtension><gpxtpx:hr>112</gpxtpx:hr></gpxtpx:TrackPointExtension></extensions>
      </trkpt>
      <trkpt lat="61.0874257528" lon="13.778094968">
        <ele>414.2</ele>
        <time>2011-05-24T10:45:29Z</time>
        <extensions><gpxtpx:TrackPointExtension><gpxtpx:hr>111</gpxtpx:hr></gpxtpx:TrackPointExtension></extensions>
      </trkpt>
      <trkpt lat="61.0874428519" lon="13.778479362">
        <ele>413.4</ele>
        <time>2011-05-24T10:45:31Z</time>
        <extensions><gpxtpx:TrackPointExtension><gpxtpx:hr>111</gpxtpx:hr></gpxtpx:TrackPointExtension></extensions>
      </trkpt>
      <trkpt lat="61.0874510661" lon="13.7788769993">
        <ele>412.6</ele>
        <time>2011-05-24T10:45:33Z</time>
        <extensions><gpxtpx:TrackPointExtension><gpxtpx:hr>111</gpxtpx:hr></gpxtpx:TrackPointExtension></extensions>
      </trkpt>
      <trkpt lat="61.0874574364" lon="13.7792822642">
        <ele>411.6</ele>
        <time>2011-05-24T10:45:35Z</time>
        <extensions><gpxtpx:TrackPointExtension><gpxtpx:hr>113</gpxtpx:hr></gpxtpx:TrackPointExtension></extensions>
      </trkpt>
      <trkpt lat="61.0874648125" lon="13.7796932287">
        <ele>410.8</ele>
        <time>2011-05-24T10:45:38Z</time>
        <extensions><gpxtpx:TrackPointExtension><gpxtpx:hr>113</gpxtpx:hr></gpxtpx:TrackPointExtension></extensions>
      </trkpt>
      <trkpt lat="61.0874716856" lon="13.7800694084">
        <ele>410.2</ele>
        <time>2011-05-24T10:45:40Z</time>
        <extensions><gpxtpx:TrackPointExtension><gpxtpx:hr>112</gpxtpx:hr></gpxtpx:TrackPointExtension></extensions>
      </trkpt>
      <trkpt lat="61.0874811572" lon="13.780447013">
        <ele>409.6</ele>
        <time>2011-05-24T10:45:42Z</time>
        <extensions><gpxtpx:TrackPointExtension><gpxtpx:hr>111</gpxtpx:hr></gpxtpx:TrackPointExtension></extensions>
      </trkpt>
      <trkpt lat="61.0874920536" lon="13.7809935967">
        <ele>408.4</ele>
        <time>2011-05-24T10:45:44Z</time>
        <extensions><gpxtpx:TrackPointExtension><gpxtpx:hr>112</gpxtpx:hr></gpxtpx:TrackPointExtension></extensions>
      </trkpt>
      <trkpt lat="61.0875136789" lon="13.781533391">
        <ele>407.6</ele>
        <time>2011-05-24T10:45:47Z</time>
        <extensions><gpxtpx:TrackPointExtension><gpxtpx:hr>112</gpxtpx:hr></gpxtpx:TrackPointExtension></extensions>
      </trkpt>
      <trkpt lat="61.0875582706" lon="13.7820612831">
        <ele>406.8</ele>
        <time>2011-05-24T10:45:50Z</time>
        <extensions><gpxtpx:TrackPointExtension><gpxtpx:hr>112</gpxtpx:hr></gpxtpx:TrackPointExtension></extensions>
      </trkpt>
      <trkpt lat="61.0876154352" lon="13.7825602576">
        <ele>405.8</ele>
        <time>2011-05-24T10:45:53Z</time>
        <extensions><gpxtpx:TrackPointExtension><gpxtpx:hr>114</gpxtpx:hr></gpxtpx:TrackPointExtension></extensions>
      </trkpt>
      <trkpt lat="61.0876665648" lon="13.7829330007">
        <ele>405.4</ele>
        <time>2011-05-24T10:45:55Z</time>
        <extensions><gpxtpx:TrackPointExtension><gpxtpx:hr>116</gpxtpx:hr></gpxtpx:TrackPointExtension></extensions>
      </trkpt>
      <trkpt lat="61.0877444326" lon="13.7834366691">
        <ele>404.8</ele>
        <time>2011-05-24T10:45:58Z</time>
        <extensions><gpxtpx:TrackPointExtension><gpxtpx:hr>115</gpxtpx:hr></gpxtpx:TrackPointExtension></extensions>
      </trkpt>
      <trkpt lat="61.0878023516" lon="13.7838091607">
        <ele>404</ele>
        <time>2011-05-24T10:46:00Z</time>
        <extensions><gpxtpx:TrackPointExtension><gpxtpx:hr>114</gpxtpx:hr></gpxtpx:TrackPointExtension></extensions>
      </trkpt>
      <trkpt lat="61.0878552414" lon="13.784172097">
        <ele>403.4</ele>
        <time>2011-05-24T10:46:03Z</time>
        <extensions><gpxtpx:TrackPointExtension><gpxtpx:hr>115</gpxtpx:hr></gpxtpx:TrackPointExtension></extensions>
      </trkpt>
      <trkpt lat="61.0879084664" lon="13.7845478576">
        <ele>403</ele>
        <time>2011-05-24T10:46:05Z</time>
        <extensions><gpxtpx:TrackPointExtension><gpxtpx:hr>116</gpxtpx:hr></gpxtpx:TrackPointExtension></extensions>
      </trkpt>
      <trkpt lat="61.087977198" lon="13.7850664457">
        <ele>402.4</ele>
        <time>2011-05-24T10:46:08Z</time>
        <extensions><gpxtpx:TrackPointExtension><gpxtpx:hr>116</gpxtpx:hr></gpxtpx:TrackPointExtension></extensions>
      </trkpt>
      <trkpt lat="61.0880454267" lon="13.7855534341">
        <ele>401.4</ele>
        <time>2011-05-24T10:46:10Z</time>
        <extensions><gpxtpx:TrackPointExtension><gpxtpx:hr>116</gpxtpx:hr></gpxtpx:TrackPointExtension></extensions>
      </trkpt>
      <trkpt lat="61.0881212829" lon="13.7860760456">
        <ele>400.8</ele>
        <time>2011-05-24T10:46:14Z</time>
        <extensions><gpxtpx:TrackPointExtension><gpxtpx:hr>117</gpxtpx:hr></gpxtpx:TrackPointExtension></extensions>
      </trkpt>
      <trkpt lat="61.0881942892" lon="13.7865709968">
        <ele>400</ele>
        <time>2011-05-24T10:46:16Z</time>
        <extensions><gpxtpx:TrackPointExtension><gpxtpx:hr>118</gpxtpx:hr></gpxtpx:TrackPointExtension></extensions>
      </trkpt>
      <trkpt lat="61.0882668765" lon="13.7870826279">
        <ele>399.2</ele>
        <time>2011-05-24T10:46:20Z</time>
        <extensions><gpxtpx:TrackPointExtension><gpxtpx:hr>120</gpxtpx:hr></gpxtpx:TrackPointExtension></extensions>
      </trkpt>
      <trkpt lat="61.0883326744" lon="13.7875656768">
        <ele>398.4</ele>
        <time>2011-05-24T10:46:23Z</time>
        <extensions><gpxtpx:TrackPointExtension><gpxtpx:hr>120</gpxtpx:hr></gpxtpx:TrackPointExtension></extensions>
      </trkpt>
      <trkpt lat="61.0884130568" lon="13.7880283577">
        <ele>398</ele>
        <time>2011-05-24T10:46:26Z</time>
        <extensions><gpxtpx:TrackPointExtension><gpxtpx:hr>119</gpxtpx:hr></gpxtpx:TrackPointExtension></extensions>
      </trkpt>
      <trkpt lat="61.0885154836" lon="13.7884873506">
        <ele>397.4</ele>
        <time>2011-05-24T10:46:28Z</time>
        <extensions><gpxtpx:TrackPointExtension><gpxtpx:hr>119</gpxtpx:hr></gpxtpx:TrackPointExtension></extensions>
      </trkpt>
      <trkpt lat="61.0886195868" lon="13.7889805416">
        <ele>396.6</ele>
        <time>2011-05-24T10:46:32Z</time>
        <extensions><gpxtpx:TrackPointExtension><gpxtpx:hr>120</gpxtpx:hr></gpxtpx:TrackPointExtension></extensions>
      </trkpt>
      <trkpt lat="61.0887316528" lon="13.7894262072">
        <ele>396.2</ele>
        <time>2011-05-24T10:46:34Z</time>
        <extensions><gpxtpx:TrackPointExtension><gpxtpx:hr>122</gpxtpx:hr></gpxtpx:TrackPointExtension></extensions>
      </trkpt>
      <trkpt lat="61.0888569622" lon="13.7898370041">
        <ele>395.8</ele>
        <time>2011-05-24T10:46:37Z</time>
        <extensions><gpxtpx:TrackPointExtension><gpxtpx:hr>123</gpxtpx:hr></gpxtpx:TrackPointExtension></extensions>
      </trkpt>
      <trkpt lat="61.0889836966" lon="13.7902205598">
        <ele>395.4</ele>
        <time>2011-05-24T10:46:40Z</time>
        <extensions><gpxtpx:TrackPointExtension><gpxtpx:hr>123</gpxtpx:hr></gpxtpx:TrackPointExtension></extensions>
      </trkpt>
      <trkpt lat="61.0891160468" lon="13.7905598592">
        <ele>395.2</ele>
        <time>2011-05-24T10:46:43Z</time>
        <extensions><gpxtpx:TrackPointExtension><gpxtpx:hr>124</gpxtpx:hr></gpxtpx:TrackPointExtension></extensions>
      </trkpt>
      <trkpt lat="61.0891625663" lon="13.7906638785">
        <ele>395.2</ele>
        <time>2011-05-24T10:46:44Z</time>
        <extensions><gpxtpx:TrackPointExtension><gpxtpx:hr>124</gpxtpx:hr></gpxtpx:TrackPointExtension></extensions>
      </trkpt>
      <trkpt lat="61.0894130175" lon="13.7908010902">
        <ele>395</ele>
        <time>2011-05-24T10:46:48Z</time>
        <extensions><gpxtpx:TrackPointExtension><gpxtpx:hr>123</gpxtpx:hr></gpxtpx:TrackPointExtension></extensions>
      </trkpt>
      <trkpt lat="61.0894898795" lon="13.7907938818">
        <ele>395</ele>
        <time>2011-05-24T10:46:49Z</time>
        <extensions><gpxtpx:TrackPointExtension><gpxtpx:hr>122</gpxtpx:hr></gpxtpx:TrackPointExtension></extensions>
      </trkpt>
      <trkpt lat="61.089697583" lon="13.7907997491">
        <ele>395</ele>
        <time>2011-05-24T10:46:52Z</time>
        <extensions><gpxtpx:TrackPointExtension><gpxtpx:hr>121</gpxtpx:hr></gpxtpx:TrackPointExtension></extensions>
      </trkpt>
      <trkpt lat="61.0897575974" lon="13.7907898585">
        <ele>395</ele>
        <time>2011-05-24T10:46:53Z</time>
        <extensions><gpxtpx:TrackPointExtension><gpxtpx:hr>121</gpxtpx:hr></gpxtpx:TrackPointExtension></extensions>
      </trkpt>
      <trkpt lat="61.0898785482" lon="13.790651138">
        <ele>394.8</ele>
        <time>2011-05-24T10:46:56Z</time>
        <extensions><gpxtpx:TrackPointExtension><gpxtpx:hr>120</gpxtpx:hr></gpxtpx:TrackPointExtension></extensions>
      </trkpt>
      <trkpt lat="61.0899593497" lon="13.7904197976">
        <ele>394.8</ele>
        <time>2011-05-24T10:47:00Z</time>
        <extensions><gpxtpx:TrackPointExtension><gpxtpx:hr>119</gpxtpx:hr></gpxtpx:TrackPointExtension></extensions>
      </trkpt>
      <trkpt lat="61.0899770355" lon="13.7903242439">
        <ele>394.4</ele>
        <time>2011-05-24T10:47:02Z</time>
        <extensions><gpxtpx:TrackPointExtension><gpxtpx:hr>120</gpxtpx:hr></gpxtpx:TrackPointExtension></extensions>
      </trkpt>
      <trkpt lat="61.0899640436" lon="13.7902003595">
        <ele>394</ele>
        <time>2011-05-24T10:47:05Z</time>
        <extensions><gpxtpx:TrackPointExtension><gpxtpx:hr>118</gpxtpx:hr></gpxtpx:TrackPointExtension></extensions>
      </trkpt>
      <trkpt lat="61.0898977428" lon="13.7899053166">
        <ele>393.4</ele>
        <time>2011-05-24T10:47:12Z</time>
        <extensions><gpxtpx:TrackPointExtension><gpxtpx:hr>115</gpxtpx:hr></gpxtpx:TrackPointExtension></extensions>
      </trkpt>
      <trkpt lat="61.0898124988" lon="13.7896538596">
        <ele>393</ele>
        <time>2011-05-24T10:47:19Z</time>
        <extensions><gpxtpx:TrackPointExtension><gpxtpx:hr>115</gpxtpx:hr></gpxtpx:TrackPointExtension></extensions>
      </trkpt>
      <trkpt lat="61.0897478744" lon="13.7894948549">
        <ele>392.8</ele>
        <time>2011-05-24T10:47:25Z</time>
        <extensions><gpxtpx:TrackPointExtension><gpxtpx:hr>115</gpxtpx:hr></gpxtpx:TrackPointExtension></extensions>
      </trkpt>
      <trkpt lat="61.0897404145" lon="13.7894677814">
        <ele>392.8</ele>
        <time>2011-05-24T10:47:26Z</time>
        <extensions><gpxtpx:TrackPointExtension><gpxtpx:hr>122</gpxtpx:hr></gpxtpx:TrackPointExtension></extensions>
      </trkpt>
      <trkpt lat="61.0897286798" lon="13.789435092">
        <ele>392.8</ele>
        <time>2011-05-24T10:47:27Z</time>
        <extensions><gpxtpx:TrackPointExtension><gpxtpx:hr>122</gpxtpx:hr></gpxtpx:TrackPointExtension></extensions>
      </trkpt>
      <trkpt lat="61.0896872732" lon="13.7892921806">
        <ele>392.8</ele>
        <time>2011-05-24T10:47:31Z</time>
        <extensions><gpxtpx:TrackPointExtension><gpxtpx:hr>117</gpxtpx:hr></gpxtpx:TrackPointExtension></extensions>
      </trkpt>
      <trkpt lat="61.0896745328" lon="13.7891640213">
        <ele>392.8</ele>
        <time>2011-05-24T10:47:37Z</time>
        <extensions><gpxtpx:TrackPointExtension><gpxtpx:hr>112</gpxtpx:hr></gpxtpx:TrackPointExtension></extensions>
      </trkpt>
      <trkpt lat="61.0896715991" lon="13.7891515323">
        <ele>392.8</ele>
        <time>2011-05-24T10:47:38Z</time>
        <extensions><gpxtpx:TrackPointExtension><gpxtpx:hr>112</gpxtpx:hr></gpxtpx:TrackPointExtension></extensions>
      </trkpt>
      <trkpt lat="61.089667492" lon="13.7890872431">
        <ele>392.8</ele>
        <time>2011-05-24T10:47:41Z</time>
        <extensions><gpxtpx:TrackPointExtension><gpxtpx:hr>111</gpxtpx:hr></gpxtpx:TrackPointExtension></extensions>
      </trkpt>
      <trkpt lat="61.0896648098" lon="13.7890522068">
        <ele>392.8</ele>
        <time>2011-05-24T10:47:43Z</time>
        <extensions><gpxtpx:TrackPointExtension><gpxtpx:hr>111</gpxtpx:hr></gpxtpx:TrackPointExtension></extensions>
      </trkpt>
      <trkpt lat="61.0896246605" lon="13.7890756761">
        <ele>392.8</ele>
        <time>2011-05-24T10:47:46Z</time>
        <extensions><gpxtpx:TrackPointExtension><gpxtpx:hr>108</gpxtpx:hr></gpxtpx:TrackPointExtension></extensions>
      </trkpt>
      <trkpt lat="61.0896482974" lon="13.7891778515">
        <ele>392.8</ele>
        <time>2011-05-24T10:47:49Z</time>
        <extensions><gpxtpx:TrackPointExtension><gpxtpx:hr>107</gpxtpx:hr></gpxtpx:TrackPointExtension></extensions>
      </trkpt>
      <trkpt lat="61.0896618761" lon="13.7891810366">
        <ele>392.8</ele>
        <time>2011-05-24T10:47:50Z</time>
        <extensions><gpxtpx:TrackPointExtension><gpxtpx:hr>113</gpxtpx:hr></gpxtpx:TrackPointExtension></extensions>
      </trkpt>
      <trkpt lat="61.0896738622" lon="13.7891899214">
        <ele>392.8</ele>
        <time>2011-05-24T10:47:51Z</time>
        <extensions><gpxtpx:TrackPointExtension><gpxtpx:hr>113</gpxtpx:hr></gpxtpx:TrackPointExtension></extensions>
      </trkpt>
      <trkpt lat="61.0896828308" lon="13.7892884087">
        <ele>392.8</ele>
        <time>2011-05-24T10:47:54Z</time>
        <extensions><gpxtpx:TrackPointExtension><gpxtpx:hr>113</gpxtpx:hr></gpxtpx:TrackPointExtension></extensions>
      </trkpt>
      <trkpt lat="61.0896912966" lon="13.7893920928">
        <ele>392.8</ele>
        <time>2011-05-24T10:47:57Z</time>
        <extensions><gpxtpx:TrackPointExtension><gpxtpx:hr>106</gpxtpx:hr></gpxtpx:TrackPointExtension></extensions>
      </trkpt>
      <trkpt lat="61.0897116646" lon="13.789655536">
        <ele>392.8</ele>
        <time>2011-05-24T10:48:02Z</time>
        <extensions><gpxtpx:TrackPointExtension><gpxtpx:hr>106</gpxtpx:hr></gpxtpx:TrackPointExtension></extensions>
      </trkpt>
      <trkpt lat="61.0897618722" lon="13.7897821865">
        <ele>392.8</ele>
        <time>2011-05-24T10:48:06Z</time>
        <extensions><gpxtpx:TrackPointExtension><gpxtpx:hr>104</gpxtpx:hr></gpxtpx:TrackPointExtension></extensions>
      </trkpt>
      <trkpt lat="61.0898267481" lon="13.7897095154">
        <ele>392.8</ele>
        <time>2011-05-24T10:48:11Z</time>
        <extensions><gpxtpx:TrackPointExtension><gpxtpx:hr>104</gpxtpx:hr></gpxtpx:TrackPointExtension></extensions>
      </trkpt>
      <trkpt lat="61.0898245688" lon="13.7896858784">
        <ele>392.8</ele>
        <time>2011-05-24T10:48:12Z</time>
        <extensions><gpxtpx:TrackPointExtension><gpxtpx:hr>104</gpxtpx:hr></gpxtpx:TrackPointExtension></extensions>
      </trkpt>
      <trkpt lat="61.0898084755" lon="13.7896075915">
        <ele>392.8</ele>
        <time>2011-05-24T10:48:17Z</time>
        <extensions><gpxtpx:TrackPointExtension><gpxtpx:hr>110</gpxtpx:hr></gpxtpx:TrackPointExtension></extensions>
      </trkpt>
      <trkpt lat="61.0898032787" lon="13.7895918335">
        <ele>392.8</ele>
        <time>2011-05-24T10:48:18Z</time>
        <extensions><gpxtpx:TrackPointExtension><gpxtpx:hr>110</gpxtpx:hr></gpxtpx:TrackPointExtension></extensions>
      </trkpt>
      <trkpt lat="61.0897466171" lon="13.7893984631">
        <ele>392.8</ele>
        <time>2011-05-24T10:48:25Z</time>
        <extensions><gpxtpx:TrackPointExtension><gpxtpx:hr>108</gpxtpx:hr></gpxtpx:TrackPointExtension></extensions>
      </trkpt>
      <trkpt lat="61.0896830823" lon="13.7891745825">
        <ele>392.8</ele>
        <time>2011-05-24T10:48:32Z</time>
        <extensions><gpxtpx:TrackPointExtension><gpxtpx:hr>109</gpxtpx:hr></gpxtpx:TrackPointExtension></extensions>
      </trkpt>
      <trkpt lat="61.0896595292" lon="13.7890129795">
        <ele>392.8</ele>
        <time>2011-05-24T10:48:36Z</time>
        <extensions><gpxtpx:TrackPointExtension><gpxtpx:hr>111</gpxtpx:hr></gpxtpx:TrackPointExtension></extensions>
      </trkpt>
      <trkpt lat="61.0896576851" lon="13.7889913542">
        <ele>392.8</ele>
        <time>2011-05-24T10:48:37Z</time>
        <extensions><gpxtpx:TrackPointExtension><gpxtpx:hr>112</gpxtpx:hr></gpxtpx:TrackPointExtension></extensions>
      </trkpt>
      <trkpt lat="61.08970454" lon="13.7889471816">
        <ele>392.8</ele>
        <time>2011-05-24T10:48:42Z</time>
        <extensions><gpxtpx:TrackPointExtension><gpxtpx:hr>110</gpxtpx:hr></gpxtpx:TrackPointExtension></extensions>
      </trkpt>
      <trkpt lat="61.0897105749" lon="13.7889744228">
        <ele>392.8</ele>
        <time>2011-05-24T10:48:43Z</time>
        <extensions><gpxtpx:TrackPointExtension><gpxtpx:hr>110</gpxtpx:hr></gpxtpx:TrackPointExtension></extensions>
      </trkpt>
      <trkpt lat="61.089715185" lon="13.789019685">
        <ele>392.8</ele>
        <time>2011-05-24T10:48:45Z</time>
        <extensions><gpxtpx:TrackPointExtension><gpxtpx:hr>111</gpxtpx:hr></gpxtpx:TrackPointExtension></extensions>
      </trkpt>
      <trkpt lat="61.0896613732" lon="13.7889955452">
        <ele>392.8</ele>
        <time>2011-05-24T10:48:49Z</time>
        <extensions><gpxtpx:TrackPointExtension><gpxtpx:hr>110</gpxtpx:hr></gpxtpx:TrackPointExtension></extensions>
      </trkpt>
      <trkpt lat="61.0896493871" lon="13.7889158333">
        <ele>392.6</ele>
        <time>2011-05-24T10:48:51Z</time>
        <extensions><gpxtpx:TrackPointExtension><gpxtpx:hr>110</gpxtpx:hr></gpxtpx:TrackPointExtension></extensions>
      </trkpt>
      <trkpt lat="61.0895996824" lon="13.7885405756">
        <ele>391.6</ele>
        <time>2011-05-24T10:48:58Z</time>
        <extensions><gpxtpx:TrackPointExtension><gpxtpx:hr>110</gpxtpx:hr></gpxtpx:TrackPointExtension></extensions>
      </trkpt>
      <trkpt lat="61.0895343036" lon="13.7879095862">
        <ele>391.2</ele>
        <time>2011-05-24T10:49:05Z</time>
        <extensions><gpxtpx:TrackPointExtension><gpxtpx:hr>119</gpxtpx:hr></gpxtpx:TrackPointExtension></extensions>
      </trkpt>
      <trkpt lat="61.089511421" lon="13.7876524295">
        <ele>391</ele>
        <time>2011-05-24T10:49:08Z</time>
        <extensions><gpxtpx:TrackPointExtension><gpxtpx:hr>123</gpxtpx:hr></gpxtpx:TrackPointExtension></extensions>
      </trkpt>
      <trkpt lat="61.0894812461" lon="13.7871578136">
        <ele>390.8</ele>
        <time>2011-05-24T10:49:14Z</time>
        <extensions><gpxtpx:TrackPointExtension><gpxtpx:hr>129</gpxtpx:hr></gpxtpx:TrackPointExtension></extensions>
      </trkpt>
      <trkpt lat="61.0894760494" lon="13.7870729049">
        <ele>390.8</ele>
        <time>2011-05-24T10:49:15Z</time>
        <extensions><gpxtpx:TrackPointExtension><gpxtpx:hr>129</gpxtpx:hr></gpxtpx:TrackPointExtension></extensions>
      </trkpt>
      <trkpt lat="61.0894199745" lon="13.7865353737">
        <ele>390.8</ele>
        <time>2011-05-24T10:49:21Z</time>
        <extensions><gpxtpx:TrackPointExtension><gpxtpx:hr>132</gpxtpx:hr></gpxtpx:TrackPointExtension></extensions>
      </trkpt>
      <trkpt lat="61.089399355" lon="13.7861410891">
        <ele>390.8</ele>
        <time>2011-05-24T10:49:25Z</time>
        <extensions><gpxtpx:TrackPointExtension><gpxtpx:hr>133</gpxtpx:hr></gpxtpx:TrackPointExtension></extensions>
      </trkpt>
      <trkpt lat="61.0893958346" lon="13.7856934956">
        <ele>390.8</ele>
        <time>2011-05-24T10:49:30Z</time>
        <extensions><gpxtpx:TrackPointExtension><gpxtpx:hr>137</gpxtpx:hr></gpxtpx:TrackPointExtension></extensions>
      </trkpt>
      <trkpt lat="61.0893921465" lon="13.7855409451">
        <ele>390.8</ele>
        <time>2011-05-24T10:49:32Z</time>
        <extensions><gpxtpx:TrackPointExtension><gpxtpx:hr>138</gpxtpx:hr></gpxtpx:TrackPointExtension></extensions>
      </trkpt>
      <trkpt lat="61.0894187172" lon="13.7851945211">
        <ele>390.8</ele>
        <time>2011-05-24T10:49:38Z</time>
        <extensions><gpxtpx:TrackPointExtension><gpxtpx:hr>137</gpxtpx:hr></gpxtpx:TrackPointExtension></extensions>
      </trkpt>
      <trkpt lat="61.0894328826" lon="13.7851112889">
        <ele>390.8</ele>
        <time>2011-05-24T10:49:42Z</time>
        <extensions><gpxtpx:TrackPointExtension><gpxtpx:hr>135</gpxtpx:hr></gpxtpx:TrackPointExtension></extensions>
      </trkpt>
      <trkpt lat="61.0894916397" lon="13.7849784358">
        <ele>390.6</ele>
        <time>2011-05-24T10:49:48Z</time>
        <extensions><gpxtpx:TrackPointExtension><gpxtpx:hr>131</gpxtpx:hr></gpxtpx:TrackPointExtension></extensions>
      </trkpt>
      <trkpt lat="61.0895376563" lon="13.7848517014">
        <ele>390.6</ele>
        <time>2011-05-24T10:49:54Z</time>
        <extensions><gpxtpx:TrackPointExtension><gpxtpx:hr>127</gpxtpx:hr></gpxtpx:TrackPointExtension></extensions>
      </trkpt>
      <trkpt lat="61.0896303601" lon="13.7846383821">
        <ele>390.6</ele>
        <time>2011-05-24T10:49:59Z</time>
        <extensions><gpxtpx:TrackPointExtension><gpxtpx:hr>126</gpxtpx:hr></gpxtpx:TrackPointExtension></extensions>
      </trkpt>
      <trkpt lat="61.0897731877" lon="13.784381393">
        <ele>390.6</ele>
        <time>2011-05-24T10:50:04Z</time>
        <extensions><gpxtpx:TrackPointExtension><gpxtpx:hr>126</gpxtpx:hr></gpxtpx:TrackPointExtension></extensions>
      </trkpt>
      <trkpt lat="61.0899397361" lon="13.7841120826">
        <ele>390.6</ele>
        <time>2011-05-24T10:50:08Z</time>
        <extensions><gpxtpx:TrackPointExtension><gpxtpx:hr>126</gpxtpx:hr></gpxtpx:TrackPointExtension></extensions>
      </trkpt>
      <trkpt lat="61.0901195278" lon="13.7838287744">
        <ele>390.6</ele>
        <time>2011-05-24T10:50:12Z</time>
        <extensions><gpxtpx:TrackPointExtension><gpxtpx:hr>123</gpxtpx:hr></gpxtpx:TrackPointExtension></extensions>
      </trkpt>
      <trkpt lat="61.0903044325" lon="13.7835540995">
        <ele>390.6</ele>
        <time>2011-05-24T10:50:16Z</time>
        <extensions><gpxtpx:TrackPointExtension><gpxtpx:hr>125</gpxtpx:hr></gpxtpx:TrackPointExtension></extensions>
      </trkpt>
      <trkpt lat="61.0904929415" lon="13.7833401096">
        <ele>390.6</ele>
        <time>2011-05-24T10:50:20Z</time>
        <extensions><gpxtpx:TrackPointExtension><gpxtpx:hr>121</gpxtpx:hr></gpxtpx:TrackPointExtension></extensions>
      </trkpt>
      <trkpt lat="61.0906870663" lon="13.7831543667">
        <ele>390.6</ele>
        <time>2011-05-24T10:50:24Z</time>
        <extensions><gpxtpx:TrackPointExtension><gpxtpx:hr>120</gpxtpx:hr></gpxtpx:TrackPointExtension></extensions>
      </trkpt>
      <trkpt lat="61.0908581409" lon="13.7829903329">
        <ele>390.6</ele>
        <time>2011-05-24T10:50:28Z</time>
        <extensions><gpxtpx:TrackPointExtension><gpxtpx:hr>121</gpxtpx:hr></gpxtpx:TrackPointExtension></extensions>
      </trkpt>
      <trkpt lat="61.0910342446" lon="13.7828234493">
        <ele>390.6</ele>
        <time>2011-05-24T10:50:32Z</time>
        <extensions><gpxtpx:TrackPointExtension><gpxtpx:hr>126</gpxtpx:hr></gpxtpx:TrackPointExtension></extensions>
      </trkpt>
      <trkpt lat="61.0911763178" lon="13.7826762631">
        <ele>390.6</ele>
        <time>2011-05-24T10:50:35Z</time>
        <extensions><gpxtpx:TrackPointExtension><gpxtpx:hr>131</gpxtpx:hr></gpxtpx:TrackPointExtension></extensions>
      </trkpt>
      <trkpt lat="61.0913599652" lon="13.7824571602">
        <ele>390.6</ele>
        <time>2011-05-24T10:50:39Z</time>
        <extensions><gpxtpx:TrackPointExtension><gpxtpx:hr>135</gpxtpx:hr></gpxtpx:TrackPointExtension></extensions>
      </trkpt>
      <trkpt lat="61.0914035511" lon="13.7823881772">
        <ele>390.6</ele>
        <time>2011-05-24T10:50:40Z</time>
        <extensions><gpxtpx:TrackPointExtension><gpxtpx:hr>136</gpxtpx:hr></gpxtpx:TrackPointExtension></extensions>
      </trkpt>
      <trkpt lat="61.0916004419" lon="13.7821137538">
        <ele>390.6</ele>
        <time>2011-05-24T10:50:44Z</time>
        <extensions><gpxtpx:TrackPointExtension><gpxtpx:hr>137</gpxtpx:hr></gpxtpx:TrackPointExtension></extensions>
      </trkpt>
      <trkpt lat="61.0917869392" lon="13.7818509812">
        <ele>390.6</ele>
        <time>2011-05-24T10:50:48Z</time>
        <extensions><gpxtpx:TrackPointExtension><gpxtpx:hr>134</gpxtpx:hr></gpxtpx:TrackPointExtension></extensions>
      </trkpt>
      <trkpt lat="61.0919367237" lon="13.7816281065">
        <ele>390.6</ele>
        <time>2011-05-24T10:50:51Z</time>
        <extensions><gpxtpx:TrackPointExtension><gpxtpx:hr>131</gpxtpx:hr></gpxtpx:TrackPointExtension></extensions>
      </trkpt>
      <trkpt lat="61.0920944711" lon="13.7813685191">
        <ele>390.6</ele>
        <time>2011-05-24T10:50:55Z</time>
        <extensions><gpxtpx:TrackPointExtension><gpxtpx:hr>132</gpxtpx:hr></gpxtpx:TrackPointExtension></extensions>
      </trkpt>
      <trkpt lat="61.0922419925" lon="13.781033746">
        <ele>390.6</ele>
        <time>2011-05-24T10:50:59Z</time>
        <extensions><gpxtpx:TrackPointExtension><gpxtpx:hr>134</gpxtpx:hr></gpxtpx:TrackPointExtension></extensions>
      </trkpt>
      <trkpt lat="61.0923597582" lon="13.7806925188">
        <ele>390.6</ele>
        <time>2011-05-24T10:51:03Z</time>
        <extensions><gpxtpx:TrackPointExtension><gpxtpx:hr>137</gpxtpx:hr></gpxtpx:TrackPointExtension></extensions>
      </trkpt>
      <trkpt lat="61.0924667951" lon="13.7803310075">
        <ele>390.6</ele>
        <time>2011-05-24T10:51:07Z</time>
        <extensions><gpxtpx:TrackPointExtension><gpxtpx:hr>139</gpxtpx:hr></gpxtpx:TrackPointExtension></extensions>
      </trkpt>
      <trkpt lat="61.0925549727" lon="13.7799847512">
        <ele>390.6</ele>
        <time>2011-05-24T10:51:11Z</time>
        <extensions><gpxtpx:TrackPointExtension><gpxtpx:hr>140</gpxtpx:hr></gpxtpx:TrackPointExtension></extensions>
      </trkpt>
      <trkpt lat="61.0926330082" lon="13.7796045482">
        <ele>390.6</ele>
        <time>2011-05-24T10:51:15Z</time>
        <extensions><gpxtpx:TrackPointExtension><gpxtpx:hr>140</gpxtpx:hr></gpxtpx:TrackPointExtension></extensions>
      </trkpt>
      <trkpt lat="61.0926559746" lon="13.7795008641">
        <ele>390.6</ele>
        <time>2011-05-24T10:51:16Z</time>
        <extensions><gpxtpx:TrackPointExtension><gpxtpx:hr>140</gpxtpx:hr></gpxtpx:TrackPointExtension></extensions>
      </trkpt>
      <trkpt lat="61.0927599101" lon="13.7789258658">
        <ele>390.6</ele>
        <time>2011-05-24T10:51:21Z</time>
        <extensions><gpxtpx:TrackPointExtension><gpxtpx:hr>141</gpxtpx:hr></gpxtpx:TrackPointExtension></extensions>
      </trkpt>
      <trkpt lat="61.0927848882" lon="13.7787985447">
        <ele>390.6</ele>
        <time>2011-05-24T10:51:22Z</time>
        <extensions><gpxtpx:TrackPointExtension><gpxtpx:hr>141</gpxtpx:hr></gpxtpx:TrackPointExtension></extensions>
      </trkpt>
      <trkpt lat="61.0928707189" lon="13.7785682939">
        <ele>390.6</ele>
        <time>2011-05-24T10:51:24Z</time>
        <extensions><gpxtpx:TrackPointExtension><gpxtpx:hr>147</gpxtpx:hr></gpxtpx:TrackPointExtension></extensions>
      </trkpt>
      <trkpt lat="61.0929291407" lon="13.7784902584">
        <ele>390.6</ele>
        <time>2011-05-24T10:51:25Z</time>
        <extensions><gpxtpx:TrackPointExtension><gpxtpx:hr>147</gpxtpx:hr></gpxtpx:TrackPointExtension></extensions>
      </trkpt>
      <trkpt lat="61.0931099383" lon="13.7784491871">
        <ele>390.6</ele>
        <time>2011-05-24T10:51:28Z</time>
        <extensions><gpxtpx:TrackPointExtension><gpxtpx:hr>146</gpxtpx:hr></gpxtpx:TrackPointExtension></extensions>
      </trkpt>
      <trkpt lat="61.0931774964" lon="13.7784616761">
        <ele>390.6</ele>
        <time>2011-05-24T10:51:29Z</time>
        <extensions><gpxtpx:TrackPointExtension><gpxtpx:hr>146</gpxtpx:hr></gpxtpx:TrackPointExtension></extensions>
      </trkpt>
      <trkpt lat="61.093366173" lon="13.7785162423">
        <ele>390.6</ele>
        <time>2011-05-24T10:51:32Z</time>
        <extensions><gpxtpx:TrackPointExtension><gpxtpx:hr>145</gpxtpx:hr></gpxtpx:TrackPointExtension></extensions>
      </trkpt>
      <trkpt lat="61.0935519997" lon="13.7785777655">
        <ele>390.6</ele>
        <time>2011-05-24T10:51:35Z</time>
        <extensions><gpxtpx:TrackPointExtension><gpxtpx:hr>144</gpxtpx:hr></gpxtpx:TrackPointExtension></extensions>
      </trkpt>
      <trkpt lat="61.0937847651" lon="13.7787019014">
        <ele>390.6</ele>
        <time>2011-05-24T10:51:39Z</time>
        <extensions><gpxtpx:TrackPointExtension><gpxtpx:hr>143</gpxtpx:hr></gpxtpx:TrackPointExtension></extensions>
      </trkpt>
      <trkpt lat="61.0939456137" lon="13.7788018136">
        <ele>390.6</ele>
        <time>2011-05-24T10:51:42Z</time>
        <extensions><gpxtpx:TrackPointExtension><gpxtpx:hr>142</gpxtpx:hr></gpxtpx:TrackPointExtension></extensions>
      </trkpt>
      <trkpt lat="61.0940301033" lon="13.7788841239">
        <ele>390.6</ele>
        <time>2011-05-24T10:51:44Z</time>
        <extensions><gpxtpx:TrackPointExtension><gpxtpx:hr>141</gpxtpx:hr></gpxtpx:TrackPointExtension></extensions>
      </trkpt>
      <trkpt lat="61.0942167682" lon="13.7790642509">
        <ele>390.4</ele>
        <time>2011-05-24T10:51:49Z</time>
        <extensions><gpxtpx:TrackPointExtension><gpxtpx:hr>139</gpxtpx:hr></gpxtpx:TrackPointExtension></extensions>
      </trkpt>
      <trkpt lat="61.0945029263" lon="13.7798418398">
        <ele>389.2</ele>
        <time>2011-05-24T10:52:00Z</time>
        <extensions><gpxtpx:TrackPointExtension><gpxtpx:hr>139</gpxtpx:hr></gpxtpx:TrackPointExtension></extensions>
      </trkpt>
      <trkpt lat="61.0945388846" lon="13.7800128306">
        <ele>389</ele>
        <time>2011-05-24T10:52:02Z</time>
        <extensions><gpxtpx:TrackPointExtension><gpxtpx:hr>139</gpxtpx:hr></gpxtpx:TrackPointExtension></extensions>
      </trkpt>
      <trkpt lat="61.0945792015" lon="13.7802829792">
        <ele>389</ele>
        <time>2011-05-24T10:52:05Z</time>
        <extensions><gpxtpx:TrackPointExtension><gpxtpx:hr>139</gpxtpx:hr></gpxtpx:TrackPointExtension></extensions>
      </trkpt>
      <trkpt lat="61.094633181" lon="13.7807798582">
        <ele>388.8</ele>
        <time>2011-05-24T10:52:10Z</time>
        <extensions><gpxtpx:TrackPointExtension><gpxtpx:hr>140</gpxtpx:hr></gpxtpx:TrackPointExtension></extensions>
      </trkpt>
      <trkpt lat="61.0946506153" lon="13.7808827041">
        <ele>388.6</ele>
        <time>2011-05-24T10:52:11Z</time>
        <extensions><gpxtpx:TrackPointExtension><gpxtpx:hr>140</gpxtpx:hr></gpxtpx:TrackPointExtension></extensions>
      </trkpt>
      <trkpt lat="61.0946670439" lon="13.7809794313">
        <ele>388.4</ele>
        <time>2011-05-24T10:52:12Z</time>
        <extensions><gpxtpx:TrackPointExtension><gpxtpx:hr>140</gpxtpx:hr></gpxtpx:TrackPointExtension></extensions>
      </trkpt>
      <trkpt lat="61.0947890005" lon="13.7813369193">
        <ele>387.6</ele>
        <time>2011-05-24T10:52:17Z</time>
        <extensions><gpxtpx:TrackPointExtension><gpxtpx:hr>141</gpxtpx:hr></gpxtpx:TrackPointExtension></extensions>
      </trkpt>
      <trkpt lat="61.0948516133" lon="13.7814330597">
        <ele>387.4</ele>
        <time>2011-05-24T10:52:19Z</time>
        <extensions><gpxtpx:TrackPointExtension><gpxtpx:hr>142</gpxtpx:hr></gpxtpx:TrackPointExtension></extensions>
      </trkpt>
      <trkpt lat="61.0949907528" lon="13.7816493127">
        <ele>387.2</ele>
        <time>2011-05-24T10:52:24Z</time>
        <extensions><gpxtpx:TrackPointExtension><gpxtpx:hr>145</gpxtpx:hr></gpxtpx:TrackPointExtension></extensions>
      </trkpt>
      <trkpt lat="61.0951707122" lon="13.7819166953">
        <ele>387.2</ele>
        <time>2011-05-24T10:52:31Z</time>
        <extensions><gpxtpx:TrackPointExtension><gpxtpx:hr>149</gpxtpx:hr></gpxtpx:TrackPointExtension></extensions>
      </trkpt>
      <trkpt lat="61.0953080077" lon="13.7821804737">
        <ele>387.8</ele>
        <time>2011-05-24T10:52:36Z</time>
        <extensions><gpxtpx:TrackPointExtension><gpxtpx:hr>150</gpxtpx:hr></gpxtpx:TrackPointExtension></extensions>
      </trkpt>
      <trkpt lat="61.095448656" lon="13.7824734211">
        <ele>388.2</ele>
        <time>2011-05-24T10:52:40Z</time>
        <extensions><gpxtpx:TrackPointExtension><gpxtpx:hr>150</gpxtpx:hr></gpxtpx:TrackPointExtension></extensions>
      </trkpt>
      <trkpt lat="61.0956084989" lon="13.7827849763">
        <ele>388.4</ele>
        <time>2011-05-24T10:52:44Z</time>
        <extensions><gpxtpx:TrackPointExtension><gpxtpx:hr>149</gpxtpx:hr></gpxtpx:TrackPointExtension></extensions>
      </trkpt>
      <trkpt lat="61.0956504922" lon="13.7828694659">
        <ele>388.4</ele>
        <time>2011-05-24T10:52:45Z</time>
        <extensions><gpxtpx:TrackPointExtension><gpxtpx:hr>149</gpxtpx:hr></gpxtpx:TrackPointExtension></extensions>
      </trkpt>
      <trkpt lat="61.0958221535" lon="13.783260733">
        <ele>388.6</ele>
        <time>2011-05-24T10:52:50Z</time>
        <extensions><gpxtpx:TrackPointExtension><gpxtpx:hr>148</gpxtpx:hr></gpxtpx:TrackPointExtension></extensions>
      </trkpt>
      <trkpt lat="61.0958607102" lon="13.78332695">
        <ele>388.6</ele>
        <time>2011-05-24T10:52:51Z</time>
        <extensions><gpxtpx:TrackPointExtension><gpxtpx:hr>148</gpxtpx:hr></gpxtpx:TrackPointExtension></extensions>
      </trkpt>
      <trkpt lat="61.0960161107" lon="13.7835042272">
        <ele>388.6</ele>
        <time>2011-05-24T10:52:55Z</time>
        <extensions><gpxtpx:TrackPointExtension><gpxtpx:hr>147</gpxtpx:hr></gpxtpx:TrackPointExtension></extensions>
      </trkpt>
      <trkpt lat="61.0961639674" lon="13.7836823426">
        <ele>389.2</ele>
        <time>2011-05-24T10:53:01Z</time>
        <extensions><gpxtpx:TrackPointExtension><gpxtpx:hr>145</gpxtpx:hr></gpxtpx:TrackPointExtension></extensions>
      </trkpt>
      <trkpt lat="61.0963419151" lon="13.7838387488">
        <ele>389.8</ele>
        <time>2011-05-24T10:53:06Z</time>
        <extensions><gpxtpx:TrackPointExtension><gpxtpx:hr>143</gpxtpx:hr></gpxtpx:TrackPointExtension></extensions>
      </trkpt>
      <trkpt lat="61.0965037696" lon="13.7840115836">
        <ele>390.2</ele>
        <time>2011-05-24T10:53:10Z</time>
        <extensions><gpxtpx:TrackPointExtension><gpxtpx:hr>143</gpxtpx:hr></gpxtpx:TrackPointExtension></extensions>
      </trkpt>
      <trkpt lat="61.0965439189" lon="13.7840519005">
        <ele>390.2</ele>
        <time>2011-05-24T10:53:11Z</time>
        <extensions><gpxtpx:TrackPointExtension><gpxtpx:hr>143</gpxtpx:hr></gpxtpx:TrackPointExtension></extensions>
      </trkpt>
      <trkpt lat="61.0967179271" lon="13.7840691672">
        <ele>390.4</ele>
        <time>2011-05-24T10:53:16Z</time>
        <extensions><gpxtpx:TrackPointExtension><gpxtpx:hr>143</gpxtpx:hr></gpxtpx:TrackPointExtension></extensions>
      </trkpt>
      <trkpt lat="61.0969167458" lon="13.7837920616">
        <ele>390.6</ele>
        <time>2011-05-24T10:53:23Z</time>
        <extensions><gpxtpx:TrackPointExtension><gpxtpx:hr>144</gpxtpx:hr></gpxtpx:TrackPointExtension></extensions>
      </trkpt>
      <trkpt lat="61.0971251198" lon="13.7836269382">
        <ele>390.6</ele>
        <time>2011-05-24T10:53:28Z</time>
        <extensions><gpxtpx:TrackPointExtension><gpxtpx:hr>142</gpxtpx:hr></gpxtpx:TrackPointExtension></extensions>
      </trkpt>
      <trkpt lat="61.0971792669" lon="13.7835888006">
        <ele>390.6</ele>
        <time>2011-05-24T10:53:29Z</time>
        <extensions><gpxtpx:TrackPointExtension><gpxtpx:hr>142</gpxtpx:hr></gpxtpx:TrackPointExtension></extensions>
      </trkpt>
      <trkpt lat="61.0973268722" lon="13.7833575439">
        <ele>390.6</ele>
        <time>2011-05-24T10:53:33Z</time>
        <extensions><gpxtpx:TrackPointExtension><gpxtpx:hr>141</gpxtpx:hr></gpxtpx:TrackPointExtension></extensions>
      </trkpt>
      <trkpt lat="61.097356125" lon="13.7833007985">
        <ele>390.6</ele>
        <time>2011-05-24T10:53:34Z</time>
        <extensions><gpxtpx:TrackPointExtension><gpxtpx:hr>141</gpxtpx:hr></gpxtpx:TrackPointExtension></extensions>
      </trkpt>
      <trkpt lat="61.0975438796" lon="13.7829911711">
        <ele>390.8</ele>
        <time>2011-05-24T10:53:41Z</time>
        <extensions><gpxtpx:TrackPointExtension><gpxtpx:hr>138</gpxtpx:hr></gpxtpx:TrackPointExtension></extensions>
      </trkpt>
      <trkpt lat="61.0976687699" lon="13.7827655303">
        <ele>390.8</ele>
        <time>2011-05-24T10:53:49Z</time>
        <extensions><gpxtpx:TrackPointExtension><gpxtpx:hr>140</gpxtpx:hr></gpxtpx:TrackPointExtension></extensions>
      </trkpt>
      <trkpt lat="61.097740938" lon="13.7826063581">
        <ele>391.6</ele>
        <time>2011-05-24T10:53:55Z</time>
        <extensions><gpxtpx:TrackPointExtension><gpxtpx:hr>145</gpxtpx:hr></gpxtpx:TrackPointExtension></extensions>
      </trkpt>
      <trkpt lat="61.0977975997" lon="13.7824735049">
        <ele>392</ele>
        <time>2011-05-24T10:54:00Z</time>
        <extensions><gpxtpx:TrackPointExtension><gpxtpx:hr>146</gpxtpx:hr></gpxtpx:TrackPointExtension></extensions>
      </trkpt>
      <trkpt lat="61.0978654093" lon="13.7823828966">
        <ele>392.4</ele>
        <time>2011-05-24T10:54:04Z</time>
        <extensions><gpxtpx:TrackPointExtension><gpxtpx:hr>146</gpxtpx:hr></gpxtpx:TrackPointExtension></extensions>
      </trkpt>
      <trkpt lat="61.0980130983" lon="13.7822611076">
        <ele>392.6</ele>
        <time>2011-05-24T10:54:10Z</time>
        <extensions><gpxtpx:TrackPointExtension><gpxtpx:hr>145</gpxtpx:hr></gpxtpx:TrackPointExtension></extensions>
      </trkpt>
      <trkpt lat="61.0981840891" lon="13.7820881052">
        <ele>393.6</ele>
        <time>2011-05-24T10:54:15Z</time>
        <extensions><gpxtpx:TrackPointExtension><gpxtpx:hr>144</gpxtpx:hr></gpxtpx:TrackPointExtension></extensions>
      </trkpt>
      <trkpt lat="61.098334628" lon="13.7818619615">
        <ele>394</ele>
        <time>2011-05-24T10:54:19Z</time>
        <extensions><gpxtpx:TrackPointExtension><gpxtpx:hr>143</gpxtpx:hr></gpxtpx:TrackPointExtension></extensions>
      </trkpt>
      <trkpt lat="61.0983705864" lon="13.7818181242">
        <ele>394</ele>
        <time>2011-05-24T10:54:20Z</time>
        <extensions><gpxtpx:TrackPointExtension><gpxtpx:hr>142</gpxtpx:hr></gpxtpx:TrackPointExtension></extensions>
      </trkpt>
      <trkpt lat="61.0986095543" lon="13.7816840976">
        <ele>394.4</ele>
        <time>2011-05-24T10:54:26Z</time>
        <extensions><gpxtpx:TrackPointExtension><gpxtpx:hr>139</gpxtpx:hr></gpxtpx:TrackPointExtension></extensions>
      </trkpt>
      <trkpt lat="61.0987942914" lon="13.7816484745">
        <ele>394.6</ele>
        <time>2011-05-24T10:54:30Z</time>
        <extensions><gpxtpx:TrackPointExtension><gpxtpx:hr>137</gpxtpx:hr></gpxtpx:TrackPointExtension></extensions>
      </trkpt>
      <trkpt lat="61.0989873266" lon="13.7815956686">
        <ele>394.6</ele>
        <time>2011-05-24T10:54:34Z</time>
        <extensions><gpxtpx:TrackPointExtension><gpxtpx:hr>136</gpxtpx:hr></gpxtpx:TrackPointExtension></extensions>
      </trkpt>
      <trkpt lat="61.0990310801" lon="13.7815898012">
        <ele>394.8</ele>
        <time>2011-05-24T10:54:35Z</time>
        <extensions><gpxtpx:TrackPointExtension><gpxtpx:hr>136</gpxtpx:hr></gpxtpx:TrackPointExtension></extensions>
      </trkpt>
      <trkpt lat="61.0991698005" lon="13.7816239156">
        <ele>394.8</ele>
        <time>2011-05-24T10:54:38Z</time>
        <extensions><gpxtpx:TrackPointExtension><gpxtpx:hr>137</gpxtpx:hr></gpxtpx:TrackPointExtension></extensions>
      </trkpt>
      <trkpt lat="61.099405751" lon="13.7817275158">
        <ele>394.8</ele>
        <time>2011-05-24T10:54:43Z</time>
        <extensions><gpxtpx:TrackPointExtension><gpxtpx:hr>137</gpxtpx:hr></gpxtpx:TrackPointExtension></extensions>
      </trkpt>
      <trkpt lat="61.099470124" lon="13.7817448664">
        <ele>394.8</ele>
        <time>2011-05-24T10:54:44Z</time>
        <extensions><gpxtpx:TrackPointExtension><gpxtpx:hr>137</gpxtpx:hr></gpxtpx:TrackPointExtension></extensions>
      </trkpt>
      <trkpt lat="61.0997353273" lon="13.7816977601">
        <ele>394.8</ele>
        <time>2011-05-24T10:54:49Z</time>
        <extensions><gpxtpx:TrackPointExtension><gpxtpx:hr>136</gpxtpx:hr></gpxtpx:TrackPointExtension></extensions>
      </trkpt>
      <trkpt lat="61.0997898935" lon="13.781687618">
        <ele>394.8</ele>
        <time>2011-05-24T10:54:50Z</time>
        <extensions><gpxtpx:TrackPointExtension><gpxtpx:hr>135</gpxtpx:hr></gpxtpx:TrackPointExtension></extensions>
      </trkpt>
      <trkpt lat="61.0998263548" lon="13.7816611312">
        <ele>394.8</ele>
        <time>2011-05-24T10:54:51Z</time>
        <extensions><gpxtpx:TrackPointExtension><gpxtpx:hr>134</gpxtpx:hr></gpxtpx:TrackPointExtension></extensions>
      </trkpt>
      <trkpt lat="61.0999789892" lon="13.7815564413">
        <ele>394.8</ele>
        <time>2011-05-24T10:54:55Z</time>
        <extensions><gpxtpx:TrackPointExtension><gpxtpx:hr>132</gpxtpx:hr></gpxtpx:TrackPointExtension></extensions>
      </trkpt>
      <trkpt lat="61.1000458767" lon="13.781504222">
        <ele>394.8</ele>
        <time>2011-05-24T10:54:57Z</time>
        <extensions><gpxtpx:TrackPointExtension><gpxtpx:hr>133</gpxtpx:hr></gpxtpx:TrackPointExtension></extensions>
      </trkpt>
      <trkpt lat="61.1001515725" lon="13.7814085845">
        <ele>394.8</ele>
        <time>2011-05-24T10:55:00Z</time>
        <extensions><gpxtpx:TrackPointExtension><gpxtpx:hr>134</gpxtpx:hr></gpxtpx:TrackPointExtension></extensions>
      </trkpt>
      <trkpt lat="61.1003124211" lon="13.7814388432">
        <ele>394.8</ele>
        <time>2011-05-24T10:55:06Z</time>
        <extensions><gpxtpx:TrackPointExtension><gpxtpx:hr>138</gpxtpx:hr></gpxtpx:TrackPointExtension></extensions>
      </trkpt>
      <trkpt lat="61.1003089007" lon="13.7814471413">
        <ele>394.8</ele>
        <time>2011-05-24T10:55:10Z</time>
        <extensions><gpxtpx:TrackPointExtension><gpxtpx:hr>138</gpxtpx:hr></gpxtpx:TrackPointExtension></extensions>
      </trkpt>
      <trkpt lat="61.1003000998" lon="13.7814631507">
        <ele>395.8</ele>
        <time>2011-05-24T10:55:17Z</time>
        <extensions><gpxtpx:TrackPointExtension><gpxtpx:hr>134</gpxtpx:hr></gpxtpx:TrackPointExtension></extensions>
      </trkpt>
      <trkpt lat="61.1002722718" lon="13.7814619773">
        <ele>396.4</ele>
        <time>2011-05-24T10:55:23Z</time>
        <extensions><gpxtpx:TrackPointExtension><gpxtpx:hr>129</gpxtpx:hr></gpxtpx:TrackPointExtension></extensions>
      </trkpt>
      <trkpt lat="61.1002726071" lon="13.7814596303">
        <ele>396.4</ele>
        <time>2011-05-24T10:55:26Z</time>
        <extensions><gpxtpx:TrackPointExtension><gpxtpx:hr>124</gpxtpx:hr></gpxtpx:TrackPointExtension></extensions>
      </trkpt>
      <trkpt lat="61.1002789774" lon="13.7814535115">
        <ele>398</ele>
        <time>2011-05-24T10:55:38Z</time>
        <extensions><gpxtpx:TrackPointExtension><gpxtpx:hr>119</gpxtpx:hr></gpxtpx:TrackPointExtension></extensions>
      </trkpt>
      <trkpt lat="61.1002798156" lon="13.7814494044">
        <ele>398.4</ele>
        <time>2011-05-24T10:55:44Z</time>
        <extensions><gpxtpx:TrackPointExtension><gpxtpx:hr>114</gpxtpx:hr></gpxtpx:TrackPointExtension></extensions>
      </trkpt>
      <trkpt lat="61.1002841741" lon="13.7814576187">
        <ele>398.8</ele>
        <time>2011-05-24T10:55:54Z</time>
        <extensions><gpxtpx:TrackPointExtension><gpxtpx:hr>109</gpxtpx:hr></gpxtpx:TrackPointExtension></extensions>
      </trkpt>
      <trkpt lat="61.1002839227" lon="13.7814598818">
        <ele>400</ele>
        <time>2011-05-24T10:56:02Z</time>
        <extensions><gpxtpx:TrackPointExtension><gpxtpx:hr>104</gpxtpx:hr></gpxtpx:TrackPointExtension></extensions>
      </trkpt>
      <trkpt lat="61.1002844256" lon="13.7814618934">
        <ele>400.8</ele>
        <time>2011-05-24T10:56:21Z</time>
        <extensions><gpxtpx:TrackPointExtension><gpxtpx:hr>99</gpxtpx:hr></gpxtpx:TrackPointExtension></extensions>
      </trkpt>
      <trkpt lat="61.1002998483" lon="13.7814291202">
        <ele>401</ele>
        <time>2011-05-24T10:56:30Z</time>
        <extensions><gpxtpx:TrackPointExtension><gpxtpx:hr>104</gpxtpx:hr></gpxtpx:TrackPointExtension></extensions>
      </trkpt>
      <trkpt lat="61.1003038716" lon="13.781390312">
        <ele>401.8</ele>
        <time>2011-05-24T10:56:37Z</time>
        <extensions><gpxtpx:TrackPointExtension><gpxtpx:hr>104</gpxtpx:hr></gpxtpx:TrackPointExtension></extensions>
      </trkpt>
      <trkpt lat="61.1003078949" lon="13.7813904796">
        <ele>402.6</ele>
        <time>2011-05-24T10:56:45Z</time>
        <extensions><gpxtpx:TrackPointExtension><gpxtpx:hr>98</gpxtpx:hr></gpxtpx:TrackPointExtension></extensions>
      </trkpt>
      <trkpt lat="61.1003125888" lon="13.7813910664">
        <ele>402.8</ele>
        <time>2011-05-24T10:56:59Z</time>
        <extensions><gpxtpx:TrackPointExtension><gpxtpx:hr>103</gpxtpx:hr></gpxtpx:TrackPointExtension></extensions>
      </trkpt>
      <trkpt lat="61.1003108286" lon="13.7813997836">
        <ele>403</ele>
        <time>2011-05-24T10:57:07Z</time>
        <extensions><gpxtpx:TrackPointExtension><gpxtpx:hr>100</gpxtpx:hr></gpxtpx:TrackPointExtension></extensions>
      </trkpt>
      <trkpt lat="61.1007518842" lon="13.7832501718">
        <ele>398.6</ele>
        <time>2011-05-24T11:07:53Z</time>
        <extensions><gpxtpx:TrackPointExtension><gpxtpx:hr>133</gpxtpx:hr></gpxtpx:TrackPointExtension></extensions>
      </trkpt>
      <trkpt lat="61.1007843221" lon="13.7836829293">
        <ele>399.6</ele>
        <time>2011-05-24T11:08:00Z</time>
        <extensions><gpxtpx:TrackPointExtension><gpxtpx:hr>136</gpxtpx:hr></gpxtpx:TrackPointExtension></extensions>
      </trkpt>
      <trkpt lat="61.1008025108" lon="13.7840732744">
        <ele>401.2</ele>
        <time>2011-05-24T11:08:05Z</time>
        <extensions><gpxtpx:TrackPointExtension><gpxtpx:hr>138</gpxtpx:hr></gpxtpx:TrackPointExtension></extensions>
      </trkpt>
      <trkpt lat="61.1008102222" lon="13.7845194429">
        <ele>403.2</ele>
        <time>2011-05-24T11:08:10Z</time>
        <extensions><gpxtpx:TrackPointExtension><gpxtpx:hr>141</gpxtpx:hr></gpxtpx:TrackPointExtension></extensions>
      </trkpt>
      <trkpt lat="61.1008111442" lon="13.7849428965">
        <ele>405.4</ele>
        <time>2011-05-24T11:08:15Z</time>
        <extensions><gpxtpx:TrackPointExtension><gpxtpx:hr>142</gpxtpx:hr></gpxtpx:TrackPointExtension></extensions>
      </trkpt>
      <trkpt lat="61.1008176821" lon="13.785273311">
        <ele>406.6</ele>
        <time>2011-05-24T11:08:19Z</time>
        <extensions><gpxtpx:TrackPointExtension><gpxtpx:hr>143</gpxtpx:hr></gpxtpx:TrackPointExtension></extensions>
      </trkpt>
      <trkpt lat="61.1008374634" lon="13.7857467207">
        <ele>408.4</ele>
        <time>2011-05-24T11:08:25Z</time>
        <extensions><gpxtpx:TrackPointExtension><gpxtpx:hr>143</gpxtpx:hr></gpxtpx:TrackPointExtension></extensions>
      </trkpt>
      <trkpt lat="61.1008548139" lon="13.7861469564">
        <ele>410.2</ele>
        <time>2011-05-24T11:08:31Z</time>
        <extensions><gpxtpx:TrackPointExtension><gpxtpx:hr>145</gpxtpx:hr></gpxtpx:TrackPointExtension></extensions>
      </trkpt>
      <trkpt lat="61.1008781156" lon="13.7865379721">
        <ele>411.8</ele>
        <time>2011-05-24T11:08:37Z</time>
        <extensions><gpxtpx:TrackPointExtension><gpxtpx:hr>147</gpxtpx:hr></gpxtpx:TrackPointExtension></extensions>
      </trkpt>
      <trkpt lat="61.1009527983" lon="13.786952457">
        <ele>413.4</ele>
        <time>2011-05-24T11:08:43Z</time>
        <extensions><gpxtpx:TrackPointExtension><gpxtpx:hr>147</gpxtpx:hr></gpxtpx:TrackPointExtension></extensions>
      </trkpt>
      <trkpt lat="61.1010613439" lon="13.7873102803">
        <ele>414.8</ele>
        <time>2011-05-24T11:08:48Z</time>
        <extensions><gpxtpx:TrackPointExtension><gpxtpx:hr>147</gpxtpx:hr></gpxtpx:TrackPointExtension></extensions>
      </trkpt>
      <trkpt lat="61.1012114637" lon="13.7876337379">
        <ele>415.6</ele>
        <time>2011-05-24T11:08:53Z</time>
        <extensions><gpxtpx:TrackPointExtension><gpxtpx:hr>146</gpxtpx:hr></gpxtpx:TrackPointExtension></extensions>
      </trkpt>
      <trkpt lat="61.1013536208" lon="13.7879299542">
        <ele>416.6</ele>
        <time>2011-05-24T11:08:58Z</time>
        <extensions><gpxtpx:TrackPointExtension><gpxtpx:hr>145</gpxtpx:hr></gpxtpx:TrackPointExtension></extensions>
      </trkpt>
      <trkpt lat="61.1014828697" lon="13.7881910504">
        <ele>417.6</ele>
        <time>2011-05-24T11:09:03Z</time>
        <extensions><gpxtpx:TrackPointExtension><gpxtpx:hr>145</gpxtpx:hr></gpxtpx:TrackPointExtension></extensions>
      </trkpt>
      <trkpt lat="61.101635085" lon="13.7885058746">
        <ele>418</ele>
        <time>2011-05-24T11:09:08Z</time>
        <extensions><gpxtpx:TrackPointExtension><gpxtpx:hr>143</gpxtpx:hr></gpxtpx:TrackPointExtension></extensions>
      </trkpt>
      <trkpt lat="61.1018200735" lon="13.7888455091">
        <ele>418.6</ele>
        <time>2011-05-24T11:09:17Z</time>
        <extensions><gpxtpx:TrackPointExtension><gpxtpx:hr>135</gpxtpx:hr></gpxtpx:TrackPointExtension></extensions>
      </trkpt>
      <trkpt lat="61.1018171398" lon="13.7888510412">
        <ele>418.6</ele>
        <time>2011-05-24T11:09:22Z</time>
        <extensions><gpxtpx:TrackPointExtension><gpxtpx:hr>132</gpxtpx:hr></gpxtpx:TrackPointExtension></extensions>
      </trkpt>
      <trkpt lat="61.1018137871" lon="13.7888548131">
        <ele>418.8</ele>
        <time>2011-05-24T11:09:26Z</time>
        <extensions><gpxtpx:TrackPointExtension><gpxtpx:hr>127</gpxtpx:hr></gpxtpx:TrackPointExtension></extensions>
      </trkpt>
      <trkpt lat="61.1018132842" lon="13.788863614">
        <ele>418.8</ele>
        <time>2011-05-24T11:09:33Z</time>
        <extensions><gpxtpx:TrackPointExtension><gpxtpx:hr>121</gpxtpx:hr></gpxtpx:TrackPointExtension></extensions>
      </trkpt>
      <trkpt lat="61.1018154635" lon="13.7888751811">
        <ele>418.8</ele>
        <time>2011-05-24T11:09:35Z</time>
        <extensions><gpxtpx:TrackPointExtension><gpxtpx:hr>120</gpxtpx:hr></gpxtpx:TrackPointExtension></extensions>
      </trkpt>
      <trkpt lat="61.1017706203" lon="13.7890650311">
        <ele>418.8</ele>
        <time>2011-05-24T11:09:39Z</time>
        <extensions><gpxtpx:TrackPointExtension><gpxtpx:hr>121</gpxtpx:hr></gpxtpx:TrackPointExtension></extensions>
      </trkpt>
      <trkpt lat="61.1016498371" lon="13.7894081023">
        <ele>418.8</ele>
        <time>2011-05-24T11:09:43Z</time>
        <extensions><gpxtpx:TrackPointExtension><gpxtpx:hr>114</gpxtpx:hr></gpxtpx:TrackPointExtension></extensions>
      </trkpt>
      <trkpt lat="61.1015262879" lon="13.7897548615">
        <ele>418.8</ele>
        <time>2011-05-24T11:09:46Z</time>
        <extensions><gpxtpx:TrackPointExtension><gpxtpx:hr>120</gpxtpx:hr></gpxtpx:TrackPointExtension></extensions>
      </trkpt>
      <trkpt lat="61.1014770861" lon="13.7898940848">
        <ele>418.8</ele>
        <time>2011-05-24T11:09:47Z</time>
        <extensions><gpxtpx:TrackPointExtension><gpxtpx:hr>120</gpxtpx:hr></gpxtpx:TrackPointExtension></extensions>
      </trkpt>
      <trkpt lat="61.1013248708" lon="13.7903456178">
        <ele>418.2</ele>
        <time>2011-05-24T11:09:50Z</time>
        <extensions><gpxtpx:TrackPointExtension><gpxtpx:hr>120</gpxtpx:hr></gpxtpx:TrackPointExtension></extensions>
      </trkpt>
      <trkpt lat="61.1012279761" lon="13.790655329">
        <ele>417.8</ele>
        <time>2011-05-24T11:09:52Z</time>
        <extensions><gpxtpx:TrackPointExtension><gpxtpx:hr>112</gpxtpx:hr></gpxtpx:TrackPointExtension></extensions>
      </trkpt>
      <trkpt lat="61.1011302431" lon="13.7909569936">
        <ele>417.6</ele>
        <time>2011-05-24T11:09:54Z</time>
        <extensions><gpxtpx:TrackPointExtension><gpxtpx:hr>107</gpxtpx:hr></gpxtpx:TrackPointExtension></extensions>
      </trkpt>
      <trkpt lat="61.1009812129" lon="13.7914065149">
        <ele>416.8</ele>
        <time>2011-05-24T11:09:57Z</time>
        <extensions><gpxtpx:TrackPointExtension><gpxtpx:hr>101</gpxtpx:hr></gpxtpx:TrackPointExtension></extensions>
      </trkpt>
      <trkpt lat="61.1008815522" lon="13.7917357559">
        <ele>416.2</ele>
        <time>2011-05-24T11:09:59Z</time>
        <extensions><gpxtpx:TrackPointExtension><gpxtpx:hr>98</gpxtpx:hr></gpxtpx:TrackPointExtension></extensions>
      </trkpt>
      <trkpt lat="61.1007913629" lon="13.7921034699">
        <ele>415.4</ele>
        <time>2011-05-24T11:10:01Z</time>
        <extensions><gpxtpx:TrackPointExtension><gpxtpx:hr>96</gpxtpx:hr></gpxtpx:TrackPointExtension></extensions>
      </trkpt>
      <trkpt lat="61.1007072925" lon="13.7924777217">
        <ele>414.8</ele>
        <time>2011-05-24T11:10:03Z</time>
        <extensions><gpxtpx:TrackPointExtension><gpxtpx:hr>95</gpxtpx:hr></gpxtpx:TrackPointExtension></extensions>
      </trkpt>
      <trkpt lat="61.1006247307" lon="13.7928334495">
        <ele>414</ele>
        <time>2011-05-24T11:10:05Z</time>
        <extensions><gpxtpx:TrackPointExtension><gpxtpx:hr>94</gpxtpx:hr></gpxtpx:TrackPointExtension></extensions>
      </trkpt>
      <trkpt lat="61.1005143411" lon="13.7933394648">
        <ele>412.8</ele>
        <time>2011-05-24T11:10:08Z</time>
        <extensions><gpxtpx:TrackPointExtension><gpxtpx:hr>91</gpxtpx:hr></gpxtpx:TrackPointExtension></extensions>
      </trkpt>
      <trkpt lat="61.1004448552" lon="13.7940726296">
        <ele>411.6</ele>
        <time>2011-05-24T11:10:13Z</time>
        <extensions><gpxtpx:TrackPointExtension><gpxtpx:hr>101</gpxtpx:hr></gpxtpx:TrackPointExtension></extensions>
      </trkpt>
      <trkpt lat="61.1004450228" lon="13.7941704464">
        <ele>411.4</ele>
        <time>2011-05-24T11:10:14Z</time>
        <extensions><gpxtpx:TrackPointExtension><gpxtpx:hr>104</gpxtpx:hr></gpxtpx:TrackPointExtension></extensions>
      </trkpt>
      <trkpt lat="61.1005298476" lon="13.7947259987">
        <ele>410.2</ele>
        <time>2011-05-24T11:10:19Z</time>
        <extensions><gpxtpx:TrackPointExtension><gpxtpx:hr>111</gpxtpx:hr></gpxtpx:TrackPointExtension></extensions>
      </trkpt>
      <trkpt lat="61.1005670633" lon="13.7949462751">
        <ele>409.8</ele>
        <time>2011-05-24T11:10:21Z</time>
        <extensions><gpxtpx:TrackPointExtension><gpxtpx:hr>112</gpxtpx:hr></gpxtpx:TrackPointExtension></extensions>
      </trkpt>
      <trkpt lat="61.100601932" lon="13.7955119695">
        <ele>409.2</ele>
        <time>2011-05-24T11:10:25Z</time>
        <extensions><gpxtpx:TrackPointExtension><gpxtpx:hr>117</gpxtpx:hr></gpxtpx:TrackPointExtension></extensions>
      </trkpt>
      <trkpt lat="61.1005982439" lon="13.7959169829">
        <ele>408.8</ele>
        <time>2011-05-24T11:10:28Z</time>
        <extensions><gpxtpx:TrackPointExtension><gpxtpx:hr>120</gpxtpx:hr></gpxtpx:TrackPointExtension></extensions>
      </trkpt>
      <trkpt lat="61.1005844138" lon="13.7963989421">
        <ele>408.4</ele>
        <time>2011-05-24T11:10:32Z</time>
        <extensions><gpxtpx:TrackPointExtension><gpxtpx:hr>123</gpxtpx:hr></gpxtpx:TrackPointExtension></extensions>
      </trkpt>
      <trkpt lat="61.1005757804" lon="13.7968759561">
        <ele>408.2</ele>
        <time>2011-05-24T11:10:36Z</time>
        <extensions><gpxtpx:TrackPointExtension><gpxtpx:hr>124</gpxtpx:hr></gpxtpx:TrackPointExtension></extensions>
      </trkpt>
      <trkpt lat="61.1005591005" lon="13.7973457616">
        <ele>408</ele>
        <time>2011-05-24T11:10:40Z</time>
        <extensions><gpxtpx:TrackPointExtension><gpxtpx:hr>125</gpxtpx:hr></gpxtpx:TrackPointExtension></extensions>
      </trkpt>
      <trkpt lat="61.1005322784" lon="13.7976723204">
        <ele>408</ele>
        <time>2011-05-24T11:10:43Z</time>
        <extensions><gpxtpx:TrackPointExtension><gpxtpx:hr>124</gpxtpx:hr></gpxtpx:TrackPointExtension></extensions>
      </trkpt>
      <trkpt lat="61.1004962362" lon="13.7978800239">
        <ele>408</ele>
        <time>2011-05-24T11:10:45Z</time>
        <extensions><gpxtpx:TrackPointExtension><gpxtpx:hr>125</gpxtpx:hr></gpxtpx:TrackPointExtension></extensions>
      </trkpt>
      <trkpt lat="61.1003748663" lon="13.7983468119">
        <ele>408</ele>
        <time>2011-05-24T11:10:50Z</time>
        <extensions><gpxtpx:TrackPointExtension><gpxtpx:hr>126</gpxtpx:hr></gpxtpx:TrackPointExtension></extensions>
      </trkpt>
      <trkpt lat="61.1003477089" lon="13.7984210755">
        <ele>407.8</ele>
        <time>2011-05-24T11:10:51Z</time>
        <extensions><gpxtpx:TrackPointExtension><gpxtpx:hr>126</gpxtpx:hr></gpxtpx:TrackPointExtension></extensions>
      </trkpt>
      <trkpt lat="61.100321306" lon="13.7984857">
        <ele>407.8</ele>
        <time>2011-05-24T11:10:52Z</time>
        <extensions><gpxtpx:TrackPointExtension><gpxtpx:hr>127</gpxtpx:hr></gpxtpx:TrackPointExtension></extensions>
      </trkpt>
      <trkpt lat="61.1001932305" lon="13.7988712674">
        <ele>407.8</ele>
        <time>2011-05-24T11:10:59Z</time>
        <extensions><gpxtpx:TrackPointExtension><gpxtpx:hr>131</gpxtpx:hr></gpxtpx:TrackPointExtension></extensions>
      </trkpt>
      <trkpt lat="61.1001321265" lon="13.7990668171">
        <ele>407.8</ele>
        <time>2011-05-24T11:11:05Z</time>
        <extensions><gpxtpx:TrackPointExtension><gpxtpx:hr>131</gpxtpx:hr></gpxtpx:TrackPointExtension></extensions>
      </trkpt>
      <trkpt lat="61.1001199727" lon="13.7991093133">
        <ele>407.8</ele>
        <time>2011-05-24T11:11:10Z</time>
        <extensions><gpxtpx:TrackPointExtension><gpxtpx:hr>129</gpxtpx:hr></gpxtpx:TrackPointExtension></extensions>
      </trkpt>
      <trkpt lat="61.1001158656" lon="13.7991164379">
        <ele>407.8</ele>
        <time>2011-05-24T11:11:20Z</time>
        <extensions><gpxtpx:TrackPointExtension><gpxtpx:hr>124</gpxtpx:hr></gpxtpx:TrackPointExtension></extensions>
      </trkpt>
      <trkpt lat="61.1000928154" lon="13.7992130813">
        <ele>407.8</ele>
        <time>2011-05-24T11:11:26Z</time>
        <extensions><gpxtpx:TrackPointExtension><gpxtpx:hr>121</gpxtpx:hr></gpxtpx:TrackPointExtension></extensions>
      </trkpt>
      <trkpt lat="61.1000061465" lon="13.7994147498">
        <ele>407.8</ele>
        <time>2011-05-24T11:11:32Z</time>
        <extensions><gpxtpx:TrackPointExtension><gpxtpx:hr>122</gpxtpx:hr></gpxtpx:TrackPointExtension></extensions>
      </trkpt>
      <trkpt lat="61.0999211541" lon="13.7997204377">
        <ele>408.6</ele>
        <time>2011-05-24T11:11:39Z</time>
        <extensions><gpxtpx:TrackPointExtension><gpxtpx:hr>125</gpxtpx:hr></gpxtpx:TrackPointExtension></extensions>
      </trkpt>
      <trkpt lat="61.0998908116" lon="13.7999076055">
        <ele>409.2</ele>
        <time>2011-05-24T11:11:44Z</time>
        <extensions><gpxtpx:TrackPointExtension><gpxtpx:hr>124</gpxtpx:hr></gpxtpx:TrackPointExtension></extensions>
      </trkpt>
      <trkpt lat="61.0999188071" lon="13.8001774188">
        <ele>409.4</ele>
        <time>2011-05-24T11:11:49Z</time>
        <extensions><gpxtpx:TrackPointExtension><gpxtpx:hr>123</gpxtpx:hr></gpxtpx:TrackPointExtension></extensions>
      </trkpt>
      <trkpt lat="61.1000166239" lon="13.8005095935">
        <ele>409.6</ele>
        <time>2011-05-24T11:11:54Z</time>
        <extensions><gpxtpx:TrackPointExtension><gpxtpx:hr>123</gpxtpx:hr></gpxtpx:TrackPointExtension></extensions>
      </trkpt>
      <trkpt lat="61.100158278" lon="13.8008447857">
        <ele>409.6</ele>
        <time>2011-05-24T11:11:59Z</time>
        <extensions><gpxtpx:TrackPointExtension><gpxtpx:hr>122</gpxtpx:hr></gpxtpx:TrackPointExtension></extensions>
      </trkpt>
      <trkpt lat="61.100287946" lon="13.8011865158">
        <ele>409.8</ele>
        <time>2011-05-24T11:12:04Z</time>
        <extensions><gpxtpx:TrackPointExtension><gpxtpx:hr>120</gpxtpx:hr></gpxtpx:TrackPointExtension></extensions>
      </trkpt>
      <trkpt lat="61.1004028618" lon="13.8015346999">
        <ele>409.8</ele>
        <time>2011-05-24T11:12:09Z</time>
        <extensions><gpxtpx:TrackPointExtension><gpxtpx:hr>120</gpxtpx:hr></gpxtpx:TrackPointExtension></extensions>
      </trkpt>
      <trkpt lat="61.1004252415" lon="13.8016030962">
        <ele>409.8</ele>
        <time>2011-05-24T11:12:10Z</time>
        <extensions><gpxtpx:TrackPointExtension><gpxtpx:hr>120</gpxtpx:hr></gpxtpx:TrackPointExtension></extensions>
      </trkpt>
      <trkpt lat="61.1005452703" lon="13.8020218559">
        <ele>409.8</ele>
        <time>2011-05-24T11:12:16Z</time>
        <extensions><gpxtpx:TrackPointExtension><gpxtpx:hr>120</gpxtpx:hr></gpxtpx:TrackPointExtension></extensions>
      </trkpt>
      <trkpt lat="61.1006543188" lon="13.8023419607">
        <ele>409.8</ele>
        <time>2011-05-24T11:12:21Z</time>
        <extensions><gpxtpx:TrackPointExtension><gpxtpx:hr>119</gpxtpx:hr></gpxtpx:TrackPointExtension></extensions>
      </trkpt>
      <trkpt lat="61.1007310132" lon="13.802650247">
        <ele>410.4</ele>
        <time>2011-05-24T11:12:26Z</time>
        <extensions><gpxtpx:TrackPointExtension><gpxtpx:hr>120</gpxtpx:hr></gpxtpx:TrackPointExtension></extensions>
      </trkpt>
      <trkpt lat="61.1008076238" lon="13.8030436934">
        <ele>411.2</ele>
        <time>2011-05-24T11:12:32Z</time>
        <extensions><gpxtpx:TrackPointExtension><gpxtpx:hr>120</gpxtpx:hr></gpxtpx:TrackPointExtension></extensions>
      </trkpt>
      <trkpt lat="61.1008233818" lon="13.8033792208">
        <ele>411.4</ele>
        <time>2011-05-24T11:12:37Z</time>
        <extensions><gpxtpx:TrackPointExtension><gpxtpx:hr>119</gpxtpx:hr></gpxtpx:TrackPointExtension></extensions>
      </trkpt>
      <trkpt lat="61.1008160057" lon="13.8037837313">
        <ele>411.6</ele>
        <time>2011-05-24T11:12:43Z</time>
        <extensions><gpxtpx:TrackPointExtension><gpxtpx:hr>118</gpxtpx:hr></gpxtpx:TrackPointExtension></extensions>
      </trkpt>
      <trkpt lat="61.1007966435" lon="13.8041873198">
        <ele>411.6</ele>
        <time>2011-05-24T11:12:48Z</time>
        <extensions><gpxtpx:TrackPointExtension><gpxtpx:hr>118</gpxtpx:hr></gpxtpx:TrackPointExtension></extensions>
      </trkpt>
      <trkpt lat="61.1008004992" lon="13.8045536088">
        <ele>411.8</ele>
        <time>2011-05-24T11:12:54Z</time>
        <extensions><gpxtpx:TrackPointExtension><gpxtpx:hr>116</gpxtpx:hr></gpxtpx:TrackPointExtension></extensions>
      </trkpt>
      <trkpt lat="61.1008175144" lon="13.8046823548">
        <ele>411.8</ele>
        <time>2011-05-24T11:12:58Z</time>
        <extensions><gpxtpx:TrackPointExtension><gpxtpx:hr>113</gpxtpx:hr></gpxtpx:TrackPointExtension></extensions>
      </trkpt>
      <trkpt lat="61.1008858269" lon="13.8050447044">
        <ele>411.8</ele>
        <time>2011-05-24T11:13:03Z</time>
        <extensions><gpxtpx:TrackPointExtension><gpxtpx:hr>110</gpxtpx:hr></gpxtpx:TrackPointExtension></extensions>
      </trkpt>
      <trkpt lat="61.1009652035" lon="13.8054373126">
        <ele>411.8</ele>
        <time>2011-05-24T11:13:07Z</time>
        <extensions><gpxtpx:TrackPointExtension><gpxtpx:hr>106</gpxtpx:hr></gpxtpx:TrackPointExtension></extensions>
      </trkpt>
      <trkpt lat="61.1010400539" lon="13.805777953">
        <ele>411.8</ele>
        <time>2011-05-24T11:13:10Z</time>
        <extensions><gpxtpx:TrackPointExtension><gpxtpx:hr>104</gpxtpx:hr></gpxtpx:TrackPointExtension></extensions>
      </trkpt>
      <trkpt lat="61.1011232861" lon="13.8061402187">
        <ele>411.8</ele>
        <time>2011-05-24T11:13:13Z</time>
        <extensions><gpxtpx:TrackPointExtension><gpxtpx:hr>105</gpxtpx:hr></gpxtpx:TrackPointExtension></extensions>
      </trkpt>
      <trkpt lat="61.1012338434" lon="13.8066186575">
        <ele>411.2</ele>
        <time>2011-05-24T11:13:17Z</time>
        <extensions><gpxtpx:TrackPointExtension><gpxtpx:hr>106</gpxtpx:hr></gpxtpx:TrackPointExtension></extensions>
      </trkpt>
      <trkpt lat="61.1013675347" lon="13.8071626429">
        <ele>410.6</ele>
        <time>2011-05-24T11:13:24Z</time>
        <extensions><gpxtpx:TrackPointExtension><gpxtpx:hr>106</gpxtpx:hr></gpxtpx:TrackPointExtension></extensions>
      </trkpt>
      <trkpt lat="61.1013848852" lon="13.807229279">
        <ele>410.4</ele>
        <time>2011-05-24T11:13:25Z</time>
        <extensions><gpxtpx:TrackPointExtension><gpxtpx:hr>106</gpxtpx:hr></gpxtpx:TrackPointExtension></extensions>
      </trkpt>
      <trkpt lat="61.1014910001" lon="13.8076259943">
        <ele>410.2</ele>
        <time>2011-05-24T11:13:31Z</time>
        <extensions><gpxtpx:TrackPointExtension><gpxtpx:hr>106</gpxtpx:hr></gpxtpx:TrackPointExtension></extensions>
      </trkpt>
      <trkpt lat="61.1015768308" lon="13.808010975">
        <ele>410</ele>
        <time>2011-05-24T11:13:36Z</time>
        <extensions><gpxtpx:TrackPointExtension><gpxtpx:hr>108</gpxtpx:hr></gpxtpx:TrackPointExtension></extensions>
      </trkpt>
      <trkpt lat="61.1016443889" lon="13.8083169143">
        <ele>409.8</ele>
        <time>2011-05-24T11:13:40Z</time>
        <extensions><gpxtpx:TrackPointExtension><gpxtpx:hr>114</gpxtpx:hr></gpxtpx:TrackPointExtension></extensions>
      </trkpt>
      <trkpt lat="61.1016639187" lon="13.8083878252">
        <ele>409.8</ele>
        <time>2011-05-24T11:13:41Z</time>
        <extensions><gpxtpx:TrackPointExtension><gpxtpx:hr>115</gpxtpx:hr></gpxtpx:TrackPointExtension></extensions>
      </trkpt>
      <trkpt lat="61.1017560358" lon="13.8087421281">
        <ele>409.8</ele>
        <time>2011-05-24T11:13:46Z</time>
        <extensions><gpxtpx:TrackPointExtension><gpxtpx:hr>118</gpxtpx:hr></gpxtpx:TrackPointExtension></extensions>
      </trkpt>
      <trkpt lat="61.1018524276" lon="13.8090211615">
        <ele>409.8</ele>
        <time>2011-05-24T11:13:52Z</time>
        <extensions><gpxtpx:TrackPointExtension><gpxtpx:hr>114</gpxtpx:hr></gpxtpx:TrackPointExtension></extensions>
      </trkpt>
      <trkpt lat="61.1018608933" lon="13.8090463911">
        <ele>409.8</ele>
        <time>2011-05-24T11:13:56Z</time>
        <extensions><gpxtpx:TrackPointExtension><gpxtpx:hr>112</gpxtpx:hr></gpxtpx:TrackPointExtension></extensions>
      </trkpt>
      <trkpt lat="61.1018912358" lon="13.8090657532">
        <ele>409.8</ele>
        <time>2011-05-24T11:14:00Z</time>
        <extensions><gpxtpx:TrackPointExtension><gpxtpx:hr>113</gpxtpx:hr></gpxtpx:TrackPointExtension></extensions>
      </trkpt>
      <trkpt lat="61.1019793296" lon="13.8089735523">
        <ele>409.8</ele>
        <time>2011-05-24T11:14:04Z</time>
        <extensions><gpxtpx:TrackPointExtension><gpxtpx:hr>117</gpxtpx:hr></gpxtpx:TrackPointExtension></extensions>
      </trkpt>
      <trkpt lat="61.1021869493" lon="13.8088254442">
        <ele>409.8</ele>
        <time>2011-05-24T11:14:09Z</time>
        <extensions><gpxtpx:TrackPointExtension><gpxtpx:hr>121</gpxtpx:hr></gpxtpx:TrackPointExtension></extensions>
      </trkpt>
      <trkpt lat="61.1023427688" lon="13.8087446427">
        <ele>409.8</ele>
        <time>2011-05-24T11:14:12Z</time>
        <extensions><gpxtpx:TrackPointExtension><gpxtpx:hr>126</gpxtpx:hr></gpxtpx:TrackPointExtension></extensions>
      </trkpt>
      <trkpt lat="61.1023995142" lon="13.8087263701">
        <ele>409.8</ele>
        <time>2011-05-24T11:14:13Z</time>
        <extensions><gpxtpx:TrackPointExtension><gpxtpx:hr>127</gpxtpx:hr></gpxtpx:TrackPointExtension></extensions>
      </trkpt>
      <trkpt lat="61.1026610295" lon="13.8086126277">
        <ele>409.8</ele>
        <time>2011-05-24T11:14:18Z</time>
        <extensions><gpxtpx:TrackPointExtension><gpxtpx:hr>136</gpxtpx:hr></gpxtpx:TrackPointExtension></extensions>
      </trkpt>
      <trkpt lat="61.102808551" lon="13.8085464945">
        <ele>409.8</ele>
        <time>2011-05-24T11:14:21Z</time>
        <extensions><gpxtpx:TrackPointExtension><gpxtpx:hr>141</gpxtpx:hr></gpxtpx:TrackPointExtension></extensions>
      </trkpt>
      <trkpt lat="61.10299421" lon="13.8084575626">
        <ele>410</ele>
        <time>2011-05-24T11:14:25Z</time>
        <extensions><gpxtpx:TrackPointExtension><gpxtpx:hr>145</gpxtpx:hr></gpxtpx:TrackPointExtension></extensions>
      </trkpt>
      <trkpt lat="61.1030355328" lon="13.8084396253">
        <ele>410.2</ele>
        <time>2011-05-24T11:14:26Z</time>
        <extensions><gpxtpx:TrackPointExtension><gpxtpx:hr>145</gpxtpx:hr></gpxtpx:TrackPointExtension></extensions>
      </trkpt>
      <trkpt lat="61.1032071941" lon="13.80835874">
        <ele>410.8</ele>
        <time>2011-05-24T11:14:31Z</time>
        <extensions><gpxtpx:TrackPointExtension><gpxtpx:hr>145</gpxtpx:hr></gpxtpx:TrackPointExtension></extensions>
      </trkpt>
      <trkpt lat="61.1033823758" lon="13.8082606718">
        <ele>411.2</ele>
        <time>2011-05-24T11:14:36Z</time>
        <extensions><gpxtpx:TrackPointExtension><gpxtpx:hr>143</gpxtpx:hr></gpxtpx:TrackPointExtension></extensions>
      </trkpt>
      <trkpt lat="61.1035765006" lon="13.8081937842">
        <ele>412.2</ele>
        <time>2011-05-24T11:14:41Z</time>
        <extensions><gpxtpx:TrackPointExtension><gpxtpx:hr>143</gpxtpx:hr></gpxtpx:TrackPointExtension></extensions>
      </trkpt>
      <trkpt lat="61.1037725533" lon="13.8081479352">
        <ele>412.8</ele>
        <time>2011-05-24T11:14:46Z</time>
        <extensions><gpxtpx:TrackPointExtension><gpxtpx:hr>144</gpxtpx:hr></gpxtpx:TrackPointExtension></extensions>
      </trkpt>
      <trkpt lat="61.1039530156" lon="13.8081014157">
        <ele>413.6</ele>
        <time>2011-05-24T11:14:51Z</time>
        <extensions><gpxtpx:TrackPointExtension><gpxtpx:hr>145</gpxtpx:hr></gpxtpx:TrackPointExtension></extensions>
      </trkpt>
      <trkpt lat="61.1041340646" lon="13.80805959">
        <ele>414.6</ele>
        <time>2011-05-24T11:14:56Z</time>
        <extensions><gpxtpx:TrackPointExtension><gpxtpx:hr>145</gpxtpx:hr></gpxtpx:TrackPointExtension></extensions>
      </trkpt>
      <trkpt lat="61.1043156166" lon="13.8079839852">
        <ele>415.2</ele>
        <time>2011-05-24T11:15:02Z</time>
        <extensions><gpxtpx:TrackPointExtension><gpxtpx:hr>144</gpxtpx:hr></gpxtpx:TrackPointExtension></extensions>
      </trkpt>
      <trkpt lat="61.1043754633" lon="13.8079680596">
        <ele>415.6</ele>
        <time>2011-05-24T11:15:04Z</time>
        <extensions><gpxtpx:TrackPointExtension><gpxtpx:hr>143</gpxtpx:hr></gpxtpx:TrackPointExtension></extensions>
      </trkpt>
      <trkpt lat="61.1044814106" lon="13.8081451692">
        <ele>416.6</ele>
        <time>2011-05-24T11:15:09Z</time>
        <extensions><gpxtpx:TrackPointExtension><gpxtpx:hr>143</gpxtpx:hr></gpxtpx:TrackPointExtension></extensions>
      </trkpt>
      <trkpt lat="61.1044940672" lon="13.808196634">
        <ele>416.8</ele>
        <time>2011-05-24T11:15:10Z</time>
        <extensions><gpxtpx:TrackPointExtension><gpxtpx:hr>143</gpxtpx:hr></gpxtpx:TrackPointExtension></extensions>
      </trkpt>
      <trkpt lat="61.1045684147" lon="13.8085769208">
        <ele>417.4</ele>
        <time>2011-05-24T11:15:17Z</time>
        <extensions><gpxtpx:TrackPointExtension><gpxtpx:hr>141</gpxtpx:hr></gpxtpx:TrackPointExtension></extensions>
      </trkpt>
      <trkpt lat="61.1046717635" lon="13.8087920004">
        <ele>418.6</ele>
        <time>2011-05-24T11:15:23Z</time>
        <extensions><gpxtpx:TrackPointExtension><gpxtpx:hr>140</gpxtpx:hr></gpxtpx:TrackPointExtension></extensions>
      </trkpt>
      <trkpt lat="61.1048228054" lon="13.8088572954">
        <ele>419.4</ele>
        <time>2011-05-24T11:15:30Z</time>
        <extensions><gpxtpx:TrackPointExtension><gpxtpx:hr>139</gpxtpx:hr></gpxtpx:TrackPointExtension></extensions>
      </trkpt>
      <trkpt lat="61.1049502102" lon="13.8088453093">
        <ele>420.6</ele>
        <time>2011-05-24T11:15:36Z</time>
        <extensions><gpxtpx:TrackPointExtension><gpxtpx:hr>141</gpxtpx:hr></gpxtpx:TrackPointExtension></extensions>
      </trkpt>
      <trkpt lat="61.1050826443" lon="13.8088706226">
        <ele>421.6</ele>
        <time>2011-05-24T11:15:41Z</time>
        <extensions><gpxtpx:TrackPointExtension><gpxtpx:hr>143</gpxtpx:hr></gpxtpx:TrackPointExtension></extensions>
      </trkpt>
      <trkpt lat="61.1052702312" lon="13.8088939243">
        <ele>423.2</ele>
        <time>2011-05-24T11:15:48Z</time>
        <extensions><gpxtpx:TrackPointExtension><gpxtpx:hr>145</gpxtpx:hr></gpxtpx:TrackPointExtension></extensions>
      </trkpt>
      <trkpt lat="61.1054507773" lon="13.8089353309">
        <ele>424.8</ele>
        <time>2011-05-24T11:15:55Z</time>
        <extensions><gpxtpx:TrackPointExtension><gpxtpx:hr>146</gpxtpx:hr></gpxtpx:TrackPointExtension></extensions>
      </trkpt>
      <trkpt lat="61.1055930181" lon="13.8089947586">
        <ele>426.2</ele>
        <time>2011-05-24T11:16:02Z</time>
        <extensions><gpxtpx:TrackPointExtension><gpxtpx:hr>146</gpxtpx:hr></gpxtpx:TrackPointExtension></extensions>
      </trkpt>
      <trkpt lat="61.105722267" lon="13.809091318">
        <ele>427.4</ele>
        <time>2011-05-24T11:16:08Z</time>
        <extensions><gpxtpx:TrackPointExtension><gpxtpx:hr>148</gpxtpx:hr></gpxtpx:TrackPointExtension></extensions>
      </trkpt>
      <trkpt lat="61.1058883963" lon="13.8092701878">
        <ele>429</ele>
        <time>2011-05-24T11:16:15Z</time>
        <extensions><gpxtpx:TrackPointExtension><gpxtpx:hr>149</gpxtpx:hr></gpxtpx:TrackPointExtension></extensions>
      </trkpt>
      <trkpt lat="61.1060684395" lon="13.8093960001">
        <ele>429.8</ele>
        <time>2011-05-24T11:16:21Z</time>
        <extensions><gpxtpx:TrackPointExtension><gpxtpx:hr>148</gpxtpx:hr></gpxtpx:TrackPointExtension></extensions>
      </trkpt>
      <trkpt lat="61.1062463034" lon="13.8094225707">
        <ele>430.8</ele>
        <time>2011-05-24T11:16:28Z</time>
        <extensions><gpxtpx:TrackPointExtension><gpxtpx:hr>146</gpxtpx:hr></gpxtpx:TrackPointExtension></extensions>
      </trkpt>
      <trkpt lat="61.1064327169" lon="13.8093425236">
        <ele>432</ele>
        <time>2011-05-24T11:16:35Z</time>
        <extensions><gpxtpx:TrackPointExtension><gpxtpx:hr>145</gpxtpx:hr></gpxtpx:TrackPointExtension></extensions>
      </trkpt>
      <trkpt lat="61.1066322061" lon="13.8092499874">
        <ele>433.2</ele>
        <time>2011-05-24T11:16:42Z</time>
        <extensions><gpxtpx:TrackPointExtension><gpxtpx:hr>144</gpxtpx:hr></gpxtpx:TrackPointExtension></extensions>
      </trkpt>
      <trkpt lat="61.1068083098" lon="13.8091711975">
        <ele>434</ele>
        <time>2011-05-24T11:16:48Z</time>
        <extensions><gpxtpx:TrackPointExtension><gpxtpx:hr>145</gpxtpx:hr></gpxtpx:TrackPointExtension></extensions>
      </trkpt>
      <trkpt lat="61.1069978246" lon="13.8090696089">
        <ele>435.4</ele>
        <time>2011-05-24T11:16:54Z</time>
        <extensions><gpxtpx:TrackPointExtension><gpxtpx:hr>146</gpxtpx:hr></gpxtpx:TrackPointExtension></extensions>
      </trkpt>
      <trkpt lat="61.1071670551" lon="13.808942204">
        <ele>436.2</ele>
        <time>2011-05-24T11:17:00Z</time>
        <extensions><gpxtpx:TrackPointExtension><gpxtpx:hr>146</gpxtpx:hr></gpxtpx:TrackPointExtension></extensions>
      </trkpt>
      <trkpt lat="61.107363024" lon="13.8088326526">
        <ele>437.6</ele>
        <time>2011-05-24T11:17:06Z</time>
        <extensions><gpxtpx:TrackPointExtension><gpxtpx:hr>145</gpxtpx:hr></gpxtpx:TrackPointExtension></extensions>
      </trkpt>
      <trkpt lat="61.1075522873" lon="13.8088376817">
        <ele>438.4</ele>
        <time>2011-05-24T11:17:12Z</time>
        <extensions><gpxtpx:TrackPointExtension><gpxtpx:hr>144</gpxtpx:hr></gpxtpx:TrackPointExtension></extensions>
      </trkpt>
      <trkpt lat="61.1077434784" lon="13.808888057">
        <ele>439</ele>
        <time>2011-05-24T11:17:18Z</time>
        <extensions><gpxtpx:TrackPointExtension><gpxtpx:hr>143</gpxtpx:hr></gpxtpx:TrackPointExtension></extensions>
      </trkpt>
      <trkpt lat="61.1078554606" lon="13.8090079181">
        <ele>439.8</ele>
        <time>2011-05-24T11:17:22Z</time>
        <extensions><gpxtpx:TrackPointExtension><gpxtpx:hr>142</gpxtpx:hr></gpxtpx:TrackPointExtension></extensions>
      </trkpt>
      <trkpt lat="61.1080199973" lon="13.8092243388">
        <ele>440.4</ele>
        <time>2011-05-24T11:17:28Z</time>
        <extensions><gpxtpx:TrackPointExtension><gpxtpx:hr>141</gpxtpx:hr></gpxtpx:TrackPointExtension></extensions>
      </trkpt>
      <trkpt lat="61.1082100988" lon="13.8093570243">
        <ele>440.8</ele>
        <time>2011-05-24T11:17:35Z</time>
        <extensions><gpxtpx:TrackPointExtension><gpxtpx:hr>141</gpxtpx:hr></gpxtpx:TrackPointExtension></extensions>
      </trkpt>
      <trkpt lat="61.1083682652" lon="13.8093084931">
        <ele>441</ele>
        <time>2011-05-24T11:17:42Z</time>
        <extensions><gpxtpx:TrackPointExtension><gpxtpx:hr>138</gpxtpx:hr></gpxtpx:TrackPointExtension></extensions>
      </trkpt>
      <trkpt lat="61.1084382541" lon="13.809303883">
        <ele>441.4</ele>
        <time>2011-05-24T11:17:48Z</time>
        <extensions><gpxtpx:TrackPointExtension><gpxtpx:hr>135</gpxtpx:hr></gpxtpx:TrackPointExtension></extensions>
      </trkpt>
      <trkpt lat="61.1084407687" lon="13.809302961">
        <ele>442.4</ele>
        <time>2011-05-24T11:17:56Z</time>
        <extensions><gpxtpx:TrackPointExtension><gpxtpx:hr>130</gpxtpx:hr></gpxtpx:TrackPointExtension></extensions>
      </trkpt>
      <trkpt lat="61.1084456302" lon="13.8092978481">
        <ele>443</ele>
        <time>2011-05-24T11:18:08Z</time>
        <extensions><gpxtpx:TrackPointExtension><gpxtpx:hr>125</gpxtpx:hr></gpxtpx:TrackPointExtension></extensions>
      </trkpt>
      <trkpt lat="61.108449402" lon="13.8093015361">
        <ele>443.4</ele>
        <time>2011-05-24T11:18:13Z</time>
        <extensions><gpxtpx:TrackPointExtension><gpxtpx:hr>120</gpxtpx:hr></gpxtpx:TrackPointExtension></extensions>
      </trkpt>
      <trkpt lat="61.1084535092" lon="13.8093036316">
        <ele>444</ele>
        <time>2011-05-24T11:18:17Z</time>
        <extensions><gpxtpx:TrackPointExtension><gpxtpx:hr>115</gpxtpx:hr></gpxtpx:TrackPointExtension></extensions>
      </trkpt>
      <trkpt lat="61.1084575325" lon="13.8093063138">
        <ele>444.6</ele>
        <time>2011-05-24T11:18:23Z</time>
        <extensions><gpxtpx:TrackPointExtension><gpxtpx:hr>110</gpxtpx:hr></gpxtpx:TrackPointExtension></extensions>
      </trkpt>
      <trkpt lat="61.1084602147" lon="13.8093091636">
        <ele>446.8</ele>
        <time>2011-05-24T11:18:38Z</time>
        <extensions><gpxtpx:TrackPointExtension><gpxtpx:hr>105</gpxtpx:hr></gpxtpx:TrackPointExtension></extensions>
      </trkpt>
      <trkpt lat="61.1084988552" lon="13.8093329682">
        <ele>447</ele>
        <time>2011-05-24T11:18:43Z</time>
        <extensions><gpxtpx:TrackPointExtension><gpxtpx:hr>109</gpxtpx:hr></gpxtpx:TrackPointExtension></extensions>
      </trkpt>
      <trkpt lat="61.108516541" lon="13.8093410148">
        <ele>447</ele>
        <time>2011-05-24T11:18:44Z</time>
        <extensions><gpxtpx:TrackPointExtension><gpxtpx:hr>109</gpxtpx:hr></gpxtpx:TrackPointExtension></extensions>
      </trkpt>
      <trkpt lat="61.1085583667" lon="13.809373369">
        <ele>447</ele>
        <time>2011-05-24T11:18:46Z</time>
        <extensions><gpxtpx:TrackPointExtension><gpxtpx:hr>104</gpxtpx:hr></gpxtpx:TrackPointExtension></extensions>
      </trkpt>
      <trkpt lat="61.1085895474" lon="13.8094088244">
        <ele>447.2</ele>
        <time>2011-05-24T11:18:48Z</time>
        <extensions><gpxtpx:TrackPointExtension><gpxtpx:hr>101</gpxtpx:hr></gpxtpx:TrackPointExtension></extensions>
      </trkpt>
      <trkpt lat="61.1086263439" lon="13.8093985147">
        <ele>447.2</ele>
        <time>2011-05-24T11:18:53Z</time>
        <extensions><gpxtpx:TrackPointExtension><gpxtpx:hr>99</gpxtpx:hr></gpxtpx:TrackPointExtension></extensions>
      </trkpt>
      <trkpt lat="61.108638833" lon="13.8094001072">
        <ele>447.2</ele>
        <time>2011-05-24T11:18:57Z</time>
        <extensions><gpxtpx:TrackPointExtension><gpxtpx:hr>104</gpxtpx:hr></gpxtpx:TrackPointExtension></extensions>
      </trkpt>
      <trkpt lat="61.1086345582" lon="13.8094125963">
        <ele>447.4</ele>
        <time>2011-05-24T11:19:06Z</time>
        <extensions><gpxtpx:TrackPointExtension><gpxtpx:hr>107</gpxtpx:hr></gpxtpx:TrackPointExtension></extensions>
      </trkpt>
      <trkpt lat="61.1086316245" lon="13.8094320423">
        <ele>447.6</ele>
        <time>2011-05-24T11:19:13Z</time>
        <extensions><gpxtpx:TrackPointExtension><gpxtpx:hr>110</gpxtpx:hr></gpxtpx:TrackPointExtension></extensions>
      </trkpt>
      <trkpt lat="61.1086295291" lon="13.8094347245">
        <ele>448</ele>
        <time>2011-05-24T11:19:16Z</time>
        <extensions><gpxtpx:TrackPointExtension><gpxtpx:hr>105</gpxtpx:hr></gpxtpx:TrackPointExtension></extensions>
      </trkpt>
      <trkpt lat="61.1086312054" lon="13.8094313717">
        <ele>448.2</ele>
        <time>2011-05-24T11:19:18Z</time>
        <extensions><gpxtpx:TrackPointExtension><gpxtpx:hr>100</gpxtpx:hr></gpxtpx:TrackPointExtension></extensions>
      </trkpt>
      <trkpt lat="61.1086295291" lon="13.8094351436">
        <ele>448.8</ele>
        <time>2011-05-24T11:19:23Z</time>
        <extensions><gpxtpx:TrackPointExtension><gpxtpx:hr>101</gpxtpx:hr></gpxtpx:TrackPointExtension></extensions>
      </trkpt>
      <trkpt lat="61.1086131005" lon="13.8094463753">
        <ele>449</ele>
        <time>2011-05-24T11:19:29Z</time>
        <extensions><gpxtpx:TrackPointExtension><gpxtpx:hr>104</gpxtpx:hr></gpxtpx:TrackPointExtension></extensions>
      </trkpt>
      <trkpt lat="61.1085524994" lon="13.8094366523">
        <ele>449.2</ele>
        <time>2011-05-24T11:19:33Z</time>
        <extensions><gpxtpx:TrackPointExtension><gpxtpx:hr>110</gpxtpx:hr></gpxtpx:TrackPointExtension></extensions>
      </trkpt>
      <trkpt lat="61.1084916468" lon="13.8094186312">
        <ele>449.2</ele>
        <time>2011-05-24T11:19:38Z</time>
        <extensions><gpxtpx:TrackPointExtension><gpxtpx:hr>115</gpxtpx:hr></gpxtpx:TrackPointExtension></extensions>
      </trkpt>
      <trkpt lat="61.1084810018" lon="13.8094149432">
        <ele>449.2</ele>
        <time>2011-05-24T11:19:39Z</time>
        <extensions><gpxtpx:TrackPointExtension><gpxtpx:hr>114</gpxtpx:hr></gpxtpx:TrackPointExtension></extensions>
      </trkpt>
      <trkpt lat="61.1084729552" lon="13.8094158652">
        <ele>449.2</ele>
        <time>2011-05-24T11:19:41Z</time>
        <extensions><gpxtpx:TrackPointExtension><gpxtpx:hr>119</gpxtpx:hr></gpxtpx:TrackPointExtension></extensions>
      </trkpt>
      <trkpt lat="61.1084706921" lon="13.8094185474">
        <ele>449.2</ele>
        <time>2011-05-24T11:19:42Z</time>
        <extensions><gpxtpx:TrackPointExtension><gpxtpx:hr>119</gpxtpx:hr></gpxtpx:TrackPointExtension></extensions>
      </trkpt>
      <trkpt lat="61.1084664173" lon="13.8094253368">
        <ele>449.4</ele>
        <time>2011-05-24T11:19:47Z</time>
        <extensions><gpxtpx:TrackPointExtension><gpxtpx:hr>113</gpxtpx:hr></gpxtpx:TrackPointExtension></extensions>
      </trkpt>
      <trkpt lat="61.1084636513" lon="13.8094324614">
        <ele>449.4</ele>
        <time>2011-05-24T11:19:54Z</time>
        <extensions><gpxtpx:TrackPointExtension><gpxtpx:hr>108</gpxtpx:hr></gpxtpx:TrackPointExtension></extensions>
      </trkpt>
      <trkpt lat="61.1084623102" lon="13.8094353112">
        <ele>449.4</ele>
        <time>2011-05-24T11:19:58Z</time>
        <extensions><gpxtpx:TrackPointExtension><gpxtpx:hr>102</gpxtpx:hr></gpxtpx:TrackPointExtension></extensions>
      </trkpt>
      <trkpt lat="61.1084594603" lon="13.8094449504">
        <ele>449.4</ele>
        <time>2011-05-24T11:20:07Z</time>
        <extensions><gpxtpx:TrackPointExtension><gpxtpx:hr>97</gpxtpx:hr></gpxtpx:TrackPointExtension></extensions>
      </trkpt>
      <trkpt lat="61.1084543473" lon="13.8094560145">
        <ele>449.4</ele>
        <time>2011-05-24T11:20:14Z</time>
        <extensions><gpxtpx:TrackPointExtension><gpxtpx:hr>103</gpxtpx:hr></gpxtpx:TrackPointExtension></extensions>
      </trkpt>
      <trkpt lat="61.1084507431" lon="13.809446543">
        <ele>449.4</ele>
        <time>2011-05-24T11:20:17Z</time>
        <extensions><gpxtpx:TrackPointExtension><gpxtpx:hr>108</gpxtpx:hr></gpxtpx:TrackPointExtension></extensions>
      </trkpt>
      <trkpt lat="61.1085010345" lon="13.8094488061">
        <ele>449.4</ele>
        <time>2011-05-24T11:20:22Z</time>
        <extensions><gpxtpx:TrackPointExtension><gpxtpx:hr>113</gpxtpx:hr></gpxtpx:TrackPointExtension></extensions>
      </trkpt>
      <trkpt lat="61.1085071533" lon="13.8094393345">
        <ele>449.4</ele>
        <time>2011-05-24T11:20:27Z</time>
        <extensions><gpxtpx:TrackPointExtension><gpxtpx:hr>109</gpxtpx:hr></gpxtpx:TrackPointExtension></extensions>
      </trkpt>
      <trkpt lat="61.1085048902" lon="13.8094067289">
        <ele>449.4</ele>
        <time>2011-05-24T11:20:31Z</time>
        <extensions><gpxtpx:TrackPointExtension><gpxtpx:hr>110</gpxtpx:hr></gpxtpx:TrackPointExtension></extensions>
      </trkpt>
      <trkpt lat="61.1085080753" lon="13.8093907195">
        <ele>449.4</ele>
        <time>2011-05-24T11:20:32Z</time>
        <extensions><gpxtpx:TrackPointExtension><gpxtpx:hr>111</gpxtpx:hr></gpxtpx:TrackPointExtension></extensions>
      </trkpt>
      <trkpt lat="61.1085483923" lon="13.8093482233">
        <ele>449.4</ele>
        <time>2011-05-24T11:20:38Z</time>
        <extensions><gpxtpx:TrackPointExtension><gpxtpx:hr>112</gpxtpx:hr></gpxtpx:TrackPointExtension></extensions>
      </trkpt>
      <trkpt lat="61.1085958338" lon="13.8094152785">
        <ele>449.4</ele>
        <time>2011-05-24T11:20:44Z</time>
        <extensions><gpxtpx:TrackPointExtension><gpxtpx:hr>113</gpxtpx:hr></gpxtpx:TrackPointExtension></extensions>
      </trkpt>
      <trkpt lat="61.1086006953" lon="13.8094730298">
        <ele>449.4</ele>
        <time>2011-05-24T11:20:49Z</time>
        <extensions><gpxtpx:TrackPointExtension><gpxtpx:hr>113</gpxtpx:hr></gpxtpx:TrackPointExtension></extensions>
      </trkpt>
      <trkpt lat="61.1086086581" lon="13.8094917214">
        <ele>449.4</ele>
        <time>2011-05-24T11:21:01Z</time>
        <extensions><gpxtpx:TrackPointExtension><gpxtpx:hr>111</gpxtpx:hr></gpxtpx:TrackPointExtension></extensions>
      </trkpt>
      <trkpt lat="61.1085921458" lon="13.8094896259">
        <ele>450.8</ele>
        <time>2011-05-24T11:21:13Z</time>
        <extensions><gpxtpx:TrackPointExtension><gpxtpx:hr>106</gpxtpx:hr></gpxtpx:TrackPointExtension></extensions>
      </trkpt>
      <trkpt lat="61.1085782318" lon="13.8094845968">
        <ele>451.4</ele>
        <time>2011-05-24T11:21:37Z</time>
        <extensions><gpxtpx:TrackPointExtension><gpxtpx:hr>100</gpxtpx:hr></gpxtpx:TrackPointExtension></extensions>
      </trkpt>
      <trkpt lat="61.10857907" lon="13.8094852673">
        <ele>451.4</ele>
        <time>2011-05-24T11:21:40Z</time>
        <extensions><gpxtpx:TrackPointExtension><gpxtpx:hr>95</gpxtpx:hr></gpxtpx:TrackPointExtension></extensions>
      </trkpt>
      <trkpt lat="61.1085776451" lon="13.8094938169">
        <ele>451.4</ele>
        <time>2011-05-24T11:21:47Z</time>
        <extensions><gpxtpx:TrackPointExtension><gpxtpx:hr>100</gpxtpx:hr></gpxtpx:TrackPointExtension></extensions>
      </trkpt>
      <trkpt lat="61.1085732027" lon="13.8094968344">
        <ele>451.4</ele>
        <time>2011-05-24T11:22:02Z</time>
        <extensions><gpxtpx:TrackPointExtension><gpxtpx:hr>95</gpxtpx:hr></gpxtpx:TrackPointExtension></extensions>
      </trkpt>
      <trkpt lat="61.1085954147" lon="13.8095353073">
        <ele>451.4</ele>
        <time>2011-05-24T11:22:35Z</time>
        <extensions><gpxtpx:TrackPointExtension><gpxtpx:hr>92</gpxtpx:hr></gpxtpx:TrackPointExtension></extensions>
      </trkpt>
      <trkpt lat="61.1086125138" lon="13.8095098263">
        <ele>451.4</ele>
        <time>2011-05-24T11:22:40Z</time>
        <extensions><gpxtpx:TrackPointExtension><gpxtpx:hr>91</gpxtpx:hr></gpxtpx:TrackPointExtension></extensions>
      </trkpt>
      <trkpt lat="61.1086137711" lon="13.8095091558">
        <ele>451.4</ele>
        <time>2011-05-24T11:22:49Z</time>
        <extensions><gpxtpx:TrackPointExtension><gpxtpx:hr>92</gpxtpx:hr></gpxtpx:TrackPointExtension></extensions>
      </trkpt>
      <trkpt lat="61.1086256734" lon="13.8094884525">
        <ele>452.6</ele>
        <time>2011-05-24T11:23:20Z</time>
        <extensions><gpxtpx:TrackPointExtension><gpxtpx:hr>95</gpxtpx:hr></gpxtpx:TrackPointExtension></extensions>
      </trkpt>
      <trkpt lat="61.1086328818" lon="13.8094866923">
        <ele>453.2</ele>
        <time>2011-05-24T11:23:28Z</time>
        <extensions><gpxtpx:TrackPointExtension><gpxtpx:hr>100</gpxtpx:hr></gpxtpx:TrackPointExtension></extensions>
      </trkpt>
      <trkpt lat="61.1086260087" lon="13.8094622171">
        <ele>453.4</ele>
        <time>2011-05-24T11:23:46Z</time>
        <extensions><gpxtpx:TrackPointExtension><gpxtpx:hr>105</gpxtpx:hr></gpxtpx:TrackPointExtension></extensions>
      </trkpt>
      <trkpt lat="61.1086322113" lon="13.8094570203">
        <ele>453.4</ele>
        <time>2011-05-24T11:23:57Z</time>
        <extensions><gpxtpx:TrackPointExtension><gpxtpx:hr>100</gpxtpx:hr></gpxtpx:TrackPointExtension></extensions>
      </trkpt>
      <trkpt lat="61.1086317922" lon="13.8094557631">
        <ele>453.4</ele>
        <time>2011-05-24T11:23:59Z</time>
        <extensions><gpxtpx:TrackPointExtension><gpxtpx:hr>95</gpxtpx:hr></gpxtpx:TrackPointExtension></extensions>
      </trkpt>
      <trkpt lat="61.1086376595" lon="13.8094542543">
        <ele>452.2</ele>
        <time>2011-05-24T11:24:14Z</time>
        <extensions><gpxtpx:TrackPointExtension><gpxtpx:hr>100</gpxtpx:hr></gpxtpx:TrackPointExtension></extensions>
      </trkpt>
      <trkpt lat="61.1086428563" lon="13.809452997">
        <ele>452</ele>
        <time>2011-05-24T11:24:16Z</time>
        <extensions><gpxtpx:TrackPointExtension><gpxtpx:hr>106</gpxtpx:hr></gpxtpx:TrackPointExtension></extensions>
      </trkpt>
      <trkpt lat="61.1086549262" lon="13.8094950742">
        <ele>451.6</ele>
        <time>2011-05-24T11:24:25Z</time>
        <extensions><gpxtpx:TrackPointExtension><gpxtpx:hr>109</gpxtpx:hr></gpxtpx:TrackPointExtension></extensions>
      </trkpt>
      <trkpt lat="61.1087207241" lon="13.8095690025">
        <ele>451.4</ele>
        <time>2011-05-24T11:24:29Z</time>
        <extensions><gpxtpx:TrackPointExtension><gpxtpx:hr>111</gpxtpx:hr></gpxtpx:TrackPointExtension></extensions>
      </trkpt>
      <trkpt lat="61.1088020286" lon="13.8095850958">
        <ele>451</ele>
        <time>2011-05-24T11:24:31Z</time>
        <extensions><gpxtpx:TrackPointExtension><gpxtpx:hr>113</gpxtpx:hr></gpxtpx:TrackPointExtension></extensions>
      </trkpt>
      <trkpt lat="61.1089135078" lon="13.8095843414">
        <ele>450.8</ele>
        <time>2011-05-24T11:24:33Z</time>
        <extensions><gpxtpx:TrackPointExtension><gpxtpx:hr>123</gpxtpx:hr></gpxtpx:TrackPointExtension></extensions>
      </trkpt>
      <trkpt lat="61.1090211314" lon="13.8097275043">
        <ele>450.4</ele>
        <time>2011-05-24T11:24:35Z</time>
        <extensions><gpxtpx:TrackPointExtension><gpxtpx:hr>122</gpxtpx:hr></gpxtpx:TrackPointExtension></extensions>
      </trkpt>
      <trkpt lat="61.1092398152" lon="13.8101708229">
        <ele>449.6</ele>
        <time>2011-05-24T11:24:39Z</time>
        <extensions><gpxtpx:TrackPointExtension><gpxtpx:hr>125</gpxtpx:hr></gpxtpx:TrackPointExtension></extensions>
      </trkpt>
      <trkpt lat="61.1092929564" lon="13.8102983955">
        <ele>449.4</ele>
        <time>2011-05-24T11:24:40Z</time>
        <extensions><gpxtpx:TrackPointExtension><gpxtpx:hr>126</gpxtpx:hr></gpxtpx:TrackPointExtension></extensions>
      </trkpt>
      <trkpt lat="61.109448776" lon="13.8107071807">
        <ele>448.6</ele>
        <time>2011-05-24T11:24:43Z</time>
        <extensions><gpxtpx:TrackPointExtension><gpxtpx:hr>127</gpxtpx:hr></gpxtpx:TrackPointExtension></extensions>
      </trkpt>
      <trkpt lat="61.109496469" lon="13.8108298917">
        <ele>448.2</ele>
        <time>2011-05-24T11:24:44Z</time>
        <extensions><gpxtpx:TrackPointExtension><gpxtpx:hr>127</gpxtpx:hr></gpxtpx:TrackPointExtension></extensions>
      </trkpt>
      <trkpt lat="61.1097667014" lon="13.8112565304">
        <ele>447</ele>
        <time>2011-05-24T11:24:48Z</time>
        <extensions><gpxtpx:TrackPointExtension><gpxtpx:hr>131</gpxtpx:hr></gpxtpx:TrackPointExtension></extensions>
      </trkpt>
      <trkpt lat="61.1099102834" lon="13.8114530022">
        <ele>446.2</ele>
        <time>2011-05-24T11:24:50Z</time>
        <extensions><gpxtpx:TrackPointExtension><gpxtpx:hr>134</gpxtpx:hr></gpxtpx:TrackPointExtension></extensions>
      </trkpt>
      <trkpt lat="61.1100852974" lon="13.8119847499">
        <ele>444.6</ele>
        <time>2011-05-24T11:24:54Z</time>
        <extensions><gpxtpx:TrackPointExtension><gpxtpx:hr>135</gpxtpx:hr></gpxtpx:TrackPointExtension></extensions>
      </trkpt>
      <trkpt lat="61.1101182383" lon="13.8120932117">
        <ele>444</ele>
        <time>2011-05-24T11:24:56Z</time>
        <extensions><gpxtpx:TrackPointExtension><gpxtpx:hr>136</gpxtpx:hr></gpxtpx:TrackPointExtension></extensions>
      </trkpt>
      <trkpt lat="61.1101208367" lon="13.8121031023">
        <ele>443.6</ele>
        <time>2011-05-24T11:24:57Z</time>
        <extensions><gpxtpx:TrackPointExtension><gpxtpx:hr>136</gpxtpx:hr></gpxtpx:TrackPointExtension></extensions>
      </trkpt>
      <trkpt lat="61.1101156399" lon="13.8121056169">
        <ele>441.8</ele>
        <time>2011-05-24T11:25:03Z</time>
        <extensions><gpxtpx:TrackPointExtension><gpxtpx:hr>133</gpxtpx:hr></gpxtpx:TrackPointExtension></extensions>
      </trkpt>
      <trkpt lat="61.1101442222" lon="13.8121511306">
        <ele>439.8</ele>
        <time>2011-05-24T11:25:13Z</time>
        <extensions><gpxtpx:TrackPointExtension><gpxtpx:hr>133</gpxtpx:hr></gpxtpx:TrackPointExtension></extensions>
      </trkpt>
      <trkpt lat="61.1102265325" lon="13.8123141586">
        <ele>439.4</ele>
        <time>2011-05-24T11:25:18Z</time>
        <extensions><gpxtpx:TrackPointExtension><gpxtpx:hr>132</gpxtpx:hr></gpxtpx:TrackPointExtension></extensions>
      </trkpt>
      <trkpt lat="61.1103873811" lon="13.8125109656">
        <ele>438.4</ele>
        <time>2011-05-24T11:25:24Z</time>
        <extensions><gpxtpx:TrackPointExtension><gpxtpx:hr>131</gpxtpx:hr></gpxtpx:TrackPointExtension></extensions>
      </trkpt>
      <trkpt lat="61.1104613933" lon="13.8125750033">
        <ele>437.8</ele>
        <time>2011-05-24T11:25:27Z</time>
        <extensions><gpxtpx:TrackPointExtension><gpxtpx:hr>131</gpxtpx:hr></gpxtpx:TrackPointExtension></extensions>
      </trkpt>
      <trkpt lat="61.1104994471" lon="13.8125900069">
        <ele>437.4</ele>
        <time>2011-05-24T11:25:32Z</time>
        <extensions><gpxtpx:TrackPointExtension><gpxtpx:hr>127</gpxtpx:hr></gpxtpx:TrackPointExtension></extensions>
      </trkpt>
      <trkpt lat="61.1105293705" lon="13.8126338443">
        <ele>437</ele>
        <time>2011-05-24T11:25:41Z</time>
        <extensions><gpxtpx:TrackPointExtension><gpxtpx:hr>124</gpxtpx:hr></gpxtpx:TrackPointExtension></extensions>
      </trkpt>
      <trkpt lat="61.1105237546" lon="13.8126371132">
        <ele>436.8</ele>
        <time>2011-05-24T11:25:52Z</time>
        <extensions><gpxtpx:TrackPointExtension><gpxtpx:hr>118</gpxtpx:hr></gpxtpx:TrackPointExtension></extensions>
      </trkpt>
      <trkpt lat="61.1105200666" lon="13.8126448245">
        <ele>436.6</ele>
        <time>2011-05-24T11:26:01Z</time>
        <extensions><gpxtpx:TrackPointExtension><gpxtpx:hr>113</gpxtpx:hr></gpxtpx:TrackPointExtension></extensions>
      </trkpt>
      <trkpt lat="61.1105479783" lon="13.8126667013">
        <ele>436.6</ele>
        <time>2011-05-24T11:26:06Z</time>
        <extensions><gpxtpx:TrackPointExtension><gpxtpx:hr>115</gpxtpx:hr></gpxtpx:TrackPointExtension></extensions>
      </trkpt>
      <trkpt lat="61.1105465534" lon="13.8126803638">
        <ele>436.6</ele>
        <time>2011-05-24T11:26:13Z</time>
        <extensions><gpxtpx:TrackPointExtension><gpxtpx:hr>117</gpxtpx:hr></gpxtpx:TrackPointExtension></extensions>
      </trkpt>
      <trkpt lat="61.1105461343" lon="13.8126781007">
        <ele>436.6</ele>
        <time>2011-05-24T11:26:17Z</time>
        <extensions><gpxtpx:TrackPointExtension><gpxtpx:hr>112</gpxtpx:hr></gpxtpx:TrackPointExtension></extensions>
      </trkpt>
      <trkpt lat="61.1105607188" lon="13.8126639353">
        <ele>436.6</ele>
        <time>2011-05-24T11:26:21Z</time>
        <extensions><gpxtpx:TrackPointExtension><gpxtpx:hr>108</gpxtpx:hr></gpxtpx:TrackPointExtension></extensions>
      </trkpt>
      <trkpt lat="61.1106049752" lon="13.8126602472">
        <ele>436.6</ele>
        <time>2011-05-24T11:26:24Z</time>
        <extensions><gpxtpx:TrackPointExtension><gpxtpx:hr>113</gpxtpx:hr></gpxtpx:TrackPointExtension></extensions>
      </trkpt>
      <trkpt lat="61.1106291151" lon="13.812637197">
        <ele>436.6</ele>
        <time>2011-05-24T11:26:27Z</time>
        <extensions><gpxtpx:TrackPointExtension><gpxtpx:hr>117</gpxtpx:hr></gpxtpx:TrackPointExtension></extensions>
      </trkpt>
      <trkpt lat="61.1106226611" lon="13.8126141468">
        <ele>438.6</ele>
        <time>2011-05-24T11:26:55Z</time>
        <extensions><gpxtpx:TrackPointExtension><gpxtpx:hr>114</gpxtpx:hr></gpxtpx:TrackPointExtension></extensions>
      </trkpt>
      <trkpt lat="61.1106205656" lon="13.8126146497">
        <ele>438.6</ele>
        <time>2011-05-24T11:26:58Z</time>
        <extensions><gpxtpx:TrackPointExtension><gpxtpx:hr>109</gpxtpx:hr></gpxtpx:TrackPointExtension></extensions>
      </trkpt>
      <trkpt lat="61.1106668337" lon="13.8126014901">
        <ele>438.8</ele>
        <time>2011-05-24T11:27:12Z</time>
        <extensions><gpxtpx:TrackPointExtension><gpxtpx:hr>107</gpxtpx:hr></gpxtpx:TrackPointExtension></extensions>
      </trkpt>
      <trkpt lat="61.1107500659" lon="13.812621942">
        <ele>438.8</ele>
        <time>2011-05-24T11:27:20Z</time>
        <extensions><gpxtpx:TrackPointExtension><gpxtpx:hr>108</gpxtpx:hr></gpxtpx:TrackPointExtension></extensions>
      </trkpt>
      <trkpt lat="61.1107630579" lon="13.8126278931">
        <ele>438.8</ele>
        <time>2011-05-24T11:27:22Z</time>
        <extensions><gpxtpx:TrackPointExtension><gpxtpx:hr>107</gpxtpx:hr></gpxtpx:TrackPointExtension></extensions>
      </trkpt>
      <trkpt lat="61.1107811628" lon="13.8126357721">
        <ele>438.8</ele>
        <time>2011-05-24T11:27:28Z</time>
        <extensions><gpxtpx:TrackPointExtension><gpxtpx:hr>106</gpxtpx:hr></gpxtpx:TrackPointExtension></extensions>
      </trkpt>
      <trkpt lat="61.1108035425" lon="13.8127023244">
        <ele>438.8</ele>
        <time>2011-05-24T11:27:32Z</time>
        <extensions><gpxtpx:TrackPointExtension><gpxtpx:hr>107</gpxtpx:hr></gpxtpx:TrackPointExtension></extensions>
      </trkpt>
      <trkpt lat="61.1108279338" lon="13.8129573856">
        <ele>438.8</ele>
        <time>2011-05-24T11:27:37Z</time>
        <extensions><gpxtpx:TrackPointExtension><gpxtpx:hr>110</gpxtpx:hr></gpxtpx:TrackPointExtension></extensions>
      </trkpt>
      <trkpt lat="61.1108686698" lon="13.8132526799">
        <ele>438.8</ele>
        <time>2011-05-24T11:27:41Z</time>
        <extensions><gpxtpx:TrackPointExtension><gpxtpx:hr>124</gpxtpx:hr></gpxtpx:TrackPointExtension></extensions>
      </trkpt>
      <trkpt lat="61.1108791472" lon="13.8133395164">
        <ele>438.8</ele>
        <time>2011-05-24T11:27:42Z</time>
        <extensions><gpxtpx:TrackPointExtension><gpxtpx:hr>129</gpxtpx:hr></gpxtpx:TrackPointExtension></extensions>
      </trkpt>
      <trkpt lat="61.1108885349" lon="13.8134266044">
        <ele>438.8</ele>
        <time>2011-05-24T11:27:43Z</time>
        <extensions><gpxtpx:TrackPointExtension><gpxtpx:hr>129</gpxtpx:hr></gpxtpx:TrackPointExtension></extensions>
      </trkpt>
      <trkpt lat="61.1109249124" lon="13.8138016106">
        <ele>438.8</ele>
        <time>2011-05-24T11:27:48Z</time>
        <extensions><gpxtpx:TrackPointExtension><gpxtpx:hr>126</gpxtpx:hr></gpxtpx:TrackPointExtension></extensions>
      </trkpt>
      <trkpt lat="61.1109555901" lon="13.8141568355">
        <ele>438.8</ele>
        <time>2011-05-24T11:27:53Z</time>
        <extensions><gpxtpx:TrackPointExtension><gpxtpx:hr>120</gpxtpx:hr></gpxtpx:TrackPointExtension></extensions>
      </trkpt>
      <trkpt lat="61.110981574" lon="13.814583558">
        <ele>438.8</ele>
        <time>2011-05-24T11:27:58Z</time>
        <extensions><gpxtpx:TrackPointExtension><gpxtpx:hr>124</gpxtpx:hr></gpxtpx:TrackPointExtension></extensions>
      </trkpt>
      <trkpt lat="61.110980652" lon="13.8146824644">
        <ele>438.8</ele>
        <time>2011-05-24T11:27:59Z</time>
        <extensions><gpxtpx:TrackPointExtension><gpxtpx:hr>124</gpxtpx:hr></gpxtpx:TrackPointExtension></extensions>
      </trkpt>
      <trkpt lat="61.1109750361" lon="13.8147847236">
        <ele>438.8</ele>
        <time>2011-05-24T11:28:00Z</time>
        <extensions><gpxtpx:TrackPointExtension><gpxtpx:hr>124</gpxtpx:hr></gpxtpx:TrackPointExtension></extensions>
      </trkpt>
      <trkpt lat="61.1108988447" lon="13.8151831153">
        <ele>438.8</ele>
        <time>2011-05-24T11:28:04Z</time>
        <extensions><gpxtpx:TrackPointExtension><gpxtpx:hr>120</gpxtpx:hr></gpxtpx:TrackPointExtension></extensions>
      </trkpt>
      <trkpt lat="61.1108326277" lon="13.8153407789">
        <ele>438.6</ele>
        <time>2011-05-24T11:28:06Z</time>
        <extensions><gpxtpx:TrackPointExtension><gpxtpx:hr>114</gpxtpx:hr></gpxtpx:TrackPointExtension></extensions>
      </trkpt>
      <trkpt lat="61.1107500659" lon="13.8154808404">
        <ele>438.2</ele>
        <time>2011-05-24T11:28:08Z</time>
        <extensions><gpxtpx:TrackPointExtension><gpxtpx:hr>111</gpxtpx:hr></gpxtpx:TrackPointExtension></extensions>
      </trkpt>
      <trkpt lat="61.1105198151" lon="13.8157831755">
        <ele>437.6</ele>
        <time>2011-05-24T11:28:13Z</time>
        <extensions><gpxtpx:TrackPointExtension><gpxtpx:hr>103</gpxtpx:hr></gpxtpx:TrackPointExtension></extensions>
      </trkpt>
      <trkpt lat="61.1103691924" lon="13.8159906276">
        <ele>436.8</ele>
        <time>2011-05-24T11:28:16Z</time>
        <extensions><gpxtpx:TrackPointExtension><gpxtpx:hr>99</gpxtpx:hr></gpxtpx:TrackPointExtension></extensions>
      </trkpt>
      <trkpt lat="61.1102215033" lon="13.8162110715">
        <ele>436.2</ele>
        <time>2011-05-24T11:28:19Z</time>
        <extensions><gpxtpx:TrackPointExtension><gpxtpx:hr>98</gpxtpx:hr></gpxtpx:TrackPointExtension></extensions>
      </trkpt>
      <trkpt lat="61.1101659313" lon="13.8163352913">
        <ele>436</ele>
        <time>2011-05-24T11:28:20Z</time>
        <extensions><gpxtpx:TrackPointExtension><gpxtpx:hr>99</gpxtpx:hr></gpxtpx:TrackPointExtension></extensions>
      </trkpt>
      <trkpt lat="61.1100763288" lon="13.8167819627">
        <ele>435</ele>
        <time>2011-05-24T11:28:23Z</time>
        <extensions><gpxtpx:TrackPointExtension><gpxtpx:hr>101</gpxtpx:hr></gpxtpx:TrackPointExtension></extensions>
      </trkpt>
      <trkpt lat="61.1100718864" lon="13.8171376068">
        <ele>434.4</ele>
        <time>2011-05-24T11:28:25Z</time>
        <extensions><gpxtpx:TrackPointExtension><gpxtpx:hr>102</gpxtpx:hr></gpxtpx:TrackPointExtension></extensions>
      </trkpt>
      <trkpt lat="61.1100972836" lon="13.8177105934">
        <ele>433.2</ele>
        <time>2011-05-24T11:28:28Z</time>
        <extensions><gpxtpx:TrackPointExtension><gpxtpx:hr>102</gpxtpx:hr></gpxtpx:TrackPointExtension></extensions>
      </trkpt>
      <trkpt lat="61.110116981" lon="13.8180976696">
        <ele>432.6</ele>
        <time>2011-05-24T11:28:30Z</time>
        <extensions><gpxtpx:TrackPointExtension><gpxtpx:hr>102</gpxtpx:hr></gpxtpx:TrackPointExtension></extensions>
      </trkpt>
      <trkpt lat="61.1101359241" lon="13.8185025154">
        <ele>431.6</ele>
        <time>2011-05-24T11:28:32Z</time>
        <extensions><gpxtpx:TrackPointExtension><gpxtpx:hr>102</gpxtpx:hr></gpxtpx:TrackPointExtension></extensions>
      </trkpt>
      <trkpt lat="61.1101599802" lon="13.8188936148">
        <ele>431</ele>
        <time>2011-05-24T11:28:34Z</time>
        <extensions><gpxtpx:TrackPointExtension><gpxtpx:hr>101</gpxtpx:hr></gpxtpx:TrackPointExtension></extensions>
      </trkpt>
      <trkpt lat="61.1101759896" lon="13.8190827105">
        <ele>430.6</ele>
        <time>2011-05-24T11:28:35Z</time>
        <extensions><gpxtpx:TrackPointExtension><gpxtpx:hr>101</gpxtpx:hr></gpxtpx:TrackPointExtension></extensions>
      </trkpt>
      <trkpt lat="61.1103202421" lon="13.8197538492">
        <ele>428.8</ele>
        <time>2011-05-24T11:28:39Z</time>
        <extensions><gpxtpx:TrackPointExtension><gpxtpx:hr>98</gpxtpx:hr></gpxtpx:TrackPointExtension></extensions>
      </trkpt>
      <trkpt lat="61.1103606429" lon="13.8198963415">
        <ele>428.4</ele>
        <time>2011-05-24T11:28:40Z</time>
        <extensions><gpxtpx:TrackPointExtension><gpxtpx:hr>98</gpxtpx:hr></gpxtpx:TrackPointExtension></extensions>
      </trkpt>
      <trkpt lat="61.110503219" lon="13.8204866787">
        <ele>426.8</ele>
        <time>2011-05-24T11:28:44Z</time>
        <extensions><gpxtpx:TrackPointExtension><gpxtpx:hr>98</gpxtpx:hr></gpxtpx:TrackPointExtension></extensions>
      </trkpt>
      <trkpt lat="61.1105750519" lon="13.8208201945">
        <ele>425.8</ele>
        <time>2011-05-24T11:28:47Z</time>
        <extensions><gpxtpx:TrackPointExtension><gpxtpx:hr>98</gpxtpx:hr></gpxtpx:TrackPointExtension></extensions>
      </trkpt>
      <trkpt lat="61.1107371578" lon="13.8211084481">
        <ele>424</ele>
        <time>2011-05-24T11:28:52Z</time>
        <extensions><gpxtpx:TrackPointExtension><gpxtpx:hr>97</gpxtpx:hr></gpxtpx:TrackPointExtension></extensions>
      </trkpt>
      <trkpt lat="61.1108332982" lon="13.821101994">
        <ele>423.4</ele>
        <time>2011-05-24T11:28:54Z</time>
        <extensions><gpxtpx:TrackPointExtension><gpxtpx:hr>99</gpxtpx:hr></gpxtpx:TrackPointExtension></extensions>
      </trkpt>
      <trkpt lat="61.1110006009" lon="13.8210419796">
        <ele>422.4</ele>
        <time>2011-05-24T11:28:58Z</time>
        <extensions><gpxtpx:TrackPointExtension><gpxtpx:hr>104</gpxtpx:hr></gpxtpx:TrackPointExtension></extensions>
      </trkpt>
      <trkpt lat="61.111139489" lon="13.8209885031">
        <ele>421</ele>
        <time>2011-05-24T11:29:03Z</time>
        <extensions><gpxtpx:TrackPointExtension><gpxtpx:hr>109</gpxtpx:hr></gpxtpx:TrackPointExtension></extensions>
      </trkpt>
      <trkpt lat="61.1113169338" lon="13.8209236272">
        <ele>420.2</ele>
        <time>2011-05-24T11:29:08Z</time>
        <extensions><gpxtpx:TrackPointExtension><gpxtpx:hr>113</gpxtpx:hr></gpxtpx:TrackPointExtension></extensions>
      </trkpt>
      <trkpt lat="61.1114699873" lon="13.8208733358">
        <ele>419.8</ele>
        <time>2011-05-24T11:29:12Z</time>
        <extensions><gpxtpx:TrackPointExtension><gpxtpx:hr>118</gpxtpx:hr></gpxtpx:TrackPointExtension></extensions>
      </trkpt>
      <trkpt lat="61.1116591668" lon="13.8208419037">
        <ele>419.4</ele>
        <time>2011-05-24T11:29:18Z</time>
        <extensions><gpxtpx:TrackPointExtension><gpxtpx:hr>122</gpxtpx:hr></gpxtpx:TrackPointExtension></extensions>
      </trkpt>
      <trkpt lat="61.111873492" lon="13.8209053546">
        <ele>419.2</ele>
        <time>2011-05-24T11:29:25Z</time>
        <extensions><gpxtpx:TrackPointExtension><gpxtpx:hr>126</gpxtpx:hr></gpxtpx:TrackPointExtension></extensions>
      </trkpt>
      <trkpt lat="61.1120570556" lon="13.8210118886">
        <ele>419.2</ele>
        <time>2011-05-24T11:29:31Z</time>
        <extensions><gpxtpx:TrackPointExtension><gpxtpx:hr>130</gpxtpx:hr></gpxtpx:TrackPointExtension></extensions>
      </trkpt>
      <trkpt lat="61.112249504" lon="13.8211185064">
        <ele>419</ele>
        <time>2011-05-24T11:29:38Z</time>
        <extensions><gpxtpx:TrackPointExtension><gpxtpx:hr>134</gpxtpx:hr></gpxtpx:TrackPointExtension></extensions>
      </trkpt>
      <trkpt lat="61.1124364204" lon="13.8212174128">
        <ele>419</ele>
        <time>2011-05-24T11:29:45Z</time>
        <extensions><gpxtpx:TrackPointExtension><gpxtpx:hr>135</gpxtpx:hr></gpxtpx:TrackPointExtension></extensions>
      </trkpt>
      <trkpt lat="61.112585702" lon="13.8212820372">
        <ele>419</ele>
        <time>2011-05-24T11:29:51Z</time>
        <extensions><gpxtpx:TrackPointExtension><gpxtpx:hr>136</gpxtpx:hr></gpxtpx:TrackPointExtension></extensions>
      </trkpt>
      <trkpt lat="61.1127215726" lon="13.8212920955">
        <ele>419</ele>
        <time>2011-05-24T11:29:56Z</time>
        <extensions><gpxtpx:TrackPointExtension><gpxtpx:hr>136</gpxtpx:hr></gpxtpx:TrackPointExtension></extensions>
      </trkpt>
      <trkpt lat="61.112892731" lon="13.8212829592">
        <ele>419.6</ele>
        <time>2011-05-24T11:30:02Z</time>
        <extensions><gpxtpx:TrackPointExtension><gpxtpx:hr>136</gpxtpx:hr></gpxtpx:TrackPointExtension></extensions>
      </trkpt>
      <trkpt lat="61.1130748697" lon="13.8212879884">
        <ele>420.4</ele>
        <time>2011-05-24T11:30:09Z</time>
        <extensions><gpxtpx:TrackPointExtension><gpxtpx:hr>137</gpxtpx:hr></gpxtpx:TrackPointExtension></extensions>
      </trkpt>
      <trkpt lat="61.113225241" lon="13.8212553828">
        <ele>420.8</ele>
        <time>2011-05-24T11:30:16Z</time>
        <extensions><gpxtpx:TrackPointExtension><gpxtpx:hr>137</gpxtpx:hr></gpxtpx:TrackPointExtension></extensions>
      </trkpt>
      <trkpt lat="61.1133216329" lon="13.8212509404">
        <ele>421.6</ele>
        <time>2011-05-24T11:30:20Z</time>
        <extensions><gpxtpx:TrackPointExtension><gpxtpx:hr>138</gpxtpx:hr></gpxtpx:TrackPointExtension></extensions>
      </trkpt>
      <trkpt lat="61.1135041906" lon="13.8212542931">
        <ele>422.4</ele>
        <time>2011-05-24T11:30:27Z</time>
        <extensions><gpxtpx:TrackPointExtension><gpxtpx:hr>138</gpxtpx:hr></gpxtpx:TrackPointExtension></extensions>
      </trkpt>
      <trkpt lat="61.1136200285" lon="13.8212349309">
        <ele>422.6</ele>
        <time>2011-05-24T11:30:31Z</time>
        <extensions><gpxtpx:TrackPointExtension><gpxtpx:hr>137</gpxtpx:hr></gpxtpx:TrackPointExtension></extensions>
      </trkpt>
      <trkpt lat="61.1137815477" lon="13.8212250403">
        <ele>422.8</ele>
        <time>2011-05-24T11:30:37Z</time>
        <extensions><gpxtpx:TrackPointExtension><gpxtpx:hr>136</gpxtpx:hr></gpxtpx:TrackPointExtension></extensions>
      </trkpt>
      <trkpt lat="61.1139413067" lon="13.8212275549">
        <ele>423.6</ele>
        <time>2011-05-24T11:30:44Z</time>
        <extensions><gpxtpx:TrackPointExtension><gpxtpx:hr>136</gpxtpx:hr></gpxtpx:TrackPointExtension></extensions>
      </trkpt>
      <trkpt lat="61.1141021554" lon="13.8211875732">
        <ele>424.4</ele>
        <time>2011-05-24T11:30:50Z</time>
        <extensions><gpxtpx:TrackPointExtension><gpxtpx:hr>137</gpxtpx:hr></gpxtpx:TrackPointExtension></extensions>
      </trkpt>
      <trkpt lat="61.1142989624" lon="13.8211157403">
        <ele>425</ele>
        <time>2011-05-24T11:30:57Z</time>
        <extensions><gpxtpx:TrackPointExtension><gpxtpx:hr>137</gpxtpx:hr></gpxtpx:TrackPointExtension></extensions>
      </trkpt>
      <trkpt lat="61.1144805982" lon="13.8210379563">
        <ele>426</ele>
        <time>2011-05-24T11:31:03Z</time>
        <extensions><gpxtpx:TrackPointExtension><gpxtpx:hr>136</gpxtpx:hr></gpxtpx:TrackPointExtension></extensions>
      </trkpt>
      <trkpt lat="61.1146660058" lon="13.8209630221">
        <ele>426.6</ele>
        <time>2011-05-24T11:31:09Z</time>
        <extensions><gpxtpx:TrackPointExtension><gpxtpx:hr>136</gpxtpx:hr></gpxtpx:TrackPointExtension></extensions>
      </trkpt>
      <trkpt lat="61.1148560235" lon="13.8208764371">
        <ele>427.8</ele>
        <time>2011-05-24T11:31:15Z</time>
        <extensions><gpxtpx:TrackPointExtension><gpxtpx:hr>137</gpxtpx:hr></gpxtpx:TrackPointExtension></extensions>
      </trkpt>
      <trkpt lat="61.1150609609" lon="13.8207970605">
        <ele>428.4</ele>
        <time>2011-05-24T11:31:20Z</time>
        <extensions><gpxtpx:TrackPointExtension><gpxtpx:hr>138</gpxtpx:hr></gpxtpx:TrackPointExtension></extensions>
      </trkpt>
      <trkpt lat="61.1152862664" lon="13.8207520497">
        <ele>428.8</ele>
        <time>2011-05-24T11:31:24Z</time>
        <extensions><gpxtpx:TrackPointExtension><gpxtpx:hr>136</gpxtpx:hr></gpxtpx:TrackPointExtension></extensions>
      </trkpt>
      <trkpt lat="61.1154818999" lon="13.8207440031">
        <ele>429.4</ele>
        <time>2011-05-24T11:31:27Z</time>
        <extensions><gpxtpx:TrackPointExtension><gpxtpx:hr>135</gpxtpx:hr></gpxtpx:TrackPointExtension></extensions>
      </trkpt>
      <trkpt lat="61.1156656312" lon="13.82074635">
        <ele>429.8</ele>
        <time>2011-05-24T11:31:30Z</time>
        <extensions><gpxtpx:TrackPointExtension><gpxtpx:hr>135</gpxtpx:hr></gpxtpx:TrackPointExtension></extensions>
      </trkpt>
      <trkpt lat="61.1158855722" lon="13.8207534746">
        <ele>430.4</ele>
        <time>2011-05-24T11:31:34Z</time>
        <extensions><gpxtpx:TrackPointExtension><gpxtpx:hr>135</gpxtpx:hr></gpxtpx:TrackPointExtension></extensions>
      </trkpt>
      <trkpt lat="61.1161038369" lon="13.8207482778">
        <ele>430.8</ele>
        <time>2011-05-24T11:31:38Z</time>
        <extensions><gpxtpx:TrackPointExtension><gpxtpx:hr>135</gpxtpx:hr></gpxtpx:TrackPointExtension></extensions>
      </trkpt>
      <trkpt lat="61.1163317408" lon="13.8207450927">
        <ele>431</ele>
        <time>2011-05-24T11:31:42Z</time>
        <extensions><gpxtpx:TrackPointExtension><gpxtpx:hr>134</gpxtpx:hr></gpxtpx:TrackPointExtension></extensions>
      </trkpt>
      <trkpt lat="61.1165489996" lon="13.8207441707">
        <ele>431</ele>
        <time>2011-05-24T11:31:46Z</time>
        <extensions><gpxtpx:TrackPointExtension><gpxtpx:hr>135</gpxtpx:hr></gpxtpx:TrackPointExtension></extensions>
      </trkpt>
      <trkpt lat="61.1165992072" lon="13.8207378005">
        <ele>431.2</ele>
        <time>2011-05-24T11:31:47Z</time>
        <extensions><gpxtpx:TrackPointExtension><gpxtpx:hr>135</gpxtpx:hr></gpxtpx:TrackPointExtension></extensions>
      </trkpt>
      <trkpt lat="61.116799367" lon="13.8207311788">
        <ele>431.2</ele>
        <time>2011-05-24T11:31:51Z</time>
        <extensions><gpxtpx:TrackPointExtension><gpxtpx:hr>135</gpxtpx:hr></gpxtpx:TrackPointExtension></extensions>
      </trkpt>
      <trkpt lat="61.1169392609" lon="13.820727826">
        <ele>431.2</ele>
        <time>2011-05-24T11:31:54Z</time>
        <extensions><gpxtpx:TrackPointExtension><gpxtpx:hr>136</gpxtpx:hr></gpxtpx:TrackPointExtension></extensions>
      </trkpt>
      <trkpt lat="61.1171669971" lon="13.8207703222">
        <ele>431.2</ele>
        <time>2011-05-24T11:31:59Z</time>
        <extensions><gpxtpx:TrackPointExtension><gpxtpx:hr>137</gpxtpx:hr></gpxtpx:TrackPointExtension></extensions>
      </trkpt>
      <trkpt lat="61.1173484653" lon="13.8208038498">
        <ele>431.8</ele>
        <time>2011-05-24T11:32:03Z</time>
        <extensions><gpxtpx:TrackPointExtension><gpxtpx:hr>137</gpxtpx:hr></gpxtpx:TrackPointExtension></extensions>
      </trkpt>
      <trkpt lat="61.1175331185" lon="13.820846849">
        <ele>432.4</ele>
        <time>2011-05-24T11:32:07Z</time>
        <extensions><gpxtpx:TrackPointExtension><gpxtpx:hr>134</gpxtpx:hr></gpxtpx:TrackPointExtension></extensions>
      </trkpt>
      <trkpt lat="61.1175796381" lon="13.8208614335">
        <ele>432.4</ele>
        <time>2011-05-24T11:32:08Z</time>
        <extensions><gpxtpx:TrackPointExtension><gpxtpx:hr>134</gpxtpx:hr></gpxtpx:TrackPointExtension></extensions>
      </trkpt>
      <trkpt lat="61.1176598528" lon="13.8209094618">
        <ele>432.6</ele>
        <time>2011-05-24T11:32:10Z</time>
        <extensions><gpxtpx:TrackPointExtension><gpxtpx:hr>133</gpxtpx:hr></gpxtpx:TrackPointExtension></extensions>
      </trkpt>
      <trkpt lat="61.1176996669" lon="13.8212724819">
        <ele>433</ele>
        <time>2011-05-24T11:32:14Z</time>
        <extensions><gpxtpx:TrackPointExtension><gpxtpx:hr>132</gpxtpx:hr></gpxtpx:TrackPointExtension></extensions>
      </trkpt>
      <trkpt lat="61.1176935481" lon="13.8213712206">
        <ele>433</ele>
        <time>2011-05-24T11:32:15Z</time>
        <extensions><gpxtpx:TrackPointExtension><gpxtpx:hr>132</gpxtpx:hr></gpxtpx:TrackPointExtension></extensions>
      </trkpt>
      <trkpt lat="61.1176628703" lon="13.8219297905">
        <ele>433.4</ele>
        <time>2011-05-24T11:32:20Z</time>
        <extensions><gpxtpx:TrackPointExtension><gpxtpx:hr>130</gpxtpx:hr></gpxtpx:TrackPointExtension></extensions>
      </trkpt>
      <trkpt lat="61.117636635" lon="13.8224197963">
        <ele>434.2</ele>
        <time>2011-05-24T11:32:24Z</time>
        <extensions><gpxtpx:TrackPointExtension><gpxtpx:hr>126</gpxtpx:hr></gpxtpx:TrackPointExtension></extensions>
      </trkpt>
      <trkpt lat="61.1176038617" lon="13.8229013365">
        <ele>434.6</ele>
        <time>2011-05-24T11:32:28Z</time>
        <extensions><gpxtpx:TrackPointExtension><gpxtpx:hr>123</gpxtpx:hr></gpxtpx:TrackPointExtension></extensions>
      </trkpt>
      <trkpt lat="61.117561617" lon="13.8233613352">
        <ele>434.8</ele>
        <time>2011-05-24T11:32:32Z</time>
        <extensions><gpxtpx:TrackPointExtension><gpxtpx:hr>121</gpxtpx:hr></gpxtpx:TrackPointExtension></extensions>
      </trkpt>
      <trkpt lat="61.1175266644" lon="13.8237375986">
        <ele>435</ele>
        <time>2011-05-24T11:32:35Z</time>
        <extensions><gpxtpx:TrackPointExtension><gpxtpx:hr>119</gpxtpx:hr></gpxtpx:TrackPointExtension></extensions>
      </trkpt>
      <trkpt lat="61.1174885268" lon="13.8241167958">
        <ele>435.2</ele>
        <time>2011-05-24T11:32:38Z</time>
        <extensions><gpxtpx:TrackPointExtension><gpxtpx:hr>119</gpxtpx:hr></gpxtpx:TrackPointExtension></extensions>
      </trkpt>
      <trkpt lat="61.1174501377" lon="13.8244898742">
        <ele>435.2</ele>
        <time>2011-05-24T11:32:41Z</time>
        <extensions><gpxtpx:TrackPointExtension><gpxtpx:hr>119</gpxtpx:hr></gpxtpx:TrackPointExtension></extensions>
      </trkpt>
      <trkpt lat="61.1174095693" lon="13.8248671435">
        <ele>435.4</ele>
        <time>2011-05-24T11:32:44Z</time>
        <extensions><gpxtpx:TrackPointExtension><gpxtpx:hr>120</gpxtpx:hr></gpxtpx:TrackPointExtension></extensions>
      </trkpt>
      <trkpt lat="61.1173731919" lon="13.8252558122">
        <ele>435.4</ele>
        <time>2011-05-24T11:32:47Z</time>
        <extensions><gpxtpx:TrackPointExtension><gpxtpx:hr>120</gpxtpx:hr></gpxtpx:TrackPointExtension></extensions>
      </trkpt>
      <trkpt lat="61.1173191286" lon="13.8256526952">
        <ele>435.4</ele>
        <time>2011-05-24T11:32:50Z</time>
        <extensions><gpxtpx:TrackPointExtension><gpxtpx:hr>118</gpxtpx:hr></gpxtpx:TrackPointExtension></extensions>
      </trkpt>
      <trkpt lat="61.1172410093" lon="13.8260794177">
        <ele>435.4</ele>
        <time>2011-05-24T11:32:53Z</time>
        <extensions><gpxtpx:TrackPointExtension><gpxtpx:hr>117</gpxtpx:hr></gpxtpx:TrackPointExtension></extensions>
      </trkpt>
      <trkpt lat="61.1171352297" lon="13.826534471">
        <ele>435.4</ele>
        <time>2011-05-24T11:32:56Z</time>
        <extensions><gpxtpx:TrackPointExtension><gpxtpx:hr>116</gpxtpx:hr></gpxtpx:TrackPointExtension></extensions>
      </trkpt>
      <trkpt lat="61.1170003649" lon="13.8270055338">
        <ele>435.4</ele>
        <time>2011-05-24T11:32:59Z</time>
        <extensions><gpxtpx:TrackPointExtension><gpxtpx:hr>114</gpxtpx:hr></gpxtpx:TrackPointExtension></extensions>
      </trkpt>
      <trkpt lat="61.116898441" lon="13.8273253033">
        <ele>435.2</ele>
        <time>2011-05-24T11:33:01Z</time>
        <extensions><gpxtpx:TrackPointExtension><gpxtpx:hr>112</gpxtpx:hr></gpxtpx:TrackPointExtension></extensions>
      </trkpt>
      <trkpt lat="61.1167844472" lon="13.8276438993">
        <ele>434.8</ele>
        <time>2011-05-24T11:33:03Z</time>
        <extensions><gpxtpx:TrackPointExtension><gpxtpx:hr>111</gpxtpx:hr></gpxtpx:TrackPointExtension></extensions>
      </trkpt>
      <trkpt lat="61.1166658433" lon="13.8279712125">
        <ele>434.6</ele>
        <time>2011-05-24T11:33:05Z</time>
        <extensions><gpxtpx:TrackPointExtension><gpxtpx:hr>109</gpxtpx:hr></gpxtpx:TrackPointExtension></extensions>
      </trkpt>
      <trkpt lat="61.1165448087" lon="13.8283012917">
        <ele>433.8</ele>
        <time>2011-05-24T11:33:07Z</time>
        <extensions><gpxtpx:TrackPointExtension><gpxtpx:hr>103</gpxtpx:hr></gpxtpx:TrackPointExtension></extensions>
      </trkpt>
      <trkpt lat="61.1164246961" lon="13.8286291078">
        <ele>433.2</ele>
        <time>2011-05-24T11:33:09Z</time>
        <extensions><gpxtpx:TrackPointExtension><gpxtpx:hr>103</gpxtpx:hr></gpxtpx:TrackPointExtension></extensions>
      </trkpt>
      <trkpt lat="61.1163144741" lon="13.8289316944">
        <ele>432.6</ele>
        <time>2011-05-24T11:33:11Z</time>
        <extensions><gpxtpx:TrackPointExtension><gpxtpx:hr>107</gpxtpx:hr></gpxtpx:TrackPointExtension></extensions>
      </trkpt>
      <trkpt lat="61.116201067" lon="13.829264875">
        <ele>431.8</ele>
        <time>2011-05-24T11:33:13Z</time>
        <extensions><gpxtpx:TrackPointExtension><gpxtpx:hr>111</gpxtpx:hr></gpxtpx:TrackPointExtension></extensions>
      </trkpt>
      <trkpt lat="61.115997303" lon="13.8298463274">
        <ele>430.8</ele>
        <time>2011-05-24T11:33:17Z</time>
        <extensions><gpxtpx:TrackPointExtension><gpxtpx:hr>112</gpxtpx:hr></gpxtpx:TrackPointExtension></extensions>
      </trkpt>
      <trkpt lat="61.1158442495" lon="13.8302690266">
        <ele>429.6</ele>
        <time>2011-05-24T11:33:20Z</time>
        <extensions><gpxtpx:TrackPointExtension><gpxtpx:hr>113</gpxtpx:hr></gpxtpx:TrackPointExtension></extensions>
      </trkpt>
      <trkpt lat="61.1156945487" lon="13.8306794882">
        <ele>428.8</ele>
        <time>2011-05-24T11:33:23Z</time>
        <extensions><gpxtpx:TrackPointExtension><gpxtpx:hr>114</gpxtpx:hr></gpxtpx:TrackPointExtension></extensions>
      </trkpt>
      <trkpt lat="61.1155389807" lon="13.8310681569">
        <ele>428.2</ele>
        <time>2011-05-24T11:33:26Z</time>
        <extensions><gpxtpx:TrackPointExtension><gpxtpx:hr>115</gpxtpx:hr></gpxtpx:TrackPointExtension></extensions>
      </trkpt>
      <trkpt lat="61.1154820676" lon="13.8311967353">
        <ele>428.2</ele>
        <time>2011-05-24T11:33:27Z</time>
        <extensions><gpxtpx:TrackPointExtension><gpxtpx:hr>115</gpxtpx:hr></gpxtpx:TrackPointExtension></extensions>
      </trkpt>
      <trkpt lat="61.1151982564" lon="13.8316395511">
        <ele>426.8</ele>
        <time>2011-05-24T11:33:31Z</time>
        <extensions><gpxtpx:TrackPointExtension><gpxtpx:hr>117</gpxtpx:hr></gpxtpx:TrackPointExtension></extensions>
      </trkpt>
      <trkpt lat="61.1149640662" lon="13.8319075204">
        <ele>426.2</ele>
        <time>2011-05-24T11:33:34Z</time>
        <extensions><gpxtpx:TrackPointExtension><gpxtpx:hr>118</gpxtpx:hr></gpxtpx:TrackPointExtension></extensions>
      </trkpt>
      <trkpt lat="61.1147535967" lon="13.8322191594">
        <ele>425.8</ele>
        <time>2011-05-24T11:33:37Z</time>
        <extensions><gpxtpx:TrackPointExtension><gpxtpx:hr>117</gpxtpx:hr></gpxtpx:TrackPointExtension></extensions>
      </trkpt>
      <trkpt lat="61.1145826059" lon="13.8325753064">
        <ele>425.2</ele>
        <time>2011-05-24T11:33:40Z</time>
        <extensions><gpxtpx:TrackPointExtension><gpxtpx:hr>117</gpxtpx:hr></gpxtpx:TrackPointExtension></extensions>
      </trkpt>
      <trkpt lat="61.1144262835" lon="13.8329495582">
        <ele>424.4</ele>
        <time>2011-05-24T11:33:43Z</time>
        <extensions><gpxtpx:TrackPointExtension><gpxtpx:hr>117</gpxtpx:hr></gpxtpx:TrackPointExtension></extensions>
      </trkpt>
      <trkpt lat="61.1142771695" lon="13.8333065433">
        <ele>423.8</ele>
        <time>2011-05-24T11:33:46Z</time>
        <extensions><gpxtpx:TrackPointExtension><gpxtpx:hr>119</gpxtpx:hr></gpxtpx:TrackPointExtension></extensions>
      </trkpt>
      <trkpt lat="61.1141485911" lon="13.8336531349">
        <ele>423.4</ele>
        <time>2011-05-24T11:33:49Z</time>
        <extensions><gpxtpx:TrackPointExtension><gpxtpx:hr>121</gpxtpx:hr></gpxtpx:TrackPointExtension></extensions>
      </trkpt>
      <trkpt lat="61.1140196775" lon="13.8340300689">
        <ele>423.2</ele>
        <time>2011-05-24T11:33:52Z</time>
        <extensions><gpxtpx:TrackPointExtension><gpxtpx:hr>122</gpxtpx:hr></gpxtpx:TrackPointExtension></extensions>
      </trkpt>
      <trkpt lat="61.1139127244" lon="13.8344163069">
        <ele>423</ele>
        <time>2011-05-24T11:33:55Z</time>
        <extensions><gpxtpx:TrackPointExtension><gpxtpx:hr>123</gpxtpx:hr></gpxtpx:TrackPointExtension></extensions>
      </trkpt>
      <trkpt lat="61.1138163326" lon="13.8348193925">
        <ele>422.8</ele>
        <time>2011-05-24T11:33:58Z</time>
        <extensions><gpxtpx:TrackPointExtension><gpxtpx:hr>123</gpxtpx:hr></gpxtpx:TrackPointExtension></extensions>
      </trkpt>
      <trkpt lat="61.1137121456" lon="13.8352282615">
        <ele>422.8</ele>
        <time>2011-05-24T11:34:01Z</time>
        <extensions><gpxtpx:TrackPointExtension><gpxtpx:hr>126</gpxtpx:hr></gpxtpx:TrackPointExtension></extensions>
      </trkpt>
      <trkpt lat="61.1136677215" lon="13.8353538224">
        <ele>422.6</ele>
        <time>2011-05-24T11:34:02Z</time>
        <extensions><gpxtpx:TrackPointExtension><gpxtpx:hr>126</gpxtpx:hr></gpxtpx:TrackPointExtension></extensions>
      </trkpt>
      <trkpt lat="61.1135695695" lon="13.8355924551">
        <ele>422.6</ele>
        <time>2011-05-24T11:34:04Z</time>
        <extensions><gpxtpx:TrackPointExtension><gpxtpx:hr>128</gpxtpx:hr></gpxtpx:TrackPointExtension></extensions>
      </trkpt>
      <trkpt lat="61.11333035" lon="13.835993529">
        <ele>422.2</ele>
        <time>2011-05-24T11:34:08Z</time>
        <extensions><gpxtpx:TrackPointExtension><gpxtpx:hr>127</gpxtpx:hr></gpxtpx:TrackPointExtension></extensions>
      </trkpt>
      <trkpt lat="61.1131444395" lon="13.836257475">
        <ele>421.6</ele>
        <time>2011-05-24T11:34:11Z</time>
        <extensions><gpxtpx:TrackPointExtension><gpxtpx:hr>126</gpxtpx:hr></gpxtpx:TrackPointExtension></extensions>
      </trkpt>
      <trkpt lat="61.1129516558" lon="13.8365321499">
        <ele>421.4</ele>
        <time>2011-05-24T11:34:14Z</time>
        <extensions><gpxtpx:TrackPointExtension><gpxtpx:hr>126</gpxtpx:hr></gpxtpx:TrackPointExtension></extensions>
      </trkpt>
      <trkpt lat="61.1127586206" lon="13.8368294559">
        <ele>421</ele>
        <time>2011-05-24T11:34:17Z</time>
        <extensions><gpxtpx:TrackPointExtension><gpxtpx:hr>125</gpxtpx:hr></gpxtpx:TrackPointExtension></extensions>
      </trkpt>
      <trkpt lat="61.1123557027" lon="13.8376413267">
        <ele>419.8</ele>
        <time>2011-05-24T11:34:24Z</time>
        <extensions><gpxtpx:TrackPointExtension><gpxtpx:hr>124</gpxtpx:hr></gpxtpx:TrackPointExtension></extensions>
      </trkpt>
      <trkpt lat="61.1122066725" lon="13.8380304145">
        <ele>419.4</ele>
        <time>2011-05-24T11:34:27Z</time>
        <extensions><gpxtpx:TrackPointExtension><gpxtpx:hr>124</gpxtpx:hr></gpxtpx:TrackPointExtension></extensions>
      </trkpt>
      <trkpt lat="61.1120551278" lon="13.8384217654">
        <ele>419</ele>
        <time>2011-05-24T11:34:30Z</time>
        <extensions><gpxtpx:TrackPointExtension><gpxtpx:hr>124</gpxtpx:hr></gpxtpx:TrackPointExtension></extensions>
      </trkpt>
      <trkpt lat="61.1119071034" lon="13.838789647">
        <ele>418.8</ele>
        <time>2011-05-24T11:34:33Z</time>
        <extensions><gpxtpx:TrackPointExtension><gpxtpx:hr>125</gpxtpx:hr></gpxtpx:TrackPointExtension></extensions>
      </trkpt>
      <trkpt lat="61.1117664551" lon="13.8391577801">
        <ele>418.4</ele>
        <time>2011-05-24T11:34:36Z</time>
        <extensions><gpxtpx:TrackPointExtension><gpxtpx:hr>124</gpxtpx:hr></gpxtpx:TrackPointExtension></extensions>
      </trkpt>
      <trkpt lat="61.1116282376" lon="13.8395115801">
        <ele>417.8</ele>
        <time>2011-05-24T11:34:39Z</time>
        <extensions><gpxtpx:TrackPointExtension><gpxtpx:hr>122</gpxtpx:hr></gpxtpx:TrackPointExtension></extensions>
      </trkpt>
      <trkpt lat="61.1114940434" lon="13.8398651286">
        <ele>417.4</ele>
        <time>2011-05-24T11:34:42Z</time>
        <extensions><gpxtpx:TrackPointExtension><gpxtpx:hr>122</gpxtpx:hr></gpxtpx:TrackPointExtension></extensions>
      </trkpt>
      <trkpt lat="61.1114103082" lon="13.84012195">
        <ele>417.2</ele>
        <time>2011-05-24T11:34:44Z</time>
        <extensions><gpxtpx:TrackPointExtension><gpxtpx:hr>121</gpxtpx:hr></gpxtpx:TrackPointExtension></extensions>
      </trkpt>
      <trkpt lat="61.1113109827" lon="13.8407453958">
        <ele>416.8</ele>
        <time>2011-05-24T11:34:48Z</time>
        <extensions><gpxtpx:TrackPointExtension><gpxtpx:hr>120</gpxtpx:hr></gpxtpx:TrackPointExtension></extensions>
      </trkpt>
      <trkpt lat="61.1113053668" lon="13.8409151292">
        <ele>416.8</ele>
        <time>2011-05-24T11:34:49Z</time>
        <extensions><gpxtpx:TrackPointExtension><gpxtpx:hr>119</gpxtpx:hr></gpxtpx:TrackPointExtension></extensions>
      </trkpt>
      <trkpt lat="61.1113023493" lon="13.8414281015">
        <ele>416.6</ele>
        <time>2011-05-24T11:34:52Z</time>
        <extensions><gpxtpx:TrackPointExtension><gpxtpx:hr>119</gpxtpx:hr></gpxtpx:TrackPointExtension></extensions>
      </trkpt>
      <trkpt lat="61.1113057021" lon="13.8418160997">
        <ele>416.4</ele>
        <time>2011-05-24T11:34:54Z</time>
        <extensions><gpxtpx:TrackPointExtension><gpxtpx:hr>120</gpxtpx:hr></gpxtpx:TrackPointExtension></extensions>
      </trkpt>
      <trkpt lat="61.111313162" lon="13.8423797824">
        <ele>415.8</ele>
        <time>2011-05-24T11:34:57Z</time>
        <extensions><gpxtpx:TrackPointExtension><gpxtpx:hr>120</gpxtpx:hr></gpxtpx:TrackPointExtension></extensions>
      </trkpt>
      <trkpt lat="61.1113280818" lon="13.8429172299">
        <ele>415.4</ele>
        <time>2011-05-24T11:35:00Z</time>
        <extensions><gpxtpx:TrackPointExtension><gpxtpx:hr>120</gpxtpx:hr></gpxtpx:TrackPointExtension></extensions>
      </trkpt>
      <trkpt lat="61.1113476116" lon="13.8434356504">
        <ele>415</ele>
        <time>2011-05-24T11:35:03Z</time>
        <extensions><gpxtpx:TrackPointExtension><gpxtpx:hr>121</gpxtpx:hr></gpxtpx:TrackPointExtension></extensions>
      </trkpt>
      <trkpt lat="61.1113526407" lon="13.8439888558">
        <ele>414.2</ele>
        <time>2011-05-24T11:35:06Z</time>
        <extensions><gpxtpx:TrackPointExtension><gpxtpx:hr>121</gpxtpx:hr></gpxtpx:TrackPointExtension></extensions>
      </trkpt>
      <trkpt lat="61.1113691531" lon="13.844486573">
        <ele>413.6</ele>
        <time>2011-05-24T11:35:09Z</time>
        <extensions><gpxtpx:TrackPointExtension><gpxtpx:hr>121</gpxtpx:hr></gpxtpx:TrackPointExtension></extensions>
      </trkpt>
      <trkpt lat="61.1113834023" lon="13.8449674426">
        <ele>413.2</ele>
        <time>2011-05-24T11:35:12Z</time>
        <extensions><gpxtpx:TrackPointExtension><gpxtpx:hr>123</gpxtpx:hr></gpxtpx:TrackPointExtension></extensions>
      </trkpt>
      <trkpt lat="61.1113845758" lon="13.8451268663">
        <ele>413</ele>
        <time>2011-05-24T11:35:13Z</time>
        <extensions><gpxtpx:TrackPointExtension><gpxtpx:hr>123</gpxtpx:hr></gpxtpx:TrackPointExtension></extensions>
      </trkpt>
      <trkpt lat="61.1113689854" lon="13.8456085741">
        <ele>412.8</ele>
        <time>2011-05-24T11:35:16Z</time>
        <extensions><gpxtpx:TrackPointExtension><gpxtpx:hr>123</gpxtpx:hr></gpxtpx:TrackPointExtension></extensions>
      </trkpt>
      <trkpt lat="61.1113240584" lon="13.8460639628">
        <ele>412</ele>
        <time>2011-05-24T11:35:19Z</time>
        <extensions><gpxtpx:TrackPointExtension><gpxtpx:hr>122</gpxtpx:hr></gpxtpx:TrackPointExtension></extensions>
      </trkpt>
      <trkpt lat="61.1112872619" lon="13.8462673077">
        <ele>411.8</ele>
        <time>2011-05-24T11:35:20Z</time>
        <extensions><gpxtpx:TrackPointExtension><gpxtpx:hr>122</gpxtpx:hr></gpxtpx:TrackPointExtension></extensions>
      </trkpt>
      <trkpt lat="61.111235797" lon="13.8464951277">
        <ele>411.4</ele>
        <time>2011-05-24T11:35:22Z</time>
        <extensions><gpxtpx:TrackPointExtension><gpxtpx:hr>121</gpxtpx:hr></gpxtpx:TrackPointExtension></extensions>
      </trkpt>
      <trkpt lat="61.1110815701" lon="13.8469811941">
        <ele>411</ele>
        <time>2011-05-24T11:35:26Z</time>
        <extensions><gpxtpx:TrackPointExtension><gpxtpx:hr>123</gpxtpx:hr></gpxtpx:TrackPointExtension></extensions>
      </trkpt>
      <trkpt lat="61.1109548358" lon="13.8473250196">
        <ele>410.6</ele>
        <time>2011-05-24T11:35:29Z</time>
        <extensions><gpxtpx:TrackPointExtension><gpxtpx:hr>128</gpxtpx:hr></gpxtpx:TrackPointExtension></extensions>
      </trkpt>
      <trkpt lat="61.110836651" lon="13.8476670011">
        <ele>410.6</ele>
        <time>2011-05-24T11:35:32Z</time>
        <extensions><gpxtpx:TrackPointExtension><gpxtpx:hr>132</gpxtpx:hr></gpxtpx:TrackPointExtension></extensions>
      </trkpt>
      <trkpt lat="61.1107465455" lon="13.8480431808">
        <ele>410.4</ele>
        <time>2011-05-24T11:35:35Z</time>
        <extensions><gpxtpx:TrackPointExtension><gpxtpx:hr>134</gpxtpx:hr></gpxtpx:TrackPointExtension></extensions>
      </trkpt>
      <trkpt lat="61.1106697673" lon="13.8484467693">
        <ele>410.2</ele>
        <time>2011-05-24T11:35:38Z</time>
        <extensions><gpxtpx:TrackPointExtension><gpxtpx:hr>137</gpxtpx:hr></gpxtpx:TrackPointExtension></extensions>
      </trkpt>
      <trkpt lat="61.1106029636" lon="13.8488422273">
        <ele>410.2</ele>
        <time>2011-05-24T11:35:41Z</time>
        <extensions><gpxtpx:TrackPointExtension><gpxtpx:hr>137</gpxtpx:hr></gpxtpx:TrackPointExtension></extensions>
      </trkpt>
      <trkpt lat="61.1105464696" lon="13.8493029804">
        <ele>410.2</ele>
        <time>2011-05-24T11:35:45Z</time>
        <extensions><gpxtpx:TrackPointExtension><gpxtpx:hr>136</gpxtpx:hr></gpxtpx:TrackPointExtension></extensions>
      </trkpt>
      <trkpt lat="61.1104976031" lon="13.8497039705">
        <ele>410.4</ele>
        <time>2011-05-24T11:35:49Z</time>
        <extensions><gpxtpx:TrackPointExtension><gpxtpx:hr>134</gpxtpx:hr></gpxtpx:TrackPointExtension></extensions>
      </trkpt>
      <trkpt lat="61.1104700267" lon="13.8499659048">
        <ele>411</ele>
        <time>2011-05-24T11:35:52Z</time>
        <extensions><gpxtpx:TrackPointExtension><gpxtpx:hr>134</gpxtpx:hr></gpxtpx:TrackPointExtension></extensions>
      </trkpt>
      <trkpt lat="61.1105641554" lon="13.8502838303">
        <ele>411.4</ele>
        <time>2011-05-24T11:35:56Z</time>
        <extensions><gpxtpx:TrackPointExtension><gpxtpx:hr>133</gpxtpx:hr></gpxtpx:TrackPointExtension></extensions>
      </trkpt>
      <trkpt lat="61.1106062325" lon="13.8503622849">
        <ele>411.4</ele>
        <time>2011-05-24T11:35:57Z</time>
        <extensions><gpxtpx:TrackPointExtension><gpxtpx:hr>133</gpxtpx:hr></gpxtpx:TrackPointExtension></extensions>
      </trkpt>
      <trkpt lat="61.1107742896" lon="13.8507532167">
        <ele>411.8</ele>
        <time>2011-05-24T11:36:02Z</time>
        <extensions><gpxtpx:TrackPointExtension><gpxtpx:hr>133</gpxtpx:hr></gpxtpx:TrackPointExtension></extensions>
      </trkpt>
      <trkpt lat="61.1109035385" lon="13.851020767">
        <ele>412.6</ele>
        <time>2011-05-24T11:36:06Z</time>
        <extensions><gpxtpx:TrackPointExtension><gpxtpx:hr>132</gpxtpx:hr></gpxtpx:TrackPointExtension></extensions>
      </trkpt>
      <trkpt lat="61.1109744494" lon="13.8511597389">
        <ele>412.8</ele>
        <time>2011-05-24T11:36:08Z</time>
        <extensions><gpxtpx:TrackPointExtension><gpxtpx:hr>133</gpxtpx:hr></gpxtpx:TrackPointExtension></extensions>
      </trkpt>
      <trkpt lat="61.111143177" lon="13.8515424564">
        <ele>413.4</ele>
        <time>2011-05-24T11:36:14Z</time>
        <extensions><gpxtpx:TrackPointExtension><gpxtpx:hr>132</gpxtpx:hr></gpxtpx:TrackPointExtension></extensions>
      </trkpt>
      <trkpt lat="61.1111767885" lon="13.8516135349">
        <ele>413.6</ele>
        <time>2011-05-24T11:36:15Z</time>
        <extensions><gpxtpx:TrackPointExtension><gpxtpx:hr>132</gpxtpx:hr></gpxtpx:TrackPointExtension></extensions>
      </trkpt>
      <trkpt lat="61.1113085519" lon="13.8518874554">
        <ele>413.8</ele>
        <time>2011-05-24T11:36:19Z</time>
        <extensions><gpxtpx:TrackPointExtension><gpxtpx:hr>132</gpxtpx:hr></gpxtpx:TrackPointExtension></extensions>
      </trkpt>
      <trkpt lat="61.1113846596" lon="13.8520182969">
        <ele>413.8</ele>
        <time>2011-05-24T11:36:21Z</time>
        <extensions><gpxtpx:TrackPointExtension><gpxtpx:hr>132</gpxtpx:hr></gpxtpx:TrackPointExtension></extensions>
      </trkpt>
      <trkpt lat="61.1115892618" lon="13.8523736894">
        <ele>414</ele>
        <time>2011-05-24T11:36:27Z</time>
        <extensions><gpxtpx:TrackPointExtension><gpxtpx:hr>133</gpxtpx:hr></gpxtpx:TrackPointExtension></extensions>
      </trkpt>
      <trkpt lat="61.1117406389" lon="13.8525834046">
        <ele>414</ele>
        <time>2011-05-24T11:36:30Z</time>
        <extensions><gpxtpx:TrackPointExtension><gpxtpx:hr>134</gpxtpx:hr></gpxtpx:TrackPointExtension></extensions>
      </trkpt>
      <trkpt lat="61.1119216879" lon="13.8528606778">
        <ele>414</ele>
        <time>2011-05-24T11:36:34Z</time>
        <extensions><gpxtpx:TrackPointExtension><gpxtpx:hr>135</gpxtpx:hr></gpxtpx:TrackPointExtension></extensions>
      </trkpt>
      <trkpt lat="61.1119639327" lon="13.8529282359">
        <ele>414.2</ele>
        <time>2011-05-24T11:36:35Z</time>
        <extensions><gpxtpx:TrackPointExtension><gpxtpx:hr>134</gpxtpx:hr></gpxtpx:TrackPointExtension></extensions>
      </trkpt>
      <trkpt lat="61.1121312354" lon="13.8532489274">
        <ele>414.2</ele>
        <time>2011-05-24T11:36:39Z</time>
        <extensions><gpxtpx:TrackPointExtension><gpxtpx:hr>134</gpxtpx:hr></gpxtpx:TrackPointExtension></extensions>
      </trkpt>
      <trkpt lat="61.1122153059" lon="13.8534311499">
        <ele>414.2</ele>
        <time>2011-05-24T11:36:41Z</time>
        <extensions><gpxtpx:TrackPointExtension><gpxtpx:hr>134</gpxtpx:hr></gpxtpx:TrackPointExtension></extensions>
      </trkpt>
      <trkpt lat="61.1123203311" lon="13.8538857004">
        <ele>413.4</ele>
        <time>2011-05-24T11:36:45Z</time>
        <extensions><gpxtpx:TrackPointExtension><gpxtpx:hr>135</gpxtpx:hr></gpxtpx:TrackPointExtension></extensions>
      </trkpt>
      <trkpt lat="61.1123334907" lon="13.8542663225">
        <ele>413.2</ele>
        <time>2011-05-24T11:36:48Z</time>
        <extensions><gpxtpx:TrackPointExtension><gpxtpx:hr>134</gpxtpx:hr></gpxtpx:TrackPointExtension></extensions>
      </trkpt>
      <trkpt lat="61.1123517632" lon="13.8544852577">
        <ele>413</ele>
        <time>2011-05-24T11:36:50Z</time>
        <extensions><gpxtpx:TrackPointExtension><gpxtpx:hr>133</gpxtpx:hr></gpxtpx:TrackPointExtension></extensions>
      </trkpt>
      <trkpt lat="61.1123899847" lon="13.854681478">
        <ele>412.8</ele>
        <time>2011-05-24T11:36:52Z</time>
        <extensions><gpxtpx:TrackPointExtension><gpxtpx:hr>133</gpxtpx:hr></gpxtpx:TrackPointExtension></extensions>
      </trkpt>
      <trkpt lat="61.1125145397" lon="13.8549624393">
        <ele>412.6</ele>
        <time>2011-05-24T11:36:55Z</time>
        <extensions><gpxtpx:TrackPointExtension><gpxtpx:hr>135</gpxtpx:hr></gpxtpx:TrackPointExtension></extensions>
      </trkpt>
      <trkpt lat="61.1125410265" lon="13.855083893">
        <ele>412.6</ele>
        <time>2011-05-24T11:36:56Z</time>
        <extensions><gpxtpx:TrackPointExtension><gpxtpx:hr>135</gpxtpx:hr></gpxtpx:TrackPointExtension></extensions>
      </trkpt>
      <trkpt lat="61.1126031364" lon="13.8555963624">
        <ele>411.6</ele>
        <time>2011-05-24T11:37:01Z</time>
        <extensions><gpxtpx:TrackPointExtension><gpxtpx:hr>135</gpxtpx:hr></gpxtpx:TrackPointExtension></extensions>
      </trkpt>
      <trkpt lat="61.1126312996" lon="13.855985534">
        <ele>411</ele>
        <time>2011-05-24T11:37:05Z</time>
        <extensions><gpxtpx:TrackPointExtension><gpxtpx:hr>131</gpxtpx:hr></gpxtpx:TrackPointExtension></extensions>
      </trkpt>
      <trkpt lat="61.1126406035" lon="13.8560647429">
        <ele>411</ele>
        <time>2011-05-24T11:37:06Z</time>
        <extensions><gpxtpx:TrackPointExtension><gpxtpx:hr>131</gpxtpx:hr></gpxtpx:TrackPointExtension></extensions>
      </trkpt>
      <trkpt lat="61.1126627317" lon="13.8563609593">
        <ele>410.8</ele>
        <time>2011-05-24T11:37:10Z</time>
        <extensions><gpxtpx:TrackPointExtension><gpxtpx:hr>135</gpxtpx:hr></gpxtpx:TrackPointExtension></extensions>
      </trkpt>
      <trkpt lat="61.1126693534" lon="13.8564314511">
        <ele>410.6</ele>
        <time>2011-05-24T11:37:11Z</time>
        <extensions><gpxtpx:TrackPointExtension><gpxtpx:hr>135</gpxtpx:hr></gpxtpx:TrackPointExtension></extensions>
      </trkpt>
      <trkpt lat="61.1127072396" lon="13.8568338661">
        <ele>410.4</ele>
        <time>2011-05-24T11:37:16Z</time>
        <extensions><gpxtpx:TrackPointExtension><gpxtpx:hr>140</gpxtpx:hr></gpxtpx:TrackPointExtension></extensions>
      </trkpt>
      <trkpt lat="61.1127238357" lon="13.8570641169">
        <ele>410.4</ele>
        <time>2011-05-24T11:37:18Z</time>
        <extensions><gpxtpx:TrackPointExtension><gpxtpx:hr>141</gpxtpx:hr></gpxtpx:TrackPointExtension></extensions>
      </trkpt>
      <trkpt lat="61.1128092473" lon="13.8575169071">
        <ele>410.2</ele>
        <time>2011-05-24T11:37:23Z</time>
        <extensions><gpxtpx:TrackPointExtension><gpxtpx:hr>143</gpxtpx:hr></gpxtpx:TrackPointExtension></extensions>
      </trkpt>
      <trkpt lat="61.1128130192" lon="13.8576099462">
        <ele>410.2</ele>
        <time>2011-05-24T11:37:24Z</time>
        <extensions><gpxtpx:TrackPointExtension><gpxtpx:hr>143</gpxtpx:hr></gpxtpx:TrackPointExtension></extensions>
      </trkpt>
      <trkpt lat="61.1127956686" lon="13.8581281991">
        <ele>410.2</ele>
        <time>2011-05-24T11:37:30Z</time>
        <extensions><gpxtpx:TrackPointExtension><gpxtpx:hr>144</gpxtpx:hr></gpxtpx:TrackPointExtension></extensions>
      </trkpt>
      <trkpt lat="61.1127761388" lon="13.8585401695">
        <ele>410.2</ele>
        <time>2011-05-24T11:37:35Z</time>
        <extensions><gpxtpx:TrackPointExtension><gpxtpx:hr>147</gpxtpx:hr></gpxtpx:TrackPointExtension></extensions>
      </trkpt>
      <trkpt lat="61.1127646556" lon="13.8588975737">
        <ele>410.2</ele>
        <time>2011-05-24T11:37:41Z</time>
        <extensions><gpxtpx:TrackPointExtension><gpxtpx:hr>150</gpxtpx:hr></gpxtpx:TrackPointExtension></extensions>
      </trkpt>
      <trkpt lat="61.112771864" lon="13.8591911078">
        <ele>410.2</ele>
        <time>2011-05-24T11:37:47Z</time>
        <extensions><gpxtpx:TrackPointExtension><gpxtpx:hr>152</gpxtpx:hr></gpxtpx:TrackPointExtension></extensions>
      </trkpt>
      <trkpt lat="61.1127735404" lon="13.8594005715">
        <ele>410.6</ele>
        <time>2011-05-24T11:37:52Z</time>
        <extensions><gpxtpx:TrackPointExtension><gpxtpx:hr>152</gpxtpx:hr></gpxtpx:TrackPointExtension></extensions>
      </trkpt>
      <trkpt lat="61.1127815032" lon="13.8594864021">
        <ele>411.4</ele>
        <time>2011-05-24T11:37:57Z</time>
        <extensions><gpxtpx:TrackPointExtension><gpxtpx:hr>152</gpxtpx:hr></gpxtpx:TrackPointExtension></extensions>
      </trkpt>
      <trkpt lat="61.1127890469" lon="13.8594833008">
        <ele>413.4</ele>
        <time>2011-05-24T11:38:09Z</time>
        <extensions><gpxtpx:TrackPointExtension><gpxtpx:hr>148</gpxtpx:hr></gpxtpx:TrackPointExtension></extensions>
      </trkpt>
      <trkpt lat="61.1127891308" lon="13.8595022439">
        <ele>415</ele>
        <time>2011-05-24T11:38:17Z</time>
        <extensions><gpxtpx:TrackPointExtension><gpxtpx:hr>144</gpxtpx:hr></gpxtpx:TrackPointExtension></extensions>
      </trkpt>
      <trkpt lat="61.1127842692" lon="13.8595086142">
        <ele>415.8</ele>
        <time>2011-05-24T11:38:24Z</time>
        <extensions><gpxtpx:TrackPointExtension><gpxtpx:hr>139</gpxtpx:hr></gpxtpx:TrackPointExtension></extensions>
      </trkpt>
      <trkpt lat="61.1127775637" lon="13.8595159064">
        <ele>416</ele>
        <time>2011-05-24T11:38:27Z</time>
        <extensions><gpxtpx:TrackPointExtension><gpxtpx:hr>134</gpxtpx:hr></gpxtpx:TrackPointExtension></extensions>
      </trkpt>
      <trkpt lat="61.1127752168" lon="13.8595167446">
        <ele>416</ele>
        <time>2011-05-24T11:38:30Z</time>
        <extensions><gpxtpx:TrackPointExtension><gpxtpx:hr>129</gpxtpx:hr></gpxtpx:TrackPointExtension></extensions>
      </trkpt>
      <trkpt lat="61.112774211" lon="13.8595185048">
        <ele>416.2</ele>
        <time>2011-05-24T11:38:32Z</time>
        <extensions><gpxtpx:TrackPointExtension><gpxtpx:hr>123</gpxtpx:hr></gpxtpx:TrackPointExtension></extensions>
      </trkpt>
      <trkpt lat="61.1127736242" lon="13.859521187">
        <ele>416.4</ele>
        <time>2011-05-24T11:38:34Z</time>
        <extensions><gpxtpx:TrackPointExtension><gpxtpx:hr>117</gpxtpx:hr></gpxtpx:TrackPointExtension></extensions>
      </trkpt>
      <trkpt lat="61.1127735404" lon="13.8595344304">
        <ele>416.6</ele>
        <time>2011-05-24T11:38:35Z</time>
        <extensions><gpxtpx:TrackPointExtension><gpxtpx:hr>115</gpxtpx:hr></gpxtpx:TrackPointExtension></extensions>
      </trkpt>
      <trkpt lat="61.1127739595" lon="13.8597517731">
        <ele>417.2</ele>
        <time>2011-05-24T11:38:39Z</time>
        <extensions><gpxtpx:TrackPointExtension><gpxtpx:hr>118</gpxtpx:hr></gpxtpx:TrackPointExtension></extensions>
      </trkpt>
      <trkpt lat="61.1127574472" lon="13.8599068382">
        <ele>417.4</ele>
        <time>2011-05-24T11:38:41Z</time>
        <extensions><gpxtpx:TrackPointExtension><gpxtpx:hr>126</gpxtpx:hr></gpxtpx:TrackPointExtension></extensions>
      </trkpt>
      <trkpt lat="61.1127539268" lon="13.8599603148">
        <ele>417.6</ele>
        <time>2011-05-24T11:38:42Z</time>
        <extensions><gpxtpx:TrackPointExtension><gpxtpx:hr>126</gpxtpx:hr></gpxtpx:TrackPointExtension></extensions>
      </trkpt>
      <trkpt lat="61.1127805812" lon="13.8601291262">
        <ele>417.8</ele>
        <time>2011-05-24T11:38:46Z</time>
        <extensions><gpxtpx:TrackPointExtension><gpxtpx:hr>121</gpxtpx:hr></gpxtpx:TrackPointExtension></extensions>
      </trkpt>
      <trkpt lat="61.112789466" lon="13.860188973">
        <ele>418</ele>
        <time>2011-05-24T11:38:47Z</time>
        <extensions><gpxtpx:TrackPointExtension><gpxtpx:hr>120</gpxtpx:hr></gpxtpx:TrackPointExtension></extensions>
      </trkpt>
      <trkpt lat="61.1128749614" lon="13.8606058049">
        <ele>418.2</ele>
        <time>2011-05-24T11:38:53Z</time>
        <extensions><gpxtpx:TrackPointExtension><gpxtpx:hr>121</gpxtpx:hr></gpxtpx:TrackPointExtension></extensions>
      </trkpt>
      <trkpt lat="61.1129565173" lon="13.8609967367">
        <ele>417.4</ele>
        <time>2011-05-24T11:38:58Z</time>
        <extensions><gpxtpx:TrackPointExtension><gpxtpx:hr>122</gpxtpx:hr></gpxtpx:TrackPointExtension></extensions>
      </trkpt>
      <trkpt lat="61.1130244945" lon="13.8613579128">
        <ele>417</ele>
        <time>2011-05-24T11:39:02Z</time>
        <extensions><gpxtpx:TrackPointExtension><gpxtpx:hr>125</gpxtpx:hr></gpxtpx:TrackPointExtension></extensions>
      </trkpt>
      <trkpt lat="61.1130719361" lon="13.8616237028">
        <ele>416.8</ele>
        <time>2011-05-24T11:39:06Z</time>
        <extensions><gpxtpx:TrackPointExtension><gpxtpx:hr>128</gpxtpx:hr></gpxtpx:TrackPointExtension></extensions>
      </trkpt>
      <trkpt lat="61.1130786416" lon="13.8616605832">
        <ele>416.8</ele>
        <time>2011-05-24T11:39:07Z</time>
        <extensions><gpxtpx:TrackPointExtension><gpxtpx:hr>128</gpxtpx:hr></gpxtpx:TrackPointExtension></extensions>
      </trkpt>
      <trkpt lat="61.1130850956" lon="13.8616966254">
        <ele>416.4</ele>
        <time>2011-05-24T11:39:16Z</time>
        <extensions><gpxtpx:TrackPointExtension><gpxtpx:hr>122</gpxtpx:hr></gpxtpx:TrackPointExtension></extensions>
      </trkpt>
      <trkpt lat="61.1130828325" lon="13.8617007325">
        <ele>416.4</ele>
        <time>2011-05-24T11:39:22Z</time>
        <extensions><gpxtpx:TrackPointExtension><gpxtpx:hr>116</gpxtpx:hr></gpxtpx:TrackPointExtension></extensions>
      </trkpt>
      <trkpt lat="61.1130811561" lon="13.8617038338">
        <ele>416.4</ele>
        <time>2011-05-24T11:39:26Z</time>
        <extensions><gpxtpx:TrackPointExtension><gpxtpx:hr>111</gpxtpx:hr></gpxtpx:TrackPointExtension></extensions>
      </trkpt>
      <trkpt lat="61.1130786416" lon="13.8616897522">
        <ele>416.4</ele>
        <time>2011-05-24T11:39:35Z</time>
        <extensions><gpxtpx:TrackPointExtension><gpxtpx:hr>112</gpxtpx:hr></gpxtpx:TrackPointExtension></extensions>
      </trkpt>
      <trkpt lat="61.1130766299" lon="13.8616983856">
        <ele>416.4</ele>
        <time>2011-05-24T11:39:42Z</time>
        <extensions><gpxtpx:TrackPointExtension><gpxtpx:hr>107</gpxtpx:hr></gpxtpx:TrackPointExtension></extensions>
      </trkpt>
      <trkpt lat="61.1130751212" lon="13.8617040852">
        <ele>416.4</ele>
        <time>2011-05-24T11:39:47Z</time>
        <extensions><gpxtpx:TrackPointExtension><gpxtpx:hr>102</gpxtpx:hr></gpxtpx:TrackPointExtension></extensions>
      </trkpt>
      <trkpt lat="61.113075205" lon="13.8617142273">
        <ele>416.4</ele>
        <time>2011-05-24T11:40:01Z</time>
        <extensions><gpxtpx:TrackPointExtension><gpxtpx:hr>107</gpxtpx:hr></gpxtpx:TrackPointExtension></extensions>
      </trkpt>
      <trkpt lat="61.113076127" lon="13.8617107069">
        <ele>416.4</ele>
        <time>2011-05-24T11:40:05Z</time>
        <extensions><gpxtpx:TrackPointExtension><gpxtpx:hr>112</gpxtpx:hr></gpxtpx:TrackPointExtension></extensions>
      </trkpt>
      <trkpt lat="61.1130757079" lon="13.8617186698">
        <ele>416.4</ele>
        <time>2011-05-24T11:40:12Z</time>
        <extensions><gpxtpx:TrackPointExtension><gpxtpx:hr>109</gpxtpx:hr></gpxtpx:TrackPointExtension></extensions>
      </trkpt>
      <trkpt lat="61.1130790607" lon="13.8617186698">
        <ele>416.4</ele>
        <time>2011-05-24T11:40:28Z</time>
        <extensions><gpxtpx:TrackPointExtension><gpxtpx:hr>104</gpxtpx:hr></gpxtpx:TrackPointExtension></extensions>
      </trkpt>
      <trkpt lat="61.1130816591" lon="13.8617086953">
        <ele>415.2</ele>
        <time>2011-05-24T11:40:40Z</time>
        <extensions><gpxtpx:TrackPointExtension><gpxtpx:hr>99</gpxtpx:hr></gpxtpx:TrackPointExtension></extensions>
      </trkpt>
      <trkpt lat="61.1130793121" lon="13.8616933564">
        <ele>414.8</ele>
        <time>2011-05-24T11:40:47Z</time>
        <extensions><gpxtpx:TrackPointExtension><gpxtpx:hr>94</gpxtpx:hr></gpxtpx:TrackPointExtension></extensions>
      </trkpt>
      <trkpt lat="61.1130794798" lon="13.8616901713">
        <ele>414.6</ele>
        <time>2011-05-24T11:40:50Z</time>
        <extensions><gpxtpx:TrackPointExtension><gpxtpx:hr>88</gpxtpx:hr></gpxtpx:TrackPointExtension></extensions>
      </trkpt>
      <trkpt lat="61.1130866882" lon="13.8616529557">
        <ele>414.4</ele>
        <time>2011-05-24T11:41:17Z</time>
        <extensions><gpxtpx:TrackPointExtension><gpxtpx:hr>93</gpxtpx:hr></gpxtpx:TrackPointExtension></extensions>
      </trkpt>
      <trkpt lat="61.1130948186" lon="13.8616369462">
        <ele>413</ele>
        <time>2011-05-24T11:41:27Z</time>
        <extensions><gpxtpx:TrackPointExtension><gpxtpx:hr>98</gpxtpx:hr></gpxtpx:TrackPointExtension></extensions>
      </trkpt>
      <trkpt lat="61.1130978361" lon="13.8616133093">
        <ele>412.4</ele>
        <time>2011-05-24T11:41:39Z</time>
        <extensions><gpxtpx:TrackPointExtension><gpxtpx:hr>101</gpxtpx:hr></gpxtpx:TrackPointExtension></extensions>
      </trkpt>
      <trkpt lat="61.1130986743" lon="13.8616176679">
        <ele>412.4</ele>
        <time>2011-05-24T11:41:42Z</time>
        <extensions><gpxtpx:TrackPointExtension><gpxtpx:hr>106</gpxtpx:hr></gpxtpx:TrackPointExtension></extensions>
      </trkpt>
      <trkpt lat="61.1131021109" lon="13.8616131416">
        <ele>412.4</ele>
        <time>2011-05-24T11:41:57Z</time>
        <extensions><gpxtpx:TrackPointExtension><gpxtpx:hr>98</gpxtpx:hr></gpxtpx:TrackPointExtension></extensions>
      </trkpt>
      <trkpt lat="61.1131021947" lon="13.8616210206">
        <ele>412.4</ele>
        <time>2011-05-24T11:42:00Z</time>
        <extensions><gpxtpx:TrackPointExtension><gpxtpx:hr>93</gpxtpx:hr></gpxtpx:TrackPointExtension></extensions>
      </trkpt>
      <trkpt lat="61.113098339" lon="13.8616387902">
        <ele>412.2</ele>
        <time>2011-05-24T11:42:11Z</time>
        <extensions><gpxtpx:TrackPointExtension><gpxtpx:hr>92</gpxtpx:hr></gpxtpx:TrackPointExtension></extensions>
      </trkpt>
      <trkpt lat="61.1130898733" lon="13.861657901">
        <ele>412.2</ele>
        <time>2011-05-24T11:42:18Z</time>
        <extensions><gpxtpx:TrackPointExtension><gpxtpx:hr>97</gpxtpx:hr></gpxtpx:TrackPointExtension></extensions>
      </trkpt>
      <trkpt lat="61.1130871073" lon="13.8616506925">
        <ele>412.2</ele>
        <time>2011-05-24T11:42:24Z</time>
        <extensions><gpxtpx:TrackPointExtension><gpxtpx:hr>102</gpxtpx:hr></gpxtpx:TrackPointExtension></extensions>
      </trkpt>
      <trkpt lat="61.1130822458" lon="13.8616619243">
        <ele>412.2</ele>
        <time>2011-05-24T11:42:38Z</time>
        <extensions><gpxtpx:TrackPointExtension><gpxtpx:hr>95</gpxtpx:hr></gpxtpx:TrackPointExtension></extensions>
      </trkpt>
      <trkpt lat="61.1130824134" lon="13.8616591583">
        <ele>412.2</ele>
        <time>2011-05-24T11:42:42Z</time>
        <extensions><gpxtpx:TrackPointExtension><gpxtpx:hr>89</gpxtpx:hr></gpxtpx:TrackPointExtension></extensions>
      </trkpt>
      <trkpt lat="61.1130829163" lon="13.8616669534">
        <ele>412.2</ele>
        <time>2011-05-24T11:42:55Z</time>
        <extensions><gpxtpx:TrackPointExtension><gpxtpx:hr>95</gpxtpx:hr></gpxtpx:TrackPointExtension></extensions>
      </trkpt>
      <trkpt lat="61.1130729419" lon="13.8617188374">
        <ele>414</ele>
        <time>2011-05-24T11:43:38Z</time>
        <extensions><gpxtpx:TrackPointExtension><gpxtpx:hr>101</gpxtpx:hr></gpxtpx:TrackPointExtension></extensions>
      </trkpt>
      <trkpt lat="61.1130758755" lon="13.8617118804">
        <ele>414</ele>
        <time>2011-05-24T11:43:41Z</time>
        <extensions><gpxtpx:TrackPointExtension><gpxtpx:hr>106</gpxtpx:hr></gpxtpx:TrackPointExtension></extensions>
      </trkpt>
      <trkpt lat="61.1130829163" lon="13.8617086115">
        <ele>414.2</ele>
        <time>2011-05-24T11:43:48Z</time>
        <extensions><gpxtpx:TrackPointExtension><gpxtpx:hr>111</gpxtpx:hr></gpxtpx:TrackPointExtension></extensions>
      </trkpt>
      <trkpt lat="61.1130847604" lon="13.8617040852">
        <ele>414.2</ele>
        <time>2011-05-24T11:43:51Z</time>
        <extensions><gpxtpx:TrackPointExtension><gpxtpx:hr>116</gpxtpx:hr></gpxtpx:TrackPointExtension></extensions>
      </trkpt>
      <trkpt lat="61.113089538" lon="13.8617073542">
        <ele>415.2</ele>
        <time>2011-05-24T11:43:57Z</time>
        <extensions><gpxtpx:TrackPointExtension><gpxtpx:hr>111</gpxtpx:hr></gpxtpx:TrackPointExtension></extensions>
      </trkpt>
      <trkpt lat="61.1130962436" lon="13.8616962901">
        <ele>416</ele>
        <time>2011-05-24T11:44:07Z</time>
        <extensions><gpxtpx:TrackPointExtension><gpxtpx:hr>106</gpxtpx:hr></gpxtpx:TrackPointExtension></extensions>
      </trkpt>
      <trkpt lat="61.1131020271" lon="13.8616890816">
        <ele>416.2</ele>
        <time>2011-05-24T11:44:16Z</time>
        <extensions><gpxtpx:TrackPointExtension><gpxtpx:hr>111</gpxtpx:hr></gpxtpx:TrackPointExtension></extensions>
      </trkpt>
      <trkpt lat="61.1131050446" lon="13.8616668696">
        <ele>418</ele>
        <time>2011-05-24T11:44:42Z</time>
        <extensions><gpxtpx:TrackPointExtension><gpxtpx:hr>106</gpxtpx:hr></gpxtpx:TrackPointExtension></extensions>
      </trkpt>
      <trkpt lat="61.1131090679" lon="13.8616677916">
        <ele>418.2</ele>
        <time>2011-05-24T11:44:49Z</time>
        <extensions><gpxtpx:TrackPointExtension><gpxtpx:hr>111</gpxtpx:hr></gpxtpx:TrackPointExtension></extensions>
      </trkpt>
      <trkpt lat="61.1131065533" lon="13.8616704738">
        <ele>418.4</ele>
        <time>2011-05-24T11:44:59Z</time>
        <extensions><gpxtpx:TrackPointExtension><gpxtpx:hr>106</gpxtpx:hr></gpxtpx:TrackPointExtension></extensions>
      </trkpt>
      <trkpt lat="61.1131024462" lon="13.861675503">
        <ele>418.4</ele>
        <time>2011-05-24T11:45:07Z</time>
        <extensions><gpxtpx:TrackPointExtension><gpxtpx:hr>101</gpxtpx:hr></gpxtpx:TrackPointExtension></extensions>
      </trkpt>
      <trkpt lat="61.1130979199" lon="13.8616827114">
        <ele>418.6</ele>
        <time>2011-05-24T11:45:19Z</time>
        <extensions><gpxtpx:TrackPointExtension><gpxtpx:hr>96</gpxtpx:hr></gpxtpx:TrackPointExtension></extensions>
      </trkpt>
      <trkpt lat="61.1130898733" lon="13.8616822923">
        <ele>419.6</ele>
        <time>2011-05-24T11:45:27Z</time>
        <extensions><gpxtpx:TrackPointExtension><gpxtpx:hr>101</gpxtpx:hr></gpxtpx:TrackPointExtension></extensions>
      </trkpt>
      <trkpt lat="61.1130785578" lon="13.8616663667">
        <ele>420</ele>
        <time>2011-05-24T11:45:33Z</time>
        <extensions><gpxtpx:TrackPointExtension><gpxtpx:hr>106</gpxtpx:hr></gpxtpx:TrackPointExtension></extensions>
      </trkpt>
      <trkpt lat="61.1130898733" lon="13.8616514469">
        <ele>420.2</ele>
        <time>2011-05-24T11:45:38Z</time>
        <extensions><gpxtpx:TrackPointExtension><gpxtpx:hr>108</gpxtpx:hr></gpxtpx:TrackPointExtension></extensions>
      </trkpt>
      <trkpt lat="61.1130897895" lon="13.8616508602">
        <ele>420.2</ele>
        <time>2011-05-24T11:45:40Z</time>
        <extensions><gpxtpx:TrackPointExtension><gpxtpx:hr>103</gpxtpx:hr></gpxtpx:TrackPointExtension></extensions>
      </trkpt>
      <trkpt lat="61.1131024462" lon="13.8616642712">
        <ele>420.4</ele>
        <time>2011-05-24T11:45:56Z</time>
        <extensions><gpxtpx:TrackPointExtension><gpxtpx:hr>103</gpxtpx:hr></gpxtpx:TrackPointExtension></extensions>
      </trkpt>
      <trkpt lat="61.1131083973" lon="13.8616640198">
        <ele>420.6</ele>
        <time>2011-05-24T11:46:02Z</time>
        <extensions><gpxtpx:TrackPointExtension><gpxtpx:hr>103</gpxtpx:hr></gpxtpx:TrackPointExtension></extensions>
      </trkpt>
      <trkpt lat="61.1131035358" lon="13.8616755868">
        <ele>420.6</ele>
        <time>2011-05-24T11:46:13Z</time>
        <extensions><gpxtpx:TrackPointExtension><gpxtpx:hr>98</gpxtpx:hr></gpxtpx:TrackPointExtension></extensions>
      </trkpt>
      <trkpt lat="61.1131026976" lon="13.8617123833">
        <ele>420.6</ele>
        <time>2011-05-24T11:46:22Z</time>
        <extensions><gpxtpx:TrackPointExtension><gpxtpx:hr>103</gpxtpx:hr></gpxtpx:TrackPointExtension></extensions>
      </trkpt>
      <trkpt lat="61.1131037873" lon="13.861725962">
        <ele>420.6</ele>
        <time>2011-05-24T11:46:25Z</time>
        <extensions><gpxtpx:TrackPointExtension><gpxtpx:hr>103</gpxtpx:hr></gpxtpx:TrackPointExtension></extensions>
      </trkpt>
      <trkpt lat="61.1131116663" lon="13.8619457354">
        <ele>420.6</ele>
        <time>2011-05-24T11:46:30Z</time>
        <extensions><gpxtpx:TrackPointExtension><gpxtpx:hr>105</gpxtpx:hr></gpxtpx:TrackPointExtension></extensions>
      </trkpt>
      <trkpt lat="61.113114097" lon="13.8620228489">
        <ele>420.6</ele>
        <time>2011-05-24T11:46:31Z</time>
        <extensions><gpxtpx:TrackPointExtension><gpxtpx:hr>106</gpxtpx:hr></gpxtpx:TrackPointExtension></extensions>
      </trkpt>
      <trkpt lat="61.1131167792" lon="13.8625736236">
        <ele>420.6</ele>
        <time>2011-05-24T11:46:37Z</time>
        <extensions><gpxtpx:TrackPointExtension><gpxtpx:hr>110</gpxtpx:hr></gpxtpx:TrackPointExtension></extensions>
      </trkpt>
      <trkpt lat="61.1130653982" lon="13.8629762062">
        <ele>420</ele>
        <time>2011-05-24T11:46:41Z</time>
        <extensions><gpxtpx:TrackPointExtension><gpxtpx:hr>112</gpxtpx:hr></gpxtpx:TrackPointExtension></extensions>
      </trkpt>
      <trkpt lat="61.112964983" lon="13.8634330198">
        <ele>419.4</ele>
        <time>2011-05-24T11:46:45Z</time>
        <extensions><gpxtpx:TrackPointExtension><gpxtpx:hr>117</gpxtpx:hr></gpxtpx:TrackPointExtension></extensions>
      </trkpt>
      <trkpt lat="61.1128638135" lon="13.8637593271">
        <ele>419.2</ele>
        <time>2011-05-24T11:46:48Z</time>
        <extensions><gpxtpx:TrackPointExtension><gpxtpx:hr>122</gpxtpx:hr></gpxtpx:TrackPointExtension></extensions>
      </trkpt>
      <trkpt lat="61.112744539" lon="13.8640801863">
        <ele>419</ele>
        <time>2011-05-24T11:46:51Z</time>
        <extensions><gpxtpx:TrackPointExtension><gpxtpx:hr>127</gpxtpx:hr></gpxtpx:TrackPointExtension></extensions>
      </trkpt>
      <trkpt lat="61.1126250131" lon="13.8644191503">
        <ele>418.8</ele>
        <time>2011-05-24T11:46:54Z</time>
        <extensions><gpxtpx:TrackPointExtension><gpxtpx:hr>131</gpxtpx:hr></gpxtpx:TrackPointExtension></extensions>
      </trkpt>
      <trkpt lat="61.112502386" lon="13.8647649875">
        <ele>418.8</ele>
        <time>2011-05-24T11:46:57Z</time>
        <extensions><gpxtpx:TrackPointExtension><gpxtpx:hr>133</gpxtpx:hr></gpxtpx:TrackPointExtension></extensions>
      </trkpt>
      <trkpt lat="61.1123730532" lon="13.8651006826">
        <ele>418.4</ele>
        <time>2011-05-24T11:47:00Z</time>
        <extensions><gpxtpx:TrackPointExtension><gpxtpx:hr>135</gpxtpx:hr></gpxtpx:TrackPointExtension></extensions>
      </trkpt>
      <trkpt lat="61.112334748" lon="13.8652116589">
        <ele>418.2</ele>
        <time>2011-05-24T11:47:01Z</time>
        <extensions><gpxtpx:TrackPointExtension><gpxtpx:hr>135</gpxtpx:hr></gpxtpx:TrackPointExtension></extensions>
      </trkpt>
      <trkpt lat="61.1123073391" lon="13.8655963881">
        <ele>417.6</ele>
        <time>2011-05-24T11:47:04Z</time>
        <extensions><gpxtpx:TrackPointExtension><gpxtpx:hr>136</gpxtpx:hr></gpxtpx:TrackPointExtension></extensions>
      </trkpt>
      <trkpt lat="61.1122660164" lon="13.8658994777">
        <ele>417.4</ele>
        <time>2011-05-24T11:47:07Z</time>
        <extensions><gpxtpx:TrackPointExtension><gpxtpx:hr>138</gpxtpx:hr></gpxtpx:TrackPointExtension></extensions>
      </trkpt>
      <trkpt lat="61.1122398648" lon="13.8660062631">
        <ele>417.2</ele>
        <time>2011-05-24T11:47:08Z</time>
        <extensions><gpxtpx:TrackPointExtension><gpxtpx:hr>138</gpxtpx:hr></gpxtpx:TrackPointExtension></extensions>
      </trkpt>
      <trkpt lat="61.1122186586" lon="13.8661174071">
        <ele>417.2</ele>
        <time>2011-05-24T11:47:09Z</time>
        <extensions><gpxtpx:TrackPointExtension><gpxtpx:hr>139</gpxtpx:hr></gpxtpx:TrackPointExtension></extensions>
      </trkpt>
      <trkpt lat="61.112195776" lon="13.8663584705">
        <ele>417</ele>
        <time>2011-05-24T11:47:11Z</time>
        <extensions><gpxtpx:TrackPointExtension><gpxtpx:hr>141</gpxtpx:hr></gpxtpx:TrackPointExtension></extensions>
      </trkpt>
      <trkpt lat="61.1122488335" lon="13.8667391764">
        <ele>416.2</ele>
        <time>2011-05-24T11:47:14Z</time>
        <extensions><gpxtpx:TrackPointExtension><gpxtpx:hr>142</gpxtpx:hr></gpxtpx:TrackPointExtension></extensions>
      </trkpt>
      <trkpt lat="61.1122894857" lon="13.8672346305">
        <ele>415.6</ele>
        <time>2011-05-24T11:47:18Z</time>
        <extensions><gpxtpx:TrackPointExtension><gpxtpx:hr>144</gpxtpx:hr></gpxtpx:TrackPointExtension></extensions>
      </trkpt>
      <trkpt lat="61.1122857977" lon="13.867366394">
        <ele>415.4</ele>
        <time>2011-05-24T11:47:19Z</time>
        <extensions><gpxtpx:TrackPointExtension><gpxtpx:hr>144</gpxtpx:hr></gpxtpx:TrackPointExtension></extensions>
      </trkpt>
      <trkpt lat="61.1121877294" lon="13.8677645342">
        <ele>415.2</ele>
        <time>2011-05-24T11:47:22Z</time>
        <extensions><gpxtpx:TrackPointExtension><gpxtpx:hr>147</gpxtpx:hr></gpxtpx:TrackPointExtension></extensions>
      </trkpt>
      <trkpt lat="61.1121468258" lon="13.8683162309">
        <ele>414.8</ele>
        <time>2011-05-24T11:47:26Z</time>
        <extensions><gpxtpx:TrackPointExtension><gpxtpx:hr>149</gpxtpx:hr></gpxtpx:TrackPointExtension></extensions>
      </trkpt>
      <trkpt lat="61.1121583928" lon="13.8684625789">
        <ele>414.6</ele>
        <time>2011-05-24T11:47:27Z</time>
        <extensions><gpxtpx:TrackPointExtension><gpxtpx:hr>149</gpxtpx:hr></gpxtpx:TrackPointExtension></extensions>
      </trkpt>
      <trkpt lat="61.112196279" lon="13.8689105914">
        <ele>414</ele>
        <time>2011-05-24T11:47:30Z</time>
        <extensions><gpxtpx:TrackPointExtension><gpxtpx:hr>151</gpxtpx:hr></gpxtpx:TrackPointExtension></extensions>
      </trkpt>
      <trkpt lat="61.1122159764" lon="13.8690601245">
        <ele>413.8</ele>
        <time>2011-05-24T11:47:31Z</time>
        <extensions><gpxtpx:TrackPointExtension><gpxtpx:hr>151</gpxtpx:hr></gpxtpx:TrackPointExtension></extensions>
      </trkpt>
      <trkpt lat="61.1122836184" lon="13.8696627831">
        <ele>413.2</ele>
        <time>2011-05-24T11:47:35Z</time>
        <extensions><gpxtpx:TrackPointExtension><gpxtpx:hr>151</gpxtpx:hr></gpxtpx:TrackPointExtension></extensions>
      </trkpt>
      <trkpt lat="61.1123451415" lon="13.8700815428">
        <ele>413</ele>
        <time>2011-05-24T11:47:38Z</time>
        <extensions><gpxtpx:TrackPointExtension><gpxtpx:hr>152</gpxtpx:hr></gpxtpx:TrackPointExtension></extensions>
      </trkpt>
      <trkpt lat="61.1123704548" lon="13.8702410504">
        <ele>413</ele>
        <time>2011-05-24T11:47:39Z</time>
        <extensions><gpxtpx:TrackPointExtension><gpxtpx:hr>152</gpxtpx:hr></gpxtpx:TrackPointExtension></extensions>
      </trkpt>
      <trkpt lat="61.1124812636" lon="13.8705196648">
        <ele>412.6</ele>
        <time>2011-05-24T11:47:43Z</time>
        <extensions><gpxtpx:TrackPointExtension><gpxtpx:hr>151</gpxtpx:hr></gpxtpx:TrackPointExtension></extensions>
      </trkpt>
      <trkpt lat="61.1124934173" lon="13.8705490014">
        <ele>412.6</ele>
        <time>2011-05-24T11:47:44Z</time>
        <extensions><gpxtpx:TrackPointExtension><gpxtpx:hr>151</gpxtpx:hr></gpxtpx:TrackPointExtension></extensions>
      </trkpt>
      <trkpt lat="61.1124821856" lon="13.8705733089">
        <ele>412.6</ele>
        <time>2011-05-24T11:47:48Z</time>
        <extensions><gpxtpx:TrackPointExtension><gpxtpx:hr>148</gpxtpx:hr></gpxtpx:TrackPointExtension></extensions>
      </trkpt>
      <trkpt lat="61.1124645836" lon="13.8705719678">
        <ele>412.4</ele>
        <time>2011-05-24T11:47:54Z</time>
        <extensions><gpxtpx:TrackPointExtension><gpxtpx:hr>143</gpxtpx:hr></gpxtpx:TrackPointExtension></extensions>
      </trkpt>
      <trkpt lat="61.1124515916" lon="13.8705759073">
        <ele>412.2</ele>
        <time>2011-05-24T11:48:10Z</time>
        <extensions><gpxtpx:TrackPointExtension><gpxtpx:hr>138</gpxtpx:hr></gpxtpx:TrackPointExtension></extensions>
      </trkpt>
      <trkpt lat="61.1124507534" lon="13.870569118">
        <ele>412.2</ele>
        <time>2011-05-24T11:48:17Z</time>
        <extensions><gpxtpx:TrackPointExtension><gpxtpx:hr>133</gpxtpx:hr></gpxtpx:TrackPointExtension></extensions>
      </trkpt>
      <trkpt lat="61.1124492447" lon="13.870561239">
        <ele>412.2</ele>
        <time>2011-05-24T11:48:20Z</time>
        <extensions><gpxtpx:TrackPointExtension><gpxtpx:hr>128</gpxtpx:hr></gpxtpx:TrackPointExtension></extensions>
      </trkpt>
      <trkpt lat="61.1124379291" lon="13.8705619095">
        <ele>412.2</ele>
        <time>2011-05-24T11:48:23Z</time>
        <extensions><gpxtpx:TrackPointExtension><gpxtpx:hr>123</gpxtpx:hr></gpxtpx:TrackPointExtension></extensions>
      </trkpt>
      <trkpt lat="61.1124384321" lon="13.8705575509">
        <ele>412.2</ele>
        <time>2011-05-24T11:48:28Z</time>
        <extensions><gpxtpx:TrackPointExtension><gpxtpx:hr>118</gpxtpx:hr></gpxtpx:TrackPointExtension></extensions>
      </trkpt>
      <trkpt lat="61.1124261107" lon="13.8705633345">
        <ele>412.2</ele>
        <time>2011-05-24T11:48:32Z</time>
        <extensions><gpxtpx:TrackPointExtension><gpxtpx:hr>109</gpxtpx:hr></gpxtpx:TrackPointExtension></extensions>
      </trkpt>
      <trkpt lat="61.1124215844" lon="13.8705640888">
        <ele>412.2</ele>
        <time>2011-05-24T11:48:34Z</time>
        <extensions><gpxtpx:TrackPointExtension><gpxtpx:hr>104</gpxtpx:hr></gpxtpx:TrackPointExtension></extensions>
      </trkpt>
      <trkpt lat="61.1124047368" lon="13.8705748177">
        <ele>412.2</ele>
        <time>2011-05-24T11:48:42Z</time>
        <extensions><gpxtpx:TrackPointExtension><gpxtpx:hr>98</gpxtpx:hr></gpxtpx:TrackPointExtension></extensions>
      </trkpt>
      <trkpt lat="61.1124080058" lon="13.8705704591">
        <ele>412.2</ele>
        <time>2011-05-24T11:48:44Z</time>
        <extensions><gpxtpx:TrackPointExtension><gpxtpx:hr>93</gpxtpx:hr></gpxtpx:TrackPointExtension></extensions>
      </trkpt>
      <trkpt lat="61.1124086763" lon="13.8705713811">
        <ele>412.4</ele>
        <time>2011-05-24T11:48:48Z</time>
        <extensions><gpxtpx:TrackPointExtension><gpxtpx:hr>88</gpxtpx:hr></gpxtpx:TrackPointExtension></extensions>
      </trkpt>
      <trkpt lat="61.1123878054" lon="13.8705790086">
        <ele>414</ele>
        <time>2011-05-24T11:49:03Z</time>
        <extensions><gpxtpx:TrackPointExtension><gpxtpx:hr>94</gpxtpx:hr></gpxtpx:TrackPointExtension></extensions>
      </trkpt>
      <trkpt lat="61.1123795911" lon="13.8705813555">
        <ele>414</ele>
        <time>2011-05-24T11:49:07Z</time>
        <extensions><gpxtpx:TrackPointExtension><gpxtpx:hr>99</gpxtpx:hr></gpxtpx:TrackPointExtension></extensions>
      </trkpt>
      <trkpt lat="61.1123852908" lon="13.870576494">
        <ele>415.8</ele>
        <time>2011-05-24T11:49:27Z</time>
        <extensions><gpxtpx:TrackPointExtension><gpxtpx:hr>100</gpxtpx:hr></gpxtpx:TrackPointExtension></extensions>
      </trkpt>
      <trkpt lat="61.1123293835" lon="13.8704193334">
        <ele>416</ele>
        <time>2011-05-24T11:49:32Z</time>
        <extensions><gpxtpx:TrackPointExtension><gpxtpx:hr>106</gpxtpx:hr></gpxtpx:TrackPointExtension></extensions>
      </trkpt>
      <trkpt lat="61.1122725543" lon="13.870218084">
        <ele>416.2</ele>
        <time>2011-05-24T11:49:35Z</time>
        <extensions><gpxtpx:TrackPointExtension><gpxtpx:hr>111</gpxtpx:hr></gpxtpx:TrackPointExtension></extensions>
      </trkpt>
      <trkpt lat="61.1122193292" lon="13.8698842329">
        <ele>416.2</ele>
        <time>2011-05-24T11:49:39Z</time>
        <extensions><gpxtpx:TrackPointExtension><gpxtpx:hr>116</gpxtpx:hr></gpxtpx:TrackPointExtension></extensions>
      </trkpt>
      <trkpt lat="61.1121909145" lon="13.8694914571">
        <ele>416.2</ele>
        <time>2011-05-24T11:49:44Z</time>
        <extensions><gpxtpx:TrackPointExtension><gpxtpx:hr>120</gpxtpx:hr></gpxtpx:TrackPointExtension></extensions>
      </trkpt>
      <trkpt lat="61.112185634" lon="13.8694339572">
        <ele>416.2</ele>
        <time>2011-05-24T11:49:45Z</time>
        <extensions><gpxtpx:TrackPointExtension><gpxtpx:hr>120</gpxtpx:hr></gpxtpx:TrackPointExtension></extensions>
      </trkpt>
      <trkpt lat="61.1121357616" lon="13.8694332029">
        <ele>416.4</ele>
        <time>2011-05-24T11:49:49Z</time>
        <extensions><gpxtpx:TrackPointExtension><gpxtpx:hr>121</gpxtpx:hr></gpxtpx:TrackPointExtension></extensions>
      </trkpt>
      <trkpt lat="61.1121728096" lon="13.8695378928">
        <ele>416.4</ele>
        <time>2011-05-24T11:49:51Z</time>
        <extensions><gpxtpx:TrackPointExtension><gpxtpx:hr>121</gpxtpx:hr></gpxtpx:TrackPointExtension></extensions>
      </trkpt>
      <trkpt lat="61.11226895" lon="13.8698890106">
        <ele>416.4</ele>
        <time>2011-05-24T11:49:55Z</time>
        <extensions><gpxtpx:TrackPointExtension><gpxtpx:hr>122</gpxtpx:hr></gpxtpx:TrackPointExtension></extensions>
      </trkpt>
      <trkpt lat="61.1123343289" lon="13.8703139729">
        <ele>416.4</ele>
        <time>2011-05-24T11:49:59Z</time>
        <extensions><gpxtpx:TrackPointExtension><gpxtpx:hr>128</gpxtpx:hr></gpxtpx:TrackPointExtension></extensions>
      </trkpt>
      <trkpt lat="61.1123628273" lon="13.8704076826">
        <ele>416.4</ele>
        <time>2011-05-24T11:50:00Z</time>
        <extensions><gpxtpx:TrackPointExtension><gpxtpx:hr>128</gpxtpx:hr></gpxtpx:TrackPointExtension></extensions>
      </trkpt>
      <trkpt lat="61.1124265298" lon="13.8704921721">
        <ele>416.4</ele>
        <time>2011-05-24T11:50:02Z</time>
        <extensions><gpxtpx:TrackPointExtension><gpxtpx:hr>128</gpxtpx:hr></gpxtpx:TrackPointExtension></extensions>
      </trkpt>
      <trkpt lat="61.1124377615" lon="13.8705474927">
        <ele>416.4</ele>
        <time>2011-05-24T11:50:07Z</time>
        <extensions><gpxtpx:TrackPointExtension><gpxtpx:hr>127</gpxtpx:hr></gpxtpx:TrackPointExtension></extensions>
      </trkpt>
      <trkpt lat="61.1124354984" lon="13.87055336">
        <ele>416.4</ele>
        <time>2011-05-24T11:50:12Z</time>
        <extensions><gpxtpx:TrackPointExtension><gpxtpx:hr>122</gpxtpx:hr></gpxtpx:TrackPointExtension></extensions>
      </trkpt>
      <trkpt lat="61.1124038986" lon="13.8705705429">
        <ele>416.4</ele>
        <time>2011-05-24T11:50:28Z</time>
        <extensions><gpxtpx:TrackPointExtension><gpxtpx:hr>111</gpxtpx:hr></gpxtpx:TrackPointExtension></extensions>
      </trkpt>
      <trkpt lat="61.112392164" lon="13.8705687827">
        <ele>416.4</ele>
        <time>2011-05-24T11:50:37Z</time>
        <extensions><gpxtpx:TrackPointExtension><gpxtpx:hr>106</gpxtpx:hr></gpxtpx:TrackPointExtension></extensions>
      </trkpt>
      <trkpt lat="61.1123893979" lon="13.8705721354">
        <ele>416.4</ele>
        <time>2011-05-24T11:50:45Z</time>
        <extensions><gpxtpx:TrackPointExtension><gpxtpx:hr>101</gpxtpx:hr></gpxtpx:TrackPointExtension></extensions>
      </trkpt>
      <trkpt lat="61.1123775795" lon="13.8705623286">
        <ele>416.4</ele>
        <time>2011-05-24T11:50:58Z</time>
        <extensions><gpxtpx:TrackPointExtension><gpxtpx:hr>96</gpxtpx:hr></gpxtpx:TrackPointExtension></extensions>
      </trkpt>
      <trkpt lat="61.1123360891" lon="13.8706619894">
        <ele>416.4</ele>
        <time>2011-05-24T11:51:11Z</time>
        <extensions><gpxtpx:TrackPointExtension><gpxtpx:hr>99</gpxtpx:hr></gpxtpx:TrackPointExtension></extensions>
      </trkpt>
      <trkpt lat="61.1123885597" lon="13.8708801703">
        <ele>416.4</ele>
        <time>2011-05-24T11:51:17Z</time>
        <extensions><gpxtpx:TrackPointExtension><gpxtpx:hr>102</gpxtpx:hr></gpxtpx:TrackPointExtension></extensions>
      </trkpt>
      <trkpt lat="61.1124354984" lon="13.8711903006">
        <ele>416.4</ele>
        <time>2011-05-24T11:51:24Z</time>
        <extensions><gpxtpx:TrackPointExtension><gpxtpx:hr>99</gpxtpx:hr></gpxtpx:TrackPointExtension></extensions>
      </trkpt>
      <trkpt lat="61.1125240113" lon="13.8714865169">
        <ele>416.4</ele>
        <time>2011-05-24T11:51:29Z</time>
        <extensions><gpxtpx:TrackPointExtension><gpxtpx:hr>100</gpxtpx:hr></gpxtpx:TrackPointExtension></extensions>
      </trkpt>
      <trkpt lat="61.1126240073" lon="13.8717988265">
        <ele>415.6</ele>
        <time>2011-05-24T11:51:34Z</time>
        <extensions><gpxtpx:TrackPointExtension><gpxtpx:hr>103</gpxtpx:hr></gpxtpx:TrackPointExtension></extensions>
      </trkpt>
      <trkpt lat="61.1126925713" lon="13.8721261397">
        <ele>415</ele>
        <time>2011-05-24T11:51:39Z</time>
        <extensions><gpxtpx:TrackPointExtension><gpxtpx:hr>104</gpxtpx:hr></gpxtpx:TrackPointExtension></extensions>
      </trkpt>
      <trkpt lat="61.1127488138" lon="13.8724977932">
        <ele>414.2</ele>
        <time>2011-05-24T11:51:44Z</time>
        <extensions><gpxtpx:TrackPointExtension><gpxtpx:hr>105</gpxtpx:hr></gpxtpx:TrackPointExtension></extensions>
      </trkpt>
      <trkpt lat="61.1127867838" lon="13.8728727994">
        <ele>413.4</ele>
        <time>2011-05-24T11:51:49Z</time>
        <extensions><gpxtpx:TrackPointExtension><gpxtpx:hr>105</gpxtpx:hr></gpxtpx:TrackPointExtension></extensions>
      </trkpt>
      <trkpt lat="61.1128518274" lon="13.8733205605">
        <ele>412.8</ele>
        <time>2011-05-24T11:51:54Z</time>
        <extensions><gpxtpx:TrackPointExtension><gpxtpx:hr>106</gpxtpx:hr></gpxtpx:TrackPointExtension></extensions>
      </trkpt>
      <trkpt lat="61.112868675" lon="13.8734095762">
        <ele>412.8</ele>
        <time>2011-05-24T11:51:55Z</time>
        <extensions><gpxtpx:TrackPointExtension><gpxtpx:hr>108</gpxtpx:hr></gpxtpx:TrackPointExtension></extensions>
      </trkpt>
      <trkpt lat="61.112937658" lon="13.8737731831">
        <ele>412.4</ele>
        <time>2011-05-24T11:51:59Z</time>
        <extensions><gpxtpx:TrackPointExtension><gpxtpx:hr>109</gpxtpx:hr></gpxtpx:TrackPointExtension></extensions>
      </trkpt>
      <trkpt lat="61.1130033721" lon="13.8741471834">
        <ele>411.6</ele>
        <time>2011-05-24T11:52:03Z</time>
        <extensions><gpxtpx:TrackPointExtension><gpxtpx:hr>111</gpxtpx:hr></gpxtpx:TrackPointExtension></extensions>
      </trkpt>
      <trkpt lat="61.1130814914" lon="13.8745652726">
        <ele>411</ele>
        <time>2011-05-24T11:52:07Z</time>
        <extensions><gpxtpx:TrackPointExtension><gpxtpx:hr>114</gpxtpx:hr></gpxtpx:TrackPointExtension></extensions>
      </trkpt>
      <trkpt lat="61.1131613709" lon="13.8749936715">
        <ele>410.6</ele>
        <time>2011-05-24T11:52:11Z</time>
        <extensions><gpxtpx:TrackPointExtension><gpxtpx:hr>114</gpxtpx:hr></gpxtpx:TrackPointExtension></extensions>
      </trkpt>
      <trkpt lat="61.1132241514" lon="13.8753530874">
        <ele>410.6</ele>
        <time>2011-05-24T11:52:14Z</time>
        <extensions><gpxtpx:TrackPointExtension><gpxtpx:hr>112</gpxtpx:hr></gpxtpx:TrackPointExtension></extensions>
      </trkpt>
      <trkpt lat="61.1132909551" lon="13.8758012676">
        <ele>410.2</ele>
        <time>2011-05-24T11:52:18Z</time>
        <extensions><gpxtpx:TrackPointExtension><gpxtpx:hr>109</gpxtpx:hr></gpxtpx:TrackPointExtension></extensions>
      </trkpt>
      <trkpt lat="61.113354909" lon="13.8762286607">
        <ele>409.4</ele>
        <time>2011-05-24T11:52:22Z</time>
        <extensions><gpxtpx:TrackPointExtension><gpxtpx:hr>110</gpxtpx:hr></gpxtpx:TrackPointExtension></extensions>
      </trkpt>
      <trkpt lat="61.1133727624" lon="13.8763272318">
        <ele>409.2</ele>
        <time>2011-05-24T11:52:23Z</time>
        <extensions><gpxtpx:TrackPointExtension><gpxtpx:hr>111</gpxtpx:hr></gpxtpx:TrackPointExtension></extensions>
      </trkpt>
      <trkpt lat="61.1134575035" lon="13.8767355142">
        <ele>408.8</ele>
        <time>2011-05-24T11:52:27Z</time>
        <extensions><gpxtpx:TrackPointExtension><gpxtpx:hr>114</gpxtpx:hr></gpxtpx:TrackPointExtension></extensions>
      </trkpt>
      <trkpt lat="61.1134968984" lon="13.8769404516">
        <ele>408.6</ele>
        <time>2011-05-24T11:52:29Z</time>
        <extensions><gpxtpx:TrackPointExtension><gpxtpx:hr>116</gpxtpx:hr></gpxtpx:TrackPointExtension></extensions>
      </trkpt>
      <trkpt lat="61.1135482794" lon="13.8773308805">
        <ele>408.4</ele>
        <time>2011-05-24T11:52:33Z</time>
        <extensions><gpxtpx:TrackPointExtension><gpxtpx:hr>118</gpxtpx:hr></gpxtpx:TrackPointExtension></extensions>
      </trkpt>
      <trkpt lat="61.1135839025" lon="13.8778017757">
        <ele>408.2</ele>
        <time>2011-05-24T11:52:38Z</time>
        <extensions><gpxtpx:TrackPointExtension><gpxtpx:hr>118</gpxtpx:hr></gpxtpx:TrackPointExtension></extensions>
      </trkpt>
      <trkpt lat="61.1135923682" lon="13.8779004306">
        <ele>408.2</ele>
        <time>2011-05-24T11:52:39Z</time>
        <extensions><gpxtpx:TrackPointExtension><gpxtpx:hr>130</gpxtpx:hr></gpxtpx:TrackPointExtension></extensions>
      </trkpt>
      <trkpt lat="61.1135979841" lon="13.8779825732">
        <ele>408.2</ele>
        <time>2011-05-24T11:52:40Z</time>
        <extensions><gpxtpx:TrackPointExtension><gpxtpx:hr>130</gpxtpx:hr></gpxtpx:TrackPointExtension></extensions>
      </trkpt>
      <trkpt lat="61.1136057793" lon="13.8780777916">
        <ele>408.2</ele>
        <time>2011-05-24T11:52:41Z</time>
        <extensions><gpxtpx:TrackPointExtension><gpxtpx:hr>130</gpxtpx:hr></gpxtpx:TrackPointExtension></extensions>
      </trkpt>
      <trkpt lat="61.1136517121" lon="13.8783898498">
        <ele>407.8</ele>
        <time>2011-05-24T11:52:45Z</time>
        <extensions><gpxtpx:TrackPointExtension><gpxtpx:hr>125</gpxtpx:hr></gpxtpx:TrackPointExtension></extensions>
      </trkpt>
      <trkpt lat="61.1136599263" lon="13.8786415582">
        <ele>407</ele>
        <time>2011-05-24T11:52:50Z</time>
        <extensions><gpxtpx:TrackPointExtension><gpxtpx:hr>121</gpxtpx:hr></gpxtpx:TrackPointExtension></extensions>
      </trkpt>
      <trkpt lat="61.1136683082" lon="13.8787318313">
        <ele>406.8</ele>
        <time>2011-05-24T11:52:53Z</time>
        <extensions><gpxtpx:TrackPointExtension><gpxtpx:hr>121</gpxtpx:hr></gpxtpx:TrackPointExtension></extensions>
      </trkpt>
      <trkpt lat="61.1136631115" lon="13.8788938534">
        <ele>406.4</ele>
        <time>2011-05-24T11:52:57Z</time>
        <extensions><gpxtpx:TrackPointExtension><gpxtpx:hr>121</gpxtpx:hr></gpxtpx:TrackPointExtension></extensions>
      </trkpt>
      <trkpt lat="61.1136814678" lon="13.8792207475">
        <ele>406.2</ele>
        <time>2011-05-24T11:53:04Z</time>
        <extensions><gpxtpx:TrackPointExtension><gpxtpx:hr>125</gpxtpx:hr></gpxtpx:TrackPointExtension></extensions>
      </trkpt>
      <trkpt lat="61.1136476049" lon="13.8793090927">
        <ele>406.2</ele>
        <time>2011-05-24T11:53:08Z</time>
        <extensions><gpxtpx:TrackPointExtension><gpxtpx:hr>129</gpxtpx:hr></gpxtpx:TrackPointExtension></extensions>
      </trkpt>
      <trkpt lat="61.1136245547" lon="13.8793623178">
        <ele>406</ele>
        <time>2011-05-24T11:53:13Z</time>
        <extensions><gpxtpx:TrackPointExtension><gpxtpx:hr>131</gpxtpx:hr></gpxtpx:TrackPointExtension></extensions>
      </trkpt>
      <trkpt lat="61.1136134068" lon="13.8793736334">
        <ele>406</ele>
        <time>2011-05-24T11:53:16Z</time>
        <extensions><gpxtpx:TrackPointExtension><gpxtpx:hr>133</gpxtpx:hr></gpxtpx:TrackPointExtension></extensions>
      </trkpt>
      <trkpt lat="61.1135916139" lon="13.8794195662">
        <ele>406</ele>
        <time>2011-05-24T11:53:20Z</time>
        <extensions><gpxtpx:TrackPointExtension><gpxtpx:hr>135</gpxtpx:hr></gpxtpx:TrackPointExtension></extensions>
      </trkpt>
      <trkpt lat="61.1135870038" lon="13.8796960851">
        <ele>406</ele>
        <time>2011-05-24T11:53:24Z</time>
        <extensions><gpxtpx:TrackPointExtension><gpxtpx:hr>136</gpxtpx:hr></gpxtpx:TrackPointExtension></extensions>
      </trkpt>
      <trkpt lat="61.1136128201" lon="13.8801648009">
        <ele>406</ele>
        <time>2011-05-24T11:53:29Z</time>
        <extensions><gpxtpx:TrackPointExtension><gpxtpx:hr>138</gpxtpx:hr></gpxtpx:TrackPointExtension></extensions>
      </trkpt>
      <trkpt lat="61.1136224592" lon="13.8803817245">
        <ele>406</ele>
        <time>2011-05-24T11:53:31Z</time>
        <extensions><gpxtpx:TrackPointExtension><gpxtpx:hr>138</gpxtpx:hr></gpxtpx:TrackPointExtension></extensions>
      </trkpt>
      <trkpt lat="61.113625812" lon="13.8809666135">
        <ele>406</ele>
        <time>2011-05-24T11:53:36Z</time>
        <extensions><gpxtpx:TrackPointExtension><gpxtpx:hr>140</gpxtpx:hr></gpxtpx:TrackPointExtension></extensions>
      </trkpt>
      <trkpt lat="61.1136365408" lon="13.8814026399">
        <ele>406</ele>
        <time>2011-05-24T11:53:40Z</time>
        <extensions><gpxtpx:TrackPointExtension><gpxtpx:hr>141</gpxtpx:hr></gpxtpx:TrackPointExtension></extensions>
      </trkpt>
      <trkpt lat="61.11364618" lon="13.8815086709">
        <ele>406</ele>
        <time>2011-05-24T11:53:41Z</time>
        <extensions><gpxtpx:TrackPointExtension><gpxtpx:hr>141</gpxtpx:hr></gpxtpx:TrackPointExtension></extensions>
      </trkpt>
      <trkpt lat="61.1137497803" lon="13.8818788995">
        <ele>406</ele>
        <time>2011-05-24T11:53:45Z</time>
        <extensions><gpxtpx:TrackPointExtension><gpxtpx:hr>141</gpxtpx:hr></gpxtpx:TrackPointExtension></extensions>
      </trkpt>
      <trkpt lat="61.1137945397" lon="13.8821947294">
        <ele>406</ele>
        <time>2011-05-24T11:53:48Z</time>
        <extensions><gpxtpx:TrackPointExtension><gpxtpx:hr>142</gpxtpx:hr></gpxtpx:TrackPointExtension></extensions>
      </trkpt>
      <trkpt lat="61.1137982277" lon="13.8823048676">
        <ele>406</ele>
        <time>2011-05-24T11:53:49Z</time>
        <extensions><gpxtpx:TrackPointExtension><gpxtpx:hr>142</gpxtpx:hr></gpxtpx:TrackPointExtension></extensions>
      </trkpt>
      <trkpt lat="61.1138030054" lon="13.8824103119">
        <ele>406</ele>
        <time>2011-05-24T11:53:50Z</time>
        <extensions><gpxtpx:TrackPointExtension><gpxtpx:hr>142</gpxtpx:hr></gpxtpx:TrackPointExtension></extensions>
      </trkpt>
      <trkpt lat="61.1139172507" lon="13.8827403911">
        <ele>406</ele>
        <time>2011-05-24T11:53:54Z</time>
        <extensions><gpxtpx:TrackPointExtension><gpxtpx:hr>143</gpxtpx:hr></gpxtpx:TrackPointExtension></extensions>
      </trkpt>
      <trkpt lat="61.1139719007" lon="13.8830226097">
        <ele>406</ele>
        <time>2011-05-24T11:53:57Z</time>
        <extensions><gpxtpx:TrackPointExtension><gpxtpx:hr>143</gpxtpx:hr></gpxtpx:TrackPointExtension></extensions>
      </trkpt>
      <trkpt lat="61.1139809531" lon="13.8833157247">
        <ele>406</ele>
        <time>2011-05-24T11:54:01Z</time>
        <extensions><gpxtpx:TrackPointExtension><gpxtpx:hr>143</gpxtpx:hr></gpxtpx:TrackPointExtension></extensions>
      </trkpt>
      <trkpt lat="61.1139924363" lon="13.8833800977">
        <ele>406</ele>
        <time>2011-05-24T11:54:02Z</time>
        <extensions><gpxtpx:TrackPointExtension><gpxtpx:hr>143</gpxtpx:hr></gpxtpx:TrackPointExtension></extensions>
      </trkpt>
      <trkpt lat="61.1140173306" lon="13.8835095143">
        <ele>406</ele>
        <time>2011-05-24T11:54:04Z</time>
        <extensions><gpxtpx:TrackPointExtension><gpxtpx:hr>144</gpxtpx:hr></gpxtpx:TrackPointExtension></extensions>
      </trkpt>
      <trkpt lat="61.1140605812" lon="13.8838725344">
        <ele>406</ele>
        <time>2011-05-24T11:54:09Z</time>
        <extensions><gpxtpx:TrackPointExtension><gpxtpx:hr>145</gpxtpx:hr></gpxtpx:TrackPointExtension></extensions>
      </trkpt>
      <trkpt lat="61.1140801948" lon="13.8843113268">
        <ele>406</ele>
        <time>2011-05-24T11:54:14Z</time>
        <extensions><gpxtpx:TrackPointExtension><gpxtpx:hr>144</gpxtpx:hr></gpxtpx:TrackPointExtension></extensions>
      </trkpt>
      <trkpt lat="61.1140786022" lon="13.8845615265">
        <ele>406</ele>
        <time>2011-05-24T11:54:16Z</time>
        <extensions><gpxtpx:TrackPointExtension><gpxtpx:hr>143</gpxtpx:hr></gpxtpx:TrackPointExtension></extensions>
      </trkpt>
      <trkpt lat="61.1140684601" lon="13.8848598384">
        <ele>406</ele>
        <time>2011-05-24T11:54:18Z</time>
        <extensions><gpxtpx:TrackPointExtension><gpxtpx:hr>143</gpxtpx:hr></gpxtpx:TrackPointExtension></extensions>
      </trkpt>
      <trkpt lat="61.1139586573" lon="13.8853672786">
        <ele>406</ele>
        <time>2011-05-24T11:54:22Z</time>
        <extensions><gpxtpx:TrackPointExtension><gpxtpx:hr>141</gpxtpx:hr></gpxtpx:TrackPointExtension></extensions>
      </trkpt>
      <trkpt lat="61.1139325895" lon="13.8854769977">
        <ele>406</ele>
        <time>2011-05-24T11:54:23Z</time>
        <extensions><gpxtpx:TrackPointExtension><gpxtpx:hr>140</gpxtpx:hr></gpxtpx:TrackPointExtension></extensions>
      </trkpt>
      <trkpt lat="61.1138818791" lon="13.8857909836">
        <ele>406</ele>
        <time>2011-05-24T11:54:26Z</time>
        <extensions><gpxtpx:TrackPointExtension><gpxtpx:hr>139</gpxtpx:hr></gpxtpx:TrackPointExtension></extensions>
      </trkpt>
      <trkpt lat="61.1138294084" lon="13.8862655668">
        <ele>406</ele>
        <time>2011-05-24T11:54:31Z</time>
        <extensions><gpxtpx:TrackPointExtension><gpxtpx:hr>138</gpxtpx:hr></gpxtpx:TrackPointExtension></extensions>
      </trkpt>
      <trkpt lat="61.1138195177" lon="13.8865920418">
        <ele>406</ele>
        <time>2011-05-24T11:54:35Z</time>
        <extensions><gpxtpx:TrackPointExtension><gpxtpx:hr>136</gpxtpx:hr></gpxtpx:TrackPointExtension></extensions>
      </trkpt>
      <trkpt lat="61.1138294922" lon="13.8868447561">
        <ele>406</ele>
        <time>2011-05-24T11:54:38Z</time>
        <extensions><gpxtpx:TrackPointExtension><gpxtpx:hr>134</gpxtpx:hr></gpxtpx:TrackPointExtension></extensions>
      </trkpt>
      <trkpt lat="61.1138149077" lon="13.887237951">
        <ele>406</ele>
        <time>2011-05-24T11:54:44Z</time>
        <extensions><gpxtpx:TrackPointExtension><gpxtpx:hr>136</gpxtpx:hr></gpxtpx:TrackPointExtension></extensions>
      </trkpt>
      <trkpt lat="61.1138440767" lon="13.8876303078">
        <ele>406</ele>
        <time>2011-05-24T11:54:50Z</time>
        <extensions><gpxtpx:TrackPointExtension><gpxtpx:hr>140</gpxtpx:hr></gpxtpx:TrackPointExtension></extensions>
      </trkpt>
      <trkpt lat="61.1139118024" lon="13.8878965169">
        <ele>406</ele>
        <time>2011-05-24T11:54:55Z</time>
        <extensions><gpxtpx:TrackPointExtension><gpxtpx:hr>142</gpxtpx:hr></gpxtpx:TrackPointExtension></extensions>
      </trkpt>
      <trkpt lat="61.1140466672" lon="13.888170186">
        <ele>406.6</ele>
        <time>2011-05-24T11:55:01Z</time>
        <extensions><gpxtpx:TrackPointExtension><gpxtpx:hr>146</gpxtpx:hr></gpxtpx:TrackPointExtension></extensions>
      </trkpt>
      <trkpt lat="61.1141877346" lon="13.8884255824">
        <ele>407.6</ele>
        <time>2011-05-24T11:55:07Z</time>
        <extensions><gpxtpx:TrackPointExtension><gpxtpx:hr>149</gpxtpx:hr></gpxtpx:TrackPointExtension></extensions>
      </trkpt>
      <trkpt lat="61.1143345855" lon="13.8885678233">
        <ele>408.6</ele>
        <time>2011-05-24T11:55:13Z</time>
        <extensions><gpxtpx:TrackPointExtension><gpxtpx:hr>149</gpxtpx:hr></gpxtpx:TrackPointExtension></extensions>
      </trkpt>
      <trkpt lat="61.1144845377" lon="13.8888474435">
        <ele>410.2</ele>
        <time>2011-05-24T11:55:19Z</time>
        <extensions><gpxtpx:TrackPointExtension><gpxtpx:hr>148</gpxtpx:hr></gpxtpx:TrackPointExtension></extensions>
      </trkpt>
      <trkpt lat="61.1145361702" lon="13.8891053545">
        <ele>410.6</ele>
        <time>2011-05-24T11:55:21Z</time>
        <extensions><gpxtpx:TrackPointExtension><gpxtpx:hr>148</gpxtpx:hr></gpxtpx:TrackPointExtension></extensions>
      </trkpt>
      <trkpt lat="61.1145563705" lon="13.8896410418">
        <ele>411</ele>
        <time>2011-05-24T11:55:24Z</time>
        <extensions><gpxtpx:TrackPointExtension><gpxtpx:hr>147</gpxtpx:hr></gpxtpx:TrackPointExtension></extensions>
      </trkpt>
      <trkpt lat="61.1145682728" lon="13.8898135413">
        <ele>411.2</ele>
        <time>2011-05-24T11:55:25Z</time>
        <extensions><gpxtpx:TrackPointExtension><gpxtpx:hr>147</gpxtpx:hr></gpxtpx:TrackPointExtension></extensions>
      </trkpt>
      <trkpt lat="61.1145438815" lon="13.8902085802">
        <ele>411.4</ele>
        <time>2011-05-24T11:55:27Z</time>
        <extensions><gpxtpx:TrackPointExtension><gpxtpx:hr>147</gpxtpx:hr></gpxtpx:TrackPointExtension></extensions>
      </trkpt>
      <trkpt lat="61.1145027264" lon="13.8903488932">
        <ele>411.4</ele>
        <time>2011-05-24T11:55:28Z</time>
        <extensions><gpxtpx:TrackPointExtension><gpxtpx:hr>146</gpxtpx:hr></gpxtpx:TrackPointExtension></extensions>
      </trkpt>
      <trkpt lat="61.1144163928" lon="13.8906340455">
        <ele>411.6</ele>
        <time>2011-05-24T11:55:30Z</time>
        <extensions><gpxtpx:TrackPointExtension><gpxtpx:hr>146</gpxtpx:hr></gpxtpx:TrackPointExtension></extensions>
      </trkpt>
      <trkpt lat="61.1143857989" lon="13.8910720836">
        <ele>411.8</ele>
        <time>2011-05-24T11:55:33Z</time>
        <extensions><gpxtpx:TrackPointExtension><gpxtpx:hr>145</gpxtpx:hr></gpxtpx:TrackPointExtension></extensions>
      </trkpt>
      <trkpt lat="61.1143870562" lon="13.8912258076">
        <ele>411.8</ele>
        <time>2011-05-24T11:55:34Z</time>
        <extensions><gpxtpx:TrackPointExtension><gpxtpx:hr>144</gpxtpx:hr></gpxtpx:TrackPointExtension></extensions>
      </trkpt>
      <trkpt lat="61.1143839549" lon="13.891371485">
        <ele>411.8</ele>
        <time>2011-05-24T11:55:35Z</time>
        <extensions><gpxtpx:TrackPointExtension><gpxtpx:hr>144</gpxtpx:hr></gpxtpx:TrackPointExtension></extensions>
      </trkpt>
      <trkpt lat="61.1143503434" lon="13.8916938529">
        <ele>412</ele>
        <time>2011-05-24T11:55:38Z</time>
        <extensions><gpxtpx:TrackPointExtension><gpxtpx:hr>142</gpxtpx:hr></gpxtpx:TrackPointExtension></extensions>
      </trkpt>
      <trkpt lat="61.1143619943" lon="13.8918593116">
        <ele>411.8</ele>
        <time>2011-05-24T11:55:40Z</time>
        <extensions><gpxtpx:TrackPointExtension><gpxtpx:hr>142</gpxtpx:hr></gpxtpx:TrackPointExtension></extensions>
      </trkpt>
      <trkpt lat="61.1143954381" lon="13.892096687">
        <ele>411.4</ele>
        <time>2011-05-24T11:55:43Z</time>
        <extensions><gpxtpx:TrackPointExtension><gpxtpx:hr>138</gpxtpx:hr></gpxtpx:TrackPointExtension></extensions>
      </trkpt>
      <trkpt lat="61.1145043189" lon="13.8925413468">
        <ele>411</ele>
        <time>2011-05-24T11:55:48Z</time>
        <extensions><gpxtpx:TrackPointExtension><gpxtpx:hr>132</gpxtpx:hr></gpxtpx:TrackPointExtension></extensions>
      </trkpt>
      <trkpt lat="61.1146137027" lon="13.8929118268">
        <ele>410.8</ele>
        <time>2011-05-24T11:55:52Z</time>
        <extensions><gpxtpx:TrackPointExtension><gpxtpx:hr>129</gpxtpx:hr></gpxtpx:TrackPointExtension></extensions>
      </trkpt>
      <trkpt lat="61.1147265231" lon="13.8933243839">
        <ele>410.6</ele>
        <time>2011-05-24T11:55:56Z</time>
        <extensions><gpxtpx:TrackPointExtension><gpxtpx:hr>126</gpxtpx:hr></gpxtpx:TrackPointExtension></extensions>
      </trkpt>
      <trkpt lat="61.1148183887" lon="13.8936676227">
        <ele>410.4</ele>
        <time>2011-05-24T11:55:59Z</time>
        <extensions><gpxtpx:TrackPointExtension><gpxtpx:hr>127</gpxtpx:hr></gpxtpx:TrackPointExtension></extensions>
      </trkpt>
      <trkpt lat="61.1149118469" lon="13.8940188243">
        <ele>410.4</ele>
        <time>2011-05-24T11:56:02Z</time>
        <extensions><gpxtpx:TrackPointExtension><gpxtpx:hr>127</gpxtpx:hr></gpxtpx:TrackPointExtension></extensions>
      </trkpt>
      <trkpt lat="61.1150167883" lon="13.894399614">
        <ele>410.4</ele>
        <time>2011-05-24T11:56:05Z</time>
        <extensions><gpxtpx:TrackPointExtension><gpxtpx:hr>127</gpxtpx:hr></gpxtpx:TrackPointExtension></extensions>
      </trkpt>
      <trkpt lat="61.1151255854" lon="13.8947734468">
        <ele>410.4</ele>
        <time>2011-05-24T11:56:08Z</time>
        <extensions><gpxtpx:TrackPointExtension><gpxtpx:hr>127</gpxtpx:hr></gpxtpx:TrackPointExtension></extensions>
      </trkpt>
      <trkpt lat="61.1152348015" lon="13.8951687372">
        <ele>410.4</ele>
        <time>2011-05-24T11:56:11Z</time>
        <extensions><gpxtpx:TrackPointExtension><gpxtpx:hr>129</gpxtpx:hr></gpxtpx:TrackPointExtension></extensions>
      </trkpt>
      <trkpt lat="61.1153394915" lon="13.8955355291">
        <ele>409.8</ele>
        <time>2011-05-24T11:56:14Z</time>
        <extensions><gpxtpx:TrackPointExtension><gpxtpx:hr>127</gpxtpx:hr></gpxtpx:TrackPointExtension></extensions>
      </trkpt>
      <trkpt lat="61.1154537368" lon="13.8958929333">
        <ele>409.4</ele>
        <time>2011-05-24T11:56:17Z</time>
        <extensions><gpxtpx:TrackPointExtension><gpxtpx:hr>125</gpxtpx:hr></gpxtpx:TrackPointExtension></extensions>
      </trkpt>
      <trkpt lat="61.1155797167" lon="13.896241788">
        <ele>409</ele>
        <time>2011-05-24T11:56:20Z</time>
        <extensions><gpxtpx:TrackPointExtension><gpxtpx:hr>124</gpxtpx:hr></gpxtpx:TrackPointExtension></extensions>
      </trkpt>
      <trkpt lat="61.1157139948" lon="13.8965609708">
        <ele>408.8</ele>
        <time>2011-05-24T11:56:23Z</time>
        <extensions><gpxtpx:TrackPointExtension><gpxtpx:hr>124</gpxtpx:hr></gpxtpx:TrackPointExtension></extensions>
      </trkpt>
      <trkpt lat="61.1158669644" lon="13.896856768">
        <ele>408.6</ele>
        <time>2011-05-24T11:56:26Z</time>
        <extensions><gpxtpx:TrackPointExtension><gpxtpx:hr>123</gpxtpx:hr></gpxtpx:TrackPointExtension></extensions>
      </trkpt>
      <trkpt lat="61.116028316" lon="13.8971236477">
        <ele>408.6</ele>
        <time>2011-05-24T11:56:29Z</time>
        <extensions><gpxtpx:TrackPointExtension><gpxtpx:hr>122</gpxtpx:hr></gpxtpx:TrackPointExtension></extensions>
      </trkpt>
      <trkpt lat="61.1162064314" lon="13.8973825646">
        <ele>408.4</ele>
        <time>2011-05-24T11:56:32Z</time>
        <extensions><gpxtpx:TrackPointExtension><gpxtpx:hr>122</gpxtpx:hr></gpxtpx:TrackPointExtension></extensions>
      </trkpt>
      <trkpt lat="61.1163920066" lon="13.8976202753">
        <ele>408.4</ele>
        <time>2011-05-24T11:56:35Z</time>
        <extensions><gpxtpx:TrackPointExtension><gpxtpx:hr>122</gpxtpx:hr></gpxtpx:TrackPointExtension></extensions>
      </trkpt>
      <trkpt lat="61.1165907415" lon="13.8978241231">
        <ele>408.4</ele>
        <time>2011-05-24T11:56:38Z</time>
        <extensions><gpxtpx:TrackPointExtension><gpxtpx:hr>123</gpxtpx:hr></gpxtpx:TrackPointExtension></extensions>
      </trkpt>
      <trkpt lat="61.1168123589" lon="13.8980145599">
        <ele>408.4</ele>
        <time>2011-05-24T11:56:41Z</time>
        <extensions><gpxtpx:TrackPointExtension><gpxtpx:hr>125</gpxtpx:hr></gpxtpx:TrackPointExtension></extensions>
      </trkpt>
      <trkpt lat="61.1170406819" lon="13.8982008895">
        <ele>408.4</ele>
        <time>2011-05-24T11:56:44Z</time>
        <extensions><gpxtpx:TrackPointExtension><gpxtpx:hr>127</gpxtpx:hr></gpxtpx:TrackPointExtension></extensions>
      </trkpt>
      <trkpt lat="61.1172788955" lon="13.8983892308">
        <ele>408.2</ele>
        <time>2011-05-24T11:56:47Z</time>
        <extensions><gpxtpx:TrackPointExtension><gpxtpx:hr>129</gpxtpx:hr></gpxtpx:TrackPointExtension></extensions>
      </trkpt>
      <trkpt lat="61.1175233955" lon="13.8985755604">
        <ele>408.2</ele>
        <time>2011-05-24T11:56:50Z</time>
        <extensions><gpxtpx:TrackPointExtension><gpxtpx:hr>131</gpxtpx:hr></gpxtpx:TrackPointExtension></extensions>
      </trkpt>
      <trkpt lat="61.1177547359" lon="13.8987635664">
        <ele>408.2</ele>
        <time>2011-05-24T11:56:53Z</time>
        <extensions><gpxtpx:TrackPointExtension><gpxtpx:hr>131</gpxtpx:hr></gpxtpx:TrackPointExtension></extensions>
      </trkpt>
      <trkpt lat="61.117923296" lon="13.8989227387">
        <ele>408.2</ele>
        <time>2011-05-24T11:56:55Z</time>
        <extensions><gpxtpx:TrackPointExtension><gpxtpx:hr>131</gpxtpx:hr></gpxtpx:TrackPointExtension></extensions>
      </trkpt>
      <trkpt lat="61.1181444943" lon="13.8991729384">
        <ele>408.2</ele>
        <time>2011-05-24T11:56:58Z</time>
        <extensions><gpxtpx:TrackPointExtension><gpxtpx:hr>132</gpxtpx:hr></gpxtpx:TrackPointExtension></extensions>
      </trkpt>
      <trkpt lat="61.11830023" lon="13.899379217">
        <ele>408.2</ele>
        <time>2011-05-24T11:57:00Z</time>
        <extensions><gpxtpx:TrackPointExtension><gpxtpx:hr>132</gpxtpx:hr></gpxtpx:TrackPointExtension></extensions>
      </trkpt>
      <trkpt lat="61.1184479191" lon="13.8995903571">
        <ele>408.2</ele>
        <time>2011-05-24T11:57:02Z</time>
        <extensions><gpxtpx:TrackPointExtension><gpxtpx:hr>133</gpxtpx:hr></gpxtpx:TrackPointExtension></extensions>
      </trkpt>
      <trkpt lat="61.118655874" lon="13.8999363619">
        <ele>408.2</ele>
        <time>2011-05-24T11:57:05Z</time>
        <extensions><gpxtpx:TrackPointExtension><gpxtpx:hr>134</gpxtpx:hr></gpxtpx:TrackPointExtension></extensions>
      </trkpt>
      <trkpt lat="61.1188461431" lon="13.9003274614">
        <ele>408.2</ele>
        <time>2011-05-24T11:57:08Z</time>
        <extensions><gpxtpx:TrackPointExtension><gpxtpx:hr>135</gpxtpx:hr></gpxtpx:TrackPointExtension></extensions>
      </trkpt>
      <trkpt lat="61.1190151223" lon="13.9007638231">
        <ele>408.2</ele>
        <time>2011-05-24T11:57:11Z</time>
        <extensions><gpxtpx:TrackPointExtension><gpxtpx:hr>137</gpxtpx:hr></gpxtpx:TrackPointExtension></extensions>
      </trkpt>
      <trkpt lat="61.1191602129" lon="13.9011897912">
        <ele>408.2</ele>
        <time>2011-05-24T11:57:14Z</time>
        <extensions><gpxtpx:TrackPointExtension><gpxtpx:hr>137</gpxtpx:hr></gpxtpx:TrackPointExtension></extensions>
      </trkpt>
      <trkpt lat="61.1192993525" lon="13.9016091377">
        <ele>408.2</ele>
        <time>2011-05-24T11:57:17Z</time>
        <extensions><gpxtpx:TrackPointExtension><gpxtpx:hr>137</gpxtpx:hr></gpxtpx:TrackPointExtension></extensions>
      </trkpt>
      <trkpt lat="61.1194354745" lon="13.9020432363">
        <ele>408.2</ele>
        <time>2011-05-24T11:57:20Z</time>
        <extensions><gpxtpx:TrackPointExtension><gpxtpx:hr>136</gpxtpx:hr></gpxtpx:TrackPointExtension></extensions>
      </trkpt>
      <trkpt lat="61.1195684115" lon="13.9024556258">
        <ele>408.2</ele>
        <time>2011-05-24T11:57:23Z</time>
        <extensions><gpxtpx:TrackPointExtension><gpxtpx:hr>136</gpxtpx:hr></gpxtpx:TrackPointExtension></extensions>
      </trkpt>
      <trkpt lat="61.1197057908" lon="13.9029002017">
        <ele>408.2</ele>
        <time>2011-05-24T11:57:26Z</time>
        <extensions><gpxtpx:TrackPointExtension><gpxtpx:hr>137</gpxtpx:hr></gpxtpx:TrackPointExtension></extensions>
      </trkpt>
      <trkpt lat="61.1198448465" lon="13.903340922">
        <ele>408.2</ele>
        <time>2011-05-24T11:57:29Z</time>
        <extensions><gpxtpx:TrackPointExtension><gpxtpx:hr>138</gpxtpx:hr></gpxtpx:TrackPointExtension></extensions>
      </trkpt>
      <trkpt lat="61.1199925356" lon="13.9037761103">
        <ele>408</ele>
        <time>2011-05-24T11:57:32Z</time>
        <extensions><gpxtpx:TrackPointExtension><gpxtpx:hr>138</gpxtpx:hr></gpxtpx:TrackPointExtension></extensions>
      </trkpt>
      <trkpt lat="61.120160928" lon="13.9041854823">
        <ele>407.6</ele>
        <time>2011-05-24T11:57:35Z</time>
        <extensions><gpxtpx:TrackPointExtension><gpxtpx:hr>138</gpxtpx:hr></gpxtpx:TrackPointExtension></extensions>
      </trkpt>
      <trkpt lat="61.1203523706" lon="13.9045557108">
        <ele>407.2</ele>
        <time>2011-05-24T11:57:38Z</time>
        <extensions><gpxtpx:TrackPointExtension><gpxtpx:hr>139</gpxtpx:hr></gpxtpx:TrackPointExtension></extensions>
      </trkpt>
      <trkpt lat="61.1205599064" lon="13.904891825">
        <ele>407</ele>
        <time>2011-05-24T11:57:41Z</time>
        <extensions><gpxtpx:TrackPointExtension><gpxtpx:hr>138</gpxtpx:hr></gpxtpx:TrackPointExtension></extensions>
      </trkpt>
      <trkpt lat="61.1207767462" lon="13.9052079064">
        <ele>406.8</ele>
        <time>2011-05-24T11:57:44Z</time>
        <extensions><gpxtpx:TrackPointExtension><gpxtpx:hr>138</gpxtpx:hr></gpxtpx:TrackPointExtension></extensions>
      </trkpt>
      <trkpt lat="61.1210008782" lon="13.9055308611">
        <ele>406.6</ele>
        <time>2011-05-24T11:57:47Z</time>
        <extensions><gpxtpx:TrackPointExtension><gpxtpx:hr>138</gpxtpx:hr></gpxtpx:TrackPointExtension></extensions>
      </trkpt>
      <trkpt lat="61.1211504951" lon="13.9057451862">
        <ele>406.6</ele>
        <time>2011-05-24T11:57:49Z</time>
        <extensions><gpxtpx:TrackPointExtension><gpxtpx:hr>138</gpxtpx:hr></gpxtpx:TrackPointExtension></extensions>
      </trkpt>
      <trkpt lat="61.1213048059" lon="13.9059678933">
        <ele>406.4</ele>
        <time>2011-05-24T11:57:51Z</time>
        <extensions><gpxtpx:TrackPointExtension><gpxtpx:hr>138</gpxtpx:hr></gpxtpx:TrackPointExtension></extensions>
      </trkpt>
      <trkpt lat="61.1215373198" lon="13.9063008224">
        <ele>406.4</ele>
        <time>2011-05-24T11:57:54Z</time>
        <extensions><gpxtpx:TrackPointExtension><gpxtpx:hr>139</gpxtpx:hr></gpxtpx:TrackPointExtension></extensions>
      </trkpt>
      <trkpt lat="61.1216868529" lon="13.9065203443">
        <ele>406.4</ele>
        <time>2011-05-24T11:57:56Z</time>
        <extensions><gpxtpx:TrackPointExtension><gpxtpx:hr>140</gpxtpx:hr></gpxtpx:TrackPointExtension></extensions>
      </trkpt>
      <trkpt lat="61.1219172713" lon="13.906846065">
        <ele>406.4</ele>
        <time>2011-05-24T11:57:59Z</time>
        <extensions><gpxtpx:TrackPointExtension><gpxtpx:hr>141</gpxtpx:hr></gpxtpx:TrackPointExtension></extensions>
      </trkpt>
      <trkpt lat="61.1220722526" lon="13.9070687721">
        <ele>406.4</ele>
        <time>2011-05-24T11:58:01Z</time>
        <extensions><gpxtpx:TrackPointExtension><gpxtpx:hr>140</gpxtpx:hr></gpxtpx:TrackPointExtension></extensions>
      </trkpt>
      <trkpt lat="61.1222802914" lon="13.9073825066">
        <ele>406.2</ele>
        <time>2011-05-24T11:58:04Z</time>
        <extensions><gpxtpx:TrackPointExtension><gpxtpx:hr>141</gpxtpx:hr></gpxtpx:TrackPointExtension></extensions>
      </trkpt>
      <trkpt lat="61.1224267232" lon="13.9076151043">
        <ele>406.2</ele>
        <time>2011-05-24T11:58:06Z</time>
        <extensions><gpxtpx:TrackPointExtension><gpxtpx:hr>140</gpxtpx:hr></gpxtpx:TrackPointExtension></extensions>
      </trkpt>
      <trkpt lat="61.1226435629" lon="13.907970413">
        <ele>406.2</ele>
        <time>2011-05-24T11:58:09Z</time>
        <extensions><gpxtpx:TrackPointExtension><gpxtpx:hr>140</gpxtpx:hr></gpxtpx:TrackPointExtension></extensions>
      </trkpt>
      <trkpt lat="61.1228640069" lon="13.9083273143">
        <ele>406.2</ele>
        <time>2011-05-24T11:58:12Z</time>
        <extensions><gpxtpx:TrackPointExtension><gpxtpx:hr>141</gpxtpx:hr></gpxtpx:TrackPointExtension></extensions>
      </trkpt>
      <trkpt lat="61.123011696" lon="13.9085666176">
        <ele>406.2</ele>
        <time>2011-05-24T11:58:14Z</time>
        <extensions><gpxtpx:TrackPointExtension><gpxtpx:hr>141</gpxtpx:hr></gpxtpx:TrackPointExtension></extensions>
      </trkpt>
      <trkpt lat="61.1231549427" lon="13.9088019813">
        <ele>406.2</ele>
        <time>2011-05-24T11:58:16Z</time>
        <extensions><gpxtpx:TrackPointExtension><gpxtpx:hr>141</gpxtpx:hr></gpxtpx:TrackPointExtension></extensions>
      </trkpt>
      <trkpt lat="61.1232991113" lon="13.9090344953">
        <ele>406.2</ele>
        <time>2011-05-24T11:58:18Z</time>
        <extensions><gpxtpx:TrackPointExtension><gpxtpx:hr>141</gpxtpx:hr></gpxtpx:TrackPointExtension></extensions>
      </trkpt>
      <trkpt lat="61.1234530868" lon="13.9092932445">
        <ele>406.2</ele>
        <time>2011-05-24T11:58:20Z</time>
        <extensions><gpxtpx:TrackPointExtension><gpxtpx:hr>142</gpxtpx:hr></gpxtpx:TrackPointExtension></extensions>
      </trkpt>
      <trkpt lat="61.1235902147" lon="13.9095460426">
        <ele>406.2</ele>
        <time>2011-05-24T11:58:22Z</time>
        <extensions><gpxtpx:TrackPointExtension><gpxtpx:hr>142</gpxtpx:hr></gpxtpx:TrackPointExtension></extensions>
      </trkpt>
      <trkpt lat="61.1237306116" lon="13.9098212204">
        <ele>406.2</ele>
        <time>2011-05-24T11:58:24Z</time>
        <extensions><gpxtpx:TrackPointExtension><gpxtpx:hr>141</gpxtpx:hr></gpxtpx:TrackPointExtension></extensions>
      </trkpt>
      <trkpt lat="61.1238555857" lon="13.9101144192">
        <ele>406.2</ele>
        <time>2011-05-24T11:58:26Z</time>
        <extensions><gpxtpx:TrackPointExtension><gpxtpx:hr>141</gpxtpx:hr></gpxtpx:TrackPointExtension></extensions>
      </trkpt>
      <trkpt lat="61.1239644666" lon="13.9104223703">
        <ele>406.2</ele>
        <time>2011-05-24T11:58:28Z</time>
        <extensions><gpxtpx:TrackPointExtension><gpxtpx:hr>141</gpxtpx:hr></gpxtpx:TrackPointExtension></extensions>
      </trkpt>
      <trkpt lat="61.1240680668" lon="13.9107729851">
        <ele>406.2</ele>
        <time>2011-05-24T11:58:30Z</time>
        <extensions><gpxtpx:TrackPointExtension><gpxtpx:hr>142</gpxtpx:hr></gpxtpx:TrackPointExtension></extensions>
      </trkpt>
      <trkpt lat="61.1241626985" lon="13.9111062495">
        <ele>406.2</ele>
        <time>2011-05-24T11:58:32Z</time>
        <extensions><gpxtpx:TrackPointExtension><gpxtpx:hr>142</gpxtpx:hr></gpxtpx:TrackPointExtension></extensions>
      </trkpt>
      <trkpt lat="61.1242587551" lon="13.9114385918">
        <ele>406.2</ele>
        <time>2011-05-24T11:58:34Z</time>
        <extensions><gpxtpx:TrackPointExtension><gpxtpx:hr>143</gpxtpx:hr></gpxtpx:TrackPointExtension></extensions>
      </trkpt>
      <trkpt lat="61.1243585835" lon="13.9117781426">
        <ele>406.2</ele>
        <time>2011-05-24T11:58:36Z</time>
        <extensions><gpxtpx:TrackPointExtension><gpxtpx:hr>143</gpxtpx:hr></gpxtpx:TrackPointExtension></extensions>
      </trkpt>
      <trkpt lat="61.124494035" lon="13.9122465232">
        <ele>406.2</ele>
        <time>2011-05-24T11:58:39Z</time>
        <extensions><gpxtpx:TrackPointExtension><gpxtpx:hr>144</gpxtpx:hr></gpxtpx:TrackPointExtension></extensions>
      </trkpt>
      <trkpt lat="61.1245859844" lon="13.9125709027">
        <ele>406.2</ele>
        <time>2011-05-24T11:58:41Z</time>
        <extensions><gpxtpx:TrackPointExtension><gpxtpx:hr>145</gpxtpx:hr></gpxtpx:TrackPointExtension></extensions>
      </trkpt>
      <trkpt lat="61.1247191728" lon="13.9130511017">
        <ele>406.2</ele>
        <time>2011-05-24T11:58:44Z</time>
        <extensions><gpxtpx:TrackPointExtension><gpxtpx:hr>145</gpxtpx:hr></gpxtpx:TrackPointExtension></extensions>
      </trkpt>
      <trkpt lat="61.124852445" lon="13.9135143693">
        <ele>406.2</ele>
        <time>2011-05-24T11:58:47Z</time>
        <extensions><gpxtpx:TrackPointExtension><gpxtpx:hr>144</gpxtpx:hr></gpxtpx:TrackPointExtension></extensions>
      </trkpt>
      <trkpt lat="61.1249812749" lon="13.9139412595">
        <ele>406.2</ele>
        <time>2011-05-24T11:58:50Z</time>
        <extensions><gpxtpx:TrackPointExtension><gpxtpx:hr>144</gpxtpx:hr></gpxtpx:TrackPointExtension></extensions>
      </trkpt>
      <trkpt lat="61.1251241862" lon="13.9143492904">
        <ele>406.2</ele>
        <time>2011-05-24T11:58:53Z</time>
        <extensions><gpxtpx:TrackPointExtension><gpxtpx:hr>144</gpxtpx:hr></gpxtpx:TrackPointExtension></extensions>
      </trkpt>
      <trkpt lat="61.1253204065" lon="13.9147225364">
        <ele>406.2</ele>
        <time>2011-05-24T11:58:56Z</time>
        <extensions><gpxtpx:TrackPointExtension><gpxtpx:hr>144</gpxtpx:hr></gpxtpx:TrackPointExtension></extensions>
      </trkpt>
      <trkpt lat="61.1253949216" lon="13.9148273102">
        <ele>406.2</ele>
        <time>2011-05-24T11:58:57Z</time>
        <extensions><gpxtpx:TrackPointExtension><gpxtpx:hr>144</gpxtpx:hr></gpxtpx:TrackPointExtension></extensions>
      </trkpt>
      <trkpt lat="61.1255636493" lon="13.9149982171">
        <ele>406.2</ele>
        <time>2011-05-24T11:58:59Z</time>
        <extensions><gpxtpx:TrackPointExtension><gpxtpx:hr>144</gpxtpx:hr></gpxtpx:TrackPointExtension></extensions>
      </trkpt>
      <trkpt lat="61.1256514078" lon="13.9150632606">
        <ele>406.2</ele>
        <time>2011-05-24T11:59:00Z</time>
        <extensions><gpxtpx:TrackPointExtension><gpxtpx:hr>143</gpxtpx:hr></gpxtpx:TrackPointExtension></extensions>
      </trkpt>
      <trkpt lat="61.1259924673" lon="13.9152510152">
        <ele>406.2</ele>
        <time>2011-05-24T11:59:04Z</time>
        <extensions><gpxtpx:TrackPointExtension><gpxtpx:hr>144</gpxtpx:hr></gpxtpx:TrackPointExtension></extensions>
      </trkpt>
      <trkpt lat="61.1262476961" lon="13.9153771628">
        <ele>406.2</ele>
        <time>2011-05-24T11:59:07Z</time>
        <extensions><gpxtpx:TrackPointExtension><gpxtpx:hr>144</gpxtpx:hr></gpxtpx:TrackPointExtension></extensions>
      </trkpt>
      <trkpt lat="61.1264716605" lon="13.9154922463">
        <ele>406.2</ele>
        <time>2011-05-24T11:59:10Z</time>
        <extensions><gpxtpx:TrackPointExtension><gpxtpx:hr>142</gpxtpx:hr></gpxtpx:TrackPointExtension></extensions>
      </trkpt>
      <trkpt lat="61.1266854828" lon="13.9155990317">
        <ele>406.2</ele>
        <time>2011-05-24T11:59:13Z</time>
        <extensions><gpxtpx:TrackPointExtension><gpxtpx:hr>142</gpxtpx:hr></gpxtpx:TrackPointExtension></extensions>
      </trkpt>
      <trkpt lat="61.1268885762" lon="13.9156988601">
        <ele>406.2</ele>
        <time>2011-05-24T11:59:16Z</time>
        <extensions><gpxtpx:TrackPointExtension><gpxtpx:hr>141</gpxtpx:hr></gpxtpx:TrackPointExtension></extensions>
      </trkpt>
      <trkpt lat="61.1270694576" lon="13.915783685">
        <ele>406.2</ele>
        <time>2011-05-24T11:59:19Z</time>
        <extensions><gpxtpx:TrackPointExtension><gpxtpx:hr>140</gpxtpx:hr></gpxtpx:TrackPointExtension></extensions>
      </trkpt>
      <trkpt lat="61.1272759038" lon="13.9158778975">
        <ele>406.2</ele>
        <time>2011-05-24T11:59:23Z</time>
        <extensions><gpxtpx:TrackPointExtension><gpxtpx:hr>139</gpxtpx:hr></gpxtpx:TrackPointExtension></extensions>
      </trkpt>
      <trkpt lat="61.1274571205" lon="13.9159598725">
        <ele>406.2</ele>
        <time>2011-05-24T11:59:26Z</time>
        <extensions><gpxtpx:TrackPointExtension><gpxtpx:hr>138</gpxtpx:hr></gpxtpx:TrackPointExtension></extensions>
      </trkpt>
      <trkpt lat="61.1276444559" lon="13.9160519896">
        <ele>406.2</ele>
        <time>2011-05-24T11:59:29Z</time>
        <extensions><gpxtpx:TrackPointExtension><gpxtpx:hr>137</gpxtpx:hr></gpxtpx:TrackPointExtension></extensions>
      </trkpt>
      <trkpt lat="61.1278516565" lon="13.9161654805">
        <ele>406.2</ele>
        <time>2011-05-24T11:59:32Z</time>
        <extensions><gpxtpx:TrackPointExtension><gpxtpx:hr>138</gpxtpx:hr></gpxtpx:TrackPointExtension></extensions>
      </trkpt>
      <trkpt lat="61.1280585218" lon="13.91627872">
        <ele>406.6</ele>
        <time>2011-05-24T11:59:35Z</time>
        <extensions><gpxtpx:TrackPointExtension><gpxtpx:hr>137</gpxtpx:hr></gpxtpx:TrackPointExtension></extensions>
      </trkpt>
      <trkpt lat="61.1282679855" lon="13.9164115731">
        <ele>407</ele>
        <time>2011-05-24T11:59:38Z</time>
        <extensions><gpxtpx:TrackPointExtension><gpxtpx:hr>138</gpxtpx:hr></gpxtpx:TrackPointExtension></extensions>
      </trkpt>
      <trkpt lat="61.1284842385" lon="13.9165764451">
        <ele>407.4</ele>
        <time>2011-05-24T11:59:41Z</time>
        <extensions><gpxtpx:TrackPointExtension><gpxtpx:hr>138</gpxtpx:hr></gpxtpx:TrackPointExtension></extensions>
      </trkpt>
      <trkpt lat="61.1286952109" lon="13.9167785327">
        <ele>407.6</ele>
        <time>2011-05-24T11:59:44Z</time>
        <extensions><gpxtpx:TrackPointExtension><gpxtpx:hr>138</gpxtpx:hr></gpxtpx:TrackPointExtension></extensions>
      </trkpt>
      <trkpt lat="61.1288991426" lon="13.91704558">
        <ele>407.8</ele>
        <time>2011-05-24T11:59:47Z</time>
        <extensions><gpxtpx:TrackPointExtension><gpxtpx:hr>139</gpxtpx:hr></gpxtpx:TrackPointExtension></extensions>
      </trkpt>
      <trkpt lat="61.1290930997" lon="13.9173274633">
        <ele>408</ele>
        <time>2011-05-24T11:59:50Z</time>
        <extensions><gpxtpx:TrackPointExtension><gpxtpx:hr>139</gpxtpx:hr></gpxtpx:TrackPointExtension></extensions>
      </trkpt>
      <trkpt lat="61.1292668565" lon="13.9176312233">
        <ele>408</ele>
        <time>2011-05-24T11:59:53Z</time>
        <extensions><gpxtpx:TrackPointExtension><gpxtpx:hr>139</gpxtpx:hr></gpxtpx:TrackPointExtension></extensions>
      </trkpt>
      <trkpt lat="61.1294614842" lon="13.9179830955">
        <ele>408</ele>
        <time>2011-05-24T11:59:56Z</time>
        <extensions><gpxtpx:TrackPointExtension><gpxtpx:hr>140</gpxtpx:hr></gpxtpx:TrackPointExtension></extensions>
      </trkpt>
      <trkpt lat="61.1296578721" lon="13.9183165275">
        <ele>408.2</ele>
        <time>2011-05-24T11:59:59Z</time>
        <extensions><gpxtpx:TrackPointExtension><gpxtpx:hr>142</gpxtpx:hr></gpxtpx:TrackPointExtension></extensions>
      </trkpt>
      <trkpt lat="61.129870018" lon="13.9186326928">
        <ele>408.2</ele>
        <time>2011-05-24T12:00:02Z</time>
        <extensions><gpxtpx:TrackPointExtension><gpxtpx:hr>143</gpxtpx:hr></gpxtpx:TrackPointExtension></extensions>
      </trkpt>
      <trkpt lat="61.1301097404" lon="13.9189168392">
        <ele>408.2</ele>
        <time>2011-05-24T12:00:05Z</time>
        <extensions><gpxtpx:TrackPointExtension><gpxtpx:hr>144</gpxtpx:hr></gpxtpx:TrackPointExtension></extensions>
      </trkpt>
      <trkpt lat="61.130285425" lon="13.9190957089">
        <ele>408.2</ele>
        <time>2011-05-24T12:00:07Z</time>
        <extensions><gpxtpx:TrackPointExtension><gpxtpx:hr>144</gpxtpx:hr></gpxtpx:TrackPointExtension></extensions>
      </trkpt>
      <trkpt lat="61.1304676475" lon="13.9192605809">
        <ele>408.2</ele>
        <time>2011-05-24T12:00:09Z</time>
        <extensions><gpxtpx:TrackPointExtension><gpxtpx:hr>145</gpxtpx:hr></gpxtpx:TrackPointExtension></extensions>
      </trkpt>
      <trkpt lat="61.1306486965" lon="13.9194137182">
        <ele>408.2</ele>
        <time>2011-05-24T12:00:11Z</time>
        <extensions><gpxtpx:TrackPointExtension><gpxtpx:hr>145</gpxtpx:hr></gpxtpx:TrackPointExtension></extensions>
      </trkpt>
      <trkpt lat="61.1308233753" lon="13.9195686157">
        <ele>408.2</ele>
        <time>2011-05-24T12:00:13Z</time>
        <extensions><gpxtpx:TrackPointExtension><gpxtpx:hr>144</gpxtpx:hr></gpxtpx:TrackPointExtension></extensions>
      </trkpt>
      <trkpt lat="61.1309942823" lon="13.9197237647">
        <ele>408.2</ele>
        <time>2011-05-24T12:00:15Z</time>
        <extensions><gpxtpx:TrackPointExtension><gpxtpx:hr>144</gpxtpx:hr></gpxtpx:TrackPointExtension></extensions>
      </trkpt>
      <trkpt lat="61.1311894967" lon="13.9198943363">
        <ele>408.2</ele>
        <time>2011-05-24T12:00:17Z</time>
        <extensions><gpxtpx:TrackPointExtension><gpxtpx:hr>144</gpxtpx:hr></gpxtpx:TrackPointExtension></extensions>
      </trkpt>
      <trkpt lat="61.1313671092" lon="13.9200464678">
        <ele>408.2</ele>
        <time>2011-05-24T12:00:19Z</time>
        <extensions><gpxtpx:TrackPointExtension><gpxtpx:hr>145</gpxtpx:hr></gpxtpx:TrackPointExtension></extensions>
      </trkpt>
      <trkpt lat="61.1316121121" lon="13.9202675824">
        <ele>408.2</ele>
        <time>2011-05-24T12:00:22Z</time>
        <extensions><gpxtpx:TrackPointExtension><gpxtpx:hr>145</gpxtpx:hr></gpxtpx:TrackPointExtension></extensions>
      </trkpt>
      <trkpt lat="61.1318022974" lon="13.9204358909">
        <ele>408.2</ele>
        <time>2011-05-24T12:00:24Z</time>
        <extensions><gpxtpx:TrackPointExtension><gpxtpx:hr>147</gpxtpx:hr></gpxtpx:TrackPointExtension></extensions>
      </trkpt>
      <trkpt lat="61.1319702707" lon="13.9205830771">
        <ele>408.2</ele>
        <time>2011-05-24T12:00:26Z</time>
        <extensions><gpxtpx:TrackPointExtension><gpxtpx:hr>148</gpxtpx:hr></gpxtpx:TrackPointExtension></extensions>
      </trkpt>
      <trkpt lat="61.1321432731" lon="13.9207445125">
        <ele>408.6</ele>
        <time>2011-05-24T12:00:28Z</time>
        <extensions><gpxtpx:TrackPointExtension><gpxtpx:hr>149</gpxtpx:hr></gpxtpx:TrackPointExtension></extensions>
      </trkpt>
      <trkpt lat="61.1323314468" lon="13.9209156709">
        <ele>409</ele>
        <time>2011-05-24T12:00:30Z</time>
        <extensions><gpxtpx:TrackPointExtension><gpxtpx:hr>150</gpxtpx:hr></gpxtpx:TrackPointExtension></extensions>
      </trkpt>
      <trkpt lat="61.1325037786" lon="13.9210726639">
        <ele>409.2</ele>
        <time>2011-05-24T12:00:32Z</time>
        <extensions><gpxtpx:TrackPointExtension><gpxtpx:hr>151</gpxtpx:hr></gpxtpx:TrackPointExtension></extensions>
      </trkpt>
      <trkpt lat="61.1327373822" lon="13.9212806188">
        <ele>409.4</ele>
        <time>2011-05-24T12:00:35Z</time>
        <extensions><gpxtpx:TrackPointExtension><gpxtpx:hr>152</gpxtpx:hr></gpxtpx:TrackPointExtension></extensions>
      </trkpt>
      <trkpt lat="61.1329159167" lon="13.9214423056">
        <ele>409.6</ele>
        <time>2011-05-24T12:00:37Z</time>
        <extensions><gpxtpx:TrackPointExtension><gpxtpx:hr>152</gpxtpx:hr></gpxtpx:TrackPointExtension></extensions>
      </trkpt>
      <trkpt lat="61.1331497717" lon="13.9216580557">
        <ele>409.8</ele>
        <time>2011-05-24T12:00:40Z</time>
        <extensions><gpxtpx:TrackPointExtension><gpxtpx:hr>153</gpxtpx:hr></gpxtpx:TrackPointExtension></extensions>
      </trkpt>
      <trkpt lat="61.133355715" lon="13.9218461456">
        <ele>410</ele>
        <time>2011-05-24T12:00:43Z</time>
        <extensions><gpxtpx:TrackPointExtension><gpxtpx:hr>152</gpxtpx:hr></gpxtpx:TrackPointExtension></extensions>
      </trkpt>
      <trkpt lat="61.1335430504" lon="13.9220102632">
        <ele>410</ele>
        <time>2011-05-24T12:00:46Z</time>
        <extensions><gpxtpx:TrackPointExtension><gpxtpx:hr>152</gpxtpx:hr></gpxtpx:TrackPointExtension></extensions>
      </trkpt>
      <trkpt lat="61.1336374306" lon="13.922101123">
        <ele>410</ele>
        <time>2011-05-24T12:00:48Z</time>
        <extensions><gpxtpx:TrackPointExtension><gpxtpx:hr>151</gpxtpx:hr></gpxtpx:TrackPointExtension></extensions>
      </trkpt>
      <trkpt lat="61.1337000434" lon="13.9221775659">
        <ele>410.2</ele>
        <time>2011-05-24T12:00:51Z</time>
        <extensions><gpxtpx:TrackPointExtension><gpxtpx:hr>148</gpxtpx:hr></gpxtpx:TrackPointExtension></extensions>
      </trkpt>
      <trkpt lat="61.133759974" lon="13.922175219">
        <ele>410.2</ele>
        <time>2011-05-24T12:00:57Z</time>
        <extensions><gpxtpx:TrackPointExtension><gpxtpx:hr>144</gpxtpx:hr></gpxtpx:TrackPointExtension></extensions>
      </trkpt>
      <trkpt lat="61.1337682721" lon="13.9221830141">
        <ele>410.2</ele>
        <time>2011-05-24T12:00:58Z</time>
        <extensions><gpxtpx:TrackPointExtension><gpxtpx:hr>143</gpxtpx:hr></gpxtpx:TrackPointExtension></extensions>
      </trkpt>
      <trkpt lat="61.1337759834" lon="13.9222013705">
        <ele>410.2</ele>
        <time>2011-05-24T12:00:59Z</time>
        <extensions><gpxtpx:TrackPointExtension><gpxtpx:hr>143</gpxtpx:hr></gpxtpx:TrackPointExtension></extensions>
      </trkpt>
      <trkpt lat="61.1338068288" lon="13.9222117641">
        <ele>410.2</ele>
        <time>2011-05-24T12:01:03Z</time>
        <extensions><gpxtpx:TrackPointExtension><gpxtpx:hr>141</gpxtpx:hr></gpxtpx:TrackPointExtension></extensions>
      </trkpt>
      <trkpt lat="61.1337441322" lon="13.9221726206">
        <ele>410.2</ele>
        <time>2011-05-24T12:01:07Z</time>
        <extensions><gpxtpx:TrackPointExtension><gpxtpx:hr>138</gpxtpx:hr></gpxtpx:TrackPointExtension></extensions>
      </trkpt>
      <trkpt lat="61.1336971097" lon="13.9221970957">
        <ele>410.2</ele>
        <time>2011-05-24T12:01:10Z</time>
        <extensions><gpxtpx:TrackPointExtension><gpxtpx:hr>136</gpxtpx:hr></gpxtpx:TrackPointExtension></extensions>
      </trkpt>
      <trkpt lat="61.1336903204" lon="13.9221869536">
        <ele>410.2</ele>
        <time>2011-05-24T12:01:19Z</time>
        <extensions><gpxtpx:TrackPointExtension><gpxtpx:hr>130</gpxtpx:hr></gpxtpx:TrackPointExtension></extensions>
      </trkpt>
      <trkpt lat="61.1336875544" lon="13.9221859478">
        <ele>410.2</ele>
        <time>2011-05-24T12:01:27Z</time>
        <extensions><gpxtpx:TrackPointExtension><gpxtpx:hr>125</gpxtpx:hr></gpxtpx:TrackPointExtension></extensions>
      </trkpt>
      <trkpt lat="61.1336862971" lon="13.9221847743">
        <ele>410.2</ele>
        <time>2011-05-24T12:01:34Z</time>
        <extensions><gpxtpx:TrackPointExtension><gpxtpx:hr>120</gpxtpx:hr></gpxtpx:TrackPointExtension></extensions>
      </trkpt>
      <trkpt lat="61.1336863809" lon="13.9221845229">
        <ele>410.2</ele>
        <time>2011-05-24T12:01:39Z</time>
        <extensions><gpxtpx:TrackPointExtension><gpxtpx:hr>115</gpxtpx:hr></gpxtpx:TrackPointExtension></extensions>
      </trkpt>
      <trkpt lat="61.1336741433" lon="13.9221790747">
        <ele>410.2</ele>
        <time>2011-05-24T12:01:51Z</time>
        <extensions><gpxtpx:TrackPointExtension><gpxtpx:hr>114</gpxtpx:hr></gpxtpx:TrackPointExtension></extensions>
      </trkpt>
      <trkpt lat="61.133657631" lon="13.9221562759">
        <ele>410.2</ele>
        <time>2011-05-24T12:01:53Z</time>
        <extensions><gpxtpx:TrackPointExtension><gpxtpx:hr>114</gpxtpx:hr></gpxtpx:TrackPointExtension></extensions>
      </trkpt>
      <trkpt lat="61.1336995405" lon="13.9221069903">
        <ele>410.2</ele>
        <time>2011-05-24T12:01:57Z</time>
        <extensions><gpxtpx:TrackPointExtension><gpxtpx:hr>115</gpxtpx:hr></gpxtpx:TrackPointExtension></extensions>
      </trkpt>
      <trkpt lat="61.13372477" lon="13.9221313816">
        <ele>410.2</ele>
        <time>2011-05-24T12:01:58Z</time>
        <extensions><gpxtpx:TrackPointExtension><gpxtpx:hr>115</gpxtpx:hr></gpxtpx:TrackPointExtension></extensions>
      </trkpt>
      <trkpt lat="61.1338983592" lon="13.9223266799">
        <ele>410.2</ele>
        <time>2011-05-24T12:02:02Z</time>
        <extensions><gpxtpx:TrackPointExtension><gpxtpx:hr>116</gpxtpx:hr></gpxtpx:TrackPointExtension></extensions>
      </trkpt>
      <trkpt lat="61.1341279394" lon="13.9225408375">
        <ele>410.2</ele>
        <time>2011-05-24T12:02:06Z</time>
        <extensions><gpxtpx:TrackPointExtension><gpxtpx:hr>122</gpxtpx:hr></gpxtpx:TrackPointExtension></extensions>
      </trkpt>
      <trkpt lat="61.1343159454" lon="13.9227114929">
        <ele>410.2</ele>
        <time>2011-05-24T12:02:09Z</time>
        <extensions><gpxtpx:TrackPointExtension><gpxtpx:hr>128</gpxtpx:hr></gpxtpx:TrackPointExtension></extensions>
      </trkpt>
      <trkpt lat="61.1343799831" lon="13.9227697471">
        <ele>410.2</ele>
        <time>2011-05-24T12:02:10Z</time>
        <extensions><gpxtpx:TrackPointExtension><gpxtpx:hr>128</gpxtpx:hr></gpxtpx:TrackPointExtension></extensions>
      </trkpt>
      <trkpt lat="61.1345816517" lon="13.9229647101">
        <ele>410.2</ele>
        <time>2011-05-24T12:02:13Z</time>
        <extensions><gpxtpx:TrackPointExtension><gpxtpx:hr>132</gpxtpx:hr></gpxtpx:TrackPointExtension></extensions>
      </trkpt>
      <trkpt lat="61.1347875111" lon="13.9232002415">
        <ele>410.2</ele>
        <time>2011-05-24T12:02:16Z</time>
        <extensions><gpxtpx:TrackPointExtension><gpxtpx:hr>135</gpxtpx:hr></gpxtpx:TrackPointExtension></extensions>
      </trkpt>
      <trkpt lat="61.1348529738" lon="13.9232950408">
        <ele>410.6</ele>
        <time>2011-05-24T12:02:17Z</time>
        <extensions><gpxtpx:TrackPointExtension><gpxtpx:hr>136</gpxtpx:hr></gpxtpx:TrackPointExtension></extensions>
      </trkpt>
      <trkpt lat="61.1349731702" lon="13.9235050074">
        <ele>410.8</ele>
        <time>2011-05-24T12:02:19Z</time>
        <extensions><gpxtpx:TrackPointExtension><gpxtpx:hr>138</gpxtpx:hr></gpxtpx:TrackPointExtension></extensions>
      </trkpt>
      <trkpt lat="61.1351707316" lon="13.9240188179">
        <ele>411.4</ele>
        <time>2011-05-24T12:02:23Z</time>
        <extensions><gpxtpx:TrackPointExtension><gpxtpx:hr>141</gpxtpx:hr></gpxtpx:TrackPointExtension></extensions>
      </trkpt>
      <trkpt lat="61.1352886649" lon="13.9244904674">
        <ele>411.6</ele>
        <time>2011-05-24T12:02:26Z</time>
        <extensions><gpxtpx:TrackPointExtension><gpxtpx:hr>144</gpxtpx:hr></gpxtpx:TrackPointExtension></extensions>
      </trkpt>
      <trkpt lat="61.1353715619" lon="13.9249585965">
        <ele>411.8</ele>
        <time>2011-05-24T12:02:29Z</time>
        <extensions><gpxtpx:TrackPointExtension><gpxtpx:hr>145</gpxtpx:hr></gpxtpx:TrackPointExtension></extensions>
      </trkpt>
      <trkpt lat="61.1354473343" lon="13.9254356104">
        <ele>412</ele>
        <time>2011-05-24T12:02:32Z</time>
        <extensions><gpxtpx:TrackPointExtension><gpxtpx:hr>145</gpxtpx:hr></gpxtpx:TrackPointExtension></extensions>
      </trkpt>
      <trkpt lat="61.135517407" lon="13.9258852994">
        <ele>412.2</ele>
        <time>2011-05-24T12:02:35Z</time>
        <extensions><gpxtpx:TrackPointExtension><gpxtpx:hr>145</gpxtpx:hr></gpxtpx:TrackPointExtension></extensions>
      </trkpt>
      <trkpt lat="61.1355865576" lon="13.926301796">
        <ele>412.2</ele>
        <time>2011-05-24T12:02:38Z</time>
        <extensions><gpxtpx:TrackPointExtension><gpxtpx:hr>143</gpxtpx:hr></gpxtpx:TrackPointExtension></extensions>
      </trkpt>
      <trkpt lat="61.1356552892" lon="13.9267187955">
        <ele>412.2</ele>
        <time>2011-05-24T12:02:41Z</time>
        <extensions><gpxtpx:TrackPointExtension><gpxtpx:hr>141</gpxtpx:hr></gpxtpx:TrackPointExtension></extensions>
      </trkpt>
      <trkpt lat="61.1357069217" lon="13.9271223002">
        <ele>412.2</ele>
        <time>2011-05-24T12:02:44Z</time>
        <extensions><gpxtpx:TrackPointExtension><gpxtpx:hr>139</gpxtpx:hr></gpxtpx:TrackPointExtension></extensions>
      </trkpt>
      <trkpt lat="61.1357650921" lon="13.9275033414">
        <ele>412.4</ele>
        <time>2011-05-24T12:02:47Z</time>
        <extensions><gpxtpx:TrackPointExtension><gpxtpx:hr>136</gpxtpx:hr></gpxtpx:TrackPointExtension></extensions>
      </trkpt>
      <trkpt lat="61.135816557" lon="13.9278756653">
        <ele>412.4</ele>
        <time>2011-05-24T12:02:50Z</time>
        <extensions><gpxtpx:TrackPointExtension><gpxtpx:hr>134</gpxtpx:hr></gpxtpx:TrackPointExtension></extensions>
      </trkpt>
      <trkpt lat="61.1358706202" lon="13.9282231789">
        <ele>412.4</ele>
        <time>2011-05-24T12:02:53Z</time>
        <extensions><gpxtpx:TrackPointExtension><gpxtpx:hr>129</gpxtpx:hr></gpxtpx:TrackPointExtension></extensions>
      </trkpt>
      <trkpt lat="61.135927701" lon="13.928594078">
        <ele>412.4</ele>
        <time>2011-05-24T12:02:56Z</time>
        <extensions><gpxtpx:TrackPointExtension><gpxtpx:hr>126</gpxtpx:hr></gpxtpx:TrackPointExtension></extensions>
      </trkpt>
      <trkpt lat="61.135988805" lon="13.9289476265">
        <ele>412.4</ele>
        <time>2011-05-24T12:02:59Z</time>
        <extensions><gpxtpx:TrackPointExtension><gpxtpx:hr>123</gpxtpx:hr></gpxtpx:TrackPointExtension></extensions>
      </trkpt>
      <trkpt lat="61.1360782399" lon="13.9294061165">
        <ele>412.4</ele>
        <time>2011-05-24T12:03:03Z</time>
        <extensions><gpxtpx:TrackPointExtension><gpxtpx:hr>120</gpxtpx:hr></gpxtpx:TrackPointExtension></extensions>
      </trkpt>
      <trkpt lat="61.1361639867" lon="13.9297952881">
        <ele>412.4</ele>
        <time>2011-05-24T12:03:06Z</time>
        <extensions><gpxtpx:TrackPointExtension><gpxtpx:hr>119</gpxtpx:hr></gpxtpx:TrackPointExtension></extensions>
      </trkpt>
      <trkpt lat="61.1362471352" lon="13.9301841244">
        <ele>412.4</ele>
        <time>2011-05-24T12:03:09Z</time>
        <extensions><gpxtpx:TrackPointExtension><gpxtpx:hr>117</gpxtpx:hr></gpxtpx:TrackPointExtension></extensions>
      </trkpt>
      <trkpt lat="61.136326428" lon="13.9305763135">
        <ele>412.4</ele>
        <time>2011-05-24T12:03:12Z</time>
        <extensions><gpxtpx:TrackPointExtension><gpxtpx:hr>116</gpxtpx:hr></gpxtpx:TrackPointExtension></extensions>
      </trkpt>
      <trkpt lat="61.1364127615" lon="13.93095769">
        <ele>412.4</ele>
        <time>2011-05-24T12:03:15Z</time>
        <extensions><gpxtpx:TrackPointExtension><gpxtpx:hr>116</gpxtpx:hr></gpxtpx:TrackPointExtension></extensions>
      </trkpt>
      <trkpt lat="61.1364854326" lon="13.931308221">
        <ele>412.4</ele>
        <time>2011-05-24T12:03:18Z</time>
        <extensions><gpxtpx:TrackPointExtension><gpxtpx:hr>116</gpxtpx:hr></gpxtpx:TrackPointExtension></extensions>
      </trkpt>
      <trkpt lat="61.1365649768" lon="13.9316597579">
        <ele>412.4</ele>
        <time>2011-05-24T12:03:21Z</time>
        <extensions><gpxtpx:TrackPointExtension><gpxtpx:hr>117</gpxtpx:hr></gpxtpx:TrackPointExtension></extensions>
      </trkpt>
      <trkpt lat="61.1366383185" lon="13.9320096184">
        <ele>412.4</ele>
        <time>2011-05-24T12:03:24Z</time>
        <extensions><gpxtpx:TrackPointExtension><gpxtpx:hr>121</gpxtpx:hr></gpxtpx:TrackPointExtension></extensions>
      </trkpt>
      <trkpt lat="61.1367170245" lon="13.9323554556">
        <ele>412.4</ele>
        <time>2011-05-24T12:03:27Z</time>
        <extensions><gpxtpx:TrackPointExtension><gpxtpx:hr>123</gpxtpx:hr></gpxtpx:TrackPointExtension></extensions>
      </trkpt>
      <trkpt lat="61.1367936351" lon="13.9326958446">
        <ele>412.4</ele>
        <time>2011-05-24T12:03:30Z</time>
        <extensions><gpxtpx:TrackPointExtension><gpxtpx:hr>124</gpxtpx:hr></gpxtpx:TrackPointExtension></extensions>
      </trkpt>
      <trkpt lat="61.136890446" lon="13.9331301946">
        <ele>413</ele>
        <time>2011-05-24T12:03:34Z</time>
        <extensions><gpxtpx:TrackPointExtension><gpxtpx:hr>127</gpxtpx:hr></gpxtpx:TrackPointExtension></extensions>
      </trkpt>
      <trkpt lat="61.1369730915" lon="13.9334873474">
        <ele>413.4</ele>
        <time>2011-05-24T12:03:37Z</time>
        <extensions><gpxtpx:TrackPointExtension><gpxtpx:hr>129</gpxtpx:hr></gpxtpx:TrackPointExtension></extensions>
      </trkpt>
      <trkpt lat="61.1370643704" lon="13.9339448315">
        <ele>413.8</ele>
        <time>2011-05-24T12:03:41Z</time>
        <extensions><gpxtpx:TrackPointExtension><gpxtpx:hr>131</gpxtpx:hr></gpxtpx:TrackPointExtension></extensions>
      </trkpt>
      <trkpt lat="61.1371566552" lon="13.9343904971">
        <ele>414</ele>
        <time>2011-05-24T12:03:45Z</time>
        <extensions><gpxtpx:TrackPointExtension><gpxtpx:hr>135</gpxtpx:hr></gpxtpx:TrackPointExtension></extensions>
      </trkpt>
      <trkpt lat="61.1372244647" lon="13.9348384259">
        <ele>414.2</ele>
        <time>2011-05-24T12:03:49Z</time>
        <extensions><gpxtpx:TrackPointExtension><gpxtpx:hr>138</gpxtpx:hr></gpxtpx:TrackPointExtension></extensions>
      </trkpt>
      <trkpt lat="61.1372722416" lon="13.9352890368">
        <ele>414.8</ele>
        <time>2011-05-24T12:03:53Z</time>
        <extensions><gpxtpx:TrackPointExtension><gpxtpx:hr>140</gpxtpx:hr></gpxtpx:TrackPointExtension></extensions>
      </trkpt>
      <trkpt lat="61.1372951241" lon="13.935756663">
        <ele>415.4</ele>
        <time>2011-05-24T12:03:57Z</time>
        <extensions><gpxtpx:TrackPointExtension><gpxtpx:hr>142</gpxtpx:hr></gpxtpx:TrackPointExtension></extensions>
      </trkpt>
      <trkpt lat="61.1372874128" lon="13.9362299889">
        <ele>415.8</ele>
        <time>2011-05-24T12:04:01Z</time>
        <extensions><gpxtpx:TrackPointExtension><gpxtpx:hr>143</gpxtpx:hr></gpxtpx:TrackPointExtension></extensions>
      </trkpt>
      <trkpt lat="61.1372601716" lon="13.9367010517">
        <ele>416.4</ele>
        <time>2011-05-24T12:04:05Z</time>
        <extensions><gpxtpx:TrackPointExtension><gpxtpx:hr>143</gpxtpx:hr></gpxtpx:TrackPointExtension></extensions>
      </trkpt>
      <trkpt lat="61.137226644" lon="13.9371701866">
        <ele>417.2</ele>
        <time>2011-05-24T12:04:09Z</time>
        <extensions><gpxtpx:TrackPointExtension><gpxtpx:hr>142</gpxtpx:hr></gpxtpx:TrackPointExtension></extensions>
      </trkpt>
      <trkpt lat="61.1371902666" lon="13.9376337895">
        <ele>417.6</ele>
        <time>2011-05-24T12:04:13Z</time>
        <extensions><gpxtpx:TrackPointExtension><gpxtpx:hr>142</gpxtpx:hr></gpxtpx:TrackPointExtension></extensions>
      </trkpt>
      <trkpt lat="61.137147938" lon="13.9381134018">
        <ele>418</ele>
        <time>2011-05-24T12:04:17Z</time>
        <extensions><gpxtpx:TrackPointExtension><gpxtpx:hr>143</gpxtpx:hr></gpxtpx:TrackPointExtension></extensions>
      </trkpt>
      <trkpt lat="61.1371108062" lon="13.9385820339">
        <ele>418.2</ele>
        <time>2011-05-24T12:04:21Z</time>
        <extensions><gpxtpx:TrackPointExtension><gpxtpx:hr>143</gpxtpx:hr></gpxtpx:TrackPointExtension></extensions>
      </trkpt>
      <trkpt lat="61.1370743449" lon="13.9390281186">
        <ele>419</ele>
        <time>2011-05-24T12:04:25Z</time>
        <extensions><gpxtpx:TrackPointExtension><gpxtpx:hr>144</gpxtpx:hr></gpxtpx:TrackPointExtension></extensions>
      </trkpt>
      <trkpt lat="61.1370312619" lon="13.9394814117">
        <ele>419.6</ele>
        <time>2011-05-24T12:04:29Z</time>
        <extensions><gpxtpx:TrackPointExtension><gpxtpx:hr>144</gpxtpx:hr></gpxtpx:TrackPointExtension></extensions>
      </trkpt>
      <trkpt lat="61.1369846586" lon="13.9399301787">
        <ele>420</ele>
        <time>2011-05-24T12:04:33Z</time>
        <extensions><gpxtpx:TrackPointExtension><gpxtpx:hr>145</gpxtpx:hr></gpxtpx:TrackPointExtension></extensions>
      </trkpt>
      <trkpt lat="61.1369366303" lon="13.9403765986">
        <ele>420.2</ele>
        <time>2011-05-24T12:04:37Z</time>
        <extensions><gpxtpx:TrackPointExtension><gpxtpx:hr>145</gpxtpx:hr></gpxtpx:TrackPointExtension></extensions>
      </trkpt>
      <trkpt lat="61.1368944693" lon="13.9407866412">
        <ele>420.6</ele>
        <time>2011-05-24T12:04:41Z</time>
        <extensions><gpxtpx:TrackPointExtension><gpxtpx:hr>146</gpxtpx:hr></gpxtpx:TrackPointExtension></extensions>
      </trkpt>
      <trkpt lat="61.1368855845" lon="13.9408800994">
        <ele>420.8</ele>
        <time>2011-05-24T12:04:42Z</time>
        <extensions><gpxtpx:TrackPointExtension><gpxtpx:hr>145</gpxtpx:hr></gpxtpx:TrackPointExtension></extensions>
      </trkpt>
      <trkpt lat="61.136864965" lon="13.9410527665">
        <ele>421.2</ele>
        <time>2011-05-24T12:04:44Z</time>
        <extensions><gpxtpx:TrackPointExtension><gpxtpx:hr>145</gpxtpx:hr></gpxtpx:TrackPointExtension></extensions>
      </trkpt>
      <trkpt lat="61.1368324433" lon="13.9411724601">
        <ele>421.6</ele>
        <time>2011-05-24T12:04:48Z</time>
        <extensions><gpxtpx:TrackPointExtension><gpxtpx:hr>144</gpxtpx:hr></gpxtpx:TrackPointExtension></extensions>
      </trkpt>
      <trkpt lat="61.1368535657" lon="13.9410417024">
        <ele>421.8</ele>
        <time>2011-05-24T12:04:50Z</time>
        <extensions><gpxtpx:TrackPointExtension><gpxtpx:hr>143</gpxtpx:hr></gpxtpx:TrackPointExtension></extensions>
      </trkpt>
      <trkpt lat="61.1369198665" lon="13.940579273">
        <ele>422.2</ele>
        <time>2011-05-24T12:04:55Z</time>
        <extensions><gpxtpx:TrackPointExtension><gpxtpx:hr>140</gpxtpx:hr></gpxtpx:TrackPointExtension></extensions>
      </trkpt>
      <trkpt lat="61.136941408" lon="13.940364864">
        <ele>422.4</ele>
        <time>2011-05-24T12:04:57Z</time>
        <extensions><gpxtpx:TrackPointExtension><gpxtpx:hr>140</gpxtpx:hr></gpxtpx:TrackPointExtension></extensions>
      </trkpt>
      <trkpt lat="61.1370160907" lon="13.9398269136">
        <ele>422.4</ele>
        <time>2011-05-24T12:05:02Z</time>
        <extensions><gpxtpx:TrackPointExtension><gpxtpx:hr>137</gpxtpx:hr></gpxtpx:TrackPointExtension></extensions>
      </trkpt>
      <trkpt lat="61.1370321839" lon="13.9397213017">
        <ele>422.4</ele>
        <time>2011-05-24T12:05:03Z</time>
        <extensions><gpxtpx:TrackPointExtension><gpxtpx:hr>136</gpxtpx:hr></gpxtpx:TrackPointExtension></extensions>
      </trkpt>
      <trkpt lat="61.1370896838" lon="13.9391444593">
        <ele>422.6</ele>
        <time>2011-05-24T12:05:08Z</time>
        <extensions><gpxtpx:TrackPointExtension><gpxtpx:hr>130</gpxtpx:hr></gpxtpx:TrackPointExtension></extensions>
      </trkpt>
      <trkpt lat="61.1371010832" lon="13.9390319742">
        <ele>422.6</ele>
        <time>2011-05-24T12:05:09Z</time>
        <extensions><gpxtpx:TrackPointExtension><gpxtpx:hr>128</gpxtpx:hr></gpxtpx:TrackPointExtension></extensions>
      </trkpt>
      <trkpt lat="61.1370606824" lon="13.9389960159">
        <ele>422.6</ele>
        <time>2011-05-24T12:05:14Z</time>
        <extensions><gpxtpx:TrackPointExtension><gpxtpx:hr>123</gpxtpx:hr></gpxtpx:TrackPointExtension></extensions>
      </trkpt>
      <trkpt lat="61.1370366263" lon="13.9393949105">
        <ele>422.6</ele>
        <time>2011-05-24T12:05:19Z</time>
        <extensions><gpxtpx:TrackPointExtension><gpxtpx:hr>126</gpxtpx:hr></gpxtpx:TrackPointExtension></extensions>
      </trkpt>
      <trkpt lat="61.1370078764" lon="13.9397646361">
        <ele>422.6</ele>
        <time>2011-05-24T12:05:24Z</time>
        <extensions><gpxtpx:TrackPointExtension><gpxtpx:hr>122</gpxtpx:hr></gpxtpx:TrackPointExtension></extensions>
      </trkpt>
      <trkpt lat="61.1369673919" lon="13.9401598427">
        <ele>422.6</ele>
        <time>2011-05-24T12:05:30Z</time>
        <extensions><gpxtpx:TrackPointExtension><gpxtpx:hr>118</gpxtpx:hr></gpxtpx:TrackPointExtension></extensions>
      </trkpt>
      <trkpt lat="61.1369150888" lon="13.9405708911">
        <ele>422.6</ele>
        <time>2011-05-24T12:05:36Z</time>
        <extensions><gpxtpx:TrackPointExtension><gpxtpx:hr>118</gpxtpx:hr></gpxtpx:TrackPointExtension></extensions>
      </trkpt>
      <trkpt lat="61.1368668929" lon="13.9409715459">
        <ele>422.6</ele>
        <time>2011-05-24T12:05:42Z</time>
        <extensions><gpxtpx:TrackPointExtension><gpxtpx:hr>119</gpxtpx:hr></gpxtpx:TrackPointExtension></extensions>
      </trkpt>
      <trkpt lat="61.136829342" lon="13.9412784073">
        <ele>422.6</ele>
        <time>2011-05-24T12:05:47Z</time>
        <extensions><gpxtpx:TrackPointExtension><gpxtpx:hr>119</gpxtpx:hr></gpxtpx:TrackPointExtension></extensions>
      </trkpt>
      <trkpt lat="61.1367733509" lon="13.9416409244">
        <ele>422.6</ele>
        <time>2011-05-24T12:05:53Z</time>
        <extensions><gpxtpx:TrackPointExtension><gpxtpx:hr>119</gpxtpx:hr></gpxtpx:TrackPointExtension></extensions>
      </trkpt>
      <trkpt lat="61.1367265799" lon="13.9420289226">
        <ele>422.6</ele>
        <time>2011-05-24T12:05:59Z</time>
        <extensions><gpxtpx:TrackPointExtension><gpxtpx:hr>119</gpxtpx:hr></gpxtpx:TrackPointExtension></extensions>
      </trkpt>
      <trkpt lat="61.1366649729" lon="13.9423887576">
        <ele>422.6</ele>
        <time>2011-05-24T12:06:05Z</time>
        <extensions><gpxtpx:TrackPointExtension><gpxtpx:hr>118</gpxtpx:hr></gpxtpx:TrackPointExtension></extensions>
      </trkpt>
      <trkpt lat="61.1366119155" lon="13.9427913402">
        <ele>422.6</ele>
        <time>2011-05-24T12:06:11Z</time>
        <extensions><gpxtpx:TrackPointExtension><gpxtpx:hr>118</gpxtpx:hr></gpxtpx:TrackPointExtension></extensions>
      </trkpt>
      <trkpt lat="61.1365714309" lon="13.9431837808">
        <ele>423.6</ele>
        <time>2011-05-24T12:06:18Z</time>
        <extensions><gpxtpx:TrackPointExtension><gpxtpx:hr>118</gpxtpx:hr></gpxtpx:TrackPointExtension></extensions>
      </trkpt>
      <trkpt lat="61.1365370651" lon="13.9434912289">
        <ele>424.2</ele>
        <time>2011-05-24T12:06:24Z</time>
        <extensions><gpxtpx:TrackPointExtension><gpxtpx:hr>117</gpxtpx:hr></gpxtpx:TrackPointExtension></extensions>
      </trkpt>
      <trkpt lat="61.1364954909" lon="13.9438888662">
        <ele>424.4</ele>
        <time>2011-05-24T12:06:30Z</time>
        <extensions><gpxtpx:TrackPointExtension><gpxtpx:hr>115</gpxtpx:hr></gpxtpx:TrackPointExtension></extensions>
      </trkpt>
      <trkpt lat="61.1364365661" lon="13.9443036864">
        <ele>425.4</ele>
        <time>2011-05-24T12:06:36Z</time>
        <extensions><gpxtpx:TrackPointExtension><gpxtpx:hr>115</gpxtpx:hr></gpxtpx:TrackPointExtension></extensions>
      </trkpt>
      <trkpt lat="61.1363690918" lon="13.9446791956">
        <ele>426.2</ele>
        <time>2011-05-24T12:06:42Z</time>
        <extensions><gpxtpx:TrackPointExtension><gpxtpx:hr>114</gpxtpx:hr></gpxtpx:TrackPointExtension></extensions>
      </trkpt>
      <trkpt lat="61.1362940738" lon="13.9450259548">
        <ele>426.4</ele>
        <time>2011-05-24T12:06:48Z</time>
        <extensions><gpxtpx:TrackPointExtension><gpxtpx:hr>112</gpxtpx:hr></gpxtpx:TrackPointExtension></extensions>
      </trkpt>
      <trkpt lat="61.1362053933" lon="13.9453519268">
        <ele>426.6</ele>
        <time>2011-05-24T12:06:54Z</time>
        <extensions><gpxtpx:TrackPointExtension><gpxtpx:hr>113</gpxtpx:hr></gpxtpx:TrackPointExtension></extensions>
      </trkpt>
      <trkpt lat="61.1361194788" lon="13.9456689303">
        <ele>426.8</ele>
        <time>2011-05-24T12:07:00Z</time>
        <extensions><gpxtpx:TrackPointExtension><gpxtpx:hr>112</gpxtpx:hr></gpxtpx:TrackPointExtension></extensions>
      </trkpt>
      <trkpt lat="61.1360175549" lon="13.9460094031">
        <ele>426.8</ele>
        <time>2011-05-24T12:07:06Z</time>
        <extensions><gpxtpx:TrackPointExtension><gpxtpx:hr>113</gpxtpx:hr></gpxtpx:TrackPointExtension></extensions>
      </trkpt>
      <trkpt lat="61.1358854562" lon="13.9464116505">
        <ele>426.8</ele>
        <time>2011-05-24T12:07:12Z</time>
        <extensions><gpxtpx:TrackPointExtension><gpxtpx:hr>112</gpxtpx:hr></gpxtpx:TrackPointExtension></extensions>
      </trkpt>
      <trkpt lat="61.1357826103" lon="13.9467583258">
        <ele>427.4</ele>
        <time>2011-05-24T12:07:17Z</time>
        <extensions><gpxtpx:TrackPointExtension><gpxtpx:hr>114</gpxtpx:hr></gpxtpx:TrackPointExtension></extensions>
      </trkpt>
      <trkpt lat="61.1357039881" lon="13.9470973737">
        <ele>428</ele>
        <time>2011-05-24T12:07:22Z</time>
        <extensions><gpxtpx:TrackPointExtension><gpxtpx:hr>113</gpxtpx:hr></gpxtpx:TrackPointExtension></extensions>
      </trkpt>
      <trkpt lat="61.1356525232" lon="13.9474531854">
        <ele>428.4</ele>
        <time>2011-05-24T12:07:27Z</time>
        <extensions><gpxtpx:TrackPointExtension><gpxtpx:hr>114</gpxtpx:hr></gpxtpx:TrackPointExtension></extensions>
      </trkpt>
      <trkpt lat="61.1356890683" lon="13.9477041394">
        <ele>428.6</ele>
        <time>2011-05-24T12:07:31Z</time>
        <extensions><gpxtpx:TrackPointExtension><gpxtpx:hr>111</gpxtpx:hr></gpxtpx:TrackPointExtension></extensions>
      </trkpt>
      <trkpt lat="61.1357484121" lon="13.9480565145">
        <ele>428.6</ele>
        <time>2011-05-24T12:07:36Z</time>
        <extensions><gpxtpx:TrackPointExtension><gpxtpx:hr>109</gpxtpx:hr></gpxtpx:TrackPointExtension></extensions>
      </trkpt>
      <trkpt lat="61.1357748989" lon="13.9481432672">
        <ele>428.8</ele>
        <time>2011-05-24T12:07:38Z</time>
        <extensions><gpxtpx:TrackPointExtension><gpxtpx:hr>107</gpxtpx:hr></gpxtpx:TrackPointExtension></extensions>
      </trkpt>
      <trkpt lat="61.1357966081" lon="13.9485201174">
        <ele>428.8</ele>
        <time>2011-05-24T12:07:44Z</time>
        <extensions><gpxtpx:TrackPointExtension><gpxtpx:hr>105</gpxtpx:hr></gpxtpx:TrackPointExtension></extensions>
      </trkpt>
      <trkpt lat="61.1358062472" lon="13.9487573252">
        <ele>428.8</ele>
        <time>2011-05-24T12:07:47Z</time>
        <extensions><gpxtpx:TrackPointExtension><gpxtpx:hr>100</gpxtpx:hr></gpxtpx:TrackPointExtension></extensions>
      </trkpt>
      <trkpt lat="61.1358176466" lon="13.9492355126">
        <ele>428.8</ele>
        <time>2011-05-24T12:07:52Z</time>
        <extensions><gpxtpx:TrackPointExtension><gpxtpx:hr>103</gpxtpx:hr></gpxtpx:TrackPointExtension></extensions>
      </trkpt>
      <trkpt lat="61.135827202" lon="13.9496801724">
        <ele>428.8</ele>
        <time>2011-05-24T12:07:56Z</time>
        <extensions><gpxtpx:TrackPointExtension><gpxtpx:hr>105</gpxtpx:hr></gpxtpx:TrackPointExtension></extensions>
      </trkpt>
      <trkpt lat="61.1358403616" lon="13.95012215">
        <ele>428.8</ele>
        <time>2011-05-24T12:08:00Z</time>
        <extensions><gpxtpx:TrackPointExtension><gpxtpx:hr>101</gpxtpx:hr></gpxtpx:TrackPointExtension></extensions>
      </trkpt>
      <trkpt lat="61.1358564548" lon="13.9505401553">
        <ele>428.8</ele>
        <time>2011-05-24T12:08:04Z</time>
        <extensions><gpxtpx:TrackPointExtension><gpxtpx:hr>106</gpxtpx:hr></gpxtpx:TrackPointExtension></extensions>
      </trkpt>
      <trkpt lat="61.1358614001" lon="13.9506427498">
        <ele>428.8</ele>
        <time>2011-05-24T12:08:05Z</time>
        <extensions><gpxtpx:TrackPointExtension><gpxtpx:hr>115</gpxtpx:hr></gpxtpx:TrackPointExtension></extensions>
      </trkpt>
      <trkpt lat="61.1358663455" lon="13.950749619">
        <ele>428.8</ele>
        <time>2011-05-24T12:08:06Z</time>
        <extensions><gpxtpx:TrackPointExtension><gpxtpx:hr>115</gpxtpx:hr></gpxtpx:TrackPointExtension></extensions>
      </trkpt>
      <trkpt lat="61.1358852047" lon="13.9511646069">
        <ele>428.8</ele>
        <time>2011-05-24T12:08:10Z</time>
        <extensions><gpxtpx:TrackPointExtension><gpxtpx:hr>112</gpxtpx:hr></gpxtpx:TrackPointExtension></extensions>
      </trkpt>
      <trkpt lat="61.1359365858" lon="13.9516104401">
        <ele>428.8</ele>
        <time>2011-05-24T12:08:14Z</time>
        <extensions><gpxtpx:TrackPointExtension><gpxtpx:hr>112</gpxtpx:hr></gpxtpx:TrackPointExtension></extensions>
      </trkpt>
      <trkpt lat="61.1360481489" lon="13.9520654097">
        <ele>428.8</ele>
        <time>2011-05-24T12:08:19Z</time>
        <extensions><gpxtpx:TrackPointExtension><gpxtpx:hr>112</gpxtpx:hr></gpxtpx:TrackPointExtension></extensions>
      </trkpt>
      <trkpt lat="61.1361457142" lon="13.9524458641">
        <ele>428.8</ele>
        <time>2011-05-24T12:08:23Z</time>
        <extensions><gpxtpx:TrackPointExtension><gpxtpx:hr>112</gpxtpx:hr></gpxtpx:TrackPointExtension></extensions>
      </trkpt>
      <trkpt lat="61.1362219895" lon="13.952710816">
        <ele>428.8</ele>
        <time>2011-05-24T12:08:26Z</time>
        <extensions><gpxtpx:TrackPointExtension><gpxtpx:hr>112</gpxtpx:hr></gpxtpx:TrackPointExtension></extensions>
      </trkpt>
      <trkpt lat="61.1362005318" lon="13.9529848203">
        <ele>428.8</ele>
        <time>2011-05-24T12:08:30Z</time>
        <extensions><gpxtpx:TrackPointExtension><gpxtpx:hr>110</gpxtpx:hr></gpxtpx:TrackPointExtension></extensions>
      </trkpt>
      <trkpt lat="61.1361416909" lon="13.9529740914">
        <ele>428.8</ele>
        <time>2011-05-24T12:08:32Z</time>
        <extensions><gpxtpx:TrackPointExtension><gpxtpx:hr>110</gpxtpx:hr></gpxtpx:TrackPointExtension></extensions>
      </trkpt>
      <trkpt lat="61.1360213268" lon="13.9530032604">
        <ele>428.8</ele>
        <time>2011-05-24T12:08:38Z</time>
        <extensions><gpxtpx:TrackPointExtension><gpxtpx:hr>111</gpxtpx:hr></gpxtpx:TrackPointExtension></extensions>
      </trkpt>
      <trkpt lat="61.1358735539" lon="13.9531966309">
        <ele>428.8</ele>
        <time>2011-05-24T12:08:45Z</time>
        <extensions><gpxtpx:TrackPointExtension><gpxtpx:hr>114</gpxtpx:hr></gpxtpx:TrackPointExtension></extensions>
      </trkpt>
      <trkpt lat="61.1358178143" lon="13.953288748">
        <ele>428.8</ele>
        <time>2011-05-24T12:08:48Z</time>
        <extensions><gpxtpx:TrackPointExtension><gpxtpx:hr>123</gpxtpx:hr></gpxtpx:TrackPointExtension></extensions>
      </trkpt>
      <trkpt lat="61.1358005476" lon="13.953320683">
        <ele>428.8</ele>
        <time>2011-05-24T12:08:49Z</time>
        <extensions><gpxtpx:TrackPointExtension><gpxtpx:hr>123</gpxtpx:hr></gpxtpx:TrackPointExtension></extensions>
      </trkpt>
      <trkpt lat="61.1357271221" lon="13.9534500995">
        <ele>428.8</ele>
        <time>2011-05-24T12:08:54Z</time>
        <extensions><gpxtpx:TrackPointExtension><gpxtpx:hr>118</gpxtpx:hr></gpxtpx:TrackPointExtension></extensions>
      </trkpt>
      <trkpt lat="61.1356163972" lon="13.9536200845">
        <ele>428.8</ele>
        <time>2011-05-24T12:09:01Z</time>
        <extensions><gpxtpx:TrackPointExtension><gpxtpx:hr>117</gpxtpx:hr></gpxtpx:TrackPointExtension></extensions>
      </trkpt>
      <trkpt lat="61.1354904173" lon="13.9537614033">
        <ele>429</ele>
        <time>2011-05-24T12:09:08Z</time>
        <extensions><gpxtpx:TrackPointExtension><gpxtpx:hr>118</gpxtpx:hr></gpxtpx:TrackPointExtension></extensions>
      </trkpt>
      <trkpt lat="61.1354424728" lon="13.9538477369">
        <ele>429.6</ele>
        <time>2011-05-24T12:09:11Z</time>
        <extensions><gpxtpx:TrackPointExtension><gpxtpx:hr>119</gpxtpx:hr></gpxtpx:TrackPointExtension></extensions>
      </trkpt>
      <trkpt lat="61.1353852244" lon="13.9540627326">
        <ele>430.2</ele>
        <time>2011-05-24T12:09:18Z</time>
        <extensions><gpxtpx:TrackPointExtension><gpxtpx:hr>119</gpxtpx:hr></gpxtpx:TrackPointExtension></extensions>
      </trkpt>
      <trkpt lat="61.1353748309" lon="13.9542897983">
        <ele>430.6</ele>
        <time>2011-05-24T12:09:25Z</time>
        <extensions><gpxtpx:TrackPointExtension><gpxtpx:hr>114</gpxtpx:hr></gpxtpx:TrackPointExtension></extensions>
      </trkpt>
      <trkpt lat="61.135375669" lon="13.9544227352">
        <ele>430.8</ele>
        <time>2011-05-24T12:09:32Z</time>
        <extensions><gpxtpx:TrackPointExtension><gpxtpx:hr>113</gpxtpx:hr></gpxtpx:TrackPointExtension></extensions>
      </trkpt>
      <trkpt lat="61.1353880743" lon="13.9544229028">
        <ele>430.8</ele>
        <time>2011-05-24T12:09:42Z</time>
        <extensions><gpxtpx:TrackPointExtension><gpxtpx:hr>110</gpxtpx:hr></gpxtpx:TrackPointExtension></extensions>
      </trkpt>
      <trkpt lat="61.1354389524" lon="13.9543809095">
        <ele>431</ele>
        <time>2011-05-24T12:10:01Z</time>
        <extensions><gpxtpx:TrackPointExtension><gpxtpx:hr>105</gpxtpx:hr></gpxtpx:TrackPointExtension></extensions>
      </trkpt>
      <trkpt lat="61.1354690434" lon="13.9543446997">
        <ele>431</ele>
        <time>2011-05-24T12:10:10Z</time>
        <extensions><gpxtpx:TrackPointExtension><gpxtpx:hr>100</gpxtpx:hr></gpxtpx:TrackPointExtension></extensions>
      </trkpt>
      <trkpt lat="61.1354695463" lon="13.9543470467">
        <ele>431</ele>
        <time>2011-05-24T12:10:12Z</time>
        <extensions><gpxtpx:TrackPointExtension><gpxtpx:hr>100</gpxtpx:hr></gpxtpx:TrackPointExtension></extensions>
      </trkpt>
      <trkpt lat="61.1391019265" lon="13.9612071289">
        <ele>411</ele>
        <time>2011-05-24T12:42:01Z</time>
        <extensions><gpxtpx:TrackPointExtension><gpxtpx:hr>116</gpxtpx:hr></gpxtpx:TrackPointExtension></extensions>
      </trkpt>
      <trkpt lat="61.1391045249" lon="13.9612368846">
        <ele>411</ele>
        <time>2011-05-24T12:42:02Z</time>
        <extensions><gpxtpx:TrackPointExtension><gpxtpx:hr>116</gpxtpx:hr></gpxtpx:TrackPointExtension></extensions>
      </trkpt>
      <trkpt lat="61.1391122362" lon="13.9613174347">
        <ele>411</ele>
        <time>2011-05-24T12:42:03Z</time>
        <extensions><gpxtpx:TrackPointExtension><gpxtpx:hr>117</gpxtpx:hr></gpxtpx:TrackPointExtension></extensions>
      </trkpt>
      <trkpt lat="61.1392144116" lon="13.9617479291">
        <ele>411.8</ele>
        <time>2011-05-24T12:42:08Z</time>
        <extensions><gpxtpx:TrackPointExtension><gpxtpx:hr>120</gpxtpx:hr></gpxtpx:TrackPointExtension></extensions>
      </trkpt>
      <trkpt lat="61.1392688101" lon="13.9619256254">
        <ele>412.6</ele>
        <time>2011-05-24T12:42:10Z</time>
        <extensions><gpxtpx:TrackPointExtension><gpxtpx:hr>121</gpxtpx:hr></gpxtpx:TrackPointExtension></extensions>
      </trkpt>
      <trkpt lat="61.1393399725" lon="13.9622565428">
        <ele>413.2</ele>
        <time>2011-05-24T12:42:13Z</time>
        <extensions><gpxtpx:TrackPointExtension><gpxtpx:hr>122</gpxtpx:hr></gpxtpx:TrackPointExtension></extensions>
      </trkpt>
      <trkpt lat="61.139352713" lon="13.9627713591">
        <ele>414.6</ele>
        <time>2011-05-24T12:42:17Z</time>
        <extensions><gpxtpx:TrackPointExtension><gpxtpx:hr>125</gpxtpx:hr></gpxtpx:TrackPointExtension></extensions>
      </trkpt>
      <trkpt lat="61.1393442472" lon="13.9628949083">
        <ele>415</ele>
        <time>2011-05-24T12:42:18Z</time>
        <extensions><gpxtpx:TrackPointExtension><gpxtpx:hr>125</gpxtpx:hr></gpxtpx:TrackPointExtension></extensions>
      </trkpt>
      <trkpt lat="61.1393134018" lon="13.9632928809">
        <ele>415.6</ele>
        <time>2011-05-24T12:42:21Z</time>
        <extensions><gpxtpx:TrackPointExtension><gpxtpx:hr>126</gpxtpx:hr></gpxtpx:TrackPointExtension></extensions>
      </trkpt>
      <trkpt lat="61.1392748451" lon="13.9636872493">
        <ele>416.2</ele>
        <time>2011-05-24T12:42:24Z</time>
        <extensions><gpxtpx:TrackPointExtension><gpxtpx:hr>126</gpxtpx:hr></gpxtpx:TrackPointExtension></extensions>
      </trkpt>
      <trkpt lat="61.139234612" lon="13.9640746607">
        <ele>416.6</ele>
        <time>2011-05-24T12:42:27Z</time>
        <extensions><gpxtpx:TrackPointExtension><gpxtpx:hr>126</gpxtpx:hr></gpxtpx:TrackPointExtension></extensions>
      </trkpt>
      <trkpt lat="61.1391885115" lon="13.9645783291">
        <ele>417.6</ele>
        <time>2011-05-24T12:42:31Z</time>
        <extensions><gpxtpx:TrackPointExtension><gpxtpx:hr>126</gpxtpx:hr></gpxtpx:TrackPointExtension></extensions>
      </trkpt>
      <trkpt lat="61.1391490328" lon="13.9649902995">
        <ele>418.2</ele>
        <time>2011-05-24T12:42:34Z</time>
        <extensions><gpxtpx:TrackPointExtension><gpxtpx:hr>126</gpxtpx:hr></gpxtpx:TrackPointExtension></extensions>
      </trkpt>
      <trkpt lat="61.1391070395" lon="13.9653820695">
        <ele>418.6</ele>
        <time>2011-05-24T12:42:38Z</time>
        <extensions><gpxtpx:TrackPointExtension><gpxtpx:hr>126</gpxtpx:hr></gpxtpx:TrackPointExtension></extensions>
      </trkpt>
      <trkpt lat="61.1390599332" lon="13.9657560698">
        <ele>419</ele>
        <time>2011-05-24T12:42:40Z</time>
        <extensions><gpxtpx:TrackPointExtension><gpxtpx:hr>126</gpxtpx:hr></gpxtpx:TrackPointExtension></extensions>
      </trkpt>
      <trkpt lat="61.1389955602" lon="13.9661929345">
        <ele>419.2</ele>
        <time>2011-05-24T12:42:44Z</time>
        <extensions><gpxtpx:TrackPointExtension><gpxtpx:hr>126</gpxtpx:hr></gpxtpx:TrackPointExtension></extensions>
      </trkpt>
      <trkpt lat="61.1389393176" lon="13.9666039828">
        <ele>419.2</ele>
        <time>2011-05-24T12:42:46Z</time>
        <extensions><gpxtpx:TrackPointExtension><gpxtpx:hr>126</gpxtpx:hr></gpxtpx:TrackPointExtension></extensions>
      </trkpt>
      <trkpt lat="61.1388715081" lon="13.9670322141">
        <ele>419.4</ele>
        <time>2011-05-24T12:42:49Z</time>
        <extensions><gpxtpx:TrackPointExtension><gpxtpx:hr>124</gpxtpx:hr></gpxtpx:TrackPointExtension></extensions>
      </trkpt>
      <trkpt lat="61.1388138406" lon="13.9673902051">
        <ele>419.4</ele>
        <time>2011-05-24T12:42:52Z</time>
        <extensions><gpxtpx:TrackPointExtension><gpxtpx:hr>122</gpxtpx:hr></gpxtpx:TrackPointExtension></extensions>
      </trkpt>
      <trkpt lat="61.1387373977" lon="13.9679123136">
        <ele>419.6</ele>
        <time>2011-05-24T12:42:54Z</time>
        <extensions><gpxtpx:TrackPointExtension><gpxtpx:hr>121</gpxtpx:hr></gpxtpx:TrackPointExtension></extensions>
      </trkpt>
      <trkpt lat="61.1386824962" lon="13.9682859787">
        <ele>419.6</ele>
        <time>2011-05-24T12:42:57Z</time>
        <extensions><gpxtpx:TrackPointExtension><gpxtpx:hr>120</gpxtpx:hr></gpxtpx:TrackPointExtension></extensions>
      </trkpt>
      <trkpt lat="61.1386068077" lon="13.9688047345">
        <ele>419.4</ele>
        <time>2011-05-24T12:42:59Z</time>
        <extensions><gpxtpx:TrackPointExtension><gpxtpx:hr>119</gpxtpx:hr></gpxtpx:TrackPointExtension></extensions>
      </trkpt>
      <trkpt lat="61.1385587794" lon="13.96916524">
        <ele>419</ele>
        <time>2011-05-24T12:43:02Z</time>
        <extensions><gpxtpx:TrackPointExtension><gpxtpx:hr>117</gpxtpx:hr></gpxtpx:TrackPointExtension></extensions>
      </trkpt>
      <trkpt lat="61.1384930653" lon="13.969647786">
        <ele>418.6</ele>
        <time>2011-05-24T12:43:04Z</time>
        <extensions><gpxtpx:TrackPointExtension><gpxtpx:hr>114</gpxtpx:hr></gpxtpx:TrackPointExtension></extensions>
      </trkpt>
      <trkpt lat="61.138442271" lon="13.9700213673">
        <ele>418.4</ele>
        <time>2011-05-24T12:43:07Z</time>
        <extensions><gpxtpx:TrackPointExtension><gpxtpx:hr>113</gpxtpx:hr></gpxtpx:TrackPointExtension></extensions>
      </trkpt>
      <trkpt lat="61.1383833462" lon="13.970384555">
        <ele>418</ele>
        <time>2011-05-24T12:43:09Z</time>
        <extensions><gpxtpx:TrackPointExtension><gpxtpx:hr>113</gpxtpx:hr></gpxtpx:TrackPointExtension></extensions>
      </trkpt>
      <trkpt lat="61.1383219907" lon="13.9707396961">
        <ele>417.6</ele>
        <time>2011-05-24T12:43:11Z</time>
        <extensions><gpxtpx:TrackPointExtension><gpxtpx:hr>114</gpxtpx:hr></gpxtpx:TrackPointExtension></extensions>
      </trkpt>
      <trkpt lat="61.1382511637" lon="13.9711265208">
        <ele>417.2</ele>
        <time>2011-05-24T12:43:13Z</time>
        <extensions><gpxtpx:TrackPointExtension><gpxtpx:hr>113</gpxtpx:hr></gpxtpx:TrackPointExtension></extensions>
      </trkpt>
      <trkpt lat="61.1381810072" lon="13.9714861043">
        <ele>416.8</ele>
        <time>2011-05-24T12:43:15Z</time>
        <extensions><gpxtpx:TrackPointExtension><gpxtpx:hr>112</gpxtpx:hr></gpxtpx:TrackPointExtension></extensions>
      </trkpt>
      <trkpt lat="61.138107917" lon="13.9718636251">
        <ele>416</ele>
        <time>2011-05-24T12:43:16Z</time>
        <extensions><gpxtpx:TrackPointExtension><gpxtpx:hr>107</gpxtpx:hr></gpxtpx:TrackPointExtension></extensions>
      </trkpt>
      <trkpt lat="61.1380683544" lon="13.9720729211">
        <ele>415.8</ele>
        <time>2011-05-24T12:43:18Z</time>
        <extensions><gpxtpx:TrackPointExtension><gpxtpx:hr>107</gpxtpx:hr></gpxtpx:TrackPointExtension></extensions>
      </trkpt>
      <trkpt lat="61.1379960186" lon="13.972464272">
        <ele>415.4</ele>
        <time>2011-05-24T12:43:20Z</time>
        <extensions><gpxtpx:TrackPointExtension><gpxtpx:hr>108</gpxtpx:hr></gpxtpx:TrackPointExtension></extensions>
      </trkpt>
      <trkpt lat="61.1378895685" lon="13.9730268652">
        <ele>414.4</ele>
        <time>2011-05-24T12:43:23Z</time>
        <extensions><gpxtpx:TrackPointExtension><gpxtpx:hr>110</gpxtpx:hr></gpxtpx:TrackPointExtension></extensions>
      </trkpt>
      <trkpt lat="61.1378207531" lon="13.9733901367">
        <ele>413.8</ele>
        <time>2011-05-24T12:43:24Z</time>
        <extensions><gpxtpx:TrackPointExtension><gpxtpx:hr>111</gpxtpx:hr></gpxtpx:TrackPointExtension></extensions>
      </trkpt>
      <trkpt lat="61.1377486688" lon="13.9737766261">
        <ele>413.4</ele>
        <time>2011-05-24T12:43:26Z</time>
        <extensions><gpxtpx:TrackPointExtension><gpxtpx:hr>112</gpxtpx:hr></gpxtpx:TrackPointExtension></extensions>
      </trkpt>
      <trkpt lat="61.137672142" lon="13.9742099704">
        <ele>412.8</ele>
        <time>2011-05-24T12:43:29Z</time>
        <extensions><gpxtpx:TrackPointExtension><gpxtpx:hr>113</gpxtpx:hr></gpxtpx:TrackPointExtension></extensions>
      </trkpt>
      <trkpt lat="61.13761196" lon="13.9746242877">
        <ele>412</ele>
        <time>2011-05-24T12:43:31Z</time>
        <extensions><gpxtpx:TrackPointExtension><gpxtpx:hr>114</gpxtpx:hr></gpxtpx:TrackPointExtension></extensions>
      </trkpt>
      <trkpt lat="61.1375940227" lon="13.9748398701">
        <ele>411.8</ele>
        <time>2011-05-24T12:43:32Z</time>
        <extensions><gpxtpx:TrackPointExtension><gpxtpx:hr>114</gpxtpx:hr></gpxtpx:TrackPointExtension></extensions>
      </trkpt>
      <trkpt lat="61.1375737385" lon="13.9752515053">
        <ele>411.2</ele>
        <time>2011-05-24T12:43:34Z</time>
        <extensions><gpxtpx:TrackPointExtension><gpxtpx:hr>114</gpxtpx:hr></gpxtpx:TrackPointExtension></extensions>
      </trkpt>
      <trkpt lat="61.1375404624" lon="13.9756329655">
        <ele>410.8</ele>
        <time>2011-05-24T12:43:36Z</time>
        <extensions><gpxtpx:TrackPointExtension><gpxtpx:hr>114</gpxtpx:hr></gpxtpx:TrackPointExtension></extensions>
      </trkpt>
      <trkpt lat="61.1375111257" lon="13.9758181217">
        <ele>410.4</ele>
        <time>2011-05-24T12:43:37Z</time>
        <extensions><gpxtpx:TrackPointExtension><gpxtpx:hr>114</gpxtpx:hr></gpxtpx:TrackPointExtension></extensions>
      </trkpt>
      <trkpt lat="61.1373464214" lon="13.9763798766">
        <ele>409.2</ele>
        <time>2011-05-24T12:43:40Z</time>
        <extensions><gpxtpx:TrackPointExtension><gpxtpx:hr>114</gpxtpx:hr></gpxtpx:TrackPointExtension></extensions>
      </trkpt>
      <trkpt lat="61.1372051025" lon="13.9767817049">
        <ele>408.8</ele>
        <time>2011-05-24T12:43:43Z</time>
        <extensions><gpxtpx:TrackPointExtension><gpxtpx:hr>115</gpxtpx:hr></gpxtpx:TrackPointExtension></extensions>
      </trkpt>
      <trkpt lat="61.1371410648" lon="13.9769188328">
        <ele>408.6</ele>
        <time>2011-05-24T12:43:44Z</time>
        <extensions><gpxtpx:TrackPointExtension><gpxtpx:hr>115</gpxtpx:hr></gpxtpx:TrackPointExtension></extensions>
      </trkpt>
      <trkpt lat="61.1369986563" lon="13.9771710442">
        <ele>408</ele>
        <time>2011-05-24T12:43:46Z</time>
        <extensions><gpxtpx:TrackPointExtension><gpxtpx:hr>115</gpxtpx:hr></gpxtpx:TrackPointExtension></extensions>
      </trkpt>
      <trkpt lat="61.1368512187" lon="13.9774152927">
        <ele>407.4</ele>
        <time>2011-05-24T12:43:48Z</time>
        <extensions><gpxtpx:TrackPointExtension><gpxtpx:hr>113</gpxtpx:hr></gpxtpx:TrackPointExtension></extensions>
      </trkpt>
      <trkpt lat="61.1367010989" lon="13.9776608824">
        <ele>406.8</ele>
        <time>2011-05-24T12:43:50Z</time>
        <extensions><gpxtpx:TrackPointExtension><gpxtpx:hr>110</gpxtpx:hr></gpxtpx:TrackPointExtension></extensions>
      </trkpt>
      <trkpt lat="61.1366196268" lon="13.9778017821">
        <ele>406.6</ele>
        <time>2011-05-24T12:43:51Z</time>
        <extensions><gpxtpx:TrackPointExtension><gpxtpx:hr>108</gpxtpx:hr></gpxtpx:TrackPointExtension></extensions>
      </trkpt>
      <trkpt lat="61.1363673316" lon="13.9783742659">
        <ele>405.2</ele>
        <time>2011-05-24T12:43:55Z</time>
        <extensions><gpxtpx:TrackPointExtension><gpxtpx:hr>108</gpxtpx:hr></gpxtpx:TrackPointExtension></extensions>
      </trkpt>
      <trkpt lat="61.1363272661" lon="13.9785515431">
        <ele>404.8</ele>
        <time>2011-05-24T12:43:56Z</time>
        <extensions><gpxtpx:TrackPointExtension><gpxtpx:hr>109</gpxtpx:hr></gpxtpx:TrackPointExtension></extensions>
      </trkpt>
      <trkpt lat="61.1362841832" lon="13.978928058">
        <ele>404.2</ele>
        <time>2011-05-24T12:43:58Z</time>
        <extensions><gpxtpx:TrackPointExtension><gpxtpx:hr>110</gpxtpx:hr></gpxtpx:TrackPointExtension></extensions>
      </trkpt>
      <trkpt lat="61.1362322992" lon="13.9794839457">
        <ele>403</ele>
        <time>2011-05-24T12:44:01Z</time>
        <extensions><gpxtpx:TrackPointExtension><gpxtpx:hr>111</gpxtpx:hr></gpxtpx:TrackPointExtension></extensions>
      </trkpt>
      <trkpt lat="61.1361670042" lon="13.9800087364">
        <ele>402</ele>
        <time>2011-05-24T12:44:04Z</time>
        <extensions><gpxtpx:TrackPointExtension><gpxtpx:hr>108</gpxtpx:hr></gpxtpx:TrackPointExtension></extensions>
      </trkpt>
      <trkpt lat="61.1361592929" lon="13.9801508934">
        <ele>401.6</ele>
        <time>2011-05-24T12:44:05Z</time>
        <extensions><gpxtpx:TrackPointExtension><gpxtpx:hr>107</gpxtpx:hr></gpxtpx:TrackPointExtension></extensions>
      </trkpt>
      <trkpt lat="61.1361713628" lon="13.9806481077">
        <ele>400.6</ele>
        <time>2011-05-24T12:44:08Z</time>
        <extensions><gpxtpx:TrackPointExtension><gpxtpx:hr>106</gpxtpx:hr></gpxtpx:TrackPointExtension></extensions>
      </trkpt>
      <trkpt lat="61.1361975143" lon="13.9811449868">
        <ele>400</ele>
        <time>2011-05-24T12:44:11Z</time>
        <extensions><gpxtpx:TrackPointExtension><gpxtpx:hr>106</gpxtpx:hr></gpxtpx:TrackPointExtension></extensions>
      </trkpt>
      <trkpt lat="61.1361935748" lon="13.9814104416">
        <ele>399.6</ele>
        <time>2011-05-24T12:44:12Z</time>
        <extensions><gpxtpx:TrackPointExtension><gpxtpx:hr>107</gpxtpx:hr></gpxtpx:TrackPointExtension></extensions>
      </trkpt>
      <trkpt lat="61.1361707761" lon="13.9818338113">
        <ele>398.6</ele>
        <time>2011-05-24T12:44:15Z</time>
        <extensions><gpxtpx:TrackPointExtension><gpxtpx:hr>110</gpxtpx:hr></gpxtpx:TrackPointExtension></extensions>
      </trkpt>
      <trkpt lat="61.1361181377" lon="13.9822978333">
        <ele>398</ele>
        <time>2011-05-24T12:44:18Z</time>
        <extensions><gpxtpx:TrackPointExtension><gpxtpx:hr>112</gpxtpx:hr></gpxtpx:TrackPointExtension></extensions>
      </trkpt>
      <trkpt lat="61.1360317204" lon="13.982754563">
        <ele>397.4</ele>
        <time>2011-05-24T12:44:21Z</time>
        <extensions><gpxtpx:TrackPointExtension><gpxtpx:hr>114</gpxtpx:hr></gpxtpx:TrackPointExtension></extensions>
      </trkpt>
      <trkpt lat="61.1359411958" lon="13.983209784">
        <ele>396.8</ele>
        <time>2011-05-24T12:44:24Z</time>
        <extensions><gpxtpx:TrackPointExtension><gpxtpx:hr>115</gpxtpx:hr></gpxtpx:TrackPointExtension></extensions>
      </trkpt>
      <trkpt lat="61.135822592" lon="13.9839313818">
        <ele>395.6</ele>
        <time>2011-05-24T12:44:28Z</time>
        <extensions><gpxtpx:TrackPointExtension><gpxtpx:hr>115</gpxtpx:hr></gpxtpx:TrackPointExtension></extensions>
      </trkpt>
      <trkpt lat="61.1357629128" lon="13.9842926417">
        <ele>395.4</ele>
        <time>2011-05-24T12:44:31Z</time>
        <extensions><gpxtpx:TrackPointExtension><gpxtpx:hr>114</gpxtpx:hr></gpxtpx:TrackPointExtension></extensions>
      </trkpt>
      <trkpt lat="61.1356714663" lon="13.9847620281">
        <ele>395</ele>
        <time>2011-05-24T12:44:34Z</time>
        <extensions><gpxtpx:TrackPointExtension><gpxtpx:hr>113</gpxtpx:hr></gpxtpx:TrackPointExtension></extensions>
      </trkpt>
      <trkpt lat="61.1355764994" lon="13.9852324203">
        <ele>394.4</ele>
        <time>2011-05-24T12:44:37Z</time>
        <extensions><gpxtpx:TrackPointExtension><gpxtpx:hr>113</gpxtpx:hr></gpxtpx:TrackPointExtension></extensions>
      </trkpt>
      <trkpt lat="61.1354661936" lon="13.9856529402">
        <ele>393.8</ele>
        <time>2011-05-24T12:44:40Z</time>
        <extensions><gpxtpx:TrackPointExtension><gpxtpx:hr>114</gpxtpx:hr></gpxtpx:TrackPointExtension></extensions>
      </trkpt>
      <trkpt lat="61.1354191711" lon="13.9857853743">
        <ele>393.6</ele>
        <time>2011-05-24T12:44:41Z</time>
        <extensions><gpxtpx:TrackPointExtension><gpxtpx:hr>113</gpxtpx:hr></gpxtpx:TrackPointExtension></extensions>
      </trkpt>
      <trkpt lat="61.1352786905" lon="13.9861099214">
        <ele>393</ele>
        <time>2011-05-24T12:44:44Z</time>
        <extensions><gpxtpx:TrackPointExtension><gpxtpx:hr>113</gpxtpx:hr></gpxtpx:TrackPointExtension></extensions>
      </trkpt>
      <trkpt lat="61.1351453344" lon="13.9864256676">
        <ele>392.6</ele>
        <time>2011-05-24T12:44:47Z</time>
        <extensions><gpxtpx:TrackPointExtension><gpxtpx:hr>114</gpxtpx:hr></gpxtpx:TrackPointExtension></extensions>
      </trkpt>
      <trkpt lat="61.1350826378" lon="13.9866342931">
        <ele>392.4</ele>
        <time>2011-05-24T12:44:49Z</time>
        <extensions><gpxtpx:TrackPointExtension><gpxtpx:hr>115</gpxtpx:hr></gpxtpx:TrackPointExtension></extensions>
      </trkpt>
      <trkpt lat="61.1350374594" lon="13.9868886838">
        <ele>392.4</ele>
        <time>2011-05-24T12:44:51Z</time>
        <extensions><gpxtpx:TrackPointExtension><gpxtpx:hr>122</gpxtpx:hr></gpxtpx:TrackPointExtension></extensions>
      </trkpt>
      <trkpt lat="61.1349793728" lon="13.9873467546">
        <ele>392.2</ele>
        <time>2011-05-24T12:44:54Z</time>
        <extensions><gpxtpx:TrackPointExtension><gpxtpx:hr>121</gpxtpx:hr></gpxtpx:TrackPointExtension></extensions>
      </trkpt>
      <trkpt lat="61.1349221244" lon="13.9878280433">
        <ele>391.6</ele>
        <time>2011-05-24T12:44:57Z</time>
        <extensions><gpxtpx:TrackPointExtension><gpxtpx:hr>122</gpxtpx:hr></gpxtpx:TrackPointExtension></extensions>
      </trkpt>
      <trkpt lat="61.1348843221" lon="13.9882877905">
        <ele>391</ele>
        <time>2011-05-24T12:45:00Z</time>
        <extensions><gpxtpx:TrackPointExtension><gpxtpx:hr>119</gpxtpx:hr></gpxtpx:TrackPointExtension></extensions>
      </trkpt>
      <trkpt lat="61.1348383893" lon="13.9887342105">
        <ele>390.6</ele>
        <time>2011-05-24T12:45:03Z</time>
        <extensions><gpxtpx:TrackPointExtension><gpxtpx:hr>119</gpxtpx:hr></gpxtpx:TrackPointExtension></extensions>
      </trkpt>
      <trkpt lat="61.1347967312" lon="13.9891636991">
        <ele>390.4</ele>
        <time>2011-05-24T12:45:06Z</time>
        <extensions><gpxtpx:TrackPointExtension><gpxtpx:hr>119</gpxtpx:hr></gpxtpx:TrackPointExtension></extensions>
      </trkpt>
      <trkpt lat="61.1347458531" lon="13.9896060957">
        <ele>390.2</ele>
        <time>2011-05-24T12:45:09Z</time>
        <extensions><gpxtpx:TrackPointExtension><gpxtpx:hr>119</gpxtpx:hr></gpxtpx:TrackPointExtension></extensions>
      </trkpt>
      <trkpt lat="61.1347233058" lon="13.9898495899">
        <ele>389.8</ele>
        <time>2011-05-24T12:45:11Z</time>
        <extensions><gpxtpx:TrackPointExtension><gpxtpx:hr>119</gpxtpx:hr></gpxtpx:TrackPointExtension></extensions>
      </trkpt>
      <trkpt lat="61.1346981601" lon="13.9899462332">
        <ele>389.4</ele>
        <time>2011-05-24T12:45:13Z</time>
        <extensions><gpxtpx:TrackPointExtension><gpxtpx:hr>118</gpxtpx:hr></gpxtpx:TrackPointExtension></extensions>
      </trkpt>
      <trkpt lat="61.1346854196" lon="13.9898939302">
        <ele>389</ele>
        <time>2011-05-24T12:45:14Z</time>
        <extensions><gpxtpx:TrackPointExtension><gpxtpx:hr>127</gpxtpx:hr></gpxtpx:TrackPointExtension></extensions>
      </trkpt>
      <trkpt lat="61.1347112358" lon="13.9897191676">
        <ele>388.6</ele>
        <time>2011-05-24T12:45:19Z</time>
        <extensions><gpxtpx:TrackPointExtension><gpxtpx:hr>124</gpxtpx:hr></gpxtpx:TrackPointExtension></extensions>
      </trkpt>
      <trkpt lat="61.134720875" lon="13.9895691316">
        <ele>388</ele>
        <time>2011-05-24T12:45:20Z</time>
        <extensions><gpxtpx:TrackPointExtension><gpxtpx:hr>120</gpxtpx:hr></gpxtpx:TrackPointExtension></extensions>
      </trkpt>
      <trkpt lat="61.1347695739" lon="13.9890152556">
        <ele>387</ele>
        <time>2011-05-24T12:45:26Z</time>
        <extensions><gpxtpx:TrackPointExtension><gpxtpx:hr>122</gpxtpx:hr></gpxtpx:TrackPointExtension></extensions>
      </trkpt>
      <trkpt lat="61.134794971" lon="13.9888103181">
        <ele>386.8</ele>
        <time>2011-05-24T12:45:28Z</time>
        <extensions><gpxtpx:TrackPointExtension><gpxtpx:hr>126</gpxtpx:hr></gpxtpx:TrackPointExtension></extensions>
      </trkpt>
      <trkpt lat="61.1347715855" lon="13.9884886208">
        <ele>386.4</ele>
        <time>2011-05-24T12:45:33Z</time>
        <extensions><gpxtpx:TrackPointExtension><gpxtpx:hr>129</gpxtpx:hr></gpxtpx:TrackPointExtension></extensions>
      </trkpt>
      <trkpt lat="61.1347430032" lon="13.988453333">
        <ele>386.2</ele>
        <time>2011-05-24T12:45:34Z</time>
        <extensions><gpxtpx:TrackPointExtension><gpxtpx:hr>129</gpxtpx:hr></gpxtpx:TrackPointExtension></extensions>
      </trkpt>
      <trkpt lat="61.1346357149" lon="13.9882983517">
        <ele>386</ele>
        <time>2011-05-24T12:45:38Z</time>
        <extensions><gpxtpx:TrackPointExtension><gpxtpx:hr>131</gpxtpx:hr></gpxtpx:TrackPointExtension></extensions>
      </trkpt>
      <trkpt lat="61.1346119103" lon="13.9883000281">
        <ele>386</ele>
        <time>2011-05-24T12:45:39Z</time>
        <extensions><gpxtpx:TrackPointExtension><gpxtpx:hr>132</gpxtpx:hr></gpxtpx:TrackPointExtension></extensions>
      </trkpt>
      <trkpt lat="61.1346074679" lon="13.9882970944">
        <ele>385.8</ele>
        <time>2011-05-24T12:45:42Z</time>
        <extensions><gpxtpx:TrackPointExtension><gpxtpx:hr>133</gpxtpx:hr></gpxtpx:TrackPointExtension></extensions>
      </trkpt>
      <trkpt lat="61.1346268301" lon="13.9883045543">
        <ele>385.8</ele>
        <time>2011-05-24T12:45:46Z</time>
        <extensions><gpxtpx:TrackPointExtension><gpxtpx:hr>134</gpxtpx:hr></gpxtpx:TrackPointExtension></extensions>
      </trkpt>
      <trkpt lat="61.1346374751" lon="13.9883105055">
        <ele>385.8</ele>
        <time>2011-05-24T12:45:48Z</time>
        <extensions><gpxtpx:TrackPointExtension><gpxtpx:hr>134</gpxtpx:hr></gpxtpx:TrackPointExtension></extensions>
      </trkpt>
      <trkpt lat="61.1346651354" lon="13.9883392554">
        <ele>385.6</ele>
        <time>2011-05-24T12:45:54Z</time>
        <extensions><gpxtpx:TrackPointExtension><gpxtpx:hr>134</gpxtpx:hr></gpxtpx:TrackPointExtension></extensions>
      </trkpt>
      <trkpt lat="61.1346931309" lon="13.9883478887">
        <ele>385.6</ele>
        <time>2011-05-24T12:45:56Z</time>
        <extensions><gpxtpx:TrackPointExtension><gpxtpx:hr>134</gpxtpx:hr></gpxtpx:TrackPointExtension></extensions>
      </trkpt>
      <trkpt lat="61.1347485353" lon="13.988370436">
        <ele>385.6</ele>
        <time>2011-05-24T12:46:03Z</time>
        <extensions><gpxtpx:TrackPointExtension><gpxtpx:hr>134</gpxtpx:hr></gpxtpx:TrackPointExtension></extensions>
      </trkpt>
      <trkpt lat="61.1347575877" lon="13.9883921452">
        <ele>385.6</ele>
        <time>2011-05-24T12:46:06Z</time>
        <extensions><gpxtpx:TrackPointExtension><gpxtpx:hr>134</gpxtpx:hr></gpxtpx:TrackPointExtension></extensions>
      </trkpt>
      <trkpt lat="61.1347723399" lon="13.9883707713">
        <ele>384.8</ele>
        <time>2011-05-24T12:46:10Z</time>
        <extensions><gpxtpx:TrackPointExtension><gpxtpx:hr>132</gpxtpx:hr></gpxtpx:TrackPointExtension></extensions>
      </trkpt>
      <trkpt lat="61.1347735133" lon="13.9883691788">
        <ele>384.6</ele>
        <time>2011-05-24T12:46:14Z</time>
        <extensions><gpxtpx:TrackPointExtension><gpxtpx:hr>127</gpxtpx:hr></gpxtpx:TrackPointExtension></extensions>
      </trkpt>
      <trkpt lat="61.1347971503" lon="13.9883840985">
        <ele>383.8</ele>
        <time>2011-05-24T12:46:24Z</time>
        <extensions><gpxtpx:TrackPointExtension><gpxtpx:hr>124</gpxtpx:hr></gpxtpx:TrackPointExtension></extensions>
      </trkpt>
      <trkpt lat="61.1348064542" lon="13.9883873675">
        <ele>383.8</ele>
        <time>2011-05-24T12:46:28Z</time>
        <extensions><gpxtpx:TrackPointExtension><gpxtpx:hr>123</gpxtpx:hr></gpxtpx:TrackPointExtension></extensions>
      </trkpt>
      <trkpt lat="61.1348072086" lon="13.9883607969">
        <ele>383.6</ele>
        <time>2011-05-24T12:46:36Z</time>
        <extensions><gpxtpx:TrackPointExtension><gpxtpx:hr>118</gpxtpx:hr></gpxtpx:TrackPointExtension></extensions>
      </trkpt>
      <trkpt lat="61.1348086335" lon="13.988349146">
        <ele>383.6</ele>
        <time>2011-05-24T12:46:42Z</time>
        <extensions><gpxtpx:TrackPointExtension><gpxtpx:hr>113</gpxtpx:hr></gpxtpx:TrackPointExtension></extensions>
      </trkpt>
      <trkpt lat="61.1348099746" lon="13.9883450389">
        <ele>383.6</ele>
        <time>2011-05-24T12:46:48Z</time>
        <extensions><gpxtpx:TrackPointExtension><gpxtpx:hr>108</gpxtpx:hr></gpxtpx:TrackPointExtension></extensions>
      </trkpt>
      <trkpt lat="61.1348155905" lon="13.9883371599">
        <ele>383.6</ele>
        <time>2011-05-24T12:46:54Z</time>
        <extensions><gpxtpx:TrackPointExtension><gpxtpx:hr>103</gpxtpx:hr></gpxtpx:TrackPointExtension></extensions>
      </trkpt>
      <trkpt lat="61.1348191947" lon="13.9883336395">
        <ele>383.6</ele>
        <time>2011-05-24T12:46:59Z</time>
        <extensions><gpxtpx:TrackPointExtension><gpxtpx:hr>101</gpxtpx:hr></gpxtpx:TrackPointExtension></extensions>
      </trkpt>
      <trkpt lat="61.1348244753" lon="13.9883817516">
        <ele>383.6</ele>
        <time>2011-05-24T12:47:06Z</time>
        <extensions><gpxtpx:TrackPointExtension><gpxtpx:hr>98</gpxtpx:hr></gpxtpx:TrackPointExtension></extensions>
      </trkpt>
      <trkpt lat="61.134831097" lon="13.9883770577">
        <ele>383.8</ele>
        <time>2011-05-24T12:47:14Z</time>
        <extensions><gpxtpx:TrackPointExtension><gpxtpx:hr>94</gpxtpx:hr></gpxtpx:TrackPointExtension></extensions>
      </trkpt>
      <trkpt lat="61.134825062" lon="13.9883670833">
        <ele>384.8</ele>
        <time>2011-05-24T12:47:22Z</time>
        <extensions><gpxtpx:TrackPointExtension><gpxtpx:hr>99</gpxtpx:hr></gpxtpx:TrackPointExtension></extensions>
      </trkpt>
      <trkpt lat="61.1348194462" lon="13.9883549295">
        <ele>386.2</ele>
        <time>2011-05-24T12:47:28Z</time>
        <extensions><gpxtpx:TrackPointExtension><gpxtpx:hr>92</gpxtpx:hr></gpxtpx:TrackPointExtension></extensions>
      </trkpt>
      <trkpt lat="61.1347783748" lon="13.9882742118">
        <ele>387.4</ele>
        <time>2011-05-24T12:47:44Z</time>
        <extensions><gpxtpx:TrackPointExtension><gpxtpx:hr>96</gpxtpx:hr></gpxtpx:TrackPointExtension></extensions>
      </trkpt>
      <trkpt lat="61.134762114" lon="13.9882809173">
        <ele>386.8</ele>
        <time>2011-05-24T12:47:54Z</time>
        <extensions><gpxtpx:TrackPointExtension><gpxtpx:hr>90</gpxtpx:hr></gpxtpx:TrackPointExtension></extensions>
      </trkpt>
      <trkpt lat="61.1347179413" lon="13.9883876189">
        <ele>383.6</ele>
        <time>2011-05-24T12:49:04Z</time>
        <extensions><gpxtpx:TrackPointExtension><gpxtpx:hr>91</gpxtpx:hr></gpxtpx:TrackPointExtension></extensions>
      </trkpt>
      <trkpt lat="61.1346956455" lon="13.9883937377">
        <ele>383.6</ele>
        <time>2011-05-24T12:49:07Z</time>
        <extensions><gpxtpx:TrackPointExtension><gpxtpx:hr>96</gpxtpx:hr></gpxtpx:TrackPointExtension></extensions>
      </trkpt>
      <trkpt lat="61.1346940529" lon="13.9883976772">
        <ele>383.6</ele>
        <time>2011-05-24T12:49:10Z</time>
        <extensions><gpxtpx:TrackPointExtension><gpxtpx:hr>101</gpxtpx:hr></gpxtpx:TrackPointExtension></extensions>
      </trkpt>
      <trkpt lat="61.1346917898" lon="13.9883954979">
        <ele>383.6</ele>
        <time>2011-05-24T12:49:18Z</time>
        <extensions><gpxtpx:TrackPointExtension><gpxtpx:hr>96</gpxtpx:hr></gpxtpx:TrackPointExtension></extensions>
      </trkpt>
      <trkpt lat="61.1346886047" lon="13.9884008623">
        <ele>382.4</ele>
        <time>2011-05-24T12:49:29Z</time>
        <extensions><gpxtpx:TrackPointExtension><gpxtpx:hr>101</gpxtpx:hr></gpxtpx:TrackPointExtension></extensions>
      </trkpt>
      <trkpt lat="61.1346896105" lon="13.9884079031">
        <ele>382.2</ele>
        <time>2011-05-24T12:49:32Z</time>
        <extensions><gpxtpx:TrackPointExtension><gpxtpx:hr>106</gpxtpx:hr></gpxtpx:TrackPointExtension></extensions>
      </trkpt>
      <trkpt lat="61.1346877665" lon="13.9884560991">
        <ele>381.6</ele>
        <time>2011-05-24T12:50:04Z</time>
        <extensions><gpxtpx:TrackPointExtension><gpxtpx:hr>111</gpxtpx:hr></gpxtpx:TrackPointExtension></extensions>
      </trkpt>
      <trkpt lat="61.1347135828" lon="13.9884947396">
        <ele>381.6</ele>
        <time>2011-05-24T12:50:09Z</time>
        <extensions><gpxtpx:TrackPointExtension><gpxtpx:hr>111</gpxtpx:hr></gpxtpx:TrackPointExtension></extensions>
      </trkpt>
      <trkpt lat="61.1347206236" lon="13.9884932309">
        <ele>381.6</ele>
        <time>2011-05-24T12:50:11Z</time>
        <extensions><gpxtpx:TrackPointExtension><gpxtpx:hr>111</gpxtpx:hr></gpxtpx:TrackPointExtension></extensions>
      </trkpt>
      <trkpt lat="61.1347462722" lon="13.9885080668">
        <ele>381.6</ele>
        <time>2011-05-24T12:50:13Z</time>
        <extensions><gpxtpx:TrackPointExtension><gpxtpx:hr>109</gpxtpx:hr></gpxtpx:TrackPointExtension></extensions>
      </trkpt>
      <trkpt lat="61.1347605214" lon="13.988658019">
        <ele>381.6</ele>
        <time>2011-05-24T12:50:17Z</time>
        <extensions><gpxtpx:TrackPointExtension><gpxtpx:hr>111</gpxtpx:hr></gpxtpx:TrackPointExtension></extensions>
      </trkpt>
      <trkpt lat="61.1347362977" lon="13.9890749347">
        <ele>381.6</ele>
        <time>2011-05-24T12:50:22Z</time>
        <extensions><gpxtpx:TrackPointExtension><gpxtpx:hr>115</gpxtpx:hr></gpxtpx:TrackPointExtension></extensions>
      </trkpt>
      <trkpt lat="61.1346941368" lon="13.9894636034">
        <ele>381.4</ele>
        <time>2011-05-24T12:50:25Z</time>
        <extensions><gpxtpx:TrackPointExtension><gpxtpx:hr>115</gpxtpx:hr></gpxtpx:TrackPointExtension></extensions>
      </trkpt>
      <trkpt lat="61.1346516405" lon="13.9898819441">
        <ele>381</ele>
        <time>2011-05-24T12:50:29Z</time>
        <extensions><gpxtpx:TrackPointExtension><gpxtpx:hr>115</gpxtpx:hr></gpxtpx:TrackPointExtension></extensions>
      </trkpt>
      <trkpt lat="61.1345970744" lon="13.9903031345">
        <ele>380.6</ele>
        <time>2011-05-24T12:50:32Z</time>
        <extensions><gpxtpx:TrackPointExtension><gpxtpx:hr>116</gpxtpx:hr></gpxtpx:TrackPointExtension></extensions>
      </trkpt>
      <trkpt lat="61.1345643011" lon="13.9906001053">
        <ele>380</ele>
        <time>2011-05-24T12:50:35Z</time>
        <extensions><gpxtpx:TrackPointExtension><gpxtpx:hr>117</gpxtpx:hr></gpxtpx:TrackPointExtension></extensions>
      </trkpt>
      <trkpt lat="61.1344868524" lon="13.9911253989">
        <ele>379.2</ele>
        <time>2011-05-24T12:50:39Z</time>
        <extensions><gpxtpx:TrackPointExtension><gpxtpx:hr>117</gpxtpx:hr></gpxtpx:TrackPointExtension></extensions>
      </trkpt>
      <trkpt lat="61.1344755368" lon="13.9911955554">
        <ele>379</ele>
        <time>2011-05-24T12:50:40Z</time>
        <extensions><gpxtpx:TrackPointExtension><gpxtpx:hr>118</gpxtpx:hr></gpxtpx:TrackPointExtension></extensions>
      </trkpt>
      <trkpt lat="61.1344162768" lon="13.9914280693">
        <ele>378.6</ele>
        <time>2011-05-24T12:50:42Z</time>
        <extensions><gpxtpx:TrackPointExtension><gpxtpx:hr>119</gpxtpx:hr></gpxtpx:TrackPointExtension></extensions>
      </trkpt>
      <trkpt lat="61.1342070645" lon="13.9918238627">
        <ele>378.2</ele>
        <time>2011-05-24T12:50:46Z</time>
        <extensions><gpxtpx:TrackPointExtension><gpxtpx:hr>123</gpxtpx:hr></gpxtpx:TrackPointExtension></extensions>
      </trkpt>
      <trkpt lat="61.1340405162" lon="13.9921574623">
        <ele>377.4</ele>
        <time>2011-05-24T12:50:49Z</time>
        <extensions><gpxtpx:TrackPointExtension><gpxtpx:hr>125</gpxtpx:hr></gpxtpx:TrackPointExtension></extensions>
      </trkpt>
      <trkpt lat="61.134000786" lon="13.992262236">
        <ele>377.2</ele>
        <time>2011-05-24T12:50:50Z</time>
        <extensions><gpxtpx:TrackPointExtension><gpxtpx:hr>125</gpxtpx:hr></gpxtpx:TrackPointExtension></extensions>
      </trkpt>
      <trkpt lat="61.1339355748" lon="13.9924514155">
        <ele>376.8</ele>
        <time>2011-05-24T12:50:52Z</time>
        <extensions><gpxtpx:TrackPointExtension><gpxtpx:hr>126</gpxtpx:hr></gpxtpx:TrackPointExtension></extensions>
      </trkpt>
      <trkpt lat="61.1338126123" lon="13.9929398288">
        <ele>376.4</ele>
        <time>2011-05-24T12:50:56Z</time>
        <extensions><gpxtpx:TrackPointExtension><gpxtpx:hr>128</gpxtpx:hr></gpxtpx:TrackPointExtension></extensions>
      </trkpt>
      <trkpt lat="61.1337665957" lon="13.9931378093">
        <ele>376.2</ele>
        <time>2011-05-24T12:50:58Z</time>
        <extensions><gpxtpx:TrackPointExtension><gpxtpx:hr>129</gpxtpx:hr></gpxtpx:TrackPointExtension></extensions>
      </trkpt>
      <trkpt lat="61.1336509255" lon="13.9936177569">
        <ele>375.8</ele>
        <time>2011-05-24T12:51:02Z</time>
        <extensions><gpxtpx:TrackPointExtension><gpxtpx:hr>131</gpxtpx:hr></gpxtpx:TrackPointExtension></extensions>
      </trkpt>
      <trkpt lat="61.1335743987" lon="13.9938326688">
        <ele>375.8</ele>
        <time>2011-05-24T12:51:04Z</time>
        <extensions><gpxtpx:TrackPointExtension><gpxtpx:hr>132</gpxtpx:hr></gpxtpx:TrackPointExtension></extensions>
      </trkpt>
      <trkpt lat="61.1334894063" lon="13.9943510055">
        <ele>375.6</ele>
        <time>2011-05-24T12:51:08Z</time>
        <extensions><gpxtpx:TrackPointExtension><gpxtpx:hr>133</gpxtpx:hr></gpxtpx:TrackPointExtension></extensions>
      </trkpt>
      <trkpt lat="61.1334609078" lon="13.9947851879">
        <ele>375.2</ele>
        <time>2011-05-24T12:51:11Z</time>
        <extensions><gpxtpx:TrackPointExtension><gpxtpx:hr>134</gpxtpx:hr></gpxtpx:TrackPointExtension></extensions>
      </trkpt>
      <trkpt lat="61.1334418809" lon="13.9952208791">
        <ele>374.6</ele>
        <time>2011-05-24T12:51:14Z</time>
        <extensions><gpxtpx:TrackPointExtension><gpxtpx:hr>135</gpxtpx:hr></gpxtpx:TrackPointExtension></extensions>
      </trkpt>
      <trkpt lat="61.1334258715" lon="13.9956761001">
        <ele>374.2</ele>
        <time>2011-05-24T12:51:17Z</time>
        <extensions><gpxtpx:TrackPointExtension><gpxtpx:hr>135</gpxtpx:hr></gpxtpx:TrackPointExtension></extensions>
      </trkpt>
      <trkpt lat="61.1333968701" lon="13.9961319078">
        <ele>374</ele>
        <time>2011-05-24T12:51:20Z</time>
        <extensions><gpxtpx:TrackPointExtension><gpxtpx:hr>136</gpxtpx:hr></gpxtpx:TrackPointExtension></extensions>
      </trkpt>
      <trkpt lat="61.1333453214" lon="13.9965398549">
        <ele>373.8</ele>
        <time>2011-05-24T12:51:23Z</time>
        <extensions><gpxtpx:TrackPointExtension><gpxtpx:hr>136</gpxtpx:hr></gpxtpx:TrackPointExtension></extensions>
      </trkpt>
      <trkpt lat="61.1332159049" lon="13.9972876042">
        <ele>373.6</ele>
        <time>2011-05-24T12:51:28Z</time>
        <extensions><gpxtpx:TrackPointExtension><gpxtpx:hr>137</gpxtpx:hr></gpxtpx:TrackPointExtension></extensions>
      </trkpt>
      <trkpt lat="61.1331806171" lon="13.9977189367">
        <ele>373.4</ele>
        <time>2011-05-24T12:51:31Z</time>
        <extensions><gpxtpx:TrackPointExtension><gpxtpx:hr>138</gpxtpx:hr></gpxtpx:TrackPointExtension></extensions>
      </trkpt>
      <trkpt lat="61.1331666193" lon="13.9981563881">
        <ele>373.4</ele>
        <time>2011-05-24T12:51:34Z</time>
        <extensions><gpxtpx:TrackPointExtension><gpxtpx:hr>139</gpxtpx:hr></gpxtpx:TrackPointExtension></extensions>
      </trkpt>
      <trkpt lat="61.1331240392" lon="13.99851857">
        <ele>373.4</ele>
        <time>2011-05-24T12:51:37Z</time>
        <extensions><gpxtpx:TrackPointExtension><gpxtpx:hr>139</gpxtpx:hr></gpxtpx:TrackPointExtension></extensions>
      </trkpt>
      <trkpt lat="61.1330987259" lon="13.9986411134">
        <ele>373.4</ele>
        <time>2011-05-24T12:51:38Z</time>
        <extensions><gpxtpx:TrackPointExtension><gpxtpx:hr>139</gpxtpx:hr></gpxtpx:TrackPointExtension></extensions>
      </trkpt>
      <trkpt lat="61.1329780265" lon="13.9989693486">
        <ele>373.4</ele>
        <time>2011-05-24T12:51:41Z</time>
        <extensions><gpxtpx:TrackPointExtension><gpxtpx:hr>140</gpxtpx:hr></gpxtpx:TrackPointExtension></extensions>
      </trkpt>
      <trkpt lat="61.1328394737" lon="13.9993705063">
        <ele>372.8</ele>
        <time>2011-05-24T12:51:44Z</time>
        <extensions><gpxtpx:TrackPointExtension><gpxtpx:hr>141</gpxtpx:hr></gpxtpx:TrackPointExtension></extensions>
      </trkpt>
      <trkpt lat="61.1327138291" lon="13.9997851589">
        <ele>372.4</ele>
        <time>2011-05-24T12:51:47Z</time>
        <extensions><gpxtpx:TrackPointExtension><gpxtpx:hr>140</gpxtpx:hr></gpxtpx:TrackPointExtension></extensions>
      </trkpt>
      <trkpt lat="61.1326569998" lon="13.9999248852">
        <ele>372.2</ele>
        <time>2011-05-24T12:51:48Z</time>
        <extensions><gpxtpx:TrackPointExtension><gpxtpx:hr>141</gpxtpx:hr></gpxtpx:TrackPointExtension></extensions>
      </trkpt>
      <trkpt lat="61.1323987534" lon="14.0004499274">
        <ele>371.6</ele>
        <time>2011-05-24T12:51:52Z</time>
        <extensions><gpxtpx:TrackPointExtension><gpxtpx:hr>140</gpxtpx:hr></gpxtpx:TrackPointExtension></extensions>
      </trkpt>
      <trkpt lat="61.1322689178" lon="14.0008235087">
        <ele>371</ele>
        <time>2011-05-24T12:51:55Z</time>
        <extensions><gpxtpx:TrackPointExtension><gpxtpx:hr>140</gpxtpx:hr></gpxtpx:TrackPointExtension></extensions>
      </trkpt>
      <trkpt lat="61.1321645632" lon="14.0011670828">
        <ele>370.6</ele>
        <time>2011-05-24T12:51:57Z</time>
        <extensions><gpxtpx:TrackPointExtension><gpxtpx:hr>139</gpxtpx:hr></gpxtpx:TrackPointExtension></extensions>
      </trkpt>
      <trkpt lat="61.1321022856" lon="14.0013125926">
        <ele>370.2</ele>
        <time>2011-05-24T12:51:58Z</time>
        <extensions><gpxtpx:TrackPointExtension><gpxtpx:hr>139</gpxtpx:hr></gpxtpx:TrackPointExtension></extensions>
      </trkpt>
      <trkpt lat="61.1319644872" lon="14.0015522311">
        <ele>369.6</ele>
        <time>2011-05-24T12:52:00Z</time>
        <extensions><gpxtpx:TrackPointExtension><gpxtpx:hr>139</gpxtpx:hr></gpxtpx:TrackPointExtension></extensions>
      </trkpt>
      <trkpt lat="61.1318262697" lon="14.0018138302">
        <ele>369</ele>
        <time>2011-05-24T12:52:02Z</time>
        <extensions><gpxtpx:TrackPointExtension><gpxtpx:hr>138</gpxtpx:hr></gpxtpx:TrackPointExtension></extensions>
      </trkpt>
      <trkpt lat="61.1317585439" lon="14.0019424085">
        <ele>368.6</ele>
        <time>2011-05-24T12:52:03Z</time>
        <extensions><gpxtpx:TrackPointExtension><gpxtpx:hr>138</gpxtpx:hr></gpxtpx:TrackPointExtension></extensions>
      </trkpt>
      <trkpt lat="61.1315171452" lon="14.0022226154">
        <ele>367.6</ele>
        <time>2011-05-24T12:52:06Z</time>
        <extensions><gpxtpx:TrackPointExtension><gpxtpx:hr>138</gpxtpx:hr></gpxtpx:TrackPointExtension></extensions>
      </trkpt>
      <trkpt lat="61.1313074301" lon="14.002381201">
        <ele>366.6</ele>
        <time>2011-05-24T12:52:08Z</time>
        <extensions><gpxtpx:TrackPointExtension><gpxtpx:hr>137</gpxtpx:hr></gpxtpx:TrackPointExtension></extensions>
      </trkpt>
      <trkpt lat="61.1312533668" lon="14.0024436461">
        <ele>366.2</ele>
        <time>2011-05-24T12:52:09Z</time>
        <extensions><gpxtpx:TrackPointExtension><gpxtpx:hr>136</gpxtpx:hr></gpxtpx:TrackPointExtension></extensions>
      </trkpt>
      <trkpt lat="61.1311836294" lon="14.002556718">
        <ele>365.8</ele>
        <time>2011-05-24T12:52:10Z</time>
        <extensions><gpxtpx:TrackPointExtension><gpxtpx:hr>136</gpxtpx:hr></gpxtpx:TrackPointExtension></extensions>
      </trkpt>
      <trkpt lat="61.1310259659" lon="14.00294941">
        <ele>364.6</ele>
        <time>2011-05-24T12:52:12Z</time>
        <extensions><gpxtpx:TrackPointExtension><gpxtpx:hr>135</gpxtpx:hr></gpxtpx:TrackPointExtension></extensions>
      </trkpt>
      <trkpt lat="61.1308401391" lon="14.0033644817">
        <ele>363</ele>
        <time>2011-05-24T12:52:15Z</time>
        <extensions><gpxtpx:TrackPointExtension><gpxtpx:hr>132</gpxtpx:hr></gpxtpx:TrackPointExtension></extensions>
      </trkpt>
      <trkpt lat="61.1306542286" lon="14.0036657272">
        <ele>361.8</ele>
        <time>2011-05-24T12:52:17Z</time>
        <extensions><gpxtpx:TrackPointExtension><gpxtpx:hr>132</gpxtpx:hr></gpxtpx:TrackPointExtension></extensions>
      </trkpt>
      <trkpt lat="61.1304296775" lon="14.003933948">
        <ele>360.4</ele>
        <time>2011-05-24T12:52:19Z</time>
        <extensions><gpxtpx:TrackPointExtension><gpxtpx:hr>132</gpxtpx:hr></gpxtpx:TrackPointExtension></extensions>
      </trkpt>
      <trkpt lat="61.1302317808" lon="14.0040936232">
        <ele>359</ele>
        <time>2011-05-24T12:52:20Z</time>
        <extensions><gpxtpx:TrackPointExtension><gpxtpx:hr>134</gpxtpx:hr></gpxtpx:TrackPointExtension></extensions>
      </trkpt>
      <trkpt lat="61.1301132608" lon="14.0041977264">
        <ele>358.4</ele>
        <time>2011-05-24T12:52:22Z</time>
        <extensions><gpxtpx:TrackPointExtension><gpxtpx:hr>135</gpxtpx:hr></gpxtpx:TrackPointExtension></extensions>
      </trkpt>
      <trkpt lat="61.1299838442" lon="14.0043845589">
        <ele>357</ele>
        <time>2011-05-24T12:52:23Z</time>
        <extensions><gpxtpx:TrackPointExtension><gpxtpx:hr>137</gpxtpx:hr></gpxtpx:TrackPointExtension></extensions>
      </trkpt>
      <trkpt lat="61.1297820919" lon="14.004902728">
        <ele>355.2</ele>
        <time>2011-05-24T12:52:27Z</time>
        <extensions><gpxtpx:TrackPointExtension><gpxtpx:hr>140</gpxtpx:hr></gpxtpx:TrackPointExtension></extensions>
      </trkpt>
      <trkpt lat="61.129678324" lon="14.0052596293">
        <ele>354</ele>
        <time>2011-05-24T12:52:29Z</time>
        <extensions><gpxtpx:TrackPointExtension><gpxtpx:hr>142</gpxtpx:hr></gpxtpx:TrackPointExtension></extensions>
      </trkpt>
      <trkpt lat="61.1296031383" lon="14.0055423507">
        <ele>352.8</ele>
        <time>2011-05-24T12:52:30Z</time>
        <extensions><gpxtpx:TrackPointExtension><gpxtpx:hr>143</gpxtpx:hr></gpxtpx:TrackPointExtension></extensions>
      </trkpt>
      <trkpt lat="61.1292940977" lon="14.0063452529">
        <ele>350.4</ele>
        <time>2011-05-24T12:52:35Z</time>
        <extensions><gpxtpx:TrackPointExtension><gpxtpx:hr>145</gpxtpx:hr></gpxtpx:TrackPointExtension></extensions>
      </trkpt>
      <trkpt lat="61.1290677864" lon="14.0067141404">
        <ele>348.8</ele>
        <time>2011-05-24T12:52:38Z</time>
        <extensions><gpxtpx:TrackPointExtension><gpxtpx:hr>146</gpxtpx:hr></gpxtpx:TrackPointExtension></extensions>
      </trkpt>
      <trkpt lat="61.1289419741" lon="14.0069169823">
        <ele>347.8</ele>
        <time>2011-05-24T12:52:40Z</time>
        <extensions><gpxtpx:TrackPointExtension><gpxtpx:hr>146</gpxtpx:hr></gpxtpx:TrackPointExtension></extensions>
      </trkpt>
      <trkpt lat="61.1287449994" lon="14.0073425314">
        <ele>345.8</ele>
        <time>2011-05-24T12:52:43Z</time>
        <extensions><gpxtpx:TrackPointExtension><gpxtpx:hr>146</gpxtpx:hr></gpxtpx:TrackPointExtension></extensions>
      </trkpt>
      <trkpt lat="61.1285605976" lon="14.0077900411">
        <ele>344</ele>
        <time>2011-05-24T12:52:46Z</time>
        <extensions><gpxtpx:TrackPointExtension><gpxtpx:hr>147</gpxtpx:hr></gpxtpx:TrackPointExtension></extensions>
      </trkpt>
      <trkpt lat="61.1284425805" lon="14.0081055358">
        <ele>342.8</ele>
        <time>2011-05-24T12:52:48Z</time>
        <extensions><gpxtpx:TrackPointExtension><gpxtpx:hr>147</gpxtpx:hr></gpxtpx:TrackPointExtension></extensions>
      </trkpt>
      <trkpt lat="61.1282957296" lon="14.0085050171">
        <ele>341.6</ele>
        <time>2011-05-24T12:52:50Z</time>
        <extensions><gpxtpx:TrackPointExtension><gpxtpx:hr>147</gpxtpx:hr></gpxtpx:TrackPointExtension></extensions>
      </trkpt>
      <trkpt lat="61.1281770419" lon="14.0088822026">
        <ele>340.4</ele>
        <time>2011-05-24T12:52:52Z</time>
        <extensions><gpxtpx:TrackPointExtension><gpxtpx:hr>148</gpxtpx:hr></gpxtpx:TrackPointExtension></extensions>
      </trkpt>
      <trkpt lat="61.1280754532" lon="14.0093009623">
        <ele>339.2</ele>
        <time>2011-05-24T12:52:54Z</time>
        <extensions><gpxtpx:TrackPointExtension><gpxtpx:hr>148</gpxtpx:hr></gpxtpx:TrackPointExtension></extensions>
      </trkpt>
      <trkpt lat="61.1279952385" lon="14.0096295328">
        <ele>338.2</ele>
        <time>2011-05-24T12:52:56Z</time>
        <extensions><gpxtpx:TrackPointExtension><gpxtpx:hr>149</gpxtpx:hr></gpxtpx:TrackPointExtension></extensions>
      </trkpt>
      <trkpt lat="61.127775968" lon="14.0101915392">
        <ele>336.4</ele>
        <time>2011-05-24T12:52:59Z</time>
        <extensions><gpxtpx:TrackPointExtension><gpxtpx:hr>149</gpxtpx:hr></gpxtpx:TrackPointExtension></extensions>
      </trkpt>
      <trkpt lat="61.1277452902" lon="14.0102797168">
        <ele>336</ele>
        <time>2011-05-24T12:53:00Z</time>
        <extensions><gpxtpx:TrackPointExtension><gpxtpx:hr>149</gpxtpx:hr></gpxtpx:TrackPointExtension></extensions>
      </trkpt>
      <trkpt lat="61.1276519996" lon="14.0109576449">
        <ele>334.8</ele>
        <time>2011-05-24T12:53:03Z</time>
        <extensions><gpxtpx:TrackPointExtension><gpxtpx:hr>149</gpxtpx:hr></gpxtpx:TrackPointExtension></extensions>
      </trkpt>
      <trkpt lat="61.1276730382" lon="14.0114870457">
        <ele>333.4</ele>
        <time>2011-05-24T12:53:06Z</time>
        <extensions><gpxtpx:TrackPointExtension><gpxtpx:hr>150</gpxtpx:hr></gpxtpx:TrackPointExtension></extensions>
      </trkpt>
      <trkpt lat="61.1277082422" lon="14.0118881196">
        <ele>332.8</ele>
        <time>2011-05-24T12:53:08Z</time>
        <extensions><gpxtpx:TrackPointExtension><gpxtpx:hr>150</gpxtpx:hr></gpxtpx:TrackPointExtension></extensions>
      </trkpt>
      <trkpt lat="61.1277249222" lon="14.0120761256">
        <ele>332.4</ele>
        <time>2011-05-24T12:53:09Z</time>
        <extensions><gpxtpx:TrackPointExtension><gpxtpx:hr>150</gpxtpx:hr></gpxtpx:TrackPointExtension></extensions>
      </trkpt>
      <trkpt lat="61.1277170432" lon="14.0127516229">
        <ele>331.4</ele>
        <time>2011-05-24T12:53:12Z</time>
        <extensions><gpxtpx:TrackPointExtension><gpxtpx:hr>151</gpxtpx:hr></gpxtpx:TrackPointExtension></extensions>
      </trkpt>
      <trkpt lat="61.127661555" lon="14.013237354">
        <ele>330.4</ele>
        <time>2011-05-24T12:53:15Z</time>
        <extensions><gpxtpx:TrackPointExtension><gpxtpx:hr>151</gpxtpx:hr></gpxtpx:TrackPointExtension></extensions>
      </trkpt>
      <trkpt lat="61.1275965953" lon="14.013629124">
        <ele>329.8</ele>
        <time>2011-05-24T12:53:17Z</time>
        <extensions><gpxtpx:TrackPointExtension><gpxtpx:hr>151</gpxtpx:hr></gpxtpx:TrackPointExtension></extensions>
      </trkpt>
      <trkpt lat="61.1275358265" lon="14.0141411743">
        <ele>329.4</ele>
        <time>2011-05-24T12:53:19Z</time>
        <extensions><gpxtpx:TrackPointExtension><gpxtpx:hr>151</gpxtpx:hr></gpxtpx:TrackPointExtension></extensions>
      </trkpt>
      <trkpt lat="61.1274965154" lon="14.0146022626">
        <ele>328.2</ele>
        <time>2011-05-24T12:53:22Z</time>
        <extensions><gpxtpx:TrackPointExtension><gpxtpx:hr>151</gpxtpx:hr></gpxtpx:TrackPointExtension></extensions>
      </trkpt>
      <trkpt lat="61.1274910672" lon="14.0147577469">
        <ele>328</ele>
        <time>2011-05-24T12:53:23Z</time>
        <extensions><gpxtpx:TrackPointExtension><gpxtpx:hr>151</gpxtpx:hr></gpxtpx:TrackPointExtension></extensions>
      </trkpt>
      <trkpt lat="61.1274973536" lon="14.015481943">
        <ele>327</ele>
        <time>2011-05-24T12:53:27Z</time>
        <extensions><gpxtpx:TrackPointExtension><gpxtpx:hr>150</gpxtpx:hr></gpxtpx:TrackPointExtension></extensions>
      </trkpt>
      <trkpt lat="61.1274577072" lon="14.0157466434">
        <ele>326.8</ele>
        <time>2011-05-24T12:53:28Z</time>
        <extensions><gpxtpx:TrackPointExtension><gpxtpx:hr>151</gpxtpx:hr></gpxtpx:TrackPointExtension></extensions>
      </trkpt>
      <trkpt lat="61.1273344933" lon="14.0161280199">
        <ele>326.4</ele>
        <time>2011-05-24T12:53:31Z</time>
        <extensions><gpxtpx:TrackPointExtension><gpxtpx:hr>151</gpxtpx:hr></gpxtpx:TrackPointExtension></extensions>
      </trkpt>
      <trkpt lat="61.1272215891" lon="14.0163625455">
        <ele>326</ele>
        <time>2011-05-24T12:53:32Z</time>
        <extensions><gpxtpx:TrackPointExtension><gpxtpx:hr>151</gpxtpx:hr></gpxtpx:TrackPointExtension></extensions>
      </trkpt>
      <trkpt lat="61.1270524423" lon="14.0166990787">
        <ele>325.2</ele>
        <time>2011-05-24T12:53:34Z</time>
        <extensions><gpxtpx:TrackPointExtension><gpxtpx:hr>150</gpxtpx:hr></gpxtpx:TrackPointExtension></extensions>
      </trkpt>
      <trkpt lat="61.1269065135" lon="14.0169799562">
        <ele>324.4</ele>
        <time>2011-05-24T12:53:37Z</time>
        <extensions><gpxtpx:TrackPointExtension><gpxtpx:hr>149</gpxtpx:hr></gpxtpx:TrackPointExtension></extensions>
      </trkpt>
      <trkpt lat="61.1268050925" lon="14.0172370291">
        <ele>323.8</ele>
        <time>2011-05-24T12:53:39Z</time>
        <extensions><gpxtpx:TrackPointExtension><gpxtpx:hr>149</gpxtpx:hr></gpxtpx:TrackPointExtension></extensions>
      </trkpt>
      <trkpt lat="61.1268016559" lon="14.0175355085">
        <ele>322</ele>
        <time>2011-05-24T12:53:43Z</time>
        <extensions><gpxtpx:TrackPointExtension><gpxtpx:hr>144</gpxtpx:hr></gpxtpx:TrackPointExtension></extensions>
      </trkpt>
      <trkpt lat="61.1267838024" lon="14.0176078443">
        <ele>320.8</ele>
        <time>2011-05-24T12:53:46Z</time>
        <extensions><gpxtpx:TrackPointExtension><gpxtpx:hr>142</gpxtpx:hr></gpxtpx:TrackPointExtension></extensions>
      </trkpt>
      <trkpt lat="61.1267637697" lon="14.0177759853">
        <ele>319.4</ele>
        <time>2011-05-24T12:53:49Z</time>
        <extensions><gpxtpx:TrackPointExtension><gpxtpx:hr>139</gpxtpx:hr></gpxtpx:TrackPointExtension></extensions>
      </trkpt>
      <trkpt lat="61.1267873228" lon="14.0179447967">
        <ele>318.6</ele>
        <time>2011-05-24T12:53:52Z</time>
        <extensions><gpxtpx:TrackPointExtension><gpxtpx:hr>138</gpxtpx:hr></gpxtpx:TrackPointExtension></extensions>
      </trkpt>
      <trkpt lat="61.1268618379" lon="14.0183593655">
        <ele>316.6</ele>
        <time>2011-05-24T12:53:58Z</time>
        <extensions><gpxtpx:TrackPointExtension><gpxtpx:hr>138</gpxtpx:hr></gpxtpx:TrackPointExtension></extensions>
      </trkpt>
      <trkpt lat="61.1268939406" lon="14.0187282529">
        <ele>316</ele>
        <time>2011-05-24T12:54:02Z</time>
        <extensions><gpxtpx:TrackPointExtension><gpxtpx:hr>140</gpxtpx:hr></gpxtpx:TrackPointExtension></extensions>
      </trkpt>
      <trkpt lat="61.1268882409" lon="14.018936124">
        <ele>315.6</ele>
        <time>2011-05-24T12:54:04Z</time>
        <extensions><gpxtpx:TrackPointExtension><gpxtpx:hr>140</gpxtpx:hr></gpxtpx:TrackPointExtension></extensions>
      </trkpt>
      <trkpt lat="61.1268355188" lon="14.0194736553">
        <ele>314.4</ele>
        <time>2011-05-24T12:54:09Z</time>
        <extensions><gpxtpx:TrackPointExtension><gpxtpx:hr>138</gpxtpx:hr></gpxtpx:TrackPointExtension></extensions>
      </trkpt>
      <trkpt lat="61.126787239" lon="14.0198665149">
        <ele>313.8</ele>
        <time>2011-05-24T12:54:12Z</time>
        <extensions><gpxtpx:TrackPointExtension><gpxtpx:hr>140</gpxtpx:hr></gpxtpx:TrackPointExtension></extensions>
      </trkpt>
      <trkpt lat="61.1267376182" lon="14.020254094">
        <ele>313</ele>
        <time>2011-05-24T12:54:17Z</time>
        <extensions><gpxtpx:TrackPointExtension><gpxtpx:hr>140</gpxtpx:hr></gpxtpx:TrackPointExtension></extensions>
      </trkpt>
      <trkpt lat="61.1267251291" lon="14.0203483904">
        <ele>312.6</ele>
        <time>2011-05-24T12:54:18Z</time>
        <extensions><gpxtpx:TrackPointExtension><gpxtpx:hr>140</gpxtpx:hr></gpxtpx:TrackPointExtension></extensions>
      </trkpt>
      <trkpt lat="61.1266218641" lon="14.0208425872">
        <ele>311.8</ele>
        <time>2011-05-24T12:54:22Z</time>
        <extensions><gpxtpx:TrackPointExtension><gpxtpx:hr>139</gpxtpx:hr></gpxtpx:TrackPointExtension></extensions>
      </trkpt>
      <trkpt lat="61.1265686391" lon="14.0211714091">
        <ele>310.8</ele>
        <time>2011-05-24T12:54:25Z</time>
        <extensions><gpxtpx:TrackPointExtension><gpxtpx:hr>138</gpxtpx:hr></gpxtpx:TrackPointExtension></extensions>
      </trkpt>
      <trkpt lat="61.1264719119" lon="14.0213460879">
        <ele>310</ele>
        <time>2011-05-24T12:54:27Z</time>
        <extensions><gpxtpx:TrackPointExtension><gpxtpx:hr>137</gpxtpx:hr></gpxtpx:TrackPointExtension></extensions>
      </trkpt>
      <trkpt lat="61.1263980674" lon="14.0214981356">
        <ele>309.2</ele>
        <time>2011-05-24T12:54:30Z</time>
        <extensions><gpxtpx:TrackPointExtension><gpxtpx:hr>134</gpxtpx:hr></gpxtpx:TrackPointExtension></extensions>
      </trkpt>
      <trkpt lat="61.1263904399" lon="14.0215383687">
        <ele>308.8</ele>
        <time>2011-05-24T12:54:31Z</time>
        <extensions><gpxtpx:TrackPointExtension><gpxtpx:hr>134</gpxtpx:hr></gpxtpx:TrackPointExtension></extensions>
      </trkpt>
      <trkpt lat="61.1263691499" lon="14.0216920928">
        <ele>308.4</ele>
        <time>2011-05-24T12:54:32Z</time>
        <extensions><gpxtpx:TrackPointExtension><gpxtpx:hr>133</gpxtpx:hr></gpxtpx:TrackPointExtension></extensions>
      </trkpt>
      <trkpt lat="61.1263345326" lon="14.0221071644">
        <ele>307.6</ele>
        <time>2011-05-24T12:54:36Z</time>
        <extensions><gpxtpx:TrackPointExtension><gpxtpx:hr>133</gpxtpx:hr></gpxtpx:TrackPointExtension></extensions>
      </trkpt>
      <trkpt lat="61.1263014241" lon="14.0225132675">
        <ele>307</ele>
        <time>2011-05-24T12:54:39Z</time>
        <extensions><gpxtpx:TrackPointExtension><gpxtpx:hr>133</gpxtpx:hr></gpxtpx:TrackPointExtension></extensions>
      </trkpt>
      <trkpt lat="61.1262519709" lon="14.0229920416">
        <ele>306.2</ele>
        <time>2011-05-24T12:54:42Z</time>
        <extensions><gpxtpx:TrackPointExtension><gpxtpx:hr>129</gpxtpx:hr></gpxtpx:TrackPointExtension></extensions>
      </trkpt>
      <trkpt lat="61.1262114863" lon="14.0233649524">
        <ele>305.4</ele>
        <time>2011-05-24T12:54:44Z</time>
        <extensions><gpxtpx:TrackPointExtension><gpxtpx:hr>129</gpxtpx:hr></gpxtpx:TrackPointExtension></extensions>
      </trkpt>
      <trkpt lat="61.1261360492" lon="14.0239688683">
        <ele>305</ele>
        <time>2011-05-24T12:54:48Z</time>
        <extensions><gpxtpx:TrackPointExtension><gpxtpx:hr>132</gpxtpx:hr></gpxtpx:TrackPointExtension></extensions>
      </trkpt>
      <trkpt lat="61.1260822374" lon="14.0244113488">
        <ele>304.6</ele>
        <time>2011-05-24T12:54:51Z</time>
        <extensions><gpxtpx:TrackPointExtension><gpxtpx:hr>134</gpxtpx:hr></gpxtpx:TrackPointExtension></extensions>
      </trkpt>
      <trkpt lat="61.1260255758" lon="14.024804376">
        <ele>304.4</ele>
        <time>2011-05-24T12:54:53Z</time>
        <extensions><gpxtpx:TrackPointExtension><gpxtpx:hr>135</gpxtpx:hr></gpxtpx:TrackPointExtension></extensions>
      </trkpt>
      <trkpt lat="61.1259562575" lon="14.0252602676">
        <ele>304.2</ele>
        <time>2011-05-24T12:54:56Z</time>
        <extensions><gpxtpx:TrackPointExtension><gpxtpx:hr>134</gpxtpx:hr></gpxtpx:TrackPointExtension></extensions>
      </trkpt>
      <trkpt lat="61.1258997635" lon="14.0256248802">
        <ele>304</ele>
        <time>2011-05-24T12:54:58Z</time>
        <extensions><gpxtpx:TrackPointExtension><gpxtpx:hr>132</gpxtpx:hr></gpxtpx:TrackPointExtension></extensions>
      </trkpt>
      <trkpt lat="61.1258301099" lon="14.0260793469">
        <ele>303.6</ele>
        <time>2011-05-24T12:55:02Z</time>
        <extensions><gpxtpx:TrackPointExtension><gpxtpx:hr>131</gpxtpx:hr></gpxtpx:TrackPointExtension></extensions>
      </trkpt>
      <trkpt lat="61.1257523258" lon="14.0265918162">
        <ele>303</ele>
        <time>2011-05-24T12:55:05Z</time>
        <extensions><gpxtpx:TrackPointExtension><gpxtpx:hr>131</gpxtpx:hr></gpxtpx:TrackPointExtension></extensions>
      </trkpt>
      <trkpt lat="61.1256953289" lon="14.0269705105">
        <ele>302.6</ele>
        <time>2011-05-24T12:55:08Z</time>
        <extensions><gpxtpx:TrackPointExtension><gpxtpx:hr>132</gpxtpx:hr></gpxtpx:TrackPointExtension></extensions>
      </trkpt>
      <trkpt lat="61.1256297825" lon="14.027386588">
        <ele>302.4</ele>
        <time>2011-05-24T12:55:11Z</time>
        <extensions><gpxtpx:TrackPointExtension><gpxtpx:hr>133</gpxtpx:hr></gpxtpx:TrackPointExtension></extensions>
      </trkpt>
      <trkpt lat="61.1255643198" lon="14.0278081137">
        <ele>302.2</ele>
        <time>2011-05-24T12:55:14Z</time>
        <extensions><gpxtpx:TrackPointExtension><gpxtpx:hr>133</gpxtpx:hr></gpxtpx:TrackPointExtension></extensions>
      </trkpt>
      <trkpt lat="61.1255003659" lon="14.0282578865">
        <ele>302</ele>
        <time>2011-05-24T12:55:17Z</time>
        <extensions><gpxtpx:TrackPointExtension><gpxtpx:hr>131</gpxtpx:hr></gpxtpx:TrackPointExtension></extensions>
      </trkpt>
      <trkpt lat="61.1254335622" lon="14.0287391752">
        <ele>301.8</ele>
        <time>2011-05-24T12:55:21Z</time>
        <extensions><gpxtpx:TrackPointExtension><gpxtpx:hr>131</gpxtpx:hr></gpxtpx:TrackPointExtension></extensions>
      </trkpt>
      <trkpt lat="61.1253776549" lon="14.0291479604">
        <ele>301.8</ele>
        <time>2011-05-24T12:55:24Z</time>
        <extensions><gpxtpx:TrackPointExtension><gpxtpx:hr>130</gpxtpx:hr></gpxtpx:TrackPointExtension></extensions>
      </trkpt>
      <trkpt lat="61.1253142877" lon="14.0296161734">
        <ele>301.8</ele>
        <time>2011-05-24T12:55:27Z</time>
        <extensions><gpxtpx:TrackPointExtension><gpxtpx:hr>129</gpxtpx:hr></gpxtpx:TrackPointExtension></extensions>
      </trkpt>
      <trkpt lat="61.1252651698" lon="14.0300373639">
        <ele>301.8</ele>
        <time>2011-05-24T12:55:30Z</time>
        <extensions><gpxtpx:TrackPointExtension><gpxtpx:hr>130</gpxtpx:hr></gpxtpx:TrackPointExtension></extensions>
      </trkpt>
      <trkpt lat="61.1252209972" lon="14.0304671039">
        <ele>301.6</ele>
        <time>2011-05-24T12:55:33Z</time>
        <extensions><gpxtpx:TrackPointExtension><gpxtpx:hr>131</gpxtpx:hr></gpxtpx:TrackPointExtension></extensions>
      </trkpt>
      <trkpt lat="61.1251799259" lon="14.0309116798">
        <ele>301.6</ele>
        <time>2011-05-24T12:55:36Z</time>
        <extensions><gpxtpx:TrackPointExtension><gpxtpx:hr>132</gpxtpx:hr></gpxtpx:TrackPointExtension></extensions>
      </trkpt>
      <trkpt lat="61.1251432132" lon="14.0313575969">
        <ele>301.6</ele>
        <time>2011-05-24T12:55:39Z</time>
        <extensions><gpxtpx:TrackPointExtension><gpxtpx:hr>132</gpxtpx:hr></gpxtpx:TrackPointExtension></extensions>
      </trkpt>
      <trkpt lat="61.1251151338" lon="14.0317977305">
        <ele>301.6</ele>
        <time>2011-05-24T12:55:42Z</time>
        <extensions><gpxtpx:TrackPointExtension><gpxtpx:hr>130</gpxtpx:hr></gpxtpx:TrackPointExtension></extensions>
      </trkpt>
      <trkpt lat="61.1250939276" lon="14.0321693839">
        <ele>301.6</ele>
        <time>2011-05-24T12:55:45Z</time>
        <extensions><gpxtpx:TrackPointExtension><gpxtpx:hr>128</gpxtpx:hr></gpxtpx:TrackPointExtension></extensions>
      </trkpt>
      <trkpt lat="61.1250791754" lon="14.0325461503">
        <ele>301.6</ele>
        <time>2011-05-24T12:55:47Z</time>
        <extensions><gpxtpx:TrackPointExtension><gpxtpx:hr>127</gpxtpx:hr></gpxtpx:TrackPointExtension></extensions>
      </trkpt>
      <trkpt lat="61.1250608191" lon="14.0330069034">
        <ele>301.6</ele>
        <time>2011-05-24T12:55:50Z</time>
        <extensions><gpxtpx:TrackPointExtension><gpxtpx:hr>126</gpxtpx:hr></gpxtpx:TrackPointExtension></extensions>
      </trkpt>
      <trkpt lat="61.1250433009" lon="14.0334745296">
        <ele>301.6</ele>
        <time>2011-05-24T12:55:53Z</time>
        <extensions><gpxtpx:TrackPointExtension><gpxtpx:hr>126</gpxtpx:hr></gpxtpx:TrackPointExtension></extensions>
      </trkpt>
      <trkpt lat="61.1250267048" lon="14.0339512082">
        <ele>301.6</ele>
        <time>2011-05-24T12:55:56Z</time>
        <extensions><gpxtpx:TrackPointExtension><gpxtpx:hr>129</gpxtpx:hr></gpxtpx:TrackPointExtension></extensions>
      </trkpt>
      <trkpt lat="61.1250086837" lon="14.0344233607">
        <ele>301.6</ele>
        <time>2011-05-24T12:55:59Z</time>
        <extensions><gpxtpx:TrackPointExtension><gpxtpx:hr>132</gpxtpx:hr></gpxtpx:TrackPointExtension></extensions>
      </trkpt>
      <trkpt lat="61.1249921713" lon="14.0348986982">
        <ele>301.6</ele>
        <time>2011-05-24T12:56:02Z</time>
        <extensions><gpxtpx:TrackPointExtension><gpxtpx:hr>133</gpxtpx:hr></gpxtpx:TrackPointExtension></extensions>
      </trkpt>
      <trkpt lat="61.1249809396" lon="14.0353471299">
        <ele>301.6</ele>
        <time>2011-05-24T12:56:05Z</time>
        <extensions><gpxtpx:TrackPointExtension><gpxtpx:hr>133</gpxtpx:hr></gpxtpx:TrackPointExtension></extensions>
      </trkpt>
      <trkpt lat="61.1249657683" lon="14.0357994172">
        <ele>301.6</ele>
        <time>2011-05-24T12:56:08Z</time>
        <extensions><gpxtpx:TrackPointExtension><gpxtpx:hr>133</gpxtpx:hr></gpxtpx:TrackPointExtension></extensions>
      </trkpt>
      <trkpt lat="61.1249459032" lon="14.0362722402">
        <ele>301.6</ele>
        <time>2011-05-24T12:56:11Z</time>
        <extensions><gpxtpx:TrackPointExtension><gpxtpx:hr>134</gpxtpx:hr></gpxtpx:TrackPointExtension></extensions>
      </trkpt>
      <trkpt lat="61.1249280498" lon="14.0367574684">
        <ele>301.6</ele>
        <time>2011-05-24T12:56:14Z</time>
        <extensions><gpxtpx:TrackPointExtension><gpxtpx:hr>134</gpxtpx:hr></gpxtpx:TrackPointExtension></extensions>
      </trkpt>
      <trkpt lat="61.1249029041" lon="14.0372456302">
        <ele>301.6</ele>
        <time>2011-05-24T12:56:17Z</time>
        <extensions><gpxtpx:TrackPointExtension><gpxtpx:hr>134</gpxtpx:hr></gpxtpx:TrackPointExtension></extensions>
      </trkpt>
      <trkpt lat="61.1248552111" lon="14.0379140029">
        <ele>301.6</ele>
        <time>2011-05-24T12:56:21Z</time>
        <extensions><gpxtpx:TrackPointExtension><gpxtpx:hr>134</gpxtpx:hr></gpxtpx:TrackPointExtension></extensions>
      </trkpt>
      <trkpt lat="61.1248129663" lon="14.0384016619">
        <ele>301.6</ele>
        <time>2011-05-24T12:56:24Z</time>
        <extensions><gpxtpx:TrackPointExtension><gpxtpx:hr>133</gpxtpx:hr></gpxtpx:TrackPointExtension></extensions>
      </trkpt>
      <trkpt lat="61.1247751639" lon="14.0388178232">
        <ele>301.6</ele>
        <time>2011-05-24T12:56:27Z</time>
        <extensions><gpxtpx:TrackPointExtension><gpxtpx:hr>133</gpxtpx:hr></gpxtpx:TrackPointExtension></extensions>
      </trkpt>
      <trkpt lat="61.1247355175" lon="14.0392103476">
        <ele>301.6</ele>
        <time>2011-05-24T12:56:29Z</time>
        <extensions><gpxtpx:TrackPointExtension><gpxtpx:hr>132</gpxtpx:hr></gpxtpx:TrackPointExtension></extensions>
      </trkpt>
      <trkpt lat="61.1246763413" lon="14.039694989">
        <ele>301</ele>
        <time>2011-05-24T12:56:32Z</time>
        <extensions><gpxtpx:TrackPointExtension><gpxtpx:hr>132</gpxtpx:hr></gpxtpx:TrackPointExtension></extensions>
      </trkpt>
      <trkpt lat="61.1246120522" lon="14.040153479">
        <ele>300.6</ele>
        <time>2011-05-24T12:56:35Z</time>
        <extensions><gpxtpx:TrackPointExtension><gpxtpx:hr>131</gpxtpx:hr></gpxtpx:TrackPointExtension></extensions>
      </trkpt>
      <trkpt lat="61.1245400516" lon="14.0406187582">
        <ele>300.4</ele>
        <time>2011-05-24T12:56:38Z</time>
        <extensions><gpxtpx:TrackPointExtension><gpxtpx:hr>131</gpxtpx:hr></gpxtpx:TrackPointExtension></extensions>
      </trkpt>
      <trkpt lat="61.1244617647" lon="14.0410868873">
        <ele>300.2</ele>
        <time>2011-05-24T12:56:41Z</time>
        <extensions><gpxtpx:TrackPointExtension><gpxtpx:hr>130</gpxtpx:hr></gpxtpx:TrackPointExtension></extensions>
      </trkpt>
      <trkpt lat="61.1243761855" lon="14.041558956">
        <ele>300</ele>
        <time>2011-05-24T12:56:44Z</time>
        <extensions><gpxtpx:TrackPointExtension><gpxtpx:hr>131</gpxtpx:hr></gpxtpx:TrackPointExtension></extensions>
      </trkpt>
      <trkpt lat="61.1242994911" lon="14.0419477923">
        <ele>299.8</ele>
        <time>2011-05-24T12:56:47Z</time>
        <extensions><gpxtpx:TrackPointExtension><gpxtpx:hr>131</gpxtpx:hr></gpxtpx:TrackPointExtension></extensions>
      </trkpt>
      <trkpt lat="61.1242205336" lon="14.0423296717">
        <ele>299.8</ele>
        <time>2011-05-24T12:56:49Z</time>
        <extensions><gpxtpx:TrackPointExtension><gpxtpx:hr>130</gpxtpx:hr></gpxtpx:TrackPointExtension></extensions>
      </trkpt>
      <trkpt lat="61.1241186097" lon="14.0427905923">
        <ele>299.8</ele>
        <time>2011-05-24T12:56:52Z</time>
        <extensions><gpxtpx:TrackPointExtension><gpxtpx:hr>130</gpxtpx:hr></gpxtpx:TrackPointExtension></extensions>
      </trkpt>
      <trkpt lat="61.1240111537" lon="14.0432338272">
        <ele>299.8</ele>
        <time>2011-05-24T12:56:55Z</time>
        <extensions><gpxtpx:TrackPointExtension><gpxtpx:hr>130</gpxtpx:hr></gpxtpx:TrackPointExtension></extensions>
      </trkpt>
      <trkpt lat="61.1239123311" lon="14.0436110965">
        <ele>299.6</ele>
        <time>2011-05-24T12:56:58Z</time>
        <extensions><gpxtpx:TrackPointExtension><gpxtpx:hr>130</gpxtpx:hr></gpxtpx:TrackPointExtension></extensions>
      </trkpt>
      <trkpt lat="61.123818873" lon="14.0439500606">
        <ele>299.6</ele>
        <time>2011-05-24T12:57:00Z</time>
        <extensions><gpxtpx:TrackPointExtension><gpxtpx:hr>130</gpxtpx:hr></gpxtpx:TrackPointExtension></extensions>
      </trkpt>
      <trkpt lat="61.1237135963" lon="14.0443362985">
        <ele>299.2</ele>
        <time>2011-05-24T12:57:03Z</time>
        <extensions><gpxtpx:TrackPointExtension><gpxtpx:hr>130</gpxtpx:hr></gpxtpx:TrackPointExtension></extensions>
      </trkpt>
      <trkpt lat="61.1236166177" lon="14.0446962173">
        <ele>299</ele>
        <time>2011-05-24T12:57:05Z</time>
        <extensions><gpxtpx:TrackPointExtension><gpxtpx:hr>131</gpxtpx:hr></gpxtpx:TrackPointExtension></extensions>
      </trkpt>
      <trkpt lat="61.1234931523" lon="14.0451552101">
        <ele>298.6</ele>
        <time>2011-05-24T12:57:08Z</time>
        <extensions><gpxtpx:TrackPointExtension><gpxtpx:hr>132</gpxtpx:hr></gpxtpx:TrackPointExtension></extensions>
      </trkpt>
      <trkpt lat="61.1233640711" lon="14.0456344034">
        <ele>298.2</ele>
        <time>2011-05-24T12:57:11Z</time>
        <extensions><gpxtpx:TrackPointExtension><gpxtpx:hr>132</gpxtpx:hr></gpxtpx:TrackPointExtension></extensions>
      </trkpt>
      <trkpt lat="61.1232796653" lon="14.0459640635">
        <ele>298.2</ele>
        <time>2011-05-24T12:57:13Z</time>
        <extensions><gpxtpx:TrackPointExtension><gpxtpx:hr>132</gpxtpx:hr></gpxtpx:TrackPointExtension></extensions>
      </trkpt>
      <trkpt lat="61.1231966007" lon="14.046305123">
        <ele>297.6</ele>
        <time>2011-05-24T12:57:15Z</time>
        <extensions><gpxtpx:TrackPointExtension><gpxtpx:hr>132</gpxtpx:hr></gpxtpx:TrackPointExtension></extensions>
      </trkpt>
      <trkpt lat="61.1231157992" lon="14.046660767">
        <ele>297.2</ele>
        <time>2011-05-24T12:57:17Z</time>
        <extensions><gpxtpx:TrackPointExtension><gpxtpx:hr>132</gpxtpx:hr></gpxtpx:TrackPointExtension></extensions>
      </trkpt>
      <trkpt lat="61.1230356682" lon="14.0470295706">
        <ele>296.8</ele>
        <time>2011-05-24T12:57:19Z</time>
        <extensions><gpxtpx:TrackPointExtension><gpxtpx:hr>131</gpxtpx:hr></gpxtpx:TrackPointExtension></extensions>
      </trkpt>
      <trkpt lat="61.1229489156" lon="14.0474738113">
        <ele>296.2</ele>
        <time>2011-05-24T12:57:21Z</time>
        <extensions><gpxtpx:TrackPointExtension><gpxtpx:hr>131</gpxtpx:hr></gpxtpx:TrackPointExtension></extensions>
      </trkpt>
      <trkpt lat="61.1228651804" lon="14.0479245061">
        <ele>295.6</ele>
        <time>2011-05-24T12:57:24Z</time>
        <extensions><gpxtpx:TrackPointExtension><gpxtpx:hr>130</gpxtpx:hr></gpxtpx:TrackPointExtension></extensions>
      </trkpt>
      <trkpt lat="61.1227849656" lon="14.0484119136">
        <ele>295.2</ele>
        <time>2011-05-24T12:57:26Z</time>
        <extensions><gpxtpx:TrackPointExtension><gpxtpx:hr>128</gpxtpx:hr></gpxtpx:TrackPointExtension></extensions>
      </trkpt>
      <trkpt lat="61.1226910883" lon="14.0490386282">
        <ele>293.8</ele>
        <time>2011-05-24T12:57:29Z</time>
        <extensions><gpxtpx:TrackPointExtension><gpxtpx:hr>124</gpxtpx:hr></gpxtpx:TrackPointExtension></extensions>
      </trkpt>
      <trkpt lat="61.1226337561" lon="14.0494649317">
        <ele>293.2</ele>
        <time>2011-05-24T12:57:31Z</time>
        <extensions><gpxtpx:TrackPointExtension><gpxtpx:hr>122</gpxtpx:hr></gpxtpx:TrackPointExtension></extensions>
      </trkpt>
      <trkpt lat="61.1225843029" lon="14.0498988626">
        <ele>292.4</ele>
        <time>2011-05-24T12:57:33Z</time>
        <extensions><gpxtpx:TrackPointExtension><gpxtpx:hr>122</gpxtpx:hr></gpxtpx:TrackPointExtension></extensions>
      </trkpt>
      <trkpt lat="61.1225367775" lon="14.0503316201">
        <ele>291.6</ele>
        <time>2011-05-24T12:57:35Z</time>
        <extensions><gpxtpx:TrackPointExtension><gpxtpx:hr>121</gpxtpx:hr></gpxtpx:TrackPointExtension></extensions>
      </trkpt>
      <trkpt lat="61.1225002325" lon="14.0507528106">
        <ele>290.8</ele>
        <time>2011-05-24T12:57:37Z</time>
        <extensions><gpxtpx:TrackPointExtension><gpxtpx:hr>121</gpxtpx:hr></gpxtpx:TrackPointExtension></extensions>
      </trkpt>
      <trkpt lat="61.1224664534" lon="14.0511619311">
        <ele>289.8</ele>
        <time>2011-05-24T12:57:39Z</time>
        <extensions><gpxtpx:TrackPointExtension><gpxtpx:hr>119</gpxtpx:hr></gpxtpx:TrackPointExtension></extensions>
      </trkpt>
      <trkpt lat="61.122438374" lon="14.0515697106">
        <ele>289.2</ele>
        <time>2011-05-24T12:57:41Z</time>
        <extensions><gpxtpx:TrackPointExtension><gpxtpx:hr>118</gpxtpx:hr></gpxtpx:TrackPointExtension></extensions>
      </trkpt>
      <trkpt lat="61.1224150723" lon="14.0519769033">
        <ele>288.4</ele>
        <time>2011-05-24T12:57:43Z</time>
        <extensions><gpxtpx:TrackPointExtension><gpxtpx:hr>118</gpxtpx:hr></gpxtpx:TrackPointExtension></extensions>
      </trkpt>
      <trkpt lat="61.12239856" lon="14.0523798212">
        <ele>287.6</ele>
        <time>2011-05-24T12:57:45Z</time>
        <extensions><gpxtpx:TrackPointExtension><gpxtpx:hr>118</gpxtpx:hr></gpxtpx:TrackPointExtension></extensions>
      </trkpt>
      <trkpt lat="61.1223858195" lon="14.0527757822">
        <ele>286.8</ele>
        <time>2011-05-24T12:57:47Z</time>
        <extensions><gpxtpx:TrackPointExtension><gpxtpx:hr>116</gpxtpx:hr></gpxtpx:TrackPointExtension></extensions>
      </trkpt>
      <trkpt lat="61.1223804551" lon="14.0531693124">
        <ele>286</ele>
        <time>2011-05-24T12:57:49Z</time>
        <extensions><gpxtpx:TrackPointExtension><gpxtpx:hr>114</gpxtpx:hr></gpxtpx:TrackPointExtension></extensions>
      </trkpt>
      <trkpt lat="61.1223771023" lon="14.0535719789">
        <ele>285.2</ele>
        <time>2011-05-24T12:57:51Z</time>
        <extensions><gpxtpx:TrackPointExtension><gpxtpx:hr>114</gpxtpx:hr></gpxtpx:TrackPointExtension></extensions>
      </trkpt>
      <trkpt lat="61.1223766832" lon="14.0539800097">
        <ele>284.6</ele>
        <time>2011-05-24T12:57:53Z</time>
        <extensions><gpxtpx:TrackPointExtension><gpxtpx:hr>115</gpxtpx:hr></gpxtpx:TrackPointExtension></extensions>
      </trkpt>
      <trkpt lat="61.1223833049" lon="14.0543833468">
        <ele>283.8</ele>
        <time>2011-05-24T12:57:55Z</time>
        <extensions><gpxtpx:TrackPointExtension><gpxtpx:hr>116</gpxtpx:hr></gpxtpx:TrackPointExtension></extensions>
      </trkpt>
      <trkpt lat="61.122390681" lon="14.0547788886">
        <ele>283</ele>
        <time>2011-05-24T12:57:57Z</time>
        <extensions><gpxtpx:TrackPointExtension><gpxtpx:hr>115</gpxtpx:hr></gpxtpx:TrackPointExtension></extensions>
      </trkpt>
      <trkpt lat="61.122400404" lon="14.055364532">
        <ele>282.2</ele>
        <time>2011-05-24T12:58:00Z</time>
        <extensions><gpxtpx:TrackPointExtension><gpxtpx:hr>114</gpxtpx:hr></gpxtpx:TrackPointExtension></extensions>
      </trkpt>
      <trkpt lat="61.1224069419" lon="14.0557504347">
        <ele>281.6</ele>
        <time>2011-05-24T12:58:02Z</time>
        <extensions><gpxtpx:TrackPointExtension><gpxtpx:hr>113</gpxtpx:hr></gpxtpx:TrackPointExtension></extensions>
      </trkpt>
      <trkpt lat="61.1224190118" lon="14.0563219964">
        <ele>280.4</ele>
        <time>2011-05-24T12:58:05Z</time>
        <extensions><gpxtpx:TrackPointExtension><gpxtpx:hr>113</gpxtpx:hr></gpxtpx:TrackPointExtension></extensions>
      </trkpt>
      <trkpt lat="61.1224285672" lon="14.0568661494">
        <ele>279.8</ele>
        <time>2011-05-24T12:58:08Z</time>
        <extensions><gpxtpx:TrackPointExtension><gpxtpx:hr>111</gpxtpx:hr></gpxtpx:TrackPointExtension></extensions>
      </trkpt>
      <trkpt lat="61.1224382902" lon="14.0573790378">
        <ele>278.6</ele>
        <time>2011-05-24T12:58:11Z</time>
        <extensions><gpxtpx:TrackPointExtension><gpxtpx:hr>109</gpxtpx:hr></gpxtpx:TrackPointExtension></extensions>
      </trkpt>
      <trkpt lat="61.122454132" lon="14.0578891603">
        <ele>277.8</ele>
        <time>2011-05-24T12:58:14Z</time>
        <extensions><gpxtpx:TrackPointExtension><gpxtpx:hr>108</gpxtpx:hr></gpxtpx:TrackPointExtension></extensions>
      </trkpt>
      <trkpt lat="61.1224738295" lon="14.0584574531">
        <ele>276.6</ele>
        <time>2011-05-24T12:58:17Z</time>
        <extensions><gpxtpx:TrackPointExtension><gpxtpx:hr>110</gpxtpx:hr></gpxtpx:TrackPointExtension></extensions>
      </trkpt>
      <trkpt lat="61.1224788586" lon="14.0586436989">
        <ele>276.4</ele>
        <time>2011-05-24T12:58:18Z</time>
        <extensions><gpxtpx:TrackPointExtension><gpxtpx:hr>110</gpxtpx:hr></gpxtpx:TrackPointExtension></extensions>
      </trkpt>
      <trkpt lat="61.1225104584" lon="14.0588967485">
        <ele>275.6</ele>
        <time>2011-05-24T12:58:20Z</time>
        <extensions><gpxtpx:TrackPointExtension><gpxtpx:hr>108</gpxtpx:hr></gpxtpx:TrackPointExtension></extensions>
      </trkpt>
      <trkpt lat="61.122733836" lon="14.0590618719">
        <ele>274.4</ele>
        <time>2011-05-24T12:58:23Z</time>
        <extensions><gpxtpx:TrackPointExtension><gpxtpx:hr>102</gpxtpx:hr></gpxtpx:TrackPointExtension></extensions>
      </trkpt>
      <trkpt lat="61.1229421262" lon="14.0590748638">
        <ele>273.2</ele>
        <time>2011-05-24T12:58:26Z</time>
        <extensions><gpxtpx:TrackPointExtension><gpxtpx:hr>105</gpxtpx:hr></gpxtpx:TrackPointExtension></extensions>
      </trkpt>
      <trkpt lat="61.123012618" lon="14.0590890293">
        <ele>272.6</ele>
        <time>2011-05-24T12:58:27Z</time>
        <extensions><gpxtpx:TrackPointExtension><gpxtpx:hr>107</gpxtpx:hr></gpxtpx:TrackPointExtension></extensions>
      </trkpt>
      <trkpt lat="61.1233329742" lon="14.0593053661">
        <ele>271</ele>
        <time>2011-05-24T12:58:33Z</time>
        <extensions><gpxtpx:TrackPointExtension><gpxtpx:hr>109</gpxtpx:hr></gpxtpx:TrackPointExtension></extensions>
      </trkpt>
      <trkpt lat="61.1233468882" lon="14.0593476109">
        <ele>270.6</ele>
        <time>2011-05-24T12:58:34Z</time>
        <extensions><gpxtpx:TrackPointExtension><gpxtpx:hr>109</gpxtpx:hr></gpxtpx:TrackPointExtension></extensions>
      </trkpt>
      <trkpt lat="61.1233240894" lon="14.0594331062">
        <ele>270.2</ele>
        <time>2011-05-24T12:58:35Z</time>
        <extensions><gpxtpx:TrackPointExtension><gpxtpx:hr>110</gpxtpx:hr></gpxtpx:TrackPointExtension></extensions>
      </trkpt>
      <trkpt lat="61.1231757298" lon="14.0595998222">
        <ele>269.4</ele>
        <time>2011-05-24T12:58:38Z</time>
        <extensions><gpxtpx:TrackPointExtension><gpxtpx:hr>111</gpxtpx:hr></gpxtpx:TrackPointExtension></extensions>
      </trkpt>
      <trkpt lat="61.1229928367" lon="14.0597883312">
        <ele>269</ele>
        <time>2011-05-24T12:58:41Z</time>
        <extensions><gpxtpx:TrackPointExtension><gpxtpx:hr>112</gpxtpx:hr></gpxtpx:TrackPointExtension></extensions>
      </trkpt>
      <trkpt lat="61.1229463172" lon="14.0598447414">
        <ele>268.6</ele>
        <time>2011-05-24T12:58:42Z</time>
        <extensions><gpxtpx:TrackPointExtension><gpxtpx:hr>112</gpxtpx:hr></gpxtpx:TrackPointExtension></extensions>
      </trkpt>
      <trkpt lat="61.1229200818" lon="14.0599677038">
        <ele>268</ele>
        <time>2011-05-24T12:58:44Z</time>
        <extensions><gpxtpx:TrackPointExtension><gpxtpx:hr>111</gpxtpx:hr></gpxtpx:TrackPointExtension></extensions>
      </trkpt>
      <trkpt lat="61.1229371809" lon="14.0600267124">
        <ele>267.6</ele>
        <time>2011-05-24T12:58:45Z</time>
        <extensions><gpxtpx:TrackPointExtension><gpxtpx:hr>111</gpxtpx:hr></gpxtpx:TrackPointExtension></extensions>
      </trkpt>
      <trkpt lat="61.1229838681" lon="14.0601411253">
        <ele>267.2</ele>
        <time>2011-05-24T12:58:47Z</time>
        <extensions><gpxtpx:TrackPointExtension><gpxtpx:hr>111</gpxtpx:hr></gpxtpx:TrackPointExtension></extensions>
      </trkpt>
      <trkpt lat="61.1231248516" lon="14.0603610664">
        <ele>266.2</ele>
        <time>2011-05-24T12:58:52Z</time>
        <extensions><gpxtpx:TrackPointExtension><gpxtpx:hr>116</gpxtpx:hr></gpxtpx:TrackPointExtension></extensions>
      </trkpt>
      <trkpt lat="61.123149243" lon="14.0604198235">
        <ele>265.8</ele>
        <time>2011-05-24T12:58:53Z</time>
        <extensions><gpxtpx:TrackPointExtension><gpxtpx:hr>116</gpxtpx:hr></gpxtpx:TrackPointExtension></extensions>
      </trkpt>
      <trkpt lat="61.1232149571" lon="14.0607873698">
        <ele>264.8</ele>
        <time>2011-05-24T12:58:57Z</time>
        <extensions><gpxtpx:TrackPointExtension><gpxtpx:hr>117</gpxtpx:hr></gpxtpx:TrackPointExtension></extensions>
      </trkpt>
      <trkpt lat="61.1232248477" lon="14.0608484739">
        <ele>264.8</ele>
        <time>2011-05-24T12:58:58Z</time>
        <extensions><gpxtpx:TrackPointExtension><gpxtpx:hr>117</gpxtpx:hr></gpxtpx:TrackPointExtension></extensions>
      </trkpt>
      <trkpt lat="61.1232300445" lon="14.0614398169">
        <ele>264</ele>
        <time>2011-05-24T12:59:03Z</time>
        <extensions><gpxtpx:TrackPointExtension><gpxtpx:hr>118</gpxtpx:hr></gpxtpx:TrackPointExtension></extensions>
      </trkpt>
      <trkpt lat="61.1232127778" lon="14.0618549724">
        <ele>263.8</ele>
        <time>2011-05-24T12:59:07Z</time>
        <extensions><gpxtpx:TrackPointExtension><gpxtpx:hr>116</gpxtpx:hr></gpxtpx:TrackPointExtension></extensions>
      </trkpt>
      <trkpt lat="61.1232054855" lon="14.0619537112">
        <ele>263.6</ele>
        <time>2011-05-24T12:59:08Z</time>
        <extensions><gpxtpx:TrackPointExtension><gpxtpx:hr>117</gpxtpx:hr></gpxtpx:TrackPointExtension></extensions>
      </trkpt>
      <trkpt lat="61.1231692757" lon="14.0622241951">
        <ele>263</ele>
        <time>2011-05-24T12:59:11Z</time>
        <extensions><gpxtpx:TrackPointExtension><gpxtpx:hr>117</gpxtpx:hr></gpxtpx:TrackPointExtension></extensions>
      </trkpt>
      <trkpt lat="61.1231568705" lon="14.0623661845">
        <ele>262.6</ele>
        <time>2011-05-24T12:59:13Z</time>
        <extensions><gpxtpx:TrackPointExtension><gpxtpx:hr>117</gpxtpx:hr></gpxtpx:TrackPointExtension></extensions>
      </trkpt>
      <trkpt lat="61.1231193196" lon="14.0627537636">
        <ele>262</ele>
        <time>2011-05-24T12:59:18Z</time>
        <extensions><gpxtpx:TrackPointExtension><gpxtpx:hr>118</gpxtpx:hr></gpxtpx:TrackPointExtension></extensions>
      </trkpt>
      <trkpt lat="61.1230896477" lon="14.0631938971">
        <ele>261</ele>
        <time>2011-05-24T12:59:24Z</time>
        <extensions><gpxtpx:TrackPointExtension><gpxtpx:hr>120</gpxtpx:hr></gpxtpx:TrackPointExtension></extensions>
      </trkpt>
      <trkpt lat="61.1230466485" lon="14.063384753">
        <ele>260</ele>
        <time>2011-05-24T12:59:31Z</time>
        <extensions><gpxtpx:TrackPointExtension><gpxtpx:hr>119</gpxtpx:hr></gpxtpx:TrackPointExtension></extensions>
      </trkpt>
      <trkpt lat="61.1230455589" lon="14.0633811488">
        <ele>259.8</ele>
        <time>2011-05-24T12:59:33Z</time>
        <extensions><gpxtpx:TrackPointExtension><gpxtpx:hr>119</gpxtpx:hr></gpxtpx:TrackPointExtension></extensions>
      </trkpt>
      <trkpt lat="61.1230696987" lon="14.0633093997">
        <ele>259.6</ele>
        <time>2011-05-24T12:59:36Z</time>
        <extensions><gpxtpx:TrackPointExtension><gpxtpx:hr>120</gpxtpx:hr></gpxtpx:TrackPointExtension></extensions>
      </trkpt>
      <trkpt lat="61.1230629932" lon="14.0631643929">
        <ele>258.8</ele>
        <time>2011-05-24T12:59:42Z</time>
        <extensions><gpxtpx:TrackPointExtension><gpxtpx:hr>122</gpxtpx:hr></gpxtpx:TrackPointExtension></extensions>
      </trkpt>
      <trkpt lat="61.1230626579" lon="14.0631434381">
        <ele>258.6</ele>
        <time>2011-05-24T12:59:43Z</time>
        <extensions><gpxtpx:TrackPointExtension><gpxtpx:hr>122</gpxtpx:hr></gpxtpx:TrackPointExtension></extensions>
      </trkpt>
      <trkpt lat="61.1230674356" lon="14.0630844295">
        <ele>257.8</ele>
        <time>2011-05-24T12:59:49Z</time>
        <extensions><gpxtpx:TrackPointExtension><gpxtpx:hr>127</gpxtpx:hr></gpxtpx:TrackPointExtension></extensions>
      </trkpt>
      <trkpt lat="61.1230649211" lon="14.0630190507">
        <ele>257.2</ele>
        <time>2011-05-24T13:00:03Z</time>
        <extensions><gpxtpx:TrackPointExtension><gpxtpx:hr>128</gpxtpx:hr></gpxtpx:TrackPointExtension></extensions>
      </trkpt>
      <trkpt lat="61.123073303" lon="14.0630048015">
        <ele>257</ele>
        <time>2011-05-24T13:00:14Z</time>
        <extensions><gpxtpx:TrackPointExtension><gpxtpx:hr>130</gpxtpx:hr></gpxtpx:TrackPointExtension></extensions>
      </trkpt>
      <trkpt lat="61.123088558" lon="14.0629114271">
        <ele>257</ele>
        <time>2011-05-24T13:00:18Z</time>
        <extensions><gpxtpx:TrackPointExtension><gpxtpx:hr>130</gpxtpx:hr></gpxtpx:TrackPointExtension></extensions>
      </trkpt>
      <trkpt lat="61.1230952635" lon="14.0628807494">
        <ele>257</ele>
        <time>2011-05-24T13:00:28Z</time>
        <extensions><gpxtpx:TrackPointExtension><gpxtpx:hr>133</gpxtpx:hr></gpxtpx:TrackPointExtension></extensions>
      </trkpt>
      <trkpt lat="61.1230836127" lon="14.0628876225">
        <ele>257</ele>
        <time>2011-05-24T13:00:38Z</time>
        <extensions><gpxtpx:TrackPointExtension><gpxtpx:hr>128</gpxtpx:hr></gpxtpx:TrackPointExtension></extensions>
      </trkpt>
      <trkpt lat="61.1230804276" lon="14.06289064">
        <ele>257</ele>
        <time>2011-05-24T13:00:43Z</time>
        <extensions><gpxtpx:TrackPointExtension><gpxtpx:hr>123</gpxtpx:hr></gpxtpx:TrackPointExtension></extensions>
      </trkpt>
      <trkpt lat="61.1230853729" lon="14.062892484">
        <ele>257.4</ele>
        <time>2011-05-24T13:00:52Z</time>
        <extensions><gpxtpx:TrackPointExtension><gpxtpx:hr>118</gpxtpx:hr></gpxtpx:TrackPointExtension></extensions>
      </trkpt>
      <trkpt lat="61.1231163021" lon="14.0629232456">
        <ele>258.4</ele>
        <time>2011-05-24T13:01:02Z</time>
        <extensions><gpxtpx:TrackPointExtension><gpxtpx:hr>113</gpxtpx:hr></gpxtpx:TrackPointExtension></extensions>
      </trkpt>
      <trkpt lat="61.1231289588" lon="14.0629836791">
        <ele>259</ele>
        <time>2011-05-24T13:01:09Z</time>
        <extensions><gpxtpx:TrackPointExtension><gpxtpx:hr>114</gpxtpx:hr></gpxtpx:TrackPointExtension></extensions>
      </trkpt>
      <trkpt lat="61.1231367539" lon="14.0630326294">
        <ele>260</ele>
        <time>2011-05-24T13:01:15Z</time>
        <extensions><gpxtpx:TrackPointExtension><gpxtpx:hr>111</gpxtpx:hr></gpxtpx:TrackPointExtension></extensions>
      </trkpt>
      <trkpt lat="61.1231194034" lon="14.0630654864">
        <ele>260.8</ele>
        <time>2011-05-24T13:01:29Z</time>
        <extensions><gpxtpx:TrackPointExtension><gpxtpx:hr>107</gpxtpx:hr></gpxtpx:TrackPointExtension></extensions>
      </trkpt>
      <trkpt lat="61.1231328983" lon="14.0632457811">
        <ele>261</ele>
        <time>2011-05-24T13:01:36Z</time>
        <extensions><gpxtpx:TrackPointExtension><gpxtpx:hr>112</gpxtpx:hr></gpxtpx:TrackPointExtension></extensions>
      </trkpt>
      <trkpt lat="61.1231293779" lon="14.0632768779">
        <ele>261</ele>
        <time>2011-05-24T13:01:37Z</time>
        <extensions><gpxtpx:TrackPointExtension><gpxtpx:hr>113</gpxtpx:hr></gpxtpx:TrackPointExtension></extensions>
      </trkpt>
      <trkpt lat="61.123117727" lon="14.0633218049">
        <ele>261</ele>
        <time>2011-05-24T13:01:40Z</time>
        <extensions><gpxtpx:TrackPointExtension><gpxtpx:hr>113</gpxtpx:hr></gpxtpx:TrackPointExtension></extensions>
      </trkpt>
      <trkpt lat="61.1231120273" lon="14.0634592681">
        <ele>261</ele>
        <time>2011-05-24T13:01:45Z</time>
        <extensions><gpxtpx:TrackPointExtension><gpxtpx:hr>112</gpxtpx:hr></gpxtpx:TrackPointExtension></extensions>
      </trkpt>
      <trkpt lat="61.1231126141" lon="14.063486174">
        <ele>261</ele>
        <time>2011-05-24T13:01:46Z</time>
        <extensions><gpxtpx:TrackPointExtension><gpxtpx:hr>112</gpxtpx:hr></gpxtpx:TrackPointExtension></extensions>
      </trkpt>
      <trkpt lat="61.1230915755" lon="14.0637980645">
        <ele>260.8</ele>
        <time>2011-05-24T13:01:49Z</time>
        <extensions><gpxtpx:TrackPointExtension><gpxtpx:hr>116</gpxtpx:hr></gpxtpx:TrackPointExtension></extensions>
      </trkpt>
      <trkpt lat="61.1230356682" lon="14.064174328">
        <ele>260.2</ele>
        <time>2011-05-24T13:01:52Z</time>
        <extensions><gpxtpx:TrackPointExtension><gpxtpx:hr>122</gpxtpx:hr></gpxtpx:TrackPointExtension></extensions>
      </trkpt>
      <trkpt lat="61.122966769" lon="14.0645614879">
        <ele>260</ele>
        <time>2011-05-24T13:01:55Z</time>
        <extensions><gpxtpx:TrackPointExtension><gpxtpx:hr>127</gpxtpx:hr></gpxtpx:TrackPointExtension></extensions>
      </trkpt>
      <trkpt lat="61.1229091015" lon="14.0649456304">
        <ele>259.6</ele>
        <time>2011-05-24T13:01:58Z</time>
        <extensions><gpxtpx:TrackPointExtension><gpxtpx:hr>131</gpxtpx:hr></gpxtpx:TrackPointExtension></extensions>
      </trkpt>
      <trkpt lat="61.1228841235" lon="14.0651533339">
        <ele>259.4</ele>
        <time>2011-05-24T13:01:59Z</time>
        <extensions><gpxtpx:TrackPointExtension><gpxtpx:hr>133</gpxtpx:hr></gpxtpx:TrackPointExtension></extensions>
      </trkpt>
      <trkpt lat="61.1228728079" lon="14.0655158511">
        <ele>258.6</ele>
        <time>2011-05-24T13:02:02Z</time>
        <extensions><gpxtpx:TrackPointExtension><gpxtpx:hr>136</gpxtpx:hr></gpxtpx:TrackPointExtension></extensions>
      </trkpt>
      <trkpt lat="61.1228764959" lon="14.0655585149">
        <ele>258.4</ele>
        <time>2011-05-24T13:02:03Z</time>
        <extensions><gpxtpx:TrackPointExtension><gpxtpx:hr>137</gpxtpx:hr></gpxtpx:TrackPointExtension></extensions>
      </trkpt>
      <trkpt lat="61.1228821118" lon="14.0655911205">
        <ele>258.2</ele>
        <time>2011-05-24T13:02:05Z</time>
        <extensions><gpxtpx:TrackPointExtension><gpxtpx:hr>136</gpxtpx:hr></gpxtpx:TrackPointExtension></extensions>
      </trkpt>
      <trkpt lat="61.1229229317" lon="14.0656152604">
        <ele>258</ele>
        <time>2011-05-24T13:02:30Z</time>
        <extensions><gpxtpx:TrackPointExtension><gpxtpx:hr>131</gpxtpx:hr></gpxtpx:TrackPointExtension></extensions>
      </trkpt>
      <trkpt lat="61.1229249433" lon="14.0656203734">
        <ele>258.8</ele>
        <time>2011-05-24T13:02:35Z</time>
        <extensions><gpxtpx:TrackPointExtension><gpxtpx:hr>126</gpxtpx:hr></gpxtpx:TrackPointExtension></extensions>
      </trkpt>
      <trkpt lat="61.1229240213" lon="14.0656223012">
        <ele>259.6</ele>
        <time>2011-05-24T13:02:39Z</time>
        <extensions><gpxtpx:TrackPointExtension><gpxtpx:hr>120</gpxtpx:hr></gpxtpx:TrackPointExtension></extensions>
      </trkpt>
      <trkpt lat="61.1229256139" lon="14.0656255701">
        <ele>260.6</ele>
        <time>2011-05-24T13:02:44Z</time>
        <extensions><gpxtpx:TrackPointExtension><gpxtpx:hr>115</gpxtpx:hr></gpxtpx:TrackPointExtension></extensions>
      </trkpt>
      <trkpt lat="61.1229282961" lon="14.0656213792">
        <ele>261.2</ele>
        <time>2011-05-24T13:02:47Z</time>
        <extensions><gpxtpx:TrackPointExtension><gpxtpx:hr>110</gpxtpx:hr></gpxtpx:TrackPointExtension></extensions>
      </trkpt>
      <trkpt lat="61.1229319841" lon="14.0656405737">
        <ele>263.2</ele>
        <time>2011-05-24T13:02:56Z</time>
        <extensions><gpxtpx:TrackPointExtension><gpxtpx:hr>105</gpxtpx:hr></gpxtpx:TrackPointExtension></extensions>
      </trkpt>
      <trkpt lat="61.1229312298" lon="14.0656439265">
        <ele>263.8</ele>
        <time>2011-05-24T13:02:58Z</time>
        <extensions><gpxtpx:TrackPointExtension><gpxtpx:hr>99</gpxtpx:hr></gpxtpx:TrackPointExtension></extensions>
      </trkpt>
      <trkpt lat="61.1229481612" lon="14.0657581718">
        <ele>264.6</ele>
        <time>2011-05-24T13:03:06Z</time>
        <extensions><gpxtpx:TrackPointExtension><gpxtpx:hr>98</gpxtpx:hr></gpxtpx:TrackPointExtension></extensions>
      </trkpt>
      <trkpt lat="61.1229748994" lon="14.0658528035">
        <ele>264.8</ele>
        <time>2011-05-24T13:03:08Z</time>
        <extensions><gpxtpx:TrackPointExtension><gpxtpx:hr>109</gpxtpx:hr></gpxtpx:TrackPointExtension></extensions>
      </trkpt>
      <trkpt lat="61.1229927529" lon="14.0659265642">
        <ele>264.8</ele>
        <time>2011-05-24T13:03:09Z</time>
        <extensions><gpxtpx:TrackPointExtension><gpxtpx:hr>109</gpxtpx:hr></gpxtpx:TrackPointExtension></extensions>
      </trkpt>
      <trkpt lat="61.1230505042" lon="14.0662553023">
        <ele>265</ele>
        <time>2011-05-24T13:03:13Z</time>
        <extensions><gpxtpx:TrackPointExtension><gpxtpx:hr>114</gpxtpx:hr></gpxtpx:TrackPointExtension></extensions>
      </trkpt>
      <trkpt lat="61.1230866302" lon="14.0666926698">
        <ele>265</ele>
        <time>2011-05-24T13:03:18Z</time>
        <extensions><gpxtpx:TrackPointExtension><gpxtpx:hr>121</gpxtpx:hr></gpxtpx:TrackPointExtension></extensions>
      </trkpt>
      <trkpt lat="61.1230989516" lon="14.0668377605">
        <ele>265.2</ele>
        <time>2011-05-24T13:03:20Z</time>
        <extensions><gpxtpx:TrackPointExtension><gpxtpx:hr>126</gpxtpx:hr></gpxtpx:TrackPointExtension></extensions>
      </trkpt>
      <trkpt lat="61.1231037293" lon="14.0669006248">
        <ele>265.2</ele>
        <time>2011-05-24T13:03:21Z</time>
        <extensions><gpxtpx:TrackPointExtension><gpxtpx:hr>129</gpxtpx:hr></gpxtpx:TrackPointExtension></extensions>
      </trkpt>
      <trkpt lat="61.1231057409" lon="14.0669411932">
        <ele>265.2</ele>
        <time>2011-05-24T13:03:22Z</time>
        <extensions><gpxtpx:TrackPointExtension><gpxtpx:hr>129</gpxtpx:hr></gpxtpx:TrackPointExtension></extensions>
      </trkpt>
      <trkpt lat="61.1231077526" lon="14.067126517">
        <ele>265.2</ele>
        <time>2011-05-24T13:03:24Z</time>
        <extensions><gpxtpx:TrackPointExtension><gpxtpx:hr>134</gpxtpx:hr></gpxtpx:TrackPointExtension></extensions>
      </trkpt>
      <trkpt lat="61.1231161345" lon="14.0673778063">
        <ele>265.2</ele>
        <time>2011-05-24T13:03:27Z</time>
        <extensions><gpxtpx:TrackPointExtension><gpxtpx:hr>139</gpxtpx:hr></gpxtpx:TrackPointExtension></extensions>
      </trkpt>
      <trkpt lat="61.1231192358" lon="14.0675842525">
        <ele>265.6</ele>
        <time>2011-05-24T13:03:32Z</time>
        <extensions><gpxtpx:TrackPointExtension><gpxtpx:hr>143</gpxtpx:hr></gpxtpx:TrackPointExtension></extensions>
      </trkpt>
      <trkpt lat="61.1231251869" lon="14.0676032795">
        <ele>265.8</ele>
        <time>2011-05-24T13:03:33Z</time>
        <extensions><gpxtpx:TrackPointExtension><gpxtpx:hr>143</gpxtpx:hr></gpxtpx:TrackPointExtension></extensions>
      </trkpt>
      <trkpt lat="61.123123762" lon="14.0676936363">
        <ele>266.2</ele>
        <time>2011-05-24T13:03:36Z</time>
        <extensions><gpxtpx:TrackPointExtension><gpxtpx:hr>143</gpxtpx:hr></gpxtpx:TrackPointExtension></extensions>
      </trkpt>
      <trkpt lat="61.1231332335" lon="14.0678557423">
        <ele>266.8</ele>
        <time>2011-05-24T13:03:42Z</time>
        <extensions><gpxtpx:TrackPointExtension><gpxtpx:hr>140</gpxtpx:hr></gpxtpx:TrackPointExtension></extensions>
      </trkpt>
      <trkpt lat="61.1231359996" lon="14.0680701513">
        <ele>267</ele>
        <time>2011-05-24T13:03:46Z</time>
        <extensions><gpxtpx:TrackPointExtension><gpxtpx:hr>139</gpxtpx:hr></gpxtpx:TrackPointExtension></extensions>
      </trkpt>
      <trkpt lat="61.1231287911" lon="14.0681203589">
        <ele>267</ele>
        <time>2011-05-24T13:03:47Z</time>
        <extensions><gpxtpx:TrackPointExtension><gpxtpx:hr>139</gpxtpx:hr></gpxtpx:TrackPointExtension></extensions>
      </trkpt>
      <trkpt lat="61.123079757" lon="14.0683223627">
        <ele>267</ele>
        <time>2011-05-24T13:03:51Z</time>
        <extensions><gpxtpx:TrackPointExtension><gpxtpx:hr>139</gpxtpx:hr></gpxtpx:TrackPointExtension></extensions>
      </trkpt>
      <trkpt lat="61.1229275417" lon="14.0685661921">
        <ele>267.2</ele>
        <time>2011-05-24T13:03:56Z</time>
        <extensions><gpxtpx:TrackPointExtension><gpxtpx:hr>139</gpxtpx:hr></gpxtpx:TrackPointExtension></extensions>
      </trkpt>
      <trkpt lat="61.1228595645" lon="14.0689028092">
        <ele>266.6</ele>
        <time>2011-05-24T13:04:00Z</time>
        <extensions><gpxtpx:TrackPointExtension><gpxtpx:hr>139</gpxtpx:hr></gpxtpx:TrackPointExtension></extensions>
      </trkpt>
      <trkpt lat="61.1228505121" lon="14.0689948425">
        <ele>266.4</ele>
        <time>2011-05-24T13:04:01Z</time>
        <extensions><gpxtpx:TrackPointExtension><gpxtpx:hr>139</gpxtpx:hr></gpxtpx:TrackPointExtension></extensions>
      </trkpt>
      <trkpt lat="61.1228246958" lon="14.0694798192">
        <ele>265.8</ele>
        <time>2011-05-24T13:04:07Z</time>
        <extensions><gpxtpx:TrackPointExtension><gpxtpx:hr>136</gpxtpx:hr></gpxtpx:TrackPointExtension></extensions>
      </trkpt>
      <trkpt lat="61.1228238576" lon="14.0698656381">
        <ele>265.2</ele>
        <time>2011-05-24T13:04:10Z</time>
        <extensions><gpxtpx:TrackPointExtension><gpxtpx:hr>134</gpxtpx:hr></gpxtpx:TrackPointExtension></extensions>
      </trkpt>
      <trkpt lat="61.1228189961" lon="14.0699969825">
        <ele>265</ele>
        <time>2011-05-24T13:04:11Z</time>
        <extensions><gpxtpx:TrackPointExtension><gpxtpx:hr>134</gpxtpx:hr></gpxtpx:TrackPointExtension></extensions>
      </trkpt>
      <trkpt lat="61.122782451" lon="14.0702697295">
        <ele>264.6</ele>
        <time>2011-05-24T13:04:13Z</time>
        <extensions><gpxtpx:TrackPointExtension><gpxtpx:hr>131</gpxtpx:hr></gpxtpx:TrackPointExtension></extensions>
      </trkpt>
      <trkpt lat="61.1227214308" lon="14.0705263833">
        <ele>264</ele>
        <time>2011-05-24T13:04:15Z</time>
        <extensions><gpxtpx:TrackPointExtension><gpxtpx:hr>129</gpxtpx:hr></gpxtpx:TrackPointExtension></extensions>
      </trkpt>
      <trkpt lat="61.1226596562" lon="14.0709337436">
        <ele>263.2</ele>
        <time>2011-05-24T13:04:18Z</time>
        <extensions><gpxtpx:TrackPointExtension><gpxtpx:hr>127</gpxtpx:hr></gpxtpx:TrackPointExtension></extensions>
      </trkpt>
      <trkpt lat="61.1227595684" lon="14.0715482207">
        <ele>261.2</ele>
        <time>2011-05-24T13:04:23Z</time>
        <extensions><gpxtpx:TrackPointExtension><gpxtpx:hr>125</gpxtpx:hr></gpxtpx:TrackPointExtension></extensions>
      </trkpt>
      <trkpt lat="61.1227964488" lon="14.0715924771">
        <ele>260.6</ele>
        <time>2011-05-24T13:04:24Z</time>
        <extensions><gpxtpx:TrackPointExtension><gpxtpx:hr>125</gpxtpx:hr></gpxtpx:TrackPointExtension></extensions>
      </trkpt>
      <trkpt lat="61.122948245" lon="14.0719314412">
        <ele>258.8</ele>
        <time>2011-05-24T13:04:27Z</time>
        <extensions><gpxtpx:TrackPointExtension><gpxtpx:hr>123</gpxtpx:hr></gpxtpx:TrackPointExtension></extensions>
      </trkpt>
      <trkpt lat="61.1229091854" lon="14.0723512067">
        <ele>258</ele>
        <time>2011-05-24T13:04:30Z</time>
        <extensions><gpxtpx:TrackPointExtension><gpxtpx:hr>121</gpxtpx:hr></gpxtpx:TrackPointExtension></extensions>
      </trkpt>
      <trkpt lat="61.1228886497" lon="14.0724859038">
        <ele>257.4</ele>
        <time>2011-05-24T13:04:31Z</time>
        <extensions><gpxtpx:TrackPointExtension><gpxtpx:hr>120</gpxtpx:hr></gpxtpx:TrackPointExtension></extensions>
      </trkpt>
      <trkpt lat="61.1227766675" lon="14.0727980458">
        <ele>255.8</ele>
        <time>2011-05-24T13:04:34Z</time>
        <extensions><gpxtpx:TrackPointExtension><gpxtpx:hr>119</gpxtpx:hr></gpxtpx:TrackPointExtension></extensions>
      </trkpt>
      <trkpt lat="61.1225466682" lon="14.0729987923">
        <ele>254</ele>
        <time>2011-05-24T13:04:38Z</time>
        <extensions><gpxtpx:TrackPointExtension><gpxtpx:hr>119</gpxtpx:hr></gpxtpx:TrackPointExtension></extensions>
      </trkpt>
      <trkpt lat="61.1225218578" lon="14.073075319">
        <ele>253.6</ele>
        <time>2011-05-24T13:04:39Z</time>
        <extensions><gpxtpx:TrackPointExtension><gpxtpx:hr>120</gpxtpx:hr></gpxtpx:TrackPointExtension></extensions>
      </trkpt>
      <trkpt lat="61.1224557246" lon="14.0733213278">
        <ele>252.4</ele>
        <time>2011-05-24T13:04:42Z</time>
        <extensions><gpxtpx:TrackPointExtension><gpxtpx:hr>123</gpxtpx:hr></gpxtpx:TrackPointExtension></extensions>
      </trkpt>
      <trkpt lat="61.1223904296" lon="14.0737869424">
        <ele>250.4</ele>
        <time>2011-05-24T13:04:47Z</time>
        <extensions><gpxtpx:TrackPointExtension><gpxtpx:hr>124</gpxtpx:hr></gpxtpx:TrackPointExtension></extensions>
      </trkpt>
      <trkpt lat="61.1223677146" lon="14.074037645">
        <ele>249.6</ele>
        <time>2011-05-24T13:04:49Z</time>
        <extensions><gpxtpx:TrackPointExtension><gpxtpx:hr>124</gpxtpx:hr></gpxtpx:TrackPointExtension></extensions>
      </trkpt>
      <trkpt lat="61.122333265" lon="14.0742745175">
        <ele>248.6</ele>
        <time>2011-05-24T13:04:51Z</time>
        <extensions><gpxtpx:TrackPointExtension><gpxtpx:hr>125</gpxtpx:hr></gpxtpx:TrackPointExtension></extensions>
      </trkpt>
      <trkpt lat="61.1223074488" lon="14.0744001622">
        <ele>248.2</ele>
        <time>2011-05-24T13:04:52Z</time>
        <extensions><gpxtpx:TrackPointExtension><gpxtpx:hr>124</gpxtpx:hr></gpxtpx:TrackPointExtension></extensions>
      </trkpt>
      <trkpt lat="61.12225129" lon="14.0746181754">
        <ele>247.4</ele>
        <time>2011-05-24T13:04:54Z</time>
        <extensions><gpxtpx:TrackPointExtension><gpxtpx:hr>123</gpxtpx:hr></gpxtpx:TrackPointExtension></extensions>
      </trkpt>
      <trkpt lat="61.1222028426" lon="14.0748429779">
        <ele>246.6</ele>
        <time>2011-05-24T13:04:56Z</time>
        <extensions><gpxtpx:TrackPointExtension><gpxtpx:hr>122</gpxtpx:hr></gpxtpx:TrackPointExtension></extensions>
      </trkpt>
      <trkpt lat="61.1220935427" lon="14.0752822733">
        <ele>245</ele>
        <time>2011-05-24T13:05:01Z</time>
        <extensions><gpxtpx:TrackPointExtension><gpxtpx:hr>119</gpxtpx:hr></gpxtpx:TrackPointExtension></extensions>
      </trkpt>
      <trkpt lat="61.1220814727" lon="14.0753466463">
        <ele>244.8</ele>
        <time>2011-05-24T13:05:02Z</time>
        <extensions><gpxtpx:TrackPointExtension><gpxtpx:hr>119</gpxtpx:hr></gpxtpx:TrackPointExtension></extensions>
      </trkpt>
      <trkpt lat="61.1220495377" lon="14.0754716204">
        <ele>243.4</ele>
        <time>2011-05-24T13:05:06Z</time>
        <extensions><gpxtpx:TrackPointExtension><gpxtpx:hr>119</gpxtpx:hr></gpxtpx:TrackPointExtension></extensions>
      </trkpt>
      <trkpt lat="61.1220496215" lon="14.0755191458">
        <ele>241.4</ele>
        <time>2011-05-24T13:05:19Z</time>
        <extensions><gpxtpx:TrackPointExtension><gpxtpx:hr>114</gpxtpx:hr></gpxtpx:TrackPointExtension></extensions>
      </trkpt>
      <trkpt lat="61.1220314328" lon="14.0756523342">
        <ele>241</ele>
        <time>2011-05-24T13:05:27Z</time>
        <extensions><gpxtpx:TrackPointExtension><gpxtpx:hr>115</gpxtpx:hr></gpxtpx:TrackPointExtension></extensions>
      </trkpt>
      <trkpt lat="61.1219704964" lon="14.076012253">
        <ele>240.8</ele>
        <time>2011-05-24T13:05:33Z</time>
        <extensions><gpxtpx:TrackPointExtension><gpxtpx:hr>118</gpxtpx:hr></gpxtpx:TrackPointExtension></extensions>
      </trkpt>
      <trkpt lat="61.1219414112" lon="14.0761508896">
        <ele>240.8</ele>
        <time>2011-05-24T13:05:35Z</time>
        <extensions><gpxtpx:TrackPointExtension><gpxtpx:hr>124</gpxtpx:hr></gpxtpx:TrackPointExtension></extensions>
      </trkpt>
      <trkpt lat="61.1219315205" lon="14.0762252371">
        <ele>240.8</ele>
        <time>2011-05-24T13:05:36Z</time>
        <extensions><gpxtpx:TrackPointExtension><gpxtpx:hr>124</gpxtpx:hr></gpxtpx:TrackPointExtension></extensions>
      </trkpt>
      <trkpt lat="61.1219280001" lon="14.0764871714">
        <ele>240.8</ele>
        <time>2011-05-24T13:05:39Z</time>
        <extensions><gpxtpx:TrackPointExtension><gpxtpx:hr>123</gpxtpx:hr></gpxtpx:TrackPointExtension></extensions>
      </trkpt>
      <trkpt lat="61.1219450992" lon="14.0768440727">
        <ele>240.8</ele>
        <time>2011-05-24T13:05:43Z</time>
        <extensions><gpxtpx:TrackPointExtension><gpxtpx:hr>124</gpxtpx:hr></gpxtpx:TrackPointExtension></extensions>
      </trkpt>
      <trkpt lat="61.1219471109" lon="14.0771596513">
        <ele>240.8</ele>
        <time>2011-05-24T13:05:46Z</time>
        <extensions><gpxtpx:TrackPointExtension><gpxtpx:hr>124</gpxtpx:hr></gpxtpx:TrackPointExtension></extensions>
      </trkpt>
      <trkpt lat="61.1219122422" lon="14.0775426203">
        <ele>240.8</ele>
        <time>2011-05-24T13:05:50Z</time>
        <extensions><gpxtpx:TrackPointExtension><gpxtpx:hr>122</gpxtpx:hr></gpxtpx:TrackPointExtension></extensions>
      </trkpt>
      <trkpt lat="61.1218833246" lon="14.0776918181">
        <ele>240.8</ele>
        <time>2011-05-24T13:05:52Z</time>
        <extensions><gpxtpx:TrackPointExtension><gpxtpx:hr>123</gpxtpx:hr></gpxtpx:TrackPointExtension></extensions>
      </trkpt>
      <trkpt lat="61.1218055406" lon="14.0780534133">
        <ele>240.8</ele>
        <time>2011-05-24T13:05:57Z</time>
        <extensions><gpxtpx:TrackPointExtension><gpxtpx:hr>125</gpxtpx:hr></gpxtpx:TrackPointExtension></extensions>
      </trkpt>
      <trkpt lat="61.1217842506" lon="14.0781251623">
        <ele>240.8</ele>
        <time>2011-05-24T13:05:58Z</time>
        <extensions><gpxtpx:TrackPointExtension><gpxtpx:hr>127</gpxtpx:hr></gpxtpx:TrackPointExtension></extensions>
      </trkpt>
      <trkpt lat="61.1217332886" lon="14.078271678">
        <ele>240.2</ele>
        <time>2011-05-24T13:06:00Z</time>
        <extensions><gpxtpx:TrackPointExtension><gpxtpx:hr>128</gpxtpx:hr></gpxtpx:TrackPointExtension></extensions>
      </trkpt>
      <trkpt lat="61.1216207197" lon="14.078668058">
        <ele>239.6</ele>
        <time>2011-05-24T13:06:05Z</time>
        <extensions><gpxtpx:TrackPointExtension><gpxtpx:hr>132</gpxtpx:hr></gpxtpx:TrackPointExtension></extensions>
      </trkpt>
      <trkpt lat="61.1216191271" lon="14.0787704848">
        <ele>239.4</ele>
        <time>2011-05-24T13:06:06Z</time>
        <extensions><gpxtpx:TrackPointExtension><gpxtpx:hr>132</gpxtpx:hr></gpxtpx:TrackPointExtension></extensions>
      </trkpt>
      <trkpt lat="61.1216230666" lon="14.0788759291">
        <ele>239.2</ele>
        <time>2011-05-24T13:06:07Z</time>
        <extensions><gpxtpx:TrackPointExtension><gpxtpx:hr>132</gpxtpx:hr></gpxtpx:TrackPointExtension></extensions>
      </trkpt>
      <trkpt lat="61.1216112481" lon="14.079134846">
        <ele>238.4</ele>
        <time>2011-05-24T13:06:10Z</time>
        <extensions><gpxtpx:TrackPointExtension><gpxtpx:hr>131</gpxtpx:hr></gpxtpx:TrackPointExtension></extensions>
      </trkpt>
      <trkpt lat="61.1216041235" lon="14.0791832096">
        <ele>238.2</ele>
        <time>2011-05-24T13:06:11Z</time>
        <extensions><gpxtpx:TrackPointExtension><gpxtpx:hr>130</gpxtpx:hr></gpxtpx:TrackPointExtension></extensions>
      </trkpt>
      <trkpt lat="61.1215902934" lon="14.0792431402">
        <ele>237.6</ele>
        <time>2011-05-24T13:06:16Z</time>
        <extensions><gpxtpx:TrackPointExtension><gpxtpx:hr>129</gpxtpx:hr></gpxtpx:TrackPointExtension></extensions>
      </trkpt>
      <trkpt lat="61.1215865215" lon="14.0792906655">
        <ele>235.6</ele>
        <time>2011-05-24T13:06:25Z</time>
        <extensions><gpxtpx:TrackPointExtension><gpxtpx:hr>124</gpxtpx:hr></gpxtpx:TrackPointExtension></extensions>
      </trkpt>
      <trkpt lat="61.1215881979" lon="14.0793026517">
        <ele>235.2</ele>
        <time>2011-05-24T13:06:29Z</time>
        <extensions><gpxtpx:TrackPointExtension><gpxtpx:hr>119</gpxtpx:hr></gpxtpx:TrackPointExtension></extensions>
      </trkpt>
      <trkpt lat="61.1215833364" lon="14.079333078">
        <ele>234.8</ele>
        <time>2011-05-24T13:06:38Z</time>
        <extensions><gpxtpx:TrackPointExtension><gpxtpx:hr>114</gpxtpx:hr></gpxtpx:TrackPointExtension></extensions>
      </trkpt>
      <trkpt lat="61.1215716856" lon="14.0793817768">
        <ele>234.4</ele>
        <time>2011-05-24T13:06:52Z</time>
        <extensions><gpxtpx:TrackPointExtension><gpxtpx:hr>109</gpxtpx:hr></gpxtpx:TrackPointExtension></extensions>
      </trkpt>
      <trkpt lat="61.1215707636" lon="14.0793902425">
        <ele>234.4</ele>
        <time>2011-05-24T13:07:00Z</time>
        <extensions><gpxtpx:TrackPointExtension><gpxtpx:hr>104</gpxtpx:hr></gpxtpx:TrackPointExtension></extensions>
      </trkpt>
      <trkpt lat="61.1215653153" lon="14.0794260332">
        <ele>235.6</ele>
        <time>2011-05-24T13:07:20Z</time>
        <extensions><gpxtpx:TrackPointExtension><gpxtpx:hr>103</gpxtpx:hr></gpxtpx:TrackPointExtension></extensions>
      </trkpt>
      <trkpt lat="61.121564561" lon="14.0794741453">
        <ele>236</ele>
        <time>2011-05-24T13:07:26Z</time>
        <extensions><gpxtpx:TrackPointExtension><gpxtpx:hr>105</gpxtpx:hr></gpxtpx:TrackPointExtension></extensions>
      </trkpt>
      <trkpt lat="61.1215717694" lon="14.0794855447">
        <ele>236.2</ele>
        <time>2011-05-24T13:07:34Z</time>
        <extensions><gpxtpx:TrackPointExtension><gpxtpx:hr>103</gpxtpx:hr></gpxtpx:TrackPointExtension></extensions>
      </trkpt>
      <trkpt lat="61.1215850128" lon="14.0794592255">
        <ele>236.4</ele>
        <time>2011-05-24T13:07:53Z</time>
        <extensions><gpxtpx:TrackPointExtension><gpxtpx:hr>103</gpxtpx:hr></gpxtpx:TrackPointExtension></extensions>
      </trkpt>
      <trkpt lat="61.1215958254" lon="14.0794417074">
        <ele>236.4</ele>
        <time>2011-05-24T13:08:02Z</time>
        <extensions><gpxtpx:TrackPointExtension><gpxtpx:hr>98</gpxtpx:hr></gpxtpx:TrackPointExtension></extensions>
      </trkpt>
      <trkpt lat="61.1216088174" lon="14.0794299727">
        <ele>238.2</ele>
        <time>2011-05-24T13:08:29Z</time>
        <extensions><gpxtpx:TrackPointExtension><gpxtpx:hr>93</gpxtpx:hr></gpxtpx:TrackPointExtension></extensions>
      </trkpt>
      <trkpt lat="61.1216118349" lon="14.0794277096">
        <ele>238.2</ele>
        <time>2011-05-24T13:08:34Z</time>
        <extensions><gpxtpx:TrackPointExtension><gpxtpx:hr>88</gpxtpx:hr></gpxtpx:TrackPointExtension></extensions>
      </trkpt>
      <trkpt lat="61.1216123378" lon="14.0794168131">
        <ele>238.4</ele>
        <time>2011-05-24T13:08:42Z</time>
        <extensions><gpxtpx:TrackPointExtension><gpxtpx:hr>93</gpxtpx:hr></gpxtpx:TrackPointExtension></extensions>
      </trkpt>
      <trkpt lat="61.1216200491" lon="14.0794201659">
        <ele>238.4</ele>
        <time>2011-05-24T13:08:52Z</time>
        <extensions><gpxtpx:TrackPointExtension><gpxtpx:hr>88</gpxtpx:hr></gpxtpx:TrackPointExtension></extensions>
      </trkpt>
      <trkpt lat="61.1216292692" lon="14.0794241054">
        <ele>239.8</ele>
        <time>2011-05-24T13:09:04Z</time>
        <extensions><gpxtpx:TrackPointExtension><gpxtpx:hr>94</gpxtpx:hr></gpxtpx:TrackPointExtension></extensions>
      </trkpt>
      <trkpt lat="61.1216438537" lon="14.0794486644">
        <ele>241.6</ele>
        <time>2011-05-24T13:09:19Z</time>
        <extensions><gpxtpx:TrackPointExtension><gpxtpx:hr>89</gpxtpx:hr></gpxtpx:TrackPointExtension></extensions>
      </trkpt>
      <trkpt lat="61.1216439375" lon="14.0794665178">
        <ele>242.4</ele>
        <time>2011-05-24T13:09:35Z</time>
        <extensions><gpxtpx:TrackPointExtension><gpxtpx:hr>95</gpxtpx:hr></gpxtpx:TrackPointExtension></extensions>
      </trkpt>
      <trkpt lat="61.1216426803" lon="14.0794417912">
        <ele>242.4</ele>
        <time>2011-05-24T13:09:38Z</time>
        <extensions><gpxtpx:TrackPointExtension><gpxtpx:hr>100</gpxtpx:hr></gpxtpx:TrackPointExtension></extensions>
      </trkpt>
      <trkpt lat="61.1216387408" lon="14.079416394">
        <ele>242.4</ele>
        <time>2011-05-24T13:09:41Z</time>
        <extensions><gpxtpx:TrackPointExtension><gpxtpx:hr>105</gpxtpx:hr></gpxtpx:TrackPointExtension></extensions>
      </trkpt>
      <trkpt lat="61.1216427641" lon="14.0794171484">
        <ele>242.4</ele>
        <time>2011-05-24T13:09:49Z</time>
        <extensions><gpxtpx:TrackPointExtension><gpxtpx:hr>100</gpxtpx:hr></gpxtpx:TrackPointExtension></extensions>
      </trkpt>
      <trkpt lat="61.1216499725" lon="14.0793815253">
        <ele>242.6</ele>
        <time>2011-05-24T13:10:23Z</time>
        <extensions><gpxtpx:TrackPointExtension><gpxtpx:hr>95</gpxtpx:hr></gpxtpx:TrackPointExtension></extensions>
      </trkpt>
      <trkpt lat="61.1216436023" lon="14.0793475786">
        <ele>243.4</ele>
        <time>2011-05-24T13:11:22Z</time>
        <extensions><gpxtpx:TrackPointExtension><gpxtpx:hr>92</gpxtpx:hr></gpxtpx:TrackPointExtension></extensions>
      </trkpt>
      <trkpt lat="61.1216364777" lon="14.079358056">
        <ele>244</ele>
        <time>2011-05-24T13:11:28Z</time>
        <extensions><gpxtpx:TrackPointExtension><gpxtpx:hr>97</gpxtpx:hr></gpxtpx:TrackPointExtension></extensions>
      </trkpt>
      <trkpt lat="61.1216227313" lon="14.0793639233">
        <ele>244.2</ele>
        <time>2011-05-24T13:11:34Z</time>
        <extensions><gpxtpx:TrackPointExtension><gpxtpx:hr>102</gpxtpx:hr></gpxtpx:TrackPointExtension></extensions>
      </trkpt>
      <trkpt lat="61.1216251621" lon="14.0793577207">
        <ele>244.4</ele>
        <time>2011-05-24T13:11:44Z</time>
        <extensions><gpxtpx:TrackPointExtension><gpxtpx:hr>97</gpxtpx:hr></gpxtpx:TrackPointExtension></extensions>
      </trkpt>
      <trkpt lat="61.1216218093" lon="14.0793402026">
        <ele>244.6</ele>
        <time>2011-05-24T13:12:02Z</time>
        <extensions><gpxtpx:TrackPointExtension><gpxtpx:hr>92</gpxtpx:hr></gpxtpx:TrackPointExtension></extensions>
      </trkpt>
      <trkpt lat="61.1216221446" lon="14.0793378556">
        <ele>244.6</ele>
        <time>2011-05-24T13:12:46Z</time>
        <extensions><gpxtpx:TrackPointExtension><gpxtpx:hr>87</gpxtpx:hr></gpxtpx:TrackPointExtension></extensions>
      </trkpt>
      <trkpt lat="61.1216226475" lon="14.0793722214">
        <ele>244.6</ele>
        <time>2011-05-24T13:13:05Z</time>
        <extensions><gpxtpx:TrackPointExtension><gpxtpx:hr>92</gpxtpx:hr></gpxtpx:TrackPointExtension></extensions>
      </trkpt>
      <trkpt lat="61.1216324543" lon="14.0793621631">
        <ele>244.6</ele>
        <time>2011-05-24T13:13:12Z</time>
        <extensions><gpxtpx:TrackPointExtension><gpxtpx:hr>87</gpxtpx:hr></gpxtpx:TrackPointExtension></extensions>
      </trkpt>
      <trkpt lat="61.1216394951" lon="14.0793497579">
        <ele>244.6</ele>
        <time>2011-05-24T13:13:20Z</time>
        <extensions><gpxtpx:TrackPointExtension><gpxtpx:hr>92</gpxtpx:hr></gpxtpx:TrackPointExtension></extensions>
      </trkpt>
      <trkpt lat="61.1216507269" lon="14.0793468243">
        <ele>244.6</ele>
        <time>2011-05-24T13:13:27Z</time>
        <extensions><gpxtpx:TrackPointExtension><gpxtpx:hr>87</gpxtpx:hr></gpxtpx:TrackPointExtension></extensions>
      </trkpt>
      <trkpt lat="61.1216508945" lon="14.0793511829">
        <ele>244.6</ele>
        <time>2011-05-24T13:14:02Z</time>
        <extensions><gpxtpx:TrackPointExtension><gpxtpx:hr>92</gpxtpx:hr></gpxtpx:TrackPointExtension></extensions>
      </trkpt>
      <trkpt lat="61.1216503078" lon="14.079336766">
        <ele>244.4</ele>
        <time>2011-05-24T13:14:27Z</time>
        <extensions><gpxtpx:TrackPointExtension><gpxtpx:hr>87</gpxtpx:hr></gpxtpx:TrackPointExtension></extensions>
      </trkpt>
      <trkpt lat="61.121651146" lon="14.0793308148">
        <ele>243.6</ele>
        <time>2011-05-24T13:14:33Z</time>
        <extensions><gpxtpx:TrackPointExtension><gpxtpx:hr>92</gpxtpx:hr></gpxtpx:TrackPointExtension></extensions>
      </trkpt>
      <trkpt lat="61.1216346336" lon="14.0793184096">
        <ele>242.6</ele>
        <time>2011-05-24T13:15:26Z</time>
        <extensions><gpxtpx:TrackPointExtension><gpxtpx:hr>87</gpxtpx:hr></gpxtpx:TrackPointExtension></extensions>
      </trkpt>
      <trkpt lat="61.121633544" lon="14.0793158951">
        <ele>242.6</ele>
        <time>2011-05-24T13:15:31Z</time>
        <extensions><gpxtpx:TrackPointExtension><gpxtpx:hr>90</gpxtpx:hr></gpxtpx:TrackPointExtension></extensions>
      </trkpt>
      <trkpt lat="61.1217431792" lon="14.0916144055">
        <ele>219.6</ele>
        <time>2011-05-24T13:25:31Z</time>
        <extensions><gpxtpx:TrackPointExtension><gpxtpx:hr>129</gpxtpx:hr></gpxtpx:TrackPointExtension></extensions>
      </trkpt>
      <trkpt lat="61.1218725958" lon="14.0919094483">
        <ele>219.6</ele>
        <time>2011-05-24T13:25:37Z</time>
        <extensions><gpxtpx:TrackPointExtension><gpxtpx:hr>129</gpxtpx:hr></gpxtpx:TrackPointExtension></extensions>
      </trkpt>
      <trkpt lat="61.1219097276" lon="14.0921808543">
        <ele>219.6</ele>
        <time>2011-05-24T13:25:41Z</time>
        <extensions><gpxtpx:TrackPointExtension><gpxtpx:hr>128</gpxtpx:hr></gpxtpx:TrackPointExtension></extensions>
      </trkpt>
      <trkpt lat="61.1219371364" lon="14.0925150406">
        <ele>219.6</ele>
        <time>2011-05-24T13:25:46Z</time>
        <extensions><gpxtpx:TrackPointExtension><gpxtpx:hr>129</gpxtpx:hr></gpxtpx:TrackPointExtension></extensions>
      </trkpt>
      <trkpt lat="61.121946608" lon="14.092925167">
        <ele>219.2</ele>
        <time>2011-05-24T13:25:51Z</time>
        <extensions><gpxtpx:TrackPointExtension><gpxtpx:hr>129</gpxtpx:hr></gpxtpx:TrackPointExtension></extensions>
      </trkpt>
      <trkpt lat="61.1219352924" lon="14.0933059567">
        <ele>218.6</ele>
        <time>2011-05-24T13:25:55Z</time>
        <extensions><gpxtpx:TrackPointExtension><gpxtpx:hr>129</gpxtpx:hr></gpxtpx:TrackPointExtension></extensions>
      </trkpt>
      <trkpt lat="61.1218776249" lon="14.0937750078">
        <ele>218.2</ele>
        <time>2011-05-24T13:26:01Z</time>
        <extensions><gpxtpx:TrackPointExtension><gpxtpx:hr>129</gpxtpx:hr></gpxtpx:TrackPointExtension></extensions>
      </trkpt>
      <trkpt lat="61.1217946441" lon="14.0941538697">
        <ele>217.4</ele>
        <time>2011-05-24T13:26:05Z</time>
        <extensions><gpxtpx:TrackPointExtension><gpxtpx:hr>130</gpxtpx:hr></gpxtpx:TrackPointExtension></extensions>
      </trkpt>
      <trkpt lat="61.1217221407" lon="14.0945190691">
        <ele>216.8</ele>
        <time>2011-05-24T13:26:08Z</time>
        <extensions><gpxtpx:TrackPointExtension><gpxtpx:hr>131</gpxtpx:hr></gpxtpx:TrackPointExtension></extensions>
      </trkpt>
      <trkpt lat="61.1216440214" lon="14.0949381641">
        <ele>216.2</ele>
        <time>2011-05-24T13:26:13Z</time>
        <extensions><gpxtpx:TrackPointExtension><gpxtpx:hr>133</gpxtpx:hr></gpxtpx:TrackPointExtension></extensions>
      </trkpt>
      <trkpt lat="61.1215628008" lon="14.0953328678">
        <ele>216</ele>
        <time>2011-05-24T13:26:18Z</time>
        <extensions><gpxtpx:TrackPointExtension><gpxtpx:hr>134</gpxtpx:hr></gpxtpx:TrackPointExtension></extensions>
      </trkpt>
      <trkpt lat="61.1214856035" lon="14.0957675531">
        <ele>215.8</ele>
        <time>2011-05-24T13:26:23Z</time>
        <extensions><gpxtpx:TrackPointExtension><gpxtpx:hr>134</gpxtpx:hr></gpxtpx:TrackPointExtension></extensions>
      </trkpt>
      <trkpt lat="61.1214090767" lon="14.0961743267">
        <ele>215.6</ele>
        <time>2011-05-24T13:26:27Z</time>
        <extensions><gpxtpx:TrackPointExtension><gpxtpx:hr>134</gpxtpx:hr></gpxtpx:TrackPointExtension></extensions>
      </trkpt>
      <trkpt lat="61.1213191389" lon="14.096592835">
        <ele>215.6</ele>
        <time>2011-05-24T13:26:32Z</time>
        <extensions><gpxtpx:TrackPointExtension><gpxtpx:hr>133</gpxtpx:hr></gpxtpx:TrackPointExtension></extensions>
      </trkpt>
      <trkpt lat="61.1212328892" lon="14.0970368242">
        <ele>215.6</ele>
        <time>2011-05-24T13:26:36Z</time>
        <extensions><gpxtpx:TrackPointExtension><gpxtpx:hr>133</gpxtpx:hr></gpxtpx:TrackPointExtension></extensions>
      </trkpt>
      <trkpt lat="61.1211750541" lon="14.0973990061">
        <ele>215.6</ele>
        <time>2011-05-24T13:26:39Z</time>
        <extensions><gpxtpx:TrackPointExtension><gpxtpx:hr>132</gpxtpx:hr></gpxtpx:TrackPointExtension></extensions>
      </trkpt>
      <trkpt lat="61.1211090047" lon="14.0978201966">
        <ele>215.6</ele>
        <time>2011-05-24T13:26:42Z</time>
        <extensions><gpxtpx:TrackPointExtension><gpxtpx:hr>129</gpxtpx:hr></gpxtpx:TrackPointExtension></extensions>
      </trkpt>
      <trkpt lat="61.121041698" lon="14.0982564745">
        <ele>215.6</ele>
        <time>2011-05-24T13:26:45Z</time>
        <extensions><gpxtpx:TrackPointExtension><gpxtpx:hr>125</gpxtpx:hr></gpxtpx:TrackPointExtension></extensions>
      </trkpt>
      <trkpt lat="61.1209750619" lon="14.0986491665">
        <ele>215.6</ele>
        <time>2011-05-24T13:26:48Z</time>
        <extensions><gpxtpx:TrackPointExtension><gpxtpx:hr>123</gpxtpx:hr></gpxtpx:TrackPointExtension></extensions>
      </trkpt>
      <trkpt lat="61.1209164724" lon="14.09900414">
        <ele>215.6</ele>
        <time>2011-05-24T13:26:51Z</time>
        <extensions><gpxtpx:TrackPointExtension><gpxtpx:hr>119</gpxtpx:hr></gpxtpx:TrackPointExtension></extensions>
      </trkpt>
      <trkpt lat="61.1208515965" lon="14.0994248275">
        <ele>215.6</ele>
        <time>2011-05-24T13:26:55Z</time>
        <extensions><gpxtpx:TrackPointExtension><gpxtpx:hr>115</gpxtpx:hr></gpxtpx:TrackPointExtension></extensions>
      </trkpt>
      <trkpt lat="61.1207718009" lon="14.0999045237">
        <ele>215.4</ele>
        <time>2011-05-24T13:26:59Z</time>
        <extensions><gpxtpx:TrackPointExtension><gpxtpx:hr>118</gpxtpx:hr></gpxtpx:TrackPointExtension></extensions>
      </trkpt>
      <trkpt lat="61.1206988783" lon="14.100354967">
        <ele>215.4</ele>
        <time>2011-05-24T13:27:04Z</time>
        <extensions><gpxtpx:TrackPointExtension><gpxtpx:hr>118</gpxtpx:hr></gpxtpx:TrackPointExtension></extensions>
      </trkpt>
      <trkpt lat="61.120664764" lon="14.1007229324">
        <ele>215.4</ele>
        <time>2011-05-24T13:27:07Z</time>
        <extensions><gpxtpx:TrackPointExtension><gpxtpx:hr>118</gpxtpx:hr></gpxtpx:TrackPointExtension></extensions>
      </trkpt>
      <trkpt lat="61.1206262073" lon="14.1011678436">
        <ele>215.4</ele>
        <time>2011-05-24T13:27:11Z</time>
        <extensions><gpxtpx:TrackPointExtension><gpxtpx:hr>117</gpxtpx:hr></gpxtpx:TrackPointExtension></extensions>
      </trkpt>
      <trkpt lat="61.1206210943" lon="14.1012695999">
        <ele>215.4</ele>
        <time>2011-05-24T13:27:12Z</time>
        <extensions><gpxtpx:TrackPointExtension><gpxtpx:hr>117</gpxtpx:hr></gpxtpx:TrackPointExtension></extensions>
      </trkpt>
      <trkpt lat="61.1205775922" lon="14.101608061">
        <ele>215</ele>
        <time>2011-05-24T13:27:15Z</time>
        <extensions><gpxtpx:TrackPointExtension><gpxtpx:hr>118</gpxtpx:hr></gpxtpx:TrackPointExtension></extensions>
      </trkpt>
      <trkpt lat="61.1204920969" lon="14.101957251">
        <ele>214.4</ele>
        <time>2011-05-24T13:27:20Z</time>
        <extensions><gpxtpx:TrackPointExtension><gpxtpx:hr>111</gpxtpx:hr></gpxtpx:TrackPointExtension></extensions>
      </trkpt>
      <trkpt lat="61.1204735729" lon="14.1019957239">
        <ele>214.2</ele>
        <time>2011-05-24T13:27:21Z</time>
        <extensions><gpxtpx:TrackPointExtension><gpxtpx:hr>109</gpxtpx:hr></gpxtpx:TrackPointExtension></extensions>
      </trkpt>
      <trkpt lat="61.1204133908" lon="14.1020828957">
        <ele>214</ele>
        <time>2011-05-24T13:27:25Z</time>
        <extensions><gpxtpx:TrackPointExtension><gpxtpx:hr>106</gpxtpx:hr></gpxtpx:TrackPointExtension></extensions>
      </trkpt>
      <trkpt lat="61.1204189229" lon="14.1021118132">
        <ele>213.8</ele>
        <time>2011-05-24T13:27:28Z</time>
        <extensions><gpxtpx:TrackPointExtension><gpxtpx:hr>107</gpxtpx:hr></gpxtpx:TrackPointExtension></extensions>
      </trkpt>
      <trkpt lat="61.1204075235" lon="14.1021645354">
        <ele>213.8</ele>
        <time>2011-05-24T13:27:32Z</time>
        <extensions><gpxtpx:TrackPointExtension><gpxtpx:hr>112</gpxtpx:hr></gpxtpx:TrackPointExtension></extensions>
      </trkpt>
      <trkpt lat="61.1204019076" lon="14.102186915">
        <ele>213.6</ele>
        <time>2011-05-24T13:27:33Z</time>
        <extensions><gpxtpx:TrackPointExtension><gpxtpx:hr>113</gpxtpx:hr></gpxtpx:TrackPointExtension></extensions>
      </trkpt>
      <trkpt lat="61.1203339304" lon="14.1024260506">
        <ele>213.6</ele>
        <time>2011-05-24T13:27:39Z</time>
        <extensions><gpxtpx:TrackPointExtension><gpxtpx:hr>111</gpxtpx:hr></gpxtpx:TrackPointExtension></extensions>
      </trkpt>
      <trkpt lat="61.1204003989" lon="14.1027096103">
        <ele>213.6</ele>
        <time>2011-05-24T13:27:43Z</time>
        <extensions><gpxtpx:TrackPointExtension><gpxtpx:hr>115</gpxtpx:hr></gpxtpx:TrackPointExtension></extensions>
      </trkpt>
      <trkpt lat="61.1204181685" lon="14.1027493405">
        <ele>213.6</ele>
        <time>2011-05-24T13:27:46Z</time>
        <extensions><gpxtpx:TrackPointExtension><gpxtpx:hr>118</gpxtpx:hr></gpxtpx:TrackPointExtension></extensions>
      </trkpt>
      <trkpt lat="61.1204074397" lon="14.1027902442">
        <ele>213.4</ele>
        <time>2011-05-24T13:27:59Z</time>
        <extensions><gpxtpx:TrackPointExtension><gpxtpx:hr>120</gpxtpx:hr></gpxtpx:TrackPointExtension></extensions>
      </trkpt>
      <trkpt lat="61.1204064338" lon="14.1028044934">
        <ele>214.8</ele>
        <time>2011-05-24T13:28:09Z</time>
        <extensions><gpxtpx:TrackPointExtension><gpxtpx:hr>117</gpxtpx:hr></gpxtpx:TrackPointExtension></extensions>
      </trkpt>
      <trkpt lat="61.1203815396" lon="14.1028071756">
        <ele>215.4</ele>
        <time>2011-05-24T13:28:20Z</time>
        <extensions><gpxtpx:TrackPointExtension><gpxtpx:hr>116</gpxtpx:hr></gpxtpx:TrackPointExtension></extensions>
      </trkpt>
      <trkpt lat="61.1203845571" lon="14.1027984585">
        <ele>215.4</ele>
        <time>2011-05-24T13:28:25Z</time>
        <extensions><gpxtpx:TrackPointExtension><gpxtpx:hr>111</gpxtpx:hr></gpxtpx:TrackPointExtension></extensions>
      </trkpt>
      <trkpt lat="61.1203849762" lon="14.1027976203">
        <ele>215.4</ele>
        <time>2011-05-24T13:28:26Z</time>
        <extensions><gpxtpx:TrackPointExtension><gpxtpx:hr>105</gpxtpx:hr></gpxtpx:TrackPointExtension></extensions>
      </trkpt>
      <trkpt lat="61.1203700564" lon="14.1027940999">
        <ele>215.6</ele>
        <time>2011-05-24T13:28:36Z</time>
        <extensions><gpxtpx:TrackPointExtension><gpxtpx:hr>105</gpxtpx:hr></gpxtpx:TrackPointExtension></extensions>
      </trkpt>
      <trkpt lat="61.1203572321" lon="14.1027728098">
        <ele>216.2</ele>
        <time>2011-05-24T13:28:43Z</time>
        <extensions><gpxtpx:TrackPointExtension><gpxtpx:hr>103</gpxtpx:hr></gpxtpx:TrackPointExtension></extensions>
      </trkpt>
      <trkpt lat="61.1203223634" lon="14.1027325767">
        <ele>218.6</ele>
        <time>2011-05-24T13:29:07Z</time>
        <extensions><gpxtpx:TrackPointExtension><gpxtpx:hr>108</gpxtpx:hr></gpxtpx:TrackPointExtension></extensions>
      </trkpt>
      <trkpt lat="61.1203226987" lon="14.1027471612">
        <ele>219.2</ele>
        <time>2011-05-24T13:29:15Z</time>
        <extensions><gpxtpx:TrackPointExtension><gpxtpx:hr>103</gpxtpx:hr></gpxtpx:TrackPointExtension></extensions>
      </trkpt>
      <trkpt lat="61.1203266381" lon="14.1026976242">
        <ele>219.4</ele>
        <time>2011-05-24T13:29:25Z</time>
        <extensions><gpxtpx:TrackPointExtension><gpxtpx:hr>108</gpxtpx:hr></gpxtpx:TrackPointExtension></extensions>
      </trkpt>
      <trkpt lat="61.1203237883" lon="14.1027076825">
        <ele>219.6</ele>
        <time>2011-05-24T13:29:36Z</time>
        <extensions><gpxtpx:TrackPointExtension><gpxtpx:hr>103</gpxtpx:hr></gpxtpx:TrackPointExtension></extensions>
      </trkpt>
      <trkpt lat="61.1203467547" lon="14.102716232">
        <ele>219.6</ele>
        <time>2011-05-24T13:29:45Z</time>
        <extensions><gpxtpx:TrackPointExtension><gpxtpx:hr>103</gpxtpx:hr></gpxtpx:TrackPointExtension></extensions>
      </trkpt>
      <trkpt lat="61.1203492693" lon="14.1027351751">
        <ele>219.6</ele>
        <time>2011-05-24T13:29:51Z</time>
        <extensions><gpxtpx:TrackPointExtension><gpxtpx:hr>99</gpxtpx:hr></gpxtpx:TrackPointExtension></extensions>
      </trkpt>
      <trkpt lat="61.120349856" lon="14.1027449819">
        <ele>219.6</ele>
        <time>2011-05-24T13:29:55Z</time>
        <extensions><gpxtpx:TrackPointExtension><gpxtpx:hr>104</gpxtpx:hr></gpxtpx:TrackPointExtension></extensions>
      </trkpt>
      <trkpt lat="61.1203538793" lon="14.1027513522">
        <ele>219</ele>
        <time>2011-05-24T13:30:00Z</time>
        <extensions><gpxtpx:TrackPointExtension><gpxtpx:hr>99</gpxtpx:hr></gpxtpx:TrackPointExtension></extensions>
      </trkpt>
      <trkpt lat="61.1203532088" lon="14.1027527771">
        <ele>218.8</ele>
        <time>2011-05-24T13:30:02Z</time>
        <extensions><gpxtpx:TrackPointExtension><gpxtpx:hr>99</gpxtpx:hr></gpxtpx:TrackPointExtension></extensions>
      </trkpt>
      <trkpt lat="61.120357735" lon="14.1027671102">
        <ele>218</ele>
        <time>2011-05-24T13:30:10Z</time>
        <extensions><gpxtpx:TrackPointExtension><gpxtpx:hr>104</gpxtpx:hr></gpxtpx:TrackPointExtension></extensions>
      </trkpt>
      <trkpt lat="61.1203737444" lon="14.1027786772">
        <ele>217.8</ele>
        <time>2011-05-24T13:30:15Z</time>
        <extensions><gpxtpx:TrackPointExtension><gpxtpx:hr>107</gpxtpx:hr></gpxtpx:TrackPointExtension></extensions>
      </trkpt>
      <trkpt lat="61.120334098" lon="14.1027302298">
        <ele>217.8</ele>
        <time>2011-05-24T13:30:20Z</time>
        <extensions><gpxtpx:TrackPointExtension><gpxtpx:hr>111</gpxtpx:hr></gpxtpx:TrackPointExtension></extensions>
      </trkpt>
      <trkpt lat="61.1202299948" lon="14.1025675371">
        <ele>217.6</ele>
        <time>2011-05-24T13:30:25Z</time>
        <extensions><gpxtpx:TrackPointExtension><gpxtpx:hr>111</gpxtpx:hr></gpxtpx:TrackPointExtension></extensions>
      </trkpt>
      <trkpt lat="61.1201878339" lon="14.1026942714">
        <ele>217.6</ele>
        <time>2011-05-24T13:30:27Z</time>
        <extensions><gpxtpx:TrackPointExtension><gpxtpx:hr>111</gpxtpx:hr></gpxtpx:TrackPointExtension></extensions>
      </trkpt>
      <trkpt lat="61.1201566532" lon="14.102980178">
        <ele>217.4</ele>
        <time>2011-05-24T13:30:29Z</time>
        <extensions><gpxtpx:TrackPointExtension><gpxtpx:hr>112</gpxtpx:hr></gpxtpx:TrackPointExtension></extensions>
      </trkpt>
      <trkpt lat="61.1201470978" lon="14.103184445">
        <ele>217</ele>
        <time>2011-05-24T13:30:31Z</time>
        <extensions><gpxtpx:TrackPointExtension><gpxtpx:hr>112</gpxtpx:hr></gpxtpx:TrackPointExtension></extensions>
      </trkpt>
      <trkpt lat="61.1201578267" lon="14.1033884604">
        <ele>216.8</ele>
        <time>2011-05-24T13:30:33Z</time>
        <extensions><gpxtpx:TrackPointExtension><gpxtpx:hr>113</gpxtpx:hr></gpxtpx:TrackPointExtension></extensions>
      </trkpt>
      <trkpt lat="61.120241981" lon="14.1038105729">
        <ele>216.2</ele>
        <time>2011-05-24T13:30:38Z</time>
        <extensions><gpxtpx:TrackPointExtension><gpxtpx:hr>115</gpxtpx:hr></gpxtpx:TrackPointExtension></extensions>
      </trkpt>
      <trkpt lat="61.1202589962" lon="14.1038725989">
        <ele>216.2</ele>
        <time>2011-05-24T13:30:39Z</time>
        <extensions><gpxtpx:TrackPointExtension><gpxtpx:hr>115</gpxtpx:hr></gpxtpx:TrackPointExtension></extensions>
      </trkpt>
      <trkpt lat="61.1203221957" lon="14.1040727587">
        <ele>215.8</ele>
        <time>2011-05-24T13:30:43Z</time>
        <extensions><gpxtpx:TrackPointExtension><gpxtpx:hr>115</gpxtpx:hr></gpxtpx:TrackPointExtension></extensions>
      </trkpt>
      <trkpt lat="61.120318843" lon="14.1044696417">
        <ele>214.8</ele>
        <time>2011-05-24T13:30:48Z</time>
        <extensions><gpxtpx:TrackPointExtension><gpxtpx:hr>110</gpxtpx:hr></gpxtpx:TrackPointExtension></extensions>
      </trkpt>
      <trkpt lat="61.1202548053" lon="14.1049170675">
        <ele>214</ele>
        <time>2011-05-24T13:30:55Z</time>
        <extensions><gpxtpx:TrackPointExtension><gpxtpx:hr>111</gpxtpx:hr></gpxtpx:TrackPointExtension></extensions>
      </trkpt>
      <trkpt lat="61.1202056035" lon="14.1050784191">
        <ele>213.8</ele>
        <time>2011-05-24T13:30:58Z</time>
        <extensions><gpxtpx:TrackPointExtension><gpxtpx:hr>118</gpxtpx:hr></gpxtpx:TrackPointExtension></extensions>
      </trkpt>
      <trkpt lat="61.1201130673" lon="14.1053836879">
        <ele>213.6</ele>
        <time>2011-05-24T13:31:03Z</time>
        <extensions><gpxtpx:TrackPointExtension><gpxtpx:hr>123</gpxtpx:hr></gpxtpx:TrackPointExtension></extensions>
      </trkpt>
      <trkpt lat="61.120075265" lon="14.1055585343">
        <ele>213.6</ele>
        <time>2011-05-24T13:31:08Z</time>
        <extensions><gpxtpx:TrackPointExtension><gpxtpx:hr>126</gpxtpx:hr></gpxtpx:TrackPointExtension></extensions>
      </trkpt>
      <trkpt lat="61.1200238001" lon="14.1056863583">
        <ele>213.6</ele>
        <time>2011-05-24T13:31:12Z</time>
        <extensions><gpxtpx:TrackPointExtension><gpxtpx:hr>129</gpxtpx:hr></gpxtpx:TrackPointExtension></extensions>
      </trkpt>
      <trkpt lat="61.1200142447" lon="14.1057203888">
        <ele>213.6</ele>
        <time>2011-05-24T13:31:13Z</time>
        <extensions><gpxtpx:TrackPointExtension><gpxtpx:hr>129</gpxtpx:hr></gpxtpx:TrackPointExtension></extensions>
      </trkpt>
      <trkpt lat="61.1199911107" lon="14.1058829977">
        <ele>213.4</ele>
        <time>2011-05-24T13:31:17Z</time>
        <extensions><gpxtpx:TrackPointExtension><gpxtpx:hr>133</gpxtpx:hr></gpxtpx:TrackPointExtension></extensions>
      </trkpt>
      <trkpt lat="61.1200291645" lon="14.1062680621">
        <ele>213.4</ele>
        <time>2011-05-24T13:31:22Z</time>
        <extensions><gpxtpx:TrackPointExtension><gpxtpx:hr>134</gpxtpx:hr></gpxtpx:TrackPointExtension></extensions>
      </trkpt>
      <trkpt lat="61.1201143246" lon="14.1066041763">
        <ele>213.4</ele>
        <time>2011-05-24T13:31:25Z</time>
        <extensions><gpxtpx:TrackPointExtension><gpxtpx:hr>134</gpxtpx:hr></gpxtpx:TrackPointExtension></extensions>
      </trkpt>
      <trkpt lat="61.1202098783" lon="14.1069531986">
        <ele>213.4</ele>
        <time>2011-05-24T13:31:29Z</time>
        <extensions><gpxtpx:TrackPointExtension><gpxtpx:hr>134</gpxtpx:hr></gpxtpx:TrackPointExtension></extensions>
      </trkpt>
      <trkpt lat="61.1202281508" lon="14.1070604032">
        <ele>213.4</ele>
        <time>2011-05-24T13:31:30Z</time>
        <extensions><gpxtpx:TrackPointExtension><gpxtpx:hr>134</gpxtpx:hr></gpxtpx:TrackPointExtension></extensions>
      </trkpt>
      <trkpt lat="61.1203005704" lon="14.1074292068">
        <ele>213.4</ele>
        <time>2011-05-24T13:31:33Z</time>
        <extensions><gpxtpx:TrackPointExtension><gpxtpx:hr>133</gpxtpx:hr></gpxtpx:TrackPointExtension></extensions>
      </trkpt>
      <trkpt lat="61.1203283145" lon="14.1075287837">
        <ele>213.4</ele>
        <time>2011-05-24T13:31:35Z</time>
        <extensions><gpxtpx:TrackPointExtension><gpxtpx:hr>133</gpxtpx:hr></gpxtpx:TrackPointExtension></extensions>
      </trkpt>
      <trkpt lat="61.1203733253" lon="14.1077279377">
        <ele>213.4</ele>
        <time>2011-05-24T13:31:37Z</time>
        <extensions><gpxtpx:TrackPointExtension><gpxtpx:hr>132</gpxtpx:hr></gpxtpx:TrackPointExtension></extensions>
      </trkpt>
      <trkpt lat="61.1204129717" lon="14.1083141678">
        <ele>212.8</ele>
        <time>2011-05-24T13:31:42Z</time>
        <extensions><gpxtpx:TrackPointExtension><gpxtpx:hr>132</gpxtpx:hr></gpxtpx:TrackPointExtension></extensions>
      </trkpt>
      <trkpt lat="61.1204420569" lon="14.1087001542">
        <ele>212.2</ele>
        <time>2011-05-24T13:31:46Z</time>
        <extensions><gpxtpx:TrackPointExtension><gpxtpx:hr>131</gpxtpx:hr></gpxtpx:TrackPointExtension></extensions>
      </trkpt>
      <trkpt lat="61.1204449068" lon="14.1088055985">
        <ele>212.2</ele>
        <time>2011-05-24T13:31:47Z</time>
        <extensions><gpxtpx:TrackPointExtension><gpxtpx:hr>131</gpxtpx:hr></gpxtpx:TrackPointExtension></extensions>
      </trkpt>
      <trkpt lat="61.1204554679" lon="14.1090915052">
        <ele>212</ele>
        <time>2011-05-24T13:31:50Z</time>
        <extensions><gpxtpx:TrackPointExtension><gpxtpx:hr>130</gpxtpx:hr></gpxtpx:TrackPointExtension></extensions>
      </trkpt>
      <trkpt lat="61.1205549611" lon="14.109565334">
        <ele>211.8</ele>
        <time>2011-05-24T13:31:55Z</time>
        <extensions><gpxtpx:TrackPointExtension><gpxtpx:hr>130</gpxtpx:hr></gpxtpx:TrackPointExtension></extensions>
      </trkpt>
      <trkpt lat="61.1205687912" lon="14.1096569481">
        <ele>211.6</ele>
        <time>2011-05-24T13:31:56Z</time>
        <extensions><gpxtpx:TrackPointExtension><gpxtpx:hr>130</gpxtpx:hr></gpxtpx:TrackPointExtension></extensions>
      </trkpt>
      <trkpt lat="61.1205822023" lon="14.1097623924">
        <ele>211.6</ele>
        <time>2011-05-24T13:31:57Z</time>
        <extensions><gpxtpx:TrackPointExtension><gpxtpx:hr>130</gpxtpx:hr></gpxtpx:TrackPointExtension></extensions>
      </trkpt>
      <trkpt lat="61.1205970382" lon="14.1102805615">
        <ele>211.6</ele>
        <time>2011-05-24T13:32:03Z</time>
        <extensions><gpxtpx:TrackPointExtension><gpxtpx:hr>130</gpxtpx:hr></gpxtpx:TrackPointExtension></extensions>
      </trkpt>
      <trkpt lat="61.1205446514" lon="14.1107733334">
        <ele>211.4</ele>
        <time>2011-05-24T13:32:09Z</time>
        <extensions><gpxtpx:TrackPointExtension><gpxtpx:hr>130</gpxtpx:hr></gpxtpx:TrackPointExtension></extensions>
      </trkpt>
      <trkpt lat="61.1205286419" lon="14.1111997206">
        <ele>211.4</ele>
        <time>2011-05-24T13:32:14Z</time>
        <extensions><gpxtpx:TrackPointExtension><gpxtpx:hr>130</gpxtpx:hr></gpxtpx:TrackPointExtension></extensions>
      </trkpt>
      <trkpt lat="61.1205315756" lon="14.1113085177">
        <ele>211.4</ele>
        <time>2011-05-24T13:32:15Z</time>
        <extensions><gpxtpx:TrackPointExtension><gpxtpx:hr>130</gpxtpx:hr></gpxtpx:TrackPointExtension></extensions>
      </trkpt>
      <trkpt lat="61.1205302345" lon="14.1115202445">
        <ele>211.4</ele>
        <time>2011-05-24T13:32:17Z</time>
        <extensions><gpxtpx:TrackPointExtension><gpxtpx:hr>130</gpxtpx:hr></gpxtpx:TrackPointExtension></extensions>
      </trkpt>
      <trkpt lat="61.1205454057" lon="14.1119162055">
        <ele>211.4</ele>
        <time>2011-05-24T13:32:21Z</time>
        <extensions><gpxtpx:TrackPointExtension><gpxtpx:hr>130</gpxtpx:hr></gpxtpx:TrackPointExtension></extensions>
      </trkpt>
      <trkpt lat="61.120505927" lon="14.1124484561">
        <ele>211.4</ele>
        <time>2011-05-24T13:32:26Z</time>
        <extensions><gpxtpx:TrackPointExtension><gpxtpx:hr>131</gpxtpx:hr></gpxtpx:TrackPointExtension></extensions>
      </trkpt>
      <trkpt lat="61.1204981318" lon="14.1125499609">
        <ele>211.4</ele>
        <time>2011-05-24T13:32:27Z</time>
        <extensions><gpxtpx:TrackPointExtension><gpxtpx:hr>132</gpxtpx:hr></gpxtpx:TrackPointExtension></extensions>
      </trkpt>
      <trkpt lat="61.1204801107" lon="14.1128186846">
        <ele>211.4</ele>
        <time>2011-05-24T13:32:30Z</time>
        <extensions><gpxtpx:TrackPointExtension><gpxtpx:hr>132</gpxtpx:hr></gpxtpx:TrackPointExtension></extensions>
      </trkpt>
      <trkpt lat="61.1204399614" lon="14.1132740733">
        <ele>211.4</ele>
        <time>2011-05-24T13:32:36Z</time>
        <extensions><gpxtpx:TrackPointExtension><gpxtpx:hr>132</gpxtpx:hr></gpxtpx:TrackPointExtension></extensions>
      </trkpt>
      <trkpt lat="61.1204440686" lon="14.1133361831">
        <ele>211.4</ele>
        <time>2011-05-24T13:32:37Z</time>
        <extensions><gpxtpx:TrackPointExtension><gpxtpx:hr>132</gpxtpx:hr></gpxtpx:TrackPointExtension></extensions>
      </trkpt>
      <trkpt lat="61.1204487624" lon="14.1135943457">
        <ele>210.6</ele>
        <time>2011-05-24T13:32:41Z</time>
        <extensions><gpxtpx:TrackPointExtension><gpxtpx:hr>131</gpxtpx:hr></gpxtpx:TrackPointExtension></extensions>
      </trkpt>
      <trkpt lat="61.1205407119" lon="14.1140090821">
        <ele>210</ele>
        <time>2011-05-24T13:32:47Z</time>
        <extensions><gpxtpx:TrackPointExtension><gpxtpx:hr>127</gpxtpx:hr></gpxtpx:TrackPointExtension></extensions>
      </trkpt>
      <trkpt lat="61.1206581423" lon="14.1143202182">
        <ele>209.8</ele>
        <time>2011-05-24T13:32:52Z</time>
        <extensions><gpxtpx:TrackPointExtension><gpxtpx:hr>126</gpxtpx:hr></gpxtpx:TrackPointExtension></extensions>
      </trkpt>
      <trkpt lat="61.1207532769" lon="14.1146975713">
        <ele>209.6</ele>
        <time>2011-05-24T13:32:57Z</time>
        <extensions><gpxtpx:TrackPointExtension><gpxtpx:hr>125</gpxtpx:hr></gpxtpx:TrackPointExtension></extensions>
      </trkpt>
      <trkpt lat="61.1208315638" lon="14.1150346914">
        <ele>209.6</ele>
        <time>2011-05-24T13:33:01Z</time>
        <extensions><gpxtpx:TrackPointExtension><gpxtpx:hr>126</gpxtpx:hr></gpxtpx:TrackPointExtension></extensions>
      </trkpt>
      <trkpt lat="61.1208822743" lon="14.11519093">
        <ele>209.6</ele>
        <time>2011-05-24T13:33:03Z</time>
        <extensions><gpxtpx:TrackPointExtension><gpxtpx:hr>127</gpxtpx:hr></gpxtpx:TrackPointExtension></extensions>
      </trkpt>
      <trkpt lat="61.1209741399" lon="14.1156219273">
        <ele>209.4</ele>
        <time>2011-05-24T13:33:08Z</time>
        <extensions><gpxtpx:TrackPointExtension><gpxtpx:hr>127</gpxtpx:hr></gpxtpx:TrackPointExtension></extensions>
      </trkpt>
      <trkpt lat="61.1209993694" lon="14.1157742264">
        <ele>209.4</ele>
        <time>2011-05-24T13:33:10Z</time>
        <extensions><gpxtpx:TrackPointExtension><gpxtpx:hr>127</gpxtpx:hr></gpxtpx:TrackPointExtension></extensions>
      </trkpt>
      <trkpt lat="61.1209953461" lon="14.116150909">
        <ele>209.4</ele>
        <time>2011-05-24T13:33:14Z</time>
        <extensions><gpxtpx:TrackPointExtension><gpxtpx:hr>128</gpxtpx:hr></gpxtpx:TrackPointExtension></extensions>
      </trkpt>
      <trkpt lat="61.1210324779" lon="14.1164993446">
        <ele>209.2</ele>
        <time>2011-05-24T13:33:18Z</time>
        <extensions><gpxtpx:TrackPointExtension><gpxtpx:hr>129</gpxtpx:hr></gpxtpx:TrackPointExtension></extensions>
      </trkpt>
      <trkpt lat="61.1210651674" lon="14.1165956526">
        <ele>208.8</ele>
        <time>2011-05-24T13:33:20Z</time>
        <extensions><gpxtpx:TrackPointExtension><gpxtpx:hr>129</gpxtpx:hr></gpxtpx:TrackPointExtension></extensions>
      </trkpt>
      <trkpt lat="61.1211180571" lon="14.1168303458">
        <ele>208.4</ele>
        <time>2011-05-24T13:33:24Z</time>
        <extensions><gpxtpx:TrackPointExtension><gpxtpx:hr>130</gpxtpx:hr></gpxtpx:TrackPointExtension></extensions>
      </trkpt>
      <trkpt lat="61.1211833521" lon="14.1172452498">
        <ele>208</ele>
        <time>2011-05-24T13:33:29Z</time>
        <extensions><gpxtpx:TrackPointExtension><gpxtpx:hr>131</gpxtpx:hr></gpxtpx:TrackPointExtension></extensions>
      </trkpt>
      <trkpt lat="61.1211941648" lon="14.1175594873">
        <ele>207.8</ele>
        <time>2011-05-24T13:33:33Z</time>
        <extensions><gpxtpx:TrackPointExtension><gpxtpx:hr>131</gpxtpx:hr></gpxtpx:TrackPointExtension></extensions>
      </trkpt>
      <trkpt lat="61.1212026305" lon="14.1177305619">
        <ele>207.6</ele>
        <time>2011-05-24T13:33:35Z</time>
        <extensions><gpxtpx:TrackPointExtension><gpxtpx:hr>131</gpxtpx:hr></gpxtpx:TrackPointExtension></extensions>
      </trkpt>
      <trkpt lat="61.1212566099" lon="14.1181904767">
        <ele>207.6</ele>
        <time>2011-05-24T13:33:41Z</time>
        <extensions><gpxtpx:TrackPointExtension><gpxtpx:hr>133</gpxtpx:hr></gpxtpx:TrackPointExtension></extensions>
      </trkpt>
      <trkpt lat="61.1213586177" lon="14.1183620542">
        <ele>207.4</ele>
        <time>2011-05-24T13:33:44Z</time>
        <extensions><gpxtpx:TrackPointExtension><gpxtpx:hr>133</gpxtpx:hr></gpxtpx:TrackPointExtension></extensions>
      </trkpt>
      <trkpt lat="61.1214300315" lon="14.1184891238">
        <ele>207.4</ele>
        <time>2011-05-24T13:33:46Z</time>
        <extensions><gpxtpx:TrackPointExtension><gpxtpx:hr>134</gpxtpx:hr></gpxtpx:TrackPointExtension></extensions>
      </trkpt>
      <trkpt lat="61.1214636429" lon="14.1185608729">
        <ele>207.4</ele>
        <time>2011-05-24T13:33:47Z</time>
        <extensions><gpxtpx:TrackPointExtension><gpxtpx:hr>134</gpxtpx:hr></gpxtpx:TrackPointExtension></extensions>
      </trkpt>
      <trkpt lat="61.1215306143" lon="14.118802523">
        <ele>207.4</ele>
        <time>2011-05-24T13:33:50Z</time>
        <extensions><gpxtpx:TrackPointExtension><gpxtpx:hr>134</gpxtpx:hr></gpxtpx:TrackPointExtension></extensions>
      </trkpt>
      <trkpt lat="61.1215890361" lon="14.1192844823">
        <ele>207.4</ele>
        <time>2011-05-24T13:33:57Z</time>
        <extensions><gpxtpx:TrackPointExtension><gpxtpx:hr>133</gpxtpx:hr></gpxtpx:TrackPointExtension></extensions>
      </trkpt>
      <trkpt lat="61.1215198016" lon="14.1196967041">
        <ele>207.4</ele>
        <time>2011-05-24T13:34:02Z</time>
        <extensions><gpxtpx:TrackPointExtension><gpxtpx:hr>134</gpxtpx:hr></gpxtpx:TrackPointExtension></extensions>
      </trkpt>
      <trkpt lat="61.1215068097" lon="14.1197304832">
        <ele>207.4</ele>
        <time>2011-05-24T13:34:03Z</time>
        <extensions><gpxtpx:TrackPointExtension><gpxtpx:hr>133</gpxtpx:hr></gpxtpx:TrackPointExtension></extensions>
      </trkpt>
      <trkpt lat="61.1214876989" lon="14.1197957782">
        <ele>207.4</ele>
        <time>2011-05-24T13:34:04Z</time>
        <extensions><gpxtpx:TrackPointExtension><gpxtpx:hr>133</gpxtpx:hr></gpxtpx:TrackPointExtension></extensions>
      </trkpt>
      <trkpt lat="61.1214607092" lon="14.1201372568">
        <ele>207.4</ele>
        <time>2011-05-24T13:34:08Z</time>
        <extensions><gpxtpx:TrackPointExtension><gpxtpx:hr>133</gpxtpx:hr></gpxtpx:TrackPointExtension></extensions>
      </trkpt>
      <trkpt lat="61.1214934824" lon="14.12027472">
        <ele>207.4</ele>
        <time>2011-05-24T13:34:10Z</time>
        <extensions><gpxtpx:TrackPointExtension><gpxtpx:hr>132</gpxtpx:hr></gpxtpx:TrackPointExtension></extensions>
      </trkpt>
      <trkpt lat="61.1216065543" lon="14.1206669929">
        <ele>207.4</ele>
        <time>2011-05-24T13:34:16Z</time>
        <extensions><gpxtpx:TrackPointExtension><gpxtpx:hr>134</gpxtpx:hr></gpxtpx:TrackPointExtension></extensions>
      </trkpt>
      <trkpt lat="61.1216139303" lon="14.1209663105">
        <ele>207.4</ele>
        <time>2011-05-24T13:34:20Z</time>
        <extensions><gpxtpx:TrackPointExtension><gpxtpx:hr>134</gpxtpx:hr></gpxtpx:TrackPointExtension></extensions>
      </trkpt>
      <trkpt lat="61.1215763794" lon="14.1214330147">
        <ele>207.4</ele>
        <time>2011-05-24T13:34:25Z</time>
        <extensions><gpxtpx:TrackPointExtension><gpxtpx:hr>133</gpxtpx:hr></gpxtpx:TrackPointExtension></extensions>
      </trkpt>
      <trkpt lat="61.1215827497" lon="14.1215252156">
        <ele>207.4</ele>
        <time>2011-05-24T13:34:26Z</time>
        <extensions><gpxtpx:TrackPointExtension><gpxtpx:hr>132</gpxtpx:hr></gpxtpx:TrackPointExtension></extensions>
      </trkpt>
      <trkpt lat="61.1216130922" lon="14.1218167381">
        <ele>207.4</ele>
        <time>2011-05-24T13:34:29Z</time>
        <extensions><gpxtpx:TrackPointExtension><gpxtpx:hr>131</gpxtpx:hr></gpxtpx:TrackPointExtension></extensions>
      </trkpt>
      <trkpt lat="61.1216568457" lon="14.1221505892">
        <ele>207.4</ele>
        <time>2011-05-24T13:34:33Z</time>
        <extensions><gpxtpx:TrackPointExtension><gpxtpx:hr>131</gpxtpx:hr></gpxtpx:TrackPointExtension></extensions>
      </trkpt>
      <trkpt lat="61.1217156028" lon="14.1226690097">
        <ele>207.4</ele>
        <time>2011-05-24T13:34:39Z</time>
        <extensions><gpxtpx:TrackPointExtension><gpxtpx:hr>131</gpxtpx:hr></gpxtpx:TrackPointExtension></extensions>
      </trkpt>
      <trkpt lat="61.1217206319" lon="14.1227642281">
        <ele>207.4</ele>
        <time>2011-05-24T13:34:40Z</time>
        <extensions><gpxtpx:TrackPointExtension><gpxtpx:hr>132</gpxtpx:hr></gpxtpx:TrackPointExtension></extensions>
      </trkpt>
      <trkpt lat="61.1217410838" lon="14.1229500548">
        <ele>207.4</ele>
        <time>2011-05-24T13:34:42Z</time>
        <extensions><gpxtpx:TrackPointExtension><gpxtpx:hr>133</gpxtpx:hr></gpxtpx:TrackPointExtension></extensions>
      </trkpt>
      <trkpt lat="61.1217834124" lon="14.1233011726">
        <ele>207.4</ele>
        <time>2011-05-24T13:34:47Z</time>
        <extensions><gpxtpx:TrackPointExtension><gpxtpx:hr>134</gpxtpx:hr></gpxtpx:TrackPointExtension></extensions>
      </trkpt>
      <trkpt lat="61.1217995056" lon="14.1236767655">
        <ele>207.8</ele>
        <time>2011-05-24T13:34:53Z</time>
        <extensions><gpxtpx:TrackPointExtension><gpxtpx:hr>137</gpxtpx:hr></gpxtpx:TrackPointExtension></extensions>
      </trkpt>
      <trkpt lat="61.1217361384" lon="14.1240659371">
        <ele>208.4</ele>
        <time>2011-05-24T13:34:58Z</time>
        <extensions><gpxtpx:TrackPointExtension><gpxtpx:hr>137</gpxtpx:hr></gpxtpx:TrackPointExtension></extensions>
      </trkpt>
      <trkpt lat="61.1216132598" lon="14.1244294601">
        <ele>208.8</ele>
        <time>2011-05-24T13:35:02Z</time>
        <extensions><gpxtpx:TrackPointExtension><gpxtpx:hr>136</gpxtpx:hr></gpxtpx:TrackPointExtension></extensions>
      </trkpt>
      <trkpt lat="61.121589539" lon="14.1245238403">
        <ele>208.8</ele>
        <time>2011-05-24T13:35:03Z</time>
        <extensions><gpxtpx:TrackPointExtension><gpxtpx:hr>136</gpxtpx:hr></gpxtpx:TrackPointExtension></extensions>
      </trkpt>
      <trkpt lat="61.121564058" lon="14.1249688354">
        <ele>209</ele>
        <time>2011-05-24T13:35:07Z</time>
        <extensions><gpxtpx:TrackPointExtension><gpxtpx:hr>135</gpxtpx:hr></gpxtpx:TrackPointExtension></extensions>
      </trkpt>
      <trkpt lat="61.1215672432" lon="14.125088948">
        <ele>209</ele>
        <time>2011-05-24T13:35:08Z</time>
        <extensions><gpxtpx:TrackPointExtension><gpxtpx:hr>135</gpxtpx:hr></gpxtpx:TrackPointExtension></extensions>
      </trkpt>
      <trkpt lat="61.1215641419" lon="14.1253078833">
        <ele>209.2</ele>
        <time>2011-05-24T13:35:10Z</time>
        <extensions><gpxtpx:TrackPointExtension><gpxtpx:hr>136</gpxtpx:hr></gpxtpx:TrackPointExtension></extensions>
      </trkpt>
      <trkpt lat="61.1216292692" lon="14.125747933">
        <ele>209.2</ele>
        <time>2011-05-24T13:35:14Z</time>
        <extensions><gpxtpx:TrackPointExtension><gpxtpx:hr>135</gpxtpx:hr></gpxtpx:TrackPointExtension></extensions>
      </trkpt>
      <trkpt lat="61.121748376" lon="14.1262282159">
        <ele>209.4</ele>
        <time>2011-05-24T13:35:19Z</time>
        <extensions><gpxtpx:TrackPointExtension><gpxtpx:hr>132</gpxtpx:hr></gpxtpx:TrackPointExtension></extensions>
      </trkpt>
      <trkpt lat="61.121825741" lon="14.1266262723">
        <ele>209.4</ele>
        <time>2011-05-24T13:35:23Z</time>
        <extensions><gpxtpx:TrackPointExtension><gpxtpx:hr>131</gpxtpx:hr></gpxtpx:TrackPointExtension></extensions>
      </trkpt>
      <trkpt lat="61.1218679019" lon="14.1270499774">
        <ele>209.4</ele>
        <time>2011-05-24T13:35:27Z</time>
        <extensions><gpxtpx:TrackPointExtension><gpxtpx:hr>131</gpxtpx:hr></gpxtpx:TrackPointExtension></extensions>
      </trkpt>
      <trkpt lat="61.1218858392" lon="14.1274345389">
        <ele>209.4</ele>
        <time>2011-05-24T13:35:31Z</time>
        <extensions><gpxtpx:TrackPointExtension><gpxtpx:hr>131</gpxtpx:hr></gpxtpx:TrackPointExtension></extensions>
      </trkpt>
      <trkpt lat="61.1218839113" lon="14.1275328586">
        <ele>209.4</ele>
        <time>2011-05-24T13:35:32Z</time>
        <extensions><gpxtpx:TrackPointExtension><gpxtpx:hr>131</gpxtpx:hr></gpxtpx:TrackPointExtension></extensions>
      </trkpt>
      <trkpt lat="61.1218685725" lon="14.1279009079">
        <ele>209.4</ele>
        <time>2011-05-24T13:35:36Z</time>
        <extensions><gpxtpx:TrackPointExtension><gpxtpx:hr>130</gpxtpx:hr></gpxtpx:TrackPointExtension></extensions>
      </trkpt>
      <trkpt lat="61.1218608611" lon="14.128097212">
        <ele>209.4</ele>
        <time>2011-05-24T13:35:38Z</time>
        <extensions><gpxtpx:TrackPointExtension><gpxtpx:hr>129</gpxtpx:hr></gpxtpx:TrackPointExtension></extensions>
      </trkpt>
      <trkpt lat="61.1218957298" lon="14.1284819412">
        <ele>209.4</ele>
        <time>2011-05-24T13:35:42Z</time>
        <extensions><gpxtpx:TrackPointExtension><gpxtpx:hr>129</gpxtpx:hr></gpxtpx:TrackPointExtension></extensions>
      </trkpt>
      <trkpt lat="61.1219339513" lon="14.1289097533">
        <ele>209.4</ele>
        <time>2011-05-24T13:35:47Z</time>
        <extensions><gpxtpx:TrackPointExtension><gpxtpx:hr>129</gpxtpx:hr></gpxtpx:TrackPointExtension></extensions>
      </trkpt>
      <trkpt lat="61.1219382261" lon="14.1290308718">
        <ele>209.4</ele>
        <time>2011-05-24T13:35:49Z</time>
        <extensions><gpxtpx:TrackPointExtension><gpxtpx:hr>129</gpxtpx:hr></gpxtpx:TrackPointExtension></extensions>
      </trkpt>
      <trkpt lat="61.1219654672" lon="14.1293819896">
        <ele>209.4</ele>
        <time>2011-05-24T13:35:55Z</time>
        <extensions><gpxtpx:TrackPointExtension><gpxtpx:hr>128</gpxtpx:hr></gpxtpx:TrackPointExtension></extensions>
      </trkpt>
      <trkpt lat="61.121977621" lon="14.1295854183">
        <ele>209.4</ele>
        <time>2011-05-24T13:35:59Z</time>
        <extensions><gpxtpx:TrackPointExtension><gpxtpx:hr>130</gpxtpx:hr></gpxtpx:TrackPointExtension></extensions>
      </trkpt>
      <trkpt lat="61.1219994977" lon="14.1298516274">
        <ele>209.4</ele>
        <time>2011-05-24T13:36:04Z</time>
        <extensions><gpxtpx:TrackPointExtension><gpxtpx:hr>135</gpxtpx:hr></gpxtpx:TrackPointExtension></extensions>
      </trkpt>
      <trkpt lat="61.1220414072" lon="14.1302734046">
        <ele>209.4</ele>
        <time>2011-05-24T13:36:11Z</time>
        <extensions><gpxtpx:TrackPointExtension><gpxtpx:hr>139</gpxtpx:hr></gpxtpx:TrackPointExtension></extensions>
      </trkpt>
      <trkpt lat="61.122060518" lon="14.1305706268">
        <ele>209.4</ele>
        <time>2011-05-24T13:36:16Z</time>
        <extensions><gpxtpx:TrackPointExtension><gpxtpx:hr>143</gpxtpx:hr></gpxtpx:TrackPointExtension></extensions>
      </trkpt>
      <trkpt lat="61.1220944647" lon="14.1308573716">
        <ele>210</ele>
        <time>2011-05-24T13:36:21Z</time>
        <extensions><gpxtpx:TrackPointExtension><gpxtpx:hr>148</gpxtpx:hr></gpxtpx:TrackPointExtension></extensions>
      </trkpt>
      <trkpt lat="61.1221370447" lon="14.1311664123">
        <ele>210.8</ele>
        <time>2011-05-24T13:36:27Z</time>
        <extensions><gpxtpx:TrackPointExtension><gpxtpx:hr>152</gpxtpx:hr></gpxtpx:TrackPointExtension></extensions>
      </trkpt>
      <trkpt lat="61.1221574966" lon="14.1314042906">
        <ele>212</ele>
        <time>2011-05-24T13:36:32Z</time>
        <extensions><gpxtpx:TrackPointExtension><gpxtpx:hr>154</gpxtpx:hr></gpxtpx:TrackPointExtension></extensions>
      </trkpt>
      <trkpt lat="61.122188342" lon="14.131609731">
        <ele>213.2</ele>
        <time>2011-05-24T13:36:37Z</time>
        <extensions><gpxtpx:TrackPointExtension><gpxtpx:hr>154</gpxtpx:hr></gpxtpx:TrackPointExtension></extensions>
      </trkpt>
      <trkpt lat="61.1222277369" lon="14.1318712462">
        <ele>215</ele>
        <time>2011-05-24T13:36:44Z</time>
        <extensions><gpxtpx:TrackPointExtension><gpxtpx:hr>154</gpxtpx:hr></gpxtpx:TrackPointExtension></extensions>
      </trkpt>
      <trkpt lat="61.1222510386" lon="14.1319767744">
        <ele>215.8</ele>
        <time>2011-05-24T13:36:47Z</time>
        <extensions><gpxtpx:TrackPointExtension><gpxtpx:hr>154</gpxtpx:hr></gpxtpx:TrackPointExtension></extensions>
      </trkpt>
      <trkpt lat="61.1222946244" lon="14.1320700649">
        <ele>216.6</ele>
        <time>2011-05-24T13:36:50Z</time>
        <extensions><gpxtpx:TrackPointExtension><gpxtpx:hr>154</gpxtpx:hr></gpxtpx:TrackPointExtension></extensions>
      </trkpt>
      <trkpt lat="61.1223424851" lon="14.1323908402">
        <ele>218.6</ele>
        <time>2011-05-24T13:36:57Z</time>
        <extensions><gpxtpx:TrackPointExtension><gpxtpx:hr>154</gpxtpx:hr></gpxtpx:TrackPointExtension></extensions>
      </trkpt>
      <trkpt lat="61.1223765156" lon="14.1325757449">
        <ele>220.2</ele>
        <time>2011-05-24T13:37:03Z</time>
        <extensions><gpxtpx:TrackPointExtension><gpxtpx:hr>154</gpxtpx:hr></gpxtpx:TrackPointExtension></extensions>
      </trkpt>
      <trkpt lat="61.1223900943" lon="14.1326410399">
        <ele>220.6</ele>
        <time>2011-05-24T13:37:06Z</time>
        <extensions><gpxtpx:TrackPointExtension><gpxtpx:hr>154</gpxtpx:hr></gpxtpx:TrackPointExtension></extensions>
      </trkpt>
      <trkpt lat="61.1224229513" lon="14.132822089">
        <ele>222.2</ele>
        <time>2011-05-24T13:37:12Z</time>
        <extensions><gpxtpx:TrackPointExtension><gpxtpx:hr>152</gpxtpx:hr></gpxtpx:TrackPointExtension></extensions>
      </trkpt>
      <trkpt lat="61.122427729" lon="14.1328529344">
        <ele>222.4</ele>
        <time>2011-05-24T13:37:13Z</time>
        <extensions><gpxtpx:TrackPointExtension><gpxtpx:hr>151</gpxtpx:hr></gpxtpx:TrackPointExtension></extensions>
      </trkpt>
      <trkpt lat="61.1224427326" lon="14.1329871286">
        <ele>223.8</ele>
        <time>2011-05-24T13:37:18Z</time>
        <extensions><gpxtpx:TrackPointExtension><gpxtpx:hr>149</gpxtpx:hr></gpxtpx:TrackPointExtension></extensions>
      </trkpt>
      <trkpt lat="61.1224395475" lon="14.1329857875">
        <ele>224.8</ele>
        <time>2011-05-24T13:37:23Z</time>
        <extensions><gpxtpx:TrackPointExtension><gpxtpx:hr>146</gpxtpx:hr></gpxtpx:TrackPointExtension></extensions>
      </trkpt>
      <trkpt lat="61.1224455825" lon="14.1329960972">
        <ele>226.8</ele>
        <time>2011-05-24T13:37:32Z</time>
        <extensions><gpxtpx:TrackPointExtension><gpxtpx:hr>140</gpxtpx:hr></gpxtpx:TrackPointExtension></extensions>
      </trkpt>
      <trkpt lat="61.1224479294" lon="14.1329986956">
        <ele>227.6</ele>
        <time>2011-05-24T13:37:36Z</time>
        <extensions><gpxtpx:TrackPointExtension><gpxtpx:hr>134</gpxtpx:hr></gpxtpx:TrackPointExtension></extensions>
      </trkpt>
      <trkpt lat="61.1224491867" lon="14.1330026351">
        <ele>228.4</ele>
        <time>2011-05-24T13:37:38Z</time>
        <extensions><gpxtpx:TrackPointExtension><gpxtpx:hr>129</gpxtpx:hr></gpxtpx:TrackPointExtension></extensions>
      </trkpt>
      <trkpt lat="61.1224563113" lon="14.1330100112">
        <ele>229.2</ele>
        <time>2011-05-24T13:37:43Z</time>
        <extensions><gpxtpx:TrackPointExtension><gpxtpx:hr>123</gpxtpx:hr></gpxtpx:TrackPointExtension></extensions>
      </trkpt>
      <trkpt lat="61.1224619272" lon="14.1330184769">
        <ele>230.4</ele>
        <time>2011-05-24T13:37:51Z</time>
        <extensions><gpxtpx:TrackPointExtension><gpxtpx:hr>118</gpxtpx:hr></gpxtpx:TrackPointExtension></extensions>
      </trkpt>
      <trkpt lat="61.1224642741" lon="14.133018896">
        <ele>230.8</ele>
        <time>2011-05-24T13:37:53Z</time>
        <extensions><gpxtpx:TrackPointExtension><gpxtpx:hr>113</gpxtpx:hr></gpxtpx:TrackPointExtension></extensions>
      </trkpt>
      <trkpt lat="61.1224713987" lon="14.1330053173">
        <ele>231.6</ele>
        <time>2011-05-24T13:38:00Z</time>
        <extensions><gpxtpx:TrackPointExtension><gpxtpx:hr>107</gpxtpx:hr></gpxtpx:TrackPointExtension></extensions>
      </trkpt>
      <trkpt lat="61.1224709796" lon="14.1330124419">
        <ele>232.6</ele>
        <time>2011-05-24T13:38:05Z</time>
        <extensions><gpxtpx:TrackPointExtension><gpxtpx:hr>112</gpxtpx:hr></gpxtpx:TrackPointExtension></extensions>
      </trkpt>
      <trkpt lat="61.1224652799" lon="14.1329791658">
        <ele>235.4</ele>
        <time>2011-05-24T13:38:27Z</time>
        <extensions><gpxtpx:TrackPointExtension><gpxtpx:hr>107</gpxtpx:hr></gpxtpx:TrackPointExtension></extensions>
      </trkpt>
      <trkpt lat="61.1224656152" lon="14.13297816">
        <ele>235.6</ele>
        <time>2011-05-24T13:38:30Z</time>
        <extensions><gpxtpx:TrackPointExtension><gpxtpx:hr>104</gpxtpx:hr></gpxtpx:TrackPointExtension></extensions>
      </trkpt>
      <trkpt lat="61.1224599155" lon="14.1329700295">
        <ele>236</ele>
        <time>2011-05-24T13:38:35Z</time>
        <extensions><gpxtpx:TrackPointExtension><gpxtpx:hr>110</gpxtpx:hr></gpxtpx:TrackPointExtension></extensions>
      </trkpt>
      <trkpt lat="61.1224567304" lon="14.1329653357">
        <ele>236.2</ele>
        <time>2011-05-24T13:38:37Z</time>
        <extensions><gpxtpx:TrackPointExtension><gpxtpx:hr>115</gpxtpx:hr></gpxtpx:TrackPointExtension></extensions>
      </trkpt>
      <trkpt lat="61.1224509469" lon="14.1329564508">
        <ele>236.4</ele>
        <time>2011-05-24T13:38:43Z</time>
        <extensions><gpxtpx:TrackPointExtension><gpxtpx:hr>110</gpxtpx:hr></gpxtpx:TrackPointExtension></extensions>
      </trkpt>
      <trkpt lat="61.1224557246" lon="14.1329442133">
        <ele>237</ele>
        <time>2011-05-24T13:38:57Z</time>
        <extensions><gpxtpx:TrackPointExtension><gpxtpx:hr>113</gpxtpx:hr></gpxtpx:TrackPointExtension></extensions>
      </trkpt>
      <trkpt lat="61.1224423135" lon="14.1329380107">
        <ele>237.6</ele>
        <time>2011-05-24T13:39:01Z</time>
        <extensions><gpxtpx:TrackPointExtension><gpxtpx:hr>111</gpxtpx:hr></gpxtpx:TrackPointExtension></extensions>
      </trkpt>
      <trkpt lat="61.1224259688" lon="14.1328831092">
        <ele>238.2</ele>
        <time>2011-05-24T13:39:11Z</time>
        <extensions><gpxtpx:TrackPointExtension><gpxtpx:hr>113</gpxtpx:hr></gpxtpx:TrackPointExtension></extensions>
      </trkpt>
      <trkpt lat="61.1223917707" lon="14.1326966958">
        <ele>238.2</ele>
        <time>2011-05-24T13:39:15Z</time>
        <extensions><gpxtpx:TrackPointExtension><gpxtpx:hr>113</gpxtpx:hr></gpxtpx:TrackPointExtension></extensions>
      </trkpt>
      <trkpt lat="61.1223434909" lon="14.13249838">
        <ele>238.4</ele>
        <time>2011-05-24T13:39:20Z</time>
        <extensions><gpxtpx:TrackPointExtension><gpxtpx:hr>113</gpxtpx:hr></gpxtpx:TrackPointExtension></extensions>
      </trkpt>
      <trkpt lat="61.1223190996" lon="14.1323775968">
        <ele>238.4</ele>
        <time>2011-05-24T13:39:23Z</time>
        <extensions><gpxtpx:TrackPointExtension><gpxtpx:hr>111</gpxtpx:hr></gpxtpx:TrackPointExtension></extensions>
      </trkpt>
      <trkpt lat="61.1223098795" lon="14.1322308298">
        <ele>238.4</ele>
        <time>2011-05-24T13:39:27Z</time>
        <extensions><gpxtpx:TrackPointExtension><gpxtpx:hr>111</gpxtpx:hr></gpxtpx:TrackPointExtension></extensions>
      </trkpt>
      <trkpt lat="61.1222815487" lon="14.1321157463">
        <ele>238</ele>
        <time>2011-05-24T13:39:31Z</time>
        <extensions><gpxtpx:TrackPointExtension><gpxtpx:hr>112</gpxtpx:hr></gpxtpx:TrackPointExtension></extensions>
      </trkpt>
      <trkpt lat="61.1222097158" lon="14.13175742">
        <ele>237.2</ele>
        <time>2011-05-24T13:39:38Z</time>
        <extensions><gpxtpx:TrackPointExtension><gpxtpx:hr>106</gpxtpx:hr></gpxtpx:TrackPointExtension></extensions>
      </trkpt>
      <trkpt lat="61.1221988193" lon="14.1317079668">
        <ele>237</ele>
        <time>2011-05-24T13:39:40Z</time>
        <extensions><gpxtpx:TrackPointExtension><gpxtpx:hr>103</gpxtpx:hr></gpxtpx:TrackPointExtension></extensions>
      </trkpt>
      <trkpt lat="61.1222004957" lon="14.1316147601">
        <ele>236.4</ele>
        <time>2011-05-24T13:39:43Z</time>
        <extensions><gpxtpx:TrackPointExtension><gpxtpx:hr>103</gpxtpx:hr></gpxtpx:TrackPointExtension></extensions>
      </trkpt>
      <trkpt lat="61.122195718" lon="14.131639822">
        <ele>235.6</ele>
        <time>2011-05-24T13:39:48Z</time>
        <extensions><gpxtpx:TrackPointExtension><gpxtpx:hr>106</gpxtpx:hr></gpxtpx:TrackPointExtension></extensions>
      </trkpt>
      <trkpt lat="61.1222234621" lon="14.1316466113">
        <ele>234.6</ele>
        <time>2011-05-24T13:40:05Z</time>
        <extensions><gpxtpx:TrackPointExtension><gpxtpx:hr>101</gpxtpx:hr></gpxtpx:TrackPointExtension></extensions>
      </trkpt>
      <trkpt lat="61.1222579955" lon="14.1317248145">
        <ele>234.4</ele>
        <time>2011-05-24T13:40:35Z</time>
        <extensions><gpxtpx:TrackPointExtension><gpxtpx:hr>104</gpxtpx:hr></gpxtpx:TrackPointExtension></extensions>
      </trkpt>
      <trkpt lat="61.1222859911" lon="14.1318288338">
        <ele>234.4</ele>
        <time>2011-05-24T13:40:38Z</time>
        <extensions><gpxtpx:TrackPointExtension><gpxtpx:hr>112</gpxtpx:hr></gpxtpx:TrackPointExtension></extensions>
      </trkpt>
      <trkpt lat="61.1223180938" lon="14.1321359466">
        <ele>234.4</ele>
        <time>2011-05-24T13:40:43Z</time>
        <extensions><gpxtpx:TrackPointExtension><gpxtpx:hr>120</gpxtpx:hr></gpxtpx:TrackPointExtension></extensions>
      </trkpt>
      <trkpt lat="61.1223601709" lon="14.1323685444">
        <ele>234.4</ele>
        <time>2011-05-24T13:40:46Z</time>
        <extensions><gpxtpx:TrackPointExtension><gpxtpx:hr>126</gpxtpx:hr></gpxtpx:TrackPointExtension></extensions>
      </trkpt>
      <trkpt lat="61.1224009908" lon="14.1326008906">
        <ele>234.4</ele>
        <time>2011-05-24T13:40:48Z</time>
        <extensions><gpxtpx:TrackPointExtension><gpxtpx:hr>133</gpxtpx:hr></gpxtpx:TrackPointExtension></extensions>
      </trkpt>
      <trkpt lat="61.1224569818" lon="14.1328691114">
        <ele>234.4</ele>
        <time>2011-05-24T13:40:52Z</time>
        <extensions><gpxtpx:TrackPointExtension><gpxtpx:hr>138</gpxtpx:hr></gpxtpx:TrackPointExtension></extensions>
      </trkpt>
      <trkpt lat="61.1224637712" lon="14.1329604741">
        <ele>234.4</ele>
        <time>2011-05-24T13:40:53Z</time>
        <extensions><gpxtpx:TrackPointExtension><gpxtpx:hr>139</gpxtpx:hr></gpxtpx:TrackPointExtension></extensions>
      </trkpt>
      <trkpt lat="61.1224450796" lon="14.1329910681">
        <ele>234.4</ele>
        <time>2011-05-24T13:40:57Z</time>
        <extensions><gpxtpx:TrackPointExtension><gpxtpx:hr>141</gpxtpx:hr></gpxtpx:TrackPointExtension></extensions>
      </trkpt>
      <trkpt lat="61.1224412239" lon="14.1329621505">
        <ele>234.4</ele>
        <time>2011-05-24T13:41:03Z</time>
        <extensions><gpxtpx:TrackPointExtension><gpxtpx:hr>141</gpxtpx:hr></gpxtpx:TrackPointExtension></extensions>
      </trkpt>
      <trkpt lat="61.1224527909" lon="14.1329432913">
        <ele>234.4</ele>
        <time>2011-05-24T13:41:20Z</time>
        <extensions><gpxtpx:TrackPointExtension><gpxtpx:hr>141</gpxtpx:hr></gpxtpx:TrackPointExtension></extensions>
      </trkpt>
      <trkpt lat="61.1224554731" lon="14.1329449676">
        <ele>234.4</ele>
        <time>2011-05-24T13:41:26Z</time>
        <extensions><gpxtpx:TrackPointExtension><gpxtpx:hr>139</gpxtpx:hr></gpxtpx:TrackPointExtension></extensions>
      </trkpt>
      <trkpt lat="61.1224612566" lon="14.1329422016">
        <ele>234.4</ele>
        <time>2011-05-24T13:41:33Z</time>
        <extensions><gpxtpx:TrackPointExtension><gpxtpx:hr>134</gpxtpx:hr></gpxtpx:TrackPointExtension></extensions>
      </trkpt>
      <trkpt lat="61.1224605022" lon="14.1329531819">
        <ele>234.4</ele>
        <time>2011-05-24T13:41:37Z</time>
        <extensions><gpxtpx:TrackPointExtension><gpxtpx:hr>129</gpxtpx:hr></gpxtpx:TrackPointExtension></extensions>
      </trkpt>
      <trkpt lat="61.1224794453" lon="14.1329665091">
        <ele>234.4</ele>
        <time>2011-05-24T13:41:51Z</time>
        <extensions><gpxtpx:TrackPointExtension><gpxtpx:hr>124</gpxtpx:hr></gpxtpx:TrackPointExtension></extensions>
      </trkpt>
      <trkpt lat="61.122479613" lon="14.1330414433">
        <ele>234.4</ele>
        <time>2011-05-24T13:41:57Z</time>
        <extensions><gpxtpx:TrackPointExtension><gpxtpx:hr>121</gpxtpx:hr></gpxtpx:TrackPointExtension></extensions>
      </trkpt>
      <trkpt lat="61.1224709796" lon="14.1331168804">
        <ele>234.4</ele>
        <time>2011-05-24T13:42:00Z</time>
        <extensions><gpxtpx:TrackPointExtension><gpxtpx:hr>120</gpxtpx:hr></gpxtpx:TrackPointExtension></extensions>
      </trkpt>
      <trkpt lat="61.1225060998" lon="14.1332187205">
        <ele>234.4</ele>
        <time>2011-05-24T13:42:05Z</time>
        <extensions><gpxtpx:TrackPointExtension><gpxtpx:hr>126</gpxtpx:hr></gpxtpx:TrackPointExtension></extensions>
      </trkpt>
      <trkpt lat="61.1225177506" lon="14.1332706045">
        <ele>234.4</ele>
        <time>2011-05-24T13:42:06Z</time>
        <extensions><gpxtpx:TrackPointExtension><gpxtpx:hr>126</gpxtpx:hr></gpxtpx:TrackPointExtension></extensions>
      </trkpt>
      <trkpt lat="61.1225311617" lon="14.1333317085">
        <ele>234.4</ele>
        <time>2011-05-24T13:42:07Z</time>
        <extensions><gpxtpx:TrackPointExtension><gpxtpx:hr>124</gpxtpx:hr></gpxtpx:TrackPointExtension></extensions>
      </trkpt>
      <trkpt lat="61.1225937745" lon="14.13361904">
        <ele>234.4</ele>
        <time>2011-05-24T13:42:10Z</time>
        <extensions><gpxtpx:TrackPointExtension><gpxtpx:hr>121</gpxtpx:hr></gpxtpx:TrackPointExtension></extensions>
      </trkpt>
      <trkpt lat="61.1226562196" lon="14.134054815">
        <ele>234.4</ele>
        <time>2011-05-24T13:42:13Z</time>
        <extensions><gpxtpx:TrackPointExtension><gpxtpx:hr>117</gpxtpx:hr></gpxtpx:TrackPointExtension></extensions>
      </trkpt>
      <trkpt lat="61.1226631766" lon="14.1341762687">
        <ele>234.4</ele>
        <time>2011-05-24T13:42:14Z</time>
        <extensions><gpxtpx:TrackPointExtension><gpxtpx:hr>118</gpxtpx:hr></gpxtpx:TrackPointExtension></extensions>
      </trkpt>
      <trkpt lat="61.1226257095" lon="14.134749004">
        <ele>234.2</ele>
        <time>2011-05-24T13:42:19Z</time>
        <extensions><gpxtpx:TrackPointExtension><gpxtpx:hr>114</gpxtpx:hr></gpxtpx:TrackPointExtension></extensions>
      </trkpt>
      <trkpt lat="61.1226094486" lon="14.1348651771">
        <ele>234</ele>
        <time>2011-05-24T13:42:20Z</time>
        <extensions><gpxtpx:TrackPointExtension><gpxtpx:hr>113</gpxtpx:hr></gpxtpx:TrackPointExtension></extensions>
      </trkpt>
      <trkpt lat="61.122503669" lon="14.1352660834">
        <ele>233.4</ele>
        <time>2011-05-24T13:42:24Z</time>
        <extensions><gpxtpx:TrackPointExtension><gpxtpx:hr>111</gpxtpx:hr></gpxtpx:TrackPointExtension></extensions>
      </trkpt>
      <trkpt lat="61.122393028" lon="14.1356336297">
        <ele>233.2</ele>
        <time>2011-05-24T13:42:27Z</time>
        <extensions><gpxtpx:TrackPointExtension><gpxtpx:hr>107</gpxtpx:hr></gpxtpx:TrackPointExtension></extensions>
      </trkpt>
      <trkpt lat="61.1223218656" lon="14.1358114098">
        <ele>232.6</ele>
        <time>2011-05-24T13:42:29Z</time>
        <extensions><gpxtpx:TrackPointExtension><gpxtpx:hr>105</gpxtpx:hr></gpxtpx:TrackPointExtension></extensions>
      </trkpt>
      <trkpt lat="61.1222467638" lon="14.1360870067">
        <ele>232</ele>
        <time>2011-05-24T13:42:32Z</time>
        <extensions><gpxtpx:TrackPointExtension><gpxtpx:hr>103</gpxtpx:hr></gpxtpx:TrackPointExtension></extensions>
      </trkpt>
      <trkpt lat="61.1222260605" lon="14.1362388867">
        <ele>231.6</ele>
        <time>2011-05-24T13:42:33Z</time>
        <extensions><gpxtpx:TrackPointExtension><gpxtpx:hr>103</gpxtpx:hr></gpxtpx:TrackPointExtension></extensions>
      </trkpt>
      <trkpt lat="61.1221978135" lon="14.1366352667">
        <ele>230.6</ele>
        <time>2011-05-24T13:42:38Z</time>
        <extensions><gpxtpx:TrackPointExtension><gpxtpx:hr>107</gpxtpx:hr></gpxtpx:TrackPointExtension></extensions>
      </trkpt>
      <trkpt lat="61.1221554011" lon="14.1370690301">
        <ele>229.6</ele>
        <time>2011-05-24T13:42:44Z</time>
        <extensions><gpxtpx:TrackPointExtension><gpxtpx:hr>103</gpxtpx:hr></gpxtpx:TrackPointExtension></extensions>
      </trkpt>
      <trkpt lat="61.1221121505" lon="14.1374583693">
        <ele>229</ele>
        <time>2011-05-24T13:42:48Z</time>
        <extensions><gpxtpx:TrackPointExtension><gpxtpx:hr>105</gpxtpx:hr></gpxtpx:TrackPointExtension></extensions>
      </trkpt>
      <trkpt lat="61.1220850769" lon="14.1378788054">
        <ele>227.8</ele>
        <time>2011-05-24T13:42:55Z</time>
        <extensions><gpxtpx:TrackPointExtension><gpxtpx:hr>108</gpxtpx:hr></gpxtpx:TrackPointExtension></extensions>
      </trkpt>
      <trkpt lat="61.1220913634" lon="14.1382394786">
        <ele>227.4</ele>
        <time>2011-05-24T13:42:58Z</time>
        <extensions><gpxtpx:TrackPointExtension><gpxtpx:hr>110</gpxtpx:hr></gpxtpx:TrackPointExtension></extensions>
      </trkpt>
      <trkpt lat="61.1221097197" lon="14.1384190189">
        <ele>227.2</ele>
        <time>2011-05-24T13:43:00Z</time>
        <extensions><gpxtpx:TrackPointExtension><gpxtpx:hr>109</gpxtpx:hr></gpxtpx:TrackPointExtension></extensions>
      </trkpt>
      <trkpt lat="61.1221395593" lon="14.1386066896">
        <ele>227</ele>
        <time>2011-05-24T13:43:02Z</time>
        <extensions><gpxtpx:TrackPointExtension><gpxtpx:hr>107</gpxtpx:hr></gpxtpx:TrackPointExtension></extensions>
      </trkpt>
      <trkpt lat="61.1222923613" lon="14.1390634194">
        <ele>226.8</ele>
        <time>2011-05-24T13:43:06Z</time>
        <extensions><gpxtpx:TrackPointExtension><gpxtpx:hr>109</gpxtpx:hr></gpxtpx:TrackPointExtension></extensions>
      </trkpt>
      <trkpt lat="61.1223361987" lon="14.1391708753">
        <ele>226.8</ele>
        <time>2011-05-24T13:43:07Z</time>
        <extensions><gpxtpx:TrackPointExtension><gpxtpx:hr>110</gpxtpx:hr></gpxtpx:TrackPointExtension></extensions>
      </trkpt>
      <trkpt lat="61.1223725761" lon="14.1392881381">
        <ele>226.6</ele>
        <time>2011-05-24T13:43:08Z</time>
        <extensions><gpxtpx:TrackPointExtension><gpxtpx:hr>111</gpxtpx:hr></gpxtpx:TrackPointExtension></extensions>
      </trkpt>
      <trkpt lat="61.122494868" lon="14.139662809">
        <ele>226.2</ele>
        <time>2011-05-24T13:43:11Z</time>
        <extensions><gpxtpx:TrackPointExtension><gpxtpx:hr>113</gpxtpx:hr></gpxtpx:TrackPointExtension></extensions>
      </trkpt>
      <trkpt lat="61.1225297367" lon="14.1397932314">
        <ele>226</ele>
        <time>2011-05-24T13:43:12Z</time>
        <extensions><gpxtpx:TrackPointExtension><gpxtpx:hr>113</gpxtpx:hr></gpxtpx:TrackPointExtension></extensions>
      </trkpt>
      <trkpt lat="61.1226107897" lon="14.140185169">
        <ele>225.6</ele>
        <time>2011-05-24T13:43:15Z</time>
        <extensions><gpxtpx:TrackPointExtension><gpxtpx:hr>113</gpxtpx:hr></gpxtpx:TrackPointExtension></extensions>
      </trkpt>
      <trkpt lat="61.1226888252" lon="14.1405229596">
        <ele>225.2</ele>
        <time>2011-05-24T13:43:18Z</time>
        <extensions><gpxtpx:TrackPointExtension><gpxtpx:hr>114</gpxtpx:hr></gpxtpx:TrackPointExtension></extensions>
      </trkpt>
      <trkpt lat="61.1227861391" lon="14.140952532">
        <ele>224.8</ele>
        <time>2011-05-24T13:43:22Z</time>
        <extensions><gpxtpx:TrackPointExtension><gpxtpx:hr>118</gpxtpx:hr></gpxtpx:TrackPointExtension></extensions>
      </trkpt>
      <trkpt lat="61.1228612409" lon="14.1413042365">
        <ele>224.6</ele>
        <time>2011-05-24T13:43:25Z</time>
        <extensions><gpxtpx:TrackPointExtension><gpxtpx:hr>119</gpxtpx:hr></gpxtpx:TrackPointExtension></extensions>
      </trkpt>
      <trkpt lat="61.1229252786" lon="14.1416587909">
        <ele>224.2</ele>
        <time>2011-05-24T13:43:28Z</time>
        <extensions><gpxtpx:TrackPointExtension><gpxtpx:hr>120</gpxtpx:hr></gpxtpx:TrackPointExtension></extensions>
      </trkpt>
      <trkpt lat="61.1229689483" lon="14.1420487169">
        <ele>223.6</ele>
        <time>2011-05-24T13:43:31Z</time>
        <extensions><gpxtpx:TrackPointExtension><gpxtpx:hr>121</gpxtpx:hr></gpxtpx:TrackPointExtension></extensions>
      </trkpt>
      <trkpt lat="61.1229956027" lon="14.1424945501">
        <ele>223.2</ele>
        <time>2011-05-24T13:43:35Z</time>
        <extensions><gpxtpx:TrackPointExtension><gpxtpx:hr>123</gpxtpx:hr></gpxtpx:TrackPointExtension></extensions>
      </trkpt>
      <trkpt lat="61.1229971953" lon="14.1426947099">
        <ele>223</ele>
        <time>2011-05-24T13:43:37Z</time>
        <extensions><gpxtpx:TrackPointExtension><gpxtpx:hr>124</gpxtpx:hr></gpxtpx:TrackPointExtension></extensions>
      </trkpt>
      <trkpt lat="61.1230049905" lon="14.1431578099">
        <ele>222.6</ele>
        <time>2011-05-24T13:43:43Z</time>
        <extensions><gpxtpx:TrackPointExtension><gpxtpx:hr>125</gpxtpx:hr></gpxtpx:TrackPointExtension></extensions>
      </trkpt>
      <trkpt lat="61.1230000451" lon="14.1435833589">
        <ele>221.6</ele>
        <time>2011-05-24T13:43:48Z</time>
        <extensions><gpxtpx:TrackPointExtension><gpxtpx:hr>124</gpxtpx:hr></gpxtpx:TrackPointExtension></extensions>
      </trkpt>
      <trkpt lat="61.1229918309" lon="14.1440312039">
        <ele>221</ele>
        <time>2011-05-24T13:43:52Z</time>
        <extensions><gpxtpx:TrackPointExtension><gpxtpx:hr>123</gpxtpx:hr></gpxtpx:TrackPointExtension></extensions>
      </trkpt>
      <trkpt lat="61.1230051581" lon="14.1445659691">
        <ele>220.6</ele>
        <time>2011-05-24T13:43:57Z</time>
        <extensions><gpxtpx:TrackPointExtension><gpxtpx:hr>118</gpxtpx:hr></gpxtpx:TrackPointExtension></extensions>
      </trkpt>
      <trkpt lat="61.1230097682" lon="14.1450177535">
        <ele>220.4</ele>
        <time>2011-05-24T13:44:01Z</time>
        <extensions><gpxtpx:TrackPointExtension><gpxtpx:hr>116</gpxtpx:hr></gpxtpx:TrackPointExtension></extensions>
      </trkpt>
      <trkpt lat="61.123012618" lon="14.1455799275">
        <ele>220.2</ele>
        <time>2011-05-24T13:44:05Z</time>
        <extensions><gpxtpx:TrackPointExtension><gpxtpx:hr>113</gpxtpx:hr></gpxtpx:TrackPointExtension></extensions>
      </trkpt>
      <trkpt lat="61.123001051" lon="14.1460036326">
        <ele>219.4</ele>
        <time>2011-05-24T13:44:08Z</time>
        <extensions><gpxtpx:TrackPointExtension><gpxtpx:hr>112</gpxtpx:hr></gpxtpx:TrackPointExtension></extensions>
      </trkpt>
      <trkpt lat="61.1229842872" lon="14.1464558361">
        <ele>219</ele>
        <time>2011-05-24T13:44:13Z</time>
        <extensions><gpxtpx:TrackPointExtension><gpxtpx:hr>112</gpxtpx:hr></gpxtpx:TrackPointExtension></extensions>
      </trkpt>
      <trkpt lat="61.1229614884" lon="14.1468469355">
        <ele>218.6</ele>
        <time>2011-05-24T13:44:17Z</time>
        <extensions><gpxtpx:TrackPointExtension><gpxtpx:hr>114</gpxtpx:hr></gpxtpx:TrackPointExtension></extensions>
      </trkpt>
      <trkpt lat="61.1229368456" lon="14.147220433">
        <ele>218.4</ele>
        <time>2011-05-24T13:44:21Z</time>
        <extensions><gpxtpx:TrackPointExtension><gpxtpx:hr>115</gpxtpx:hr></gpxtpx:TrackPointExtension></extensions>
      </trkpt>
      <trkpt lat="61.1229205847" lon="14.1475961936">
        <ele>218.2</ele>
        <time>2011-05-24T13:44:26Z</time>
        <extensions><gpxtpx:TrackPointExtension><gpxtpx:hr>113</gpxtpx:hr></gpxtpx:TrackPointExtension></extensions>
      </trkpt>
      <trkpt lat="61.1229050782" lon="14.1476789229">
        <ele>218.2</ele>
        <time>2011-05-24T13:44:27Z</time>
        <extensions><gpxtpx:TrackPointExtension><gpxtpx:hr>112</gpxtpx:hr></gpxtpx:TrackPointExtension></extensions>
      </trkpt>
      <trkpt lat="61.1228967801" lon="14.1479566991">
        <ele>218.2</ele>
        <time>2011-05-24T13:44:31Z</time>
        <extensions><gpxtpx:TrackPointExtension><gpxtpx:hr>111</gpxtpx:hr></gpxtpx:TrackPointExtension></extensions>
      </trkpt>
      <trkpt lat="61.1228806031" lon="14.1483428532">
        <ele>217.6</ele>
        <time>2011-05-24T13:44:36Z</time>
        <extensions><gpxtpx:TrackPointExtension><gpxtpx:hr>110</gpxtpx:hr></gpxtpx:TrackPointExtension></extensions>
      </trkpt>
      <trkpt lat="61.1228692875" lon="14.1486996707">
        <ele>217</ele>
        <time>2011-05-24T13:44:40Z</time>
        <extensions><gpxtpx:TrackPointExtension><gpxtpx:hr>105</gpxtpx:hr></gpxtpx:TrackPointExtension></extensions>
      </trkpt>
      <trkpt lat="61.1228518532" lon="14.1490883394">
        <ele>216.6</ele>
        <time>2011-05-24T13:44:44Z</time>
        <extensions><gpxtpx:TrackPointExtension><gpxtpx:hr>104</gpxtpx:hr></gpxtpx:TrackPointExtension></extensions>
      </trkpt>
      <trkpt lat="61.1228340835" lon="14.1495306523">
        <ele>216.4</ele>
        <time>2011-05-24T13:44:48Z</time>
        <extensions><gpxtpx:TrackPointExtension><gpxtpx:hr>109</gpxtpx:hr></gpxtpx:TrackPointExtension></extensions>
      </trkpt>
      <trkpt lat="61.122819499" lon="14.1500028885">
        <ele>216.2</ele>
        <time>2011-05-24T13:44:52Z</time>
        <extensions><gpxtpx:TrackPointExtension><gpxtpx:hr>111</gpxtpx:hr></gpxtpx:TrackPointExtension></extensions>
      </trkpt>
      <trkpt lat="61.1228131288" lon="14.1503554312">
        <ele>216.2</ele>
        <time>2011-05-24T13:44:55Z</time>
        <extensions><gpxtpx:TrackPointExtension><gpxtpx:hr>112</gpxtpx:hr></gpxtpx:TrackPointExtension></extensions>
      </trkpt>
      <trkpt lat="61.1228004721" lon="14.1507801421">
        <ele>216.2</ele>
        <time>2011-05-24T13:44:59Z</time>
        <extensions><gpxtpx:TrackPointExtension><gpxtpx:hr>114</gpxtpx:hr></gpxtpx:TrackPointExtension></extensions>
      </trkpt>
      <trkpt lat="61.1227896595" lon="14.1513330122">
        <ele>216</ele>
        <time>2011-05-24T13:45:03Z</time>
        <extensions><gpxtpx:TrackPointExtension><gpxtpx:hr>117</gpxtpx:hr></gpxtpx:TrackPointExtension></extensions>
      </trkpt>
      <trkpt lat="61.122784295" lon="14.1517065097">
        <ele>216</ele>
        <time>2011-05-24T13:45:08Z</time>
        <extensions><gpxtpx:TrackPointExtension><gpxtpx:hr>118</gpxtpx:hr></gpxtpx:TrackPointExtension></extensions>
      </trkpt>
      <trkpt lat="61.122780607" lon="14.1517745707">
        <ele>216</ele>
        <time>2011-05-24T13:45:09Z</time>
        <extensions><gpxtpx:TrackPointExtension><gpxtpx:hr>118</gpxtpx:hr></gpxtpx:TrackPointExtension></extensions>
      </trkpt>
      <trkpt lat="61.1227469118" lon="14.1519139617">
        <ele>216</ele>
        <time>2011-05-24T13:45:12Z</time>
        <extensions><gpxtpx:TrackPointExtension><gpxtpx:hr>118</gpxtpx:hr></gpxtpx:TrackPointExtension></extensions>
      </trkpt>
      <trkpt lat="61.1227099476" lon="14.1520130358">
        <ele>216</ele>
        <time>2011-05-24T13:45:15Z</time>
        <extensions><gpxtpx:TrackPointExtension><gpxtpx:hr>116</gpxtpx:hr></gpxtpx:TrackPointExtension></extensions>
      </trkpt>
      <trkpt lat="61.1225858117" lon="14.1519142132">
        <ele>216</ele>
        <time>2011-05-24T13:45:20Z</time>
        <extensions><gpxtpx:TrackPointExtension><gpxtpx:hr>115</gpxtpx:hr></gpxtpx:TrackPointExtension></extensions>
      </trkpt>
      <trkpt lat="61.1225457462" lon="14.1518999639">
        <ele>216</ele>
        <time>2011-05-24T13:45:21Z</time>
        <extensions><gpxtpx:TrackPointExtension><gpxtpx:hr>115</gpxtpx:hr></gpxtpx:TrackPointExtension></extensions>
      </trkpt>
      <trkpt lat="61.1223336003" lon="14.1518315676">
        <ele>216</ele>
        <time>2011-05-24T13:45:25Z</time>
        <extensions><gpxtpx:TrackPointExtension><gpxtpx:hr>114</gpxtpx:hr></gpxtpx:TrackPointExtension></extensions>
      </trkpt>
      <trkpt lat="61.1221502043" lon="14.151791586">
        <ele>216</ele>
        <time>2011-05-24T13:45:29Z</time>
        <extensions><gpxtpx:TrackPointExtension><gpxtpx:hr>112</gpxtpx:hr></gpxtpx:TrackPointExtension></extensions>
      </trkpt>
      <trkpt lat="61.1219326102" lon="14.15179343">
        <ele>215.8</ele>
        <time>2011-05-24T13:45:33Z</time>
        <extensions><gpxtpx:TrackPointExtension><gpxtpx:hr>107</gpxtpx:hr></gpxtpx:TrackPointExtension></extensions>
      </trkpt>
      <trkpt lat="61.1217167763" lon="14.151860569">
        <ele>215.2</ele>
        <time>2011-05-24T13:45:37Z</time>
        <extensions><gpxtpx:TrackPointExtension><gpxtpx:hr>108</gpxtpx:hr></gpxtpx:TrackPointExtension></extensions>
      </trkpt>
      <trkpt lat="61.121509911" lon="14.1518946833">
        <ele>214.8</ele>
        <time>2011-05-24T13:45:41Z</time>
        <extensions><gpxtpx:TrackPointExtension><gpxtpx:hr>114</gpxtpx:hr></gpxtpx:TrackPointExtension></extensions>
      </trkpt>
      <trkpt lat="61.1214564344" lon="14.1518883969">
        <ele>214.6</ele>
        <time>2011-05-24T13:45:42Z</time>
        <extensions><gpxtpx:TrackPointExtension><gpxtpx:hr>114</gpxtpx:hr></gpxtpx:TrackPointExtension></extensions>
      </trkpt>
      <trkpt lat="61.1212629802" lon="14.1518012252">
        <ele>214.4</ele>
        <time>2011-05-24T13:45:46Z</time>
        <extensions><gpxtpx:TrackPointExtension><gpxtpx:hr>118</gpxtpx:hr></gpxtpx:TrackPointExtension></extensions>
      </trkpt>
      <trkpt lat="61.1210819312" lon="14.1517009776">
        <ele>214.2</ele>
        <time>2011-05-24T13:45:50Z</time>
        <extensions><gpxtpx:TrackPointExtension><gpxtpx:hr>121</gpxtpx:hr></gpxtpx:TrackPointExtension></extensions>
      </trkpt>
      <trkpt lat="61.1208945957" lon="14.1515974612">
        <ele>213.4</ele>
        <time>2011-05-24T13:45:54Z</time>
        <extensions><gpxtpx:TrackPointExtension><gpxtpx:hr>121</gpxtpx:hr></gpxtpx:TrackPointExtension></extensions>
      </trkpt>
      <trkpt lat="61.1207127923" lon="14.1515082777">
        <ele>212.8</ele>
        <time>2011-05-24T13:45:58Z</time>
        <extensions><gpxtpx:TrackPointExtension><gpxtpx:hr>123</gpxtpx:hr></gpxtpx:TrackPointExtension></extensions>
      </trkpt>
      <trkpt lat="61.1205071005" lon="14.1514047613">
        <ele>212.4</ele>
        <time>2011-05-24T13:46:03Z</time>
        <extensions><gpxtpx:TrackPointExtension><gpxtpx:hr>127</gpxtpx:hr></gpxtpx:TrackPointExtension></extensions>
      </trkpt>
      <trkpt lat="61.120339211" lon="14.1513638576">
        <ele>212.2</ele>
        <time>2011-05-24T13:46:07Z</time>
        <extensions><gpxtpx:TrackPointExtension><gpxtpx:hr>131</gpxtpx:hr></gpxtpx:TrackPointExtension></extensions>
      </trkpt>
      <trkpt lat="61.1200892627" lon="14.1513007419">
        <ele>212</ele>
        <time>2011-05-24T13:46:13Z</time>
        <extensions><gpxtpx:TrackPointExtension><gpxtpx:hr>136</gpxtpx:hr></gpxtpx:TrackPointExtension></extensions>
      </trkpt>
      <trkpt lat="61.1198818945" lon="14.1512614308">
        <ele>212</ele>
        <time>2011-05-24T13:46:19Z</time>
        <extensions><gpxtpx:TrackPointExtension><gpxtpx:hr>139</gpxtpx:hr></gpxtpx:TrackPointExtension></extensions>
      </trkpt>
      <trkpt lat="61.1196949782" lon="14.15121642">
        <ele>212</ele>
        <time>2011-05-24T13:46:24Z</time>
        <extensions><gpxtpx:TrackPointExtension><gpxtpx:hr>140</gpxtpx:hr></gpxtpx:TrackPointExtension></extensions>
      </trkpt>
      <trkpt lat="61.1195105764" lon="14.151180294">
        <ele>211.8</ele>
        <time>2011-05-24T13:46:29Z</time>
        <extensions><gpxtpx:TrackPointExtension><gpxtpx:hr>140</gpxtpx:hr></gpxtpx:TrackPointExtension></extensions>
      </trkpt>
      <trkpt lat="61.1193024538" lon="14.1511528014">
        <ele>211.8</ele>
        <time>2011-05-24T13:46:35Z</time>
        <extensions><gpxtpx:TrackPointExtension><gpxtpx:hr>141</gpxtpx:hr></gpxtpx:TrackPointExtension></extensions>
      </trkpt>
      <trkpt lat="61.1191116817" lon="14.1511427431">
        <ele>211.8</ele>
        <time>2011-05-24T13:46:41Z</time>
        <extensions><gpxtpx:TrackPointExtension><gpxtpx:hr>143</gpxtpx:hr></gpxtpx:TrackPointExtension></extensions>
      </trkpt>
      <trkpt lat="61.11898654" lon="14.151181216">
        <ele>211.8</ele>
        <time>2011-05-24T13:46:47Z</time>
        <extensions><gpxtpx:TrackPointExtension><gpxtpx:hr>146</gpxtpx:hr></gpxtpx:TrackPointExtension></extensions>
      </trkpt>
      <trkpt lat="61.1189649147" lon="14.151188173">
        <ele>212.2</ele>
        <time>2011-05-24T13:46:53Z</time>
        <extensions><gpxtpx:TrackPointExtension><gpxtpx:hr>144</gpxtpx:hr></gpxtpx:TrackPointExtension></extensions>
      </trkpt>
      <trkpt lat="61.1189562813" lon="14.1511857422">
        <ele>214.2</ele>
        <time>2011-05-24T13:47:04Z</time>
        <extensions><gpxtpx:TrackPointExtension><gpxtpx:hr>139</gpxtpx:hr></gpxtpx:TrackPointExtension></extensions>
      </trkpt>
      <trkpt lat="61.1189338178" lon="14.1511883406">
        <ele>214.6</ele>
        <time>2011-05-24T13:47:07Z</time>
        <extensions><gpxtpx:TrackPointExtension><gpxtpx:hr>137</gpxtpx:hr></gpxtpx:TrackPointExtension></extensions>
      </trkpt>
      <trkpt lat="61.1188891423" lon="14.1513932781">
        <ele>215.2</ele>
        <time>2011-05-24T13:47:11Z</time>
        <extensions><gpxtpx:TrackPointExtension><gpxtpx:hr>134</gpxtpx:hr></gpxtpx:TrackPointExtension></extensions>
      </trkpt>
      <trkpt lat="61.1188738872" lon="14.1518355071">
        <ele>216.4</ele>
        <time>2011-05-24T13:47:17Z</time>
        <extensions><gpxtpx:TrackPointExtension><gpxtpx:hr>134</gpxtpx:hr></gpxtpx:TrackPointExtension></extensions>
      </trkpt>
      <trkpt lat="61.1188575425" lon="14.1522479804">
        <ele>217</ele>
        <time>2011-05-24T13:47:22Z</time>
        <extensions><gpxtpx:TrackPointExtension><gpxtpx:hr>135</gpxtpx:hr></gpxtpx:TrackPointExtension></extensions>
      </trkpt>
      <trkpt lat="61.1188346599" lon="14.1526914668">
        <ele>217.4</ele>
        <time>2011-05-24T13:47:27Z</time>
        <extensions><gpxtpx:TrackPointExtension><gpxtpx:hr>137</gpxtpx:hr></gpxtpx:TrackPointExtension></extensions>
      </trkpt>
      <trkpt lat="61.1187940915" lon="14.1531331929">
        <ele>218.6</ele>
        <time>2011-05-24T13:47:32Z</time>
        <extensions><gpxtpx:TrackPointExtension><gpxtpx:hr>138</gpxtpx:hr></gpxtpx:TrackPointExtension></extensions>
      </trkpt>
      <trkpt lat="61.1187550319" lon="14.1535553892">
        <ele>219.2</ele>
        <time>2011-05-24T13:47:37Z</time>
        <extensions><gpxtpx:TrackPointExtension><gpxtpx:hr>140</gpxtpx:hr></gpxtpx:TrackPointExtension></extensions>
      </trkpt>
      <trkpt lat="61.1187072551" lon="14.153931988">
        <ele>220</ele>
        <time>2011-05-24T13:47:41Z</time>
        <extensions><gpxtpx:TrackPointExtension><gpxtpx:hr>140</gpxtpx:hr></gpxtpx:TrackPointExtension></extensions>
      </trkpt>
      <trkpt lat="61.1186550358" lon="14.1543308826">
        <ele>220.8</ele>
        <time>2011-05-24T13:47:46Z</time>
        <extensions><gpxtpx:TrackPointExtension><gpxtpx:hr>140</gpxtpx:hr></gpxtpx:TrackPointExtension></extensions>
      </trkpt>
      <trkpt lat="61.1186016431" lon="14.1547240775">
        <ele>221.4</ele>
        <time>2011-05-24T13:47:50Z</time>
        <extensions><gpxtpx:TrackPointExtension><gpxtpx:hr>140</gpxtpx:hr></gpxtpx:TrackPointExtension></extensions>
      </trkpt>
      <trkpt lat="61.1185334983" lon="14.155159601">
        <ele>221.6</ele>
        <time>2011-05-24T13:47:55Z</time>
        <extensions><gpxtpx:TrackPointExtension><gpxtpx:hr>141</gpxtpx:hr></gpxtpx:TrackPointExtension></extensions>
      </trkpt>
      <trkpt lat="61.1184443149" lon="14.1556983896">
        <ele>222.6</ele>
        <time>2011-05-24T13:48:01Z</time>
        <extensions><gpxtpx:TrackPointExtension><gpxtpx:hr>142</gpxtpx:hr></gpxtpx:TrackPointExtension></extensions>
      </trkpt>
      <trkpt lat="61.1184024054" lon="14.1559165704">
        <ele>223</ele>
        <time>2011-05-24T13:48:04Z</time>
        <extensions><gpxtpx:TrackPointExtension><gpxtpx:hr>142</gpxtpx:hr></gpxtpx:TrackPointExtension></extensions>
      </trkpt>
      <trkpt lat="61.1182869866" lon="14.1564610586">
        <ele>223.6</ele>
        <time>2011-05-24T13:48:10Z</time>
        <extensions><gpxtpx:TrackPointExtension><gpxtpx:hr>140</gpxtpx:hr></gpxtpx:TrackPointExtension></extensions>
      </trkpt>
      <trkpt lat="61.1182083644" lon="14.15682257">
        <ele>223.8</ele>
        <time>2011-05-24T13:48:14Z</time>
        <extensions><gpxtpx:TrackPointExtension><gpxtpx:hr>140</gpxtpx:hr></gpxtpx:TrackPointExtension></extensions>
      </trkpt>
      <trkpt lat="61.1181134813" lon="14.1572176089">
        <ele>224</ele>
        <time>2011-05-24T13:48:18Z</time>
        <extensions><gpxtpx:TrackPointExtension><gpxtpx:hr>140</gpxtpx:hr></gpxtpx:TrackPointExtension></extensions>
      </trkpt>
      <trkpt lat="61.1180140719" lon="14.1576221194">
        <ele>224</ele>
        <time>2011-05-24T13:48:22Z</time>
        <extensions><gpxtpx:TrackPointExtension><gpxtpx:hr>139</gpxtpx:hr></gpxtpx:TrackPointExtension></extensions>
      </trkpt>
      <trkpt lat="61.117920027" lon="14.1580023224">
        <ele>224.2</ele>
        <time>2011-05-24T13:48:25Z</time>
        <extensions><gpxtpx:TrackPointExtension><gpxtpx:hr>140</gpxtpx:hr></gpxtpx:TrackPointExtension></extensions>
      </trkpt>
      <trkpt lat="61.117825563" lon="14.1583910749">
        <ele>224.2</ele>
        <time>2011-05-24T13:48:29Z</time>
        <extensions><gpxtpx:TrackPointExtension><gpxtpx:hr>140</gpxtpx:hr></gpxtpx:TrackPointExtension></extensions>
      </trkpt>
      <trkpt lat="61.1177344518" lon="14.1587473057">
        <ele>224.2</ele>
        <time>2011-05-24T13:48:33Z</time>
        <extensions><gpxtpx:TrackPointExtension><gpxtpx:hr>139</gpxtpx:hr></gpxtpx:TrackPointExtension></extensions>
      </trkpt>
      <trkpt lat="61.1176549075" lon="14.1591003513">
        <ele>224.2</ele>
        <time>2011-05-24T13:48:36Z</time>
        <extensions><gpxtpx:TrackPointExtension><gpxtpx:hr>138</gpxtpx:hr></gpxtpx:TrackPointExtension></extensions>
      </trkpt>
      <trkpt lat="61.117573184" lon="14.1594728429">
        <ele>224.6</ele>
        <time>2011-05-24T13:48:40Z</time>
        <extensions><gpxtpx:TrackPointExtension><gpxtpx:hr>137</gpxtpx:hr></gpxtpx:TrackPointExtension></extensions>
      </trkpt>
      <trkpt lat="61.1174989204" lon="14.1598693068">
        <ele>225.2</ele>
        <time>2011-05-24T13:48:44Z</time>
        <extensions><gpxtpx:TrackPointExtension><gpxtpx:hr>135</gpxtpx:hr></gpxtpx:TrackPointExtension></extensions>
      </trkpt>
      <trkpt lat="61.1174395765" lon="14.1602345062">
        <ele>225.6</ele>
        <time>2011-05-24T13:48:48Z</time>
        <extensions><gpxtpx:TrackPointExtension><gpxtpx:hr>132</gpxtpx:hr></gpxtpx:TrackPointExtension></extensions>
      </trkpt>
      <trkpt lat="61.1174178674" lon="14.1603112844">
        <ele>225.6</ele>
        <time>2011-05-24T13:48:49Z</time>
        <extensions><gpxtpx:TrackPointExtension><gpxtpx:hr>131</gpxtpx:hr></gpxtpx:TrackPointExtension></extensions>
      </trkpt>
      <trkpt lat="61.1172723576" lon="14.1603167326">
        <ele>226</ele>
        <time>2011-05-24T13:48:58Z</time>
        <extensions><gpxtpx:TrackPointExtension><gpxtpx:hr>126</gpxtpx:hr></gpxtpx:TrackPointExtension></extensions>
      </trkpt>
      <trkpt lat="61.1172739502" lon="14.1603196663">
        <ele>226.2</ele>
        <time>2011-05-24T13:49:05Z</time>
        <extensions><gpxtpx:TrackPointExtension><gpxtpx:hr>121</gpxtpx:hr></gpxtpx:TrackPointExtension></extensions>
      </trkpt>
      <trkpt lat="61.1172687534" lon="14.1604065866">
        <ele>227.4</ele>
        <time>2011-05-24T13:49:14Z</time>
        <extensions><gpxtpx:TrackPointExtension><gpxtpx:hr>118</gpxtpx:hr></gpxtpx:TrackPointExtension></extensions>
      </trkpt>
      <trkpt lat="61.1172642272" lon="14.1603878111">
        <ele>227.8</ele>
        <time>2011-05-24T13:49:20Z</time>
        <extensions><gpxtpx:TrackPointExtension><gpxtpx:hr>115</gpxtpx:hr></gpxtpx:TrackPointExtension></extensions>
      </trkpt>
      <trkpt lat="61.1172646463" lon="14.1603868891">
        <ele>228</ele>
        <time>2011-05-24T13:49:27Z</time>
        <extensions><gpxtpx:TrackPointExtension><gpxtpx:hr>110</gpxtpx:hr></gpxtpx:TrackPointExtension></extensions>
      </trkpt>
      <trkpt lat="61.1172659035" lon="14.1603852966">
        <ele>228.2</ele>
        <time>2011-05-24T13:49:33Z</time>
        <extensions><gpxtpx:TrackPointExtension><gpxtpx:hr>105</gpxtpx:hr></gpxtpx:TrackPointExtension></extensions>
      </trkpt>
      <trkpt lat="61.1172802366" lon="14.1603899066">
        <ele>228.2</ele>
        <time>2011-05-24T13:49:48Z</time>
        <extensions><gpxtpx:TrackPointExtension><gpxtpx:hr>105</gpxtpx:hr></gpxtpx:TrackPointExtension></extensions>
      </trkpt>
      <trkpt lat="61.1173495549" lon="14.1614499655">
        <ele>229</ele>
        <time>2011-05-24T13:58:01Z</time>
        <extensions><gpxtpx:TrackPointExtension><gpxtpx:hr>102</gpxtpx:hr></gpxtpx:TrackPointExtension></extensions>
      </trkpt>
      <trkpt lat="61.1172981739" lon="14.1619538853">
        <ele>229</ele>
        <time>2011-05-24T13:58:05Z</time>
        <extensions><gpxtpx:TrackPointExtension><gpxtpx:hr>106</gpxtpx:hr></gpxtpx:TrackPointExtension></extensions>
      </trkpt>
      <trkpt lat="61.1172645624" lon="14.162349511">
        <ele>229</ele>
        <time>2011-05-24T13:58:08Z</time>
        <extensions><gpxtpx:TrackPointExtension><gpxtpx:hr>109</gpxtpx:hr></gpxtpx:TrackPointExtension></extensions>
      </trkpt>
      <trkpt lat="61.1172297776" lon="14.1627411134">
        <ele>229.6</ele>
        <time>2011-05-24T13:58:11Z</time>
        <extensions><gpxtpx:TrackPointExtension><gpxtpx:hr>111</gpxtpx:hr></gpxtpx:TrackPointExtension></extensions>
      </trkpt>
      <trkpt lat="61.1171930648" lon="14.163146965">
        <ele>230</ele>
        <time>2011-05-24T13:58:14Z</time>
        <extensions><gpxtpx:TrackPointExtension><gpxtpx:hr>112</gpxtpx:hr></gpxtpx:TrackPointExtension></extensions>
      </trkpt>
      <trkpt lat="61.1171436954" lon="14.1636779584">
        <ele>230.4</ele>
        <time>2011-05-24T13:58:18Z</time>
        <extensions><gpxtpx:TrackPointExtension><gpxtpx:hr>114</gpxtpx:hr></gpxtpx:TrackPointExtension></extensions>
      </trkpt>
      <trkpt lat="61.1171044681" lon="14.1640782779">
        <ele>230.6</ele>
        <time>2011-05-24T13:58:21Z</time>
        <extensions><gpxtpx:TrackPointExtension><gpxtpx:hr>115</gpxtpx:hr></gpxtpx:TrackPointExtension></extensions>
      </trkpt>
      <trkpt lat="61.1170657438" lon="14.164492679">
        <ele>230.8</ele>
        <time>2011-05-24T13:58:24Z</time>
        <extensions><gpxtpx:TrackPointExtension><gpxtpx:hr>116</gpxtpx:hr></gpxtpx:TrackPointExtension></extensions>
      </trkpt>
      <trkpt lat="61.1170246725" lon="14.1648873827">
        <ele>230.8</ele>
        <time>2011-05-24T13:58:27Z</time>
        <extensions><gpxtpx:TrackPointExtension><gpxtpx:hr>118</gpxtpx:hr></gpxtpx:TrackPointExtension></extensions>
      </trkpt>
      <trkpt lat="61.116979494" lon="14.1653101657">
        <ele>231</ele>
        <time>2011-05-24T13:58:30Z</time>
        <extensions><gpxtpx:TrackPointExtension><gpxtpx:hr>120</gpxtpx:hr></gpxtpx:TrackPointExtension></extensions>
      </trkpt>
      <trkpt lat="61.1169364111" lon="14.1657212979">
        <ele>231</ele>
        <time>2011-05-24T13:58:33Z</time>
        <extensions><gpxtpx:TrackPointExtension><gpxtpx:hr>121</gpxtpx:hr></gpxtpx:TrackPointExtension></extensions>
      </trkpt>
      <trkpt lat="61.1168927414" lon="14.1661242159">
        <ele>231</ele>
        <time>2011-05-24T13:58:36Z</time>
        <extensions><gpxtpx:TrackPointExtension><gpxtpx:hr>123</gpxtpx:hr></gpxtpx:TrackPointExtension></extensions>
      </trkpt>
      <trkpt lat="61.1168458865" lon="14.1665944405">
        <ele>231</ele>
        <time>2011-05-24T13:58:39Z</time>
        <extensions><gpxtpx:TrackPointExtension><gpxtpx:hr>124</gpxtpx:hr></gpxtpx:TrackPointExtension></extensions>
      </trkpt>
      <trkpt lat="61.1167991993" lon="14.1670510026">
        <ele>231</ele>
        <time>2011-05-24T13:58:42Z</time>
        <extensions><gpxtpx:TrackPointExtension><gpxtpx:hr>126</gpxtpx:hr></gpxtpx:TrackPointExtension></extensions>
      </trkpt>
      <trkpt lat="61.1167478183" lon="14.1675429363">
        <ele>231</ele>
        <time>2011-05-24T13:58:45Z</time>
        <extensions><gpxtpx:TrackPointExtension><gpxtpx:hr>128</gpxtpx:hr></gpxtpx:TrackPointExtension></extensions>
      </trkpt>
      <trkpt lat="61.1166950962" lon="14.1680165974">
        <ele>231.2</ele>
        <time>2011-05-24T13:58:48Z</time>
        <extensions><gpxtpx:TrackPointExtension><gpxtpx:hr>129</gpxtpx:hr></gpxtpx:TrackPointExtension></extensions>
      </trkpt>
      <trkpt lat="61.1166388536" lon="14.1684944496">
        <ele>231.2</ele>
        <time>2011-05-24T13:58:51Z</time>
        <extensions><gpxtpx:TrackPointExtension><gpxtpx:hr>130</gpxtpx:hr></gpxtpx:TrackPointExtension></extensions>
      </trkpt>
      <trkpt lat="61.1165821081" lon="14.168967524">
        <ele>231.2</ele>
        <time>2011-05-24T13:58:54Z</time>
        <extensions><gpxtpx:TrackPointExtension><gpxtpx:hr>131</gpxtpx:hr></gpxtpx:TrackPointExtension></extensions>
      </trkpt>
      <trkpt lat="61.1165262009" lon="14.1694131058">
        <ele>231.2</ele>
        <time>2011-05-24T13:58:57Z</time>
        <extensions><gpxtpx:TrackPointExtension><gpxtpx:hr>131</gpxtpx:hr></gpxtpx:TrackPointExtension></extensions>
      </trkpt>
      <trkpt lat="61.1164672761" lon="14.1698785527">
        <ele>231.2</ele>
        <time>2011-05-24T13:59:00Z</time>
        <extensions><gpxtpx:TrackPointExtension><gpxtpx:hr>131</gpxtpx:hr></gpxtpx:TrackPointExtension></extensions>
      </trkpt>
      <trkpt lat="61.1164121232" lon="14.170329918">
        <ele>231.2</ele>
        <time>2011-05-24T13:59:03Z</time>
        <extensions><gpxtpx:TrackPointExtension><gpxtpx:hr>132</gpxtpx:hr></gpxtpx:TrackPointExtension></extensions>
      </trkpt>
      <trkpt lat="61.116355713" lon="14.1707887432">
        <ele>231.2</ele>
        <time>2011-05-24T13:59:06Z</time>
        <extensions><gpxtpx:TrackPointExtension><gpxtpx:hr>132</gpxtpx:hr></gpxtpx:TrackPointExtension></extensions>
      </trkpt>
      <trkpt lat="61.1162971235" lon="14.1712381807">
        <ele>231.2</ele>
        <time>2011-05-24T13:59:09Z</time>
        <extensions><gpxtpx:TrackPointExtension><gpxtpx:hr>133</gpxtpx:hr></gpxtpx:TrackPointExtension></extensions>
      </trkpt>
      <trkpt lat="61.116244569" lon="14.1716619696">
        <ele>231.2</ele>
        <time>2011-05-24T13:59:12Z</time>
        <extensions><gpxtpx:TrackPointExtension><gpxtpx:hr>134</gpxtpx:hr></gpxtpx:TrackPointExtension></extensions>
      </trkpt>
      <trkpt lat="61.1161983848" lon="14.1720922125">
        <ele>231.2</ele>
        <time>2011-05-24T13:59:15Z</time>
        <extensions><gpxtpx:TrackPointExtension><gpxtpx:hr>134</gpxtpx:hr></gpxtpx:TrackPointExtension></extensions>
      </trkpt>
      <trkpt lat="61.1161902543" lon="14.1722191983">
        <ele>231.2</ele>
        <time>2011-05-24T13:59:16Z</time>
        <extensions><gpxtpx:TrackPointExtension><gpxtpx:hr>134</gpxtpx:hr></gpxtpx:TrackPointExtension></extensions>
      </trkpt>
      <trkpt lat="61.1162364386" lon="14.1728211863">
        <ele>231.2</ele>
        <time>2011-05-24T13:59:20Z</time>
        <extensions><gpxtpx:TrackPointExtension><gpxtpx:hr>135</gpxtpx:hr></gpxtpx:TrackPointExtension></extensions>
      </trkpt>
      <trkpt lat="61.1163822836" lon="14.1731540316">
        <ele>231.2</ele>
        <time>2011-05-24T13:59:23Z</time>
        <extensions><gpxtpx:TrackPointExtension><gpxtpx:hr>135</gpxtpx:hr></gpxtpx:TrackPointExtension></extensions>
      </trkpt>
      <trkpt lat="61.1165841198" lon="14.1733714581">
        <ele>230.8</ele>
        <time>2011-05-24T13:59:26Z</time>
        <extensions><gpxtpx:TrackPointExtension><gpxtpx:hr>136</gpxtpx:hr></gpxtpx:TrackPointExtension></extensions>
      </trkpt>
      <trkpt lat="61.1166785838" lon="14.1736090011">
        <ele>230.4</ele>
        <time>2011-05-24T13:59:28Z</time>
        <extensions><gpxtpx:TrackPointExtension><gpxtpx:hr>135</gpxtpx:hr></gpxtpx:TrackPointExtension></extensions>
      </trkpt>
      <trkpt lat="61.1166945094" lon="14.1740419262">
        <ele>230</ele>
        <time>2011-05-24T13:59:31Z</time>
        <extensions><gpxtpx:TrackPointExtension><gpxtpx:hr>135</gpxtpx:hr></gpxtpx:TrackPointExtension></extensions>
      </trkpt>
      <trkpt lat="61.116692833" lon="14.1741687444">
        <ele>230</ele>
        <time>2011-05-24T13:59:32Z</time>
        <extensions><gpxtpx:TrackPointExtension><gpxtpx:hr>135</gpxtpx:hr></gpxtpx:TrackPointExtension></extensions>
      </trkpt>
      <trkpt lat="61.1166870495" lon="14.1745863307">
        <ele>229.8</ele>
        <time>2011-05-24T13:59:35Z</time>
        <extensions><gpxtpx:TrackPointExtension><gpxtpx:hr>134</gpxtpx:hr></gpxtpx:TrackPointExtension></extensions>
      </trkpt>
      <trkpt lat="61.1166823557" lon="14.1749891648">
        <ele>229.6</ele>
        <time>2011-05-24T13:59:38Z</time>
        <extensions><gpxtpx:TrackPointExtension><gpxtpx:hr>134</gpxtpx:hr></gpxtpx:TrackPointExtension></extensions>
      </trkpt>
      <trkpt lat="61.1166806793" lon="14.1754201621">
        <ele>229.4</ele>
        <time>2011-05-24T13:59:41Z</time>
        <extensions><gpxtpx:TrackPointExtension><gpxtpx:hr>135</gpxtpx:hr></gpxtpx:TrackPointExtension></extensions>
      </trkpt>
      <trkpt lat="61.1166787514" lon="14.1758266004">
        <ele>229.4</ele>
        <time>2011-05-24T13:59:44Z</time>
        <extensions><gpxtpx:TrackPointExtension><gpxtpx:hr>134</gpxtpx:hr></gpxtpx:TrackPointExtension></extensions>
      </trkpt>
      <trkpt lat="61.1166795058" lon="14.176222729">
        <ele>229.2</ele>
        <time>2011-05-24T13:59:47Z</time>
        <extensions><gpxtpx:TrackPointExtension><gpxtpx:hr>133</gpxtpx:hr></gpxtpx:TrackPointExtension></extensions>
      </trkpt>
      <trkpt lat="61.1166778294" lon="14.1766403991">
        <ele>229.2</ele>
        <time>2011-05-24T13:59:50Z</time>
        <extensions><gpxtpx:TrackPointExtension><gpxtpx:hr>134</gpxtpx:hr></gpxtpx:TrackPointExtension></extensions>
      </trkpt>
      <trkpt lat="61.1166728841" lon="14.1770547164">
        <ele>229.2</ele>
        <time>2011-05-24T13:59:53Z</time>
        <extensions><gpxtpx:TrackPointExtension><gpxtpx:hr>134</gpxtpx:hr></gpxtpx:TrackPointExtension></extensions>
      </trkpt>
      <trkpt lat="61.1166654242" lon="14.1774920001">
        <ele>229.2</ele>
        <time>2011-05-24T13:59:56Z</time>
        <extensions><gpxtpx:TrackPointExtension><gpxtpx:hr>133</gpxtpx:hr></gpxtpx:TrackPointExtension></extensions>
      </trkpt>
      <trkpt lat="61.1166657595" lon="14.1779312955">
        <ele>229.2</ele>
        <time>2011-05-24T13:59:59Z</time>
        <extensions><gpxtpx:TrackPointExtension><gpxtpx:hr>132</gpxtpx:hr></gpxtpx:TrackPointExtension></extensions>
      </trkpt>
      <trkpt lat="61.1166663462" lon="14.1783585209">
        <ele>229.2</ele>
        <time>2011-05-24T14:00:02Z</time>
        <extensions><gpxtpx:TrackPointExtension><gpxtpx:hr>132</gpxtpx:hr></gpxtpx:TrackPointExtension></extensions>
      </trkpt>
      <trkpt lat="61.1166643346" lon="14.1788051924">
        <ele>229.2</ele>
        <time>2011-05-24T14:00:05Z</time>
        <extensions><gpxtpx:TrackPointExtension><gpxtpx:hr>131</gpxtpx:hr></gpxtpx:TrackPointExtension></extensions>
      </trkpt>
      <trkpt lat="61.116653019" lon="14.1792528697">
        <ele>229.2</ele>
        <time>2011-05-24T14:00:08Z</time>
        <extensions><gpxtpx:TrackPointExtension><gpxtpx:hr>131</gpxtpx:hr></gpxtpx:TrackPointExtension></extensions>
      </trkpt>
      <trkpt lat="61.1166251911" lon="14.1796771614">
        <ele>229.2</ele>
        <time>2011-05-24T14:00:11Z</time>
        <extensions><gpxtpx:TrackPointExtension><gpxtpx:hr>130</gpxtpx:hr></gpxtpx:TrackPointExtension></extensions>
      </trkpt>
      <trkpt lat="61.1165707088" lon="14.1800921493">
        <ele>229</ele>
        <time>2011-05-24T14:00:14Z</time>
        <extensions><gpxtpx:TrackPointExtension><gpxtpx:hr>131</gpxtpx:hr></gpxtpx:TrackPointExtension></extensions>
      </trkpt>
      <trkpt lat="61.1165065034" lon="14.180494732">
        <ele>229</ele>
        <time>2011-05-24T14:00:17Z</time>
        <extensions><gpxtpx:TrackPointExtension><gpxtpx:hr>132</gpxtpx:hr></gpxtpx:TrackPointExtension></extensions>
      </trkpt>
      <trkpt lat="61.1164388615" lon="14.1809157548">
        <ele>229</ele>
        <time>2011-05-24T14:00:20Z</time>
        <extensions><gpxtpx:TrackPointExtension><gpxtpx:hr>131</gpxtpx:hr></gpxtpx:TrackPointExtension></extensions>
      </trkpt>
      <trkpt lat="61.1163715548" lon="14.1813444052">
        <ele>229</ele>
        <time>2011-05-24T14:00:23Z</time>
        <extensions><gpxtpx:TrackPointExtension><gpxtpx:hr>131</gpxtpx:hr></gpxtpx:TrackPointExtension></extensions>
      </trkpt>
      <trkpt lat="61.1163111213" lon="14.1817225965">
        <ele>229</ele>
        <time>2011-05-24T14:00:26Z</time>
        <extensions><gpxtpx:TrackPointExtension><gpxtpx:hr>132</gpxtpx:hr></gpxtpx:TrackPointExtension></extensions>
      </trkpt>
      <trkpt lat="61.1162521127" lon="14.1820751392">
        <ele>229</ele>
        <time>2011-05-24T14:00:29Z</time>
        <extensions><gpxtpx:TrackPointExtension><gpxtpx:hr>132</gpxtpx:hr></gpxtpx:TrackPointExtension></extensions>
      </trkpt>
      <trkpt lat="61.1161772624" lon="14.1825363113">
        <ele>229</ele>
        <time>2011-05-24T14:00:33Z</time>
        <extensions><gpxtpx:TrackPointExtension><gpxtpx:hr>133</gpxtpx:hr></gpxtpx:TrackPointExtension></extensions>
      </trkpt>
      <trkpt lat="61.1161077764" lon="14.1829772831">
        <ele>229</ele>
        <time>2011-05-24T14:00:37Z</time>
        <extensions><gpxtpx:TrackPointExtension><gpxtpx:hr>135</gpxtpx:hr></gpxtpx:TrackPointExtension></extensions>
      </trkpt>
      <trkpt lat="61.1160203532" lon="14.1833994794">
        <ele>229</ele>
        <time>2011-05-24T14:00:41Z</time>
        <extensions><gpxtpx:TrackPointExtension><gpxtpx:hr>136</gpxtpx:hr></gpxtpx:TrackPointExtension></extensions>
      </trkpt>
      <trkpt lat="61.1159082034" lon="14.1838029841">
        <ele>229</ele>
        <time>2011-05-24T14:00:45Z</time>
        <extensions><gpxtpx:TrackPointExtension><gpxtpx:hr>137</gpxtpx:hr></gpxtpx:TrackPointExtension></extensions>
      </trkpt>
      <trkpt lat="61.1157967241" lon="14.184130884">
        <ele>229</ele>
        <time>2011-05-24T14:00:48Z</time>
        <extensions><gpxtpx:TrackPointExtension><gpxtpx:hr>137</gpxtpx:hr></gpxtpx:TrackPointExtension></extensions>
      </trkpt>
      <trkpt lat="61.1156725882" lon="14.1844832591">
        <ele>229</ele>
        <time>2011-05-24T14:00:51Z</time>
        <extensions><gpxtpx:TrackPointExtension><gpxtpx:hr>135</gpxtpx:hr></gpxtpx:TrackPointExtension></extensions>
      </trkpt>
      <trkpt lat="61.1155469435" lon="14.1848419206">
        <ele>229</ele>
        <time>2011-05-24T14:00:54Z</time>
        <extensions><gpxtpx:TrackPointExtension><gpxtpx:hr>134</gpxtpx:hr></gpxtpx:TrackPointExtension></extensions>
      </trkpt>
      <trkpt lat="61.1154222208" lon="14.1851975646">
        <ele>229</ele>
        <time>2011-05-24T14:00:57Z</time>
        <extensions><gpxtpx:TrackPointExtension><gpxtpx:hr>134</gpxtpx:hr></gpxtpx:TrackPointExtension></extensions>
      </trkpt>
      <trkpt lat="61.1152974981" lon="14.1855787734">
        <ele>229</ele>
        <time>2011-05-24T14:01:00Z</time>
        <extensions><gpxtpx:TrackPointExtension><gpxtpx:hr>134</gpxtpx:hr></gpxtpx:TrackPointExtension></extensions>
      </trkpt>
      <trkpt lat="61.1151654832" lon="14.1859567971">
        <ele>229</ele>
        <time>2011-05-24T14:01:03Z</time>
        <extensions><gpxtpx:TrackPointExtension><gpxtpx:hr>134</gpxtpx:hr></gpxtpx:TrackPointExtension></extensions>
      </trkpt>
      <trkpt lat="61.1150421855" lon="14.1863324739">
        <ele>229</ele>
        <time>2011-05-24T14:01:06Z</time>
        <extensions><gpxtpx:TrackPointExtension><gpxtpx:hr>135</gpxtpx:hr></gpxtpx:TrackPointExtension></extensions>
      </trkpt>
      <trkpt lat="61.1149060634" lon="14.186745031">
        <ele>229</ele>
        <time>2011-05-24T14:01:09Z</time>
        <extensions><gpxtpx:TrackPointExtension><gpxtpx:hr>134</gpxtpx:hr></gpxtpx:TrackPointExtension></extensions>
      </trkpt>
      <trkpt lat="61.1147729588" lon="14.1871573366">
        <ele>229</ele>
        <time>2011-05-24T14:01:12Z</time>
        <extensions><gpxtpx:TrackPointExtension><gpxtpx:hr>135</gpxtpx:hr></gpxtpx:TrackPointExtension></extensions>
      </trkpt>
      <trkpt lat="61.1146527624" lon="14.1875976378">
        <ele>229</ele>
        <time>2011-05-24T14:01:15Z</time>
        <extensions><gpxtpx:TrackPointExtension><gpxtpx:hr>135</gpxtpx:hr></gpxtpx:TrackPointExtension></extensions>
      </trkpt>
      <trkpt lat="61.1145419537" lon="14.1880435549">
        <ele>228.6</ele>
        <time>2011-05-24T14:01:18Z</time>
        <extensions><gpxtpx:TrackPointExtension><gpxtpx:hr>135</gpxtpx:hr></gpxtpx:TrackPointExtension></extensions>
      </trkpt>
      <trkpt lat="61.1143807697" lon="14.1887860236">
        <ele>228.2</ele>
        <time>2011-05-24T14:01:23Z</time>
        <extensions><gpxtpx:TrackPointExtension><gpxtpx:hr>135</gpxtpx:hr></gpxtpx:TrackPointExtension></extensions>
      </trkpt>
      <trkpt lat="61.1142249502" lon="14.1895091301">
        <ele>227.8</ele>
        <time>2011-05-24T14:01:28Z</time>
        <extensions><gpxtpx:TrackPointExtension><gpxtpx:hr>135</gpxtpx:hr></gpxtpx:TrackPointExtension></extensions>
      </trkpt>
      <trkpt lat="61.1141343419" lon="14.1899281413">
        <ele>227.6</ele>
        <time>2011-05-24T14:01:31Z</time>
        <extensions><gpxtpx:TrackPointExtension><gpxtpx:hr>135</gpxtpx:hr></gpxtpx:TrackPointExtension></extensions>
      </trkpt>
      <trkpt lat="61.114046751" lon="14.190326533">
        <ele>227.4</ele>
        <time>2011-05-24T14:01:34Z</time>
        <extensions><gpxtpx:TrackPointExtension><gpxtpx:hr>134</gpxtpx:hr></gpxtpx:TrackPointExtension></extensions>
      </trkpt>
      <trkpt lat="61.1139528737" lon="14.1907593743">
        <ele>227.2</ele>
        <time>2011-05-24T14:01:37Z</time>
        <extensions><gpxtpx:TrackPointExtension><gpxtpx:hr>135</gpxtpx:hr></gpxtpx:TrackPointExtension></extensions>
      </trkpt>
      <trkpt lat="61.1138558952" lon="14.1911998432">
        <ele>227.2</ele>
        <time>2011-05-24T14:01:40Z</time>
        <extensions><gpxtpx:TrackPointExtension><gpxtpx:hr>135</gpxtpx:hr></gpxtpx:TrackPointExtension></extensions>
      </trkpt>
      <trkpt lat="61.1137563182" lon="14.191658836">
        <ele>226.6</ele>
        <time>2011-05-24T14:01:43Z</time>
        <extensions><gpxtpx:TrackPointExtension><gpxtpx:hr>135</gpxtpx:hr></gpxtpx:TrackPointExtension></extensions>
      </trkpt>
      <trkpt lat="61.1136596749" lon="14.1921020709">
        <ele>226.2</ele>
        <time>2011-05-24T14:01:46Z</time>
        <extensions><gpxtpx:TrackPointExtension><gpxtpx:hr>135</gpxtpx:hr></gpxtpx:TrackPointExtension></extensions>
      </trkpt>
      <trkpt lat="61.1135513807" lon="14.1925545259">
        <ele>225.8</ele>
        <time>2011-05-24T14:01:49Z</time>
        <extensions><gpxtpx:TrackPointExtension><gpxtpx:hr>135</gpxtpx:hr></gpxtpx:TrackPointExtension></extensions>
      </trkpt>
      <trkpt lat="61.1134580902" lon="14.1929975931">
        <ele>225.6</ele>
        <time>2011-05-24T14:01:52Z</time>
        <extensions><gpxtpx:TrackPointExtension><gpxtpx:hr>135</gpxtpx:hr></gpxtpx:TrackPointExtension></extensions>
      </trkpt>
      <trkpt lat="61.1133589323" lon="14.193454239">
        <ele>225.4</ele>
        <time>2011-05-24T14:01:55Z</time>
        <extensions><gpxtpx:TrackPointExtension><gpxtpx:hr>136</gpxtpx:hr></gpxtpx:TrackPointExtension></extensions>
      </trkpt>
      <trkpt lat="61.1132611155" lon="14.1939003237">
        <ele>225</ele>
        <time>2011-05-24T14:01:58Z</time>
        <extensions><gpxtpx:TrackPointExtension><gpxtpx:hr>137</gpxtpx:hr></gpxtpx:TrackPointExtension></extensions>
      </trkpt>
      <trkpt lat="61.1131616224" lon="14.1943585622">
        <ele>224.4</ele>
        <time>2011-05-24T14:02:01Z</time>
        <extensions><gpxtpx:TrackPointExtension><gpxtpx:hr>136</gpxtpx:hr></gpxtpx:TrackPointExtension></extensions>
      </trkpt>
      <trkpt lat="61.1130659011" lon="14.194797187">
        <ele>224</ele>
        <time>2011-05-24T14:02:04Z</time>
        <extensions><gpxtpx:TrackPointExtension><gpxtpx:hr>135</gpxtpx:hr></gpxtpx:TrackPointExtension></extensions>
      </trkpt>
      <trkpt lat="61.112968671" lon="14.1952405057">
        <ele>223.8</ele>
        <time>2011-05-24T14:02:07Z</time>
        <extensions><gpxtpx:TrackPointExtension><gpxtpx:hr>135</gpxtpx:hr></gpxtpx:TrackPointExtension></extensions>
      </trkpt>
      <trkpt lat="61.1128767216" lon="14.1956631211">
        <ele>223.2</ele>
        <time>2011-05-24T14:02:10Z</time>
        <extensions><gpxtpx:TrackPointExtension><gpxtpx:hr>135</gpxtpx:hr></gpxtpx:TrackPointExtension></extensions>
      </trkpt>
      <trkpt lat="61.1127767255" lon="14.1961136482">
        <ele>222.6</ele>
        <time>2011-05-24T14:02:13Z</time>
        <extensions><gpxtpx:TrackPointExtension><gpxtpx:hr>136</gpxtpx:hr></gpxtpx:TrackPointExtension></extensions>
      </trkpt>
      <trkpt lat="61.1126905596" lon="14.1964982098">
        <ele>222.2</ele>
        <time>2011-05-24T14:02:16Z</time>
        <extensions><gpxtpx:TrackPointExtension><gpxtpx:hr>136</gpxtpx:hr></gpxtpx:TrackPointExtension></extensions>
      </trkpt>
      <trkpt lat="61.1126095905" lon="14.1968859565">
        <ele>221.8</ele>
        <time>2011-05-24T14:02:19Z</time>
        <extensions><gpxtpx:TrackPointExtension><gpxtpx:hr>137</gpxtpx:hr></gpxtpx:TrackPointExtension></extensions>
      </trkpt>
      <trkpt lat="61.1125303815" lon="14.1972679197">
        <ele>221.6</ele>
        <time>2011-05-24T14:02:22Z</time>
        <extensions><gpxtpx:TrackPointExtension><gpxtpx:hr>138</gpxtpx:hr></gpxtpx:TrackPointExtension></extensions>
      </trkpt>
      <trkpt lat="61.112425943" lon="14.1977110707">
        <ele>221.4</ele>
        <time>2011-05-24T14:02:25Z</time>
        <extensions><gpxtpx:TrackPointExtension><gpxtpx:hr>140</gpxtpx:hr></gpxtpx:TrackPointExtension></extensions>
      </trkpt>
      <trkpt lat="61.1123297188" lon="14.1981491927">
        <ele>221.2</ele>
        <time>2011-05-24T14:02:28Z</time>
        <extensions><gpxtpx:TrackPointExtension><gpxtpx:hr>141</gpxtpx:hr></gpxtpx:TrackPointExtension></extensions>
      </trkpt>
      <trkpt lat="61.1122303933" lon="14.1985958641">
        <ele>221.2</ele>
        <time>2011-05-24T14:02:31Z</time>
        <extensions><gpxtpx:TrackPointExtension><gpxtpx:hr>142</gpxtpx:hr></gpxtpx:TrackPointExtension></extensions>
      </trkpt>
      <trkpt lat="61.1121311516" lon="14.1990443796">
        <ele>221</ele>
        <time>2011-05-24T14:02:34Z</time>
        <extensions><gpxtpx:TrackPointExtension><gpxtpx:hr>142</gpxtpx:hr></gpxtpx:TrackPointExtension></extensions>
      </trkpt>
      <trkpt lat="61.1120267131" lon="14.1995139336">
        <ele>221</ele>
        <time>2011-05-24T14:02:37Z</time>
        <extensions><gpxtpx:TrackPointExtension><gpxtpx:hr>143</gpxtpx:hr></gpxtpx:TrackPointExtension></extensions>
      </trkpt>
      <trkpt lat="61.1119240349" lon="14.1999806378">
        <ele>220.6</ele>
        <time>2011-05-24T14:02:40Z</time>
        <extensions><gpxtpx:TrackPointExtension><gpxtpx:hr>142</gpxtpx:hr></gpxtpx:TrackPointExtension></extensions>
      </trkpt>
      <trkpt lat="61.1118206022" lon="14.2004513653">
        <ele>220.2</ele>
        <time>2011-05-24T14:02:43Z</time>
        <extensions><gpxtpx:TrackPointExtension><gpxtpx:hr>142</gpxtpx:hr></gpxtpx:TrackPointExtension></extensions>
      </trkpt>
      <trkpt lat="61.111723456" lon="14.2009046585">
        <ele>219.8</ele>
        <time>2011-05-24T14:02:46Z</time>
        <extensions><gpxtpx:TrackPointExtension><gpxtpx:hr>141</gpxtpx:hr></gpxtpx:TrackPointExtension></extensions>
      </trkpt>
      <trkpt lat="61.1116268127" lon="14.2013530063">
        <ele>219.6</ele>
        <time>2011-05-24T14:02:49Z</time>
        <extensions><gpxtpx:TrackPointExtension><gpxtpx:hr>141</gpxtpx:hr></gpxtpx:TrackPointExtension></extensions>
      </trkpt>
      <trkpt lat="61.1115308399" lon="14.2018042878">
        <ele>219.4</ele>
        <time>2011-05-24T14:02:52Z</time>
        <extensions><gpxtpx:TrackPointExtension><gpxtpx:hr>141</gpxtpx:hr></gpxtpx:TrackPointExtension></extensions>
      </trkpt>
      <trkpt lat="61.111434951" lon="14.2022546473">
        <ele>219.2</ele>
        <time>2011-05-24T14:02:55Z</time>
        <extensions><gpxtpx:TrackPointExtension><gpxtpx:hr>141</gpxtpx:hr></gpxtpx:TrackPointExtension></extensions>
      </trkpt>
      <trkpt lat="61.111340487" lon="14.2027049229">
        <ele>219.2</ele>
        <time>2011-05-24T14:02:58Z</time>
        <extensions><gpxtpx:TrackPointExtension><gpxtpx:hr>142</gpxtpx:hr></gpxtpx:TrackPointExtension></extensions>
      </trkpt>
      <trkpt lat="61.1112437598" lon="14.2031670171">
        <ele>219</ele>
        <time>2011-05-24T14:03:01Z</time>
        <extensions><gpxtpx:TrackPointExtension><gpxtpx:hr>142</gpxtpx:hr></gpxtpx:TrackPointExtension></extensions>
      </trkpt>
      <trkpt lat="61.1111438476" lon="14.2036467132">
        <ele>219</ele>
        <time>2011-05-24T14:03:04Z</time>
        <extensions><gpxtpx:TrackPointExtension><gpxtpx:hr>141</gpxtpx:hr></gpxtpx:TrackPointExtension></extensions>
      </trkpt>
      <trkpt lat="61.1110464499" lon="14.2040965698">
        <ele>219</ele>
        <time>2011-05-24T14:03:07Z</time>
        <extensions><gpxtpx:TrackPointExtension><gpxtpx:hr>141</gpxtpx:hr></gpxtpx:TrackPointExtension></extensions>
      </trkpt>
      <trkpt lat="61.1109480464" lon="14.2045422354">
        <ele>219</ele>
        <time>2011-05-24T14:03:10Z</time>
        <extensions><gpxtpx:TrackPointExtension><gpxtpx:hr>141</gpxtpx:hr></gpxtpx:TrackPointExtension></extensions>
      </trkpt>
      <trkpt lat="61.1108413448" lon="14.2050117895">
        <ele>218.6</ele>
        <time>2011-05-24T14:03:13Z</time>
        <extensions><gpxtpx:TrackPointExtension><gpxtpx:hr>141</gpxtpx:hr></gpxtpx:TrackPointExtension></extensions>
      </trkpt>
      <trkpt lat="61.1107308714" lon="14.2054541861">
        <ele>218</ele>
        <time>2011-05-24T14:03:16Z</time>
        <extensions><gpxtpx:TrackPointExtension><gpxtpx:hr>141</gpxtpx:hr></gpxtpx:TrackPointExtension></extensions>
      </trkpt>
      <trkpt lat="61.1106114293" lon="14.2059059706">
        <ele>217.6</ele>
        <time>2011-05-24T14:03:19Z</time>
        <extensions><gpxtpx:TrackPointExtension><gpxtpx:hr>140</gpxtpx:hr></gpxtpx:TrackPointExtension></extensions>
      </trkpt>
      <trkpt lat="61.1104969326" lon="14.2063161807">
        <ele>217.4</ele>
        <time>2011-05-24T14:03:22Z</time>
        <extensions><gpxtpx:TrackPointExtension><gpxtpx:hr>140</gpxtpx:hr></gpxtpx:TrackPointExtension></extensions>
      </trkpt>
      <trkpt lat="61.1103764847" lon="14.2067268938">
        <ele>216.6</ele>
        <time>2011-05-24T14:03:25Z</time>
        <extensions><gpxtpx:TrackPointExtension><gpxtpx:hr>140</gpxtpx:hr></gpxtpx:TrackPointExtension></extensions>
      </trkpt>
      <trkpt lat="61.1102632452" lon="14.2071161493">
        <ele>216.2</ele>
        <time>2011-05-24T14:03:28Z</time>
        <extensions><gpxtpx:TrackPointExtension><gpxtpx:hr>140</gpxtpx:hr></gpxtpx:TrackPointExtension></extensions>
      </trkpt>
      <trkpt lat="61.1101519336" lon="14.2074904011">
        <ele>215.8</ele>
        <time>2011-05-24T14:03:31Z</time>
        <extensions><gpxtpx:TrackPointExtension><gpxtpx:hr>141</gpxtpx:hr></gpxtpx:TrackPointExtension></extensions>
      </trkpt>
      <trkpt lat="61.1100437232" lon="14.2078732863">
        <ele>215.4</ele>
        <time>2011-05-24T14:03:34Z</time>
        <extensions><gpxtpx:TrackPointExtension><gpxtpx:hr>141</gpxtpx:hr></gpxtpx:TrackPointExtension></extensions>
      </trkpt>
      <trkpt lat="61.1099340042" lon="14.208235552">
        <ele>215.2</ele>
        <time>2011-05-24T14:03:37Z</time>
        <extensions><gpxtpx:TrackPointExtension><gpxtpx:hr>141</gpxtpx:hr></gpxtpx:TrackPointExtension></extensions>
      </trkpt>
      <trkpt lat="61.1098282246" lon="14.2085955546">
        <ele>215</ele>
        <time>2011-05-24T14:03:40Z</time>
        <extensions><gpxtpx:TrackPointExtension><gpxtpx:hr>143</gpxtpx:hr></gpxtpx:TrackPointExtension></extensions>
      </trkpt>
      <trkpt lat="61.1097152366" lon="14.2089967962">
        <ele>215</ele>
        <time>2011-05-24T14:03:43Z</time>
        <extensions><gpxtpx:TrackPointExtension><gpxtpx:hr>143</gpxtpx:hr></gpxtpx:TrackPointExtension></extensions>
      </trkpt>
      <trkpt lat="61.1096048469" lon="14.2093818607">
        <ele>214.8</ele>
        <time>2011-05-24T14:03:46Z</time>
        <extensions><gpxtpx:TrackPointExtension><gpxtpx:hr>143</gpxtpx:hr></gpxtpx:TrackPointExtension></extensions>
      </trkpt>
      <trkpt lat="61.109496469" lon="14.2097666737">
        <ele>214.8</ele>
        <time>2011-05-24T14:03:49Z</time>
        <extensions><gpxtpx:TrackPointExtension><gpxtpx:hr>143</gpxtpx:hr></gpxtpx:TrackPointExtension></extensions>
      </trkpt>
      <trkpt lat="61.1093890968" lon="14.2101352258">
        <ele>214.8</ele>
        <time>2011-05-24T14:03:52Z</time>
        <extensions><gpxtpx:TrackPointExtension><gpxtpx:hr>144</gpxtpx:hr></gpxtpx:TrackPointExtension></extensions>
      </trkpt>
      <trkpt lat="61.1092744324" lon="14.21052599">
        <ele>214.8</ele>
        <time>2011-05-24T14:03:55Z</time>
        <extensions><gpxtpx:TrackPointExtension><gpxtpx:hr>144</gpxtpx:hr></gpxtpx:TrackPointExtension></extensions>
      </trkpt>
      <trkpt lat="61.109163037" lon="14.2109017506">
        <ele>214.6</ele>
        <time>2011-05-24T14:03:58Z</time>
        <extensions><gpxtpx:TrackPointExtension><gpxtpx:hr>144</gpxtpx:hr></gpxtpx:TrackPointExtension></extensions>
      </trkpt>
      <trkpt lat="61.1090386496" lon="14.2113208456">
        <ele>214.6</ele>
        <time>2011-05-24T14:04:01Z</time>
        <extensions><gpxtpx:TrackPointExtension><gpxtpx:hr>145</gpxtpx:hr></gpxtpx:TrackPointExtension></extensions>
      </trkpt>
      <trkpt lat="61.1089213868" lon="14.2117225901">
        <ele>214</ele>
        <time>2011-05-24T14:04:04Z</time>
        <extensions><gpxtpx:TrackPointExtension><gpxtpx:hr>145</gpxtpx:hr></gpxtpx:TrackPointExtension></extensions>
      </trkpt>
      <trkpt lat="61.1087897072" lon="14.2121785654">
        <ele>213.6</ele>
        <time>2011-05-24T14:04:07Z</time>
        <extensions><gpxtpx:TrackPointExtension><gpxtpx:hr>144</gpxtpx:hr></gpxtpx:TrackPointExtension></extensions>
      </trkpt>
      <trkpt lat="61.1086567702" lon="14.2126397376">
        <ele>213.4</ele>
        <time>2011-05-24T14:04:10Z</time>
        <extensions><gpxtpx:TrackPointExtension><gpxtpx:hr>145</gpxtpx:hr></gpxtpx:TrackPointExtension></extensions>
      </trkpt>
      <trkpt lat="61.1085610489" lon="14.2129760194">
        <ele>213.2</ele>
        <time>2011-05-24T14:04:12Z</time>
        <extensions><gpxtpx:TrackPointExtension><gpxtpx:hr>145</gpxtpx:hr></gpxtpx:TrackPointExtension></extensions>
      </trkpt>
      <trkpt lat="61.1084706082" lon="14.2132983873">
        <ele>212.6</ele>
        <time>2011-05-24T14:04:14Z</time>
        <extensions><gpxtpx:TrackPointExtension><gpxtpx:hr>146</gpxtpx:hr></gpxtpx:TrackPointExtension></extensions>
      </trkpt>
      <trkpt lat="61.1083463047" lon="14.2137432985">
        <ele>212</ele>
        <time>2011-05-24T14:04:17Z</time>
        <extensions><gpxtpx:TrackPointExtension><gpxtpx:hr>146</gpxtpx:hr></gpxtpx:TrackPointExtension></extensions>
      </trkpt>
      <trkpt lat="61.108230383" lon="14.2141716974">
        <ele>211.6</ele>
        <time>2011-05-24T14:04:20Z</time>
        <extensions><gpxtpx:TrackPointExtension><gpxtpx:hr>146</gpxtpx:hr></gpxtpx:TrackPointExtension></extensions>
      </trkpt>
      <trkpt lat="61.1081354161" lon="14.2145406687">
        <ele>211.2</ele>
        <time>2011-05-24T14:04:23Z</time>
        <extensions><gpxtpx:TrackPointExtension><gpxtpx:hr>147</gpxtpx:hr></gpxtpx:TrackPointExtension></extensions>
      </trkpt>
      <trkpt lat="61.1080533573" lon="14.214879046">
        <ele>211</ele>
        <time>2011-05-24T14:04:26Z</time>
        <extensions><gpxtpx:TrackPointExtension><gpxtpx:hr>146</gpxtpx:hr></gpxtpx:TrackPointExtension></extensions>
      </trkpt>
      <trkpt lat="61.1079226834" lon="14.2154232827">
        <ele>210.8</ele>
        <time>2011-05-24T14:04:31Z</time>
        <extensions><gpxtpx:TrackPointExtension><gpxtpx:hr>143</gpxtpx:hr></gpxtpx:TrackPointExtension></extensions>
      </trkpt>
      <trkpt lat="61.107822855" lon="14.2158305593">
        <ele>210.6</ele>
        <time>2011-05-24T14:04:35Z</time>
        <extensions><gpxtpx:TrackPointExtension><gpxtpx:hr>140</gpxtpx:hr></gpxtpx:TrackPointExtension></extensions>
      </trkpt>
      <trkpt lat="61.1077215178" lon="14.2162240895">
        <ele>210.4</ele>
        <time>2011-05-24T14:04:39Z</time>
        <extensions><gpxtpx:TrackPointExtension><gpxtpx:hr>139</gpxtpx:hr></gpxtpx:TrackPointExtension></extensions>
      </trkpt>
      <trkpt lat="61.1076226114" lon="14.2166126743">
        <ele>210.8</ele>
        <time>2011-05-24T14:04:43Z</time>
        <extensions><gpxtpx:TrackPointExtension><gpxtpx:hr>142</gpxtpx:hr></gpxtpx:TrackPointExtension></extensions>
      </trkpt>
      <trkpt lat="61.1075233697" lon="14.2170204538">
        <ele>211.4</ele>
        <time>2011-05-24T14:04:47Z</time>
        <extensions><gpxtpx:TrackPointExtension><gpxtpx:hr>146</gpxtpx:hr></gpxtpx:TrackPointExtension></extensions>
      </trkpt>
      <trkpt lat="61.1074223678" lon="14.2174366989">
        <ele>211.8</ele>
        <time>2011-05-24T14:04:51Z</time>
        <extensions><gpxtpx:TrackPointExtension><gpxtpx:hr>150</gpxtpx:hr></gpxtpx:TrackPointExtension></extensions>
      </trkpt>
      <trkpt lat="61.1073170912" lon="14.217842802">
        <ele>212.8</ele>
        <time>2011-05-24T14:04:55Z</time>
        <extensions><gpxtpx:TrackPointExtension><gpxtpx:hr>152</gpxtpx:hr></gpxtpx:TrackPointExtension></extensions>
      </trkpt>
      <trkpt lat="61.1072075397" lon="14.2182763977">
        <ele>213.4</ele>
        <time>2011-05-24T14:04:59Z</time>
        <extensions><gpxtpx:TrackPointExtension><gpxtpx:hr>152</gpxtpx:hr></gpxtpx:TrackPointExtension></extensions>
      </trkpt>
      <trkpt lat="61.1071228825" lon="14.2186260067">
        <ele>213.8</ele>
        <time>2011-05-24T14:05:02Z</time>
        <extensions><gpxtpx:TrackPointExtension><gpxtpx:hr>152</gpxtpx:hr></gpxtpx:TrackPointExtension></extensions>
      </trkpt>
      <trkpt lat="61.1070357946" lon="14.2189946427">
        <ele>214</ele>
        <time>2011-05-24T14:05:05Z</time>
        <extensions><gpxtpx:TrackPointExtension><gpxtpx:hr>152</gpxtpx:hr></gpxtpx:TrackPointExtension></extensions>
      </trkpt>
      <trkpt lat="61.106939738" lon="14.2193740913">
        <ele>214.2</ele>
        <time>2011-05-24T14:05:08Z</time>
        <extensions><gpxtpx:TrackPointExtension><gpxtpx:hr>151</gpxtpx:hr></gpxtpx:TrackPointExtension></extensions>
      </trkpt>
      <trkpt lat="61.1068456093" lon="14.2197595749">
        <ele>214.2</ele>
        <time>2011-05-24T14:05:11Z</time>
        <extensions><gpxtpx:TrackPointExtension><gpxtpx:hr>151</gpxtpx:hr></gpxtpx:TrackPointExtension></extensions>
      </trkpt>
      <trkpt lat="61.1067575155" lon="14.2201246066">
        <ele>214.4</ele>
        <time>2011-05-24T14:05:14Z</time>
        <extensions><gpxtpx:TrackPointExtension><gpxtpx:hr>152</gpxtpx:hr></gpxtpx:TrackPointExtension></extensions>
      </trkpt>
      <trkpt lat="61.1066664881" lon="14.2204977688">
        <ele>214.4</ele>
        <time>2011-05-24T14:05:17Z</time>
        <extensions><gpxtpx:TrackPointExtension><gpxtpx:hr>152</gpxtpx:hr></gpxtpx:TrackPointExtension></extensions>
      </trkpt>
      <trkpt lat="61.1065688389" lon="14.2209089848">
        <ele>214.4</ele>
        <time>2011-05-24T14:05:20Z</time>
        <extensions><gpxtpx:TrackPointExtension><gpxtpx:hr>152</gpxtpx:hr></gpxtpx:TrackPointExtension></extensions>
      </trkpt>
      <trkpt lat="61.1064733691" lon="14.2213082985">
        <ele>214.4</ele>
        <time>2011-05-24T14:05:23Z</time>
        <extensions><gpxtpx:TrackPointExtension><gpxtpx:hr>153</gpxtpx:hr></gpxtpx:TrackPointExtension></extensions>
      </trkpt>
      <trkpt lat="61.1063932381" lon="14.2216461729">
        <ele>214.4</ele>
        <time>2011-05-24T14:05:25Z</time>
        <extensions><gpxtpx:TrackPointExtension><gpxtpx:hr>152</gpxtpx:hr></gpxtpx:TrackPointExtension></extensions>
      </trkpt>
      <trkpt lat="61.1062830162" lon="14.2220955266">
        <ele>214.4</ele>
        <time>2011-05-24T14:05:28Z</time>
        <extensions><gpxtpx:TrackPointExtension><gpxtpx:hr>153</gpxtpx:hr></gpxtpx:TrackPointExtension></extensions>
      </trkpt>
      <trkpt lat="61.1061722074" lon="14.2225530945">
        <ele>214.6</ele>
        <time>2011-05-24T14:05:31Z</time>
        <extensions><gpxtpx:TrackPointExtension><gpxtpx:hr>152</gpxtpx:hr></gpxtpx:TrackPointExtension></extensions>
      </trkpt>
      <trkpt lat="61.1060666793" lon="14.222991887">
        <ele>214.6</ele>
        <time>2011-05-24T14:05:34Z</time>
        <extensions><gpxtpx:TrackPointExtension><gpxtpx:hr>151</gpxtpx:hr></gpxtpx:TrackPointExtension></extensions>
      </trkpt>
      <trkpt lat="61.1059632467" lon="14.2234138318">
        <ele>214.6</ele>
        <time>2011-05-24T14:05:37Z</time>
        <extensions><gpxtpx:TrackPointExtension><gpxtpx:hr>150</gpxtpx:hr></gpxtpx:TrackPointExtension></extensions>
      </trkpt>
      <trkpt lat="61.1058541143" lon="14.2238571505">
        <ele>214.6</ele>
        <time>2011-05-24T14:05:40Z</time>
        <extensions><gpxtpx:TrackPointExtension><gpxtpx:hr>147</gpxtpx:hr></gpxtpx:TrackPointExtension></extensions>
      </trkpt>
      <trkpt lat="61.1057480833" lon="14.2242904109">
        <ele>214.6</ele>
        <time>2011-05-24T14:05:43Z</time>
        <extensions><gpxtpx:TrackPointExtension><gpxtpx:hr>147</gpxtpx:hr></gpxtpx:TrackPointExtension></extensions>
      </trkpt>
      <trkpt lat="61.1056480872" lon="14.2247087516">
        <ele>214.6</ele>
        <time>2011-05-24T14:05:46Z</time>
        <extensions><gpxtpx:TrackPointExtension><gpxtpx:hr>147</gpxtpx:hr></gpxtpx:TrackPointExtension></extensions>
      </trkpt>
      <trkpt lat="61.1055451575" lon="14.225151735">
        <ele>214.6</ele>
        <time>2011-05-24T14:05:49Z</time>
        <extensions><gpxtpx:TrackPointExtension><gpxtpx:hr>147</gpxtpx:hr></gpxtpx:TrackPointExtension></extensions>
      </trkpt>
      <trkpt lat="61.1054408867" lon="14.2255934611">
        <ele>214.6</ele>
        <time>2011-05-24T14:05:52Z</time>
        <extensions><gpxtpx:TrackPointExtension><gpxtpx:hr>148</gpxtpx:hr></gpxtpx:TrackPointExtension></extensions>
      </trkpt>
      <trkpt lat="61.1053179242" lon="14.226069553">
        <ele>214.6</ele>
        <time>2011-05-24T14:05:55Z</time>
        <extensions><gpxtpx:TrackPointExtension><gpxtpx:hr>149</gpxtpx:hr></gpxtpx:TrackPointExtension></extensions>
      </trkpt>
      <trkpt lat="61.1051917766" lon="14.2264815234">
        <ele>214.6</ele>
        <time>2011-05-24T14:05:58Z</time>
        <extensions><gpxtpx:TrackPointExtension><gpxtpx:hr>149</gpxtpx:hr></gpxtpx:TrackPointExtension></extensions>
      </trkpt>
      <trkpt lat="61.1050372982" lon="14.2268900572">
        <ele>214.6</ele>
        <time>2011-05-24T14:06:01Z</time>
        <extensions><gpxtpx:TrackPointExtension><gpxtpx:hr>150</gpxtpx:hr></gpxtpx:TrackPointExtension></extensions>
      </trkpt>
      <trkpt lat="61.104860943" lon="14.2272730262">
        <ele>214.6</ele>
        <time>2011-05-24T14:06:04Z</time>
        <extensions><gpxtpx:TrackPointExtension><gpxtpx:hr>150</gpxtpx:hr></gpxtpx:TrackPointExtension></extensions>
      </trkpt>
      <trkpt lat="61.1046883597" lon="14.227589862">
        <ele>214.6</ele>
        <time>2011-05-24T14:06:07Z</time>
        <extensions><gpxtpx:TrackPointExtension><gpxtpx:hr>149</gpxtpx:hr></gpxtpx:TrackPointExtension></extensions>
      </trkpt>
      <trkpt lat="61.1044968333" lon="14.2278799596">
        <ele>214.6</ele>
        <time>2011-05-24T14:06:10Z</time>
        <extensions><gpxtpx:TrackPointExtension><gpxtpx:hr>149</gpxtpx:hr></gpxtpx:TrackPointExtension></extensions>
      </trkpt>
      <trkpt lat="61.1043007806" lon="14.2281158263">
        <ele>214.6</ele>
        <time>2011-05-24T14:06:13Z</time>
        <extensions><gpxtpx:TrackPointExtension><gpxtpx:hr>148</gpxtpx:hr></gpxtpx:TrackPointExtension></extensions>
      </trkpt>
      <trkpt lat="61.1040872098" lon="14.2283355997">
        <ele>214.6</ele>
        <time>2011-05-24T14:06:16Z</time>
        <extensions><gpxtpx:TrackPointExtension><gpxtpx:hr>148</gpxtpx:hr></gpxtpx:TrackPointExtension></extensions>
      </trkpt>
      <trkpt lat="61.1038624911" lon="14.2285384417">
        <ele>214.6</ele>
        <time>2011-05-24T14:06:19Z</time>
        <extensions><gpxtpx:TrackPointExtension><gpxtpx:hr>148</gpxtpx:hr></gpxtpx:TrackPointExtension></extensions>
      </trkpt>
      <trkpt lat="61.1036474953" lon="14.2287178981">
        <ele>214.6</ele>
        <time>2011-05-24T14:06:22Z</time>
        <extensions><gpxtpx:TrackPointExtension><gpxtpx:hr>148</gpxtpx:hr></gpxtpx:TrackPointExtension></extensions>
      </trkpt>
      <trkpt lat="61.1034169093" lon="14.2289168844">
        <ele>214.6</ele>
        <time>2011-05-24T14:06:25Z</time>
        <extensions><gpxtpx:TrackPointExtension><gpxtpx:hr>148</gpxtpx:hr></gpxtpx:TrackPointExtension></extensions>
      </trkpt>
      <trkpt lat="61.1032053501" lon="14.2290988555">
        <ele>214.6</ele>
        <time>2011-05-24T14:06:28Z</time>
        <extensions><gpxtpx:TrackPointExtension><gpxtpx:hr>148</gpxtpx:hr></gpxtpx:TrackPointExtension></extensions>
      </trkpt>
      <trkpt lat="61.1029922822" lon="14.2292871968">
        <ele>214.6</ele>
        <time>2011-05-24T14:06:31Z</time>
        <extensions><gpxtpx:TrackPointExtension><gpxtpx:hr>147</gpxtpx:hr></gpxtpx:TrackPointExtension></extensions>
      </trkpt>
      <trkpt lat="61.1027836567" lon="14.2294686649">
        <ele>214.6</ele>
        <time>2011-05-24T14:06:34Z</time>
        <extensions><gpxtpx:TrackPointExtension><gpxtpx:hr>148</gpxtpx:hr></gpxtpx:TrackPointExtension></extensions>
      </trkpt>
      <trkpt lat="61.1025822397" lon="14.2296456068">
        <ele>214.6</ele>
        <time>2011-05-24T14:06:37Z</time>
        <extensions><gpxtpx:TrackPointExtension><gpxtpx:hr>148</gpxtpx:hr></gpxtpx:TrackPointExtension></extensions>
      </trkpt>
      <trkpt lat="61.1023872767" lon="14.2298354569">
        <ele>214.6</ele>
        <time>2011-05-24T14:06:40Z</time>
        <extensions><gpxtpx:TrackPointExtension><gpxtpx:hr>148</gpxtpx:hr></gpxtpx:TrackPointExtension></extensions>
      </trkpt>
      <trkpt lat="61.1021977619" lon="14.2300565714">
        <ele>214.6</ele>
        <time>2011-05-24T14:06:43Z</time>
        <extensions><gpxtpx:TrackPointExtension><gpxtpx:hr>148</gpxtpx:hr></gpxtpx:TrackPointExtension></extensions>
      </trkpt>
      <trkpt lat="61.1020302915" lon="14.2303049271">
        <ele>214.6</ele>
        <time>2011-05-24T14:06:46Z</time>
        <extensions><gpxtpx:TrackPointExtension><gpxtpx:hr>149</gpxtpx:hr></gpxtpx:TrackPointExtension></extensions>
      </trkpt>
      <trkpt lat="61.1019765636" lon="14.2304003969">
        <ele>214.6</ele>
        <time>2011-05-24T14:06:47Z</time>
        <extensions><gpxtpx:TrackPointExtension><gpxtpx:hr>149</gpxtpx:hr></gpxtpx:TrackPointExtension></extensions>
      </trkpt>
      <trkpt lat="61.1018114401" lon="14.2307169813">
        <ele>214.6</ele>
        <time>2011-05-24T14:06:50Z</time>
        <extensions><gpxtpx:TrackPointExtension><gpxtpx:hr>150</gpxtpx:hr></gpxtpx:TrackPointExtension></extensions>
      </trkpt>
      <trkpt lat="61.1016696184" lon="14.2310294585">
        <ele>214.6</ele>
        <time>2011-05-24T14:06:53Z</time>
        <extensions><gpxtpx:TrackPointExtension><gpxtpx:hr>151</gpxtpx:hr></gpxtpx:TrackPointExtension></extensions>
      </trkpt>
      <trkpt lat="61.1015369329" lon="14.2313169577">
        <ele>215</ele>
        <time>2011-05-24T14:06:56Z</time>
        <extensions><gpxtpx:TrackPointExtension><gpxtpx:hr>152</gpxtpx:hr></gpxtpx:TrackPointExtension></extensions>
      </trkpt>
      <trkpt lat="61.1013846338" lon="14.2316593583">
        <ele>215.6</ele>
        <time>2011-05-24T14:07:00Z</time>
        <extensions><gpxtpx:TrackPointExtension><gpxtpx:hr>153</gpxtpx:hr></gpxtpx:TrackPointExtension></extensions>
      </trkpt>
      <trkpt lat="61.1012563069" lon="14.2319658844">
        <ele>215.8</ele>
        <time>2011-05-24T14:07:04Z</time>
        <extensions><gpxtpx:TrackPointExtension><gpxtpx:hr>152</gpxtpx:hr></gpxtpx:TrackPointExtension></extensions>
      </trkpt>
      <trkpt lat="61.1011253816" lon="14.2322838099">
        <ele>216.8</ele>
        <time>2011-05-24T14:07:08Z</time>
        <extensions><gpxtpx:TrackPointExtension><gpxtpx:hr>152</gpxtpx:hr></gpxtpx:TrackPointExtension></extensions>
      </trkpt>
      <trkpt lat="61.1010708155" lon="14.2324272242">
        <ele>217</ele>
        <time>2011-05-24T14:07:10Z</time>
        <extensions><gpxtpx:TrackPointExtension><gpxtpx:hr>151</gpxtpx:hr></gpxtpx:TrackPointExtension></extensions>
      </trkpt>
      <trkpt lat="61.1009408122" lon="14.2328293039">
        <ele>218</ele>
        <time>2011-05-24T14:07:15Z</time>
        <extensions><gpxtpx:TrackPointExtension><gpxtpx:hr>152</gpxtpx:hr></gpxtpx:TrackPointExtension></extensions>
      </trkpt>
      <trkpt lat="61.1008530537" lon="14.2331530129">
        <ele>218.8</ele>
        <time>2011-05-24T14:07:18Z</time>
        <extensions><gpxtpx:TrackPointExtension><gpxtpx:hr>153</gpxtpx:hr></gpxtpx:TrackPointExtension></extensions>
      </trkpt>
      <trkpt lat="61.1007462683" lon="14.233549812">
        <ele>219.4</ele>
        <time>2011-05-24T14:07:22Z</time>
        <extensions><gpxtpx:TrackPointExtension><gpxtpx:hr>155</gpxtpx:hr></gpxtpx:TrackPointExtension></extensions>
      </trkpt>
      <trkpt lat="61.1006456855" lon="14.2339686556">
        <ele>220.6</ele>
        <time>2011-05-24T14:07:26Z</time>
        <extensions><gpxtpx:TrackPointExtension><gpxtpx:hr>155</gpxtpx:hr></gpxtpx:TrackPointExtension></extensions>
      </trkpt>
      <trkpt lat="61.1005689911" lon="14.2343204439">
        <ele>221.2</ele>
        <time>2011-05-24T14:07:29Z</time>
        <extensions><gpxtpx:TrackPointExtension><gpxtpx:hr>155</gpxtpx:hr></gpxtpx:TrackPointExtension></extensions>
      </trkpt>
      <trkpt lat="61.1005059592" lon="14.234675585">
        <ele>221.8</ele>
        <time>2011-05-24T14:07:32Z</time>
        <extensions><gpxtpx:TrackPointExtension><gpxtpx:hr>155</gpxtpx:hr></gpxtpx:TrackPointExtension></extensions>
      </trkpt>
      <trkpt lat="61.1004563384" lon="14.2350572967">
        <ele>222</ele>
        <time>2011-05-24T14:07:35Z</time>
        <extensions><gpxtpx:TrackPointExtension><gpxtpx:hr>155</gpxtpx:hr></gpxtpx:TrackPointExtension></extensions>
      </trkpt>
      <trkpt lat="61.1004101541" lon="14.2356077361">
        <ele>222.4</ele>
        <time>2011-05-24T14:07:39Z</time>
        <extensions><gpxtpx:TrackPointExtension><gpxtpx:hr>154</gpxtpx:hr></gpxtpx:TrackPointExtension></extensions>
      </trkpt>
      <trkpt lat="61.1003802307" lon="14.2361078003">
        <ele>222.6</ele>
        <time>2011-05-24T14:07:42Z</time>
        <extensions><gpxtpx:TrackPointExtension><gpxtpx:hr>155</gpxtpx:hr></gpxtpx:TrackPointExtension></extensions>
      </trkpt>
      <trkpt lat="61.1003687475" lon="14.2366257179">
        <ele>222.6</ele>
        <time>2011-05-24T14:07:45Z</time>
        <extensions><gpxtpx:TrackPointExtension><gpxtpx:hr>154</gpxtpx:hr></gpxtpx:TrackPointExtension></extensions>
      </trkpt>
      <trkpt lat="61.1003746987" lon="14.2371168972">
        <ele>222.8</ele>
        <time>2011-05-24T14:07:48Z</time>
        <extensions><gpxtpx:TrackPointExtension><gpxtpx:hr>154</gpxtpx:hr></gpxtpx:TrackPointExtension></extensions>
      </trkpt>
      <trkpt lat="61.1003929712" lon="14.2375959228">
        <ele>222.8</ele>
        <time>2011-05-24T14:07:51Z</time>
        <extensions><gpxtpx:TrackPointExtension><gpxtpx:hr>154</gpxtpx:hr></gpxtpx:TrackPointExtension></extensions>
      </trkpt>
      <trkpt lat="61.1004228946" lon="14.2380957355">
        <ele>223</ele>
        <time>2011-05-24T14:07:54Z</time>
        <extensions><gpxtpx:TrackPointExtension><gpxtpx:hr>154</gpxtpx:hr></gpxtpx:TrackPointExtension></extensions>
      </trkpt>
      <trkpt lat="61.1004320309" lon="14.2382658042">
        <ele>223</ele>
        <time>2011-05-24T14:07:55Z</time>
        <extensions><gpxtpx:TrackPointExtension><gpxtpx:hr>154</gpxtpx:hr></gpxtpx:TrackPointExtension></extensions>
      </trkpt>
      <trkpt lat="61.1004845854" lon="14.2389256274">
        <ele>223</ele>
        <time>2011-05-24T14:07:59Z</time>
        <extensions><gpxtpx:TrackPointExtension><gpxtpx:hr>153</gpxtpx:hr></gpxtpx:TrackPointExtension></extensions>
      </trkpt>
      <trkpt lat="61.1005127486" lon="14.2394035634">
        <ele>223</ele>
        <time>2011-05-24T14:08:02Z</time>
        <extensions><gpxtpx:TrackPointExtension><gpxtpx:hr>152</gpxtpx:hr></gpxtpx:TrackPointExtension></extensions>
      </trkpt>
      <trkpt lat="61.1005426719" lon="14.2398913061">
        <ele>223</ele>
        <time>2011-05-24T14:08:05Z</time>
        <extensions><gpxtpx:TrackPointExtension><gpxtpx:hr>150</gpxtpx:hr></gpxtpx:TrackPointExtension></extensions>
      </trkpt>
      <trkpt lat="61.1005690749" lon="14.240361866">
        <ele>223</ele>
        <time>2011-05-24T14:08:08Z</time>
        <extensions><gpxtpx:TrackPointExtension><gpxtpx:hr>150</gpxtpx:hr></gpxtpx:TrackPointExtension></extensions>
      </trkpt>
      <trkpt lat="61.1005917899" lon="14.24082681">
        <ele>223</ele>
        <time>2011-05-24T14:08:11Z</time>
        <extensions><gpxtpx:TrackPointExtension><gpxtpx:hr>149</gpxtpx:hr></gpxtpx:TrackPointExtension></extensions>
      </trkpt>
      <trkpt lat="61.1006184443" lon="14.2413165644">
        <ele>223</ele>
        <time>2011-05-24T14:08:14Z</time>
        <extensions><gpxtpx:TrackPointExtension><gpxtpx:hr>149</gpxtpx:hr></gpxtpx:TrackPointExtension></extensions>
      </trkpt>
      <trkpt lat="61.1006576716" lon="14.2417903932">
        <ele>223</ele>
        <time>2011-05-24T14:08:17Z</time>
        <extensions><gpxtpx:TrackPointExtension><gpxtpx:hr>148</gpxtpx:hr></gpxtpx:TrackPointExtension></extensions>
      </trkpt>
      <trkpt lat="61.1007045264" lon="14.2423150163">
        <ele>223</ele>
        <time>2011-05-24T14:08:20Z</time>
        <extensions><gpxtpx:TrackPointExtension><gpxtpx:hr>148</gpxtpx:hr></gpxtpx:TrackPointExtension></extensions>
      </trkpt>
      <trkpt lat="61.1007549016" lon="14.2428182656">
        <ele>223</ele>
        <time>2011-05-24T14:08:23Z</time>
        <extensions><gpxtpx:TrackPointExtension><gpxtpx:hr>147</gpxtpx:hr></gpxtpx:TrackPointExtension></extensions>
      </trkpt>
      <trkpt lat="61.1007937098" lon="14.2432368577">
        <ele>223</ele>
        <time>2011-05-24T14:08:25Z</time>
        <extensions><gpxtpx:TrackPointExtension><gpxtpx:hr>146</gpxtpx:hr></gpxtpx:TrackPointExtension></extensions>
      </trkpt>
      <trkpt lat="61.1008278242" lon="14.243613205">
        <ele>223</ele>
        <time>2011-05-24T14:08:27Z</time>
        <extensions><gpxtpx:TrackPointExtension><gpxtpx:hr>145</gpxtpx:hr></gpxtpx:TrackPointExtension></extensions>
      </trkpt>
      <trkpt lat="61.1008698175" lon="14.2440507402">
        <ele>223</ele>
        <time>2011-05-24T14:08:29Z</time>
        <extensions><gpxtpx:TrackPointExtension><gpxtpx:hr>143</gpxtpx:hr></gpxtpx:TrackPointExtension></extensions>
      </trkpt>
      <trkpt lat="61.1008999085" lon="14.2444807316">
        <ele>223</ele>
        <time>2011-05-24T14:08:31Z</time>
        <extensions><gpxtpx:TrackPointExtension><gpxtpx:hr>142</gpxtpx:hr></gpxtpx:TrackPointExtension></extensions>
      </trkpt>
      <trkpt lat="61.1009229587" lon="14.2449271516">
        <ele>222.6</ele>
        <time>2011-05-24T14:08:33Z</time>
        <extensions><gpxtpx:TrackPointExtension><gpxtpx:hr>142</gpxtpx:hr></gpxtpx:TrackPointExtension></extensions>
      </trkpt>
      <trkpt lat="61.1009331847" lon="14.245360412">
        <ele>222.4</ele>
        <time>2011-05-24T14:08:35Z</time>
        <extensions><gpxtpx:TrackPointExtension><gpxtpx:hr>141</gpxtpx:hr></gpxtpx:TrackPointExtension></extensions>
      </trkpt>
      <trkpt lat="61.1009305863" lon="14.2457911579">
        <ele>222</ele>
        <time>2011-05-24T14:08:37Z</time>
        <extensions><gpxtpx:TrackPointExtension><gpxtpx:hr>140</gpxtpx:hr></gpxtpx:TrackPointExtension></extensions>
      </trkpt>
      <trkpt lat="61.1009128166" lon="14.246225005">
        <ele>221.8</ele>
        <time>2011-05-24T14:08:39Z</time>
        <extensions><gpxtpx:TrackPointExtension><gpxtpx:hr>140</gpxtpx:hr></gpxtpx:TrackPointExtension></extensions>
      </trkpt>
      <trkpt lat="61.1008631958" lon="14.2468102293">
        <ele>221.6</ele>
        <time>2011-05-24T14:08:42Z</time>
        <extensions><gpxtpx:TrackPointExtension><gpxtpx:hr>139</gpxtpx:hr></gpxtpx:TrackPointExtension></extensions>
      </trkpt>
      <trkpt lat="61.1008146646" lon="14.2472078666">
        <ele>221</ele>
        <time>2011-05-24T14:08:44Z</time>
        <extensions><gpxtpx:TrackPointExtension><gpxtpx:hr>139</gpxtpx:hr></gpxtpx:TrackPointExtension></extensions>
      </trkpt>
      <trkpt lat="61.1007601822" lon="14.2475658576">
        <ele>220.6</ele>
        <time>2011-05-24T14:08:46Z</time>
        <extensions><gpxtpx:TrackPointExtension><gpxtpx:hr>139</gpxtpx:hr></gpxtpx:TrackPointExtension></extensions>
      </trkpt>
      <trkpt lat="61.1006927079" lon="14.2479437974">
        <ele>220.2</ele>
        <time>2011-05-24T14:08:48Z</time>
        <extensions><gpxtpx:TrackPointExtension><gpxtpx:hr>139</gpxtpx:hr></gpxtpx:TrackPointExtension></extensions>
      </trkpt>
      <trkpt lat="61.1006117388" lon="14.2482934065">
        <ele>220</ele>
        <time>2011-05-24T14:08:50Z</time>
        <extensions><gpxtpx:TrackPointExtension><gpxtpx:hr>139</gpxtpx:hr></gpxtpx:TrackPointExtension></extensions>
      </trkpt>
      <trkpt lat="61.100527836" lon="14.2486280958">
        <ele>219.8</ele>
        <time>2011-05-24T14:08:52Z</time>
        <extensions><gpxtpx:TrackPointExtension><gpxtpx:hr>138</gpxtpx:hr></gpxtpx:TrackPointExtension></extensions>
      </trkpt>
      <trkpt lat="61.1004263312" lon="14.2489833207">
        <ele>219.4</ele>
        <time>2011-05-24T14:08:54Z</time>
        <extensions><gpxtpx:TrackPointExtension><gpxtpx:hr>138</gpxtpx:hr></gpxtpx:TrackPointExtension></extensions>
      </trkpt>
      <trkpt lat="61.1003156063" lon="14.2493014976">
        <ele>218.8</ele>
        <time>2011-05-24T14:08:56Z</time>
        <extensions><gpxtpx:TrackPointExtension><gpxtpx:hr>137</gpxtpx:hr></gpxtpx:TrackPointExtension></extensions>
      </trkpt>
      <trkpt lat="61.1001984273" lon="14.2496024916">
        <ele>218.4</ele>
        <time>2011-05-24T14:08:58Z</time>
        <extensions><gpxtpx:TrackPointExtension><gpxtpx:hr>137</gpxtpx:hr></gpxtpx:TrackPointExtension></extensions>
      </trkpt>
      <trkpt lat="61.1000682564" lon="14.2499041562">
        <ele>218.2</ele>
        <time>2011-05-24T14:09:00Z</time>
        <extensions><gpxtpx:TrackPointExtension><gpxtpx:hr>137</gpxtpx:hr></gpxtpx:TrackPointExtension></extensions>
      </trkpt>
      <trkpt lat="61.0998770653" lon="14.2503002848">
        <ele>217.8</ele>
        <time>2011-05-24T14:09:03Z</time>
        <extensions><gpxtpx:TrackPointExtension><gpxtpx:hr>137</gpxtpx:hr></gpxtpx:TrackPointExtension></extensions>
      </trkpt>
      <trkpt lat="61.0997448827" lon="14.2505522447">
        <ele>217.6</ele>
        <time>2011-05-24T14:09:05Z</time>
        <extensions><gpxtpx:TrackPointExtension><gpxtpx:hr>138</gpxtpx:hr></gpxtpx:TrackPointExtension></extensions>
      </trkpt>
      <trkpt lat="61.0995996244" lon="14.2508113293">
        <ele>217</ele>
        <time>2011-05-24T14:09:07Z</time>
        <extensions><gpxtpx:TrackPointExtension><gpxtpx:hr>139</gpxtpx:hr></gpxtpx:TrackPointExtension></extensions>
      </trkpt>
      <trkpt lat="61.0994428828" lon="14.2510716711">
        <ele>216.6</ele>
        <time>2011-05-24T14:09:09Z</time>
        <extensions><gpxtpx:TrackPointExtension><gpxtpx:hr>140</gpxtpx:hr></gpxtpx:TrackPointExtension></extensions>
      </trkpt>
      <trkpt lat="61.0992879853" lon="14.2513319291">
        <ele>216.2</ele>
        <time>2011-05-24T14:09:11Z</time>
        <extensions><gpxtpx:TrackPointExtension><gpxtpx:hr>141</gpxtpx:hr></gpxtpx:TrackPointExtension></extensions>
      </trkpt>
      <trkpt lat="61.099136692" lon="14.2515997308">
        <ele>216</ele>
        <time>2011-05-24T14:09:13Z</time>
        <extensions><gpxtpx:TrackPointExtension><gpxtpx:hr>143</gpxtpx:hr></gpxtpx:TrackPointExtension></extensions>
      </trkpt>
      <trkpt lat="61.0989844767" lon="14.2518923429">
        <ele>215.6</ele>
        <time>2011-05-24T14:09:15Z</time>
        <extensions><gpxtpx:TrackPointExtension><gpxtpx:hr>145</gpxtpx:hr></gpxtpx:TrackPointExtension></extensions>
      </trkpt>
      <trkpt lat="61.0988315071" lon="14.2521798421">
        <ele>215.4</ele>
        <time>2011-05-24T14:09:17Z</time>
        <extensions><gpxtpx:TrackPointExtension><gpxtpx:hr>146</gpxtpx:hr></gpxtpx:TrackPointExtension></extensions>
      </trkpt>
      <trkpt lat="61.0986778668" lon="14.252499863">
        <ele>215.4</ele>
        <time>2011-05-24T14:09:19Z</time>
        <extensions><gpxtpx:TrackPointExtension><gpxtpx:hr>147</gpxtpx:hr></gpxtpx:TrackPointExtension></extensions>
      </trkpt>
      <trkpt lat="61.0985352069" lon="14.2527965823">
        <ele>215.2</ele>
        <time>2011-05-24T14:09:21Z</time>
        <extensions><gpxtpx:TrackPointExtension><gpxtpx:hr>148</gpxtpx:hr></gpxtpx:TrackPointExtension></extensions>
      </trkpt>
      <trkpt lat="61.0983815667" lon="14.2531063773">
        <ele>215.2</ele>
        <time>2011-05-24T14:09:23Z</time>
        <extensions><gpxtpx:TrackPointExtension><gpxtpx:hr>149</gpxtpx:hr></gpxtpx:TrackPointExtension></extensions>
      </trkpt>
      <trkpt lat="61.098245277" lon="14.2533849916">
        <ele>214.6</ele>
        <time>2011-05-24T14:09:25Z</time>
        <extensions><gpxtpx:TrackPointExtension><gpxtpx:hr>149</gpxtpx:hr></gpxtpx:TrackPointExtension></extensions>
      </trkpt>
      <trkpt lat="61.0981106637" lon="14.2536504464">
        <ele>214.2</ele>
        <time>2011-05-24T14:09:27Z</time>
        <extensions><gpxtpx:TrackPointExtension><gpxtpx:hr>148</gpxtpx:hr></gpxtpx:TrackPointExtension></extensions>
      </trkpt>
      <trkpt lat="61.097974374" lon="14.253922942">
        <ele>214</ele>
        <time>2011-05-24T14:09:29Z</time>
        <extensions><gpxtpx:TrackPointExtension><gpxtpx:hr>149</gpxtpx:hr></gpxtpx:TrackPointExtension></extensions>
      </trkpt>
      <trkpt lat="61.0977897207" lon="14.2542979482">
        <ele>213.6</ele>
        <time>2011-05-24T14:09:32Z</time>
        <extensions><gpxtpx:TrackPointExtension><gpxtpx:hr>149</gpxtpx:hr></gpxtpx:TrackPointExtension></extensions>
      </trkpt>
      <trkpt lat="61.0976204063" lon="14.2546304582">
        <ele>213</ele>
        <time>2011-05-24T14:09:35Z</time>
        <extensions><gpxtpx:TrackPointExtension><gpxtpx:hr>149</gpxtpx:hr></gpxtpx:TrackPointExtension></extensions>
      </trkpt>
      <trkpt lat="61.0974574622" lon="14.2549545024">
        <ele>212.2</ele>
        <time>2011-05-24T14:09:38Z</time>
        <extensions><gpxtpx:TrackPointExtension><gpxtpx:hr>150</gpxtpx:hr></gpxtpx:TrackPointExtension></extensions>
      </trkpt>
      <trkpt lat="61.0973081805" lon="14.2552354637">
        <ele>211.8</ele>
        <time>2011-05-24T14:09:41Z</time>
        <extensions><gpxtpx:TrackPointExtension><gpxtpx:hr>150</gpxtpx:hr></gpxtpx:TrackPointExtension></extensions>
      </trkpt>
      <trkpt lat="61.0971531992" lon="14.255499745">
        <ele>211.4</ele>
        <time>2011-05-24T14:09:44Z</time>
        <extensions><gpxtpx:TrackPointExtension><gpxtpx:hr>150</gpxtpx:hr></gpxtpx:TrackPointExtension></extensions>
      </trkpt>
      <trkpt lat="61.0969984693" lon="14.2557429039">
        <ele>211.2</ele>
        <time>2011-05-24T14:09:47Z</time>
        <extensions><gpxtpx:TrackPointExtension><gpxtpx:hr>151</gpxtpx:hr></gpxtpx:TrackPointExtension></extensions>
      </trkpt>
      <trkpt lat="61.0968361119" lon="14.2559785191">
        <ele>211</ele>
        <time>2011-05-24T14:09:50Z</time>
        <extensions><gpxtpx:TrackPointExtension><gpxtpx:hr>152</gpxtpx:hr></gpxtpx:TrackPointExtension></extensions>
      </trkpt>
      <trkpt lat="61.0966715752" lon="14.2562127094">
        <ele>211</ele>
        <time>2011-05-24T14:09:53Z</time>
        <extensions><gpxtpx:TrackPointExtension><gpxtpx:hr>152</gpxtpx:hr></gpxtpx:TrackPointExtension></extensions>
      </trkpt>
      <trkpt lat="61.0965074576" lon="14.2564571256">
        <ele>210.8</ele>
        <time>2011-05-24T14:09:56Z</time>
        <extensions><gpxtpx:TrackPointExtension><gpxtpx:hr>152</gpxtpx:hr></gpxtpx:TrackPointExtension></extensions>
      </trkpt>
      <trkpt lat="61.0963376403" lon="14.2567646575">
        <ele>210.8</ele>
        <time>2011-05-24T14:09:59Z</time>
        <extensions><gpxtpx:TrackPointExtension><gpxtpx:hr>152</gpxtpx:hr></gpxtpx:TrackPointExtension></extensions>
      </trkpt>
      <trkpt lat="61.0962754466" lon="14.2568697666">
        <ele>210.8</ele>
        <time>2011-05-24T14:10:00Z</time>
        <extensions><gpxtpx:TrackPointExtension><gpxtpx:hr>151</gpxtpx:hr></gpxtpx:TrackPointExtension></extensions>
      </trkpt>
      <trkpt lat="61.0960865186" lon="14.2572200462">
        <ele>210.6</ele>
        <time>2011-05-24T14:10:03Z</time>
        <extensions><gpxtpx:TrackPointExtension><gpxtpx:hr>152</gpxtpx:hr></gpxtpx:TrackPointExtension></extensions>
      </trkpt>
      <trkpt lat="61.0959165337" lon="14.2575756064">
        <ele>210.6</ele>
        <time>2011-05-24T14:10:06Z</time>
        <extensions><gpxtpx:TrackPointExtension><gpxtpx:hr>153</gpxtpx:hr></gpxtpx:TrackPointExtension></extensions>
      </trkpt>
      <trkpt lat="61.0957574452" lon="14.2579443262">
        <ele>210.6</ele>
        <time>2011-05-24T14:10:09Z</time>
        <extensions><gpxtpx:TrackPointExtension><gpxtpx:hr>155</gpxtpx:hr></gpxtpx:TrackPointExtension></extensions>
      </trkpt>
      <trkpt lat="61.0956312138" lon="14.2583287201">
        <ele>210.6</ele>
        <time>2011-05-24T14:10:12Z</time>
        <extensions><gpxtpx:TrackPointExtension><gpxtpx:hr>156</gpxtpx:hr></gpxtpx:TrackPointExtension></extensions>
      </trkpt>
      <trkpt lat="61.0955385938" lon="14.2587049836">
        <ele>210.6</ele>
        <time>2011-05-24T14:10:15Z</time>
        <extensions><gpxtpx:TrackPointExtension><gpxtpx:hr>156</gpxtpx:hr></gpxtpx:TrackPointExtension></extensions>
      </trkpt>
      <trkpt lat="61.0955156274" lon="14.2588335619">
        <ele>210.6</ele>
        <time>2011-05-24T14:10:16Z</time>
        <extensions><gpxtpx:TrackPointExtension><gpxtpx:hr>156</gpxtpx:hr></gpxtpx:TrackPointExtension></extensions>
      </trkpt>
      <trkpt lat="61.0954509191" lon="14.2592474601">
        <ele>210.6</ele>
        <time>2011-05-24T14:10:19Z</time>
        <extensions><gpxtpx:TrackPointExtension><gpxtpx:hr>156</gpxtpx:hr></gpxtpx:TrackPointExtension></extensions>
      </trkpt>
      <trkpt lat="61.0954002925" lon="14.2596438402">
        <ele>210.6</ele>
        <time>2011-05-24T14:10:22Z</time>
        <extensions><gpxtpx:TrackPointExtension><gpxtpx:hr>156</gpxtpx:hr></gpxtpx:TrackPointExtension></extensions>
      </trkpt>
      <trkpt lat="61.0952987877" lon="14.2603288929">
        <ele>210.6</ele>
        <time>2011-05-24T14:10:27Z</time>
        <extensions><gpxtpx:TrackPointExtension><gpxtpx:hr>155</gpxtpx:hr></gpxtpx:TrackPointExtension></extensions>
      </trkpt>
      <trkpt lat="61.0952778329" lon="14.2604557949">
        <ele>210.6</ele>
        <time>2011-05-24T14:10:28Z</time>
        <extensions><gpxtpx:TrackPointExtension><gpxtpx:hr>155</gpxtpx:hr></gpxtpx:TrackPointExtension></extensions>
      </trkpt>
      <trkpt lat="61.0951624141" lon="14.2609411069">
        <ele>210.6</ele>
        <time>2011-05-24T14:10:32Z</time>
        <extensions><gpxtpx:TrackPointExtension><gpxtpx:hr>154</gpxtpx:hr></gpxtpx:TrackPointExtension></extensions>
      </trkpt>
      <trkpt lat="61.0950704647" lon="14.2612959965">
        <ele>210.6</ele>
        <time>2011-05-24T14:10:35Z</time>
        <extensions><gpxtpx:TrackPointExtension><gpxtpx:hr>153</gpxtpx:hr></gpxtpx:TrackPointExtension></extensions>
      </trkpt>
      <trkpt lat="61.0949671997" lon="14.2616609444">
        <ele>210.6</ele>
        <time>2011-05-24T14:10:38Z</time>
        <extensions><gpxtpx:TrackPointExtension><gpxtpx:hr>153</gpxtpx:hr></gpxtpx:TrackPointExtension></extensions>
      </trkpt>
      <trkpt lat="61.0948601628" lon="14.262063108">
        <ele>210.6</ele>
        <time>2011-05-24T14:10:41Z</time>
        <extensions><gpxtpx:TrackPointExtension><gpxtpx:hr>152</gpxtpx:hr></gpxtpx:TrackPointExtension></extensions>
      </trkpt>
      <trkpt lat="61.0947505276" lon="14.2624563867">
        <ele>210.6</ele>
        <time>2011-05-24T14:10:44Z</time>
        <extensions><gpxtpx:TrackPointExtension><gpxtpx:hr>153</gpxtpx:hr></gpxtpx:TrackPointExtension></extensions>
      </trkpt>
      <trkpt lat="61.0946361146" lon="14.2628611487">
        <ele>210.6</ele>
        <time>2011-05-24T14:10:47Z</time>
        <extensions><gpxtpx:TrackPointExtension><gpxtpx:hr>152</gpxtpx:hr></gpxtpx:TrackPointExtension></extensions>
      </trkpt>
      <trkpt lat="61.0945092965" lon="14.2633124302">
        <ele>210.6</ele>
        <time>2011-05-24T14:10:50Z</time>
        <extensions><gpxtpx:TrackPointExtension><gpxtpx:hr>152</gpxtpx:hr></gpxtpx:TrackPointExtension></extensions>
      </trkpt>
      <trkpt lat="61.094385412" lon="14.2637624544">
        <ele>210.6</ele>
        <time>2011-05-24T14:10:53Z</time>
        <extensions><gpxtpx:TrackPointExtension><gpxtpx:hr>153</gpxtpx:hr></gpxtpx:TrackPointExtension></extensions>
      </trkpt>
      <trkpt lat="61.0942663052" lon="14.2641895122">
        <ele>210.6</ele>
        <time>2011-05-24T14:10:56Z</time>
        <extensions><gpxtpx:TrackPointExtension><gpxtpx:hr>152</gpxtpx:hr></gpxtpx:TrackPointExtension></extensions>
      </trkpt>
      <trkpt lat="61.0941447677" lon="14.2646355131">
        <ele>210.6</ele>
        <time>2011-05-24T14:10:59Z</time>
        <extensions><gpxtpx:TrackPointExtension><gpxtpx:hr>152</gpxtpx:hr></gpxtpx:TrackPointExtension></extensions>
      </trkpt>
      <trkpt lat="61.0940333722" lon="14.265055111">
        <ele>210.6</ele>
        <time>2011-05-24T14:11:02Z</time>
        <extensions><gpxtpx:TrackPointExtension><gpxtpx:hr>151</gpxtpx:hr></gpxtpx:TrackPointExtension></extensions>
      </trkpt>
      <trkpt lat="61.0939188755" lon="14.2654763015">
        <ele>210.6</ele>
        <time>2011-05-24T14:11:05Z</time>
        <extensions><gpxtpx:TrackPointExtension><gpxtpx:hr>149</gpxtpx:hr></gpxtpx:TrackPointExtension></extensions>
      </trkpt>
      <trkpt lat="61.0938018641" lon="14.2659067959">
        <ele>210.4</ele>
        <time>2011-05-24T14:11:08Z</time>
        <extensions><gpxtpx:TrackPointExtension><gpxtpx:hr>148</gpxtpx:hr></gpxtpx:TrackPointExtension></extensions>
      </trkpt>
      <trkpt lat="61.0936871159" lon="14.2663441634">
        <ele>209.8</ele>
        <time>2011-05-24T14:11:11Z</time>
        <extensions><gpxtpx:TrackPointExtension><gpxtpx:hr>147</gpxtpx:hr></gpxtpx:TrackPointExtension></extensions>
      </trkpt>
      <trkpt lat="61.0935713619" lon="14.26677273">
        <ele>209.6</ele>
        <time>2011-05-24T14:11:14Z</time>
        <extensions><gpxtpx:TrackPointExtension><gpxtpx:hr>147</gpxtpx:hr></gpxtpx:TrackPointExtension></extensions>
      </trkpt>
      <trkpt lat="61.0934447952" lon="14.2672102651">
        <ele>209.2</ele>
        <time>2011-05-24T14:11:17Z</time>
        <extensions><gpxtpx:TrackPointExtension><gpxtpx:hr>147</gpxtpx:hr></gpxtpx:TrackPointExtension></extensions>
      </trkpt>
      <trkpt lat="61.0929052523" lon="14.2686744154">
        <ele>208.8</ele>
        <time>2011-05-24T14:11:28Z</time>
        <extensions><gpxtpx:TrackPointExtension><gpxtpx:hr>147</gpxtpx:hr></gpxtpx:TrackPointExtension></extensions>
      </trkpt>
      <trkpt lat="61.0927335072" lon="14.2690128766">
        <ele>208.8</ele>
        <time>2011-05-24T14:11:31Z</time>
        <extensions><gpxtpx:TrackPointExtension><gpxtpx:hr>147</gpxtpx:hr></gpxtpx:TrackPointExtension></extensions>
      </trkpt>
      <trkpt lat="61.0925905958" lon="14.2692697818">
        <ele>208.6</ele>
        <time>2011-05-24T14:11:33Z</time>
        <extensions><gpxtpx:TrackPointExtension><gpxtpx:hr>147</gpxtpx:hr></gpxtpx:TrackPointExtension></extensions>
      </trkpt>
      <trkpt lat="61.0923958004" lon="14.2696081591">
        <ele>208.6</ele>
        <time>2011-05-24T14:11:36Z</time>
        <extensions><gpxtpx:TrackPointExtension><gpxtpx:hr>147</gpxtpx:hr></gpxtpx:TrackPointExtension></extensions>
      </trkpt>
      <trkpt lat="61.0921964788" lon="14.2699469555">
        <ele>208.6</ele>
        <time>2011-05-24T14:11:39Z</time>
        <extensions><gpxtpx:TrackPointExtension><gpxtpx:hr>147</gpxtpx:hr></gpxtpx:TrackPointExtension></extensions>
      </trkpt>
      <trkpt lat="61.0920043657" lon="14.2702699101">
        <ele>208.6</ele>
        <time>2011-05-24T14:11:42Z</time>
        <extensions><gpxtpx:TrackPointExtension><gpxtpx:hr>146</gpxtpx:hr></gpxtpx:TrackPointExtension></extensions>
      </trkpt>
      <trkpt lat="61.0918042897" lon="14.2706149091">
        <ele>208.6</ele>
        <time>2011-05-24T14:11:45Z</time>
        <extensions><gpxtpx:TrackPointExtension><gpxtpx:hr>145</gpxtpx:hr></gpxtpx:TrackPointExtension></extensions>
      </trkpt>
      <trkpt lat="61.0916045491" lon="14.270957645">
        <ele>208.6</ele>
        <time>2011-05-24T14:11:48Z</time>
        <extensions><gpxtpx:TrackPointExtension><gpxtpx:hr>146</gpxtpx:hr></gpxtpx:TrackPointExtension></extensions>
      </trkpt>
      <trkpt lat="61.0914138608" lon="14.2713284603">
        <ele>208.6</ele>
        <time>2011-05-24T14:11:51Z</time>
        <extensions><gpxtpx:TrackPointExtension><gpxtpx:hr>146</gpxtpx:hr></gpxtpx:TrackPointExtension></extensions>
      </trkpt>
      <trkpt lat="61.0912496594" lon="14.2717243374">
        <ele>208.6</ele>
        <time>2011-05-24T14:11:54Z</time>
        <extensions><gpxtpx:TrackPointExtension><gpxtpx:hr>147</gpxtpx:hr></gpxtpx:TrackPointExtension></extensions>
      </trkpt>
      <trkpt lat="61.0911147946" lon="14.2721354696">
        <ele>208.6</ele>
        <time>2011-05-24T14:11:57Z</time>
        <extensions><gpxtpx:TrackPointExtension><gpxtpx:hr>148</gpxtpx:hr></gpxtpx:TrackPointExtension></extensions>
      </trkpt>
      <trkpt lat="61.0909882279" lon="14.2725782854">
        <ele>208.6</ele>
        <time>2011-05-24T14:12:00Z</time>
        <extensions><gpxtpx:TrackPointExtension><gpxtpx:hr>148</gpxtpx:hr></gpxtpx:TrackPointExtension></extensions>
      </trkpt>
      <trkpt lat="61.0908723901" lon="14.273000314">
        <ele>208.6</ele>
        <time>2011-05-24T14:12:03Z</time>
        <extensions><gpxtpx:TrackPointExtension><gpxtpx:hr>149</gpxtpx:hr></gpxtpx:TrackPointExtension></extensions>
      </trkpt>
      <trkpt lat="61.0907557979" lon="14.2734197443">
        <ele>208.6</ele>
        <time>2011-05-24T14:12:06Z</time>
        <extensions><gpxtpx:TrackPointExtension><gpxtpx:hr>149</gpxtpx:hr></gpxtpx:TrackPointExtension></extensions>
      </trkpt>
      <trkpt lat="61.0906342603" lon="14.2738556031">
        <ele>208.6</ele>
        <time>2011-05-24T14:12:09Z</time>
        <extensions><gpxtpx:TrackPointExtension><gpxtpx:hr>149</gpxtpx:hr></gpxtpx:TrackPointExtension></extensions>
      </trkpt>
      <trkpt lat="61.090511214" lon="14.2742919648">
        <ele>208.6</ele>
        <time>2011-05-24T14:12:12Z</time>
        <extensions><gpxtpx:TrackPointExtension><gpxtpx:hr>149</gpxtpx:hr></gpxtpx:TrackPointExtension></extensions>
      </trkpt>
      <trkpt lat="61.0903861561" lon="14.2747403965">
        <ele>208.6</ele>
        <time>2011-05-24T14:12:15Z</time>
        <extensions><gpxtpx:TrackPointExtension><gpxtpx:hr>149</gpxtpx:hr></gpxtpx:TrackPointExtension></extensions>
      </trkpt>
      <trkpt lat="61.0902610143" lon="14.2751454937">
        <ele>208.6</ele>
        <time>2011-05-24T14:12:18Z</time>
        <extensions><gpxtpx:TrackPointExtension><gpxtpx:hr>150</gpxtpx:hr></gpxtpx:TrackPointExtension></extensions>
      </trkpt>
      <trkpt lat="61.0901354534" lon="14.2755887286">
        <ele>208.6</ele>
        <time>2011-05-24T14:12:21Z</time>
        <extensions><gpxtpx:TrackPointExtension><gpxtpx:hr>149</gpxtpx:hr></gpxtpx:TrackPointExtension></extensions>
      </trkpt>
      <trkpt lat="61.0900389778" lon="14.2759140301">
        <ele>208.6</ele>
        <time>2011-05-24T14:12:23Z</time>
        <extensions><gpxtpx:TrackPointExtension><gpxtpx:hr>149</gpxtpx:hr></gpxtpx:TrackPointExtension></extensions>
      </trkpt>
      <trkpt lat="61.0899336173" lon="14.2762716858">
        <ele>208.6</ele>
        <time>2011-05-24T14:12:26Z</time>
        <extensions><gpxtpx:TrackPointExtension><gpxtpx:hr>149</gpxtpx:hr></gpxtpx:TrackPointExtension></extensions>
      </trkpt>
      <trkpt lat="61.0898294303" lon="14.2766519726">
        <ele>208.6</ele>
        <time>2011-05-24T14:12:28Z</time>
        <extensions><gpxtpx:TrackPointExtension><gpxtpx:hr>149</gpxtpx:hr></gpxtpx:TrackPointExtension></extensions>
      </trkpt>
      <trkpt lat="61.089703115" lon="14.2771234545">
        <ele>208.6</ele>
        <time>2011-05-24T14:12:31Z</time>
        <extensions><gpxtpx:TrackPointExtension><gpxtpx:hr>149</gpxtpx:hr></gpxtpx:TrackPointExtension></extensions>
      </trkpt>
      <trkpt lat="61.0895768836" lon="14.2775781725">
        <ele>208.6</ele>
        <time>2011-05-24T14:12:34Z</time>
        <extensions><gpxtpx:TrackPointExtension><gpxtpx:hr>148</gpxtpx:hr></gpxtpx:TrackPointExtension></extensions>
      </trkpt>
      <trkpt lat="61.0894565195" lon="14.2779989439">
        <ele>208.6</ele>
        <time>2011-05-24T14:12:37Z</time>
        <extensions><gpxtpx:TrackPointExtension><gpxtpx:hr>147</gpxtpx:hr></gpxtpx:TrackPointExtension></extensions>
      </trkpt>
      <trkpt lat="61.0893400949" lon="14.2784217269">
        <ele>208.6</ele>
        <time>2011-05-24T14:12:40Z</time>
        <extensions><gpxtpx:TrackPointExtension><gpxtpx:hr>146</gpxtpx:hr></gpxtpx:TrackPointExtension></extensions>
      </trkpt>
      <trkpt lat="61.0892204014" lon="14.2788450967">
        <ele>208.6</ele>
        <time>2011-05-24T14:12:43Z</time>
        <extensions><gpxtpx:TrackPointExtension><gpxtpx:hr>146</gpxtpx:hr></gpxtpx:TrackPointExtension></extensions>
      </trkpt>
      <trkpt lat="61.0890971037" lon="14.2793011559">
        <ele>208.2</ele>
        <time>2011-05-24T14:12:46Z</time>
        <extensions><gpxtpx:TrackPointExtension><gpxtpx:hr>146</gpxtpx:hr></gpxtpx:TrackPointExtension></extensions>
      </trkpt>
      <trkpt lat="61.088976991" lon="14.2797313988">
        <ele>207.6</ele>
        <time>2011-05-24T14:12:49Z</time>
        <extensions><gpxtpx:TrackPointExtension><gpxtpx:hr>147</gpxtpx:hr></gpxtpx:TrackPointExtension></extensions>
      </trkpt>
      <trkpt lat="61.0888582195" lon="14.2801551877">
        <ele>207.4</ele>
        <time>2011-05-24T14:12:52Z</time>
        <extensions><gpxtpx:TrackPointExtension><gpxtpx:hr>146</gpxtpx:hr></gpxtpx:TrackPointExtension></extensions>
      </trkpt>
      <trkpt lat="61.0887314014" lon="14.2805656493">
        <ele>207</ele>
        <time>2011-05-24T14:12:55Z</time>
        <extensions><gpxtpx:TrackPointExtension><gpxtpx:hr>147</gpxtpx:hr></gpxtpx:TrackPointExtension></extensions>
      </trkpt>
      <trkpt lat="61.0885978777" lon="14.2809538151">
        <ele>207</ele>
        <time>2011-05-24T14:12:58Z</time>
        <extensions><gpxtpx:TrackPointExtension><gpxtpx:hr>147</gpxtpx:hr></gpxtpx:TrackPointExtension></extensions>
      </trkpt>
      <trkpt lat="61.0884666171" lon="14.2813189307">
        <ele>206.8</ele>
        <time>2011-05-24T14:13:01Z</time>
        <extensions><gpxtpx:TrackPointExtension><gpxtpx:hr>146</gpxtpx:hr></gpxtpx:TrackPointExtension></extensions>
      </trkpt>
      <trkpt lat="61.088326388" lon="14.2816365209">
        <ele>206.6</ele>
        <time>2011-05-24T14:13:04Z</time>
        <extensions><gpxtpx:TrackPointExtension><gpxtpx:hr>146</gpxtpx:hr></gpxtpx:TrackPointExtension></extensions>
      </trkpt>
      <trkpt lat="61.0881796209" lon="14.2819324858">
        <ele>206.6</ele>
        <time>2011-05-24T14:13:07Z</time>
        <extensions><gpxtpx:TrackPointExtension><gpxtpx:hr>145</gpxtpx:hr></gpxtpx:TrackPointExtension></extensions>
      </trkpt>
      <trkpt lat="61.0880282438" lon="14.2822137823">
        <ele>206.6</ele>
        <time>2011-05-24T14:13:10Z</time>
        <extensions><gpxtpx:TrackPointExtension><gpxtpx:hr>144</gpxtpx:hr></gpxtpx:TrackPointExtension></extensions>
      </trkpt>
      <trkpt lat="61.0878580074" lon="14.2825074841">
        <ele>206.6</ele>
        <time>2011-05-24T14:13:13Z</time>
        <extensions><gpxtpx:TrackPointExtension><gpxtpx:hr>145</gpxtpx:hr></gpxtpx:TrackPointExtension></extensions>
      </trkpt>
      <trkpt lat="61.0876893636" lon="14.2827639702">
        <ele>206.4</ele>
        <time>2011-05-24T14:13:16Z</time>
        <extensions><gpxtpx:TrackPointExtension><gpxtpx:hr>146</gpxtpx:hr></gpxtpx:TrackPointExtension></extensions>
      </trkpt>
      <trkpt lat="61.0875045427" lon="14.283020624">
        <ele>206.4</ele>
        <time>2011-05-24T14:13:19Z</time>
        <extensions><gpxtpx:TrackPointExtension><gpxtpx:hr>147</gpxtpx:hr></gpxtpx:TrackPointExtension></extensions>
      </trkpt>
      <trkpt lat="61.0873250862" lon="14.2832578318">
        <ele>206.4</ele>
        <time>2011-05-24T14:13:22Z</time>
        <extensions><gpxtpx:TrackPointExtension><gpxtpx:hr>148</gpxtpx:hr></gpxtpx:TrackPointExtension></extensions>
      </trkpt>
      <trkpt lat="61.0871192267" lon="14.2835266393">
        <ele>206.4</ele>
        <time>2011-05-24T14:13:25Z</time>
        <extensions><gpxtpx:TrackPointExtension><gpxtpx:hr>148</gpxtpx:hr></gpxtpx:TrackPointExtension></extensions>
      </trkpt>
      <trkpt lat="61.0869196537" lon="14.2837947763">
        <ele>206.4</ele>
        <time>2011-05-24T14:13:28Z</time>
        <extensions><gpxtpx:TrackPointExtension><gpxtpx:hr>148</gpxtpx:hr></gpxtpx:TrackPointExtension></extensions>
      </trkpt>
      <trkpt lat="61.0867165602" lon="14.284057968">
        <ele>206.4</ele>
        <time>2011-05-24T14:13:31Z</time>
        <extensions><gpxtpx:TrackPointExtension><gpxtpx:hr>148</gpxtpx:hr></gpxtpx:TrackPointExtension></extensions>
      </trkpt>
      <trkpt lat="61.0865165681" lon="14.2843117719">
        <ele>206.4</ele>
        <time>2011-05-24T14:13:34Z</time>
        <extensions><gpxtpx:TrackPointExtension><gpxtpx:hr>148</gpxtpx:hr></gpxtpx:TrackPointExtension></extensions>
      </trkpt>
      <trkpt lat="61.0863029135" lon="14.2845899672">
        <ele>206.4</ele>
        <time>2011-05-24T14:13:37Z</time>
        <extensions><gpxtpx:TrackPointExtension><gpxtpx:hr>148</gpxtpx:hr></gpxtpx:TrackPointExtension></extensions>
      </trkpt>
      <trkpt lat="61.0860874987" lon="14.2848612054">
        <ele>206.4</ele>
        <time>2011-05-24T14:13:40Z</time>
        <extensions><gpxtpx:TrackPointExtension><gpxtpx:hr>149</gpxtpx:hr></gpxtpx:TrackPointExtension></extensions>
      </trkpt>
      <trkpt lat="61.0858792923" lon="14.2851317732">
        <ele>206.4</ele>
        <time>2011-05-24T14:13:43Z</time>
        <extensions><gpxtpx:TrackPointExtension><gpxtpx:hr>150</gpxtpx:hr></gpxtpx:TrackPointExtension></extensions>
      </trkpt>
      <trkpt lat="61.0856713373" lon="14.2853946296">
        <ele>206.4</ele>
        <time>2011-05-24T14:13:46Z</time>
        <extensions><gpxtpx:TrackPointExtension><gpxtpx:hr>150</gpxtpx:hr></gpxtpx:TrackPointExtension></extensions>
      </trkpt>
      <trkpt lat="61.0854544976" lon="14.2856660355">
        <ele>206.4</ele>
        <time>2011-05-24T14:13:49Z</time>
        <extensions><gpxtpx:TrackPointExtension><gpxtpx:hr>150</gpxtpx:hr></gpxtpx:TrackPointExtension></extensions>
      </trkpt>
      <trkpt lat="61.0852476323" lon="14.2859235274">
        <ele>206.4</ele>
        <time>2011-05-24T14:13:52Z</time>
        <extensions><gpxtpx:TrackPointExtension><gpxtpx:hr>150</gpxtpx:hr></gpxtpx:TrackPointExtension></extensions>
      </trkpt>
      <trkpt lat="61.0850918128" lon="14.2861213403">
        <ele>206.4</ele>
        <time>2011-05-24T14:13:54Z</time>
        <extensions><gpxtpx:TrackPointExtension><gpxtpx:hr>150</gpxtpx:hr></gpxtpx:TrackPointExtension></extensions>
      </trkpt>
      <trkpt lat="61.0848899766" lon="14.2863832747">
        <ele>206.4</ele>
        <time>2011-05-24T14:13:57Z</time>
        <extensions><gpxtpx:TrackPointExtension><gpxtpx:hr>151</gpxtpx:hr></gpxtpx:TrackPointExtension></extensions>
      </trkpt>
      <trkpt lat="61.0846776631" lon="14.2866598774">
        <ele>206.4</ele>
        <time>2011-05-24T14:14:00Z</time>
        <extensions><gpxtpx:TrackPointExtension><gpxtpx:hr>151</gpxtpx:hr></gpxtpx:TrackPointExtension></extensions>
      </trkpt>
      <trkpt lat="61.0844836221" lon="14.2869130107">
        <ele>206.8</ele>
        <time>2011-05-24T14:14:03Z</time>
        <extensions><gpxtpx:TrackPointExtension><gpxtpx:hr>151</gpxtpx:hr></gpxtpx:TrackPointExtension></extensions>
      </trkpt>
      <trkpt lat="61.0842996394" lon="14.2871519787">
        <ele>207.2</ele>
        <time>2011-05-24T14:14:06Z</time>
        <extensions><gpxtpx:TrackPointExtension><gpxtpx:hr>150</gpxtpx:hr></gpxtpx:TrackPointExtension></extensions>
      </trkpt>
      <trkpt lat="61.0841121363" lon="14.2873792958">
        <ele>207.6</ele>
        <time>2011-05-24T14:14:09Z</time>
        <extensions><gpxtpx:TrackPointExtension><gpxtpx:hr>150</gpxtpx:hr></gpxtpx:TrackPointExtension></extensions>
      </trkpt>
      <trkpt lat="61.0839152454" lon="14.2876268972">
        <ele>207.8</ele>
        <time>2011-05-24T14:14:12Z</time>
        <extensions><gpxtpx:TrackPointExtension><gpxtpx:hr>150</gpxtpx:hr></gpxtpx:TrackPointExtension></extensions>
      </trkpt>
      <trkpt lat="61.0837272394" lon="14.2878827966">
        <ele>208</ele>
        <time>2011-05-24T14:14:15Z</time>
        <extensions><gpxtpx:TrackPointExtension><gpxtpx:hr>150</gpxtpx:hr></gpxtpx:TrackPointExtension></extensions>
      </trkpt>
      <trkpt lat="61.0835481182" lon="14.2881261231">
        <ele>208.2</ele>
        <time>2011-05-24T14:14:18Z</time>
        <extensions><gpxtpx:TrackPointExtension><gpxtpx:hr>150</gpxtpx:hr></gpxtpx:TrackPointExtension></extensions>
      </trkpt>
      <trkpt lat="61.0833727689" lon="14.288341538">
        <ele>208.8</ele>
        <time>2011-05-24T14:14:21Z</time>
        <extensions><gpxtpx:TrackPointExtension><gpxtpx:hr>151</gpxtpx:hr></gpxtpx:TrackPointExtension></extensions>
      </trkpt>
      <trkpt lat="61.0832114173" lon="14.2885661729">
        <ele>209.2</ele>
        <time>2011-05-24T14:14:24Z</time>
        <extensions><gpxtpx:TrackPointExtension><gpxtpx:hr>152</gpxtpx:hr></gpxtpx:TrackPointExtension></extensions>
      </trkpt>
      <trkpt lat="61.0830615489" lon="14.2887921489">
        <ele>209.6</ele>
        <time>2011-05-24T14:14:27Z</time>
        <extensions><gpxtpx:TrackPointExtension><gpxtpx:hr>152</gpxtpx:hr></gpxtpx:TrackPointExtension></extensions>
      </trkpt>
      <trkpt lat="61.0828371655" lon="14.2892249064">
        <ele>210.6</ele>
        <time>2011-05-24T14:14:32Z</time>
        <extensions><gpxtpx:TrackPointExtension><gpxtpx:hr>153</gpxtpx:hr></gpxtpx:TrackPointExtension></extensions>
      </trkpt>
      <trkpt lat="61.0826666776" lon="14.289683564">
        <ele>211.2</ele>
        <time>2011-05-24T14:14:36Z</time>
        <extensions><gpxtpx:TrackPointExtension><gpxtpx:hr>153</gpxtpx:hr></gpxtpx:TrackPointExtension></extensions>
      </trkpt>
      <trkpt lat="61.0825455592" lon="14.2900895832">
        <ele>211.6</ele>
        <time>2011-05-24T14:14:39Z</time>
        <extensions><gpxtpx:TrackPointExtension><gpxtpx:hr>153</gpxtpx:hr></gpxtpx:TrackPointExtension></extensions>
      </trkpt>
      <trkpt lat="61.0824299728" lon="14.2905123662">
        <ele>212</ele>
        <time>2011-05-24T14:14:42Z</time>
        <extensions><gpxtpx:TrackPointExtension><gpxtpx:hr>154</gpxtpx:hr></gpxtpx:TrackPointExtension></extensions>
      </trkpt>
      <trkpt lat="61.0823041605" lon="14.2909750471">
        <ele>212.2</ele>
        <time>2011-05-24T14:14:45Z</time>
        <extensions><gpxtpx:TrackPointExtension><gpxtpx:hr>155</gpxtpx:hr></gpxtpx:TrackPointExtension></extensions>
      </trkpt>
      <trkpt lat="61.0821862271" lon="14.2914135881">
        <ele>212.4</ele>
        <time>2011-05-24T14:14:48Z</time>
        <extensions><gpxtpx:TrackPointExtension><gpxtpx:hr>156</gpxtpx:hr></gpxtpx:TrackPointExtension></extensions>
      </trkpt>
      <trkpt lat="61.082062175" lon="14.2918769396">
        <ele>212.4</ele>
        <time>2011-05-24T14:14:51Z</time>
        <extensions><gpxtpx:TrackPointExtension><gpxtpx:hr>155</gpxtpx:hr></gpxtpx:TrackPointExtension></extensions>
      </trkpt>
      <trkpt lat="61.081974668" lon="14.2922091143">
        <ele>212.4</ele>
        <time>2011-05-24T14:14:53Z</time>
        <extensions><gpxtpx:TrackPointExtension><gpxtpx:hr>156</gpxtpx:hr></gpxtpx:TrackPointExtension></extensions>
      </trkpt>
      <trkpt lat="61.0818499453" lon="14.2926811829">
        <ele>212.6</ele>
        <time>2011-05-24T14:14:56Z</time>
        <extensions><gpxtpx:TrackPointExtension><gpxtpx:hr>155</gpxtpx:hr></gpxtpx:TrackPointExtension></extensions>
      </trkpt>
      <trkpt lat="61.0817271505" lon="14.2931618848">
        <ele>212.6</ele>
        <time>2011-05-24T14:14:59Z</time>
        <extensions><gpxtpx:TrackPointExtension><gpxtpx:hr>154</gpxtpx:hr></gpxtpx:TrackPointExtension></extensions>
      </trkpt>
      <trkpt lat="61.081607876" lon="14.2936176087">
        <ele>212.6</ele>
        <time>2011-05-24T14:15:02Z</time>
        <extensions><gpxtpx:TrackPointExtension><gpxtpx:hr>153</gpxtpx:hr></gpxtpx:TrackPointExtension></extensions>
      </trkpt>
      <trkpt lat="61.0814741009" lon="14.2941071955">
        <ele>212.6</ele>
        <time>2011-05-24T14:15:05Z</time>
        <extensions><gpxtpx:TrackPointExtension><gpxtpx:hr>153</gpxtpx:hr></gpxtpx:TrackPointExtension></extensions>
      </trkpt>
      <trkpt lat="61.0813487077" lon="14.2945813596">
        <ele>212.6</ele>
        <time>2011-05-24T14:15:08Z</time>
        <extensions><gpxtpx:TrackPointExtension><gpxtpx:hr>152</gpxtpx:hr></gpxtpx:TrackPointExtension></extensions>
      </trkpt>
      <trkpt lat="61.0812361388" lon="14.2950250974">
        <ele>212.6</ele>
        <time>2011-05-24T14:15:11Z</time>
        <extensions><gpxtpx:TrackPointExtension><gpxtpx:hr>152</gpxtpx:hr></gpxtpx:TrackPointExtension></extensions>
      </trkpt>
      <trkpt lat="61.0811168643" lon="14.2955044582">
        <ele>212.6</ele>
        <time>2011-05-24T14:15:14Z</time>
        <extensions><gpxtpx:TrackPointExtension><gpxtpx:hr>153</gpxtpx:hr></gpxtpx:TrackPointExtension></extensions>
      </trkpt>
      <trkpt lat="61.0810068938" lon="14.295941742">
        <ele>212.6</ele>
        <time>2011-05-24T14:15:17Z</time>
        <extensions><gpxtpx:TrackPointExtension><gpxtpx:hr>153</gpxtpx:hr></gpxtpx:TrackPointExtension></extensions>
      </trkpt>
      <trkpt lat="61.0808958336" lon="14.2963961248">
        <ele>212.8</ele>
        <time>2011-05-24T14:15:20Z</time>
        <extensions><gpxtpx:TrackPointExtension><gpxtpx:hr>152</gpxtpx:hr></gpxtpx:TrackPointExtension></extensions>
      </trkpt>
      <trkpt lat="61.0808156188" lon="14.2968061673">
        <ele>212.8</ele>
        <time>2011-05-24T14:15:23Z</time>
        <extensions><gpxtpx:TrackPointExtension><gpxtpx:hr>152</gpxtpx:hr></gpxtpx:TrackPointExtension></extensions>
      </trkpt>
      <trkpt lat="61.0807395112" lon="14.2973242526">
        <ele>212.8</ele>
        <time>2011-05-24T14:15:26Z</time>
        <extensions><gpxtpx:TrackPointExtension><gpxtpx:hr>152</gpxtpx:hr></gpxtpx:TrackPointExtension></extensions>
      </trkpt>
      <trkpt lat="61.0806872081" lon="14.2978285915">
        <ele>212.8</ele>
        <time>2011-05-24T14:15:29Z</time>
        <extensions><gpxtpx:TrackPointExtension><gpxtpx:hr>153</gpxtpx:hr></gpxtpx:TrackPointExtension></extensions>
      </trkpt>
      <trkpt lat="61.0806625653" lon="14.2981968922">
        <ele>212.8</ele>
        <time>2011-05-24T14:15:31Z</time>
        <extensions><gpxtpx:TrackPointExtension><gpxtpx:hr>152</gpxtpx:hr></gpxtpx:TrackPointExtension></extensions>
      </trkpt>
      <trkpt lat="61.0806358271" lon="14.2987495946">
        <ele>212.8</ele>
        <time>2011-05-24T14:15:34Z</time>
        <extensions><gpxtpx:TrackPointExtension><gpxtpx:hr>153</gpxtpx:hr></gpxtpx:TrackPointExtension></extensions>
      </trkpt>
      <trkpt lat="61.0806146209" lon="14.2991353297">
        <ele>212.8</ele>
        <time>2011-05-24T14:15:36Z</time>
        <extensions><gpxtpx:TrackPointExtension><gpxtpx:hr>152</gpxtpx:hr></gpxtpx:TrackPointExtension></extensions>
      </trkpt>
      <trkpt lat="61.0806057361" lon="14.2995101683">
        <ele>212.8</ele>
        <time>2011-05-24T14:15:38Z</time>
        <extensions><gpxtpx:TrackPointExtension><gpxtpx:hr>152</gpxtpx:hr></gpxtpx:TrackPointExtension></extensions>
      </trkpt>
      <trkpt lat="61.0806052331" lon="14.2998817379">
        <ele>212.8</ele>
        <time>2011-05-24T14:15:40Z</time>
        <extensions><gpxtpx:TrackPointExtension><gpxtpx:hr>152</gpxtpx:hr></gpxtpx:TrackPointExtension></extensions>
      </trkpt>
      <trkpt lat="61.080615962" lon="14.3000611105">
        <ele>212.8</ele>
        <time>2011-05-24T14:15:41Z</time>
        <extensions><gpxtpx:TrackPointExtension><gpxtpx:hr>153</gpxtpx:hr></gpxtpx:TrackPointExtension></extensions>
      </trkpt>
      <trkpt lat="61.0806514174" lon="14.3004450016">
        <ele>212.8</ele>
        <time>2011-05-24T14:15:43Z</time>
        <extensions><gpxtpx:TrackPointExtension><gpxtpx:hr>152</gpxtpx:hr></gpxtpx:TrackPointExtension></extensions>
      </trkpt>
      <trkpt lat="61.0806852803" lon="14.3008164874">
        <ele>212.8</ele>
        <time>2011-05-24T14:15:45Z</time>
        <extensions><gpxtpx:TrackPointExtension><gpxtpx:hr>152</gpxtpx:hr></gpxtpx:TrackPointExtension></extensions>
      </trkpt>
      <trkpt lat="61.0807533413" lon="14.301324682">
        <ele>212.8</ele>
        <time>2011-05-24T14:15:48Z</time>
        <extensions><gpxtpx:TrackPointExtension><gpxtpx:hr>151</gpxtpx:hr></gpxtpx:TrackPointExtension></extensions>
      </trkpt>
      <trkpt lat="61.0808007829" lon="14.3017014484">
        <ele>212.8</ele>
        <time>2011-05-24T14:15:50Z</time>
        <extensions><gpxtpx:TrackPointExtension><gpxtpx:hr>150</gpxtpx:hr></gpxtpx:TrackPointExtension></extensions>
      </trkpt>
      <trkpt lat="61.0808469671" lon="14.3020809808">
        <ele>212.8</ele>
        <time>2011-05-24T14:15:52Z</time>
        <extensions><gpxtpx:TrackPointExtension><gpxtpx:hr>150</gpxtpx:hr></gpxtpx:TrackPointExtension></extensions>
      </trkpt>
      <trkpt lat="61.0809033773" lon="14.3024743434">
        <ele>212.4</ele>
        <time>2011-05-24T14:15:54Z</time>
        <extensions><gpxtpx:TrackPointExtension><gpxtpx:hr>150</gpxtpx:hr></gpxtpx:TrackPointExtension></extensions>
      </trkpt>
      <trkpt lat="61.0809513218" lon="14.3028622577">
        <ele>212</ele>
        <time>2011-05-24T14:15:56Z</time>
        <extensions><gpxtpx:TrackPointExtension><gpxtpx:hr>151</gpxtpx:hr></gpxtpx:TrackPointExtension></extensions>
      </trkpt>
      <trkpt lat="61.0809996015" lon="14.3032222603">
        <ele>211.8</ele>
        <time>2011-05-24T14:15:58Z</time>
        <extensions><gpxtpx:TrackPointExtension><gpxtpx:hr>151</gpxtpx:hr></gpxtpx:TrackPointExtension></extensions>
      </trkpt>
      <trkpt lat="61.0810498929" lon="14.3035943328">
        <ele>211.6</ele>
        <time>2011-05-24T14:16:00Z</time>
        <extensions><gpxtpx:TrackPointExtension><gpxtpx:hr>152</gpxtpx:hr></gpxtpx:TrackPointExtension></extensions>
      </trkpt>
      <trkpt lat="61.0811206362" lon="14.3041315288">
        <ele>211.2</ele>
        <time>2011-05-24T14:16:03Z</time>
        <extensions><gpxtpx:TrackPointExtension><gpxtpx:hr>153</gpxtpx:hr></gpxtpx:TrackPointExtension></extensions>
      </trkpt>
      <trkpt lat="61.0811867694" lon="14.3046624384">
        <ele>211.2</ele>
        <time>2011-05-24T14:16:06Z</time>
        <extensions><gpxtpx:TrackPointExtension><gpxtpx:hr>153</gpxtpx:hr></gpxtpx:TrackPointExtension></extensions>
      </trkpt>
      <trkpt lat="61.0812513938" lon="14.3051759974">
        <ele>211</ele>
        <time>2011-05-24T14:16:09Z</time>
        <extensions><gpxtpx:TrackPointExtension><gpxtpx:hr>154</gpxtpx:hr></gpxtpx:TrackPointExtension></extensions>
      </trkpt>
      <trkpt lat="61.0813135037" lon="14.3056810907">
        <ele>210.8</ele>
        <time>2011-05-24T14:16:12Z</time>
        <extensions><gpxtpx:TrackPointExtension><gpxtpx:hr>154</gpxtpx:hr></gpxtpx:TrackPointExtension></extensions>
      </trkpt>
      <trkpt lat="61.0813720932" lon="14.3061922189">
        <ele>210.8</ele>
        <time>2011-05-24T14:16:15Z</time>
        <extensions><gpxtpx:TrackPointExtension><gpxtpx:hr>154</gpxtpx:hr></gpxtpx:TrackPointExtension></extensions>
      </trkpt>
      <trkpt lat="61.0814336163" lon="14.3066914449">
        <ele>210.8</ele>
        <time>2011-05-24T14:16:18Z</time>
        <extensions><gpxtpx:TrackPointExtension><gpxtpx:hr>155</gpxtpx:hr></gpxtpx:TrackPointExtension></extensions>
      </trkpt>
      <trkpt lat="61.081500923" lon="14.3071981308">
        <ele>210.8</ele>
        <time>2011-05-24T14:16:21Z</time>
        <extensions><gpxtpx:TrackPointExtension><gpxtpx:hr>154</gpxtpx:hr></gpxtpx:TrackPointExtension></extensions>
      </trkpt>
      <trkpt lat="61.0815439221" lon="14.3075354184">
        <ele>210.8</ele>
        <time>2011-05-24T14:16:23Z</time>
        <extensions><gpxtpx:TrackPointExtension><gpxtpx:hr>154</gpxtpx:hr></gpxtpx:TrackPointExtension></extensions>
      </trkpt>
      <trkpt lat="61.0816080437" lon="14.3082627159">
        <ele>210.6</ele>
        <time>2011-05-24T14:16:27Z</time>
        <extensions><gpxtpx:TrackPointExtension><gpxtpx:hr>154</gpxtpx:hr></gpxtpx:TrackPointExtension></extensions>
      </trkpt>
      <trkpt lat="61.0816255618" lon="14.3086389794">
        <ele>210.6</ele>
        <time>2011-05-24T14:16:29Z</time>
        <extensions><gpxtpx:TrackPointExtension><gpxtpx:hr>154</gpxtpx:hr></gpxtpx:TrackPointExtension></extensions>
      </trkpt>
      <trkpt lat="61.0816207003" lon="14.3091853954">
        <ele>210.6</ele>
        <time>2011-05-24T14:16:32Z</time>
        <extensions><gpxtpx:TrackPointExtension><gpxtpx:hr>154</gpxtpx:hr></gpxtpx:TrackPointExtension></extensions>
      </trkpt>
      <trkpt lat="61.0815859993" lon="14.3097216694">
        <ele>210.6</ele>
        <time>2011-05-24T14:16:35Z</time>
        <extensions><gpxtpx:TrackPointExtension><gpxtpx:hr>154</gpxtpx:hr></gpxtpx:TrackPointExtension></extensions>
      </trkpt>
      <trkpt lat="61.081497654" lon="14.3102260083">
        <ele>210.6</ele>
        <time>2011-05-24T14:16:38Z</time>
        <extensions><gpxtpx:TrackPointExtension><gpxtpx:hr>153</gpxtpx:hr></gpxtpx:TrackPointExtension></extensions>
      </trkpt>
      <trkpt lat="61.0813866777" lon="14.3107236417">
        <ele>210.4</ele>
        <time>2011-05-24T14:16:41Z</time>
        <extensions><gpxtpx:TrackPointExtension><gpxtpx:hr>154</gpxtpx:hr></gpxtpx:TrackPointExtension></extensions>
      </trkpt>
      <trkpt lat="61.0812811496" lon="14.3111869931">
        <ele>209.8</ele>
        <time>2011-05-24T14:16:44Z</time>
        <extensions><gpxtpx:TrackPointExtension><gpxtpx:hr>153</gpxtpx:hr></gpxtpx:TrackPointExtension></extensions>
      </trkpt>
      <trkpt lat="61.0811774655" lon="14.3116000532">
        <ele>209.6</ele>
        <time>2011-05-24T14:16:47Z</time>
        <extensions><gpxtpx:TrackPointExtension><gpxtpx:hr>152</gpxtpx:hr></gpxtpx:TrackPointExtension></extensions>
      </trkpt>
      <trkpt lat="61.0810676626" lon="14.3120411926">
        <ele>209.2</ele>
        <time>2011-05-24T14:16:50Z</time>
        <extensions><gpxtpx:TrackPointExtension><gpxtpx:hr>152</gpxtpx:hr></gpxtpx:TrackPointExtension></extensions>
      </trkpt>
      <trkpt lat="61.0809551775" lon="14.3124659873">
        <ele>209</ele>
        <time>2011-05-24T14:16:53Z</time>
        <extensions><gpxtpx:TrackPointExtension><gpxtpx:hr>152</gpxtpx:hr></gpxtpx:TrackPointExtension></extensions>
      </trkpt>
      <trkpt lat="61.0808540079" lon="14.3128740182">
        <ele>208.8</ele>
        <time>2011-05-24T14:16:56Z</time>
        <extensions><gpxtpx:TrackPointExtension><gpxtpx:hr>152</gpxtpx:hr></gpxtpx:TrackPointExtension></extensions>
      </trkpt>
      <trkpt lat="61.0807505753" lon="14.3132896766">
        <ele>208.8</ele>
        <time>2011-05-24T14:16:59Z</time>
        <extensions><gpxtpx:TrackPointExtension><gpxtpx:hr>152</gpxtpx:hr></gpxtpx:TrackPointExtension></extensions>
      </trkpt>
      <trkpt lat="61.0806526747" lon="14.3136884874">
        <ele>208.6</ele>
        <time>2011-05-24T14:17:02Z</time>
        <extensions><gpxtpx:TrackPointExtension><gpxtpx:hr>152</gpxtpx:hr></gpxtpx:TrackPointExtension></extensions>
      </trkpt>
      <trkpt lat="61.0805449673" lon="14.3141250167">
        <ele>208.6</ele>
        <time>2011-05-24T14:17:05Z</time>
        <extensions><gpxtpx:TrackPointExtension><gpxtpx:hr>152</gpxtpx:hr></gpxtpx:TrackPointExtension></extensions>
      </trkpt>
      <trkpt lat="61.0804336556" lon="14.3145591992">
        <ele>208.6</ele>
        <time>2011-05-24T14:17:08Z</time>
        <extensions><gpxtpx:TrackPointExtension><gpxtpx:hr>152</gpxtpx:hr></gpxtpx:TrackPointExtension></extensions>
      </trkpt>
      <trkpt lat="61.0803316479" lon="14.3149834071">
        <ele>208.6</ele>
        <time>2011-05-24T14:17:11Z</time>
        <extensions><gpxtpx:TrackPointExtension><gpxtpx:hr>151</gpxtpx:hr></gpxtpx:TrackPointExtension></extensions>
      </trkpt>
      <trkpt lat="61.0802188275" lon="14.315410884">
        <ele>208.6</ele>
        <time>2011-05-24T14:17:14Z</time>
        <extensions><gpxtpx:TrackPointExtension><gpxtpx:hr>151</gpxtpx:hr></gpxtpx:TrackPointExtension></extensions>
      </trkpt>
      <trkpt lat="61.0801058395" lon="14.315831823">
        <ele>208.6</ele>
        <time>2011-05-24T14:17:17Z</time>
        <extensions><gpxtpx:TrackPointExtension><gpxtpx:hr>150</gpxtpx:hr></gpxtpx:TrackPointExtension></extensions>
      </trkpt>
      <trkpt lat="61.0799951985" lon="14.3162665084">
        <ele>208.6</ele>
        <time>2011-05-24T14:17:20Z</time>
        <extensions><gpxtpx:TrackPointExtension><gpxtpx:hr>150</gpxtpx:hr></gpxtpx:TrackPointExtension></extensions>
      </trkpt>
      <trkpt lat="61.0798849765" lon="14.3166851843">
        <ele>208.6</ele>
        <time>2011-05-24T14:17:23Z</time>
        <extensions><gpxtpx:TrackPointExtension><gpxtpx:hr>150</gpxtpx:hr></gpxtpx:TrackPointExtension></extensions>
      </trkpt>
      <trkpt lat="61.0797577392" lon="14.3171405729">
        <ele>208.4</ele>
        <time>2011-05-24T14:17:26Z</time>
        <extensions><gpxtpx:TrackPointExtension><gpxtpx:hr>150</gpxtpx:hr></gpxtpx:TrackPointExtension></extensions>
      </trkpt>
      <trkpt lat="61.0796232097" lon="14.3175778566">
        <ele>208.4</ele>
        <time>2011-05-24T14:17:29Z</time>
        <extensions><gpxtpx:TrackPointExtension><gpxtpx:hr>149</gpxtpx:hr></gpxtpx:TrackPointExtension></extensions>
      </trkpt>
      <trkpt lat="61.0794896022" lon="14.3180153918">
        <ele>208.4</ele>
        <time>2011-05-24T14:17:32Z</time>
        <extensions><gpxtpx:TrackPointExtension><gpxtpx:hr>149</gpxtpx:hr></gpxtpx:TrackPointExtension></extensions>
      </trkpt>
      <trkpt lat="61.0793533126" lon="14.318460806">
        <ele>208.2</ele>
        <time>2011-05-24T14:17:35Z</time>
        <extensions><gpxtpx:TrackPointExtension><gpxtpx:hr>149</gpxtpx:hr></gpxtpx:TrackPointExtension></extensions>
      </trkpt>
      <trkpt lat="61.0792153465" lon="14.3189192121">
        <ele>207.8</ele>
        <time>2011-05-24T14:17:38Z</time>
        <extensions><gpxtpx:TrackPointExtension><gpxtpx:hr>148</gpxtpx:hr></gpxtpx:TrackPointExtension></extensions>
      </trkpt>
      <trkpt lat="61.0790607842" lon="14.3193735111">
        <ele>207.4</ele>
        <time>2011-05-24T14:17:41Z</time>
        <extensions><gpxtpx:TrackPointExtension><gpxtpx:hr>147</gpxtpx:hr></gpxtpx:TrackPointExtension></extensions>
      </trkpt>
      <trkpt lat="61.0789526577" lon="14.3196734154">
        <ele>207.2</ele>
        <time>2011-05-24T14:17:43Z</time>
        <extensions><gpxtpx:TrackPointExtension><gpxtpx:hr>146</gpxtpx:hr></gpxtpx:TrackPointExtension></extensions>
      </trkpt>
      <trkpt lat="61.0787991013" lon="14.3200961147">
        <ele>207</ele>
        <time>2011-05-24T14:17:46Z</time>
        <extensions><gpxtpx:TrackPointExtension><gpxtpx:hr>144</gpxtpx:hr></gpxtpx:TrackPointExtension></extensions>
      </trkpt>
      <trkpt lat="61.0786398452" lon="14.3205188139">
        <ele>206.8</ele>
        <time>2011-05-24T14:17:49Z</time>
        <extensions><gpxtpx:TrackPointExtension><gpxtpx:hr>142</gpxtpx:hr></gpxtpx:TrackPointExtension></extensions>
      </trkpt>
      <trkpt lat="61.0784803377" lon="14.3209083208">
        <ele>206.6</ele>
        <time>2011-05-24T14:17:52Z</time>
        <extensions><gpxtpx:TrackPointExtension><gpxtpx:hr>141</gpxtpx:hr></gpxtpx:TrackPointExtension></extensions>
      </trkpt>
      <trkpt lat="61.0783137893" lon="14.3213010128">
        <ele>206.6</ele>
        <time>2011-05-24T14:17:55Z</time>
        <extensions><gpxtpx:TrackPointExtension><gpxtpx:hr>140</gpxtpx:hr></gpxtpx:TrackPointExtension></extensions>
      </trkpt>
      <trkpt lat="61.0781465704" lon="14.3216822216">
        <ele>206.6</ele>
        <time>2011-05-24T14:17:58Z</time>
        <extensions><gpxtpx:TrackPointExtension><gpxtpx:hr>139</gpxtpx:hr></gpxtpx:TrackPointExtension></extensions>
      </trkpt>
      <trkpt lat="61.0779613304" lon="14.3220646039">
        <ele>206.6</ele>
        <time>2011-05-24T14:18:01Z</time>
        <extensions><gpxtpx:TrackPointExtension><gpxtpx:hr>139</gpxtpx:hr></gpxtpx:TrackPointExtension></extensions>
      </trkpt>
      <trkpt lat="61.0777809519" lon="14.3224282107">
        <ele>206</ele>
        <time>2011-05-24T14:18:04Z</time>
        <extensions><gpxtpx:TrackPointExtension><gpxtpx:hr>139</gpxtpx:hr></gpxtpx:TrackPointExtension></extensions>
      </trkpt>
      <trkpt lat="61.0776447461" lon="14.3226978564">
        <ele>205.8</ele>
        <time>2011-05-24T14:18:06Z</time>
        <extensions><gpxtpx:TrackPointExtension><gpxtpx:hr>137</gpxtpx:hr></gpxtpx:TrackPointExtension></extensions>
      </trkpt>
      <trkpt lat="61.0774482743" lon="14.3230711862">
        <ele>205.4</ele>
        <time>2011-05-24T14:18:09Z</time>
        <extensions><gpxtpx:TrackPointExtension><gpxtpx:hr>133</gpxtpx:hr></gpxtpx:TrackPointExtension></extensions>
      </trkpt>
      <trkpt lat="61.0773036027" lon="14.3233387365">
        <ele>205.2</ele>
        <time>2011-05-24T14:18:11Z</time>
        <extensions><gpxtpx:TrackPointExtension><gpxtpx:hr>133</gpxtpx:hr></gpxtpx:TrackPointExtension></extensions>
      </trkpt>
      <trkpt lat="61.0771620324" lon="14.3236043589">
        <ele>205</ele>
        <time>2011-05-24T14:18:13Z</time>
        <extensions><gpxtpx:TrackPointExtension><gpxtpx:hr>134</gpxtpx:hr></gpxtpx:TrackPointExtension></extensions>
      </trkpt>
      <trkpt lat="61.0770228091" lon="14.3238614318">
        <ele>204.8</ele>
        <time>2011-05-24T14:18:15Z</time>
        <extensions><gpxtpx:TrackPointExtension><gpxtpx:hr>135</gpxtpx:hr></gpxtpx:TrackPointExtension></extensions>
      </trkpt>
      <trkpt lat="61.0768467892" lon="14.3241937741">
        <ele>204.8</ele>
        <time>2011-05-24T14:18:18Z</time>
        <extensions><gpxtpx:TrackPointExtension><gpxtpx:hr>137</gpxtpx:hr></gpxtpx:TrackPointExtension></extensions>
      </trkpt>
      <trkpt lat="61.0767103318" lon="14.3244474104">
        <ele>204.6</ele>
        <time>2011-05-24T14:18:20Z</time>
        <extensions><gpxtpx:TrackPointExtension><gpxtpx:hr>139</gpxtpx:hr></gpxtpx:TrackPointExtension></extensions>
      </trkpt>
      <trkpt lat="61.0765418557" lon="14.3247524277">
        <ele>204.6</ele>
        <time>2011-05-24T14:18:23Z</time>
        <extensions><gpxtpx:TrackPointExtension><gpxtpx:hr>142</gpxtpx:hr></gpxtpx:TrackPointExtension></extensions>
      </trkpt>
      <trkpt lat="61.076405566" lon="14.3250058964">
        <ele>204.6</ele>
        <time>2011-05-24T14:18:25Z</time>
        <extensions><gpxtpx:TrackPointExtension><gpxtpx:hr>143</gpxtpx:hr></gpxtpx:TrackPointExtension></extensions>
      </trkpt>
      <trkpt lat="61.0762536859" lon="14.32530337">
        <ele>204.4</ele>
        <time>2011-05-24T14:18:28Z</time>
        <extensions><gpxtpx:TrackPointExtension><gpxtpx:hr>144</gpxtpx:hr></gpxtpx:TrackPointExtension></extensions>
      </trkpt>
      <trkpt lat="61.0761162228" lon="14.3255682381">
        <ele>204.4</ele>
        <time>2011-05-24T14:18:31Z</time>
        <extensions><gpxtpx:TrackPointExtension><gpxtpx:hr>145</gpxtpx:hr></gpxtpx:TrackPointExtension></extensions>
      </trkpt>
      <trkpt lat="61.0759557932" lon="14.3258802124">
        <ele>204.4</ele>
        <time>2011-05-24T14:18:34Z</time>
        <extensions><gpxtpx:TrackPointExtension><gpxtpx:hr>145</gpxtpx:hr></gpxtpx:TrackPointExtension></extensions>
      </trkpt>
      <trkpt lat="61.0757887419" lon="14.3261946175">
        <ele>204.4</ele>
        <time>2011-05-24T14:18:37Z</time>
        <extensions><gpxtpx:TrackPointExtension><gpxtpx:hr>145</gpxtpx:hr></gpxtpx:TrackPointExtension></extensions>
      </trkpt>
      <trkpt lat="61.0756145661" lon="14.3265247805">
        <ele>204.4</ele>
        <time>2011-05-24T14:18:40Z</time>
        <extensions><gpxtpx:TrackPointExtension><gpxtpx:hr>146</gpxtpx:hr></gpxtpx:TrackPointExtension></extensions>
      </trkpt>
      <trkpt lat="61.0754469281" lon="14.3268465616">
        <ele>204.4</ele>
        <time>2011-05-24T14:18:43Z</time>
        <extensions><gpxtpx:TrackPointExtension><gpxtpx:hr>147</gpxtpx:hr></gpxtpx:TrackPointExtension></extensions>
      </trkpt>
      <trkpt lat="61.0752928687" lon="14.3271380841">
        <ele>204.4</ele>
        <time>2011-05-24T14:18:46Z</time>
        <extensions><gpxtpx:TrackPointExtension><gpxtpx:hr>148</gpxtpx:hr></gpxtpx:TrackPointExtension></extensions>
      </trkpt>
      <trkpt lat="61.0751383903" lon="14.3274459513">
        <ele>204.4</ele>
        <time>2011-05-24T14:18:49Z</time>
        <extensions><gpxtpx:TrackPointExtension><gpxtpx:hr>148</gpxtpx:hr></gpxtpx:TrackPointExtension></extensions>
      </trkpt>
      <trkpt lat="61.074985253" lon="14.3277230569">
        <ele>204.6</ele>
        <time>2011-05-24T14:18:52Z</time>
        <extensions><gpxtpx:TrackPointExtension><gpxtpx:hr>148</gpxtpx:hr></gpxtpx:TrackPointExtension></extensions>
      </trkpt>
      <trkpt lat="61.0748242367" lon="14.3280114781">
        <ele>205</ele>
        <time>2011-05-24T14:18:55Z</time>
        <extensions><gpxtpx:TrackPointExtension><gpxtpx:hr>149</gpxtpx:hr></gpxtpx:TrackPointExtension></extensions>
      </trkpt>
      <trkpt lat="61.0746738654" lon="14.3282879132">
        <ele>205.4</ele>
        <time>2011-05-24T14:18:58Z</time>
        <extensions><gpxtpx:TrackPointExtension><gpxtpx:hr>150</gpxtpx:hr></gpxtpx:TrackPointExtension></extensions>
      </trkpt>
      <trkpt lat="61.0745317922" lon="14.3285614146">
        <ele>205.6</ele>
        <time>2011-05-24T14:19:01Z</time>
        <extensions><gpxtpx:TrackPointExtension><gpxtpx:hr>152</gpxtpx:hr></gpxtpx:TrackPointExtension></extensions>
      </trkpt>
      <trkpt lat="61.0743922336" lon="14.3288224269">
        <ele>206</ele>
        <time>2011-05-24T14:19:04Z</time>
        <extensions><gpxtpx:TrackPointExtension><gpxtpx:hr>153</gpxtpx:hr></gpxtpx:TrackPointExtension></extensions>
      </trkpt>
      <trkpt lat="61.074220237" lon="14.3291359938">
        <ele>207</ele>
        <time>2011-05-24T14:19:08Z</time>
        <extensions><gpxtpx:TrackPointExtension><gpxtpx:hr>154</gpxtpx:hr></gpxtpx:TrackPointExtension></extensions>
      </trkpt>
      <trkpt lat="61.0740518446" lon="14.3294825016">
        <ele>207.4</ele>
        <time>2011-05-24T14:19:12Z</time>
        <extensions><gpxtpx:TrackPointExtension><gpxtpx:hr>155</gpxtpx:hr></gpxtpx:TrackPointExtension></extensions>
      </trkpt>
      <trkpt lat="61.0739045746" lon="14.3297554162">
        <ele>207.8</ele>
        <time>2011-05-24T14:19:15Z</time>
        <extensions><gpxtpx:TrackPointExtension><gpxtpx:hr>155</gpxtpx:hr></gpxtpx:TrackPointExtension></extensions>
      </trkpt>
      <trkpt lat="61.0737531975" lon="14.3300484474">
        <ele>208</ele>
        <time>2011-05-24T14:19:18Z</time>
        <extensions><gpxtpx:TrackPointExtension><gpxtpx:hr>156</gpxtpx:hr></gpxtpx:TrackPointExtension></extensions>
      </trkpt>
      <trkpt lat="61.0736065143" lon="14.3303279838">
        <ele>208.4</ele>
        <time>2011-05-24T14:19:21Z</time>
        <extensions><gpxtpx:TrackPointExtension><gpxtpx:hr>155</gpxtpx:hr></gpxtpx:TrackPointExtension></extensions>
      </trkpt>
      <trkpt lat="61.0734584899" lon="14.3306240325">
        <ele>209</ele>
        <time>2011-05-24T14:19:24Z</time>
        <extensions><gpxtpx:TrackPointExtension><gpxtpx:hr>155</gpxtpx:hr></gpxtpx:TrackPointExtension></extensions>
      </trkpt>
      <trkpt lat="61.0732979765" lon="14.3309262838">
        <ele>209.4</ele>
        <time>2011-05-24T14:19:27Z</time>
        <extensions><gpxtpx:TrackPointExtension><gpxtpx:hr>154</gpxtpx:hr></gpxtpx:TrackPointExtension></extensions>
      </trkpt>
      <trkpt lat="61.073134278" lon="14.3312533456">
        <ele>209.8</ele>
        <time>2011-05-24T14:19:30Z</time>
        <extensions><gpxtpx:TrackPointExtension><gpxtpx:hr>155</gpxtpx:hr></gpxtpx:TrackPointExtension></extensions>
      </trkpt>
      <trkpt lat="61.0729836553" lon="14.3315717739">
        <ele>210</ele>
        <time>2011-05-24T14:19:33Z</time>
        <extensions><gpxtpx:TrackPointExtension><gpxtpx:hr>154</gpxtpx:hr></gpxtpx:TrackPointExtension></extensions>
      </trkpt>
      <trkpt lat="61.0728471141" lon="14.3318570938">
        <ele>210.2</ele>
        <time>2011-05-24T14:19:36Z</time>
        <extensions><gpxtpx:TrackPointExtension><gpxtpx:hr>152</gpxtpx:hr></gpxtpx:TrackPointExtension></extensions>
      </trkpt>
      <trkpt lat="61.0727132552" lon="14.3321310981">
        <ele>210.2</ele>
        <time>2011-05-24T14:19:39Z</time>
        <extensions><gpxtpx:TrackPointExtension><gpxtpx:hr>151</gpxtpx:hr></gpxtpx:TrackPointExtension></extensions>
      </trkpt>
      <trkpt lat="61.0725879458" lon="14.3324121432">
        <ele>210.4</ele>
        <time>2011-05-24T14:19:42Z</time>
        <extensions><gpxtpx:TrackPointExtension><gpxtpx:hr>150</gpxtpx:hr></gpxtpx:TrackPointExtension></extensions>
      </trkpt>
      <trkpt lat="61.0724669112" lon="14.3327210163">
        <ele>210.4</ele>
        <time>2011-05-24T14:19:45Z</time>
        <extensions><gpxtpx:TrackPointExtension><gpxtpx:hr>149</gpxtpx:hr></gpxtpx:TrackPointExtension></extensions>
      </trkpt>
      <trkpt lat="61.0723463794" lon="14.3330448091">
        <ele>210.4</ele>
        <time>2011-05-24T14:19:48Z</time>
        <extensions><gpxtpx:TrackPointExtension><gpxtpx:hr>149</gpxtpx:hr></gpxtpx:TrackPointExtension></extensions>
      </trkpt>
      <trkpt lat="61.0722213215" lon="14.3333848627">
        <ele>210.6</ele>
        <time>2011-05-24T14:19:51Z</time>
        <extensions><gpxtpx:TrackPointExtension><gpxtpx:hr>149</gpxtpx:hr></gpxtpx:TrackPointExtension></extensions>
      </trkpt>
      <trkpt lat="61.0720978561" lon="14.3337260899">
        <ele>210.6</ele>
        <time>2011-05-24T14:19:54Z</time>
        <extensions><gpxtpx:TrackPointExtension><gpxtpx:hr>149</gpxtpx:hr></gpxtpx:TrackPointExtension></extensions>
      </trkpt>
      <trkpt lat="61.0719910707" lon="14.3340550795">
        <ele>210.6</ele>
        <time>2011-05-24T14:19:57Z</time>
        <extensions><gpxtpx:TrackPointExtension><gpxtpx:hr>149</gpxtpx:hr></gpxtpx:TrackPointExtension></extensions>
      </trkpt>
      <trkpt lat="61.0718853749" lon="14.3343905231">
        <ele>210.6</ele>
        <time>2011-05-24T14:20:00Z</time>
        <extensions><gpxtpx:TrackPointExtension><gpxtpx:hr>149</gpxtpx:hr></gpxtpx:TrackPointExtension></extensions>
      </trkpt>
      <trkpt lat="61.0717832834" lon="14.3347405512">
        <ele>210.6</ele>
        <time>2011-05-24T14:20:03Z</time>
        <extensions><gpxtpx:TrackPointExtension><gpxtpx:hr>149</gpxtpx:hr></gpxtpx:TrackPointExtension></extensions>
      </trkpt>
      <trkpt lat="61.0716894061" lon="14.3350789285">
        <ele>210.6</ele>
        <time>2011-05-24T14:20:06Z</time>
        <extensions><gpxtpx:TrackPointExtension><gpxtpx:hr>150</gpxtpx:hr></gpxtpx:TrackPointExtension></extensions>
      </trkpt>
      <trkpt lat="61.0716013962" lon="14.335426945">
        <ele>210.6</ele>
        <time>2011-05-24T14:20:09Z</time>
        <extensions><gpxtpx:TrackPointExtension><gpxtpx:hr>149</gpxtpx:hr></gpxtpx:TrackPointExtension></extensions>
      </trkpt>
      <trkpt lat="61.0715066807" lon="14.3357945752">
        <ele>210.6</ele>
        <time>2011-05-24T14:20:12Z</time>
        <extensions><gpxtpx:TrackPointExtension><gpxtpx:hr>150</gpxtpx:hr></gpxtpx:TrackPointExtension></extensions>
      </trkpt>
      <trkpt lat="61.0714048406" lon="14.3361984151">
        <ele>210.6</ele>
        <time>2011-05-24T14:20:15Z</time>
        <extensions><gpxtpx:TrackPointExtension><gpxtpx:hr>150</gpxtpx:hr></gpxtpx:TrackPointExtension></extensions>
      </trkpt>
      <trkpt lat="61.0712963788" lon="14.3366455057">
        <ele>210.6</ele>
        <time>2011-05-24T14:20:18Z</time>
        <extensions><gpxtpx:TrackPointExtension><gpxtpx:hr>151</gpxtpx:hr></gpxtpx:TrackPointExtension></extensions>
      </trkpt>
      <trkpt lat="61.0711931138" lon="14.3370654388">
        <ele>210.6</ele>
        <time>2011-05-24T14:20:21Z</time>
        <extensions><gpxtpx:TrackPointExtension><gpxtpx:hr>152</gpxtpx:hr></gpxtpx:TrackPointExtension></extensions>
      </trkpt>
      <trkpt lat="61.0710892621" lon="14.3374874675">
        <ele>210.6</ele>
        <time>2011-05-24T14:20:24Z</time>
        <extensions><gpxtpx:TrackPointExtension><gpxtpx:hr>153</gpxtpx:hr></gpxtpx:TrackPointExtension></extensions>
      </trkpt>
      <trkpt lat="61.0709879249" lon="14.3379094962">
        <ele>210.6</ele>
        <time>2011-05-24T14:20:27Z</time>
        <extensions><gpxtpx:TrackPointExtension><gpxtpx:hr>153</gpxtpx:hr></gpxtpx:TrackPointExtension></extensions>
      </trkpt>
      <trkpt lat="61.0708723385" lon="14.338358766">
        <ele>210</ele>
        <time>2011-05-24T14:20:30Z</time>
        <extensions><gpxtpx:TrackPointExtension><gpxtpx:hr>154</gpxtpx:hr></gpxtpx:TrackPointExtension></extensions>
      </trkpt>
      <trkpt lat="61.0707630385" lon="14.3387869135">
        <ele>209.6</ele>
        <time>2011-05-24T14:20:33Z</time>
        <extensions><gpxtpx:TrackPointExtension><gpxtpx:hr>154</gpxtpx:hr></gpxtpx:TrackPointExtension></extensions>
      </trkpt>
      <trkpt lat="61.0706557502" lon="14.3392166535">
        <ele>209.4</ele>
        <time>2011-05-24T14:20:36Z</time>
        <extensions><gpxtpx:TrackPointExtension><gpxtpx:hr>155</gpxtpx:hr></gpxtpx:TrackPointExtension></extensions>
      </trkpt>
      <trkpt lat="61.0705468693" lon="14.3396426216">
        <ele>209.2</ele>
        <time>2011-05-24T14:20:39Z</time>
        <extensions><gpxtpx:TrackPointExtension><gpxtpx:hr>156</gpxtpx:hr></gpxtpx:TrackPointExtension></extensions>
      </trkpt>
      <trkpt lat="61.0704436043" lon="14.3400709367">
        <ele>209</ele>
        <time>2011-05-24T14:20:42Z</time>
        <extensions><gpxtpx:TrackPointExtension><gpxtpx:hr>156</gpxtpx:hr></gpxtpx:TrackPointExtension></extensions>
      </trkpt>
      <trkpt lat="61.0703317059" lon="14.3405032751">
        <ele>208.2</ele>
        <time>2011-05-24T14:20:45Z</time>
        <extensions><gpxtpx:TrackPointExtension><gpxtpx:hr>156</gpxtpx:hr></gpxtpx:TrackPointExtension></extensions>
      </trkpt>
      <trkpt lat="61.070232129" lon="14.3409108031">
        <ele>207.8</ele>
        <time>2011-05-24T14:20:48Z</time>
        <extensions><gpxtpx:TrackPointExtension><gpxtpx:hr>157</gpxtpx:hr></gpxtpx:TrackPointExtension></extensions>
      </trkpt>
      <trkpt lat="61.0701240025" lon="14.3413389506">
        <ele>207.4</ele>
        <time>2011-05-24T14:20:51Z</time>
        <extensions><gpxtpx:TrackPointExtension><gpxtpx:hr>157</gpxtpx:hr></gpxtpx:TrackPointExtension></extensions>
      </trkpt>
      <trkpt lat="61.0700112659" lon="14.3417855382">
        <ele>207.2</ele>
        <time>2011-05-24T14:20:54Z</time>
        <extensions><gpxtpx:TrackPointExtension><gpxtpx:hr>159</gpxtpx:hr></gpxtpx:TrackPointExtension></extensions>
      </trkpt>
      <trkpt lat="61.0699013792" lon="14.3422089918">
        <ele>207</ele>
        <time>2011-05-24T14:20:57Z</time>
        <extensions><gpxtpx:TrackPointExtension><gpxtpx:hr>159</gpxtpx:hr></gpxtpx:TrackPointExtension></extensions>
      </trkpt>
      <trkpt lat="61.0697913249" lon="14.3426546574">
        <ele>206.8</ele>
        <time>2011-05-24T14:21:00Z</time>
        <extensions><gpxtpx:TrackPointExtension><gpxtpx:hr>160</gpxtpx:hr></gpxtpx:TrackPointExtension></extensions>
      </trkpt>
      <trkpt lat="61.069679175" lon="14.3430953777">
        <ele>206.6</ele>
        <time>2011-05-24T14:21:03Z</time>
        <extensions><gpxtpx:TrackPointExtension><gpxtpx:hr>161</gpxtpx:hr></gpxtpx:TrackPointExtension></extensions>
      </trkpt>
      <trkpt lat="61.0695653488" lon="14.3435441446">
        <ele>206</ele>
        <time>2011-05-24T14:21:06Z</time>
        <extensions><gpxtpx:TrackPointExtension><gpxtpx:hr>162</gpxtpx:hr></gpxtpx:TrackPointExtension></extensions>
      </trkpt>
      <trkpt lat="61.0694517741" lon="14.3439948394">
        <ele>205.6</ele>
        <time>2011-05-24T14:21:09Z</time>
        <extensions><gpxtpx:TrackPointExtension><gpxtpx:hr>162</gpxtpx:hr></gpxtpx:TrackPointExtension></extensions>
      </trkpt>
      <trkpt lat="61.0693366906" lon="14.3444499766">
        <ele>205.2</ele>
        <time>2011-05-24T14:21:12Z</time>
        <extensions><gpxtpx:TrackPointExtension><gpxtpx:hr>163</gpxtpx:hr></gpxtpx:TrackPointExtension></extensions>
      </trkpt>
      <trkpt lat="61.0692236188" lon="14.3448970671">
        <ele>205</ele>
        <time>2011-05-24T14:21:15Z</time>
        <extensions><gpxtpx:TrackPointExtension><gpxtpx:hr>163</gpxtpx:hr></gpxtpx:TrackPointExtension></extensions>
      </trkpt>
      <trkpt lat="61.0691164143" lon="14.3453320877">
        <ele>204.8</ele>
        <time>2011-05-24T14:21:18Z</time>
        <extensions><gpxtpx:TrackPointExtension><gpxtpx:hr>164</gpxtpx:hr></gpxtpx:TrackPointExtension></extensions>
      </trkpt>
      <trkpt lat="61.0690140713" lon="14.3457235224">
        <ele>204.6</ele>
        <time>2011-05-24T14:21:21Z</time>
        <extensions><gpxtpx:TrackPointExtension><gpxtpx:hr>164</gpxtpx:hr></gpxtpx:TrackPointExtension></extensions>
      </trkpt>
      <trkpt lat="61.0689063639" lon="14.3461540168">
        <ele>204.6</ele>
        <time>2011-05-24T14:21:24Z</time>
        <extensions><gpxtpx:TrackPointExtension><gpxtpx:hr>164</gpxtpx:hr></gpxtpx:TrackPointExtension></extensions>
      </trkpt>
      <trkpt lat="61.0688061163" lon="14.3465559289">
        <ele>204.6</ele>
        <time>2011-05-24T14:21:27Z</time>
        <extensions><gpxtpx:TrackPointExtension><gpxtpx:hr>164</gpxtpx:hr></gpxtpx:TrackPointExtension></extensions>
      </trkpt>
      <trkpt lat="61.0687021808" lon="14.3469628702">
        <ele>204.4</ele>
        <time>2011-05-24T14:21:30Z</time>
        <extensions><gpxtpx:TrackPointExtension><gpxtpx:hr>164</gpxtpx:hr></gpxtpx:TrackPointExtension></extensions>
      </trkpt>
      <trkpt lat="61.0686020171" lon="14.3473531314">
        <ele>204.4</ele>
        <time>2011-05-24T14:21:33Z</time>
        <extensions><gpxtpx:TrackPointExtension><gpxtpx:hr>165</gpxtpx:hr></gpxtpx:TrackPointExtension></extensions>
      </trkpt>
      <trkpt lat="61.0684920465" lon="14.3477322448">
        <ele>204.4</ele>
        <time>2011-05-24T14:21:36Z</time>
        <extensions><gpxtpx:TrackPointExtension><gpxtpx:hr>165</gpxtpx:hr></gpxtpx:TrackPointExtension></extensions>
      </trkpt>
      <trkpt lat="61.0683738617" lon="14.3480939238">
        <ele>204.4</ele>
        <time>2011-05-24T14:21:39Z</time>
        <extensions><gpxtpx:TrackPointExtension><gpxtpx:hr>165</gpxtpx:hr></gpxtpx:TrackPointExtension></extensions>
      </trkpt>
      <trkpt lat="61.0682426012" lon="14.3484262661">
        <ele>204.4</ele>
        <time>2011-05-24T14:21:42Z</time>
        <extensions><gpxtpx:TrackPointExtension><gpxtpx:hr>165</gpxtpx:hr></gpxtpx:TrackPointExtension></extensions>
      </trkpt>
      <trkpt lat="61.0680854406" lon="14.3487782221">
        <ele>204.4</ele>
        <time>2011-05-24T14:21:45Z</time>
        <extensions><gpxtpx:TrackPointExtension><gpxtpx:hr>165</gpxtpx:hr></gpxtpx:TrackPointExtension></extensions>
      </trkpt>
      <trkpt lat="61.0679205686" lon="14.3491152583">
        <ele>204.4</ele>
        <time>2011-05-24T14:21:48Z</time>
        <extensions><gpxtpx:TrackPointExtension><gpxtpx:hr>166</gpxtpx:hr></gpxtpx:TrackPointExtension></extensions>
      </trkpt>
      <trkpt lat="61.0677417827" lon="14.3494449184">
        <ele>204.4</ele>
        <time>2011-05-24T14:21:51Z</time>
        <extensions><gpxtpx:TrackPointExtension><gpxtpx:hr>165</gpxtpx:hr></gpxtpx:TrackPointExtension></extensions>
      </trkpt>
      <trkpt lat="61.0675552854" lon="14.3497561384">
        <ele>204.4</ele>
        <time>2011-05-24T14:21:54Z</time>
        <extensions><gpxtpx:TrackPointExtension><gpxtpx:hr>166</gpxtpx:hr></gpxtpx:TrackPointExtension></extensions>
      </trkpt>
      <trkpt lat="61.0673679499" lon="14.3500337469">
        <ele>204.4</ele>
        <time>2011-05-24T14:21:57Z</time>
        <extensions><gpxtpx:TrackPointExtension><gpxtpx:hr>166</gpxtpx:hr></gpxtpx:TrackPointExtension></extensions>
      </trkpt>
      <trkpt lat="61.0671764235" lon="14.3503002075">
        <ele>204.4</ele>
        <time>2011-05-24T14:22:00Z</time>
        <extensions><gpxtpx:TrackPointExtension><gpxtpx:hr>166</gpxtpx:hr></gpxtpx:TrackPointExtension></extensions>
      </trkpt>
      <trkpt lat="61.0669945363" lon="14.3505457133">
        <ele>204.4</ele>
        <time>2011-05-24T14:22:03Z</time>
        <extensions><gpxtpx:TrackPointExtension><gpxtpx:hr>165</gpxtpx:hr></gpxtpx:TrackPointExtension></extensions>
      </trkpt>
      <trkpt lat="61.0668178458" lon="14.3507691748">
        <ele>204.4</ele>
        <time>2011-05-24T14:22:06Z</time>
        <extensions><gpxtpx:TrackPointExtension><gpxtpx:hr>165</gpxtpx:hr></gpxtpx:TrackPointExtension></extensions>
      </trkpt>
      <trkpt lat="61.0666318515" lon="14.3509810692">
        <ele>204.4</ele>
        <time>2011-05-24T14:22:09Z</time>
        <extensions><gpxtpx:TrackPointExtension><gpxtpx:hr>165</gpxtpx:hr></gpxtpx:TrackPointExtension></extensions>
      </trkpt>
      <trkpt lat="61.0664410794" lon="14.3511850008">
        <ele>204.4</ele>
        <time>2011-05-24T14:22:12Z</time>
        <extensions><gpxtpx:TrackPointExtension><gpxtpx:hr>165</gpxtpx:hr></gpxtpx:TrackPointExtension></extensions>
      </trkpt>
      <trkpt lat="61.0662429313" lon="14.3513830651">
        <ele>204.4</ele>
        <time>2011-05-24T14:22:15Z</time>
        <extensions><gpxtpx:TrackPointExtension><gpxtpx:hr>165</gpxtpx:hr></gpxtpx:TrackPointExtension></extensions>
      </trkpt>
      <trkpt lat="61.0660307854" lon="14.3515944567">
        <ele>204.4</ele>
        <time>2011-05-24T14:22:18Z</time>
        <extensions><gpxtpx:TrackPointExtension><gpxtpx:hr>165</gpxtpx:hr></gpxtpx:TrackPointExtension></extensions>
      </trkpt>
      <trkpt lat="61.0658142809" lon="14.3518076084">
        <ele>204.4</ele>
        <time>2011-05-24T14:22:21Z</time>
        <extensions><gpxtpx:TrackPointExtension><gpxtpx:hr>165</gpxtpx:hr></gpxtpx:TrackPointExtension></extensions>
      </trkpt>
      <trkpt lat="61.065585036" lon="14.3520346741">
        <ele>204.4</ele>
        <time>2011-05-24T14:22:24Z</time>
        <extensions><gpxtpx:TrackPointExtension><gpxtpx:hr>166</gpxtpx:hr></gpxtpx:TrackPointExtension></extensions>
      </trkpt>
      <trkpt lat="61.0653598143" lon="14.3522572135">
        <ele>204.4</ele>
        <time>2011-05-24T14:22:27Z</time>
        <extensions><gpxtpx:TrackPointExtension><gpxtpx:hr>166</gpxtpx:hr></gpxtpx:TrackPointExtension></extensions>
      </trkpt>
      <trkpt lat="61.0651285577" lon="14.3524858717">
        <ele>204.4</ele>
        <time>2011-05-24T14:22:30Z</time>
        <extensions><gpxtpx:TrackPointExtension><gpxtpx:hr>166</gpxtpx:hr></gpxtpx:TrackPointExtension></extensions>
      </trkpt>
      <trkpt lat="61.0649157413" lon="14.3526955869">
        <ele>204.4</ele>
        <time>2011-05-24T14:22:33Z</time>
        <extensions><gpxtpx:TrackPointExtension><gpxtpx:hr>166</gpxtpx:hr></gpxtpx:TrackPointExtension></extensions>
      </trkpt>
      <trkpt lat="61.064751456" lon="14.3528600397">
        <ele>204.4</ele>
        <time>2011-05-24T14:22:35Z</time>
        <extensions><gpxtpx:TrackPointExtension><gpxtpx:hr>166</gpxtpx:hr></gpxtpx:TrackPointExtension></extensions>
      </trkpt>
      <trkpt lat="61.0645266535" lon="14.3530847585">
        <ele>204.4</ele>
        <time>2011-05-24T14:22:38Z</time>
        <extensions><gpxtpx:TrackPointExtension><gpxtpx:hr>166</gpxtpx:hr></gpxtpx:TrackPointExtension></extensions>
      </trkpt>
      <trkpt lat="61.0643078859" lon="14.3533015982">
        <ele>204.4</ele>
        <time>2011-05-24T14:22:41Z</time>
        <extensions><gpxtpx:TrackPointExtension><gpxtpx:hr>166</gpxtpx:hr></gpxtpx:TrackPointExtension></extensions>
      </trkpt>
      <trkpt lat="61.0640797306" lon="14.3535268199">
        <ele>204.4</ele>
        <time>2011-05-24T14:22:44Z</time>
        <extensions><gpxtpx:TrackPointExtension><gpxtpx:hr>165</gpxtpx:hr></gpxtpx:TrackPointExtension></extensions>
      </trkpt>
      <trkpt lat="61.0638532516" lon="14.3537444978">
        <ele>204.4</ele>
        <time>2011-05-24T14:22:47Z</time>
        <extensions><gpxtpx:TrackPointExtension><gpxtpx:hr>166</gpxtpx:hr></gpxtpx:TrackPointExtension></extensions>
      </trkpt>
      <trkpt lat="61.0636199833" lon="14.3539595774">
        <ele>204.4</ele>
        <time>2011-05-24T14:22:50Z</time>
        <extensions><gpxtpx:TrackPointExtension><gpxtpx:hr>166</gpxtpx:hr></gpxtpx:TrackPointExtension></extensions>
      </trkpt>
      <trkpt lat="61.0634023892" lon="14.3541493436">
        <ele>204.4</ele>
        <time>2011-05-24T14:22:53Z</time>
        <extensions><gpxtpx:TrackPointExtension><gpxtpx:hr>166</gpxtpx:hr></gpxtpx:TrackPointExtension></extensions>
      </trkpt>
      <trkpt lat="61.0632350865" lon="14.3542847951">
        <ele>204.4</ele>
        <time>2011-05-24T14:22:55Z</time>
        <extensions><gpxtpx:TrackPointExtension><gpxtpx:hr>166</gpxtpx:hr></gpxtpx:TrackPointExtension></extensions>
      </trkpt>
      <trkpt lat="61.062999136" lon="14.3544642516">
        <ele>204.4</ele>
        <time>2011-05-24T14:22:58Z</time>
        <extensions><gpxtpx:TrackPointExtension><gpxtpx:hr>166</gpxtpx:hr></gpxtpx:TrackPointExtension></extensions>
      </trkpt>
      <trkpt lat="61.0627631855" lon="14.3546074983">
        <ele>204.4</ele>
        <time>2011-05-24T14:23:01Z</time>
        <extensions><gpxtpx:TrackPointExtension><gpxtpx:hr>166</gpxtpx:hr></gpxtpx:TrackPointExtension></extensions>
      </trkpt>
      <trkpt lat="61.0625337729" lon="14.3547416087">
        <ele>204.4</ele>
        <time>2011-05-24T14:23:04Z</time>
        <extensions><gpxtpx:TrackPointExtension><gpxtpx:hr>166</gpxtpx:hr></gpxtpx:TrackPointExtension></extensions>
      </trkpt>
      <trkpt lat="61.0623350381" lon="14.3548634815">
        <ele>204.4</ele>
        <time>2011-05-24T14:23:07Z</time>
        <extensions><gpxtpx:TrackPointExtension><gpxtpx:hr>166</gpxtpx:hr></gpxtpx:TrackPointExtension></extensions>
      </trkpt>
      <trkpt lat="61.0621432602" lon="14.3549539222">
        <ele>204.4</ele>
        <time>2011-05-24T14:23:10Z</time>
        <extensions><gpxtpx:TrackPointExtension><gpxtpx:hr>165</gpxtpx:hr></gpxtpx:TrackPointExtension></extensions>
      </trkpt>
      <trkpt lat="61.0619498059" lon="14.3550353104">
        <ele>204.4</ele>
        <time>2011-05-24T14:23:13Z</time>
        <extensions><gpxtpx:TrackPointExtension><gpxtpx:hr>165</gpxtpx:hr></gpxtpx:TrackPointExtension></extensions>
      </trkpt>
      <trkpt lat="61.0617572737" lon="14.3551107475">
        <ele>204.4</ele>
        <time>2011-05-24T14:23:16Z</time>
        <extensions><gpxtpx:TrackPointExtension><gpxtpx:hr>165</gpxtpx:hr></gpxtpx:TrackPointExtension></extensions>
      </trkpt>
      <trkpt lat="61.0615357401" lon="14.3551662357">
        <ele>204.4</ele>
        <time>2011-05-24T14:23:19Z</time>
        <extensions><gpxtpx:TrackPointExtension><gpxtpx:hr>165</gpxtpx:hr></gpxtpx:TrackPointExtension></extensions>
      </trkpt>
      <trkpt lat="61.061355194" lon="14.3552426786">
        <ele>204.4</ele>
        <time>2011-05-24T14:23:21Z</time>
        <extensions><gpxtpx:TrackPointExtension><gpxtpx:hr>166</gpxtpx:hr></gpxtpx:TrackPointExtension></extensions>
      </trkpt>
      <trkpt lat="61.0611759051" lon="14.3553234802">
        <ele>204.4</ele>
        <time>2011-05-24T14:23:23Z</time>
        <extensions><gpxtpx:TrackPointExtension><gpxtpx:hr>167</gpxtpx:hr></gpxtpx:TrackPointExtension></extensions>
      </trkpt>
      <trkpt lat="61.0609375239" lon="14.3554192853">
        <ele>204.4</ele>
        <time>2011-05-24T14:23:26Z</time>
        <extensions><gpxtpx:TrackPointExtension><gpxtpx:hr>168</gpxtpx:hr></gpxtpx:TrackPointExtension></extensions>
      </trkpt>
      <trkpt lat="61.0607526192" lon="14.3554922916">
        <ele>204.4</ele>
        <time>2011-05-24T14:23:28Z</time>
        <extensions><gpxtpx:TrackPointExtension><gpxtpx:hr>168</gpxtpx:hr></gpxtpx:TrackPointExtension></extensions>
      </trkpt>
      <trkpt lat="61.0605689717" lon="14.3555697404">
        <ele>204.4</ele>
        <time>2011-05-24T14:23:30Z</time>
        <extensions><gpxtpx:TrackPointExtension><gpxtpx:hr>169</gpxtpx:hr></gpxtpx:TrackPointExtension></extensions>
      </trkpt>
      <trkpt lat="61.0603908564" lon="14.3556409027">
        <ele>204.4</ele>
        <time>2011-05-24T14:23:32Z</time>
        <extensions><gpxtpx:TrackPointExtension><gpxtpx:hr>169</gpxtpx:hr></gpxtpx:TrackPointExtension></extensions>
      </trkpt>
      <trkpt lat="61.0601279162" lon="14.3557474367">
        <ele>204.4</ele>
        <time>2011-05-24T14:23:35Z</time>
        <extensions><gpxtpx:TrackPointExtension><gpxtpx:hr>170</gpxtpx:hr></gpxtpx:TrackPointExtension></extensions>
      </trkpt>
      <trkpt lat="61.0598788899" lon="14.3558181799">
        <ele>204.4</ele>
        <time>2011-05-24T14:23:38Z</time>
        <extensions><gpxtpx:TrackPointExtension><gpxtpx:hr>171</gpxtpx:hr></gpxtpx:TrackPointExtension></extensions>
      </trkpt>
      <trkpt lat="61.0596352281" lon="14.3558591674">
        <ele>204.4</ele>
        <time>2011-05-24T14:23:41Z</time>
        <extensions><gpxtpx:TrackPointExtension><gpxtpx:hr>171</gpxtpx:hr></gpxtpx:TrackPointExtension></extensions>
      </trkpt>
      <trkpt lat="61.0593953381" lon="14.3558747577">
        <ele>204.4</ele>
        <time>2011-05-24T14:23:44Z</time>
        <extensions><gpxtpx:TrackPointExtension><gpxtpx:hr>171</gpxtpx:hr></gpxtpx:TrackPointExtension></extensions>
      </trkpt>
      <trkpt lat="61.0591771572" lon="14.355862604">
        <ele>204.4</ele>
        <time>2011-05-24T14:23:47Z</time>
        <extensions><gpxtpx:TrackPointExtension><gpxtpx:hr>170</gpxtpx:hr></gpxtpx:TrackPointExtension></extensions>
      </trkpt>
      <trkpt lat="61.0589529414" lon="14.3558424036">
        <ele>204.6</ele>
        <time>2011-05-24T14:23:50Z</time>
        <extensions><gpxtpx:TrackPointExtension><gpxtpx:hr>169</gpxtpx:hr></gpxtpx:TrackPointExtension></extensions>
      </trkpt>
      <trkpt lat="61.0587421366" lon="14.3558129831">
        <ele>205</ele>
        <time>2011-05-24T14:23:53Z</time>
        <extensions><gpxtpx:TrackPointExtension><gpxtpx:hr>169</gpxtpx:hr></gpxtpx:TrackPointExtension></extensions>
      </trkpt>
      <trkpt lat="61.0585287335" lon="14.3557823892">
        <ele>205.4</ele>
        <time>2011-05-24T14:23:56Z</time>
        <extensions><gpxtpx:TrackPointExtension><gpxtpx:hr>168</gpxtpx:hr></gpxtpx:TrackPointExtension></extensions>
      </trkpt>
      <trkpt lat="61.0583102173" lon="14.3557575788">
        <ele>205.8</ele>
        <time>2011-05-24T14:23:59Z</time>
        <extensions><gpxtpx:TrackPointExtension><gpxtpx:hr>168</gpxtpx:hr></gpxtpx:TrackPointExtension></extensions>
      </trkpt>
      <trkpt lat="61.0581008375" lon="14.3557168427">
        <ele>206</ele>
        <time>2011-05-24T14:24:02Z</time>
        <extensions><gpxtpx:TrackPointExtension><gpxtpx:hr>167</gpxtpx:hr></gpxtpx:TrackPointExtension></extensions>
      </trkpt>
      <trkpt lat="61.0578948942" lon="14.3556816387">
        <ele>206</ele>
        <time>2011-05-24T14:24:05Z</time>
        <extensions><gpxtpx:TrackPointExtension><gpxtpx:hr>167</gpxtpx:hr></gpxtpx:TrackPointExtension></extensions>
      </trkpt>
      <trkpt lat="61.0577083969" lon="14.3556447584">
        <ele>206.2</ele>
        <time>2011-05-24T14:24:08Z</time>
        <extensions><gpxtpx:TrackPointExtension><gpxtpx:hr>166</gpxtpx:hr></gpxtpx:TrackPointExtension></extensions>
      </trkpt>
      <trkpt lat="61.0574727817" lon="14.3556125719">
        <ele>206.2</ele>
        <time>2011-05-24T14:24:12Z</time>
        <extensions><gpxtpx:TrackPointExtension><gpxtpx:hr>165</gpxtpx:hr></gpxtpx:TrackPointExtension></extensions>
      </trkpt>
      <trkpt lat="61.0572609711" lon="14.3555803016">
        <ele>206.4</ele>
        <time>2011-05-24T14:24:16Z</time>
        <extensions><gpxtpx:TrackPointExtension><gpxtpx:hr>165</gpxtpx:hr></gpxtpx:TrackPointExtension></extensions>
      </trkpt>
      <trkpt lat="61.0570584644" lon="14.3555610232">
        <ele>206.4</ele>
        <time>2011-05-24T14:24:20Z</time>
        <extensions><gpxtpx:TrackPointExtension><gpxtpx:hr>164</gpxtpx:hr></gpxtpx:TrackPointExtension></extensions>
      </trkpt>
      <trkpt lat="61.0568759066" lon="14.3555246458">
        <ele>206.4</ele>
        <time>2011-05-24T14:24:24Z</time>
        <extensions><gpxtpx:TrackPointExtension><gpxtpx:hr>163</gpxtpx:hr></gpxtpx:TrackPointExtension></extensions>
      </trkpt>
      <trkpt lat="61.05666594" lon="14.3554802217">
        <ele>206.4</ele>
        <time>2011-05-24T14:24:29Z</time>
        <extensions><gpxtpx:TrackPointExtension><gpxtpx:hr>162</gpxtpx:hr></gpxtpx:TrackPointExtension></extensions>
      </trkpt>
      <trkpt lat="61.0564673728" lon="14.3554613624">
        <ele>206.4</ele>
        <time>2011-05-24T14:24:34Z</time>
        <extensions><gpxtpx:TrackPointExtension><gpxtpx:hr>161</gpxtpx:hr></gpxtpx:TrackPointExtension></extensions>
      </trkpt>
      <trkpt lat="61.0562667101" lon="14.3554206264">
        <ele>207.2</ele>
        <time>2011-05-24T14:24:39Z</time>
        <extensions><gpxtpx:TrackPointExtension><gpxtpx:hr>159</gpxtpx:hr></gpxtpx:TrackPointExtension></extensions>
      </trkpt>
      <trkpt lat="61.0560841523" lon="14.3554045331">
        <ele>207.8</ele>
        <time>2011-05-24T14:24:44Z</time>
        <extensions><gpxtpx:TrackPointExtension><gpxtpx:hr>158</gpxtpx:hr></gpxtpx:TrackPointExtension></extensions>
      </trkpt>
      <trkpt lat="61.055875443" lon="14.3553725981">
        <ele>208.2</ele>
        <time>2011-05-24T14:24:50Z</time>
        <extensions><gpxtpx:TrackPointExtension><gpxtpx:hr>159</gpxtpx:hr></gpxtpx:TrackPointExtension></extensions>
      </trkpt>
      <trkpt lat="61.0556719305" lon="14.3553477877">
        <ele>209.2</ele>
        <time>2011-05-24T14:24:56Z</time>
        <extensions><gpxtpx:TrackPointExtension><gpxtpx:hr>159</gpxtpx:hr></gpxtpx:TrackPointExtension></extensions>
      </trkpt>
      <trkpt lat="61.0554819128" lon="14.3553319459">
        <ele>209.8</ele>
        <time>2011-05-24T14:25:02Z</time>
        <extensions><gpxtpx:TrackPointExtension><gpxtpx:hr>159</gpxtpx:hr></gpxtpx:TrackPointExtension></extensions>
      </trkpt>
      <trkpt lat="61.0552849382" lon="14.3553173614">
        <ele>210.2</ele>
        <time>2011-05-24T14:25:08Z</time>
        <extensions><gpxtpx:TrackPointExtension><gpxtpx:hr>157</gpxtpx:hr></gpxtpx:TrackPointExtension></extensions>
      </trkpt>
      <trkpt lat="61.0550896399" lon="14.3552877733">
        <ele>211</ele>
        <time>2011-05-24T14:25:13Z</time>
        <extensions><gpxtpx:TrackPointExtension><gpxtpx:hr>156</gpxtpx:hr></gpxtpx:TrackPointExtension></extensions>
      </trkpt>
      <trkpt lat="61.0548582156" lon="14.355293473">
        <ele>211.8</ele>
        <time>2011-05-24T14:25:19Z</time>
        <extensions><gpxtpx:TrackPointExtension><gpxtpx:hr>156</gpxtpx:hr></gpxtpx:TrackPointExtension></extensions>
      </trkpt>
      <trkpt lat="61.0547607341" lon="14.3552987536">
        <ele>212</ele>
        <time>2011-05-24T14:25:21Z</time>
        <extensions><gpxtpx:TrackPointExtension><gpxtpx:hr>156</gpxtpx:hr></gpxtpx:TrackPointExtension></extensions>
      </trkpt>
      <trkpt lat="61.0545407931" lon="14.3553547446">
        <ele>212.4</ele>
        <time>2011-05-24T14:25:26Z</time>
        <extensions><gpxtpx:TrackPointExtension><gpxtpx:hr>155</gpxtpx:hr></gpxtpx:TrackPointExtension></extensions>
      </trkpt>
      <trkpt lat="61.0543599955" lon="14.3554091432">
        <ele>213.2</ele>
        <time>2011-05-24T14:25:30Z</time>
        <extensions><gpxtpx:TrackPointExtension><gpxtpx:hr>155</gpxtpx:hr></gpxtpx:TrackPointExtension></extensions>
      </trkpt>
      <trkpt lat="61.054173582" lon="14.3554803893">
        <ele>213.8</ele>
        <time>2011-05-24T14:25:34Z</time>
        <extensions><gpxtpx:TrackPointExtension><gpxtpx:hr>154</gpxtpx:hr></gpxtpx:TrackPointExtension></extensions>
      </trkpt>
      <trkpt lat="61.0539772779" lon="14.3555820618">
        <ele>214.2</ele>
        <time>2011-05-24T14:25:38Z</time>
        <extensions><gpxtpx:TrackPointExtension><gpxtpx:hr>153</gpxtpx:hr></gpxtpx:TrackPointExtension></extensions>
      </trkpt>
      <trkpt lat="61.053778124" lon="14.3557100534">
        <ele>214.4</ele>
        <time>2011-05-24T14:25:42Z</time>
        <extensions><gpxtpx:TrackPointExtension><gpxtpx:hr>153</gpxtpx:hr></gpxtpx:TrackPointExtension></extensions>
      </trkpt>
      <trkpt lat="61.053566481" lon="14.3558750092">
        <ele>214.6</ele>
        <time>2011-05-24T14:25:46Z</time>
        <extensions><gpxtpx:TrackPointExtension><gpxtpx:hr>153</gpxtpx:hr></gpxtpx:TrackPointExtension></extensions>
      </trkpt>
      <trkpt lat="61.0533961608" lon="14.3560107121">
        <ele>214.6</ele>
        <time>2011-05-24T14:25:49Z</time>
        <extensions><gpxtpx:TrackPointExtension><gpxtpx:hr>153</gpxtpx:hr></gpxtpx:TrackPointExtension></extensions>
      </trkpt>
      <trkpt lat="61.0532192189" lon="14.3561772605">
        <ele>214.6</ele>
        <time>2011-05-24T14:25:52Z</time>
        <extensions><gpxtpx:TrackPointExtension><gpxtpx:hr>153</gpxtpx:hr></gpxtpx:TrackPointExtension></extensions>
      </trkpt>
      <trkpt lat="61.0530309614" lon="14.3563814436">
        <ele>214.6</ele>
        <time>2011-05-24T14:25:55Z</time>
        <extensions><gpxtpx:TrackPointExtension><gpxtpx:hr>154</gpxtpx:hr></gpxtpx:TrackPointExtension></extensions>
      </trkpt>
      <trkpt lat="61.0528587972" lon="14.3565944277">
        <ele>214.8</ele>
        <time>2011-05-24T14:25:58Z</time>
        <extensions><gpxtpx:TrackPointExtension><gpxtpx:hr>155</gpxtpx:hr></gpxtpx:TrackPointExtension></extensions>
      </trkpt>
      <trkpt lat="61.0526835317" lon="14.3568418613">
        <ele>214.8</ele>
        <time>2011-05-24T14:26:01Z</time>
        <extensions><gpxtpx:TrackPointExtension><gpxtpx:hr>155</gpxtpx:hr></gpxtpx:TrackPointExtension></extensions>
      </trkpt>
      <trkpt lat="61.0525137144" lon="14.3571047177">
        <ele>214.8</ele>
        <time>2011-05-24T14:26:04Z</time>
        <extensions><gpxtpx:TrackPointExtension><gpxtpx:hr>154</gpxtpx:hr></gpxtpx:TrackPointExtension></extensions>
      </trkpt>
      <trkpt lat="61.0523450706" lon="14.3573948991">
        <ele>214.8</ele>
        <time>2011-05-24T14:26:07Z</time>
        <extensions><gpxtpx:TrackPointExtension><gpxtpx:hr>154</gpxtpx:hr></gpxtpx:TrackPointExtension></extensions>
      </trkpt>
      <trkpt lat="61.0521772649" lon="14.3577092204">
        <ele>214.8</ele>
        <time>2011-05-24T14:26:10Z</time>
        <extensions><gpxtpx:TrackPointExtension><gpxtpx:hr>154</gpxtpx:hr></gpxtpx:TrackPointExtension></extensions>
      </trkpt>
      <trkpt lat="61.0520083696" lon="14.3580361983">
        <ele>214.8</ele>
        <time>2011-05-24T14:26:13Z</time>
        <extensions><gpxtpx:TrackPointExtension><gpxtpx:hr>154</gpxtpx:hr></gpxtpx:TrackPointExtension></extensions>
      </trkpt>
      <trkpt lat="61.0518417375" lon="14.3583646011">
        <ele>214.8</ele>
        <time>2011-05-24T14:26:16Z</time>
        <extensions><gpxtpx:TrackPointExtension><gpxtpx:hr>153</gpxtpx:hr></gpxtpx:TrackPointExtension></extensions>
      </trkpt>
      <trkpt lat="61.0516608561" lon="14.3587190717">
        <ele>214.8</ele>
        <time>2011-05-24T14:26:19Z</time>
        <extensions><gpxtpx:TrackPointExtension><gpxtpx:hr>152</gpxtpx:hr></gpxtpx:TrackPointExtension></extensions>
      </trkpt>
      <trkpt lat="61.0514875184" lon="14.3590623105">
        <ele>214.8</ele>
        <time>2011-05-24T14:26:22Z</time>
        <extensions><gpxtpx:TrackPointExtension><gpxtpx:hr>151</gpxtpx:hr></gpxtpx:TrackPointExtension></extensions>
      </trkpt>
      <trkpt lat="61.0512995124" lon="14.3594304435">
        <ele>214.8</ele>
        <time>2011-05-24T14:26:25Z</time>
        <extensions><gpxtpx:TrackPointExtension><gpxtpx:hr>150</gpxtpx:hr></gpxtpx:TrackPointExtension></extensions>
      </trkpt>
      <trkpt lat="61.0511302818" lon="14.3597690723">
        <ele>214.4</ele>
        <time>2011-05-24T14:26:28Z</time>
        <extensions><gpxtpx:TrackPointExtension><gpxtpx:hr>149</gpxtpx:hr></gpxtpx:TrackPointExtension></extensions>
      </trkpt>
      <trkpt lat="61.050968092" lon="14.3600932004">
        <ele>214</ele>
        <time>2011-05-24T14:26:31Z</time>
        <extensions><gpxtpx:TrackPointExtension><gpxtpx:hr>149</gpxtpx:hr></gpxtpx:TrackPointExtension></extensions>
      </trkpt>
      <trkpt lat="61.0508074948" lon="14.3604091142">
        <ele>213.6</ele>
        <time>2011-05-24T14:26:34Z</time>
        <extensions><gpxtpx:TrackPointExtension><gpxtpx:hr>148</gpxtpx:hr></gpxtpx:TrackPointExtension></extensions>
      </trkpt>
      <trkpt lat="61.0506493284" lon="14.3607064202">
        <ele>213.4</ele>
        <time>2011-05-24T14:26:37Z</time>
        <extensions><gpxtpx:TrackPointExtension><gpxtpx:hr>148</gpxtpx:hr></gpxtpx:TrackPointExtension></extensions>
      </trkpt>
      <trkpt lat="61.0504990409" lon="14.3609864594">
        <ele>213.2</ele>
        <time>2011-05-24T14:26:40Z</time>
        <extensions><gpxtpx:TrackPointExtension><gpxtpx:hr>147</gpxtpx:hr></gpxtpx:TrackPointExtension></extensions>
      </trkpt>
      <trkpt lat="61.0503533635" lon="14.3612553508">
        <ele>213</ele>
        <time>2011-05-24T14:26:43Z</time>
        <extensions><gpxtpx:TrackPointExtension><gpxtpx:hr>147</gpxtpx:hr></gpxtpx:TrackPointExtension></extensions>
      </trkpt>
      <trkpt lat="61.0501755834" lon="14.3615684986">
        <ele>213</ele>
        <time>2011-05-24T14:26:47Z</time>
        <extensions><gpxtpx:TrackPointExtension><gpxtpx:hr>147</gpxtpx:hr></gpxtpx:TrackPointExtension></extensions>
      </trkpt>
      <trkpt lat="61.0499916007" lon="14.3618662237">
        <ele>212.8</ele>
        <time>2011-05-24T14:26:51Z</time>
        <extensions><gpxtpx:TrackPointExtension><gpxtpx:hr>148</gpxtpx:hr></gpxtpx:TrackPointExtension></extensions>
      </trkpt>
      <trkpt lat="61.0498070312" lon="14.3621690617">
        <ele>212.8</ele>
        <time>2011-05-24T14:26:55Z</time>
        <extensions><gpxtpx:TrackPointExtension><gpxtpx:hr>149</gpxtpx:hr></gpxtpx:TrackPointExtension></extensions>
      </trkpt>
      <trkpt lat="61.0496238029" lon="14.3624622606">
        <ele>212.8</ele>
        <time>2011-05-24T14:26:59Z</time>
        <extensions><gpxtpx:TrackPointExtension><gpxtpx:hr>151</gpxtpx:hr></gpxtpx:TrackPointExtension></extensions>
      </trkpt>
      <trkpt lat="61.0494348749" lon="14.3627680323">
        <ele>212.8</ele>
        <time>2011-05-24T14:27:03Z</time>
        <extensions><gpxtpx:TrackPointExtension><gpxtpx:hr>152</gpxtpx:hr></gpxtpx:TrackPointExtension></extensions>
      </trkpt>
      <trkpt lat="61.0492920473" lon="14.3630102692">
        <ele>212.8</ele>
        <time>2011-05-24T14:27:06Z</time>
        <extensions><gpxtpx:TrackPointExtension><gpxtpx:hr>153</gpxtpx:hr></gpxtpx:TrackPointExtension></extensions>
      </trkpt>
      <trkpt lat="61.0491077293" lon="14.3633179687">
        <ele>212.8</ele>
        <time>2011-05-24T14:27:10Z</time>
        <extensions><gpxtpx:TrackPointExtension><gpxtpx:hr>154</gpxtpx:hr></gpxtpx:TrackPointExtension></extensions>
      </trkpt>
      <trkpt lat="61.048963393" lon="14.3635556794">
        <ele>212.8</ele>
        <time>2011-05-24T14:27:13Z</time>
        <extensions><gpxtpx:TrackPointExtension><gpxtpx:hr>155</gpxtpx:hr></gpxtpx:TrackPointExtension></extensions>
      </trkpt>
      <trkpt lat="61.0488234153" lon="14.3638125847">
        <ele>212.8</ele>
        <time>2011-05-24T14:27:16Z</time>
        <extensions><gpxtpx:TrackPointExtension><gpxtpx:hr>156</gpxtpx:hr></gpxtpx:TrackPointExtension></extensions>
      </trkpt>
      <trkpt lat="61.0486862874" lon="14.3640800511">
        <ele>212.8</ele>
        <time>2011-05-24T14:27:19Z</time>
        <extensions><gpxtpx:TrackPointExtension><gpxtpx:hr>157</gpxtpx:hr></gpxtpx:TrackPointExtension></extensions>
      </trkpt>
      <trkpt lat="61.048509094" lon="14.3644326776">
        <ele>212.8</ele>
        <time>2011-05-24T14:27:23Z</time>
        <extensions><gpxtpx:TrackPointExtension><gpxtpx:hr>156</gpxtpx:hr></gpxtpx:TrackPointExtension></extensions>
      </trkpt>
      <trkpt lat="61.0483714632" lon="14.3647064305">
        <ele>212.8</ele>
        <time>2011-05-24T14:27:26Z</time>
        <extensions><gpxtpx:TrackPointExtension><gpxtpx:hr>157</gpxtpx:hr></gpxtpx:TrackPointExtension></extensions>
      </trkpt>
      <trkpt lat="61.048240957" lon="14.3649971148">
        <ele>212.8</ele>
        <time>2011-05-24T14:27:29Z</time>
        <extensions><gpxtpx:TrackPointExtension><gpxtpx:hr>157</gpxtpx:hr></gpxtpx:TrackPointExtension></extensions>
      </trkpt>
      <trkpt lat="61.0480902505" lon="14.3653247632">
        <ele>212.8</ele>
        <time>2011-05-24T14:27:32Z</time>
        <extensions><gpxtpx:TrackPointExtension><gpxtpx:hr>157</gpxtpx:hr></gpxtpx:TrackPointExtension></extensions>
      </trkpt>
      <trkpt lat="61.0479475067" lon="14.3656348097">
        <ele>212.8</ele>
        <time>2011-05-24T14:27:35Z</time>
        <extensions><gpxtpx:TrackPointExtension><gpxtpx:hr>157</gpxtpx:hr></gpxtpx:TrackPointExtension></extensions>
      </trkpt>
      <trkpt lat="61.0478028351" lon="14.3659506397">
        <ele>212.8</ele>
        <time>2011-05-24T14:27:38Z</time>
        <extensions><gpxtpx:TrackPointExtension><gpxtpx:hr>157</gpxtpx:hr></gpxtpx:TrackPointExtension></extensions>
      </trkpt>
      <trkpt lat="61.0476623545" lon="14.3662542321">
        <ele>212.8</ele>
        <time>2011-05-24T14:27:41Z</time>
        <extensions><gpxtpx:TrackPointExtension><gpxtpx:hr>157</gpxtpx:hr></gpxtpx:TrackPointExtension></extensions>
      </trkpt>
      <trkpt lat="61.0475224606" lon="14.3665589142">
        <ele>212.8</ele>
        <time>2011-05-24T14:27:44Z</time>
        <extensions><gpxtpx:TrackPointExtension><gpxtpx:hr>157</gpxtpx:hr></gpxtpx:TrackPointExtension></extensions>
      </trkpt>
      <trkpt lat="61.0473869252" lon="14.3668597406">
        <ele>212.8</ele>
        <time>2011-05-24T14:27:47Z</time>
        <extensions><gpxtpx:TrackPointExtension><gpxtpx:hr>158</gpxtpx:hr></gpxtpx:TrackPointExtension></extensions>
      </trkpt>
      <trkpt lat="61.0472447682" lon="14.367175822">
        <ele>212.8</ele>
        <time>2011-05-24T14:27:50Z</time>
        <extensions><gpxtpx:TrackPointExtension><gpxtpx:hr>158</gpxtpx:hr></gpxtpx:TrackPointExtension></extensions>
      </trkpt>
      <trkpt lat="61.0471048743" lon="14.3674691885">
        <ele>212.8</ele>
        <time>2011-05-24T14:27:53Z</time>
        <extensions><gpxtpx:TrackPointExtension><gpxtpx:hr>158</gpxtpx:hr></gpxtpx:TrackPointExtension></extensions>
      </trkpt>
      <trkpt lat="61.0469604542" lon="14.367780157">
        <ele>212.8</ele>
        <time>2011-05-24T14:27:56Z</time>
        <extensions><gpxtpx:TrackPointExtension><gpxtpx:hr>158</gpxtpx:hr></gpxtpx:TrackPointExtension></extensions>
      </trkpt>
      <trkpt lat="61.0468093285" lon="14.3681068835">
        <ele>212.8</ele>
        <time>2011-05-24T14:27:59Z</time>
        <extensions><gpxtpx:TrackPointExtension><gpxtpx:hr>157</gpxtpx:hr></gpxtpx:TrackPointExtension></extensions>
      </trkpt>
      <trkpt lat="61.0466580352" lon="14.3684364598">
        <ele>212.8</ele>
        <time>2011-05-24T14:28:02Z</time>
        <extensions><gpxtpx:TrackPointExtension><gpxtpx:hr>156</gpxtpx:hr></gpxtpx:TrackPointExtension></extensions>
      </trkpt>
      <trkpt lat="61.0464997011" lon="14.3687775193">
        <ele>212.8</ele>
        <time>2011-05-24T14:28:05Z</time>
        <extensions><gpxtpx:TrackPointExtension><gpxtpx:hr>157</gpxtpx:hr></gpxtpx:TrackPointExtension></extensions>
      </trkpt>
      <trkpt lat="61.0463477373" lon="14.3691132144">
        <ele>212.8</ele>
        <time>2011-05-24T14:28:08Z</time>
        <extensions><gpxtpx:TrackPointExtension><gpxtpx:hr>156</gpxtpx:hr></gpxtpx:TrackPointExtension></extensions>
      </trkpt>
      <trkpt lat="61.046192756" lon="14.3694367557">
        <ele>212.8</ele>
        <time>2011-05-24T14:28:11Z</time>
        <extensions><gpxtpx:TrackPointExtension><gpxtpx:hr>156</gpxtpx:hr></gpxtpx:TrackPointExtension></extensions>
      </trkpt>
      <trkpt lat="61.0460359306" lon="14.3697753007">
        <ele>212.8</ele>
        <time>2011-05-24T14:28:14Z</time>
        <extensions><gpxtpx:TrackPointExtension><gpxtpx:hr>155</gpxtpx:hr></gpxtpx:TrackPointExtension></extensions>
      </trkpt>
      <trkpt lat="61.0458819551" lon="14.3701047932">
        <ele>212.8</ele>
        <time>2011-05-24T14:28:17Z</time>
        <extensions><gpxtpx:TrackPointExtension><gpxtpx:hr>154</gpxtpx:hr></gpxtpx:TrackPointExtension></extensions>
      </trkpt>
      <trkpt lat="61.0457163288" lon="14.3704633708">
        <ele>212.8</ele>
        <time>2011-05-24T14:28:20Z</time>
        <extensions><gpxtpx:TrackPointExtension><gpxtpx:hr>154</gpxtpx:hr></gpxtpx:TrackPointExtension></extensions>
      </trkpt>
      <trkpt lat="61.0455531332" lon="14.3708390476">
        <ele>212.8</ele>
        <time>2011-05-24T14:28:23Z</time>
        <extensions><gpxtpx:TrackPointExtension><gpxtpx:hr>153</gpxtpx:hr></gpxtpx:TrackPointExtension></extensions>
      </trkpt>
      <trkpt lat="61.0453942962" lon="14.3712590646">
        <ele>212.8</ele>
        <time>2011-05-24T14:28:26Z</time>
        <extensions><gpxtpx:TrackPointExtension><gpxtpx:hr>152</gpxtpx:hr></gpxtpx:TrackPointExtension></extensions>
      </trkpt>
      <trkpt lat="61.045248954" lon="14.3717376711">
        <ele>212.8</ele>
        <time>2011-05-24T14:28:29Z</time>
        <extensions><gpxtpx:TrackPointExtension><gpxtpx:hr>149</gpxtpx:hr></gpxtpx:TrackPointExtension></extensions>
      </trkpt>
      <trkpt lat="61.0451673143" lon="14.3720695105">
        <ele>212.8</ele>
        <time>2011-05-24T14:28:31Z</time>
        <extensions><gpxtpx:TrackPointExtension><gpxtpx:hr>148</gpxtpx:hr></gpxtpx:TrackPointExtension></extensions>
      </trkpt>
      <trkpt lat="61.0450818189" lon="14.3724626216">
        <ele>212.6</ele>
        <time>2011-05-24T14:28:33Z</time>
        <extensions><gpxtpx:TrackPointExtension><gpxtpx:hr>146</gpxtpx:hr></gpxtpx:TrackPointExtension></extensions>
      </trkpt>
      <trkpt lat="61.0450078068" lon="14.372867216">
        <ele>212.2</ele>
        <time>2011-05-24T14:28:35Z</time>
        <extensions><gpxtpx:TrackPointExtension><gpxtpx:hr>145</gpxtpx:hr></gpxtpx:TrackPointExtension></extensions>
      </trkpt>
      <trkpt lat="61.0449362253" lon="14.3732369416">
        <ele>211.8</ele>
        <time>2011-05-24T14:28:37Z</time>
        <extensions><gpxtpx:TrackPointExtension><gpxtpx:hr>142</gpxtpx:hr></gpxtpx:TrackPointExtension></extensions>
      </trkpt>
      <trkpt lat="61.044863219" lon="14.3736184018">
        <ele>211.6</ele>
        <time>2011-05-24T14:28:39Z</time>
        <extensions><gpxtpx:TrackPointExtension><gpxtpx:hr>139</gpxtpx:hr></gpxtpx:TrackPointExtension></extensions>
      </trkpt>
      <trkpt lat="61.0447956609" lon="14.3739769795">
        <ele>211.4</ele>
        <time>2011-05-24T14:28:41Z</time>
        <extensions><gpxtpx:TrackPointExtension><gpxtpx:hr>137</gpxtpx:hr></gpxtpx:TrackPointExtension></extensions>
      </trkpt>
      <trkpt lat="61.0446970897" lon="14.3744949809">
        <ele>210.6</ele>
        <time>2011-05-24T14:28:44Z</time>
        <extensions><gpxtpx:TrackPointExtension><gpxtpx:hr>134</gpxtpx:hr></gpxtpx:TrackPointExtension></extensions>
      </trkpt>
      <trkpt lat="61.0446012846" lon="14.3750123956">
        <ele>210.2</ele>
        <time>2011-05-24T14:28:47Z</time>
        <extensions><gpxtpx:TrackPointExtension><gpxtpx:hr>132</gpxtpx:hr></gpxtpx:TrackPointExtension></extensions>
      </trkpt>
      <trkpt lat="61.0445063177" lon="14.3755131303">
        <ele>209.8</ele>
        <time>2011-05-24T14:28:50Z</time>
        <extensions><gpxtpx:TrackPointExtension><gpxtpx:hr>132</gpxtpx:hr></gpxtpx:TrackPointExtension></extensions>
      </trkpt>
      <trkpt lat="61.0444134462" lon="14.3760247615">
        <ele>209.4</ele>
        <time>2011-05-24T14:28:53Z</time>
        <extensions><gpxtpx:TrackPointExtension><gpxtpx:hr>135</gpxtpx:hr></gpxtpx:TrackPointExtension></extensions>
      </trkpt>
      <trkpt lat="61.0443261068" lon="14.3765113308">
        <ele>209.2</ele>
        <time>2011-05-24T14:28:56Z</time>
        <extensions><gpxtpx:TrackPointExtension><gpxtpx:hr>137</gpxtpx:hr></gpxtpx:TrackPointExtension></extensions>
      </trkpt>
      <trkpt lat="61.0442411982" lon="14.3769941282">
        <ele>209</ele>
        <time>2011-05-24T14:28:59Z</time>
        <extensions><gpxtpx:TrackPointExtension><gpxtpx:hr>138</gpxtpx:hr></gpxtpx:TrackPointExtension></extensions>
      </trkpt>
      <trkpt lat="61.0441576306" lon="14.3774637661">
        <ele>209</ele>
        <time>2011-05-24T14:29:02Z</time>
        <extensions><gpxtpx:TrackPointExtension><gpxtpx:hr>139</gpxtpx:hr></gpxtpx:TrackPointExtension></extensions>
      </trkpt>
      <trkpt lat="61.0440792599" lon="14.377961651">
        <ele>208.4</ele>
        <time>2011-05-24T14:29:05Z</time>
        <extensions><gpxtpx:TrackPointExtension><gpxtpx:hr>140</gpxtpx:hr></gpxtpx:TrackPointExtension></extensions>
      </trkpt>
      <trkpt lat="61.0440084328" lon="14.3784549258">
        <ele>208</ele>
        <time>2011-05-24T14:29:08Z</time>
        <extensions><gpxtpx:TrackPointExtension><gpxtpx:hr>141</gpxtpx:hr></gpxtpx:TrackPointExtension></extensions>
      </trkpt>
      <trkpt lat="61.0439402042" lon="14.3789657188">
        <ele>207.6</ele>
        <time>2011-05-24T14:29:11Z</time>
        <extensions><gpxtpx:TrackPointExtension><gpxtpx:hr>143</gpxtpx:hr></gpxtpx:TrackPointExtension></extensions>
      </trkpt>
      <trkpt lat="61.0438858056" lon="14.3794985561">
        <ele>207.4</ele>
        <time>2011-05-24T14:29:14Z</time>
        <extensions><gpxtpx:TrackPointExtension><gpxtpx:hr>143</gpxtpx:hr></gpxtpx:TrackPointExtension></extensions>
      </trkpt>
      <trkpt lat="61.0438391184" lon="14.3800169767">
        <ele>207.2</ele>
        <time>2011-05-24T14:29:17Z</time>
        <extensions><gpxtpx:TrackPointExtension><gpxtpx:hr>144</gpxtpx:hr></gpxtpx:TrackPointExtension></extensions>
      </trkpt>
      <trkpt lat="61.0438063452" lon="14.3803905579">
        <ele>207</ele>
        <time>2011-05-24T14:29:19Z</time>
        <extensions><gpxtpx:TrackPointExtension><gpxtpx:hr>145</gpxtpx:hr></gpxtpx:TrackPointExtension></extensions>
      </trkpt>
      <trkpt lat="61.0437700516" lon="14.380905039">
        <ele>207</ele>
        <time>2011-05-24T14:29:22Z</time>
        <extensions><gpxtpx:TrackPointExtension><gpxtpx:hr>145</gpxtpx:hr></gpxtpx:TrackPointExtension></extensions>
      </trkpt>
      <trkpt lat="61.0437404635" lon="14.3812721662">
        <ele>206.8</ele>
        <time>2011-05-24T14:29:24Z</time>
        <extensions><gpxtpx:TrackPointExtension><gpxtpx:hr>145</gpxtpx:hr></gpxtpx:TrackPointExtension></extensions>
      </trkpt>
      <trkpt lat="61.0437027449" lon="14.3817473361">
        <ele>206.8</ele>
        <time>2011-05-24T14:29:27Z</time>
        <extensions><gpxtpx:TrackPointExtension><gpxtpx:hr>145</gpxtpx:hr></gpxtpx:TrackPointExtension></extensions>
      </trkpt>
      <trkpt lat="61.0436750008" lon="14.3821203306">
        <ele>206.8</ele>
        <time>2011-05-24T14:29:29Z</time>
        <extensions><gpxtpx:TrackPointExtension><gpxtpx:hr>145</gpxtpx:hr></gpxtpx:TrackPointExtension></extensions>
      </trkpt>
      <trkpt lat="61.0436337619" lon="14.3826195566">
        <ele>206.8</ele>
        <time>2011-05-24T14:29:32Z</time>
        <extensions><gpxtpx:TrackPointExtension><gpxtpx:hr>145</gpxtpx:hr></gpxtpx:TrackPointExtension></extensions>
      </trkpt>
      <trkpt lat="61.0435924391" lon="14.3831369713">
        <ele>206.6</ele>
        <time>2011-05-24T14:29:35Z</time>
        <extensions><gpxtpx:TrackPointExtension><gpxtpx:hr>146</gpxtpx:hr></gpxtpx:TrackPointExtension></extensions>
      </trkpt>
      <trkpt lat="61.0435524575" lon="14.3836646957">
        <ele>206.6</ele>
        <time>2011-05-24T14:29:38Z</time>
        <extensions><gpxtpx:TrackPointExtension><gpxtpx:hr>148</gpxtpx:hr></gpxtpx:TrackPointExtension></extensions>
      </trkpt>
      <trkpt lat="61.0435076143" lon="14.3841719683">
        <ele>206.6</ele>
        <time>2011-05-24T14:29:41Z</time>
        <extensions><gpxtpx:TrackPointExtension><gpxtpx:hr>150</gpxtpx:hr></gpxtpx:TrackPointExtension></extensions>
      </trkpt>
      <trkpt lat="61.043454473" lon="14.3846760558">
        <ele>206.6</ele>
        <time>2011-05-24T14:29:44Z</time>
        <extensions><gpxtpx:TrackPointExtension><gpxtpx:hr>150</gpxtpx:hr></gpxtpx:TrackPointExtension></extensions>
      </trkpt>
      <trkpt lat="61.0433908544" lon="14.385157093">
        <ele>206.6</ele>
        <time>2011-05-24T14:29:47Z</time>
        <extensions><gpxtpx:TrackPointExtension><gpxtpx:hr>151</gpxtpx:hr></gpxtpx:TrackPointExtension></extensions>
      </trkpt>
      <trkpt lat="61.0433109749" lon="14.3856623539">
        <ele>206.6</ele>
        <time>2011-05-24T14:29:50Z</time>
        <extensions><gpxtpx:TrackPointExtension><gpxtpx:hr>152</gpxtpx:hr></gpxtpx:TrackPointExtension></extensions>
      </trkpt>
      <trkpt lat="61.0432227135" lon="14.3861433074">
        <ele>206.6</ele>
        <time>2011-05-24T14:29:53Z</time>
        <extensions><gpxtpx:TrackPointExtension><gpxtpx:hr>152</gpxtpx:hr></gpxtpx:TrackPointExtension></extensions>
      </trkpt>
      <trkpt lat="61.0431424149" lon="14.386613532">
        <ele>206.6</ele>
        <time>2011-05-24T14:29:56Z</time>
        <extensions><gpxtpx:TrackPointExtension><gpxtpx:hr>153</gpxtpx:hr></gpxtpx:TrackPointExtension></extensions>
      </trkpt>
      <trkpt lat="61.0430542373" lon="14.3870938986">
        <ele>206.6</ele>
        <time>2011-05-24T14:29:59Z</time>
        <extensions><gpxtpx:TrackPointExtension><gpxtpx:hr>153</gpxtpx:hr></gpxtpx:TrackPointExtension></extensions>
      </trkpt>
      <trkpt lat="61.042961785" lon="14.3875600999">
        <ele>206.6</ele>
        <time>2011-05-24T14:30:02Z</time>
        <extensions><gpxtpx:TrackPointExtension><gpxtpx:hr>154</gpxtpx:hr></gpxtpx:TrackPointExtension></extensions>
      </trkpt>
      <trkpt lat="61.0428830789" lon="14.3880228646">
        <ele>206.6</ele>
        <time>2011-05-24T14:30:05Z</time>
        <extensions><gpxtpx:TrackPointExtension><gpxtpx:hr>155</gpxtpx:hr></gpxtpx:TrackPointExtension></extensions>
      </trkpt>
      <trkpt lat="61.0427954042" lon="14.3884917481">
        <ele>206.6</ele>
        <time>2011-05-24T14:30:08Z</time>
        <extensions><gpxtpx:TrackPointExtension><gpxtpx:hr>155</gpxtpx:hr></gpxtpx:TrackPointExtension></extensions>
      </trkpt>
      <trkpt lat="61.042710328" lon="14.3889529202">
        <ele>206.6</ele>
        <time>2011-05-24T14:30:11Z</time>
        <extensions><gpxtpx:TrackPointExtension><gpxtpx:hr>155</gpxtpx:hr></gpxtpx:TrackPointExtension></extensions>
      </trkpt>
      <trkpt lat="61.0426164507" lon="14.3894053752">
        <ele>206.6</ele>
        <time>2011-05-24T14:30:14Z</time>
        <extensions><gpxtpx:TrackPointExtension><gpxtpx:hr>155</gpxtpx:hr></gpxtpx:TrackPointExtension></extensions>
      </trkpt>
      <trkpt lat="61.0425132695" lon="14.3898566567">
        <ele>206.6</ele>
        <time>2011-05-24T14:30:17Z</time>
        <extensions><gpxtpx:TrackPointExtension><gpxtpx:hr>155</gpxtpx:hr></gpxtpx:TrackPointExtension></extensions>
      </trkpt>
      <trkpt lat="61.0424179673" lon="14.3902793559">
        <ele>206.6</ele>
        <time>2011-05-24T14:30:20Z</time>
        <extensions><gpxtpx:TrackPointExtension><gpxtpx:hr>155</gpxtpx:hr></gpxtpx:TrackPointExtension></extensions>
      </trkpt>
      <trkpt lat="61.042310679" lon="14.3908038114">
        <ele>206.6</ele>
        <time>2011-05-24T14:30:23Z</time>
        <extensions><gpxtpx:TrackPointExtension><gpxtpx:hr>155</gpxtpx:hr></gpxtpx:TrackPointExtension></extensions>
      </trkpt>
      <trkpt lat="61.0421975233" lon="14.391298595">
        <ele>206.4</ele>
        <time>2011-05-24T14:30:26Z</time>
        <extensions><gpxtpx:TrackPointExtension><gpxtpx:hr>156</gpxtpx:hr></gpxtpx:TrackPointExtension></extensions>
      </trkpt>
      <trkpt lat="61.0420770754" lon="14.3917850804">
        <ele>206</ele>
        <time>2011-05-24T14:30:29Z</time>
        <extensions><gpxtpx:TrackPointExtension><gpxtpx:hr>157</gpxtpx:hr></gpxtpx:TrackPointExtension></extensions>
      </trkpt>
      <trkpt lat="61.0419770794" lon="14.3922003198">
        <ele>205.6</ele>
        <time>2011-05-24T14:30:32Z</time>
        <extensions><gpxtpx:TrackPointExtension><gpxtpx:hr>158</gpxtpx:hr></gpxtpx:TrackPointExtension></extensions>
      </trkpt>
      <trkpt lat="61.0418925898" lon="14.3925635075">
        <ele>205.4</ele>
        <time>2011-05-24T14:30:34Z</time>
        <extensions><gpxtpx:TrackPointExtension><gpxtpx:hr>159</gpxtpx:hr></gpxtpx:TrackPointExtension></extensions>
      </trkpt>
      <trkpt lat="61.0417810267" lon="14.3930358275">
        <ele>205.2</ele>
        <time>2011-05-24T14:30:37Z</time>
        <extensions><gpxtpx:TrackPointExtension><gpxtpx:hr>160</gpxtpx:hr></gpxtpx:TrackPointExtension></extensions>
      </trkpt>
      <trkpt lat="61.0416718944" lon="14.3935122547">
        <ele>205</ele>
        <time>2011-05-24T14:30:40Z</time>
        <extensions><gpxtpx:TrackPointExtension><gpxtpx:hr>160</gpxtpx:hr></gpxtpx:TrackPointExtension></extensions>
      </trkpt>
      <trkpt lat="61.0415636002" lon="14.3939774502">
        <ele>204.8</ele>
        <time>2011-05-24T14:30:43Z</time>
        <extensions><gpxtpx:TrackPointExtension><gpxtpx:hr>160</gpxtpx:hr></gpxtpx:TrackPointExtension></extensions>
      </trkpt>
      <trkpt lat="61.041458575" lon="14.394419344">
        <ele>204.8</ele>
        <time>2011-05-24T14:30:46Z</time>
        <extensions><gpxtpx:TrackPointExtension><gpxtpx:hr>161</gpxtpx:hr></gpxtpx:TrackPointExtension></extensions>
      </trkpt>
      <trkpt lat="61.0413489398" lon="14.3948688653">
        <ele>204.8</ele>
        <time>2011-05-24T14:30:49Z</time>
        <extensions><gpxtpx:TrackPointExtension><gpxtpx:hr>161</gpxtpx:hr></gpxtpx:TrackPointExtension></extensions>
      </trkpt>
      <trkpt lat="61.0412468482" lon="14.3952972642">
        <ele>204.6</ele>
        <time>2011-05-24T14:30:52Z</time>
        <extensions><gpxtpx:TrackPointExtension><gpxtpx:hr>161</gpxtpx:hr></gpxtpx:TrackPointExtension></extensions>
      </trkpt>
      <trkpt lat="61.0411429127" lon="14.3957425945">
        <ele>204.2</ele>
        <time>2011-05-24T14:30:55Z</time>
        <extensions><gpxtpx:TrackPointExtension><gpxtpx:hr>161</gpxtpx:hr></gpxtpx:TrackPointExtension></extensions>
      </trkpt>
      <trkpt lat="61.0410355405" lon="14.3961686465">
        <ele>203.6</ele>
        <time>2011-05-24T14:30:58Z</time>
        <extensions><gpxtpx:TrackPointExtension><gpxtpx:hr>161</gpxtpx:hr></gpxtpx:TrackPointExtension></extensions>
      </trkpt>
      <trkpt lat="61.0409148412" lon="14.3965959558">
        <ele>203.4</ele>
        <time>2011-05-24T14:31:01Z</time>
        <extensions><gpxtpx:TrackPointExtension><gpxtpx:hr>161</gpxtpx:hr></gpxtpx:TrackPointExtension></extensions>
      </trkpt>
      <trkpt lat="61.0407814851" lon="14.3969911623">
        <ele>203.2</ele>
        <time>2011-05-24T14:31:04Z</time>
        <extensions><gpxtpx:TrackPointExtension><gpxtpx:hr>161</gpxtpx:hr></gpxtpx:TrackPointExtension></extensions>
      </trkpt>
      <trkpt lat="61.040629186" lon="14.3973720359">
        <ele>203</ele>
        <time>2011-05-24T14:31:07Z</time>
        <extensions><gpxtpx:TrackPointExtension><gpxtpx:hr>161</gpxtpx:hr></gpxtpx:TrackPointExtension></extensions>
      </trkpt>
      <trkpt lat="61.0404777251" lon="14.3977054679">
        <ele>202.8</ele>
        <time>2011-05-24T14:31:10Z</time>
        <extensions><gpxtpx:TrackPointExtension><gpxtpx:hr>161</gpxtpx:hr></gpxtpx:TrackPointExtension></extensions>
      </trkpt>
      <trkpt lat="61.040317547" lon="14.3980032768">
        <ele>202.8</ele>
        <time>2011-05-24T14:31:13Z</time>
        <extensions><gpxtpx:TrackPointExtension><gpxtpx:hr>161</gpxtpx:hr></gpxtpx:TrackPointExtension></extensions>
      </trkpt>
      <trkpt lat="61.040173043" lon="14.3982729225">
        <ele>202.8</ele>
        <time>2011-05-24T14:31:16Z</time>
        <extensions><gpxtpx:TrackPointExtension><gpxtpx:hr>161</gpxtpx:hr></gpxtpx:TrackPointExtension></extensions>
      </trkpt>
      <trkpt lat="61.040012362" lon="14.3985702285">
        <ele>202.6</ele>
        <time>2011-05-24T14:31:19Z</time>
        <extensions><gpxtpx:TrackPointExtension><gpxtpx:hr>162</gpxtpx:hr></gpxtpx:TrackPointExtension></extensions>
      </trkpt>
      <trkpt lat="61.0398603143" lon="14.398834426">
        <ele>202.6</ele>
        <time>2011-05-24T14:31:22Z</time>
        <extensions><gpxtpx:TrackPointExtension><gpxtpx:hr>161</gpxtpx:hr></gpxtpx:TrackPointExtension></extensions>
      </trkpt>
      <trkpt lat="61.0396921734" lon="14.3991287145">
        <ele>202.6</ele>
        <time>2011-05-24T14:31:25Z</time>
        <extensions><gpxtpx:TrackPointExtension><gpxtpx:hr>162</gpxtpx:hr></gpxtpx:TrackPointExtension></extensions>
      </trkpt>
      <trkpt lat="61.0395341746" lon="14.3993997851">
        <ele>202.6</ele>
        <time>2011-05-24T14:31:28Z</time>
        <extensions><gpxtpx:TrackPointExtension><gpxtpx:hr>162</gpxtpx:hr></gpxtpx:TrackPointExtension></extensions>
      </trkpt>
      <trkpt lat="61.0393736612" lon="14.399679992">
        <ele>202.6</ele>
        <time>2011-05-24T14:31:31Z</time>
        <extensions><gpxtpx:TrackPointExtension><gpxtpx:hr>163</gpxtpx:hr></gpxtpx:TrackPointExtension></extensions>
      </trkpt>
      <trkpt lat="61.0392220326" lon="14.3999478776">
        <ele>202.6</ele>
        <time>2011-05-24T14:31:34Z</time>
        <extensions><gpxtpx:TrackPointExtension><gpxtpx:hr>163</gpxtpx:hr></gpxtpx:TrackPointExtension></extensions>
      </trkpt>
      <trkpt lat="61.0390599267" lon="14.400229677">
        <ele>202.6</ele>
        <time>2011-05-24T14:31:37Z</time>
        <extensions><gpxtpx:TrackPointExtension><gpxtpx:hr>163</gpxtpx:hr></gpxtpx:TrackPointExtension></extensions>
      </trkpt>
      <trkpt lat="61.0388904447" lon="14.4005303358">
        <ele>202.6</ele>
        <time>2011-05-24T14:31:40Z</time>
        <extensions><gpxtpx:TrackPointExtension><gpxtpx:hr>164</gpxtpx:hr></gpxtpx:TrackPointExtension></extensions>
      </trkpt>
      <trkpt lat="61.0387166041" lon="14.400840969">
        <ele>202.6</ele>
        <time>2011-05-24T14:31:43Z</time>
        <extensions><gpxtpx:TrackPointExtension><gpxtpx:hr>164</gpxtpx:hr></gpxtpx:TrackPointExtension></extensions>
      </trkpt>
      <trkpt lat="61.0385458648" lon="14.4011448129">
        <ele>202.6</ele>
        <time>2011-05-24T14:31:46Z</time>
        <extensions><gpxtpx:TrackPointExtension><gpxtpx:hr>164</gpxtpx:hr></gpxtpx:TrackPointExtension></extensions>
      </trkpt>
      <trkpt lat="61.0383612953" lon="14.401500876">
        <ele>202.6</ele>
        <time>2011-05-24T14:31:49Z</time>
        <extensions><gpxtpx:TrackPointExtension><gpxtpx:hr>164</gpxtpx:hr></gpxtpx:TrackPointExtension></extensions>
      </trkpt>
      <trkpt lat="61.0382115946" lon="14.4018615492">
        <ele>202.6</ele>
        <time>2011-05-24T14:31:52Z</time>
        <extensions><gpxtpx:TrackPointExtension><gpxtpx:hr>164</gpxtpx:hr></gpxtpx:TrackPointExtension></extensions>
      </trkpt>
      <trkpt lat="61.0380781547" lon="14.402255247">
        <ele>202.6</ele>
        <time>2011-05-24T14:31:55Z</time>
        <extensions><gpxtpx:TrackPointExtension><gpxtpx:hr>163</gpxtpx:hr></gpxtpx:TrackPointExtension></extensions>
      </trkpt>
      <trkpt lat="61.0379562819" lon="14.4027241305">
        <ele>202.6</ele>
        <time>2011-05-24T14:31:58Z</time>
        <extensions><gpxtpx:TrackPointExtension><gpxtpx:hr>163</gpxtpx:hr></gpxtpx:TrackPointExtension></extensions>
      </trkpt>
      <trkpt lat="61.0378567049" lon="14.4032220153">
        <ele>202.6</ele>
        <time>2011-05-24T14:32:01Z</time>
        <extensions><gpxtpx:TrackPointExtension><gpxtpx:hr>163</gpxtpx:hr></gpxtpx:TrackPointExtension></extensions>
      </trkpt>
      <trkpt lat="61.0377962715" lon="14.4035722949">
        <ele>202.6</ele>
        <time>2011-05-24T14:32:03Z</time>
        <extensions><gpxtpx:TrackPointExtension><gpxtpx:hr>163</gpxtpx:hr></gpxtpx:TrackPointExtension></extensions>
      </trkpt>
      <trkpt lat="61.0377078424" lon="14.4040787293">
        <ele>202.6</ele>
        <time>2011-05-24T14:32:06Z</time>
        <extensions><gpxtpx:TrackPointExtension><gpxtpx:hr>162</gpxtpx:hr></gpxtpx:TrackPointExtension></extensions>
      </trkpt>
      <trkpt lat="61.0376215088" lon="14.4045744349">
        <ele>202.4</ele>
        <time>2011-05-24T14:32:09Z</time>
        <extensions><gpxtpx:TrackPointExtension><gpxtpx:hr>161</gpxtpx:hr></gpxtpx:TrackPointExtension></extensions>
      </trkpt>
      <trkpt lat="61.0375382766" lon="14.4050537958">
        <ele>201.8</ele>
        <time>2011-05-24T14:32:12Z</time>
        <extensions><gpxtpx:TrackPointExtension><gpxtpx:hr>160</gpxtpx:hr></gpxtpx:TrackPointExtension></extensions>
      </trkpt>
      <trkpt lat="61.0374645158" lon="14.4055220087">
        <ele>201.4</ele>
        <time>2011-05-24T14:32:15Z</time>
        <extensions><gpxtpx:TrackPointExtension><gpxtpx:hr>159</gpxtpx:hr></gpxtpx:TrackPointExtension></extensions>
      </trkpt>
      <trkpt lat="61.037390336" lon="14.4059437021">
        <ele>201.2</ele>
        <time>2011-05-24T14:32:18Z</time>
        <extensions><gpxtpx:TrackPointExtension><gpxtpx:hr>158</gpxtpx:hr></gpxtpx:TrackPointExtension></extensions>
      </trkpt>
      <trkpt lat="61.0372997277" lon="14.4063803153">
        <ele>201</ele>
        <time>2011-05-24T14:32:21Z</time>
        <extensions><gpxtpx:TrackPointExtension><gpxtpx:hr>157</gpxtpx:hr></gpxtpx:TrackPointExtension></extensions>
      </trkpt>
      <trkpt lat="61.037206521" lon="14.4067880109">
        <ele>200.8</ele>
        <time>2011-05-24T14:32:24Z</time>
        <extensions><gpxtpx:TrackPointExtension><gpxtpx:hr>156</gpxtpx:hr></gpxtpx:TrackPointExtension></extensions>
      </trkpt>
      <trkpt lat="61.037102753" lon="14.4071687168">
        <ele>200.8</ele>
        <time>2011-05-24T14:32:27Z</time>
        <extensions><gpxtpx:TrackPointExtension><gpxtpx:hr>155</gpxtpx:hr></gpxtpx:TrackPointExtension></extensions>
      </trkpt>
      <trkpt lat="61.0369864961" lon="14.4075655997">
        <ele>200.6</ele>
        <time>2011-05-24T14:32:30Z</time>
        <extensions><gpxtpx:TrackPointExtension><gpxtpx:hr>155</gpxtpx:hr></gpxtpx:TrackPointExtension></extensions>
      </trkpt>
      <trkpt lat="61.0368618572" lon="14.4079201541">
        <ele>200.6</ele>
        <time>2011-05-24T14:32:33Z</time>
        <extensions><gpxtpx:TrackPointExtension><gpxtpx:hr>155</gpxtpx:hr></gpxtpx:TrackPointExtension></extensions>
      </trkpt>
      <trkpt lat="61.0367380566" lon="14.4082639797">
        <ele>200.6</ele>
        <time>2011-05-24T14:32:36Z</time>
        <extensions><gpxtpx:TrackPointExtension><gpxtpx:hr>155</gpxtpx:hr></gpxtpx:TrackPointExtension></extensions>
      </trkpt>
      <trkpt lat="61.0366104002" lon="14.4086309392">
        <ele>200.6</ele>
        <time>2011-05-24T14:32:40Z</time>
        <extensions><gpxtpx:TrackPointExtension><gpxtpx:hr>156</gpxtpx:hr></gpxtpx:TrackPointExtension></extensions>
      </trkpt>
      <trkpt lat="61.0364856776" lon="14.4089875053">
        <ele>200.6</ele>
        <time>2011-05-24T14:32:42Z</time>
        <extensions><gpxtpx:TrackPointExtension><gpxtpx:hr>156</gpxtpx:hr></gpxtpx:TrackPointExtension></extensions>
      </trkpt>
      <trkpt lat="61.0363466218" lon="14.4093600807">
        <ele>200.6</ele>
        <time>2011-05-24T14:32:45Z</time>
        <extensions><gpxtpx:TrackPointExtension><gpxtpx:hr>157</gpxtpx:hr></gpxtpx:TrackPointExtension></extensions>
      </trkpt>
      <trkpt lat="61.0362042134" lon="14.4097409542">
        <ele>200.6</ele>
        <time>2011-05-24T14:32:49Z</time>
        <extensions><gpxtpx:TrackPointExtension><gpxtpx:hr>156</gpxtpx:hr></gpxtpx:TrackPointExtension></extensions>
      </trkpt>
      <trkpt lat="61.036069181" lon="14.4100969335">
        <ele>200.6</ele>
        <time>2011-05-24T14:32:51Z</time>
        <extensions><gpxtpx:TrackPointExtension><gpxtpx:hr>156</gpxtpx:hr></gpxtpx:TrackPointExtension></extensions>
      </trkpt>
      <trkpt lat="61.0359249285" lon="14.4104864404">
        <ele>200.4</ele>
        <time>2011-05-24T14:32:54Z</time>
        <extensions><gpxtpx:TrackPointExtension><gpxtpx:hr>155</gpxtpx:hr></gpxtpx:TrackPointExtension></extensions>
      </trkpt>
      <trkpt lat="61.0357829391" lon="14.4109264902">
        <ele>200.4</ele>
        <time>2011-05-24T14:32:57Z</time>
        <extensions><gpxtpx:TrackPointExtension><gpxtpx:hr>154</gpxtpx:hr></gpxtpx:TrackPointExtension></extensions>
      </trkpt>
      <trkpt lat="61.0356627426" lon="14.4112693099">
        <ele>200.4</ele>
        <time>2011-05-24T14:33:00Z</time>
        <extensions><gpxtpx:TrackPointExtension><gpxtpx:hr>153</gpxtpx:hr></gpxtpx:TrackPointExtension></extensions>
      </trkpt>
      <trkpt lat="61.0355360921" lon="14.411611962">
        <ele>200.4</ele>
        <time>2011-05-24T14:33:02Z</time>
        <extensions><gpxtpx:TrackPointExtension><gpxtpx:hr>152</gpxtpx:hr></gpxtpx:TrackPointExtension></extensions>
      </trkpt>
      <trkpt lat="61.0354070109" lon="14.411951848">
        <ele>200.4</ele>
        <time>2011-05-24T14:33:03Z</time>
        <extensions><gpxtpx:TrackPointExtension><gpxtpx:hr>151</gpxtpx:hr></gpxtpx:TrackPointExtension></extensions>
      </trkpt>
      <trkpt lat="61.0352578969" lon="14.4123131917">
        <ele>200.4</ele>
        <time>2011-05-24T14:33:06Z</time>
        <extensions><gpxtpx:TrackPointExtension><gpxtpx:hr>150</gpxtpx:hr></gpxtpx:TrackPointExtension></extensions>
      </trkpt>
      <trkpt lat="61.0350978026" lon="14.4126617111">
        <ele>200.4</ele>
        <time>2011-05-24T14:33:07Z</time>
        <extensions><gpxtpx:TrackPointExtension><gpxtpx:hr>149</gpxtpx:hr></gpxtpx:TrackPointExtension></extensions>
      </trkpt>
      <trkpt lat="61.0349093775" lon="14.4130733462">
        <ele>200.4</ele>
        <time>2011-05-24T14:33:10Z</time>
        <extensions><gpxtpx:TrackPointExtension><gpxtpx:hr>147</gpxtpx:hr></gpxtpx:TrackPointExtension></extensions>
      </trkpt>
      <trkpt lat="61.0347392249" lon="14.4135007393">
        <ele>200.4</ele>
        <time>2011-05-24T14:33:12Z</time>
        <extensions><gpxtpx:TrackPointExtension><gpxtpx:hr>144</gpxtpx:hr></gpxtpx:TrackPointExtension></extensions>
      </trkpt>
      <trkpt lat="61.0346704933" lon="14.4137233626">
        <ele>200.4</ele>
        <time>2011-05-24T14:33:13Z</time>
        <extensions><gpxtpx:TrackPointExtension><gpxtpx:hr>143</gpxtpx:hr></gpxtpx:TrackPointExtension></extensions>
      </trkpt>
      <trkpt lat="61.0344973232" lon="14.41448402">
        <ele>199.8</ele>
        <time>2011-05-24T14:33:15Z</time>
        <extensions><gpxtpx:TrackPointExtension><gpxtpx:hr>141</gpxtpx:hr></gpxtpx:TrackPointExtension></extensions>
      </trkpt>
      <trkpt lat="61.034401602" lon="14.4150060447">
        <ele>199.2</ele>
        <time>2011-05-24T14:33:17Z</time>
        <extensions><gpxtpx:TrackPointExtension><gpxtpx:hr>139</gpxtpx:hr></gpxtpx:TrackPointExtension></extensions>
      </trkpt>
      <trkpt lat="61.0342897036" lon="14.4155573223">
        <ele>198.6</ele>
        <time>2011-05-24T14:33:20Z</time>
        <extensions><gpxtpx:TrackPointExtension><gpxtpx:hr>137</gpxtpx:hr></gpxtpx:TrackPointExtension></extensions>
      </trkpt>
      <trkpt lat="61.0341690042" lon="14.4160213443">
        <ele>197.8</ele>
        <time>2011-05-24T14:33:21Z</time>
        <extensions><gpxtpx:TrackPointExtension><gpxtpx:hr>136</gpxtpx:hr></gpxtpx:TrackPointExtension></extensions>
      </trkpt>
      <trkpt lat="61.0340270148" lon="14.4164691892">
        <ele>197</ele>
        <time>2011-05-24T14:33:23Z</time>
        <extensions><gpxtpx:TrackPointExtension><gpxtpx:hr>135</gpxtpx:hr></gpxtpx:TrackPointExtension></extensions>
      </trkpt>
      <trkpt lat="61.0338927368" lon="14.4168726939">
        <ele>196.2</ele>
        <time>2011-05-24T14:33:26Z</time>
        <extensions><gpxtpx:TrackPointExtension><gpxtpx:hr>135</gpxtpx:hr></gpxtpx:TrackPointExtension></extensions>
      </trkpt>
      <trkpt lat="61.0337720374" lon="14.4172335347">
        <ele>195.4</ele>
        <time>2011-05-24T14:33:27Z</time>
        <extensions><gpxtpx:TrackPointExtension><gpxtpx:hr>135</gpxtpx:hr></gpxtpx:TrackPointExtension></extensions>
      </trkpt>
      <trkpt lat="61.033640274" lon="14.417610804">
        <ele>194.6</ele>
        <time>2011-05-24T14:33:30Z</time>
        <extensions><gpxtpx:TrackPointExtension><gpxtpx:hr>135</gpxtpx:hr></gpxtpx:TrackPointExtension></extensions>
      </trkpt>
      <trkpt lat="61.0335301358" lon="14.4179592396">
        <ele>194</ele>
        <time>2011-05-24T14:33:31Z</time>
        <extensions><gpxtpx:TrackPointExtension><gpxtpx:hr>136</gpxtpx:hr></gpxtpx:TrackPointExtension></extensions>
      </trkpt>
      <trkpt lat="61.0334083468" lon="14.4182873909">
        <ele>193</ele>
        <time>2011-05-24T14:33:33Z</time>
        <extensions><gpxtpx:TrackPointExtension><gpxtpx:hr>135</gpxtpx:hr></gpxtpx:TrackPointExtension></extensions>
      </trkpt>
      <trkpt lat="61.0332949397" lon="14.4186354913">
        <ele>192.4</ele>
        <time>2011-05-24T14:33:35Z</time>
        <extensions><gpxtpx:TrackPointExtension><gpxtpx:hr>135</gpxtpx:hr></gpxtpx:TrackPointExtension></extensions>
      </trkpt>
      <trkpt lat="61.0331888248" lon="14.4189654867">
        <ele>191.8</ele>
        <time>2011-05-24T14:33:37Z</time>
        <extensions><gpxtpx:TrackPointExtension><gpxtpx:hr>135</gpxtpx:hr></gpxtpx:TrackPointExtension></extensions>
      </trkpt>
      <trkpt lat="61.0330745795" lon="14.4192907044">
        <ele>190.8</ele>
        <time>2011-05-24T14:33:39Z</time>
        <extensions><gpxtpx:TrackPointExtension><gpxtpx:hr>134</gpxtpx:hr></gpxtpx:TrackPointExtension></extensions>
      </trkpt>
      <trkpt lat="61.0329711469" lon="14.4196029302">
        <ele>190.2</ele>
        <time>2011-05-24T14:33:41Z</time>
        <extensions><gpxtpx:TrackPointExtension><gpxtpx:hr>134</gpxtpx:hr></gpxtpx:TrackPointExtension></extensions>
      </trkpt>
      <trkpt lat="61.032863188" lon="14.4199316683">
        <ele>189.6</ele>
        <time>2011-05-24T14:33:43Z</time>
        <extensions><gpxtpx:TrackPointExtension><gpxtpx:hr>133</gpxtpx:hr></gpxtpx:TrackPointExtension></extensions>
      </trkpt>
      <trkpt lat="61.0327637787" lon="14.420242972">
        <ele>189.2</ele>
        <time>2011-05-24T14:33:45Z</time>
        <extensions><gpxtpx:TrackPointExtension><gpxtpx:hr>133</gpxtpx:hr></gpxtpx:TrackPointExtension></extensions>
      </trkpt>
      <trkpt lat="61.0326605137" lon="14.4205588858">
        <ele>188.4</ele>
        <time>2011-05-24T14:33:47Z</time>
        <extensions><gpxtpx:TrackPointExtension><gpxtpx:hr>134</gpxtpx:hr></gpxtpx:TrackPointExtension></extensions>
      </trkpt>
      <trkpt lat="61.0325493697" lon="14.4208863667">
        <ele>187.8</ele>
        <time>2011-05-24T14:33:49Z</time>
        <extensions><gpxtpx:TrackPointExtension><gpxtpx:hr>136</gpxtpx:hr></gpxtpx:TrackPointExtension></extensions>
      </trkpt>
      <trkpt lat="61.0324401535" lon="14.4211972514">
        <ele>187.2</ele>
        <time>2011-05-24T14:33:51Z</time>
        <extensions><gpxtpx:TrackPointExtension><gpxtpx:hr>138</gpxtpx:hr></gpxtpx:TrackPointExtension></extensions>
      </trkpt>
      <trkpt lat="61.0322855913" lon="14.4216422464">
        <ele>186.6</ele>
        <time>2011-05-24T14:33:54Z</time>
        <extensions><gpxtpx:TrackPointExtension><gpxtpx:hr>140</gpxtpx:hr></gpxtpx:TrackPointExtension></extensions>
      </trkpt>
      <trkpt lat="61.0321456136" lon="14.4220706453">
        <ele>186.2</ele>
        <time>2011-05-24T14:33:57Z</time>
        <extensions><gpxtpx:TrackPointExtension><gpxtpx:hr>142</gpxtpx:hr></gpxtpx:TrackPointExtension></extensions>
      </trkpt>
      <trkpt lat="61.0320442764" lon="14.4223806918">
        <ele>186</ele>
        <time>2011-05-24T14:33:59Z</time>
        <extensions><gpxtpx:TrackPointExtension><gpxtpx:hr>144</gpxtpx:hr></gpxtpx:TrackPointExtension></extensions>
      </trkpt>
      <trkpt lat="61.0318940727" lon="14.4228303807">
        <ele>185.8</ele>
        <time>2011-05-24T14:34:02Z</time>
        <extensions><gpxtpx:TrackPointExtension><gpxtpx:hr>146</gpxtpx:hr></gpxtpx:TrackPointExtension></extensions>
      </trkpt>
      <trkpt lat="61.0317916459" lon="14.4231355657">
        <ele>185.2</ele>
        <time>2011-05-24T14:34:04Z</time>
        <extensions><gpxtpx:TrackPointExtension><gpxtpx:hr>147</gpxtpx:hr></gpxtpx:TrackPointExtension></extensions>
      </trkpt>
      <trkpt lat="61.0316793285" lon="14.4234632142">
        <ele>184.8</ele>
        <time>2011-05-24T14:34:07Z</time>
        <extensions><gpxtpx:TrackPointExtension><gpxtpx:hr>149</gpxtpx:hr></gpxtpx:TrackPointExtension></extensions>
      </trkpt>
      <trkpt lat="61.0315711181" lon="14.4237831513">
        <ele>184.4</ele>
        <time>2011-05-24T14:34:09Z</time>
        <extensions><gpxtpx:TrackPointExtension><gpxtpx:hr>150</gpxtpx:hr></gpxtpx:TrackPointExtension></extensions>
      </trkpt>
      <trkpt lat="61.0314198248" lon="14.4242503584">
        <ele>184</ele>
        <time>2011-05-24T14:34:11Z</time>
        <extensions><gpxtpx:TrackPointExtension><gpxtpx:hr>151</gpxtpx:hr></gpxtpx:TrackPointExtension></extensions>
      </trkpt>
      <trkpt lat="61.0313213375" lon="14.4245651826">
        <ele>183.8</ele>
        <time>2011-05-24T14:34:13Z</time>
        <extensions><gpxtpx:TrackPointExtension><gpxtpx:hr>152</gpxtpx:hr></gpxtpx:TrackPointExtension></extensions>
      </trkpt>
      <trkpt lat="61.0312184078" lon="14.4248884725">
        <ele>183.6</ele>
        <time>2011-05-24T14:34:16Z</time>
        <extensions><gpxtpx:TrackPointExtension><gpxtpx:hr>153</gpxtpx:hr></gpxtpx:TrackPointExtension></extensions>
      </trkpt>
      <trkpt lat="61.0310645161" lon="14.4253575236">
        <ele>183.2</ele>
        <time>2011-05-24T14:34:18Z</time>
        <extensions><gpxtpx:TrackPointExtension><gpxtpx:hr>155</gpxtpx:hr></gpxtpx:TrackPointExtension></extensions>
      </trkpt>
      <trkpt lat="61.030913139" lon="14.4258332802">
        <ele>182.6</ele>
        <time>2011-05-24T14:34:21Z</time>
        <extensions><gpxtpx:TrackPointExtension><gpxtpx:hr>155</gpxtpx:hr></gpxtpx:TrackPointExtension></extensions>
      </trkpt>
      <trkpt lat="61.0308112151" lon="14.4261470148">
        <ele>182.4</ele>
        <time>2011-05-24T14:34:23Z</time>
        <extensions><gpxtpx:TrackPointExtension><gpxtpx:hr>156</gpxtpx:hr></gpxtpx:TrackPointExtension></extensions>
      </trkpt>
      <trkpt lat="61.030706609" lon="14.4264696341">
        <ele>182</ele>
        <time>2011-05-24T14:34:25Z</time>
        <extensions><gpxtpx:TrackPointExtension><gpxtpx:hr>157</gpxtpx:hr></gpxtpx:TrackPointExtension></extensions>
      </trkpt>
      <trkpt lat="61.0305726662" lon="14.4268695345">
        <ele>181.8</ele>
        <time>2011-05-24T14:34:28Z</time>
        <extensions><gpxtpx:TrackPointExtension><gpxtpx:hr>158</gpxtpx:hr></gpxtpx:TrackPointExtension></extensions>
      </trkpt>
      <trkpt lat="61.0304492846" lon="14.4272552696">
        <ele>181.6</ele>
        <time>2011-05-24T14:34:31Z</time>
        <extensions><gpxtpx:TrackPointExtension><gpxtpx:hr>159</gpxtpx:hr></gpxtpx:TrackPointExtension></extensions>
      </trkpt>
      <trkpt lat="61.0303243105" lon="14.427694984">
        <ele>181.4</ele>
        <time>2011-05-24T14:34:33Z</time>
        <extensions><gpxtpx:TrackPointExtension><gpxtpx:hr>160</gpxtpx:hr></gpxtpx:TrackPointExtension></extensions>
      </trkpt>
      <trkpt lat="61.0302192853" lon="14.4281554856">
        <ele>181.4</ele>
        <time>2011-05-24T14:34:37Z</time>
        <extensions><gpxtpx:TrackPointExtension><gpxtpx:hr>159</gpxtpx:hr></gpxtpx:TrackPointExtension></extensions>
      </trkpt>
      <trkpt lat="61.0301670661" lon="14.4286155681">
        <ele>181.2</ele>
        <time>2011-05-24T14:34:39Z</time>
        <extensions><gpxtpx:TrackPointExtension><gpxtpx:hr>160</gpxtpx:hr></gpxtpx:TrackPointExtension></extensions>
      </trkpt>
      <trkpt lat="61.0301435129" lon="14.4291468129">
        <ele>181.2</ele>
        <time>2011-05-24T14:34:42Z</time>
        <extensions><gpxtpx:TrackPointExtension><gpxtpx:hr>160</gpxtpx:hr></gpxtpx:TrackPointExtension></extensions>
      </trkpt>
      <trkpt lat="61.0301433453" lon="14.4296852662">
        <ele>180.6</ele>
        <time>2011-05-24T14:34:46Z</time>
        <extensions><gpxtpx:TrackPointExtension><gpxtpx:hr>160</gpxtpx:hr></gpxtpx:TrackPointExtension></extensions>
      </trkpt>
      <trkpt lat="61.0301468657" lon="14.4301941314">
        <ele>180</ele>
        <time>2011-05-24T14:34:49Z</time>
        <extensions><gpxtpx:TrackPointExtension><gpxtpx:hr>160</gpxtpx:hr></gpxtpx:TrackPointExtension></extensions>
      </trkpt>
      <trkpt lat="61.0301522301" lon="14.4306710615">
        <ele>179.8</ele>
        <time>2011-05-24T14:34:52Z</time>
        <extensions><gpxtpx:TrackPointExtension><gpxtpx:hr>161</gpxtpx:hr></gpxtpx:TrackPointExtension></extensions>
      </trkpt>
      <trkpt lat="61.030156924" lon="14.4311265339">
        <ele>179.6</ele>
        <time>2011-05-24T14:34:54Z</time>
        <extensions><gpxtpx:TrackPointExtension><gpxtpx:hr>161</gpxtpx:hr></gpxtpx:TrackPointExtension></extensions>
      </trkpt>
      <trkpt lat="61.0301619531" lon="14.4315784021">
        <ele>179.4</ele>
        <time>2011-05-24T14:34:57Z</time>
        <extensions><gpxtpx:TrackPointExtension><gpxtpx:hr>160</gpxtpx:hr></gpxtpx:TrackPointExtension></extensions>
      </trkpt>
      <trkpt lat="61.0301651382" lon="14.4320301027">
        <ele>179.2</ele>
        <time>2011-05-24T14:35:00Z</time>
        <extensions><gpxtpx:TrackPointExtension><gpxtpx:hr>160</gpxtpx:hr></gpxtpx:TrackPointExtension></extensions>
      </trkpt>
      <trkpt lat="61.030168491" lon="14.4324750978">
        <ele>179.2</ele>
        <time>2011-05-24T14:35:03Z</time>
        <extensions><gpxtpx:TrackPointExtension><gpxtpx:hr>159</gpxtpx:hr></gpxtpx:TrackPointExtension></extensions>
      </trkpt>
      <trkpt lat="61.0301696645" lon="14.432906598">
        <ele>179</ele>
        <time>2011-05-24T14:35:06Z</time>
        <extensions><gpxtpx:TrackPointExtension><gpxtpx:hr>158</gpxtpx:hr></gpxtpx:TrackPointExtension></extensions>
      </trkpt>
      <trkpt lat="61.0301637133" lon="14.4333149642">
        <ele>179</ele>
        <time>2011-05-24T14:35:09Z</time>
        <extensions><gpxtpx:TrackPointExtension><gpxtpx:hr>158</gpxtpx:hr></gpxtpx:TrackPointExtension></extensions>
      </trkpt>
      <trkpt lat="61.0301370589" lon="14.4337063151">
        <ele>179</ele>
        <time>2011-05-24T14:35:12Z</time>
        <extensions><gpxtpx:TrackPointExtension><gpxtpx:hr>157</gpxtpx:hr></gpxtpx:TrackPointExtension></extensions>
      </trkpt>
      <trkpt lat="61.0300930539" lon="14.434102779">
        <ele>179</ele>
        <time>2011-05-24T14:35:15Z</time>
        <extensions><gpxtpx:TrackPointExtension><gpxtpx:hr>155</gpxtpx:hr></gpxtpx:TrackPointExtension></extensions>
      </trkpt>
      <trkpt lat="61.0300075585" lon="14.4344993267">
        <ele>179</ele>
        <time>2011-05-24T14:35:18Z</time>
        <extensions><gpxtpx:TrackPointExtension><gpxtpx:hr>154</gpxtpx:hr></gpxtpx:TrackPointExtension></extensions>
      </trkpt>
      <trkpt lat="61.0298835902" lon="14.4348750034">
        <ele>178.6</ele>
        <time>2011-05-24T14:35:21Z</time>
        <extensions><gpxtpx:TrackPointExtension><gpxtpx:hr>152</gpxtpx:hr></gpxtpx:TrackPointExtension></extensions>
      </trkpt>
      <trkpt lat="61.0297394215" lon="14.4352079325">
        <ele>178</ele>
        <time>2011-05-24T14:35:24Z</time>
        <extensions><gpxtpx:TrackPointExtension><gpxtpx:hr>150</gpxtpx:hr></gpxtpx:TrackPointExtension></extensions>
      </trkpt>
      <trkpt lat="61.0295897208" lon="14.4354890614">
        <ele>177.8</ele>
        <time>2011-05-24T14:35:27Z</time>
        <extensions><gpxtpx:TrackPointExtension><gpxtpx:hr>148</gpxtpx:hr></gpxtpx:TrackPointExtension></extensions>
      </trkpt>
      <trkpt lat="61.0294251841" lon="14.4357831823">
        <ele>177.2</ele>
        <time>2011-05-24T14:35:30Z</time>
        <extensions><gpxtpx:TrackPointExtension><gpxtpx:hr>147</gpxtpx:hr></gpxtpx:TrackPointExtension></extensions>
      </trkpt>
      <trkpt lat="61.0292789199" lon="14.4360479665">
        <ele>176.6</ele>
        <time>2011-05-24T14:35:33Z</time>
        <extensions><gpxtpx:TrackPointExtension><gpxtpx:hr>145</gpxtpx:hr></gpxtpx:TrackPointExtension></extensions>
      </trkpt>
      <trkpt lat="61.0291182389" lon="14.4363252397">
        <ele>176</ele>
        <time>2011-05-24T14:35:36Z</time>
        <extensions><gpxtpx:TrackPointExtension><gpxtpx:hr>144</gpxtpx:hr></gpxtpx:TrackPointExtension></extensions>
      </trkpt>
      <trkpt lat="61.0290562129" lon="14.4364150099">
        <ele>175.8</ele>
        <time>2011-05-24T14:35:37Z</time>
        <extensions><gpxtpx:TrackPointExtension><gpxtpx:hr>144</gpxtpx:hr></gpxtpx:TrackPointExtension></extensions>
      </trkpt>
      <trkpt lat="61.0288896645" lon="14.4366953006">
        <ele>175.6</ele>
        <time>2011-05-24T14:35:40Z</time>
        <extensions><gpxtpx:TrackPointExtension><gpxtpx:hr>144</gpxtpx:hr></gpxtpx:TrackPointExtension></extensions>
      </trkpt>
      <trkpt lat="61.0287318333" lon="14.436981794">
        <ele>175.4</ele>
        <time>2011-05-24T14:35:44Z</time>
        <extensions><gpxtpx:TrackPointExtension><gpxtpx:hr>143</gpxtpx:hr></gpxtpx:TrackPointExtension></extensions>
      </trkpt>
      <trkpt lat="61.0285864912" lon="14.4372754119">
        <ele>175.2</ele>
        <time>2011-05-24T14:35:46Z</time>
        <extensions><gpxtpx:TrackPointExtension><gpxtpx:hr>142</gpxtpx:hr></gpxtpx:TrackPointExtension></extensions>
      </trkpt>
      <trkpt lat="61.028450872" lon="14.4376203271">
        <ele>175</ele>
        <time>2011-05-24T14:35:49Z</time>
        <extensions><gpxtpx:TrackPointExtension><gpxtpx:hr>143</gpxtpx:hr></gpxtpx:TrackPointExtension></extensions>
      </trkpt>
      <trkpt lat="61.0283357047" lon="14.4379869514">
        <ele>174.8</ele>
        <time>2011-05-24T14:35:52Z</time>
        <extensions><gpxtpx:TrackPointExtension><gpxtpx:hr>143</gpxtpx:hr></gpxtpx:TrackPointExtension></extensions>
      </trkpt>
      <trkpt lat="61.0282386423" lon="14.4384069684">
        <ele>174.8</ele>
        <time>2011-05-24T14:35:55Z</time>
        <extensions><gpxtpx:TrackPointExtension><gpxtpx:hr>143</gpxtpx:hr></gpxtpx:TrackPointExtension></extensions>
      </trkpt>
      <trkpt lat="61.0281669771" lon="14.4388249738">
        <ele>174.8</ele>
        <time>2011-05-24T14:35:58Z</time>
        <extensions><gpxtpx:TrackPointExtension><gpxtpx:hr>143</gpxtpx:hr></gpxtpx:TrackPointExtension></extensions>
      </trkpt>
      <trkpt lat="61.0281088905" lon="14.4392703879">
        <ele>174.8</ele>
        <time>2011-05-24T14:36:01Z</time>
        <extensions><gpxtpx:TrackPointExtension><gpxtpx:hr>143</gpxtpx:hr></gpxtpx:TrackPointExtension></extensions>
      </trkpt>
      <trkpt lat="61.0280496305" lon="14.439724184">
        <ele>174.8</ele>
        <time>2011-05-24T14:36:04Z</time>
        <extensions><gpxtpx:TrackPointExtension><gpxtpx:hr>144</gpxtpx:hr></gpxtpx:TrackPointExtension></extensions>
      </trkpt>
      <trkpt lat="61.0279712597" lon="14.4402108371">
        <ele>174.6</ele>
        <time>2011-05-24T14:36:07Z</time>
        <extensions><gpxtpx:TrackPointExtension><gpxtpx:hr>145</gpxtpx:hr></gpxtpx:TrackPointExtension></extensions>
      </trkpt>
      <trkpt lat="61.0278651449" lon="14.4406972388">
        <ele>174.6</ele>
        <time>2011-05-24T14:36:10Z</time>
        <extensions><gpxtpx:TrackPointExtension><gpxtpx:hr>147</gpxtpx:hr></gpxtpx:TrackPointExtension></extensions>
      </trkpt>
      <trkpt lat="61.0277810744" lon="14.4410312575">
        <ele>174.6</ele>
        <time>2011-05-24T14:36:12Z</time>
        <extensions><gpxtpx:TrackPointExtension><gpxtpx:hr>147</gpxtpx:hr></gpxtpx:TrackPointExtension></extensions>
      </trkpt>
      <trkpt lat="61.0276810783" lon="14.4413615044">
        <ele>174.6</ele>
        <time>2011-05-24T14:36:15Z</time>
        <extensions><gpxtpx:TrackPointExtension><gpxtpx:hr>149</gpxtpx:hr></gpxtpx:TrackPointExtension></extensions>
      </trkpt>
      <trkpt lat="61.0275290307" lon="14.4418249396">
        <ele>174.6</ele>
        <time>2011-05-24T14:36:17Z</time>
        <extensions><gpxtpx:TrackPointExtension><gpxtpx:hr>151</gpxtpx:hr></gpxtpx:TrackPointExtension></extensions>
      </trkpt>
      <trkpt lat="61.0274210718" lon="14.4421427813">
        <ele>174.6</ele>
        <time>2011-05-24T14:36:19Z</time>
        <extensions><gpxtpx:TrackPointExtension><gpxtpx:hr>153</gpxtpx:hr></gpxtpx:TrackPointExtension></extensions>
      </trkpt>
      <trkpt lat="61.027306156" lon="14.4424780573">
        <ele>174.6</ele>
        <time>2011-05-24T14:36:21Z</time>
        <extensions><gpxtpx:TrackPointExtension><gpxtpx:hr>155</gpxtpx:hr></gpxtpx:TrackPointExtension></extensions>
      </trkpt>
      <trkpt lat="61.0271972751" lon="14.4428057057">
        <ele>174.6</ele>
        <time>2011-05-24T14:36:23Z</time>
        <extensions><gpxtpx:TrackPointExtension><gpxtpx:hr>156</gpxtpx:hr></gpxtpx:TrackPointExtension></extensions>
      </trkpt>
      <trkpt lat="61.0270860473" lon="14.4431157522">
        <ele>174.6</ele>
        <time>2011-05-24T14:36:25Z</time>
        <extensions><gpxtpx:TrackPointExtension><gpxtpx:hr>156</gpxtpx:hr></gpxtpx:TrackPointExtension></extensions>
      </trkpt>
      <trkpt lat="61.0269354245" lon="14.4435753318">
        <ele>174.6</ele>
        <time>2011-05-24T14:36:28Z</time>
        <extensions><gpxtpx:TrackPointExtension><gpxtpx:hr>157</gpxtpx:hr></gpxtpx:TrackPointExtension></extensions>
      </trkpt>
      <trkpt lat="61.026838865" lon="14.4439091829">
        <ele>174.6</ele>
        <time>2011-05-24T14:36:30Z</time>
        <extensions><gpxtpx:TrackPointExtension><gpxtpx:hr>157</gpxtpx:hr></gpxtpx:TrackPointExtension></extensions>
      </trkpt>
      <trkpt lat="61.0267539564" lon="14.4442394297">
        <ele>174.6</ele>
        <time>2011-05-24T14:36:32Z</time>
        <extensions><gpxtpx:TrackPointExtension><gpxtpx:hr>157</gpxtpx:hr></gpxtpx:TrackPointExtension></extensions>
      </trkpt>
      <trkpt lat="61.0266397111" lon="14.4447377337">
        <ele>174.6</ele>
        <time>2011-05-24T14:36:35Z</time>
        <extensions><gpxtpx:TrackPointExtension><gpxtpx:hr>157</gpxtpx:hr></gpxtpx:TrackPointExtension></extensions>
      </trkpt>
      <trkpt lat="61.0265311655" lon="14.4452585011">
        <ele>174.6</ele>
        <time>2011-05-24T14:36:38Z</time>
        <extensions><gpxtpx:TrackPointExtension><gpxtpx:hr>157</gpxtpx:hr></gpxtpx:TrackPointExtension></extensions>
      </trkpt>
      <trkpt lat="61.0264544711" lon="14.4456014885">
        <ele>174.6</ele>
        <time>2011-05-24T14:36:40Z</time>
        <extensions><gpxtpx:TrackPointExtension><gpxtpx:hr>157</gpxtpx:hr></gpxtpx:TrackPointExtension></extensions>
      </trkpt>
      <trkpt lat="61.0263482724" lon="14.4460912429">
        <ele>174.6</ele>
        <time>2011-05-24T14:36:43Z</time>
        <extensions><gpxtpx:TrackPointExtension><gpxtpx:hr>157</gpxtpx:hr></gpxtpx:TrackPointExtension></extensions>
      </trkpt>
      <trkpt lat="61.0262462647" lon="14.4465453742">
        <ele>174.6</ele>
        <time>2011-05-24T14:36:46Z</time>
        <extensions><gpxtpx:TrackPointExtension><gpxtpx:hr>157</gpxtpx:hr></gpxtpx:TrackPointExtension></extensions>
      </trkpt>
      <trkpt lat="61.0261704923" lon="14.446881237">
        <ele>174.6</ele>
        <time>2011-05-24T14:36:48Z</time>
        <extensions><gpxtpx:TrackPointExtension><gpxtpx:hr>157</gpxtpx:hr></gpxtpx:TrackPointExtension></extensions>
      </trkpt>
      <trkpt lat="61.0260572529" lon="14.4473634477">
        <ele>174.6</ele>
        <time>2011-05-24T14:36:51Z</time>
        <extensions><gpxtpx:TrackPointExtension><gpxtpx:hr>158</gpxtpx:hr></gpxtpx:TrackPointExtension></extensions>
      </trkpt>
      <trkpt lat="61.0259260761" lon="14.4478134719">
        <ele>174.6</ele>
        <time>2011-05-24T14:36:54Z</time>
        <extensions><gpxtpx:TrackPointExtension><gpxtpx:hr>157</gpxtpx:hr></gpxtpx:TrackPointExtension></extensions>
      </trkpt>
      <trkpt lat="61.0257711786" lon="14.4482119474">
        <ele>174.6</ele>
        <time>2011-05-24T14:36:57Z</time>
        <extensions><gpxtpx:TrackPointExtension><gpxtpx:hr>157</gpxtpx:hr></gpxtpx:TrackPointExtension></extensions>
      </trkpt>
      <trkpt lat="61.0255902134" lon="14.4485753866">
        <ele>174.6</ele>
        <time>2011-05-24T14:37:00Z</time>
        <extensions><gpxtpx:TrackPointExtension><gpxtpx:hr>157</gpxtpx:hr></gpxtpx:TrackPointExtension></extensions>
      </trkpt>
      <trkpt lat="61.0254151155" lon="14.4489028674">
        <ele>174.6</ele>
        <time>2011-05-24T14:37:03Z</time>
        <extensions><gpxtpx:TrackPointExtension><gpxtpx:hr>156</gpxtpx:hr></gpxtpx:TrackPointExtension></extensions>
      </trkpt>
      <trkpt lat="61.0252484833" lon="14.4492195356">
        <ele>174.6</ele>
        <time>2011-05-24T14:37:06Z</time>
        <extensions><gpxtpx:TrackPointExtension><gpxtpx:hr>157</gpxtpx:hr></gpxtpx:TrackPointExtension></extensions>
      </trkpt>
      <trkpt lat="61.0250758162" lon="14.4495569909">
        <ele>174.6</ele>
        <time>2011-05-24T14:37:10Z</time>
        <extensions><gpxtpx:TrackPointExtension><gpxtpx:hr>157</gpxtpx:hr></gpxtpx:TrackPointExtension></extensions>
      </trkpt>
      <trkpt lat="61.0249138779" lon="14.4499277223">
        <ele>174.6</ele>
        <time>2011-05-24T14:37:12Z</time>
        <extensions><gpxtpx:TrackPointExtension><gpxtpx:hr>157</gpxtpx:hr></gpxtpx:TrackPointExtension></extensions>
      </trkpt>
      <trkpt lat="61.0247658535" lon="14.450310859">
        <ele>174.6</ele>
        <time>2011-05-24T14:37:15Z</time>
        <extensions><gpxtpx:TrackPointExtension><gpxtpx:hr>157</gpxtpx:hr></gpxtpx:TrackPointExtension></extensions>
      </trkpt>
      <trkpt lat="61.0246023227" lon="14.4507490647">
        <ele>174.6</ele>
        <time>2011-05-24T14:37:18Z</time>
        <extensions><gpxtpx:TrackPointExtension><gpxtpx:hr>158</gpxtpx:hr></gpxtpx:TrackPointExtension></extensions>
      </trkpt>
      <trkpt lat="61.0244400491" lon="14.4511911261">
        <ele>174.6</ele>
        <time>2011-05-24T14:37:21Z</time>
        <extensions><gpxtpx:TrackPointExtension><gpxtpx:hr>158</gpxtpx:hr></gpxtpx:TrackPointExtension></extensions>
      </trkpt>
      <trkpt lat="61.0242895102" lon="14.4516040185">
        <ele>174.6</ele>
        <time>2011-05-24T14:37:24Z</time>
        <extensions><gpxtpx:TrackPointExtension><gpxtpx:hr>158</gpxtpx:hr></gpxtpx:TrackPointExtension></extensions>
      </trkpt>
      <trkpt lat="61.0241377139" lon="14.4520271368">
        <ele>174.6</ele>
        <time>2011-05-24T14:37:27Z</time>
        <extensions><gpxtpx:TrackPointExtension><gpxtpx:hr>159</gpxtpx:hr></gpxtpx:TrackPointExtension></extensions>
      </trkpt>
      <trkpt lat="61.0239690701" lon="14.4524902368">
        <ele>174.6</ele>
        <time>2011-05-24T14:37:30Z</time>
        <extensions><gpxtpx:TrackPointExtension><gpxtpx:hr>159</gpxtpx:hr></gpxtpx:TrackPointExtension></extensions>
      </trkpt>
      <trkpt lat="61.0238295115" lon="14.4528720324">
        <ele>174.6</ele>
        <time>2011-05-24T14:37:33Z</time>
        <extensions><gpxtpx:TrackPointExtension><gpxtpx:hr>158</gpxtpx:hr></gpxtpx:TrackPointExtension></extensions>
      </trkpt>
      <trkpt lat="61.023678302" lon="14.4532617907">
        <ele>174.6</ele>
        <time>2011-05-24T14:37:36Z</time>
        <extensions><gpxtpx:TrackPointExtension><gpxtpx:hr>158</gpxtpx:hr></gpxtpx:TrackPointExtension></extensions>
      </trkpt>
      <trkpt lat="61.0235448622" lon="14.4536212066">
        <ele>174.6</ele>
        <time>2011-05-24T14:37:39Z</time>
        <extensions><gpxtpx:TrackPointExtension><gpxtpx:hr>158</gpxtpx:hr></gpxtpx:TrackPointExtension></extensions>
      </trkpt>
      <trkpt lat="61.0234285214" lon="14.4539575722">
        <ele>174.6</ele>
        <time>2011-05-24T14:37:42Z</time>
        <extensions><gpxtpx:TrackPointExtension><gpxtpx:hr>159</gpxtpx:hr></gpxtpx:TrackPointExtension></extensions>
      </trkpt>
      <trkpt lat="61.0233074867" lon="14.4543110369">
        <ele>174.6</ele>
        <time>2011-05-24T14:37:45Z</time>
        <extensions><gpxtpx:TrackPointExtension><gpxtpx:hr>160</gpxtpx:hr></gpxtpx:TrackPointExtension></extensions>
      </trkpt>
      <trkpt lat="61.0231842728" lon="14.4547104345">
        <ele>174.6</ele>
        <time>2011-05-24T14:37:48Z</time>
        <extensions><gpxtpx:TrackPointExtension><gpxtpx:hr>161</gpxtpx:hr></gpxtpx:TrackPointExtension></extensions>
      </trkpt>
      <trkpt lat="61.0230697761" lon="14.4551068145">
        <ele>174.6</ele>
        <time>2011-05-24T14:37:51Z</time>
        <extensions><gpxtpx:TrackPointExtension><gpxtpx:hr>162</gpxtpx:hr></gpxtpx:TrackPointExtension></extensions>
      </trkpt>
      <trkpt lat="61.0229428741" lon="14.4555368898">
        <ele>174.6</ele>
        <time>2011-05-24T14:37:54Z</time>
        <extensions><gpxtpx:TrackPointExtension><gpxtpx:hr>162</gpxtpx:hr></gpxtpx:TrackPointExtension></extensions>
      </trkpt>
      <trkpt lat="61.0228204984" lon="14.4559572421">
        <ele>174.6</ele>
        <time>2011-05-24T14:37:57Z</time>
        <extensions><gpxtpx:TrackPointExtension><gpxtpx:hr>163</gpxtpx:hr></gpxtpx:TrackPointExtension></extensions>
      </trkpt>
      <trkpt lat="61.0226867232" lon="14.456406009">
        <ele>174.6</ele>
        <time>2011-05-24T14:38:00Z</time>
        <extensions><gpxtpx:TrackPointExtension><gpxtpx:hr>162</gpxtpx:hr></gpxtpx:TrackPointExtension></extensions>
      </trkpt>
      <trkpt lat="61.0225675326" lon="14.4568148781">
        <ele>174.6</ele>
        <time>2011-05-24T14:38:03Z</time>
        <extensions><gpxtpx:TrackPointExtension><gpxtpx:hr>162</gpxtpx:hr></gpxtpx:TrackPointExtension></extensions>
      </trkpt>
      <trkpt lat="61.0224449892" lon="14.4572254236">
        <ele>174.6</ele>
        <time>2011-05-24T14:38:06Z</time>
        <extensions><gpxtpx:TrackPointExtension><gpxtpx:hr>162</gpxtpx:hr></gpxtpx:TrackPointExtension></extensions>
      </trkpt>
      <trkpt lat="61.0223335938" lon="14.4576147628">
        <ele>174.6</ele>
        <time>2011-05-24T14:38:09Z</time>
        <extensions><gpxtpx:TrackPointExtension><gpxtpx:hr>162</gpxtpx:hr></gpxtpx:TrackPointExtension></extensions>
      </trkpt>
      <trkpt lat="61.0222154928" lon="14.458016172">
        <ele>174.6</ele>
        <time>2011-05-24T14:38:12Z</time>
        <extensions><gpxtpx:TrackPointExtension><gpxtpx:hr>161</gpxtpx:hr></gpxtpx:TrackPointExtension></extensions>
      </trkpt>
      <trkpt lat="61.0220987329" lon="14.4583952854">
        <ele>174.6</ele>
        <time>2011-05-24T14:38:15Z</time>
        <extensions><gpxtpx:TrackPointExtension><gpxtpx:hr>161</gpxtpx:hr></gpxtpx:TrackPointExtension></extensions>
      </trkpt>
      <trkpt lat="61.021985242" lon="14.4587699563">
        <ele>174.6</ele>
        <time>2011-05-24T14:38:18Z</time>
        <extensions><gpxtpx:TrackPointExtension><gpxtpx:hr>161</gpxtpx:hr></gpxtpx:TrackPointExtension></extensions>
      </trkpt>
      <trkpt lat="61.0218824799" lon="14.4591163802">
        <ele>174.6</ele>
        <time>2011-05-24T14:38:21Z</time>
        <extensions><gpxtpx:TrackPointExtension><gpxtpx:hr>161</gpxtpx:hr></gpxtpx:TrackPointExtension></extensions>
      </trkpt>
      <trkpt lat="61.0217834059" lon="14.4594757123">
        <ele>175.2</ele>
        <time>2011-05-24T14:38:24Z</time>
        <extensions><gpxtpx:TrackPointExtension><gpxtpx:hr>160</gpxtpx:hr></gpxtpx:TrackPointExtension></extensions>
      </trkpt>
      <trkpt lat="61.0216908697" lon="14.4598057077">
        <ele>175.6</ele>
        <time>2011-05-24T14:38:27Z</time>
        <extensions><gpxtpx:TrackPointExtension><gpxtpx:hr>160</gpxtpx:hr></gpxtpx:TrackPointExtension></extensions>
      </trkpt>
      <trkpt lat="61.0215891972" lon="14.4601721643">
        <ele>175.8</ele>
        <time>2011-05-24T14:38:30Z</time>
        <extensions><gpxtpx:TrackPointExtension><gpxtpx:hr>160</gpxtpx:hr></gpxtpx:TrackPointExtension></extensions>
      </trkpt>
      <trkpt lat="61.0214923863" lon="14.4605252938">
        <ele>176</ele>
        <time>2011-05-24T14:38:33Z</time>
        <extensions><gpxtpx:TrackPointExtension><gpxtpx:hr>160</gpxtpx:hr></gpxtpx:TrackPointExtension></extensions>
      </trkpt>
      <trkpt lat="61.0213828349" lon="14.4609126214">
        <ele>176.2</ele>
        <time>2011-05-24T14:38:36Z</time>
        <extensions><gpxtpx:TrackPointExtension><gpxtpx:hr>159</gpxtpx:hr></gpxtpx:TrackPointExtension></extensions>
      </trkpt>
      <trkpt lat="61.0212681705" lon="14.4612994461">
        <ele>176.4</ele>
        <time>2011-05-24T14:38:39Z</time>
        <extensions><gpxtpx:TrackPointExtension><gpxtpx:hr>160</gpxtpx:hr></gpxtpx:TrackPointExtension></extensions>
      </trkpt>
      <trkpt lat="61.0211390892" lon="14.4617006038">
        <ele>176.4</ele>
        <time>2011-05-24T14:38:42Z</time>
        <extensions><gpxtpx:TrackPointExtension><gpxtpx:hr>160</gpxtpx:hr></gpxtpx:TrackPointExtension></extensions>
      </trkpt>
      <trkpt lat="61.0209879636" lon="14.4620969">
        <ele>176.4</ele>
        <time>2011-05-24T14:38:45Z</time>
        <extensions><gpxtpx:TrackPointExtension><gpxtpx:hr>160</gpxtpx:hr></gpxtpx:TrackPointExtension></extensions>
      </trkpt>
      <trkpt lat="61.0208236783" lon="14.4624926095">
        <ele>176.6</ele>
        <time>2011-05-24T14:38:48Z</time>
        <extensions><gpxtpx:TrackPointExtension><gpxtpx:hr>159</gpxtpx:hr></gpxtpx:TrackPointExtension></extensions>
      </trkpt>
      <trkpt lat="61.0206733909" lon="14.4628563002">
        <ele>176.6</ele>
        <time>2011-05-24T14:38:51Z</time>
        <extensions><gpxtpx:TrackPointExtension><gpxtpx:hr>159</gpxtpx:hr></gpxtpx:TrackPointExtension></extensions>
      </trkpt>
      <trkpt lat="61.0205207565" lon="14.4632167219">
        <ele>176.6</ele>
        <time>2011-05-24T14:38:54Z</time>
        <extensions><gpxtpx:TrackPointExtension><gpxtpx:hr>158</gpxtpx:hr></gpxtpx:TrackPointExtension></extensions>
      </trkpt>
      <trkpt lat="61.0203828742" lon="14.4635552668">
        <ele>176.6</ele>
        <time>2011-05-24T14:38:57Z</time>
        <extensions><gpxtpx:TrackPointExtension><gpxtpx:hr>158</gpxtpx:hr></gpxtpx:TrackPointExtension></extensions>
      </trkpt>
      <trkpt lat="61.0202293178" lon="14.4639289319">
        <ele>176.6</ele>
        <time>2011-05-24T14:39:00Z</time>
        <extensions><gpxtpx:TrackPointExtension><gpxtpx:hr>157</gpxtpx:hr></gpxtpx:TrackPointExtension></extensions>
      </trkpt>
      <trkpt lat="61.0200881666" lon="14.4642957239">
        <ele>176.6</ele>
        <time>2011-05-24T14:39:03Z</time>
        <extensions><gpxtpx:TrackPointExtension><gpxtpx:hr>157</gpxtpx:hr></gpxtpx:TrackPointExtension></extensions>
      </trkpt>
      <trkpt lat="61.0199221212" lon="14.4646932774">
        <ele>176.6</ele>
        <time>2011-05-24T14:39:06Z</time>
        <extensions><gpxtpx:TrackPointExtension><gpxtpx:hr>157</gpxtpx:hr></gpxtpx:TrackPointExtension></extensions>
      </trkpt>
      <trkpt lat="61.0197533097" lon="14.4650641765">
        <ele>176.2</ele>
        <time>2011-05-24T14:39:09Z</time>
        <extensions><gpxtpx:TrackPointExtension><gpxtpx:hr>157</gpxtpx:hr></gpxtpx:TrackPointExtension></extensions>
      </trkpt>
      <trkpt lat="61.0195570056" lon="14.4653875502">
        <ele>175.8</ele>
        <time>2011-05-24T14:39:12Z</time>
        <extensions><gpxtpx:TrackPointExtension><gpxtpx:hr>156</gpxtpx:hr></gpxtpx:TrackPointExtension></extensions>
      </trkpt>
      <trkpt lat="61.019356762" lon="14.4656357382">
        <ele>175.4</ele>
        <time>2011-05-24T14:39:15Z</time>
        <extensions><gpxtpx:TrackPointExtension><gpxtpx:hr>156</gpxtpx:hr></gpxtpx:TrackPointExtension></extensions>
      </trkpt>
      <trkpt lat="61.0191368209" lon="14.4658716049">
        <ele>175.2</ele>
        <time>2011-05-24T14:39:18Z</time>
        <extensions><gpxtpx:TrackPointExtension><gpxtpx:hr>155</gpxtpx:hr></gpxtpx:TrackPointExtension></extensions>
      </trkpt>
      <trkpt lat="61.0189471385" lon="14.4660948149">
        <ele>175.2</ele>
        <time>2011-05-24T14:39:21Z</time>
        <extensions><gpxtpx:TrackPointExtension><gpxtpx:hr>156</gpxtpx:hr></gpxtpx:TrackPointExtension></extensions>
      </trkpt>
      <trkpt lat="61.0187800035" lon="14.46628785">
        <ele>175</ele>
        <time>2011-05-24T14:39:23Z</time>
        <extensions><gpxtpx:TrackPointExtension><gpxtpx:hr>155</gpxtpx:hr></gpxtpx:TrackPointExtension></extensions>
      </trkpt>
      <trkpt lat="61.0185899858" lon="14.4665261475">
        <ele>174.8</ele>
        <time>2011-05-24T14:39:26Z</time>
        <extensions><gpxtpx:TrackPointExtension><gpxtpx:hr>155</gpxtpx:hr></gpxtpx:TrackPointExtension></extensions>
      </trkpt>
      <trkpt lat="61.0184321546" lon="14.4667093758">
        <ele>174.8</ele>
        <time>2011-05-24T14:39:29Z</time>
        <extensions><gpxtpx:TrackPointExtension><gpxtpx:hr>155</gpxtpx:hr></gpxtpx:TrackPointExtension></extensions>
      </trkpt>
      <trkpt lat="61.018268037" lon="14.4668974656">
        <ele>174.8</ele>
        <time>2011-05-24T14:39:32Z</time>
        <extensions><gpxtpx:TrackPointExtension><gpxtpx:hr>155</gpxtpx:hr></gpxtpx:TrackPointExtension></extensions>
      </trkpt>
      <trkpt lat="61.018170807" lon="14.4670129682">
        <ele>174.8</ele>
        <time>2011-05-24T14:39:34Z</time>
        <extensions><gpxtpx:TrackPointExtension><gpxtpx:hr>155</gpxtpx:hr></gpxtpx:TrackPointExtension></extensions>
      </trkpt>
      <trkpt lat="61.0179221998" lon="14.4672628326">
        <ele>174.8</ele>
        <time>2011-05-24T14:39:39Z</time>
        <extensions><gpxtpx:TrackPointExtension><gpxtpx:hr>155</gpxtpx:hr></gpxtpx:TrackPointExtension></extensions>
      </trkpt>
      <trkpt lat="61.0177585851" lon="14.4674327338">
        <ele>174.6</ele>
        <time>2011-05-24T14:39:42Z</time>
        <extensions><gpxtpx:TrackPointExtension><gpxtpx:hr>154</gpxtpx:hr></gpxtpx:TrackPointExtension></extensions>
      </trkpt>
      <trkpt lat="61.0175746024" lon="14.4676163812">
        <ele>174.6</ele>
        <time>2011-05-24T14:39:45Z</time>
        <extensions><gpxtpx:TrackPointExtension><gpxtpx:hr>153</gpxtpx:hr></gpxtpx:TrackPointExtension></extensions>
      </trkpt>
      <trkpt lat="61.0173754485" lon="14.467818385">
        <ele>174.6</ele>
        <time>2011-05-24T14:39:48Z</time>
        <extensions><gpxtpx:TrackPointExtension><gpxtpx:hr>152</gpxtpx:hr></gpxtpx:TrackPointExtension></extensions>
      </trkpt>
      <trkpt lat="61.0171803178" lon="14.4680178742">
        <ele>174.6</ele>
        <time>2011-05-24T14:39:51Z</time>
        <extensions><gpxtpx:TrackPointExtension><gpxtpx:hr>152</gpxtpx:hr></gpxtpx:TrackPointExtension></extensions>
      </trkpt>
      <trkpt lat="61.0169725305" lon="14.4682278408">
        <ele>174.6</ele>
        <time>2011-05-24T14:39:54Z</time>
        <extensions><gpxtpx:TrackPointExtension><gpxtpx:hr>151</gpxtpx:hr></gpxtpx:TrackPointExtension></extensions>
      </trkpt>
      <trkpt lat="61.0167702753" lon="14.4684276653">
        <ele>174.6</ele>
        <time>2011-05-24T14:39:57Z</time>
        <extensions><gpxtpx:TrackPointExtension><gpxtpx:hr>151</gpxtpx:hr></gpxtpx:TrackPointExtension></extensions>
      </trkpt>
      <trkpt lat="61.0165653378" lon="14.4686446727">
        <ele>174.6</ele>
        <time>2011-05-24T14:40:00Z</time>
        <extensions><gpxtpx:TrackPointExtension><gpxtpx:hr>150</gpxtpx:hr></gpxtpx:TrackPointExtension></extensions>
      </trkpt>
      <trkpt lat="61.0163723027" lon="14.4688756778">
        <ele>174.6</ele>
        <time>2011-05-24T14:40:03Z</time>
        <extensions><gpxtpx:TrackPointExtension><gpxtpx:hr>150</gpxtpx:hr></gpxtpx:TrackPointExtension></extensions>
      </trkpt>
      <trkpt lat="61.0162047485" lon="14.4691714751">
        <ele>174.6</ele>
        <time>2011-05-24T14:40:06Z</time>
        <extensions><gpxtpx:TrackPointExtension><gpxtpx:hr>149</gpxtpx:hr></gpxtpx:TrackPointExtension></extensions>
      </trkpt>
      <trkpt lat="61.0160707219" lon="14.4695116126">
        <ele>174.6</ele>
        <time>2011-05-24T14:40:09Z</time>
        <extensions><gpxtpx:TrackPointExtension><gpxtpx:hr>148</gpxtpx:hr></gpxtpx:TrackPointExtension></extensions>
      </trkpt>
      <trkpt lat="61.0159610029" lon="14.4699210684">
        <ele>174.6</ele>
        <time>2011-05-24T14:40:12Z</time>
        <extensions><gpxtpx:TrackPointExtension><gpxtpx:hr>147</gpxtpx:hr></gpxtpx:TrackPointExtension></extensions>
      </trkpt>
      <trkpt lat="61.0158612582" lon="14.4703285126">
        <ele>174.6</ele>
        <time>2011-05-24T14:40:15Z</time>
        <extensions><gpxtpx:TrackPointExtension><gpxtpx:hr>146</gpxtpx:hr></gpxtpx:TrackPointExtension></extensions>
      </trkpt>
      <trkpt lat="61.015760424" lon="14.470738136">
        <ele>174.6</ele>
        <time>2011-05-24T14:40:18Z</time>
        <extensions><gpxtpx:TrackPointExtension><gpxtpx:hr>146</gpxtpx:hr></gpxtpx:TrackPointExtension></extensions>
      </trkpt>
      <trkpt lat="61.0156716597" lon="14.471107694">
        <ele>174.6</ele>
        <time>2011-05-24T14:40:21Z</time>
        <extensions><gpxtpx:TrackPointExtension><gpxtpx:hr>146</gpxtpx:hr></gpxtpx:TrackPointExtension></extensions>
      </trkpt>
      <trkpt lat="61.0154880122" lon="14.4719362448">
        <ele>174.6</ele>
        <time>2011-05-24T14:40:27Z</time>
        <extensions><gpxtpx:TrackPointExtension><gpxtpx:hr>146</gpxtpx:hr></gpxtpx:TrackPointExtension></extensions>
      </trkpt>
      <trkpt lat="61.0154000861" lon="14.4723670745">
        <ele>174.6</ele>
        <time>2011-05-24T14:40:30Z</time>
        <extensions><gpxtpx:TrackPointExtension><gpxtpx:hr>147</gpxtpx:hr></gpxtpx:TrackPointExtension></extensions>
      </trkpt>
      <trkpt lat="61.015332528" lon="14.4727437571">
        <ele>174.6</ele>
        <time>2011-05-24T14:40:33Z</time>
        <extensions><gpxtpx:TrackPointExtension><gpxtpx:hr>148</gpxtpx:hr></gpxtpx:TrackPointExtension></extensions>
      </trkpt>
      <trkpt lat="61.0152667301" lon="14.4732245428">
        <ele>174.6</ele>
        <time>2011-05-24T14:40:36Z</time>
        <extensions><gpxtpx:TrackPointExtension><gpxtpx:hr>148</gpxtpx:hr></gpxtpx:TrackPointExtension></extensions>
      </trkpt>
      <trkpt lat="61.0152187856" lon="14.4736534447">
        <ele>174.6</ele>
        <time>2011-05-24T14:40:39Z</time>
        <extensions><gpxtpx:TrackPointExtension><gpxtpx:hr>149</gpxtpx:hr></gpxtpx:TrackPointExtension></extensions>
      </trkpt>
      <trkpt lat="61.0151741101" lon="14.4741183048">
        <ele>174.6</ele>
        <time>2011-05-24T14:40:42Z</time>
        <extensions><gpxtpx:TrackPointExtension><gpxtpx:hr>148</gpxtpx:hr></gpxtpx:TrackPointExtension></extensions>
      </trkpt>
      <trkpt lat="61.01512692" lon="14.4745902896">
        <ele>174.6</ele>
        <time>2011-05-24T14:40:45Z</time>
        <extensions><gpxtpx:TrackPointExtension><gpxtpx:hr>149</gpxtpx:hr></gpxtpx:TrackPointExtension></extensions>
      </trkpt>
      <trkpt lat="61.0150474596" lon="14.4750377993">
        <ele>174.6</ele>
        <time>2011-05-24T14:40:48Z</time>
        <extensions><gpxtpx:TrackPointExtension><gpxtpx:hr>149</gpxtpx:hr></gpxtpx:TrackPointExtension></extensions>
      </trkpt>
      <trkpt lat="61.0150102439" lon="14.4751816327">
        <ele>174.6</ele>
        <time>2011-05-24T14:40:49Z</time>
        <extensions><gpxtpx:TrackPointExtension><gpxtpx:hr>149</gpxtpx:hr></gpxtpx:TrackPointExtension></extensions>
      </trkpt>
      <trkpt lat="61.0148215674" lon="14.4756659389">
        <ele>174.6</ele>
        <time>2011-05-24T14:40:53Z</time>
        <extensions><gpxtpx:TrackPointExtension><gpxtpx:hr>149</gpxtpx:hr></gpxtpx:TrackPointExtension></extensions>
      </trkpt>
      <trkpt lat="61.0146555219" lon="14.4759567908">
        <ele>174.6</ele>
        <time>2011-05-24T14:40:56Z</time>
        <extensions><gpxtpx:TrackPointExtension><gpxtpx:hr>148</gpxtpx:hr></gpxtpx:TrackPointExtension></extensions>
      </trkpt>
      <trkpt lat="61.0144986128" lon="14.4761904782">
        <ele>174.6</ele>
        <time>2011-05-24T14:40:59Z</time>
        <extensions><gpxtpx:TrackPointExtension><gpxtpx:hr>149</gpxtpx:hr></gpxtpx:TrackPointExtension></extensions>
      </trkpt>
      <trkpt lat="61.0143250236" lon="14.4764452879">
        <ele>174.6</ele>
        <time>2011-05-24T14:41:02Z</time>
        <extensions><gpxtpx:TrackPointExtension><gpxtpx:hr>149</gpxtpx:hr></gpxtpx:TrackPointExtension></extensions>
      </trkpt>
      <trkpt lat="61.0141517697" lon="14.4767083119">
        <ele>174.6</ele>
        <time>2011-05-24T14:41:05Z</time>
        <extensions><gpxtpx:TrackPointExtension><gpxtpx:hr>149</gpxtpx:hr></gpxtpx:TrackPointExtension></extensions>
      </trkpt>
      <trkpt lat="61.0139871492" lon="14.4769655524">
        <ele>174.6</ele>
        <time>2011-05-24T14:41:08Z</time>
        <extensions><gpxtpx:TrackPointExtension><gpxtpx:hr>149</gpxtpx:hr></gpxtpx:TrackPointExtension></extensions>
      </trkpt>
      <trkpt lat="61.0138170805" lon="14.4772138243">
        <ele>174.6</ele>
        <time>2011-05-24T14:41:11Z</time>
        <extensions><gpxtpx:TrackPointExtension><gpxtpx:hr>148</gpxtpx:hr></gpxtpx:TrackPointExtension></extensions>
      </trkpt>
      <trkpt lat="61.0136314214" lon="14.4774683826">
        <ele>174.6</ele>
        <time>2011-05-24T14:41:14Z</time>
        <extensions><gpxtpx:TrackPointExtension><gpxtpx:hr>148</gpxtpx:hr></gpxtpx:TrackPointExtension></extensions>
      </trkpt>
      <trkpt lat="61.0134590895" lon="14.4776915088">
        <ele>174.6</ele>
        <time>2011-05-24T14:41:17Z</time>
        <extensions><gpxtpx:TrackPointExtension><gpxtpx:hr>147</gpxtpx:hr></gpxtpx:TrackPointExtension></extensions>
      </trkpt>
      <trkpt lat="61.0132242287" lon="14.4779081809">
        <ele>174.6</ele>
        <time>2011-05-24T14:41:21Z</time>
        <extensions><gpxtpx:TrackPointExtension><gpxtpx:hr>146</gpxtpx:hr></gpxtpx:TrackPointExtension></extensions>
      </trkpt>
      <trkpt lat="61.0130024436" lon="14.478047991">
        <ele>174.6</ele>
        <time>2011-05-24T14:41:24Z</time>
        <extensions><gpxtpx:TrackPointExtension><gpxtpx:hr>146</gpxtpx:hr></gpxtpx:TrackPointExtension></extensions>
      </trkpt>
      <trkpt lat="61.012815192" lon="14.4781474003">
        <ele>174.6</ele>
        <time>2011-05-24T14:41:27Z</time>
        <extensions><gpxtpx:TrackPointExtension><gpxtpx:hr>147</gpxtpx:hr></gpxtpx:TrackPointExtension></extensions>
      </trkpt>
      <trkpt lat="61.0126029623" lon="14.4782504977">
        <ele>174.6</ele>
        <time>2011-05-24T14:41:30Z</time>
        <extensions><gpxtpx:TrackPointExtension><gpxtpx:hr>146</gpxtpx:hr></gpxtpx:TrackPointExtension></extensions>
      </trkpt>
      <trkpt lat="61.0124022158" lon="14.4783293714">
        <ele>174.6</ele>
        <time>2011-05-24T14:41:33Z</time>
        <extensions><gpxtpx:TrackPointExtension><gpxtpx:hr>147</gpxtpx:hr></gpxtpx:TrackPointExtension></extensions>
      </trkpt>
      <trkpt lat="61.0121884773" lon="14.4783960913">
        <ele>174.6</ele>
        <time>2011-05-24T14:41:36Z</time>
        <extensions><gpxtpx:TrackPointExtension><gpxtpx:hr>146</gpxtpx:hr></gpxtpx:TrackPointExtension></extensions>
      </trkpt>
      <trkpt lat="61.0119850486" lon="14.4784642362">
        <ele>174.6</ele>
        <time>2011-05-24T14:41:39Z</time>
        <extensions><gpxtpx:TrackPointExtension><gpxtpx:hr>146</gpxtpx:hr></gpxtpx:TrackPointExtension></extensions>
      </trkpt>
      <trkpt lat="61.0117771775" lon="14.4785513241">
        <ele>174.6</ele>
        <time>2011-05-24T14:41:42Z</time>
        <extensions><gpxtpx:TrackPointExtension><gpxtpx:hr>145</gpxtpx:hr></gpxtpx:TrackPointExtension></extensions>
      </trkpt>
      <trkpt lat="61.0115688034" lon="14.4786336344">
        <ele>174.6</ele>
        <time>2011-05-24T14:41:45Z</time>
        <extensions><gpxtpx:TrackPointExtension><gpxtpx:hr>144</gpxtpx:hr></gpxtpx:TrackPointExtension></extensions>
      </trkpt>
      <trkpt lat="61.0113571605" lon="14.4787187107">
        <ele>174.6</ele>
        <time>2011-05-24T14:41:48Z</time>
        <extensions><gpxtpx:TrackPointExtension><gpxtpx:hr>144</gpxtpx:hr></gpxtpx:TrackPointExtension></extensions>
      </trkpt>
      <trkpt lat="61.0111411589" lon="14.4788059662">
        <ele>174.6</ele>
        <time>2011-05-24T14:41:51Z</time>
        <extensions><gpxtpx:TrackPointExtension><gpxtpx:hr>143</gpxtpx:hr></gpxtpx:TrackPointExtension></extensions>
      </trkpt>
      <trkpt lat="61.0109188709" lon="14.4789101532">
        <ele>174.6</ele>
        <time>2011-05-24T14:41:54Z</time>
        <extensions><gpxtpx:TrackPointExtension><gpxtpx:hr>142</gpxtpx:hr></gpxtpx:TrackPointExtension></extensions>
      </trkpt>
      <trkpt lat="61.0107110836" lon="14.4790421682">
        <ele>174.6</ele>
        <time>2011-05-24T14:41:57Z</time>
        <extensions><gpxtpx:TrackPointExtension><gpxtpx:hr>142</gpxtpx:hr></gpxtpx:TrackPointExtension></extensions>
      </trkpt>
      <trkpt lat="61.0104981833" lon="14.4792658811">
        <ele>174.6</ele>
        <time>2011-05-24T14:42:00Z</time>
        <extensions><gpxtpx:TrackPointExtension><gpxtpx:hr>142</gpxtpx:hr></gpxtpx:TrackPointExtension></extensions>
      </trkpt>
      <trkpt lat="61.0104343971" lon="14.4793552321">
        <ele>174.6</ele>
        <time>2011-05-24T14:42:01Z</time>
        <extensions><gpxtpx:TrackPointExtension><gpxtpx:hr>141</gpxtpx:hr></gpxtpx:TrackPointExtension></extensions>
      </trkpt>
      <trkpt lat="61.0102188984" lon="14.4798149794">
        <ele>174.6</ele>
        <time>2011-05-24T14:42:05Z</time>
        <extensions><gpxtpx:TrackPointExtension><gpxtpx:hr>141</gpxtpx:hr></gpxtpx:TrackPointExtension></extensions>
      </trkpt>
      <trkpt lat="61.0101018871" lon="14.4802265306">
        <ele>174.6</ele>
        <time>2011-05-24T14:42:08Z</time>
        <extensions><gpxtpx:TrackPointExtension><gpxtpx:hr>139</gpxtpx:hr></gpxtpx:TrackPointExtension></extensions>
      </trkpt>
      <trkpt lat="61.0100312277" lon="14.4806471344">
        <ele>174.6</ele>
        <time>2011-05-24T14:42:11Z</time>
        <extensions><gpxtpx:TrackPointExtension><gpxtpx:hr>140</gpxtpx:hr></gpxtpx:TrackPointExtension></extensions>
      </trkpt>
      <trkpt lat="61.0099883124" lon="14.4810741084">
        <ele>174.6</ele>
        <time>2011-05-24T14:42:14Z</time>
        <extensions><gpxtpx:TrackPointExtension><gpxtpx:hr>142</gpxtpx:hr></gpxtpx:TrackPointExtension></extensions>
      </trkpt>
      <trkpt lat="61.0099681958" lon="14.4814829775">
        <ele>174.6</ele>
        <time>2011-05-24T14:42:17Z</time>
        <extensions><gpxtpx:TrackPointExtension><gpxtpx:hr>144</gpxtpx:hr></gpxtpx:TrackPointExtension></extensions>
      </trkpt>
      <trkpt lat="61.0099446427" lon="14.4818942773">
        <ele>174.6</ele>
        <time>2011-05-24T14:42:20Z</time>
        <extensions><gpxtpx:TrackPointExtension><gpxtpx:hr>145</gpxtpx:hr></gpxtpx:TrackPointExtension></extensions>
      </trkpt>
      <trkpt lat="61.0099229336" lon="14.482298201">
        <ele>174.6</ele>
        <time>2011-05-24T14:42:23Z</time>
        <extensions><gpxtpx:TrackPointExtension><gpxtpx:hr>146</gpxtpx:hr></gpxtpx:TrackPointExtension></extensions>
      </trkpt>
      <trkpt lat="61.0098993804" lon="14.4826860316">
        <ele>174.6</ele>
        <time>2011-05-24T14:42:26Z</time>
        <extensions><gpxtpx:TrackPointExtension><gpxtpx:hr>146</gpxtpx:hr></gpxtpx:TrackPointExtension></extensions>
      </trkpt>
      <trkpt lat="61.0098772522" lon="14.4830897039">
        <ele>174.6</ele>
        <time>2011-05-24T14:42:29Z</time>
        <extensions><gpxtpx:TrackPointExtension><gpxtpx:hr>146</gpxtpx:hr></gpxtpx:TrackPointExtension></extensions>
      </trkpt>
      <trkpt lat="61.0098488376" lon="14.4835176837">
        <ele>174.6</ele>
        <time>2011-05-24T14:42:32Z</time>
        <extensions><gpxtpx:TrackPointExtension><gpxtpx:hr>147</gpxtpx:hr></gpxtpx:TrackPointExtension></extensions>
      </trkpt>
      <trkpt lat="61.0098168187" lon="14.4839423107">
        <ele>174.6</ele>
        <time>2011-05-24T14:42:35Z</time>
        <extensions><gpxtpx:TrackPointExtension><gpxtpx:hr>149</gpxtpx:hr></gpxtpx:TrackPointExtension></extensions>
      </trkpt>
      <trkpt lat="61.0097906672" lon="14.4843775828">
        <ele>174.6</ele>
        <time>2011-05-24T14:42:38Z</time>
        <extensions><gpxtpx:TrackPointExtension><gpxtpx:hr>150</gpxtpx:hr></gpxtpx:TrackPointExtension></extensions>
      </trkpt>
      <trkpt lat="61.0097640127" lon="14.4848270203">
        <ele>175</ele>
        <time>2011-05-24T14:42:41Z</time>
        <extensions><gpxtpx:TrackPointExtension><gpxtpx:hr>150</gpxtpx:hr></gpxtpx:TrackPointExtension></extensions>
      </trkpt>
      <trkpt lat="61.0097397052" lon="14.4852769607">
        <ele>175.4</ele>
        <time>2011-05-24T14:42:44Z</time>
        <extensions><gpxtpx:TrackPointExtension><gpxtpx:hr>150</gpxtpx:hr></gpxtpx:TrackPointExtension></extensions>
      </trkpt>
      <trkpt lat="61.0097146433" lon="14.4857238836">
        <ele>175.8</ele>
        <time>2011-05-24T14:42:47Z</time>
        <extensions><gpxtpx:TrackPointExtension><gpxtpx:hr>151</gpxtpx:hr></gpxtpx:TrackPointExtension></extensions>
      </trkpt>
      <trkpt lat="61.0096905873" lon="14.486189079">
        <ele>176</ele>
        <time>2011-05-24T14:42:50Z</time>
        <extensions><gpxtpx:TrackPointExtension><gpxtpx:hr>152</gpxtpx:hr></gpxtpx:TrackPointExtension></extensions>
      </trkpt>
      <trkpt lat="61.0096664474" lon="14.486647569">
        <ele>176.2</ele>
        <time>2011-05-24T14:42:53Z</time>
        <extensions><gpxtpx:TrackPointExtension><gpxtpx:hr>152</gpxtpx:hr></gpxtpx:TrackPointExtension></extensions>
      </trkpt>
      <trkpt lat="61.0096437325" lon="14.4871209787">
        <ele>176.4</ele>
        <time>2011-05-24T14:42:56Z</time>
        <extensions><gpxtpx:TrackPointExtension><gpxtpx:hr>152</gpxtpx:hr></gpxtpx:TrackPointExtension></extensions>
      </trkpt>
      <trkpt lat="61.0096141444" lon="14.4875905327">
        <ele>176.4</ele>
        <time>2011-05-24T14:42:59Z</time>
        <extensions><gpxtpx:TrackPointExtension><gpxtpx:hr>153</gpxtpx:hr></gpxtpx:TrackPointExtension></extensions>
      </trkpt>
      <trkpt lat="61.0095834666" lon="14.4880601706">
        <ele>176.4</ele>
        <time>2011-05-24T14:43:02Z</time>
        <extensions><gpxtpx:TrackPointExtension><gpxtpx:hr>154</gpxtpx:hr></gpxtpx:TrackPointExtension></extensions>
      </trkpt>
      <trkpt lat="61.00955413" lon="14.4885363463">
        <ele>176.6</ele>
        <time>2011-05-24T14:43:05Z</time>
        <extensions><gpxtpx:TrackPointExtension><gpxtpx:hr>154</gpxtpx:hr></gpxtpx:TrackPointExtension></extensions>
      </trkpt>
      <trkpt lat="61.0095260506" lon="14.4890314651">
        <ele>176.6</ele>
        <time>2011-05-24T14:43:08Z</time>
        <extensions><gpxtpx:TrackPointExtension><gpxtpx:hr>155</gpxtpx:hr></gpxtpx:TrackPointExtension></extensions>
      </trkpt>
      <trkpt lat="61.0094986418" lon="14.4895208005">
        <ele>176.6</ele>
        <time>2011-05-24T14:43:11Z</time>
        <extensions><gpxtpx:TrackPointExtension><gpxtpx:hr>156</gpxtpx:hr></gpxtpx:TrackPointExtension></extensions>
      </trkpt>
      <trkpt lat="61.009473077" lon="14.4900098843">
        <ele>176.6</ele>
        <time>2011-05-24T14:43:14Z</time>
        <extensions><gpxtpx:TrackPointExtension><gpxtpx:hr>156</gpxtpx:hr></gpxtpx:TrackPointExtension></extensions>
      </trkpt>
      <trkpt lat="61.0094463387" lon="14.4904967051">
        <ele>176.6</ele>
        <time>2011-05-24T14:43:17Z</time>
        <extensions><gpxtpx:TrackPointExtension><gpxtpx:hr>156</gpxtpx:hr></gpxtpx:TrackPointExtension></extensions>
      </trkpt>
      <trkpt lat="61.0094215283" lon="14.490866766">
        <ele>176.6</ele>
        <time>2011-05-24T14:43:19Z</time>
        <extensions><gpxtpx:TrackPointExtension><gpxtpx:hr>157</gpxtpx:hr></gpxtpx:TrackPointExtension></extensions>
      </trkpt>
      <trkpt lat="61.0093740867" lon="14.4914288562">
        <ele>176.6</ele>
        <time>2011-05-24T14:43:22Z</time>
        <extensions><gpxtpx:TrackPointExtension><gpxtpx:hr>157</gpxtpx:hr></gpxtpx:TrackPointExtension></extensions>
      </trkpt>
      <trkpt lat="61.0093315067" lon="14.4918122443">
        <ele>176.6</ele>
        <time>2011-05-24T14:43:24Z</time>
        <extensions><gpxtpx:TrackPointExtension><gpxtpx:hr>157</gpxtpx:hr></gpxtpx:TrackPointExtension></extensions>
      </trkpt>
      <trkpt lat="61.0092876694" lon="14.4922264778">
        <ele>176.6</ele>
        <time>2011-05-24T14:43:26Z</time>
        <extensions><gpxtpx:TrackPointExtension><gpxtpx:hr>158</gpxtpx:hr></gpxtpx:TrackPointExtension></extensions>
      </trkpt>
      <trkpt lat="61.0092430776" lon="14.4926029089">
        <ele>176.6</ele>
        <time>2011-05-24T14:43:28Z</time>
        <extensions><gpxtpx:TrackPointExtension><gpxtpx:hr>158</gpxtpx:hr></gpxtpx:TrackPointExtension></extensions>
      </trkpt>
      <trkpt lat="61.0091934568" lon="14.492988141">
        <ele>176.6</ele>
        <time>2011-05-24T14:43:30Z</time>
        <extensions><gpxtpx:TrackPointExtension><gpxtpx:hr>158</gpxtpx:hr></gpxtpx:TrackPointExtension></extensions>
      </trkpt>
      <trkpt lat="61.0091471887" lon="14.493347054">
        <ele>176.6</ele>
        <time>2011-05-24T14:43:32Z</time>
        <extensions><gpxtpx:TrackPointExtension><gpxtpx:hr>158</gpxtpx:hr></gpxtpx:TrackPointExtension></extensions>
      </trkpt>
      <trkpt lat="61.0090763617" lon="14.4938581823">
        <ele>176.6</ele>
        <time>2011-05-24T14:43:35Z</time>
        <extensions><gpxtpx:TrackPointExtension><gpxtpx:hr>159</gpxtpx:hr></gpxtpx:TrackPointExtension></extensions>
      </trkpt>
      <trkpt lat="61.009020622" lon="14.494311643">
        <ele>176.6</ele>
        <time>2011-05-24T14:43:38Z</time>
        <extensions><gpxtpx:TrackPointExtension><gpxtpx:hr>159</gpxtpx:hr></gpxtpx:TrackPointExtension></extensions>
      </trkpt>
      <trkpt lat="61.0089559137" lon="14.494737695">
        <ele>176.6</ele>
        <time>2011-05-24T14:43:41Z</time>
        <extensions><gpxtpx:TrackPointExtension><gpxtpx:hr>159</gpxtpx:hr></gpxtpx:TrackPointExtension></extensions>
      </trkpt>
      <trkpt lat="61.0089058738" lon="14.4951691114">
        <ele>176.6</ele>
        <time>2011-05-24T14:43:44Z</time>
        <extensions><gpxtpx:TrackPointExtension><gpxtpx:hr>160</gpxtpx:hr></gpxtpx:TrackPointExtension></extensions>
      </trkpt>
      <trkpt lat="61.0088680714" lon="14.4955988514">
        <ele>176.6</ele>
        <time>2011-05-24T14:43:47Z</time>
        <extensions><gpxtpx:TrackPointExtension><gpxtpx:hr>159</gpxtpx:hr></gpxtpx:TrackPointExtension></extensions>
      </trkpt>
      <trkpt lat="61.0088415846" lon="14.4960290944">
        <ele>176.6</ele>
        <time>2011-05-24T14:43:50Z</time>
        <extensions><gpxtpx:TrackPointExtension><gpxtpx:hr>159</gpxtpx:hr></gpxtpx:TrackPointExtension></extensions>
      </trkpt>
      <trkpt lat="61.0088274192" lon="14.4964657913">
        <ele>176.6</ele>
        <time>2011-05-24T14:43:53Z</time>
        <extensions><gpxtpx:TrackPointExtension><gpxtpx:hr>158</gpxtpx:hr></gpxtpx:TrackPointExtension></extensions>
      </trkpt>
      <trkpt lat="61.0088264134" lon="14.496913301">
        <ele>177.2</ele>
        <time>2011-05-24T14:43:56Z</time>
        <extensions><gpxtpx:TrackPointExtension><gpxtpx:hr>158</gpxtpx:hr></gpxtpx:TrackPointExtension></extensions>
      </trkpt>
      <trkpt lat="61.0088415846" lon="14.497311106">
        <ele>177.6</ele>
        <time>2011-05-24T14:43:59Z</time>
        <extensions><gpxtpx:TrackPointExtension><gpxtpx:hr>157</gpxtpx:hr></gpxtpx:TrackPointExtension></extensions>
      </trkpt>
      <trkpt lat="61.008871508" lon="14.4977644829">
        <ele>178</ele>
        <time>2011-05-24T14:44:02Z</time>
        <extensions><gpxtpx:TrackPointExtension><gpxtpx:hr>156</gpxtpx:hr></gpxtpx:TrackPointExtension></extensions>
      </trkpt>
      <trkpt lat="61.0089035269" lon="14.4982035268">
        <ele>178.2</ele>
        <time>2011-05-24T14:44:05Z</time>
        <extensions><gpxtpx:TrackPointExtension><gpxtpx:hr>155</gpxtpx:hr></gpxtpx:TrackPointExtension></extensions>
      </trkpt>
      <trkpt lat="61.0089316062" lon="14.4986367873">
        <ele>178.2</ele>
        <time>2011-05-24T14:44:08Z</time>
        <extensions><gpxtpx:TrackPointExtension><gpxtpx:hr>154</gpxtpx:hr></gpxtpx:TrackPointExtension></extensions>
      </trkpt>
      <trkpt lat="61.0089459393" lon="14.4990573072">
        <ele>178.4</ele>
        <time>2011-05-24T14:44:11Z</time>
        <extensions><gpxtpx:TrackPointExtension><gpxtpx:hr>153</gpxtpx:hr></gpxtpx:TrackPointExtension></extensions>
      </trkpt>
      <trkpt lat="61.0089756112" lon="14.4994851194">
        <ele>178.4</ele>
        <time>2011-05-24T14:44:14Z</time>
        <extensions><gpxtpx:TrackPointExtension><gpxtpx:hr>151</gpxtpx:hr></gpxtpx:TrackPointExtension></extensions>
      </trkpt>
      <trkpt lat="61.0090038582" lon="14.4999183798">
        <ele>178.6</ele>
        <time>2011-05-24T14:44:17Z</time>
        <extensions><gpxtpx:TrackPointExtension><gpxtpx:hr>150</gpxtpx:hr></gpxtpx:TrackPointExtension></extensions>
      </trkpt>
      <trkpt lat="61.0090347874" lon="14.5003626205">
        <ele>178.6</ele>
        <time>2011-05-24T14:44:20Z</time>
        <extensions><gpxtpx:TrackPointExtension><gpxtpx:hr>149</gpxtpx:hr></gpxtpx:TrackPointExtension></extensions>
      </trkpt>
      <trkpt lat="61.0090672254" lon="14.5008011615">
        <ele>178.6</ele>
        <time>2011-05-24T14:44:23Z</time>
        <extensions><gpxtpx:TrackPointExtension><gpxtpx:hr>148</gpxtpx:hr></gpxtpx:TrackPointExtension></extensions>
      </trkpt>
      <trkpt lat="61.0090982384" lon="14.501217239">
        <ele>178.4</ele>
        <time>2011-05-24T14:44:26Z</time>
        <extensions><gpxtpx:TrackPointExtension><gpxtpx:hr>146</gpxtpx:hr></gpxtpx:TrackPointExtension></extensions>
      </trkpt>
      <trkpt lat="61.0091285809" lon="14.5017038083">
        <ele>178</ele>
        <time>2011-05-24T14:44:29Z</time>
        <extensions><gpxtpx:TrackPointExtension><gpxtpx:hr>146</gpxtpx:hr></gpxtpx:TrackPointExtension></extensions>
      </trkpt>
      <trkpt lat="61.0091460991" lon="14.5021817442">
        <ele>177.6</ele>
        <time>2011-05-24T14:44:32Z</time>
        <extensions><gpxtpx:TrackPointExtension><gpxtpx:hr>145</gpxtpx:hr></gpxtpx:TrackPointExtension></extensions>
      </trkpt>
      <trkpt lat="61.0091437521" lon="14.5026410723">
        <ele>177.4</ele>
        <time>2011-05-24T14:44:35Z</time>
        <extensions><gpxtpx:TrackPointExtension><gpxtpx:hr>145</gpxtpx:hr></gpxtpx:TrackPointExtension></extensions>
      </trkpt>
      <trkpt lat="61.0091156728" lon="14.5030579881">
        <ele>177.2</ele>
        <time>2011-05-24T14:44:38Z</time>
        <extensions><gpxtpx:TrackPointExtension><gpxtpx:hr>144</gpxtpx:hr></gpxtpx:TrackPointExtension></extensions>
      </trkpt>
      <trkpt lat="61.0090518865" lon="14.5035122032">
        <ele>177</ele>
        <time>2011-05-24T14:44:42Z</time>
        <extensions><gpxtpx:TrackPointExtension><gpxtpx:hr>144</gpxtpx:hr></gpxtpx:TrackPointExtension></extensions>
      </trkpt>
      <trkpt lat="61.0089713364" lon="14.503939261">
        <ele>176.8</ele>
        <time>2011-05-24T14:44:46Z</time>
        <extensions><gpxtpx:TrackPointExtension><gpxtpx:hr>146</gpxtpx:hr></gpxtpx:TrackPointExtension></extensions>
      </trkpt>
      <trkpt lat="61.0088974919" lon="14.5043687496">
        <ele>176.8</ele>
        <time>2011-05-24T14:44:50Z</time>
        <extensions><gpxtpx:TrackPointExtension><gpxtpx:hr>148</gpxtpx:hr></gpxtpx:TrackPointExtension></extensions>
      </trkpt>
      <trkpt lat="61.0088188697" lon="14.5048182709">
        <ele>176.8</ele>
        <time>2011-05-24T14:44:54Z</time>
        <extensions><gpxtpx:TrackPointExtension><gpxtpx:hr>151</gpxtpx:hr></gpxtpx:TrackPointExtension></extensions>
      </trkpt>
      <trkpt lat="61.0087376491" lon="14.5052651938">
        <ele>176.8</ele>
        <time>2011-05-24T14:44:58Z</time>
        <extensions><gpxtpx:TrackPointExtension><gpxtpx:hr>153</gpxtpx:hr></gpxtpx:TrackPointExtension></extensions>
      </trkpt>
      <trkpt lat="61.0086758745" lon="14.5056246935">
        <ele>176.8</ele>
        <time>2011-05-24T14:45:01Z</time>
        <extensions><gpxtpx:TrackPointExtension><gpxtpx:hr>154</gpxtpx:hr></gpxtpx:TrackPointExtension></extensions>
      </trkpt>
      <trkpt lat="61.0086178717" lon="14.5060178884">
        <ele>176.8</ele>
        <time>2011-05-24T14:45:04Z</time>
        <extensions><gpxtpx:TrackPointExtension><gpxtpx:hr>156</gpxtpx:hr></gpxtpx:TrackPointExtension></extensions>
      </trkpt>
      <trkpt lat="61.0085726095" lon="14.5064021985">
        <ele>176.6</ele>
        <time>2011-05-24T14:45:07Z</time>
        <extensions><gpxtpx:TrackPointExtension><gpxtpx:hr>158</gpxtpx:hr></gpxtpx:TrackPointExtension></extensions>
      </trkpt>
      <trkpt lat="61.0085348909" lon="14.5068140851">
        <ele>176.6</ele>
        <time>2011-05-24T14:45:10Z</time>
        <extensions><gpxtpx:TrackPointExtension><gpxtpx:hr>159</gpxtpx:hr></gpxtpx:TrackPointExtension></extensions>
      </trkpt>
      <trkpt lat="61.0085041293" lon="14.5072356108">
        <ele>176.6</ele>
        <time>2011-05-24T14:45:13Z</time>
        <extensions><gpxtpx:TrackPointExtension><gpxtpx:hr>160</gpxtpx:hr></gpxtpx:TrackPointExtension></extensions>
      </trkpt>
      <trkpt lat="61.0084685063" lon="14.5076684521">
        <ele>176.6</ele>
        <time>2011-05-24T14:45:16Z</time>
        <extensions><gpxtpx:TrackPointExtension><gpxtpx:hr>161</gpxtpx:hr></gpxtpx:TrackPointExtension></extensions>
      </trkpt>
      <trkpt lat="61.0084316259" lon="14.5081033051">
        <ele>176.6</ele>
        <time>2011-05-24T14:45:19Z</time>
        <extensions><gpxtpx:TrackPointExtension><gpxtpx:hr>161</gpxtpx:hr></gpxtpx:TrackPointExtension></extensions>
      </trkpt>
      <trkpt lat="61.0083950808" lon="14.5085212267">
        <ele>176.6</ele>
        <time>2011-05-24T14:45:22Z</time>
        <extensions><gpxtpx:TrackPointExtension><gpxtpx:hr>161</gpxtpx:hr></gpxtpx:TrackPointExtension></extensions>
      </trkpt>
      <trkpt lat="61.0083593739" lon="14.5089391482">
        <ele>176.6</ele>
        <time>2011-05-24T14:45:25Z</time>
        <extensions><gpxtpx:TrackPointExtension><gpxtpx:hr>161</gpxtpx:hr></gpxtpx:TrackPointExtension></extensions>
      </trkpt>
      <trkpt lat="61.0083152851" lon="14.5094038407">
        <ele>176.6</ele>
        <time>2011-05-24T14:45:28Z</time>
        <extensions><gpxtpx:TrackPointExtension><gpxtpx:hr>159</gpxtpx:hr></gpxtpx:TrackPointExtension></extensions>
      </trkpt>
      <trkpt lat="61.0082796621" lon="14.5098368497">
        <ele>176.6</ele>
        <time>2011-05-24T14:45:31Z</time>
        <extensions><gpxtpx:TrackPointExtension><gpxtpx:hr>158</gpxtpx:hr></gpxtpx:TrackPointExtension></extensions>
      </trkpt>
      <trkpt lat="61.0082426979" lon="14.5102642428">
        <ele>176.6</ele>
        <time>2011-05-24T14:45:34Z</time>
        <extensions><gpxtpx:TrackPointExtension><gpxtpx:hr>157</gpxtpx:hr></gpxtpx:TrackPointExtension></extensions>
      </trkpt>
      <trkpt lat="61.0082118525" lon="14.5106862714">
        <ele>176.6</ele>
        <time>2011-05-24T14:45:37Z</time>
        <extensions><gpxtpx:TrackPointExtension><gpxtpx:hr>156</gpxtpx:hr></gpxtpx:TrackPointExtension></extensions>
      </trkpt>
      <trkpt lat="61.0081707812" lon="14.5111226331">
        <ele>176.6</ele>
        <time>2011-05-24T14:45:40Z</time>
        <extensions><gpxtpx:TrackPointExtension><gpxtpx:hr>155</gpxtpx:hr></gpxtpx:TrackPointExtension></extensions>
      </trkpt>
      <trkpt lat="61.0081305481" lon="14.5115558097">
        <ele>176.6</ele>
        <time>2011-05-24T14:45:43Z</time>
        <extensions><gpxtpx:TrackPointExtension><gpxtpx:hr>153</gpxtpx:hr></gpxtpx:TrackPointExtension></extensions>
      </trkpt>
      <trkpt lat="61.0080872975" lon="14.5120353382">
        <ele>176.6</ele>
        <time>2011-05-24T14:45:46Z</time>
        <extensions><gpxtpx:TrackPointExtension><gpxtpx:hr>154</gpxtpx:hr></gpxtpx:TrackPointExtension></extensions>
      </trkpt>
      <trkpt lat="61.0080537699" lon="14.5125970093">
        <ele>176.6</ele>
        <time>2011-05-24T14:45:49Z</time>
        <extensions><gpxtpx:TrackPointExtension><gpxtpx:hr>155</gpxtpx:hr></gpxtpx:TrackPointExtension></extensions>
      </trkpt>
      <trkpt lat="61.0080105192" lon="14.512983834">
        <ele>176.6</ele>
        <time>2011-05-24T14:45:51Z</time>
        <extensions><gpxtpx:TrackPointExtension><gpxtpx:hr>158</gpxtpx:hr></gpxtpx:TrackPointExtension></extensions>
      </trkpt>
      <trkpt lat="61.0079547796" lon="14.5133911944">
        <ele>176.6</ele>
        <time>2011-05-24T14:45:53Z</time>
        <extensions><gpxtpx:TrackPointExtension><gpxtpx:hr>159</gpxtpx:hr></gpxtpx:TrackPointExtension></extensions>
      </trkpt>
      <trkpt lat="61.0079248562" lon="14.513601161">
        <ele>176.6</ele>
        <time>2011-05-24T14:45:54Z</time>
        <extensions><gpxtpx:TrackPointExtension><gpxtpx:hr>160</gpxtpx:hr></gpxtpx:TrackPointExtension></extensions>
      </trkpt>
      <trkpt lat="61.0078127064" lon="14.5141576353">
        <ele>176.6</ele>
        <time>2011-05-24T14:45:57Z</time>
        <extensions><gpxtpx:TrackPointExtension><gpxtpx:hr>162</gpxtpx:hr></gpxtpx:TrackPointExtension></extensions>
      </trkpt>
      <trkpt lat="61.0077413764" lon="14.5145688513">
        <ele>176.6</ele>
        <time>2011-05-24T14:45:59Z</time>
        <extensions><gpxtpx:TrackPointExtension><gpxtpx:hr>163</gpxtpx:hr></gpxtpx:TrackPointExtension></extensions>
      </trkpt>
      <trkpt lat="61.0076821164" lon="14.5149545864">
        <ele>176.6</ele>
        <time>2011-05-24T14:46:01Z</time>
        <extensions><gpxtpx:TrackPointExtension><gpxtpx:hr>163</gpxtpx:hr></gpxtpx:TrackPointExtension></extensions>
      </trkpt>
      <trkpt lat="61.0075826233" lon="14.5154920338">
        <ele>176.6</ele>
        <time>2011-05-24T14:46:04Z</time>
        <extensions><gpxtpx:TrackPointExtension><gpxtpx:hr>164</gpxtpx:hr></gpxtpx:TrackPointExtension></extensions>
      </trkpt>
      <trkpt lat="61.0074797773" lon="14.5159796089">
        <ele>176.6</ele>
        <time>2011-05-24T14:46:07Z</time>
        <extensions><gpxtpx:TrackPointExtension><gpxtpx:hr>164</gpxtpx:hr></gpxtpx:TrackPointExtension></extensions>
      </trkpt>
      <trkpt lat="61.0074423941" lon="14.5161475822">
        <ele>176.6</ele>
        <time>2011-05-24T14:46:08Z</time>
        <extensions><gpxtpx:TrackPointExtension><gpxtpx:hr>163</gpxtpx:hr></gpxtpx:TrackPointExtension></extensions>
      </trkpt>
      <trkpt lat="61.0073031707" lon="14.5167825111">
        <ele>176.6</ele>
        <time>2011-05-24T14:46:12Z</time>
        <extensions><gpxtpx:TrackPointExtension><gpxtpx:hr>161</gpxtpx:hr></gpxtpx:TrackPointExtension></extensions>
      </trkpt>
      <trkpt lat="61.0071843154" lon="14.5172163583">
        <ele>176.4</ele>
        <time>2011-05-24T14:46:15Z</time>
        <extensions><gpxtpx:TrackPointExtension><gpxtpx:hr>159</gpxtpx:hr></gpxtpx:TrackPointExtension></extensions>
      </trkpt>
      <trkpt lat="61.0070752668" lon="14.5176170131">
        <ele>176</ele>
        <time>2011-05-24T14:46:18Z</time>
        <extensions><gpxtpx:TrackPointExtension><gpxtpx:hr>158</gpxtpx:hr></gpxtpx:TrackPointExtension></extensions>
      </trkpt>
      <trkpt lat="61.0069898553" lon="14.5179469247">
        <ele>175.8</ele>
        <time>2011-05-24T14:46:20Z</time>
        <extensions><gpxtpx:TrackPointExtension><gpxtpx:hr>156</gpxtpx:hr></gpxtpx:TrackPointExtension></extensions>
      </trkpt>
      <trkpt lat="61.0068739336" lon="14.518344562">
        <ele>175.4</ele>
        <time>2011-05-24T14:46:23Z</time>
        <extensions><gpxtpx:TrackPointExtension><gpxtpx:hr>155</gpxtpx:hr></gpxtpx:TrackPointExtension></extensions>
      </trkpt>
      <trkpt lat="61.0067717582" lon="14.5187142038">
        <ele>175.2</ele>
        <time>2011-05-24T14:46:26Z</time>
        <extensions><gpxtpx:TrackPointExtension><gpxtpx:hr>152</gpxtpx:hr></gpxtpx:TrackPointExtension></extensions>
      </trkpt>
      <trkpt lat="61.0066680741" lon="14.5190532516">
        <ele>175</ele>
        <time>2011-05-24T14:46:29Z</time>
        <extensions><gpxtpx:TrackPointExtension><gpxtpx:hr>150</gpxtpx:hr></gpxtpx:TrackPointExtension></extensions>
      </trkpt>
      <trkpt lat="61.0065578522" lon="14.5194365559">
        <ele>175</ele>
        <time>2011-05-24T14:46:33Z</time>
        <extensions><gpxtpx:TrackPointExtension><gpxtpx:hr>146</gpxtpx:hr></gpxtpx:TrackPointExtension></extensions>
      </trkpt>
      <trkpt lat="61.0064766315" lon="14.5196811398">
        <ele>174.8</ele>
        <time>2011-05-24T14:46:36Z</time>
        <extensions><gpxtpx:TrackPointExtension><gpxtpx:hr>143</gpxtpx:hr></gpxtpx:TrackPointExtension></extensions>
      </trkpt>
      <trkpt lat="61.0063589497" lon="14.5199891746">
        <ele>174.8</ele>
        <time>2011-05-24T14:46:40Z</time>
        <extensions><gpxtpx:TrackPointExtension><gpxtpx:hr>143</gpxtpx:hr></gpxtpx:TrackPointExtension></extensions>
      </trkpt>
      <trkpt lat="61.006371774" lon="14.5200835548">
        <ele>174.8</ele>
        <time>2011-05-24T14:46:43Z</time>
        <extensions><gpxtpx:TrackPointExtension><gpxtpx:hr>139</gpxtpx:hr></gpxtpx:TrackPointExtension></extensions>
      </trkpt>
      <trkpt lat="61.0064229036" lon="14.5198679723">
        <ele>174.6</ele>
        <time>2011-05-24T14:46:46Z</time>
        <extensions><gpxtpx:TrackPointExtension><gpxtpx:hr>138</gpxtpx:hr></gpxtpx:TrackPointExtension></extensions>
      </trkpt>
      <trkpt lat="61.0064799843" lon="14.5196941317">
        <ele>174.6</ele>
        <time>2011-05-24T14:46:48Z</time>
        <extensions><gpxtpx:TrackPointExtension><gpxtpx:hr>139</gpxtpx:hr></gpxtpx:TrackPointExtension></extensions>
      </trkpt>
      <trkpt lat="61.0065614564" lon="14.5194376456">
        <ele>174.6</ele>
        <time>2011-05-24T14:46:51Z</time>
        <extensions><gpxtpx:TrackPointExtension><gpxtpx:hr>138</gpxtpx:hr></gpxtpx:TrackPointExtension></extensions>
      </trkpt>
      <trkpt lat="61.0067257416" lon="14.5189323008">
        <ele>174.6</ele>
        <time>2011-05-24T14:46:56Z</time>
        <extensions><gpxtpx:TrackPointExtension><gpxtpx:hr>138</gpxtpx:hr></gpxtpx:TrackPointExtension></extensions>
      </trkpt>
      <trkpt lat="61.00685432" lon="14.5184902394">
        <ele>174</ele>
        <time>2011-05-24T14:47:00Z</time>
        <extensions><gpxtpx:TrackPointExtension><gpxtpx:hr>136</gpxtpx:hr></gpxtpx:TrackPointExtension></extensions>
      </trkpt>
      <trkpt lat="61.0069409888" lon="14.5181780136">
        <ele>173.6</ele>
        <time>2011-05-24T14:47:03Z</time>
        <extensions><gpxtpx:TrackPointExtension><gpxtpx:hr>136</gpxtpx:hr></gpxtpx:TrackPointExtension></extensions>
      </trkpt>
      <trkpt lat="61.0071300845" lon="14.5179605033">
        <ele>173.2</ele>
        <time>2011-05-24T14:47:07Z</time>
        <extensions><gpxtpx:TrackPointExtension><gpxtpx:hr>137</gpxtpx:hr></gpxtpx:TrackPointExtension></extensions>
      </trkpt>
      <trkpt lat="61.0072924419" lon="14.5181007325">
        <ele>173</ele>
        <time>2011-05-24T14:47:10Z</time>
        <extensions><gpxtpx:TrackPointExtension><gpxtpx:hr>137</gpxtpx:hr></gpxtpx:TrackPointExtension></extensions>
      </trkpt>
      <trkpt lat="61.0073416436" lon="14.5181716434">
        <ele>173</ele>
        <time>2011-05-24T14:47:11Z</time>
        <extensions><gpxtpx:TrackPointExtension><gpxtpx:hr>137</gpxtpx:hr></gpxtpx:TrackPointExtension></extensions>
      </trkpt>
      <trkpt lat="61.0075040849" lon="14.5183951049">
        <ele>173</ele>
        <time>2011-05-24T14:47:14Z</time>
        <extensions><gpxtpx:TrackPointExtension><gpxtpx:hr>135</gpxtpx:hr></gpxtpx:TrackPointExtension></extensions>
      </trkpt>
      <trkpt lat="61.0075625905" lon="14.5184525209">
        <ele>172.8</ele>
        <time>2011-05-24T14:47:15Z</time>
        <extensions><gpxtpx:TrackPointExtension><gpxtpx:hr>135</gpxtpx:hr></gpxtpx:TrackPointExtension></extensions>
      </trkpt>
      <trkpt lat="61.0076294781" lon="14.518521001">
        <ele>172.8</ele>
        <time>2011-05-24T14:47:16Z</time>
        <extensions><gpxtpx:TrackPointExtension><gpxtpx:hr>135</gpxtpx:hr></gpxtpx:TrackPointExtension></extensions>
      </trkpt>
      <trkpt lat="61.0076873132" lon="14.5188998629">
        <ele>172.8</ele>
        <time>2011-05-24T14:47:19Z</time>
        <extensions><gpxtpx:TrackPointExtension><gpxtpx:hr>133</gpxtpx:hr></gpxtpx:TrackPointExtension></extensions>
      </trkpt>
      <trkpt lat="61.0075866466" lon="14.5192905432">
        <ele>172.8</ele>
        <time>2011-05-24T14:47:22Z</time>
        <extensions><gpxtpx:TrackPointExtension><gpxtpx:hr>132</gpxtpx:hr></gpxtpx:TrackPointExtension></extensions>
      </trkpt>
      <trkpt lat="61.0075907537" lon="14.51955692">
        <ele>172.8</ele>
        <time>2011-05-24T14:47:24Z</time>
        <extensions><gpxtpx:TrackPointExtension><gpxtpx:hr>131</gpxtpx:hr></gpxtpx:TrackPointExtension></extensions>
      </trkpt>
      <trkpt lat="61.0076045" lon="14.5196934612">
        <ele>172.8</ele>
        <time>2011-05-24T14:47:25Z</time>
        <extensions><gpxtpx:TrackPointExtension><gpxtpx:hr>130</gpxtpx:hr></gpxtpx:TrackPointExtension></extensions>
      </trkpt>
      <trkpt lat="61.0076066793" lon="14.5198031802">
        <ele>172.8</ele>
        <time>2011-05-24T14:47:26Z</time>
        <extensions><gpxtpx:TrackPointExtension><gpxtpx:hr>129</gpxtpx:hr></gpxtpx:TrackPointExtension></extensions>
      </trkpt>
      <trkpt lat="61.0076098644" lon="14.5201397135">
        <ele>172</ele>
        <time>2011-05-24T14:47:30Z</time>
        <extensions><gpxtpx:TrackPointExtension><gpxtpx:hr>128</gpxtpx:hr></gpxtpx:TrackPointExtension></extensions>
      </trkpt>
      <trkpt lat="61.0076139716" lon="14.5202490973">
        <ele>171.8</ele>
        <time>2011-05-24T14:47:31Z</time>
        <extensions><gpxtpx:TrackPointExtension><gpxtpx:hr>127</gpxtpx:hr></gpxtpx:TrackPointExtension></extensions>
      </trkpt>
      <trkpt lat="61.0076144745" lon="14.5207537715">
        <ele>171.4</ele>
        <time>2011-05-24T14:47:35Z</time>
        <extensions><gpxtpx:TrackPointExtension><gpxtpx:hr>126</gpxtpx:hr></gpxtpx:TrackPointExtension></extensions>
      </trkpt>
      <trkpt lat="61.0076125466" lon="14.5208897259">
        <ele>171.4</ele>
        <time>2011-05-24T14:47:36Z</time>
        <extensions><gpxtpx:TrackPointExtension><gpxtpx:hr>125</gpxtpx:hr></gpxtpx:TrackPointExtension></extensions>
      </trkpt>
      <trkpt lat="61.0076039971" lon="14.5210167955">
        <ele>171.2</ele>
        <time>2011-05-24T14:47:37Z</time>
        <extensions><gpxtpx:TrackPointExtension><gpxtpx:hr>125</gpxtpx:hr></gpxtpx:TrackPointExtension></extensions>
      </trkpt>
      <trkpt lat="61.0075775941" lon="14.5214000998">
        <ele>171</ele>
        <time>2011-05-24T14:47:40Z</time>
        <extensions><gpxtpx:TrackPointExtension><gpxtpx:hr>124</gpxtpx:hr></gpxtpx:TrackPointExtension></extensions>
      </trkpt>
      <trkpt lat="61.0075747443" lon="14.5214988386">
        <ele>171</ele>
        <time>2011-05-24T14:47:41Z</time>
        <extensions><gpxtpx:TrackPointExtension><gpxtpx:hr>126</gpxtpx:hr></gpxtpx:TrackPointExtension></extensions>
      </trkpt>
      <trkpt lat="61.0076296457" lon="14.522034442">
        <ele>170.8</ele>
        <time>2011-05-24T14:47:47Z</time>
        <extensions><gpxtpx:TrackPointExtension><gpxtpx:hr>132</gpxtpx:hr></gpxtpx:TrackPointExtension></extensions>
      </trkpt>
      <trkpt lat="61.0076458228" lon="14.5221304986">
        <ele>170.8</ele>
        <time>2011-05-24T14:47:48Z</time>
        <extensions><gpxtpx:TrackPointExtension><gpxtpx:hr>133</gpxtpx:hr></gpxtpx:TrackPointExtension></extensions>
      </trkpt>
      <trkpt lat="61.0077837889" lon="14.5225328298">
        <ele>170.4</ele>
        <time>2011-05-24T14:47:53Z</time>
        <extensions><gpxtpx:TrackPointExtension><gpxtpx:hr>136</gpxtpx:hr></gpxtpx:TrackPointExtension></extensions>
      </trkpt>
      <trkpt lat="61.007935166" lon="14.5228869651">
        <ele>169.6</ele>
        <time>2011-05-24T14:47:58Z</time>
        <extensions><gpxtpx:TrackPointExtension><gpxtpx:hr>136</gpxtpx:hr></gpxtpx:TrackPointExtension></extensions>
      </trkpt>
      <trkpt lat="61.0080699469" lon="14.5232473029">
        <ele>169.2</ele>
        <time>2011-05-24T14:48:03Z</time>
        <extensions><gpxtpx:TrackPointExtension><gpxtpx:hr>136</gpxtpx:hr></gpxtpx:TrackPointExtension></extensions>
      </trkpt>
      <trkpt lat="61.0081812586" lon="14.5235578523">
        <ele>169</ele>
        <time>2011-05-24T14:48:07Z</time>
        <extensions><gpxtpx:TrackPointExtension><gpxtpx:hr>137</gpxtpx:hr></gpxtpx:TrackPointExtension></extensions>
      </trkpt>
      <trkpt lat="61.0082649099" lon="14.5237985805">
        <ele>168.8</ele>
        <time>2011-05-24T14:48:10Z</time>
        <extensions><gpxtpx:TrackPointExtension><gpxtpx:hr>137</gpxtpx:hr></gpxtpx:TrackPointExtension></extensions>
      </trkpt>
      <trkpt lat="61.0083887944" lon="14.524279953">
        <ele>168.8</ele>
        <time>2011-05-24T14:48:16Z</time>
        <extensions><gpxtpx:TrackPointExtension><gpxtpx:hr>136</gpxtpx:hr></gpxtpx:TrackPointExtension></extensions>
      </trkpt>
      <trkpt lat="61.0084009482" lon="14.5243555578">
        <ele>168.6</ele>
        <time>2011-05-24T14:48:17Z</time>
        <extensions><gpxtpx:TrackPointExtension><gpxtpx:hr>136</gpxtpx:hr></gpxtpx:TrackPointExtension></extensions>
      </trkpt>
      <trkpt lat="61.0084209809" lon="14.5247479983">
        <ele>168.6</ele>
        <time>2011-05-24T14:48:21Z</time>
        <extensions><gpxtpx:TrackPointExtension><gpxtpx:hr>136</gpxtpx:hr></gpxtpx:TrackPointExtension></extensions>
      </trkpt>
      <trkpt lat="61.0084239146" lon="14.5248490002">
        <ele>168.6</ele>
        <time>2011-05-24T14:48:22Z</time>
        <extensions><gpxtpx:TrackPointExtension><gpxtpx:hr>136</gpxtpx:hr></gpxtpx:TrackPointExtension></extensions>
      </trkpt>
      <trkpt lat="61.0084527483" lon="14.5254041335">
        <ele>168.6</ele>
        <time>2011-05-24T14:48:28Z</time>
        <extensions><gpxtpx:TrackPointExtension><gpxtpx:hr>138</gpxtpx:hr></gpxtpx:TrackPointExtension></extensions>
      </trkpt>
      <trkpt lat="61.0084840128" lon="14.5258193728">
        <ele>168.6</ele>
        <time>2011-05-24T14:48:33Z</time>
        <extensions><gpxtpx:TrackPointExtension><gpxtpx:hr>141</gpxtpx:hr></gpxtpx:TrackPointExtension></extensions>
      </trkpt>
      <trkpt lat="61.008491305" lon="14.525878549">
        <ele>168.6</ele>
        <time>2011-05-24T14:48:34Z</time>
        <extensions><gpxtpx:TrackPointExtension><gpxtpx:hr>141</gpxtpx:hr></gpxtpx:TrackPointExtension></extensions>
      </trkpt>
      <trkpt lat="61.008545955" lon="14.52620779">
        <ele>168.6</ele>
        <time>2011-05-24T14:48:39Z</time>
        <extensions><gpxtpx:TrackPointExtension><gpxtpx:hr>144</gpxtpx:hr></gpxtpx:TrackPointExtension></extensions>
      </trkpt>
      <trkpt lat="61.0086568476" lon="14.5265590755">
        <ele>168.6</ele>
        <time>2011-05-24T14:48:43Z</time>
        <extensions><gpxtpx:TrackPointExtension><gpxtpx:hr>143</gpxtpx:hr></gpxtpx:TrackPointExtension></extensions>
      </trkpt>
      <trkpt lat="61.0086979189" lon="14.5266105403">
        <ele>168.6</ele>
        <time>2011-05-24T14:48:44Z</time>
        <extensions><gpxtpx:TrackPointExtension><gpxtpx:hr>143</gpxtpx:hr></gpxtpx:TrackPointExtension></extensions>
      </trkpt>
      <trkpt lat="61.0087923829" lon="14.5266827085">
        <ele>168.6</ele>
        <time>2011-05-24T14:48:46Z</time>
        <extensions><gpxtpx:TrackPointExtension><gpxtpx:hr>142</gpxtpx:hr></gpxtpx:TrackPointExtension></extensions>
      </trkpt>
      <trkpt lat="61.0090117372" lon="14.5268273801">
        <ele>168.6</ele>
        <time>2011-05-24T14:48:51Z</time>
        <extensions><gpxtpx:TrackPointExtension><gpxtpx:hr>142</gpxtpx:hr></gpxtpx:TrackPointExtension></extensions>
      </trkpt>
      <trkpt lat="61.0090590949" lon="14.5268754084">
        <ele>168.6</ele>
        <time>2011-05-24T14:48:52Z</time>
        <extensions><gpxtpx:TrackPointExtension><gpxtpx:hr>141</gpxtpx:hr></gpxtpx:TrackPointExtension></extensions>
      </trkpt>
      <trkpt lat="61.0091841529" lon="14.527039526">
        <ele>168.6</ele>
        <time>2011-05-24T14:48:55Z</time>
        <extensions><gpxtpx:TrackPointExtension><gpxtpx:hr>143</gpxtpx:hr></gpxtpx:TrackPointExtension></extensions>
      </trkpt>
      <trkpt lat="61.009267469" lon="14.5271210818">
        <ele>168.6</ele>
        <time>2011-05-24T14:48:57Z</time>
        <extensions><gpxtpx:TrackPointExtension><gpxtpx:hr>144</gpxtpx:hr></gpxtpx:TrackPointExtension></extensions>
      </trkpt>
      <trkpt lat="61.0095041738" lon="14.527392404">
        <ele>168.6</ele>
        <time>2011-05-24T14:49:02Z</time>
        <extensions><gpxtpx:TrackPointExtension><gpxtpx:hr>145</gpxtpx:hr></gpxtpx:TrackPointExtension></extensions>
      </trkpt>
      <trkpt lat="61.0096627594" lon="14.5275298671">
        <ele>168.6</ele>
        <time>2011-05-24T14:49:05Z</time>
        <extensions><gpxtpx:TrackPointExtension><gpxtpx:hr>146</gpxtpx:hr></gpxtpx:TrackPointExtension></extensions>
      </trkpt>
      <trkpt lat="61.0098391146" lon="14.5279285103">
        <ele>168.6</ele>
        <time>2011-05-24T14:49:10Z</time>
        <extensions><gpxtpx:TrackPointExtension><gpxtpx:hr>145</gpxtpx:hr></gpxtpx:TrackPointExtension></extensions>
      </trkpt>
      <trkpt lat="61.0098580576" lon="14.5280125807">
        <ele>168.6</ele>
        <time>2011-05-24T14:49:11Z</time>
        <extensions><gpxtpx:TrackPointExtension><gpxtpx:hr>145</gpxtpx:hr></gpxtpx:TrackPointExtension></extensions>
      </trkpt>
      <trkpt lat="61.0099196646" lon="14.5284139061">
        <ele>168.6</ele>
        <time>2011-05-24T14:49:15Z</time>
        <extensions><gpxtpx:TrackPointExtension><gpxtpx:hr>144</gpxtpx:hr></gpxtpx:TrackPointExtension></extensions>
      </trkpt>
      <trkpt lat="61.0099205028" lon="14.5285212782">
        <ele>168.6</ele>
        <time>2011-05-24T14:49:16Z</time>
        <extensions><gpxtpx:TrackPointExtension><gpxtpx:hr>144</gpxtpx:hr></gpxtpx:TrackPointExtension></extensions>
      </trkpt>
      <trkpt lat="61.009901895" lon="14.5287221086">
        <ele>168.6</ele>
        <time>2011-05-24T14:49:18Z</time>
        <extensions><gpxtpx:TrackPointExtension><gpxtpx:hr>143</gpxtpx:hr></gpxtpx:TrackPointExtension></extensions>
      </trkpt>
      <trkpt lat="61.0098438922" lon="14.5291239369">
        <ele>168.6</ele>
        <time>2011-05-24T14:49:22Z</time>
        <extensions><gpxtpx:TrackPointExtension><gpxtpx:hr>143</gpxtpx:hr></gpxtpx:TrackPointExtension></extensions>
      </trkpt>
      <trkpt lat="61.0097591512" lon="14.5296217379">
        <ele>168.6</ele>
        <time>2011-05-24T14:49:28Z</time>
        <extensions><gpxtpx:TrackPointExtension><gpxtpx:hr>142</gpxtpx:hr></gpxtpx:TrackPointExtension></extensions>
      </trkpt>
      <trkpt lat="61.0097428903" lon="14.5297222369">
        <ele>168.6</ele>
        <time>2011-05-24T14:49:29Z</time>
        <extensions><gpxtpx:TrackPointExtension><gpxtpx:hr>142</gpxtpx:hr></gpxtpx:TrackPointExtension></extensions>
      </trkpt>
      <trkpt lat="61.0097313233" lon="14.5300126697">
        <ele>168.6</ele>
        <time>2011-05-24T14:49:32Z</time>
        <extensions><gpxtpx:TrackPointExtension><gpxtpx:hr>142</gpxtpx:hr></gpxtpx:TrackPointExtension></extensions>
      </trkpt>
      <trkpt lat="61.0096763381" lon="14.5305245523">
        <ele>168.6</ele>
        <time>2011-05-24T14:49:37Z</time>
        <extensions><gpxtpx:TrackPointExtension><gpxtpx:hr>142</gpxtpx:hr></gpxtpx:TrackPointExtension></extensions>
      </trkpt>
      <trkpt lat="61.0096611668" lon="14.5306369536">
        <ele>168.6</ele>
        <time>2011-05-24T14:49:38Z</time>
        <extensions><gpxtpx:TrackPointExtension><gpxtpx:hr>142</gpxtpx:hr></gpxtpx:TrackPointExtension></extensions>
      </trkpt>
      <trkpt lat="61.0096081094" lon="14.5311207569">
        <ele>169</ele>
        <time>2011-05-24T14:49:43Z</time>
        <extensions><gpxtpx:TrackPointExtension><gpxtpx:hr>144</gpxtpx:hr></gpxtpx:TrackPointExtension></extensions>
      </trkpt>
      <trkpt lat="61.0095877414" lon="14.5314072502">
        <ele>169.4</ele>
        <time>2011-05-24T14:49:46Z</time>
        <extensions><gpxtpx:TrackPointExtension><gpxtpx:hr>145</gpxtpx:hr></gpxtpx:TrackPointExtension></extensions>
      </trkpt>
      <trkpt lat="61.0095046767" lon="14.5315702782">
        <ele>169.8</ele>
        <time>2011-05-24T14:49:50Z</time>
        <extensions><gpxtpx:TrackPointExtension><gpxtpx:hr>145</gpxtpx:hr></gpxtpx:TrackPointExtension></extensions>
      </trkpt>
      <trkpt lat="61.0094720712" lon="14.5315742177">
        <ele>170</ele>
        <time>2011-05-24T14:49:51Z</time>
        <extensions><gpxtpx:TrackPointExtension><gpxtpx:hr>145</gpxtpx:hr></gpxtpx:TrackPointExtension></extensions>
      </trkpt>
      <trkpt lat="61.0092118132" lon="14.5316086673">
        <ele>170.2</ele>
        <time>2011-05-24T14:49:57Z</time>
        <extensions><gpxtpx:TrackPointExtension><gpxtpx:hr>144</gpxtpx:hr></gpxtpx:TrackPointExtension></extensions>
      </trkpt>
      <trkpt lat="61.0090103961" lon="14.5316254311">
        <ele>170.4</ele>
        <time>2011-05-24T14:50:01Z</time>
        <extensions><gpxtpx:TrackPointExtension><gpxtpx:hr>145</gpxtpx:hr></gpxtpx:TrackPointExtension></extensions>
      </trkpt>
      <trkpt lat="61.0088076379" lon="14.5316513312">
        <ele>170.6</ele>
        <time>2011-05-24T14:50:05Z</time>
        <extensions><gpxtpx:TrackPointExtension><gpxtpx:hr>145</gpxtpx:hr></gpxtpx:TrackPointExtension></extensions>
      </trkpt>
      <trkpt lat="61.0086062209" lon="14.5317292828">
        <ele>171.2</ele>
        <time>2011-05-24T14:50:09Z</time>
        <extensions><gpxtpx:TrackPointExtension><gpxtpx:hr>145</gpxtpx:hr></gpxtpx:TrackPointExtension></extensions>
      </trkpt>
      <trkpt lat="61.0084004452" lon="14.5318087432">
        <ele>171.8</ele>
        <time>2011-05-24T14:50:13Z</time>
        <extensions><gpxtpx:TrackPointExtension><gpxtpx:hr>144</gpxtpx:hr></gpxtpx:TrackPointExtension></extensions>
      </trkpt>
      <trkpt lat="61.0083571946" lon="14.5318390019">
        <ele>171.8</ele>
        <time>2011-05-24T14:50:14Z</time>
        <extensions><gpxtpx:TrackPointExtension><gpxtpx:hr>144</gpxtpx:hr></gpxtpx:TrackPointExtension></extensions>
      </trkpt>
      <trkpt lat="61.0081788278" lon="14.5319569352">
        <ele>172</ele>
        <time>2011-05-24T14:50:18Z</time>
        <extensions><gpxtpx:TrackPointExtension><gpxtpx:hr>142</gpxtpx:hr></gpxtpx:TrackPointExtension></extensions>
      </trkpt>
      <trkpt lat="61.0081305481" lon="14.5319969169">
        <ele>172.2</ele>
        <time>2011-05-24T14:50:19Z</time>
        <extensions><gpxtpx:TrackPointExtension><gpxtpx:hr>141</gpxtpx:hr></gpxtpx:TrackPointExtension></extensions>
      </trkpt>
      <trkpt lat="61.007935166" lon="14.5321587714">
        <ele>172.2</ele>
        <time>2011-05-24T14:50:23Z</time>
        <extensions><gpxtpx:TrackPointExtension><gpxtpx:hr>141</gpxtpx:hr></gpxtpx:TrackPointExtension></extensions>
      </trkpt>
      <trkpt lat="61.0077395324" lon="14.5322971566">
        <ele>172.4</ele>
        <time>2011-05-24T14:50:28Z</time>
        <extensions><gpxtpx:TrackPointExtension><gpxtpx:hr>142</gpxtpx:hr></gpxtpx:TrackPointExtension></extensions>
      </trkpt>
      <trkpt lat="61.0075945256" lon="14.5324018465">
        <ele>172.4</ele>
        <time>2011-05-24T14:50:31Z</time>
        <extensions><gpxtpx:TrackPointExtension><gpxtpx:hr>142</gpxtpx:hr></gpxtpx:TrackPointExtension></extensions>
      </trkpt>
      <trkpt lat="61.0074962059" lon="14.5327982265">
        <ele>172.4</ele>
        <time>2011-05-24T14:50:35Z</time>
        <extensions><gpxtpx:TrackPointExtension><gpxtpx:hr>141</gpxtpx:hr></gpxtpx:TrackPointExtension></extensions>
      </trkpt>
      <trkpt lat="61.00747391" lon="14.532924458">
        <ele>172.6</ele>
        <time>2011-05-24T14:50:36Z</time>
        <extensions><gpxtpx:TrackPointExtension><gpxtpx:hr>141</gpxtpx:hr></gpxtpx:TrackPointExtension></extensions>
      </trkpt>
      <trkpt lat="61.007324796" lon="14.5333659326">
        <ele>172.6</ele>
        <time>2011-05-24T14:50:40Z</time>
        <extensions><gpxtpx:TrackPointExtension><gpxtpx:hr>141</gpxtpx:hr></gpxtpx:TrackPointExtension></extensions>
      </trkpt>
      <trkpt lat="61.0071999895" lon="14.5336437088">
        <ele>172.6</ele>
        <time>2011-05-24T14:50:43Z</time>
        <extensions><gpxtpx:TrackPointExtension><gpxtpx:hr>142</gpxtpx:hr></gpxtpx:TrackPointExtension></extensions>
      </trkpt>
      <trkpt lat="61.0070523843" lon="14.534017793">
        <ele>172.6</ele>
        <time>2011-05-24T14:50:47Z</time>
        <extensions><gpxtpx:TrackPointExtension><gpxtpx:hr>142</gpxtpx:hr></gpxtpx:TrackPointExtension></extensions>
      </trkpt>
      <trkpt lat="61.0070142466" lon="14.5341394144">
        <ele>172.6</ele>
        <time>2011-05-24T14:50:48Z</time>
        <extensions><gpxtpx:TrackPointExtension><gpxtpx:hr>143</gpxtpx:hr></gpxtpx:TrackPointExtension></extensions>
      </trkpt>
      <trkpt lat="61.0069318525" lon="14.5346502073">
        <ele>172.6</ele>
        <time>2011-05-24T14:50:52Z</time>
        <extensions><gpxtpx:TrackPointExtension><gpxtpx:hr>142</gpxtpx:hr></gpxtpx:TrackPointExtension></extensions>
      </trkpt>
      <trkpt lat="61.0069099758" lon="14.5350248783">
        <ele>172.6</ele>
        <time>2011-05-24T14:50:55Z</time>
        <extensions><gpxtpx:TrackPointExtension><gpxtpx:hr>141</gpxtpx:hr></gpxtpx:TrackPointExtension></extensions>
      </trkpt>
      <trkpt lat="61.0069036894" lon="14.5354743158">
        <ele>172.6</ele>
        <time>2011-05-24T14:50:59Z</time>
        <extensions><gpxtpx:TrackPointExtension><gpxtpx:hr>141</gpxtpx:hr></gpxtpx:TrackPointExtension></extensions>
      </trkpt>
      <trkpt lat="61.0069410726" lon="14.5359115995">
        <ele>172.6</ele>
        <time>2011-05-24T14:51:03Z</time>
        <extensions><gpxtpx:TrackPointExtension><gpxtpx:hr>139</gpxtpx:hr></gpxtpx:TrackPointExtension></extensions>
      </trkpt>
      <trkpt lat="61.0069911964" lon="14.5362720212">
        <ele>172.6</ele>
        <time>2011-05-24T14:51:06Z</time>
        <extensions><gpxtpx:TrackPointExtension><gpxtpx:hr>138</gpxtpx:hr></gpxtpx:TrackPointExtension></extensions>
      </trkpt>
      <trkpt lat="61.0070292502" lon="14.5365884379">
        <ele>172.6</ele>
        <time>2011-05-24T14:51:09Z</time>
        <extensions><gpxtpx:TrackPointExtension><gpxtpx:hr>135</gpxtpx:hr></gpxtpx:TrackPointExtension></extensions>
      </trkpt>
      <trkpt lat="61.0069914478" lon="14.5368239693">
        <ele>172.6</ele>
        <time>2011-05-24T14:51:12Z</time>
        <extensions><gpxtpx:TrackPointExtension><gpxtpx:hr>133</gpxtpx:hr></gpxtpx:TrackPointExtension></extensions>
      </trkpt>
      <trkpt lat="61.0069115683" lon="14.5369501169">
        <ele>172.6</ele>
        <time>2011-05-24T14:51:16Z</time>
        <extensions><gpxtpx:TrackPointExtension><gpxtpx:hr>132</gpxtpx:hr></gpxtpx:TrackPointExtension></extensions>
      </trkpt>
      <trkpt lat="61.0069765281" lon="14.5373430604">
        <ele>174</ele>
        <time>2011-05-24T14:51:29Z</time>
        <extensions><gpxtpx:TrackPointExtension><gpxtpx:hr>129</gpxtpx:hr></gpxtpx:TrackPointExtension></extensions>
      </trkpt>
      <trkpt lat="61.0069642905" lon="14.5377088465">
        <ele>175.2</ele>
        <time>2011-05-24T14:51:39Z</time>
        <extensions><gpxtpx:TrackPointExtension><gpxtpx:hr>127</gpxtpx:hr></gpxtpx:TrackPointExtension></extensions>
      </trkpt>
      <trkpt lat="61.0068307668" lon="14.537806328">
        <ele>176</ele>
        <time>2011-05-24T14:51:45Z</time>
        <extensions><gpxtpx:TrackPointExtension><gpxtpx:hr>126</gpxtpx:hr></gpxtpx:TrackPointExtension></extensions>
      </trkpt>
      <trkpt lat="61.0066577644" lon="14.5379014625">
        <ele>176.4</ele>
        <time>2011-05-24T14:51:53Z</time>
        <extensions><gpxtpx:TrackPointExtension><gpxtpx:hr>123</gpxtpx:hr></gpxtpx:TrackPointExtension></extensions>
      </trkpt>
      <trkpt lat="61.006596828" lon="14.5381342279">
        <ele>176.6</ele>
        <time>2011-05-24T14:51:58Z</time>
        <extensions><gpxtpx:TrackPointExtension><gpxtpx:hr>124</gpxtpx:hr></gpxtpx:TrackPointExtension></extensions>
      </trkpt>
      <trkpt lat="61.0066002646" lon="14.5385049593">
        <ele>176.6</ele>
        <time>2011-05-24T14:52:03Z</time>
        <extensions><gpxtpx:TrackPointExtension><gpxtpx:hr>126</gpxtpx:hr></gpxtpx:TrackPointExtension></extensions>
      </trkpt>
      <trkpt lat="61.0066184533" lon="14.53891123">
        <ele>176.8</ele>
        <time>2011-05-24T14:52:08Z</time>
        <extensions><gpxtpx:TrackPointExtension><gpxtpx:hr>125</gpxtpx:hr></gpxtpx:TrackPointExtension></extensions>
      </trkpt>
      <trkpt lat="61.0066248235" lon="14.5391878327">
        <ele>176.8</ele>
        <time>2011-05-24T14:52:11Z</time>
        <extensions><gpxtpx:TrackPointExtension><gpxtpx:hr>125</gpxtpx:hr></gpxtpx:TrackPointExtension></extensions>
      </trkpt>
      <trkpt lat="61.0066383184" lon="14.5393757549">
        <ele>176.8</ele>
        <time>2011-05-24T14:52:13Z</time>
        <extensions><gpxtpx:TrackPointExtension><gpxtpx:hr>124</gpxtpx:hr></gpxtpx:TrackPointExtension></extensions>
      </trkpt>
      <trkpt lat="61.0066521485" lon="14.5398767411">
        <ele>176.8</ele>
        <time>2011-05-24T14:52:18Z</time>
        <extensions><gpxtpx:TrackPointExtension><gpxtpx:hr>125</gpxtpx:hr></gpxtpx:TrackPointExtension></extensions>
      </trkpt>
      <trkpt lat="61.0066499692" lon="14.5400908986">
        <ele>176.8</ele>
        <time>2011-05-24T14:52:20Z</time>
        <extensions><gpxtpx:TrackPointExtension><gpxtpx:hr>126</gpxtpx:hr></gpxtpx:TrackPointExtension></extensions>
      </trkpt>
      <trkpt lat="61.0065658988" lon="14.540553831">
        <ele>176.8</ele>
        <time>2011-05-24T14:52:25Z</time>
        <extensions><gpxtpx:TrackPointExtension><gpxtpx:hr>126</gpxtpx:hr></gpxtpx:TrackPointExtension></extensions>
      </trkpt>
      <trkpt lat="61.0065891166" lon="14.5408639613">
        <ele>176.8</ele>
        <time>2011-05-24T14:52:28Z</time>
        <extensions><gpxtpx:TrackPointExtension><gpxtpx:hr>126</gpxtpx:hr></gpxtpx:TrackPointExtension></extensions>
      </trkpt>
      <trkpt lat="61.0066882745" lon="14.5412586649">
        <ele>176.8</ele>
        <time>2011-05-24T14:52:32Z</time>
        <extensions><gpxtpx:TrackPointExtension><gpxtpx:hr>125</gpxtpx:hr></gpxtpx:TrackPointExtension></extensions>
      </trkpt>
      <trkpt lat="61.0067409967" lon="14.5415635146">
        <ele>176.8</ele>
        <time>2011-05-24T14:52:35Z</time>
        <extensions><gpxtpx:TrackPointExtension><gpxtpx:hr>124</gpxtpx:hr></gpxtpx:TrackPointExtension></extensions>
      </trkpt>
      <trkpt lat="61.0067670644" lon="14.5417542867">
        <ele>176.8</ele>
        <time>2011-05-24T14:52:37Z</time>
        <extensions><gpxtpx:TrackPointExtension><gpxtpx:hr>124</gpxtpx:hr></gpxtpx:TrackPointExtension></extensions>
      </trkpt>
      <trkpt lat="61.0068233908" lon="14.5421696937">
        <ele>176.8</ele>
        <time>2011-05-24T14:52:41Z</time>
        <extensions><gpxtpx:TrackPointExtension><gpxtpx:hr>122</gpxtpx:hr></gpxtpx:TrackPointExtension></extensions>
      </trkpt>
      <trkpt lat="61.0068894401" lon="14.5426237412">
        <ele>176.8</ele>
        <time>2011-05-24T14:52:45Z</time>
        <extensions><gpxtpx:TrackPointExtension><gpxtpx:hr>124</gpxtpx:hr></gpxtpx:TrackPointExtension></extensions>
      </trkpt>
      <trkpt lat="61.0069564953" lon="14.5430837398">
        <ele>176.8</ele>
        <time>2011-05-24T14:52:49Z</time>
        <extensions><gpxtpx:TrackPointExtension><gpxtpx:hr>123</gpxtpx:hr></gpxtpx:TrackPointExtension></extensions>
      </trkpt>
      <trkpt lat="61.006976109" lon="14.5431937942">
        <ele>176.8</ele>
        <time>2011-05-24T14:52:50Z</time>
        <extensions><gpxtpx:TrackPointExtension><gpxtpx:hr>122</gpxtpx:hr></gpxtpx:TrackPointExtension></extensions>
      </trkpt>
      <trkpt lat="61.007122876" lon="14.5437013182">
        <ele>176.8</ele>
        <time>2011-05-24T14:52:55Z</time>
        <extensions><gpxtpx:TrackPointExtension><gpxtpx:hr>122</gpxtpx:hr></gpxtpx:TrackPointExtension></extensions>
      </trkpt>
      <trkpt lat="61.0072143226" lon="14.5441242689">
        <ele>176.8</ele>
        <time>2011-05-24T14:52:59Z</time>
        <extensions><gpxtpx:TrackPointExtension><gpxtpx:hr>122</gpxtpx:hr></gpxtpx:TrackPointExtension></extensions>
      </trkpt>
      <trkpt lat="61.0072915199" lon="14.5445100878">
        <ele>176.8</ele>
        <time>2011-05-24T14:53:03Z</time>
        <extensions><gpxtpx:TrackPointExtension><gpxtpx:hr>120</gpxtpx:hr></gpxtpx:TrackPointExtension></extensions>
      </trkpt>
      <trkpt lat="61.0073098762" lon="14.5446089942">
        <ele>176.8</ele>
        <time>2011-05-24T14:53:04Z</time>
        <extensions><gpxtpx:TrackPointExtension><gpxtpx:hr>119</gpxtpx:hr></gpxtpx:TrackPointExtension></extensions>
      </trkpt>
      <trkpt lat="61.0073953716" lon="14.5451432565">
        <ele>176.8</ele>
        <time>2011-05-24T14:53:10Z</time>
        <extensions><gpxtpx:TrackPointExtension><gpxtpx:hr>116</gpxtpx:hr></gpxtpx:TrackPointExtension></extensions>
      </trkpt>
      <trkpt lat="61.0074681265" lon="14.5455470964">
        <ele>176.8</ele>
        <time>2011-05-24T14:53:15Z</time>
        <extensions><gpxtpx:TrackPointExtension><gpxtpx:hr>115</gpxtpx:hr></gpxtpx:TrackPointExtension></extensions>
      </trkpt>
      <trkpt lat="61.0075255425" lon="14.5458783491">
        <ele>176.8</ele>
        <time>2011-05-24T14:53:21Z</time>
        <extensions><gpxtpx:TrackPointExtension><gpxtpx:hr>114</gpxtpx:hr></gpxtpx:TrackPointExtension></extensions>
      </trkpt>
      <trkpt lat="61.0075352655" lon="14.5458987171">
        <ele>176.8</ele>
        <time>2011-05-24T14:53:22Z</time>
        <extensions><gpxtpx:TrackPointExtension><gpxtpx:hr>115</gpxtpx:hr></gpxtpx:TrackPointExtension></extensions>
      </trkpt>
      <trkpt lat="61.0075362713" lon="14.5459174926">
        <ele>176.8</ele>
        <time>2011-05-24T14:53:30Z</time>
        <extensions><gpxtpx:TrackPointExtension><gpxtpx:hr>115</gpxtpx:hr></gpxtpx:TrackPointExtension></extensions>
      </trkpt>
      <trkpt lat="61.007550772" lon="14.5459060094">
        <ele>176.8</ele>
        <time>2011-05-24T14:53:48Z</time>
        <extensions><gpxtpx:TrackPointExtension><gpxtpx:hr>116</gpxtpx:hr></gpxtpx:TrackPointExtension></extensions>
      </trkpt>
      <trkpt lat="61.0075427254" lon="14.5458990524">
        <ele>176.8</ele>
        <time>2011-05-24T14:53:53Z</time>
        <extensions><gpxtpx:TrackPointExtension><gpxtpx:hr>111</gpxtpx:hr></gpxtpx:TrackPointExtension></extensions>
      </trkpt>
      <trkpt lat="61.0075387859" lon="14.5458972084">
        <ele>176.8</ele>
        <time>2011-05-24T14:53:57Z</time>
        <extensions><gpxtpx:TrackPointExtension><gpxtpx:hr>106</gpxtpx:hr></gpxtpx:TrackPointExtension></extensions>
      </trkpt>
      <trkpt lat="61.0075333377" lon="14.5458858928">
        <ele>176.8</ele>
        <time>2011-05-24T14:54:14Z</time>
        <extensions><gpxtpx:TrackPointExtension><gpxtpx:hr>101</gpxtpx:hr></gpxtpx:TrackPointExtension></extensions>
      </trkpt>
      <trkpt lat="61.0075309069" lon="14.5458786006">
        <ele>175.8</ele>
        <time>2011-05-24T14:54:20Z</time>
        <extensions><gpxtpx:TrackPointExtension><gpxtpx:hr>101</gpxtpx:hr></gpxtpx:TrackPointExtension></extensions>
      </trkpt>
      <trkpt lat="61.0075177473" lon="14.5458609148">
        <ele>174.8</ele>
        <time>2011-05-24T14:54:55Z</time>
        <extensions><gpxtpx:TrackPointExtension><gpxtpx:hr>101</gpxtpx:hr></gpxtpx:TrackPointExtension></extensions>
      </trkpt>
      <trkpt lat="61.0075173283" lon="14.5458516947">
        <ele>174.8</ele>
        <time>2011-05-24T14:55:24Z</time>
        <extensions><gpxtpx:TrackPointExtension><gpxtpx:hr>108</gpxtpx:hr></gpxtpx:TrackPointExtension></extensions>
      </trkpt>
      <trkpt lat="61.0075174121" lon="14.5458528681">
        <ele>174.8</ele>
        <time>2011-05-24T14:55:25Z</time>
        <extensions><gpxtpx:TrackPointExtension><gpxtpx:hr>108</gpxtpx:hr></gpxtpx:TrackPointExtension></extensions>
      </trkpt>
      <trkpt lat="61.0075144784" lon="14.5458672012">
        <ele>174.8</ele>
        <time>2011-05-24T14:55:40Z</time>
        <extensions><gpxtpx:TrackPointExtension><gpxtpx:hr>119</gpxtpx:hr></gpxtpx:TrackPointExtension></extensions>
      </trkpt>
      <trkpt lat="61.0075140593" lon="14.5458673688">
        <ele>174.8</ele>
        <time>2011-05-24T14:55:41Z</time>
        <extensions><gpxtpx:TrackPointExtension><gpxtpx:hr>119</gpxtpx:hr></gpxtpx:TrackPointExtension></extensions>
      </trkpt>
      <trkpt lat="61.0075134726" lon="14.5458630102">
        <ele>174.8</ele>
        <time>2011-05-24T14:55:45Z</time>
        <extensions><gpxtpx:TrackPointExtension><gpxtpx:hr>113</gpxtpx:hr></gpxtpx:TrackPointExtension></extensions>
      </trkpt>
      <trkpt lat="61.0075076052" lon="14.5458716436">
        <ele>174.8</ele>
        <time>2011-05-24T14:55:56Z</time>
        <extensions><gpxtpx:TrackPointExtension><gpxtpx:hr>107</gpxtpx:hr></gpxtpx:TrackPointExtension></extensions>
      </trkpt>
      <trkpt lat="61.0075328348" lon="14.5459500144">
        <ele>174.8</ele>
        <time>2011-05-24T14:56:15Z</time>
        <extensions><gpxtpx:TrackPointExtension><gpxtpx:hr>109</gpxtpx:hr></gpxtpx:TrackPointExtension></extensions>
      </trkpt>
      <trkpt lat="61.0075299011" lon="14.5459187499">
        <ele>174.8</ele>
        <time>2011-05-24T14:56:19Z</time>
        <extensions><gpxtpx:TrackPointExtension><gpxtpx:hr>110</gpxtpx:hr></gpxtpx:TrackPointExtension></extensions>
      </trkpt>
      <trkpt lat="61.0074762569" lon="14.5458112101">
        <ele>174.8</ele>
        <time>2011-05-24T14:56:25Z</time>
        <extensions><gpxtpx:TrackPointExtension><gpxtpx:hr>108</gpxtpx:hr></gpxtpx:TrackPointExtension></extensions>
      </trkpt>
      <trkpt lat="61.0074309947" lon="14.5456945341">
        <ele>174.8</ele>
        <time>2011-05-24T14:56:33Z</time>
        <extensions><gpxtpx:TrackPointExtension><gpxtpx:hr>104</gpxtpx:hr></gpxtpx:TrackPointExtension></extensions>
      </trkpt>
      <trkpt lat="61.0074156558" lon="14.5456360284">
        <ele>174.8</ele>
        <time>2011-05-24T14:56:37Z</time>
        <extensions><gpxtpx:TrackPointExtension><gpxtpx:hr>104</gpxtpx:hr></gpxtpx:TrackPointExtension></extensions>
      </trkpt>
      <trkpt lat="61.007416494" lon="14.5455952924">
        <ele>174.8</ele>
        <time>2011-05-24T14:56:47Z</time>
        <extensions><gpxtpx:TrackPointExtension><gpxtpx:hr>107</gpxtpx:hr></gpxtpx:TrackPointExtension></extensions>
      </trkpt>
      <trkpt lat="61.0074453277" lon="14.5455978908">
        <ele>176.6</ele>
        <time>2011-05-24T14:57:29Z</time>
        <extensions><gpxtpx:TrackPointExtension><gpxtpx:hr>102</gpxtpx:hr></gpxtpx:TrackPointExtension></extensions>
      </trkpt>
      <trkpt lat="61.0074563918" lon="14.5455817137">
        <ele>178.8</ele>
        <time>2011-05-24T14:58:19Z</time>
        <extensions><gpxtpx:TrackPointExtension><gpxtpx:hr>107</gpxtpx:hr></gpxtpx:TrackPointExtension></extensions>
      </trkpt>
      <trkpt lat="61.0074596608" lon="14.5455788638">
        <ele>178.8</ele>
        <time>2011-05-24T14:58:23Z</time>
        <extensions><gpxtpx:TrackPointExtension><gpxtpx:hr>101</gpxtpx:hr></gpxtpx:TrackPointExtension></extensions>
      </trkpt>
      <trkpt lat="61.007470222" lon="14.5455745053">
        <ele>179.8</ele>
        <time>2011-05-24T14:58:42Z</time>
        <extensions><gpxtpx:TrackPointExtension><gpxtpx:hr>102</gpxtpx:hr></gpxtpx:TrackPointExtension></extensions>
      </trkpt>
      <trkpt lat="61.0074778495" lon="14.5455713201">
        <ele>180.6</ele>
        <time>2011-05-24T14:58:54Z</time>
        <extensions><gpxtpx:TrackPointExtension><gpxtpx:hr>98</gpxtpx:hr></gpxtpx:TrackPointExtension></extensions>
      </trkpt>
      <trkpt lat="61.0074796097" lon="14.5455816299">
        <ele>182.8</ele>
        <time>2011-05-24T14:59:36Z</time>
        <extensions><gpxtpx:TrackPointExtension><gpxtpx:hr>103</gpxtpx:hr></gpxtpx:TrackPointExtension></extensions>
      </trkpt>
      <trkpt lat="61.0074819566" lon="14.5455843121">
        <ele>182.8</ele>
        <time>2011-05-24T14:59:51Z</time>
        <extensions><gpxtpx:TrackPointExtension><gpxtpx:hr>98</gpxtpx:hr></gpxtpx:TrackPointExtension></extensions>
      </trkpt>
      <trkpt lat="61.0074798612" lon="14.5455650337">
        <ele>182.8</ele>
        <time>2011-05-24T15:00:10Z</time>
        <extensions><gpxtpx:TrackPointExtension><gpxtpx:hr>99</gpxtpx:hr></gpxtpx:TrackPointExtension></extensions>
      </trkpt>
      <trkpt lat="61.007481789" lon="14.5455763493">
        <ele>182.8</ele>
        <time>2011-05-24T15:00:21Z</time>
        <extensions><gpxtpx:TrackPointExtension><gpxtpx:hr>94</gpxtpx:hr></gpxtpx:TrackPointExtension></extensions>
      </trkpt>
      <trkpt lat="61.0074936075" lon="14.5455559813">
        <ele>184</ele>
        <time>2011-05-24T15:00:37Z</time>
        <extensions><gpxtpx:TrackPointExtension><gpxtpx:hr>99</gpxtpx:hr></gpxtpx:TrackPointExtension></extensions>
      </trkpt>
      <trkpt lat="61.007496122" lon="14.5455606751">
        <ele>184.2</ele>
        <time>2011-05-24T15:00:41Z</time>
        <extensions><gpxtpx:TrackPointExtension><gpxtpx:hr>94</gpxtpx:hr></gpxtpx:TrackPointExtension></extensions>
      </trkpt>
      <trkpt lat="61.0075005645" lon="14.5455628544">
        <ele>186.4</ele>
        <time>2011-05-24T15:01:02Z</time>
        <extensions><gpxtpx:TrackPointExtension><gpxtpx:hr>99</gpxtpx:hr></gpxtpx:TrackPointExtension></extensions>
      </trkpt>
      <trkpt lat="61.0074821243" lon="14.5455844797">
        <ele>187</ele>
        <time>2011-05-24T15:01:33Z</time>
        <extensions><gpxtpx:TrackPointExtension><gpxtpx:hr>102</gpxtpx:hr></gpxtpx:TrackPointExtension></extensions>
      </trkpt>
      <trkpt lat="61.0074780171" lon="14.5455933645">
        <ele>187</ele>
        <time>2011-05-24T15:01:38Z</time>
        <extensions><gpxtpx:TrackPointExtension><gpxtpx:hr>97</gpxtpx:hr></gpxtpx:TrackPointExtension></extensions>
      </trkpt>
      <trkpt lat="61.0074832139" lon="14.5456301611">
        <ele>187</ele>
        <time>2011-05-24T15:02:27Z</time>
        <extensions><gpxtpx:TrackPointExtension><gpxtpx:hr>103</gpxtpx:hr></gpxtpx:TrackPointExtension></extensions>
      </trkpt>
      <trkpt lat="61.0075876524" lon="14.5458591546">
        <ele>186.4</ele>
        <time>2011-05-24T15:02:34Z</time>
        <extensions><gpxtpx:TrackPointExtension><gpxtpx:hr>109</gpxtpx:hr></gpxtpx:TrackPointExtension></extensions>
      </trkpt>
      <trkpt lat="61.0075291467" lon="14.5458729847">
        <ele>185.8</ele>
        <time>2011-05-24T15:02:39Z</time>
        <extensions><gpxtpx:TrackPointExtension><gpxtpx:hr>114</gpxtpx:hr></gpxtpx:TrackPointExtension></extensions>
      </trkpt>
      <trkpt lat="61.0074806993" lon="14.5457363597">
        <ele>185.4</ele>
        <time>2011-05-24T15:02:43Z</time>
        <extensions><gpxtpx:TrackPointExtension><gpxtpx:hr>115</gpxtpx:hr></gpxtpx:TrackPointExtension></extensions>
      </trkpt>
      <trkpt lat="61.0074622592" lon="14.5456258863">
        <ele>185.2</ele>
        <time>2011-05-24T15:02:46Z</time>
        <extensions><gpxtpx:TrackPointExtension><gpxtpx:hr>116</gpxtpx:hr></gpxtpx:TrackPointExtension></extensions>
      </trkpt>
      <trkpt lat="61.0074499378" lon="14.5456169177">
        <ele>184.6</ele>
        <time>2011-05-24T15:02:51Z</time>
        <extensions><gpxtpx:TrackPointExtension><gpxtpx:hr>116</gpxtpx:hr></gpxtpx:TrackPointExtension></extensions>
      </trkpt>
      <trkpt lat="61.0074460821" lon="14.5456243776">
        <ele>183.6</ele>
        <time>2011-05-24T15:02:58Z</time>
        <extensions><gpxtpx:TrackPointExtension><gpxtpx:hr>114</gpxtpx:hr></gpxtpx:TrackPointExtension></extensions>
      </trkpt>
      <trkpt lat="61.0074218584" lon="14.5456150736">
        <ele>181.2</ele>
        <time>2011-05-24T15:03:20Z</time>
        <extensions><gpxtpx:TrackPointExtension><gpxtpx:hr>119</gpxtpx:hr></gpxtpx:TrackPointExtension></extensions>
      </trkpt>
      <trkpt lat="61.0074184218" lon="14.5456132296">
        <ele>181</ele>
        <time>2011-05-24T15:03:24Z</time>
        <extensions><gpxtpx:TrackPointExtension><gpxtpx:hr>113</gpxtpx:hr></gpxtpx:TrackPointExtension></extensions>
      </trkpt>
      <trkpt lat="61.0074088665" lon="14.5456122238">
        <ele>179.4</ele>
        <time>2011-05-24T15:03:34Z</time>
        <extensions><gpxtpx:TrackPointExtension><gpxtpx:hr>107</gpxtpx:hr></gpxtpx:TrackPointExtension></extensions>
      </trkpt>
      <trkpt lat="61.0074038373" lon="14.5456113856">
        <ele>179</ele>
        <time>2011-05-24T15:03:44Z</time>
        <extensions><gpxtpx:TrackPointExtension><gpxtpx:hr>100</gpxtpx:hr></gpxtpx:TrackPointExtension></extensions>
      </trkpt>
      <trkpt lat="61.0073941981" lon="14.5456107989">
        <ele>177</ele>
        <time>2011-05-24T15:04:07Z</time>
        <extensions><gpxtpx:TrackPointExtension><gpxtpx:hr>95</gpxtpx:hr></gpxtpx:TrackPointExtension></extensions>
      </trkpt>
      <trkpt lat="61.0074023286" lon="14.5455658719">
        <ele>176.4</ele>
        <time>2011-05-24T15:04:32Z</time>
        <extensions><gpxtpx:TrackPointExtension><gpxtpx:hr>100</gpxtpx:hr></gpxtpx:TrackPointExtension></extensions>
      </trkpt>
      <trkpt lat="61.0073967965" lon="14.5455834739">
        <ele>175.4</ele>
        <time>2011-05-24T15:04:39Z</time>
        <extensions><gpxtpx:TrackPointExtension><gpxtpx:hr>103</gpxtpx:hr></gpxtpx:TrackPointExtension></extensions>
      </trkpt>
      <trkpt lat="61.0073964613" lon="14.5455833901">
        <ele>175.4</ele>
        <time>2011-05-24T15:04:41Z</time>
        <extensions><gpxtpx:TrackPointExtension><gpxtpx:hr>95</gpxtpx:hr></gpxtpx:TrackPointExtension></extensions>
      </trkpt>
      <trkpt lat="61.0073956231" lon="14.5455835577">
        <ele>175</ele>
        <time>2011-05-24T15:04:44Z</time>
        <extensions><gpxtpx:TrackPointExtension><gpxtpx:hr>89</gpxtpx:hr></gpxtpx:TrackPointExtension></extensions>
      </trkpt>
      <trkpt lat="61.0073900072" lon="14.5455911852">
        <ele>174.6</ele>
        <time>2011-05-24T15:04:56Z</time>
        <extensions><gpxtpx:TrackPointExtension><gpxtpx:hr>94</gpxtpx:hr></gpxtpx:TrackPointExtension></extensions>
      </trkpt>
      <trkpt lat="61.0074041726" lon="14.545602417">
        <ele>174.6</ele>
        <time>2011-05-24T15:05:03Z</time>
        <extensions><gpxtpx:TrackPointExtension><gpxtpx:hr>99</gpxtpx:hr></gpxtpx:TrackPointExtension></extensions>
      </trkpt>
      <trkpt lat="61.0074099561" lon="14.5456341844">
        <ele>174.6</ele>
        <time>2011-05-24T15:05:07Z</time>
        <extensions><gpxtpx:TrackPointExtension><gpxtpx:hr>105</gpxtpx:hr></gpxtpx:TrackPointExtension></extensions>
      </trkpt>
      <trkpt lat="61.0074119678" lon="14.5456350226">
        <ele>174.6</ele>
        <time>2011-05-24T15:05:13Z</time>
        <extensions><gpxtpx:TrackPointExtension><gpxtpx:hr>100</gpxtpx:hr></gpxtpx:TrackPointExtension></extensions>
      </trkpt>
      <trkpt lat="61.0074108781" lon="14.5455716554">
        <ele>174.6</ele>
        <time>2011-05-24T15:05:27Z</time>
        <extensions><gpxtpx:TrackPointExtension><gpxtpx:hr>103</gpxtpx:hr></gpxtpx:TrackPointExtension></extensions>
      </trkpt>
      <trkpt lat="61.0074228642" lon="14.5456349388">
        <ele>174.6</ele>
        <time>2011-05-24T15:05:32Z</time>
        <extensions><gpxtpx:TrackPointExtension><gpxtpx:hr>104</gpxtpx:hr></gpxtpx:TrackPointExtension></extensions>
      </trkpt>
      <trkpt lat="61.0074244568" lon="14.545635274">
        <ele>174.6</ele>
        <time>2011-05-24T15:05:37Z</time>
        <extensions><gpxtpx:TrackPointExtension><gpxtpx:hr>103</gpxtpx:hr></gpxtpx:TrackPointExtension></extensions>
      </trkpt>
      <trkpt lat="61.0074789392" lon="14.5457990564">
        <ele>182.2</ele>
        <time>2011-05-24T15:06:54Z</time>
        <extensions><gpxtpx:TrackPointExtension><gpxtpx:hr>98</gpxtpx:hr></gpxtpx:TrackPointExtension></extensions>
      </trkpt>
      <trkpt lat="61.0074785201" lon="14.5457936081">
        <ele>182.4</ele>
        <time>2011-05-24T15:06:59Z</time>
        <extensions><gpxtpx:TrackPointExtension><gpxtpx:hr>93</gpxtpx:hr></gpxtpx:TrackPointExtension></extensions>
      </trkpt>
      <trkpt lat="61.0074827948" lon="14.5458066001">
        <ele>182.8</ele>
        <time>2011-05-24T15:07:13Z</time>
        <extensions><gpxtpx:TrackPointExtension><gpxtpx:hr>98</gpxtpx:hr></gpxtpx:TrackPointExtension></extensions>
      </trkpt>
      <trkpt lat="61.0074964573" lon="14.5458600766">
        <ele>182.8</ele>
        <time>2011-05-24T15:07:17Z</time>
        <extensions><gpxtpx:TrackPointExtension><gpxtpx:hr>102</gpxtpx:hr></gpxtpx:TrackPointExtension></extensions>
      </trkpt>
      <trkpt lat="61.0075071023" lon="14.5459077696">
        <ele>182.8</ele>
        <time>2011-05-24T15:07:21Z</time>
        <extensions><gpxtpx:TrackPointExtension><gpxtpx:hr>97</gpxtpx:hr></gpxtpx:TrackPointExtension></extensions>
      </trkpt>
      <trkpt lat="61.0075014865" lon="14.5459049197">
        <ele>182.8</ele>
        <time>2011-05-24T15:07:24Z</time>
        <extensions><gpxtpx:TrackPointExtension><gpxtpx:hr>97</gpxtpx:hr></gpxtpx:TrackPointExtension></extensions>
      </trkpt>
      <trkpt lat="61.0074996424" lon="14.5458834621">
        <ele>182.8</ele>
        <time>2011-05-24T15:07:27Z</time>
        <extensions><gpxtpx:TrackPointExtension><gpxtpx:hr>98</gpxtpx:hr></gpxtpx:TrackPointExtension></extensions>
      </trkpt>
      <trkpt lat="61.0074920987" lon="14.5458263813">
        <ele>182.8</ele>
        <time>2011-05-24T15:07:35Z</time>
        <extensions><gpxtpx:TrackPointExtension><gpxtpx:hr>96</gpxtpx:hr></gpxtpx:TrackPointExtension></extensions>
      </trkpt>
      <trkpt lat="61.0074977984" lon="14.5458053428">
        <ele>182.2</ele>
        <time>2011-05-24T15:07:49Z</time>
        <extensions><gpxtpx:TrackPointExtension><gpxtpx:hr>101</gpxtpx:hr></gpxtpx:TrackPointExtension></extensions>
      </trkpt>
      <trkpt lat="61.0075008997" lon="14.5457801971">
        <ele>180.4</ele>
        <time>2011-05-24T15:08:11Z</time>
        <extensions><gpxtpx:TrackPointExtension><gpxtpx:hr>96</gpxtpx:hr></gpxtpx:TrackPointExtension></extensions>
      </trkpt>
      <trkpt lat="61.0074908414" lon="14.5457663669">
        <ele>179</ele>
        <time>2011-05-24T15:08:30Z</time>
        <extensions><gpxtpx:TrackPointExtension><gpxtpx:hr>98</gpxtpx:hr></gpxtpx:TrackPointExtension></extensions>
      </trkpt>
      <trkpt lat="61.0075156519" lon="14.5457810353">
        <ele>178.8</ele>
        <time>2011-05-24T15:08:33Z</time>
        <extensions><gpxtpx:TrackPointExtension><gpxtpx:hr>103</gpxtpx:hr></gpxtpx:TrackPointExtension></extensions>
      </trkpt>
      <trkpt lat="61.007535517" lon="14.5458076059">
        <ele>178.8</ele>
        <time>2011-05-24T15:08:39Z</time>
        <extensions><gpxtpx:TrackPointExtension><gpxtpx:hr>104</gpxtpx:hr></gpxtpx:TrackPointExtension></extensions>
      </trkpt>
      <trkpt lat="61.0075732355" lon="14.5458504374">
        <ele>178.4</ele>
        <time>2011-05-24T15:08:44Z</time>
        <extensions><gpxtpx:TrackPointExtension><gpxtpx:hr>100</gpxtpx:hr></gpxtpx:TrackPointExtension></extensions>
      </trkpt>
      <trkpt lat="61.0075252911" lon="14.5458304047">
        <ele>177.8</ele>
        <time>2011-05-24T15:08:49Z</time>
        <extensions><gpxtpx:TrackPointExtension><gpxtpx:hr>100</gpxtpx:hr></gpxtpx:TrackPointExtension></extensions>
      </trkpt>
      <trkpt lat="61.0075093654" lon="14.5458200111">
        <ele>177.6</ele>
        <time>2011-05-24T15:08:51Z</time>
        <extensions><gpxtpx:TrackPointExtension><gpxtpx:hr>101</gpxtpx:hr></gpxtpx:TrackPointExtension></extensions>
      </trkpt>
      <trkpt lat="61.0074945295" lon="14.5458003136">
        <ele>177.2</ele>
        <time>2011-05-24T15:08:55Z</time>
        <extensions><gpxtpx:TrackPointExtension><gpxtpx:hr>102</gpxtpx:hr></gpxtpx:TrackPointExtension></extensions>
      </trkpt>
      <trkpt lat="61.0074688809" lon="14.5457320012">
        <ele>176.8</ele>
        <time>2011-05-24T15:09:07Z</time>
        <extensions><gpxtpx:TrackPointExtension><gpxtpx:hr>100</gpxtpx:hr></gpxtpx:TrackPointExtension></extensions>
      </trkpt>
      <trkpt lat="61.0074320843" lon="14.5455563165">
        <ele>176.8</ele>
        <time>2011-05-24T15:09:10Z</time>
        <extensions><gpxtpx:TrackPointExtension><gpxtpx:hr>105</gpxtpx:hr></gpxtpx:TrackPointExtension></extensions>
      </trkpt>
      <trkpt lat="61.007354887" lon="14.5452126586">
        <ele>176.8</ele>
        <time>2011-05-24T15:09:14Z</time>
        <extensions><gpxtpx:TrackPointExtension><gpxtpx:hr>111</gpxtpx:hr></gpxtpx:TrackPointExtension></extensions>
      </trkpt>
      <trkpt lat="61.0073417274" lon="14.5451457711">
        <ele>176.8</ele>
        <time>2011-05-24T15:09:15Z</time>
        <extensions><gpxtpx:TrackPointExtension><gpxtpx:hr>113</gpxtpx:hr></gpxtpx:TrackPointExtension></extensions>
      </trkpt>
      <trkpt lat="61.0073595809" lon="14.5450817334">
        <ele>176.8</ele>
        <time>2011-05-24T15:09:20Z</time>
        <extensions><gpxtpx:TrackPointExtension><gpxtpx:hr>115</gpxtpx:hr></gpxtpx:TrackPointExtension></extensions>
      </trkpt>
      <trkpt lat="61.0073664541" lon="14.5450276701">
        <ele>176.8</ele>
        <time>2011-05-24T15:09:26Z</time>
        <extensions><gpxtpx:TrackPointExtension><gpxtpx:hr>117</gpxtpx:hr></gpxtpx:TrackPointExtension></extensions>
      </trkpt>
      <trkpt lat="61.0073682981" lon="14.5448669891">
        <ele>176.8</ele>
        <time>2011-05-24T15:09:29Z</time>
        <extensions><gpxtpx:TrackPointExtension><gpxtpx:hr>116</gpxtpx:hr></gpxtpx:TrackPointExtension></extensions>
      </trkpt>
      <trkpt lat="61.0073856486" lon="14.5450238982">
        <ele>176.8</ele>
        <time>2011-05-24T15:09:35Z</time>
        <extensions><gpxtpx:TrackPointExtension><gpxtpx:hr>115</gpxtpx:hr></gpxtpx:TrackPointExtension></extensions>
      </trkpt>
      <trkpt lat="61.0074038373" lon="14.5450830745">
        <ele>176.8</ele>
        <time>2011-05-24T15:09:37Z</time>
        <extensions><gpxtpx:TrackPointExtension><gpxtpx:hr>114</gpxtpx:hr></gpxtpx:TrackPointExtension></extensions>
      </trkpt>
      <trkpt lat="61.0074152367" lon="14.545114758">
        <ele>176.8</ele>
        <time>2011-05-24T15:09:39Z</time>
        <extensions><gpxtpx:TrackPointExtension><gpxtpx:hr>111</gpxtpx:hr></gpxtpx:TrackPointExtension></extensions>
      </trkpt>
      <trkpt lat="61.0074380355" lon="14.5451914524">
        <ele>176.8</ele>
        <time>2011-05-24T15:09:45Z</time>
        <extensions><gpxtpx:TrackPointExtension><gpxtpx:hr>107</gpxtpx:hr></gpxtpx:TrackPointExtension></extensions>
      </trkpt>
      <trkpt lat="61.0074311623" lon="14.5452258182">
        <ele>176.8</ele>
        <time>2011-05-24T15:09:51Z</time>
        <extensions><gpxtpx:TrackPointExtension><gpxtpx:hr>108</gpxtpx:hr></gpxtpx:TrackPointExtension></extensions>
      </trkpt>
      <trkpt lat="61.0074567271" lon="14.5454458431">
        <ele>176.8</ele>
        <time>2011-05-24T15:09:56Z</time>
        <extensions><gpxtpx:TrackPointExtension><gpxtpx:hr>111</gpxtpx:hr></gpxtpx:TrackPointExtension></extensions>
      </trkpt>
      <trkpt lat="61.0074852256" lon="14.5456132296">
        <ele>176.8</ele>
        <time>2011-05-24T15:09:57Z</time>
        <extensions><gpxtpx:TrackPointExtension><gpxtpx:hr>122</gpxtpx:hr></gpxtpx:TrackPointExtension></extensions>
      </trkpt>
      <trkpt lat="61.007504923" lon="14.5457195121">
        <ele>176.8</ele>
        <time>2011-05-24T15:09:59Z</time>
        <extensions><gpxtpx:TrackPointExtension><gpxtpx:hr>122</gpxtpx:hr></gpxtpx:TrackPointExtension></extensions>
      </trkpt>
      <trkpt lat="61.0075349302" lon="14.5457818735">
        <ele>176.8</ele>
        <time>2011-05-24T15:10:00Z</time>
        <extensions><gpxtpx:TrackPointExtension><gpxtpx:hr>121</gpxtpx:hr></gpxtpx:TrackPointExtension></extensions>
      </trkpt>
      <trkpt lat="61.0075434798" lon="14.5460082686">
        <ele>176.8</ele>
        <time>2011-05-24T15:10:03Z</time>
        <extensions><gpxtpx:TrackPointExtension><gpxtpx:hr>119</gpxtpx:hr></gpxtpx:TrackPointExtension></extensions>
      </trkpt>
      <trkpt lat="61.0074839683" lon="14.5459371062">
        <ele>176.8</ele>
        <time>2011-05-24T15:10:06Z</time>
        <extensions><gpxtpx:TrackPointExtension><gpxtpx:hr>117</gpxtpx:hr></gpxtpx:TrackPointExtension></extensions>
      </trkpt>
      <trkpt lat="61.0074816214" lon="14.5456747528">
        <ele>176.8</ele>
        <time>2011-05-24T15:10:11Z</time>
        <extensions><gpxtpx:TrackPointExtension><gpxtpx:hr>116</gpxtpx:hr></gpxtpx:TrackPointExtension></extensions>
      </trkpt>
      <trkpt lat="61.0074630974" lon="14.5454928655">
        <ele>176.8</ele>
        <time>2011-05-24T15:10:13Z</time>
        <extensions><gpxtpx:TrackPointExtension><gpxtpx:hr>117</gpxtpx:hr></gpxtpx:TrackPointExtension></extensions>
      </trkpt>
      <trkpt lat="61.0073820444" lon="14.5449932205">
        <ele>176.8</ele>
        <time>2011-05-24T15:10:19Z</time>
        <extensions><gpxtpx:TrackPointExtension><gpxtpx:hr>120</gpxtpx:hr></gpxtpx:TrackPointExtension></extensions>
      </trkpt>
      <trkpt lat="61.0073608382" lon="14.5449538256">
        <ele>176.8</ele>
        <time>2011-05-24T15:10:20Z</time>
        <extensions><gpxtpx:TrackPointExtension><gpxtpx:hr>120</gpxtpx:hr></gpxtpx:TrackPointExtension></extensions>
      </trkpt>
      <trkpt lat="61.0073592456" lon="14.5449114131">
        <ele>176.8</ele>
        <time>2011-05-24T15:10:26Z</time>
        <extensions><gpxtpx:TrackPointExtension><gpxtpx:hr>118</gpxtpx:hr></gpxtpx:TrackPointExtension></extensions>
      </trkpt>
      <trkpt lat="61.0073842237" lon="14.5450645505">
        <ele>176.8</ele>
        <time>2011-05-24T15:10:33Z</time>
        <extensions><gpxtpx:TrackPointExtension><gpxtpx:hr>119</gpxtpx:hr></gpxtpx:TrackPointExtension></extensions>
      </trkpt>
      <trkpt lat="61.0074361915" lon="14.5453958031">
        <ele>176.8</ele>
        <time>2011-05-24T15:10:39Z</time>
        <extensions><gpxtpx:TrackPointExtension><gpxtpx:hr>119</gpxtpx:hr></gpxtpx:TrackPointExtension></extensions>
      </trkpt>
      <trkpt lat="61.0075093654" lon="14.5457335937">
        <ele>176.8</ele>
        <time>2011-05-24T15:10:42Z</time>
        <extensions><gpxtpx:TrackPointExtension><gpxtpx:hr>121</gpxtpx:hr></gpxtpx:TrackPointExtension></extensions>
      </trkpt>
      <trkpt lat="61.0075736546" lon="14.5459138046">
        <ele>177.2</ele>
        <time>2011-05-24T15:10:43Z</time>
        <extensions><gpxtpx:TrackPointExtension><gpxtpx:hr>123</gpxtpx:hr></gpxtpx:TrackPointExtension></extensions>
      </trkpt>
      <trkpt lat="61.0075152328" lon="14.5460317379">
        <ele>177.6</ele>
        <time>2011-05-24T15:10:47Z</time>
        <extensions><gpxtpx:TrackPointExtension><gpxtpx:hr>124</gpxtpx:hr></gpxtpx:TrackPointExtension></extensions>
      </trkpt>
      <trkpt lat="61.0074920987" lon="14.5458537063">
        <ele>178</ele>
        <time>2011-05-24T15:10:50Z</time>
        <extensions><gpxtpx:TrackPointExtension><gpxtpx:hr>124</gpxtpx:hr></gpxtpx:TrackPointExtension></extensions>
      </trkpt>
      <trkpt lat="61.0075045878" lon="14.5458338412">
        <ele>178</ele>
        <time>2011-05-24T15:10:51Z</time>
        <extensions><gpxtpx:TrackPointExtension><gpxtpx:hr>124</gpxtpx:hr></gpxtpx:TrackPointExtension></extensions>
      </trkpt>
      <trkpt lat="61.007505426" lon="14.5458317458">
        <ele>178.6</ele>
        <time>2011-05-24T15:11:01Z</time>
        <extensions><gpxtpx:TrackPointExtension><gpxtpx:hr>119</gpxtpx:hr></gpxtpx:TrackPointExtension></extensions>
      </trkpt>
      <trkpt lat="61.0075034143" lon="14.5458221904">
        <ele>178.8</ele>
        <time>2011-05-24T15:11:11Z</time>
        <extensions><gpxtpx:TrackPointExtension><gpxtpx:hr>114</gpxtpx:hr></gpxtpx:TrackPointExtension></extensions>
      </trkpt>
      <trkpt lat="61.0074885783" lon="14.5456788599">
        <ele>178.8</ele>
        <time>2011-05-24T15:11:21Z</time>
        <extensions><gpxtpx:TrackPointExtension><gpxtpx:hr>109</gpxtpx:hr></gpxtpx:TrackPointExtension></extensions>
      </trkpt>
      <trkpt lat="61.0074433999" lon="14.5454149139">
        <ele>178.8</ele>
        <time>2011-05-24T15:11:25Z</time>
        <extensions><gpxtpx:TrackPointExtension><gpxtpx:hr>112</gpxtpx:hr></gpxtpx:TrackPointExtension></extensions>
      </trkpt>
      <trkpt lat="61.0073923541" lon="14.545058264">
        <ele>178.8</ele>
        <time>2011-05-24T15:11:29Z</time>
        <extensions><gpxtpx:TrackPointExtension><gpxtpx:hr>115</gpxtpx:hr></gpxtpx:TrackPointExtension></extensions>
      </trkpt>
      <trkpt lat="61.0073601676" lon="14.5448820765">
        <ele>178.8</ele>
        <time>2011-05-24T15:11:33Z</time>
        <extensions><gpxtpx:TrackPointExtension><gpxtpx:hr>111</gpxtpx:hr></gpxtpx:TrackPointExtension></extensions>
      </trkpt>
      <trkpt lat="61.0073488521" lon="14.5449685777">
        <ele>178.4</ele>
        <time>2011-05-24T15:11:36Z</time>
        <extensions><gpxtpx:TrackPointExtension><gpxtpx:hr>109</gpxtpx:hr></gpxtpx:TrackPointExtension></extensions>
      </trkpt>
      <trkpt lat="61.0073531268" lon="14.5449899515">
        <ele>178.2</ele>
        <time>2011-05-24T15:11:37Z</time>
        <extensions><gpxtpx:TrackPointExtension><gpxtpx:hr>110</gpxtpx:hr></gpxtpx:TrackPointExtension></extensions>
      </trkpt>
      <trkpt lat="61.0073772667" lon="14.5450865949">
        <ele>177.8</ele>
        <time>2011-05-24T15:11:41Z</time>
        <extensions><gpxtpx:TrackPointExtension><gpxtpx:hr>109</gpxtpx:hr></gpxtpx:TrackPointExtension></extensions>
      </trkpt>
      <trkpt lat="61.007370645" lon="14.5451663067">
        <ele>177.4</ele>
        <time>2011-05-24T15:11:45Z</time>
        <extensions><gpxtpx:TrackPointExtension><gpxtpx:hr>104</gpxtpx:hr></gpxtpx:TrackPointExtension></extensions>
      </trkpt>
      <trkpt lat="61.0073782725" lon="14.545162451">
        <ele>176.8</ele>
        <time>2011-05-24T15:12:02Z</time>
        <extensions><gpxtpx:TrackPointExtension><gpxtpx:hr>99</gpxtpx:hr></gpxtpx:TrackPointExtension></extensions>
      </trkpt>
      <trkpt lat="61.0073807871" lon="14.5451766165">
        <ele>178.6</ele>
        <time>2011-05-24T15:12:28Z</time>
        <extensions><gpxtpx:TrackPointExtension><gpxtpx:hr>100</gpxtpx:hr></gpxtpx:TrackPointExtension></extensions>
      </trkpt>
      <trkpt lat="61.0073788593" lon="14.5451797178">
        <ele>178.8</ele>
        <time>2011-05-24T15:12:33Z</time>
        <extensions><gpxtpx:TrackPointExtension><gpxtpx:hr>94</gpxtpx:hr></gpxtpx:TrackPointExtension></extensions>
      </trkpt>
      <trkpt lat="61.0073711479" lon="14.5451826514">
        <ele>178.8</ele>
        <time>2011-05-24T15:12:45Z</time>
        <extensions><gpxtpx:TrackPointExtension><gpxtpx:hr>99</gpxtpx:hr></gpxtpx:TrackPointExtension></extensions>
      </trkpt>
      <trkpt lat="61.0074117163" lon="14.54527963">
        <ele>178.8</ele>
        <time>2011-05-24T15:12:55Z</time>
        <extensions><gpxtpx:TrackPointExtension><gpxtpx:hr>96</gpxtpx:hr></gpxtpx:TrackPointExtension></extensions>
      </trkpt>
      <trkpt lat="61.0074371973" lon="14.5454271514">
        <ele>178.8</ele>
        <time>2011-05-24T15:12:58Z</time>
        <extensions><gpxtpx:TrackPointExtension><gpxtpx:hr>101</gpxtpx:hr></gpxtpx:TrackPointExtension></extensions>
      </trkpt>
      <trkpt lat="61.0074905062" lon="14.5457228649">
        <ele>178.8</ele>
        <time>2011-05-24T15:13:04Z</time>
        <extensions><gpxtpx:TrackPointExtension><gpxtpx:hr>100</gpxtpx:hr></gpxtpx:TrackPointExtension></extensions>
      </trkpt>
      <trkpt lat="61.007505426" lon="14.5458345956">
        <ele>178.8</ele>
        <time>2011-05-24T15:13:07Z</time>
        <extensions><gpxtpx:TrackPointExtension><gpxtpx:hr>100</gpxtpx:hr></gpxtpx:TrackPointExtension></extensions>
      </trkpt>
      <trkpt lat="61.0074573977" lon="14.5458523652">
        <ele>178.8</ele>
        <time>2011-05-24T15:13:10Z</time>
        <extensions><gpxtpx:TrackPointExtension><gpxtpx:hr>100</gpxtpx:hr></gpxtpx:TrackPointExtension></extensions>
      </trkpt>
      <trkpt lat="61.0074889974" lon="14.5458120483">
        <ele>178.8</ele>
        <time>2011-05-24T15:13:14Z</time>
        <extensions><gpxtpx:TrackPointExtension><gpxtpx:hr>100</gpxtpx:hr></gpxtpx:TrackPointExtension></extensions>
      </trkpt>
      <trkpt lat="61.0074921826" lon="14.545809869">
        <ele>177.8</ele>
        <time>2011-05-24T15:13:20Z</time>
        <extensions><gpxtpx:TrackPointExtension><gpxtpx:hr>103</gpxtpx:hr></gpxtpx:TrackPointExtension></extensions>
      </trkpt>
      <trkpt lat="61.0074883269" lon="14.5458062648">
        <ele>177.2</ele>
        <time>2011-05-24T15:13:28Z</time>
        <extensions><gpxtpx:TrackPointExtension><gpxtpx:hr>101</gpxtpx:hr></gpxtpx:TrackPointExtension></extensions>
      </trkpt>
      <trkpt lat="61.0074913444" lon="14.5457976314">
        <ele>176.8</ele>
        <time>2011-05-24T15:13:49Z</time>
        <extensions><gpxtpx:TrackPointExtension><gpxtpx:hr>93</gpxtpx:hr></gpxtpx:TrackPointExtension></extensions>
      </trkpt>
      <trkpt lat="61.0074930207" lon="14.5457978829">
        <ele>176.8</ele>
        <time>2011-05-24T15:13:50Z</time>
        <extensions><gpxtpx:TrackPointExtension><gpxtpx:hr>93</gpxtpx:hr></gpxtpx:TrackPointExtension></extensions>
      </trkpt>
      <trkpt lat="61.007489668" lon="14.54580199">
        <ele>176.8</ele>
        <time>2011-05-24T15:13:57Z</time>
        <extensions><gpxtpx:TrackPointExtension><gpxtpx:hr>98</gpxtpx:hr></gpxtpx:TrackPointExtension></extensions>
      </trkpt>
      <trkpt lat="61.0074636841" lon="14.5457496031">
        <ele>176.8</ele>
        <time>2011-05-24T15:14:09Z</time>
        <extensions><gpxtpx:TrackPointExtension><gpxtpx:hr>97</gpxtpx:hr></gpxtpx:TrackPointExtension></extensions>
      </trkpt>
      <trkpt lat="61.0074625106" lon="14.5455610104">
        <ele>176.8</ele>
        <time>2011-05-24T15:14:13Z</time>
        <extensions><gpxtpx:TrackPointExtension><gpxtpx:hr>102</gpxtpx:hr></gpxtpx:TrackPointExtension></extensions>
      </trkpt>
      <trkpt lat="61.007430827" lon="14.5453383033">
        <ele>176.8</ele>
        <time>2011-05-24T15:14:17Z</time>
        <extensions><gpxtpx:TrackPointExtension><gpxtpx:hr>105</gpxtpx:hr></gpxtpx:TrackPointExtension></extensions>
      </trkpt>
      <trkpt lat="61.0074015742" lon="14.5451414125">
        <ele>176.8</ele>
        <time>2011-05-24T15:14:21Z</time>
        <extensions><gpxtpx:TrackPointExtension><gpxtpx:hr>96</gpxtpx:hr></gpxtpx:TrackPointExtension></extensions>
      </trkpt>
    </trkseg>
  </trk>
</gpx>